<?xml version='1.0' encoding='UTF-8'?><gpx version="1.1" creator="JPX - https://github.com/jenetics/jpx" xmlns="http://www.topografix.com/GPX/1/1"><trk><trkseg><trkpt lat="43.98568652149657" lon="12.676557221625103"><ele>3.9999999999999996</ele><time>2026-04-03T12:12:47Z</time></trkpt><trkpt lat="43.98562110220325" lon="12.676646860021064"><ele>4.0</ele><time>2026-04-03T12:14:33Z</time></trkpt><trkpt lat="43.985650551926604" lon="12.676567717188828"><ele>4.0</ele><time>2026-04-03T12:17:00Z</time></trkpt><trkpt lat="43.98573271680193" lon="12.676628988363474"><ele>4.0</ele><time>2026-04-03T12:18:56Z</time></trkpt><trkpt lat="43.985770790026635" lon="12.676703998812934"><ele>3.9999999999999996</ele><time>2026-04-03T12:18:57Z</time></trkpt><trkpt lat="43.985823322147" lon="12.676774839032117"><ele>4.0</ele><time>2026-04-03T12:18:58Z</time></trkpt><trkpt lat="43.98587566875326" lon="12.676852136456812"><ele>3.8000000000000003</ele><time>2026-04-03T12:18:59Z</time></trkpt><trkpt lat="43.98594616793342" lon="12.676948019936123"><ele>3.6000000000000005</ele><time>2026-04-03T12:19:01Z</time></trkpt><trkpt lat="43.9859882909262" lon="12.677016626815453"><ele>3.4</ele><time>2026-04-03T12:19:04Z</time></trkpt><trkpt lat="43.98591727214097" lon="12.677142711114753"><ele>3.2</ele><time>2026-04-03T12:19:07Z</time></trkpt><trkpt lat="43.985860141531184" lon="12.67723719238202"><ele>3.0</ele><time>2026-04-03T12:19:08Z</time></trkpt><trkpt lat="43.985799674148915" lon="12.677337191897038"><ele>3.0</ele><time>2026-04-03T12:19:09Z</time></trkpt><trkpt lat="43.985744120755776" lon="12.67742906476676"><ele>3.0</ele><time>2026-04-03T12:19:10Z</time></trkpt><trkpt lat="43.98568825219757" lon="12.677521459217429"><ele>3.0</ele><time>2026-04-03T12:19:11Z</time></trkpt><trkpt lat="43.98562416981822" lon="12.67762864430838"><ele>3.0</ele><time>2026-04-03T12:19:12Z</time></trkpt><trkpt lat="43.985562390068246" lon="12.677761642588868"><ele>3.0</ele><time>2026-04-03T12:19:13Z</time></trkpt><trkpt lat="43.98549014829003" lon="12.677872980202094"><ele>3.0</ele><time>2026-04-03T12:19:14Z</time></trkpt><trkpt lat="43.98542670375801" lon="12.677965140797383"><ele>3.0</ele><time>2026-04-03T12:19:15Z</time></trkpt><trkpt lat="43.98534316409812" lon="12.678079641896453"><ele>3.0</ele><time>2026-04-03T12:19:17Z</time></trkpt><trkpt lat="43.985260741388025" lon="12.678094088644347"><ele>3.0</ele><time>2026-04-03T12:19:19Z</time></trkpt><trkpt lat="43.98519622274149" lon="12.67808441075671"><ele>3.0</ele><time>2026-04-03T12:19:20Z</time></trkpt><trkpt lat="43.985136345774826" lon="12.67799008348603"><ele>3.0</ele><time>2026-04-03T12:19:21Z</time></trkpt><trkpt lat="43.98507311537988" lon="12.677918058535917"><ele>3.0</ele><time>2026-04-03T12:19:22Z</time></trkpt><trkpt lat="43.98499533430122" lon="12.677854356408906"><ele>3.0</ele><time>2026-04-03T12:19:23Z</time></trkpt><trkpt lat="43.984925913977044" lon="12.677769436355046"><ele>3.0</ele><time>2026-04-03T12:19:24Z</time></trkpt><trkpt lat="43.984879155996374" lon="12.677706811687148"><ele>3.0</ele><time>2026-04-03T12:19:25Z</time></trkpt><trkpt lat="43.98481208369055" lon="12.6775999055025"><ele>3.0</ele><time>2026-04-03T12:19:26.999Z</time></trkpt><trkpt lat="43.98473514671774" lon="12.677563168921466"><ele>3.0</ele><time>2026-04-03T12:19:28.999Z</time></trkpt><trkpt lat="43.98462474999768" lon="12.677708205350893"><ele>3.0</ele><time>2026-04-03T12:19:29.999Z</time></trkpt><trkpt lat="43.984565318710104" lon="12.677808791390772"><ele>3.0</ele><time>2026-04-03T12:19:30.999Z</time></trkpt><trkpt lat="43.98451155050537" lon="12.677922567928798"><ele>3.0</ele><time>2026-04-03T12:19:31.999Z</time></trkpt><trkpt lat="43.98445636770767" lon="12.678026472650933"><ele>3.0</ele><time>2026-04-03T12:19:32.999Z</time></trkpt><trkpt lat="43.98440839157779" lon="12.678106364894271"><ele>3.0</ele><time>2026-04-03T12:19:33.999Z</time></trkpt><trkpt lat="43.98432467865127" lon="12.678233879565942"><ele>3.0</ele><time>2026-04-03T12:19:35.999Z</time></trkpt><trkpt lat="43.98423393528385" lon="12.67831977364843"><ele>3.0</ele><time>2026-04-03T12:19:37.999Z</time></trkpt><trkpt lat="43.98414084272096" lon="12.678233702751427"><ele>3.0</ele><time>2026-04-03T12:19:39.999Z</time></trkpt><trkpt lat="43.98407368785845" lon="12.678082618440422"><ele>3.0</ele><time>2026-04-03T12:19:41.999Z</time></trkpt><trkpt lat="43.984032156206325" lon="12.677987310225896"><ele>3.0</ele><time>2026-04-03T12:19:42.999Z</time></trkpt><trkpt lat="43.98398083394222" lon="12.677891968487208"><ele>3.5999999999999996</ele><time>2026-04-03T12:19:43.999Z</time></trkpt><trkpt lat="43.98392890719302" lon="12.67778173934518"><ele>4.199999999999999</ele><time>2026-04-03T12:19:44.999Z</time></trkpt><trkpt lat="43.983878732304575" lon="12.677665402905935"><ele>4.8</ele><time>2026-04-03T12:19:45.999Z</time></trkpt><trkpt lat="43.983826720767546" lon="12.677548346769045"><ele>5.3999999999999995</ele><time>2026-04-03T12:19:46.999Z</time></trkpt><trkpt lat="43.98377513463027" lon="12.6774410777727"><ele>6.0</ele><time>2026-04-03T12:19:47.999Z</time></trkpt><trkpt lat="43.98373484685829" lon="12.677353704086977"><ele>6.666666666666667</ele><time>2026-04-03T12:19:48.999Z</time></trkpt><trkpt lat="43.98368377487025" lon="12.677234783816042"><ele>7.333333333333334</ele><time>2026-04-03T12:19:50.999Z</time></trkpt><trkpt lat="43.98364125142423" lon="12.67713606961207"><ele>8.0</ele><time>2026-04-03T12:19:52.999Z</time></trkpt><trkpt lat="43.98360401455306" lon="12.677057569268657"><ele>8.666666666666668</ele><time>2026-04-03T12:19:53.999Z</time></trkpt><trkpt lat="43.98355382073949" lon="12.676955737753907"><ele>9.333333333333334</ele><time>2026-04-03T12:19:54.999Z</time></trkpt><trkpt lat="43.983503010271676" lon="12.676834161272057"><ele>10.0</ele><time>2026-04-03T12:19:55.999Z</time></trkpt><trkpt lat="43.98345931357096" lon="12.676722662334514"><ele>10.666666666666668</ele><time>2026-04-03T12:19:56.999Z</time></trkpt><trkpt lat="43.98342860669722" lon="12.676644918580989"><ele>11.333333333333334</ele><time>2026-04-03T12:19:57.999Z</time></trkpt><trkpt lat="43.98338818645574" lon="12.676526614865068"><ele>12.0</ele><time>2026-04-03T12:19:59.999Z</time></trkpt><trkpt lat="43.983346270113074" lon="12.676412475555766"><ele>12.666666666666668</ele><time>2026-04-03T12:20:02.999Z</time></trkpt><trkpt lat="43.98327853613379" lon="12.676307152000506"><ele>13.333333333333334</ele><time>2026-04-03T12:20:04.999Z</time></trkpt><trkpt lat="43.98323501697703" lon="12.676235526391771"><ele>14.0</ele><time>2026-04-03T12:20:05.999Z</time></trkpt><trkpt lat="43.983193336154905" lon="12.67615221828226"><ele>13.666666666666668</ele><time>2026-04-03T12:20:06.999Z</time></trkpt><trkpt lat="43.983167523019326" lon="12.676071801548035"><ele>13.333333333333334</ele><time>2026-04-03T12:20:07.999Z</time></trkpt><trkpt lat="43.983105007066904" lon="12.675928164106002"><ele>13.0</ele><time>2026-04-03T12:20:09.999Z</time></trkpt><trkpt lat="43.98307393100179" lon="12.675849919384756"><ele>12.666666666666668</ele><time>2026-04-03T12:20:10.999Z</time></trkpt><trkpt lat="43.98304164690984" lon="12.675768102828595"><ele>12.333333333333334</ele><time>2026-04-03T12:20:11.999Z</time></trkpt><trkpt lat="43.9830043468655" lon="12.675685143388288"><ele>12.0</ele><time>2026-04-03T12:20:12.999Z</time></trkpt><trkpt lat="43.98293587998791" lon="12.67554558604136"><ele>12.0</ele><time>2026-04-03T12:20:14.999Z</time></trkpt><trkpt lat="43.982880718988405" lon="12.675402735025362"><ele>12.0</ele><time>2026-04-03T12:20:16.999Z</time></trkpt><trkpt lat="43.9828212010473" lon="12.675267713792673"><ele>12.0</ele><time>2026-04-03T12:20:18.999Z</time></trkpt><trkpt lat="43.98275550084374" lon="12.675117757339695"><ele>12.0</ele><time>2026-04-03T12:20:20.999Z</time></trkpt><trkpt lat="43.98271769404664" lon="12.675031783534616"><ele>12.0</ele><time>2026-04-03T12:20:21.999Z</time></trkpt><trkpt lat="43.98267526263784" lon="12.674931117387722"><ele>12.0</ele><time>2026-04-03T12:20:22.999Z</time></trkpt><trkpt lat="43.98262877863516" lon="12.674826646686936"><ele>12.0</ele><time>2026-04-03T12:20:23.999Z</time></trkpt><trkpt lat="43.98258256809547" lon="12.674721235049766"><ele>12.0</ele><time>2026-04-03T12:20:24.999Z</time></trkpt><trkpt lat="43.98253328472099" lon="12.674614611355441"><ele>12.0</ele><time>2026-04-03T12:20:25.999Z</time></trkpt><trkpt lat="43.98249784919399" lon="12.674525723494241"><ele>12.0</ele><time>2026-04-03T12:20:26.999Z</time></trkpt><trkpt lat="43.98246323955319" lon="12.67445034162049"><ele>12.0</ele><time>2026-04-03T12:20:27.999Z</time></trkpt><trkpt lat="43.98240640034843" lon="12.674327626923235"><ele>12.6</ele><time>2026-04-03T12:20:29.999Z</time></trkpt><trkpt lat="43.98239200601087" lon="12.674209407325142"><ele>13.2</ele><time>2026-04-03T12:20:42Z</time></trkpt><trkpt lat="43.98235685413753" lon="12.674091568987002"><ele>13.8</ele><time>2026-04-03T12:20:46Z</time></trkpt><trkpt lat="43.98222242754556" lon="12.674065111083973"><ele>14.4</ele><time>2026-04-03T12:20:48Z</time></trkpt><trkpt lat="43.982124143152085" lon="12.674074479343233"><ele>15.0</ele><time>2026-04-03T12:20:49Z</time></trkpt><trkpt lat="43.982020748276874" lon="12.674082535784335"><ele>15.0</ele><time>2026-04-03T12:20:50Z</time></trkpt><trkpt lat="43.9819064101775" lon="12.674094391183214"><ele>15.0</ele><time>2026-04-03T12:20:51Z</time></trkpt><trkpt lat="43.98178641680725" lon="12.674104860598392"><ele>15.0</ele><time>2026-04-03T12:20:52Z</time></trkpt><trkpt lat="43.981672850083484" lon="12.674118603668447"><ele>15.0</ele><time>2026-04-03T12:20:53Z</time></trkpt><trkpt lat="43.98157473393964" lon="12.674125475500334"><ele>15.0</ele><time>2026-04-03T12:20:54Z</time></trkpt><trkpt lat="43.981489218471324" lon="12.674128022345318"><ele>14.833333333333334</ele><time>2026-04-03T12:20:55Z</time></trkpt><trkpt lat="43.98140701359149" lon="12.6741207168619"><ele>14.666666666666668</ele><time>2026-04-03T12:20:56Z</time></trkpt><trkpt lat="43.981332186155974" lon="12.674122873308887"><ele>14.5</ele><time>2026-04-03T12:20:57Z</time></trkpt><trkpt lat="43.981252357762834" lon="12.67412523628719"><ele>14.333333333333334</ele><time>2026-04-03T12:20:58Z</time></trkpt><trkpt lat="43.981163664374264" lon="12.674124876099912"><ele>14.166666666666668</ele><time>2026-04-03T12:20:59Z</time></trkpt><trkpt lat="43.98106717953963" lon="12.67412517634348"><ele>14.0</ele><time>2026-04-03T12:21:00Z</time></trkpt><trkpt lat="43.98096765243735" lon="12.674123857277287"><ele>14.0</ele><time>2026-04-03T12:21:01Z</time></trkpt><trkpt lat="43.980874226585264" lon="12.674121525722244"><ele>13.999999999999998</ele><time>2026-04-03T12:21:02Z</time></trkpt><trkpt lat="43.980778269873966" lon="12.674118763170117"><ele>13.999999999999998</ele><time>2026-04-03T12:21:03Z</time></trkpt><trkpt lat="43.98067942616186" lon="12.674113568095454"><ele>14.0</ele><time>2026-04-03T12:21:04Z</time></trkpt><trkpt lat="43.9805756173835" lon="12.674109080169837"><ele>14.0</ele><time>2026-04-03T12:21:05Z</time></trkpt><trkpt lat="43.98047615925658" lon="12.674103560816503"><ele>14.0</ele><time>2026-04-03T12:21:06Z</time></trkpt><trkpt lat="43.98038353092978" lon="12.674096988721983"><ele>13.999999999999998</ele><time>2026-04-03T12:21:07Z</time></trkpt><trkpt lat="43.980292583945214" lon="12.674092298191962"><ele>13.999999999999998</ele><time>2026-04-03T12:21:08Z</time></trkpt><trkpt lat="43.9802007904215" lon="12.674089662099204"><ele>14.0</ele><time>2026-04-03T12:21:09Z</time></trkpt><trkpt lat="43.98010279423538" lon="12.674082121515267"><ele>14.0</ele><time>2026-04-03T12:21:10Z</time></trkpt><trkpt lat="43.980008055728575" lon="12.67407571812762"><ele>14.0</ele><time>2026-04-03T12:21:11Z</time></trkpt><trkpt lat="43.97990883917828" lon="12.674068727866135"><ele>13.999999999999998</ele><time>2026-04-03T12:21:12Z</time></trkpt><trkpt lat="43.97981292892763" lon="12.674059383187611"><ele>13.999999999999998</ele><time>2026-04-03T12:21:13Z</time></trkpt><trkpt lat="43.97971107012794" lon="12.674052337327595"><ele>14.0</ele><time>2026-04-03T12:21:14Z</time></trkpt><trkpt lat="43.979607547908216" lon="12.674043380866973"><ele>14.0</ele><time>2026-04-03T12:21:15Z</time></trkpt><trkpt lat="43.979499835239835" lon="12.674030375909068"><ele>14.0</ele><time>2026-04-03T12:21:16Z</time></trkpt><trkpt lat="43.97938446459321" lon="12.674025938173253"><ele>14.0</ele><time>2026-04-03T12:21:17Z</time></trkpt><trkpt lat="43.97927372646291" lon="12.674021371267967"><ele>14.0</ele><time>2026-04-03T12:21:18Z</time></trkpt><trkpt lat="43.9791536450343" lon="12.674010916592032"><ele>14.0</ele><time>2026-04-03T12:21:19Z</time></trkpt><trkpt lat="43.97903858644093" lon="12.673995042355022"><ele>14.25</ele><time>2026-04-03T12:21:20Z</time></trkpt><trkpt lat="43.978919515938735" lon="12.673986642744488"><ele>14.5</ele><time>2026-04-03T12:21:21Z</time></trkpt><trkpt lat="43.97879672583162" lon="12.67398472261476"><ele>14.75</ele><time>2026-04-03T12:21:22Z</time></trkpt><trkpt lat="43.97867054230009" lon="12.67397297955282"><ele>15.0</ele><time>2026-04-03T12:21:23Z</time></trkpt><trkpt lat="43.97854090356284" lon="12.673968214216918"><ele>15.0</ele><time>2026-04-03T12:21:24Z</time></trkpt><trkpt lat="43.97840477763826" lon="12.673960218594795"><ele>15.0</ele><time>2026-04-03T12:21:25Z</time></trkpt><trkpt lat="43.978265070888774" lon="12.673950919539777"><ele>15.0</ele><time>2026-04-03T12:21:26Z</time></trkpt><trkpt lat="43.97812386551372" lon="12.673940885622962"><ele>15.0</ele><time>2026-04-03T12:21:27Z</time></trkpt><trkpt lat="43.97797672386247" lon="12.673930252938911"><ele>15.0</ele><time>2026-04-03T12:21:28Z</time></trkpt><trkpt lat="43.977843201405015" lon="12.673919796668637"><ele>15.0</ele><time>2026-04-03T12:21:29Z</time></trkpt><trkpt lat="43.97770707025868" lon="12.673911103769614"><ele>15.0</ele><time>2026-04-03T12:21:29.999Z</time></trkpt><trkpt lat="43.977571511363834" lon="12.673898401315471"><ele>15.0</ele><time>2026-04-03T12:21:30.999Z</time></trkpt><trkpt lat="43.977434540086044" lon="12.673892264209202"><ele>15.75</ele><time>2026-04-03T12:21:31.999Z</time></trkpt><trkpt lat="43.97729505220585" lon="12.673884169613952"><ele>16.5</ele><time>2026-04-03T12:21:32.999Z</time></trkpt><trkpt lat="43.97715863239167" lon="12.673878206072077"><ele>17.25</ele><time>2026-04-03T12:21:33.999Z</time></trkpt><trkpt lat="43.9770173055386" lon="12.673868005001811"><ele>18.0</ele><time>2026-04-03T12:21:34.999Z</time></trkpt><trkpt lat="43.97687787583298" lon="12.673863384910609"><ele>18.0</ele><time>2026-04-03T12:21:35.999Z</time></trkpt><trkpt lat="43.97673469080965" lon="12.673855246745516"><ele>18.0</ele><time>2026-04-03T12:21:36.999Z</time></trkpt><trkpt lat="43.976587903070836" lon="12.673844237831425"><ele>18.0</ele><time>2026-04-03T12:21:37.999Z</time></trkpt><trkpt lat="43.97643877415157" lon="12.673834956459133"><ele>18.0</ele><time>2026-04-03T12:21:38.999Z</time></trkpt><trkpt lat="43.97628639761812" lon="12.673824843030824"><ele>18.0</ele><time>2026-04-03T12:21:39.999Z</time></trkpt><trkpt lat="43.97613005607849" lon="12.673815383254873"><ele>18.0</ele><time>2026-04-03T12:21:40.999Z</time></trkpt><trkpt lat="43.975975259260395" lon="12.6738068241136"><ele>18.0</ele><time>2026-04-03T12:21:41.999Z</time></trkpt><trkpt lat="43.975821537502945" lon="12.673796317649865"><ele>18.0</ele><time>2026-04-03T12:21:42.999Z</time></trkpt><trkpt lat="43.97567090614031" lon="12.673781494428727"><ele>18.0</ele><time>2026-04-03T12:21:43.999Z</time></trkpt><trkpt lat="43.97553208370734" lon="12.673773463919659"><ele>18.0</ele><time>2026-04-03T12:21:44.999Z</time></trkpt><trkpt lat="43.97541147176525" lon="12.673763627104417"><ele>18.0</ele><time>2026-04-03T12:21:45.999Z</time></trkpt><trkpt lat="43.97531078883166" lon="12.673746038377582"><ele>18.0</ele><time>2026-04-03T12:21:46.999Z</time></trkpt><trkpt lat="43.975214645144185" lon="12.673707121549326"><ele>18.0</ele><time>2026-04-03T12:21:47.999Z</time></trkpt><trkpt lat="43.97512547357046" lon="12.673625089114365"><ele>18.0</ele><time>2026-04-03T12:21:48.999Z</time></trkpt><trkpt lat="43.97502118798783" lon="12.673521720297144"><ele>18.0</ele><time>2026-04-03T12:21:49.999Z</time></trkpt><trkpt lat="43.97489647486093" lon="12.67344546234462"><ele>18.0</ele><time>2026-04-03T12:21:50.999Z</time></trkpt><trkpt lat="43.97479632935059" lon="12.673261660183343"><ele>18.0</ele><time>2026-04-03T12:21:51.999Z</time></trkpt><trkpt lat="43.974701944222296" lon="12.673063488171385"><ele>18.0</ele><time>2026-04-03T12:21:52.999Z</time></trkpt><trkpt lat="43.97460662911364" lon="12.672851887791568"><ele>18.666666666666668</ele><time>2026-04-03T12:21:53.999Z</time></trkpt><trkpt lat="43.97450132472817" lon="12.672644964202524"><ele>19.333333333333336</ele><time>2026-04-03T12:21:54.999Z</time></trkpt><trkpt lat="43.97438823999761" lon="12.672461598233852"><ele>20.0</ele><time>2026-04-03T12:21:55.999Z</time></trkpt><trkpt lat="43.97426235134387" lon="12.67229040351174"><ele>20.0</ele><time>2026-04-03T12:21:56.999Z</time></trkpt><trkpt lat="43.974122685904796" lon="12.672155781135526"><ele>20.0</ele><time>2026-04-03T12:21:57.999Z</time></trkpt><trkpt lat="43.97397192063212" lon="12.672050854116984"><ele>20.0</ele><time>2026-04-03T12:21:58.999Z</time></trkpt><trkpt lat="43.97380794467878" lon="12.671981328503575"><ele>20.333333333333336</ele><time>2026-04-03T12:21:59.999Z</time></trkpt><trkpt lat="43.973633513033654" lon="12.6719376852518"><ele>20.666666666666668</ele><time>2026-04-03T12:22:00.999Z</time></trkpt><trkpt lat="43.973452230858854" lon="12.67191116305195"><ele>21.0</ele><time>2026-04-03T12:22:01.999Z</time></trkpt><trkpt lat="43.973265605732756" lon="12.671901441308414"><ele>21.0</ele><time>2026-04-03T12:22:02.999Z</time></trkpt><trkpt lat="43.97307530908241" lon="12.671902155099632"><ele>21.0</ele><time>2026-04-03T12:22:03.999Z</time></trkpt><trkpt lat="43.97288102510136" lon="12.671901570471874"><ele>21.0</ele><time>2026-04-03T12:22:04.999Z</time></trkpt><trkpt lat="43.97268278666525" lon="12.671892938922246"><ele>20.333333333333332</ele><time>2026-04-03T12:22:05.999Z</time></trkpt><trkpt lat="43.97248373869616" lon="12.671883794175962"><ele>19.666666666666664</ele><time>2026-04-03T12:22:06.999Z</time></trkpt><trkpt lat="43.97228946181246" lon="12.671875644740421"><ele>19.0</ele><time>2026-04-03T12:22:07.999Z</time></trkpt><trkpt lat="43.97210682189542" lon="12.671869630415348"><ele>19.0</ele><time>2026-04-03T12:22:08.999Z</time></trkpt><trkpt lat="43.97193692606365" lon="12.67186575831315"><ele>19.0</ele><time>2026-04-03T12:22:09.999Z</time></trkpt><trkpt lat="43.971786603339574" lon="12.67186221460771"><ele>19.0</ele><time>2026-04-03T12:22:10.999Z</time></trkpt><trkpt lat="43.97164567091233" lon="12.671859421107564"><ele>19.333333333333332</ele><time>2026-04-03T12:22:11.999Z</time></trkpt><trkpt lat="43.971531918474085" lon="12.671850141878014"><ele>19.666666666666664</ele><time>2026-04-03T12:22:12.999Z</time></trkpt><trkpt lat="43.971451440401836" lon="12.671831714182671"><ele>20.0</ele><time>2026-04-03T12:22:13.999Z</time></trkpt><trkpt lat="43.971385177309834" lon="12.671793188831963"><ele>20.333333333333332</ele><time>2026-04-03T12:22:14.999Z</time></trkpt><trkpt lat="43.97133708380487" lon="12.67173020636565"><ele>20.666666666666668</ele><time>2026-04-03T12:22:15.999Z</time></trkpt><trkpt lat="43.9713056830651" lon="12.67162733076202"><ele>21.0</ele><time>2026-04-03T12:22:16.999Z</time></trkpt><trkpt lat="43.97129789891921" lon="12.671494314150705"><ele>21.0</ele><time>2026-04-03T12:22:17.999Z</time></trkpt><trkpt lat="43.97129628480559" lon="12.671348216905837"><ele>21.0</ele><time>2026-04-03T12:22:18.999Z</time></trkpt><trkpt lat="43.97126931133978" lon="12.671219380337917"><ele>21.0</ele><time>2026-04-03T12:22:19.999Z</time></trkpt><trkpt lat="43.97120563487919" lon="12.67110080963226"><ele>21.0</ele><time>2026-04-03T12:22:20.999Z</time></trkpt><trkpt lat="43.9711222145125" lon="12.670989803923845"><ele>21.0</ele><time>2026-04-03T12:22:21.999Z</time></trkpt><trkpt lat="43.97105542871281" lon="12.670855348015216"><ele>20.5</ele><time>2026-04-03T12:22:22.999Z</time></trkpt><trkpt lat="43.9710190394495" lon="12.67068009069354"><ele>20.0</ele><time>2026-04-03T12:22:23.999Z</time></trkpt><trkpt lat="43.97100878920148" lon="12.670475913582564"><ele>19.5</ele><time>2026-04-03T12:22:24.999Z</time></trkpt><trkpt lat="43.97102245117802" lon="12.67027072135228"><ele>19.0</ele><time>2026-04-03T12:22:25.999Z</time></trkpt><trkpt lat="43.971057826190346" lon="12.670085549091231"><ele>20.666666666666664</ele><time>2026-04-03T12:22:26.999Z</time></trkpt><trkpt lat="43.97111698715836" lon="12.669903347306036"><ele>22.333333333333332</ele><time>2026-04-03T12:22:27.999Z</time></trkpt><trkpt lat="43.97120092783851" lon="12.66971093060332"><ele>24.0</ele><time>2026-04-03T12:22:28.999Z</time></trkpt><trkpt lat="43.971302731069024" lon="12.669504547493222"><ele>25.333333333333336</ele><time>2026-04-03T12:22:29.999Z</time></trkpt><trkpt lat="43.971413256482464" lon="12.669291414880917"><ele>26.666666666666668</ele><time>2026-04-03T12:22:30.999Z</time></trkpt><trkpt lat="43.97151748342182" lon="12.669080422395293"><ele>28.0</ele><time>2026-04-03T12:22:31.999Z</time></trkpt><trkpt lat="43.97161213898942" lon="12.66889201849222"><ele>28.25</ele><time>2026-04-03T12:22:32.999Z</time></trkpt><trkpt lat="43.97170257006628" lon="12.668703567259122"><ele>28.5</ele><time>2026-04-03T12:22:33.999Z</time></trkpt><trkpt lat="43.97177095609909" lon="12.668524870301631"><ele>28.75</ele><time>2026-04-03T12:22:34.999Z</time></trkpt><trkpt lat="43.97181418049431" lon="12.668346911851572"><ele>29.0</ele><time>2026-04-03T12:22:35.999Z</time></trkpt><trkpt lat="43.97183715083289" lon="12.668171518806064"><ele>29.0</ele><time>2026-04-03T12:22:36.999Z</time></trkpt><trkpt lat="43.971847723157786" lon="12.668000179386857"><ele>29.0</ele><time>2026-04-03T12:22:37.999Z</time></trkpt><trkpt lat="43.97185420709201" lon="12.667836455751472"><ele>29.0</ele><time>2026-04-03T12:22:38.999Z</time></trkpt><trkpt lat="43.97186632958901" lon="12.667656403280004"><ele>29.0</ele><time>2026-04-03T12:22:39.999Z</time></trkpt><trkpt lat="43.97187734477514" lon="12.667463056873155"><ele>30.0</ele><time>2026-04-03T12:22:40.999Z</time></trkpt><trkpt lat="43.971890052678845" lon="12.667258532981336"><ele>31.0</ele><time>2026-04-03T12:22:41.999Z</time></trkpt><trkpt lat="43.97192014758719" lon="12.667052184902156"><ele>32.0</ele><time>2026-04-03T12:22:42.998Z</time></trkpt><trkpt lat="43.97197830845315" lon="12.666873964720892"><ele>33.0</ele><time>2026-04-03T12:22:43.998Z</time></trkpt><trkpt lat="43.97203275383928" lon="12.66670519627137"><ele>33.0</ele><time>2026-04-03T12:22:44.998Z</time></trkpt><trkpt lat="43.972044716966025" lon="12.666527214967997"><ele>33.0</ele><time>2026-04-03T12:22:45.998Z</time></trkpt><trkpt lat="43.972028459242416" lon="12.666333554675061"><ele>33.0</ele><time>2026-04-03T12:22:47Z</time></trkpt><trkpt lat="43.97199804185583" lon="12.666130988088154"><ele>33.0</ele><time>2026-04-03T12:22:48Z</time></trkpt><trkpt lat="43.97196316881902" lon="12.665919913954824"><ele>33.0</ele><time>2026-04-03T12:22:49Z</time></trkpt><trkpt lat="43.97195291254035" lon="12.665704587330035"><ele>33.0</ele><time>2026-04-03T12:22:50Z</time></trkpt><trkpt lat="43.971929880483295" lon="12.66553507760551"><ele>33.0</ele><time>2026-04-03T12:22:51Z</time></trkpt><trkpt lat="43.971893644706824" lon="12.665403138870865"><ele>33.0</ele><time>2026-04-03T12:22:52Z</time></trkpt><trkpt lat="43.971886209404495" lon="12.665282668890919"><ele>32.5</ele><time>2026-04-03T12:22:53Z</time></trkpt><trkpt lat="43.971900482055666" lon="12.665135554972617"><ele>32.0</ele><time>2026-04-03T12:22:54Z</time></trkpt><trkpt lat="43.97193400245995" lon="12.664969265141627"><ele>31.5</ele><time>2026-04-03T12:22:55Z</time></trkpt><trkpt lat="43.97196853375072" lon="12.664789718243831"><ele>31.0</ele><time>2026-04-03T12:22:56Z</time></trkpt><trkpt lat="43.972003523142575" lon="12.66462153374308"><ele>31.0</ele><time>2026-04-03T12:22:57Z</time></trkpt><trkpt lat="43.97203971333583" lon="12.664441625113838"><ele>31.0</ele><time>2026-04-03T12:22:58Z</time></trkpt><trkpt lat="43.97207249687931" lon="12.664255611140927"><ele>31.0</ele><time>2026-04-03T12:22:59Z</time></trkpt><trkpt lat="43.97210527430359" lon="12.664062884729466"><ele>31.0</ele><time>2026-04-03T12:23:00Z</time></trkpt><trkpt lat="43.972140176951" lon="12.66386657357848"><ele>31.0</ele><time>2026-04-03T12:23:01Z</time></trkpt><trkpt lat="43.97217561925793" lon="12.66366599483512"><ele>31.0</ele><time>2026-04-03T12:23:02Z</time></trkpt><trkpt lat="43.9722091169952" lon="12.66346351984029"><ele>31.0</ele><time>2026-04-03T12:23:03Z</time></trkpt><trkpt lat="43.9722405864074" lon="12.663257365318906"><ele>31.5</ele><time>2026-04-03T12:23:04Z</time></trkpt><trkpt lat="43.97227125581758" lon="12.663047248245958"><ele>32.0</ele><time>2026-04-03T12:23:05Z</time></trkpt><trkpt lat="43.972299339353334" lon="12.662838206025654"><ele>32.5</ele><time>2026-04-03T12:23:06Z</time></trkpt><trkpt lat="43.97233076431899" lon="12.662658998264094"><ele>33.0</ele><time>2026-04-03T12:23:07Z</time></trkpt><trkpt lat="43.972365220025125" lon="12.66250049220602"><ele>34.0</ele><time>2026-04-03T12:23:08Z</time></trkpt><trkpt lat="43.972403881118375" lon="12.662329868397443"><ele>35.0</ele><time>2026-04-03T12:23:09Z</time></trkpt><trkpt lat="43.972456149753086" lon="12.662166183084878"><ele>36.0</ele><time>2026-04-03T12:23:10Z</time></trkpt><trkpt lat="43.97251334980111" lon="12.662009566741366"><ele>37.0</ele><time>2026-04-03T12:23:11Z</time></trkpt><trkpt lat="43.97257385093948" lon="12.661850121945681"><ele>37.25</ele><time>2026-04-03T12:23:12Z</time></trkpt><trkpt lat="43.972635035219746" lon="12.661698680943875"><ele>37.5</ele><time>2026-04-03T12:23:13Z</time></trkpt><trkpt lat="43.972696582889064" lon="12.661547977040124"><ele>37.75</ele><time>2026-04-03T12:23:14Z</time></trkpt><trkpt lat="43.972754782662705" lon="12.661400887896754"><ele>38.0</ele><time>2026-04-03T12:23:15Z</time></trkpt><trkpt lat="43.97281152739502" lon="12.661255408067095"><ele>39.25</ele><time>2026-04-03T12:23:16Z</time></trkpt><trkpt lat="43.972867891417586" lon="12.661112822189619"><ele>40.5</ele><time>2026-04-03T12:23:17Z</time></trkpt><trkpt lat="43.97292594471503" lon="12.660971031101864"><ele>41.75</ele><time>2026-04-03T12:23:18Z</time></trkpt><trkpt lat="43.97298769385596" lon="12.660826858085048"><ele>43.0</ele><time>2026-04-03T12:23:19Z</time></trkpt><trkpt lat="43.973049398198654" lon="12.660683944354219"><ele>43.0</ele><time>2026-04-03T12:23:20Z</time></trkpt><trkpt lat="43.973117537104194" lon="12.660544310511431"><ele>43.0</ele><time>2026-04-03T12:23:21Z</time></trkpt><trkpt lat="43.97319475203895" lon="12.660414347141002"><ele>43.0</ele><time>2026-04-03T12:23:22Z</time></trkpt><trkpt lat="43.97328149763802" lon="12.660294916651662"><ele>43.0</ele><time>2026-04-03T12:23:23Z</time></trkpt><trkpt lat="43.9733704154421" lon="12.660182262784314"><ele>43.75</ele><time>2026-04-03T12:23:24Z</time></trkpt><trkpt lat="43.973464887900676" lon="12.6600745084771"><ele>44.5</ele><time>2026-04-03T12:23:25Z</time></trkpt><trkpt lat="43.973552779463695" lon="12.659956939446987"><ele>45.25</ele><time>2026-04-03T12:23:26Z</time></trkpt><trkpt lat="43.973630532455054" lon="12.65982419653022"><ele>46.0</ele><time>2026-04-03T12:23:27Z</time></trkpt><trkpt lat="43.97369973781085" lon="12.659681805173065"><ele>46.0</ele><time>2026-04-03T12:23:28Z</time></trkpt><trkpt lat="43.973760283785815" lon="12.659534401575709"><ele>46.0</ele><time>2026-04-03T12:23:29Z</time></trkpt><trkpt lat="43.97380951145414" lon="12.659393866620526"><ele>46.0</ele><time>2026-04-03T12:23:30Z</time></trkpt><trkpt lat="43.97384504339932" lon="12.659271454516212"><ele>46.0</ele><time>2026-04-03T12:23:31Z</time></trkpt><trkpt lat="43.97387710544976" lon="12.65914641380876"><ele>46.0</ele><time>2026-04-03T12:23:32Z</time></trkpt><trkpt lat="43.973897313094305" lon="12.65901166462764"><ele>47.8</ele><time>2026-04-03T12:23:33Z</time></trkpt><trkpt lat="43.9739051064318" lon="12.658871315829321"><ele>49.599999999999994</ele><time>2026-04-03T12:23:34Z</time></trkpt><trkpt lat="43.973912249266625" lon="12.658730760789439"><ele>51.4</ele><time>2026-04-03T12:23:35Z</time></trkpt><trkpt lat="43.973930100339665" lon="12.65860009129678"><ele>53.2</ele><time>2026-04-03T12:23:36Z</time></trkpt><trkpt lat="43.97396410126284" lon="12.658481200057658"><ele>55.0</ele><time>2026-04-03T12:23:36.999Z</time></trkpt><trkpt lat="43.97401636598182" lon="12.65836904919494"><ele>55.8</ele><time>2026-04-03T12:23:37.999Z</time></trkpt><trkpt lat="43.974083591825696" lon="12.658262384622917"><ele>56.6</ele><time>2026-04-03T12:23:38.999Z</time></trkpt><trkpt lat="43.97415605942852" lon="12.658156690107932"><ele>57.400000000000006</ele><time>2026-04-03T12:23:39.999Z</time></trkpt><trkpt lat="43.974234447842974" lon="12.65805273679768"><ele>58.2</ele><time>2026-04-03T12:23:40.999Z</time></trkpt><trkpt lat="43.9743121991377" lon="12.657940344007898"><ele>59.0</ele><time>2026-04-03T12:23:41.999Z</time></trkpt><trkpt lat="43.97439374537316" lon="12.657822482348976"><ele>60.2</ele><time>2026-04-03T12:23:42.999Z</time></trkpt><trkpt lat="43.97447455316194" lon="12.6577066653998"><ele>61.400000000000006</ele><time>2026-04-03T12:23:43.999Z</time></trkpt><trkpt lat="43.97454746819972" lon="12.657609630845082"><ele>62.6</ele><time>2026-04-03T12:23:44.999Z</time></trkpt><trkpt lat="43.97461915062776" lon="12.657515201502546"><ele>63.8</ele><time>2026-04-03T12:23:45.999Z</time></trkpt><trkpt lat="43.97468762639519" lon="12.657418107646569"><ele>65.0</ele><time>2026-04-03T12:23:46.999Z</time></trkpt><trkpt lat="43.97475022515909" lon="12.657310512911412"><ele>65.0</ele><time>2026-04-03T12:23:47.999Z</time></trkpt><trkpt lat="43.97480348551176" lon="12.65718825143073"><ele>65.0</ele><time>2026-04-03T12:23:48.999Z</time></trkpt><trkpt lat="43.974849908249524" lon="12.657056389015064"><ele>65.0</ele><time>2026-04-03T12:23:49.999Z</time></trkpt><trkpt lat="43.97489207486501" lon="12.65692183134291"><ele>65.0</ele><time>2026-04-03T12:23:50.999Z</time></trkpt><trkpt lat="43.97492628027517" lon="12.656802929005325"><ele>65.0</ele><time>2026-04-03T12:23:51.999Z</time></trkpt><trkpt lat="43.97495411529626" lon="12.656702753497042"><ele>65.71428571428572</ele><time>2026-04-03T12:23:52.999Z</time></trkpt><trkpt lat="43.974976966490345" lon="12.65661561762623"><ele>66.42857142857143</ele><time>2026-04-03T12:23:53.999Z</time></trkpt><trkpt lat="43.97499883924436" lon="12.656532407744516"><ele>67.14285714285714</ele><time>2026-04-03T12:23:54.999Z</time></trkpt><trkpt lat="43.97502230782931" lon="12.656438883218048"><ele>67.85714285714286</ele><time>2026-04-03T12:23:55.999Z</time></trkpt><trkpt lat="43.975043394196234" lon="12.656338003254206"><ele>68.57142857142857</ele><time>2026-04-03T12:23:56.999Z</time></trkpt><trkpt lat="43.97506197747585" lon="12.656231101535937"><ele>69.28571428571429</ele><time>2026-04-03T12:23:57.999Z</time></trkpt><trkpt lat="43.975077200015384" lon="12.65613157023281"><ele>70.0</ele><time>2026-04-03T12:23:58.999Z</time></trkpt><trkpt lat="43.97509044759114" lon="12.656037329682706"><ele>70.0</ele><time>2026-04-03T12:23:59.999Z</time></trkpt><trkpt lat="43.975097800857434" lon="12.655948319128887"><ele>70.0</ele><time>2026-04-03T12:24:00.999Z</time></trkpt><trkpt lat="43.97511255433117" lon="12.655819069579392"><ele>70.0</ele><time>2026-04-03T12:24:02.999Z</time></trkpt><trkpt lat="43.97512632010197" lon="12.655701883463374"><ele>70.0</ele><time>2026-04-03T12:24:05.999Z</time></trkpt><trkpt lat="43.97502453363333" lon="12.655588108216996"><ele>70.0</ele><time>2026-04-03T12:24:09.999Z</time></trkpt><trkpt lat="43.97493272359833" lon="12.6556004199075"><ele>70.2</ele><time>2026-04-03T12:24:10.999Z</time></trkpt><trkpt lat="43.974834204667964" lon="12.655613362199237"><ele>70.4</ele><time>2026-04-03T12:24:11.999Z</time></trkpt><trkpt lat="43.974735874541" lon="12.655631085548338"><ele>70.6</ele><time>2026-04-03T12:24:12.999Z</time></trkpt><trkpt lat="43.97462413895916" lon="12.655656353448348"><ele>70.8</ele><time>2026-04-03T12:24:13.999Z</time></trkpt><trkpt lat="43.97450713419007" lon="12.65568396098043"><ele>71.0</ele><time>2026-04-03T12:24:14.999Z</time></trkpt><trkpt lat="43.9743892530531" lon="12.655698116401814"><ele>71.0</ele><time>2026-04-03T12:24:15.999Z</time></trkpt><trkpt lat="43.97426390407043" lon="12.655696125684173"><ele>71.0</ele><time>2026-04-03T12:24:16.999Z</time></trkpt><trkpt lat="43.974131497803576" lon="12.655678898483941"><ele>71.0</ele><time>2026-04-03T12:24:17.999Z</time></trkpt><trkpt lat="43.97399425110078" lon="12.655661172203068"><ele>71.0</ele><time>2026-04-03T12:24:18.999Z</time></trkpt><trkpt lat="43.9738624788152" lon="12.655644524269238"><ele>70.75</ele><time>2026-04-03T12:24:19.999Z</time></trkpt><trkpt lat="43.973733990468034" lon="12.655628604632666"><ele>70.5</ele><time>2026-04-03T12:24:20.999Z</time></trkpt><trkpt lat="43.97360052131943" lon="12.655614227168549"><ele>70.25</ele><time>2026-04-03T12:24:21.999Z</time></trkpt><trkpt lat="43.97346429061977" lon="12.655596954587843"><ele>70.0</ele><time>2026-04-03T12:24:22.999Z</time></trkpt><trkpt lat="43.97332388500085" lon="12.655582064384017"><ele>70.5</ele><time>2026-04-03T12:24:23.999Z</time></trkpt><trkpt lat="43.97318025110582" lon="12.655570412018204"><ele>71.0</ele><time>2026-04-03T12:24:24.999Z</time></trkpt><trkpt lat="43.97303408266216" lon="12.655562353084028"><ele>71.5</ele><time>2026-04-03T12:24:25.999Z</time></trkpt><trkpt lat="43.97288861735855" lon="12.655559950532476"><ele>72.0</ele><time>2026-04-03T12:24:26.999Z</time></trkpt><trkpt lat="43.97274249758162" lon="12.655556848627702"><ele>72.0</ele><time>2026-04-03T12:24:27.999Z</time></trkpt><trkpt lat="43.97259590703887" lon="12.655554002815153"><ele>72.0</ele><time>2026-04-03T12:24:28.999Z</time></trkpt><trkpt lat="43.972448531299804" lon="12.655548944785574"><ele>72.0</ele><time>2026-04-03T12:24:29.999Z</time></trkpt><trkpt lat="43.97230062642112" lon="12.655532328010146"><ele>72.0</ele><time>2026-04-03T12:24:30.999Z</time></trkpt><trkpt lat="43.97216027920922" lon="12.655518274745178"><ele>72.5</ele><time>2026-04-03T12:24:31.999Z</time></trkpt><trkpt lat="43.97204531703616" lon="12.655503638197999"><ele>73.0</ele><time>2026-04-03T12:24:32.999Z</time></trkpt><trkpt lat="43.97193819295285" lon="12.65548265844533"><ele>73.5</ele><time>2026-04-03T12:24:33.999Z</time></trkpt><trkpt lat="43.97183321834124" lon="12.655448928985402"><ele>74.0</ele><time>2026-04-03T12:24:34.999Z</time></trkpt><trkpt lat="43.97171437177371" lon="12.655422279980725"><ele>73.75</ele><time>2026-04-03T12:24:35.999Z</time></trkpt><trkpt lat="43.97158868016488" lon="12.655412045464754"><ele>73.5</ele><time>2026-04-03T12:24:36.999Z</time></trkpt><trkpt lat="43.971456915301125" lon="12.655395408337466"><ele>73.25</ele><time>2026-04-03T12:24:37.999Z</time></trkpt><trkpt lat="43.97132004179494" lon="12.655379654988833"><ele>73.0</ele><time>2026-04-03T12:24:38.999Z</time></trkpt><trkpt lat="43.97118216653987" lon="12.65536545670912"><ele>73.0</ele><time>2026-04-03T12:24:39.999Z</time></trkpt><trkpt lat="43.97103872841569" lon="12.655350615683947"><ele>73.0</ele><time>2026-04-03T12:24:40.999Z</time></trkpt><trkpt lat="43.970895786890416" lon="12.655333631509029"><ele>73.0</ele><time>2026-04-03T12:24:41.999Z</time></trkpt><trkpt lat="43.97075899950808" lon="12.655316473022557"><ele>73.0</ele><time>2026-04-03T12:24:42.999Z</time></trkpt><trkpt lat="43.97063236554024" lon="12.655301028006166"><ele>73.0</ele><time>2026-04-03T12:24:43.999Z</time></trkpt><trkpt lat="43.97053473825921" lon="12.655287880745915"><ele>73.0</ele><time>2026-04-03T12:24:44.999Z</time></trkpt><trkpt lat="43.970434939152724" lon="12.655273536988188"><ele>73.0</ele><time>2026-04-03T12:24:45.999Z</time></trkpt><trkpt lat="43.97032793886387" lon="12.655262676145856"><ele>73.0</ele><time>2026-04-03T12:24:46.999Z</time></trkpt><trkpt lat="43.97021637442659" lon="12.655247628265235"><ele>73.0</ele><time>2026-04-03T12:24:47.999Z</time></trkpt><trkpt lat="43.97010389439664" lon="12.655234330343633"><ele>73.66666666666666</ele><time>2026-04-03T12:24:48.999Z</time></trkpt><trkpt lat="43.970010747898066" lon="12.655223303515172"><ele>74.33333333333333</ele><time>2026-04-03T12:24:49.998Z</time></trkpt><trkpt lat="43.969942147939825" lon="12.655214960123963"><ele>75.0</ele><time>2026-04-03T12:24:50.998Z</time></trkpt><trkpt lat="43.96987784596081" lon="12.655208791046746"><ele>75.66666666666667</ele><time>2026-04-03T12:24:51.998Z</time></trkpt><trkpt lat="43.9698049861621" lon="12.655191172456995"><ele>76.33333333333334</ele><time>2026-04-03T12:24:53Z</time></trkpt><trkpt lat="43.96972731307763" lon="12.65516255060531"><ele>77.0</ele><time>2026-04-03T12:24:54Z</time></trkpt><trkpt lat="43.969653160347896" lon="12.655146997486572"><ele>77.0</ele><time>2026-04-03T12:24:55Z</time></trkpt><trkpt lat="43.96957830353897" lon="12.655180128988707"><ele>77.0</ele><time>2026-04-03T12:24:56Z</time></trkpt><trkpt lat="43.96950625004151" lon="12.655237551170242"><ele>77.0</ele><time>2026-04-03T12:24:57Z</time></trkpt><trkpt lat="43.96943488907392" lon="12.655259806627413"><ele>77.0</ele><time>2026-04-03T12:24:58Z</time></trkpt><trkpt lat="43.9693523154966" lon="12.65524604529564"><ele>77.0</ele><time>2026-04-03T12:24:59Z</time></trkpt><trkpt lat="43.96926340200153" lon="12.655221954213268"><ele>77.0</ele><time>2026-04-03T12:25:00Z</time></trkpt><trkpt lat="43.96916184566576" lon="12.655214519849183"><ele>77.33333333333334</ele><time>2026-04-03T12:25:01Z</time></trkpt><trkpt lat="43.96903439291937" lon="12.655192324291862"><ele>77.66666666666667</ele><time>2026-04-03T12:25:02Z</time></trkpt><trkpt lat="43.96887041835522" lon="12.655194583705159"><ele>78.0</ele><time>2026-04-03T12:25:03Z</time></trkpt><trkpt lat="43.968703558107485" lon="12.655204712367153"><ele>78.0</ele><time>2026-04-03T12:25:04Z</time></trkpt><trkpt lat="43.96854262984271" lon="12.655197936353265"><ele>78.0</ele><time>2026-04-03T12:25:05Z</time></trkpt><trkpt lat="43.968399627214296" lon="12.655185311864585"><ele>78.0</ele><time>2026-04-03T12:25:06Z</time></trkpt><trkpt lat="43.968270740349794" lon="12.655136823699072"><ele>78.0</ele><time>2026-04-03T12:25:07Z</time></trkpt><trkpt lat="43.96813828467039" lon="12.655054748822188"><ele>80.33333333333333</ele><time>2026-04-03T12:25:08Z</time></trkpt><trkpt lat="43.96800519839653" lon="12.65494201181021"><ele>82.66666666666666</ele><time>2026-04-03T12:25:09Z</time></trkpt><trkpt lat="43.96787296189045" lon="12.654804791863004"><ele>85.0</ele><time>2026-04-03T12:25:10Z</time></trkpt><trkpt lat="43.96774287418565" lon="12.654662856332337"><ele>85.0</ele><time>2026-04-03T12:25:11Z</time></trkpt><trkpt lat="43.9676256107789" lon="12.654531781566204"><ele>85.0</ele><time>2026-04-03T12:25:12Z</time></trkpt><trkpt lat="43.967509347786574" lon="12.654404978911922"><ele>85.0</ele><time>2026-04-03T12:25:13Z</time></trkpt><trkpt lat="43.967391529451206" lon="12.65428218857233"><ele>85.0</ele><time>2026-04-03T12:25:14Z</time></trkpt><trkpt lat="43.96727967115195" lon="12.654145009599034"><ele>87.0</ele><time>2026-04-03T12:25:15Z</time></trkpt><trkpt lat="43.9671734906408" lon="12.653996157559652"><ele>89.0</ele><time>2026-04-03T12:25:16Z</time></trkpt><trkpt lat="43.9670723915166" lon="12.653834095429167"><ele>91.0</ele><time>2026-04-03T12:25:17Z</time></trkpt><trkpt lat="43.966978543888004" lon="12.653663633204449"><ele>89.33333333333333</ele><time>2026-04-03T12:25:18Z</time></trkpt><trkpt lat="43.96688746339902" lon="12.653481332398588"><ele>87.66666666666667</ele><time>2026-04-03T12:25:19Z</time></trkpt><trkpt lat="43.966794106700604" lon="12.653302578883785"><ele>86.0</ele><time>2026-04-03T12:25:20Z</time></trkpt><trkpt lat="43.96669386402643" lon="12.653122760936425"><ele>88.33333333333334</ele><time>2026-04-03T12:25:21Z</time></trkpt><trkpt lat="43.96659195447406" lon="12.652947065491624"><ele>90.66666666666667</ele><time>2026-04-03T12:25:22Z</time></trkpt><trkpt lat="43.9664981748689" lon="12.652774894253458"><ele>93.0</ele><time>2026-04-03T12:25:23Z</time></trkpt><trkpt lat="43.96641673586134" lon="12.652623551268832"><ele>93.0</ele><time>2026-04-03T12:25:24Z</time></trkpt><trkpt lat="43.96633997168741" lon="12.65247916785612"><ele>93.0</ele><time>2026-04-03T12:25:25Z</time></trkpt><trkpt lat="43.96626731903682" lon="12.652343641026388"><ele>93.0</ele><time>2026-04-03T12:25:26Z</time></trkpt><trkpt lat="43.96619789170694" lon="12.652211453829889"><ele>93.0</ele><time>2026-04-03T12:25:27Z</time></trkpt><trkpt lat="43.966119818014946" lon="12.652053436968757"><ele>92.66666666666667</ele><time>2026-04-03T12:25:28Z</time></trkpt><trkpt lat="43.966041188722514" lon="12.65188193582618"><ele>92.33333333333334</ele><time>2026-04-03T12:25:29Z</time></trkpt><trkpt lat="43.96595988129451" lon="12.651699783199172"><ele>92.0</ele><time>2026-04-03T12:25:30Z</time></trkpt><trkpt lat="43.96586834136298" lon="12.651513472129322"><ele>94.33333333333334</ele><time>2026-04-03T12:25:31Z</time></trkpt><trkpt lat="43.96576998602889" lon="12.651324784549582"><ele>96.66666666666667</ele><time>2026-04-03T12:25:32Z</time></trkpt><trkpt lat="43.965668454702886" lon="12.651137402237268"><ele>99.0</ele><time>2026-04-03T12:25:33Z</time></trkpt><trkpt lat="43.965564270582504" lon="12.650965239034285"><ele>99.0</ele><time>2026-04-03T12:25:34Z</time></trkpt><trkpt lat="43.965451345241675" lon="12.650801894780432"><ele>99.0</ele><time>2026-04-03T12:25:35Z</time></trkpt><trkpt lat="43.96533347303133" lon="12.650644041689569"><ele>99.0</ele><time>2026-04-03T12:25:36Z</time></trkpt><trkpt lat="43.96521757689635" lon="12.650480814666604"><ele>99.0</ele><time>2026-04-03T12:25:37Z</time></trkpt><trkpt lat="43.96510378562963" lon="12.650318964751586"><ele>99.0</ele><time>2026-04-03T12:25:38Z</time></trkpt><trkpt lat="43.96498869551826" lon="12.650158464363937"><ele>99.0</ele><time>2026-04-03T12:25:39Z</time></trkpt><trkpt lat="43.96487437095707" lon="12.649998690391886"><ele>101.33333333333334</ele><time>2026-04-03T12:25:40Z</time></trkpt><trkpt lat="43.96476132585417" lon="12.649836335890988"><ele>103.66666666666667</ele><time>2026-04-03T12:25:41Z</time></trkpt><trkpt lat="43.964648842329616" lon="12.649676044505593"><ele>106.0</ele><time>2026-04-03T12:25:42Z</time></trkpt><trkpt lat="43.96453842595501" lon="12.649509932485497"><ele>104.0</ele><time>2026-04-03T12:25:43Z</time></trkpt><trkpt lat="43.964426455384825" lon="12.649340045956437"><ele>102.0</ele><time>2026-04-03T12:25:44Z</time></trkpt><trkpt lat="43.964315687405374" lon="12.649167416426442"><ele>100.0</ele><time>2026-04-03T12:25:45Z</time></trkpt><trkpt lat="43.96420567292995" lon="12.648992579786633"><ele>103.0</ele><time>2026-04-03T12:25:46Z</time></trkpt><trkpt lat="43.96409272222256" lon="12.64881342931033"><ele>106.0</ele><time>2026-04-03T12:25:46.999Z</time></trkpt><trkpt lat="43.96397285968448" lon="12.648637895605411"><ele>109.0</ele><time>2026-04-03T12:25:47.999Z</time></trkpt><trkpt lat="43.96385380743939" lon="12.648477185839129"><ele>109.0</ele><time>2026-04-03T12:25:48.999Z</time></trkpt><trkpt lat="43.96374555165123" lon="12.648328224921595"><ele>109.0</ele><time>2026-04-03T12:25:49.999Z</time></trkpt><trkpt lat="43.96364038954736" lon="12.648191730836063"><ele>109.0</ele><time>2026-04-03T12:25:50.999Z</time></trkpt><trkpt lat="43.96353002295644" lon="12.648057175268935"><ele>109.0</ele><time>2026-04-03T12:25:51.999Z</time></trkpt><trkpt lat="43.96341430751902" lon="12.647921457155794"><ele>110.0</ele><time>2026-04-03T12:25:52.999Z</time></trkpt><trkpt lat="43.96329631686562" lon="12.64777986471196"><ele>111.0</ele><time>2026-04-03T12:25:53.999Z</time></trkpt><trkpt lat="43.96317782628693" lon="12.647627445752955"><ele>112.0</ele><time>2026-04-03T12:25:54.999Z</time></trkpt><trkpt lat="43.96305436229153" lon="12.647464589355641"><ele>112.0</ele><time>2026-04-03T12:25:55.999Z</time></trkpt><trkpt lat="43.96293038330711" lon="12.647295178057144"><ele>112.0</ele><time>2026-04-03T12:25:56.999Z</time></trkpt><trkpt lat="43.96280248079731" lon="12.647120839797193"><ele>112.0</ele><time>2026-04-03T12:25:57.999Z</time></trkpt><trkpt lat="43.96267474862353" lon="12.646946679345612"><ele>112.0</ele><time>2026-04-03T12:25:58.999Z</time></trkpt><trkpt lat="43.962556114832616" lon="12.646770267317875"><ele>112.0</ele><time>2026-04-03T12:25:59.999Z</time></trkpt><trkpt lat="43.96244396240775" lon="12.646592387334056"><ele>112.0</ele><time>2026-04-03T12:26:00.999Z</time></trkpt><trkpt lat="43.9623351809799" lon="12.646405173647345"><ele>112.0</ele><time>2026-04-03T12:26:01.999Z</time></trkpt><trkpt lat="43.962235467079125" lon="12.646222381368876"><ele>112.0</ele><time>2026-04-03T12:26:02.999Z</time></trkpt><trkpt lat="43.96215696867412" lon="12.646060084265915"><ele>112.0</ele><time>2026-04-03T12:26:03.999Z</time></trkpt><trkpt lat="43.96208612671926" lon="12.645900195473416"><ele>112.0</ele><time>2026-04-03T12:26:04.999Z</time></trkpt><trkpt lat="43.96202306340504" lon="12.645748478792754"><ele>112.0</ele><time>2026-04-03T12:26:05.999Z</time></trkpt><trkpt lat="43.96198292541506" lon="12.645614281764727"><ele>112.0</ele><time>2026-04-03T12:26:06.999Z</time></trkpt><trkpt lat="43.96197018569242" lon="12.645466272946367"><ele>112.0</ele><time>2026-04-03T12:26:07.999Z</time></trkpt><trkpt lat="43.96199023619728" lon="12.64530834978658"><ele>112.0</ele><time>2026-04-03T12:26:08.999Z</time></trkpt><trkpt lat="43.962043596618734" lon="12.645149488812654"><ele>112.0</ele><time>2026-04-03T12:26:09.999Z</time></trkpt><trkpt lat="43.96212885668352" lon="12.644991215291398"><ele>112.0</ele><time>2026-04-03T12:26:10.999Z</time></trkpt><trkpt lat="43.96225036982226" lon="12.644823660164489"><ele>112.0</ele><time>2026-04-03T12:26:11.999Z</time></trkpt><trkpt lat="43.962363048174424" lon="12.644660661466833"><ele>112.0</ele><time>2026-04-03T12:26:12.999Z</time></trkpt><trkpt lat="43.9624606550632" lon="12.644515546632789"><ele>112.0</ele><time>2026-04-03T12:26:13.999Z</time></trkpt><trkpt lat="43.96255325873121" lon="12.644380554192203"><ele>112.0</ele><time>2026-04-03T12:26:14.999Z</time></trkpt><trkpt lat="43.96263496537531" lon="12.64425743878332"><ele>112.0</ele><time>2026-04-03T12:26:15.999Z</time></trkpt><trkpt lat="43.96269143964504" lon="12.644141728602133"><ele>112.39999999999999</ele><time>2026-04-03T12:26:16.999Z</time></trkpt><trkpt lat="43.96271818221336" lon="12.644014460217598"><ele>112.79999999999998</ele><time>2026-04-03T12:26:17.999Z</time></trkpt><trkpt lat="43.96270398563339" lon="12.643875506271662"><ele>113.2</ele><time>2026-04-03T12:26:18.999Z</time></trkpt><trkpt lat="43.962644739174124" lon="12.643741579737878"><ele>113.6</ele><time>2026-04-03T12:26:19.999Z</time></trkpt><trkpt lat="43.962556218252246" lon="12.64360798313907"><ele>114.0</ele><time>2026-04-03T12:26:20.999Z</time></trkpt><trkpt lat="43.96245326068252" lon="12.643467504336256"><ele>112.75</ele><time>2026-04-03T12:26:21.999Z</time></trkpt><trkpt lat="43.962345426265344" lon="12.643318139009676"><ele>111.5</ele><time>2026-04-03T12:26:22.999Z</time></trkpt><trkpt lat="43.962250374645485" lon="12.643180559375715"><ele>110.25</ele><time>2026-04-03T12:26:23.999Z</time></trkpt><trkpt lat="43.96215981300999" lon="12.643050557074329"><ele>109.0</ele><time>2026-04-03T12:26:24.999Z</time></trkpt><trkpt lat="43.962067722280295" lon="12.642926147979171"><ele>109.0</ele><time>2026-04-03T12:26:25.999Z</time></trkpt><trkpt lat="43.96196658382193" lon="12.642811906279197"><ele>109.0</ele><time>2026-04-03T12:26:26.999Z</time></trkpt><trkpt lat="43.96183761628989" lon="12.642721603213916"><ele>109.0</ele><time>2026-04-03T12:26:27.999Z</time></trkpt><trkpt lat="43.961690514027296" lon="12.64265911815466"><ele>109.0</ele><time>2026-04-03T12:26:28.999Z</time></trkpt><trkpt lat="43.96153376052994" lon="12.642606191378986"><ele>108.66666666666667</ele><time>2026-04-03T12:26:29.999Z</time></trkpt><trkpt lat="43.96137105707105" lon="12.642552599388791"><ele>108.33333333333334</ele><time>2026-04-03T12:26:30.999Z</time></trkpt><trkpt lat="43.96120373978697" lon="12.642501529639325"><ele>108.0</ele><time>2026-04-03T12:26:31.999Z</time></trkpt><trkpt lat="43.961030909921256" lon="12.642451771533448"><ele>108.33333333333334</ele><time>2026-04-03T12:26:32.999Z</time></trkpt><trkpt lat="43.96085817851227" lon="12.642396513194274"><ele>108.66666666666667</ele><time>2026-04-03T12:26:33.999Z</time></trkpt><trkpt lat="43.96069225468243" lon="12.642345192323827"><ele>109.0</ele><time>2026-04-03T12:26:34.999Z</time></trkpt><trkpt lat="43.960522746624456" lon="12.642321200654148"><ele>109.0</ele><time>2026-04-03T12:26:35.999Z</time></trkpt><trkpt lat="43.96035013878816" lon="12.642323642156187"><ele>109.0</ele><time>2026-04-03T12:26:36.999Z</time></trkpt><trkpt lat="43.96017444672979" lon="12.642341723889764"><ele>109.0</ele><time>2026-04-03T12:26:37.999Z</time></trkpt><trkpt lat="43.959998558891705" lon="12.64237090868501"><ele>109.66666666666667</ele><time>2026-04-03T12:26:38.999Z</time></trkpt><trkpt lat="43.959827613958474" lon="12.642372278600975"><ele>110.33333333333334</ele><time>2026-04-03T12:26:39.999Z</time></trkpt><trkpt lat="43.959667537692646" lon="12.642382142090504"><ele>111.0</ele><time>2026-04-03T12:26:40.999Z</time></trkpt><trkpt lat="43.95951385208632" lon="12.642402905156594"><ele>111.0</ele><time>2026-04-03T12:26:41.999Z</time></trkpt><trkpt lat="43.959360207811216" lon="12.642385810662688"><ele>111.0</ele><time>2026-04-03T12:26:42.999Z</time></trkpt><trkpt lat="43.95920758573164" lon="12.642337761341201"><ele>111.0</ele><time>2026-04-03T12:26:43.999Z</time></trkpt><trkpt lat="43.95905475665645" lon="12.642262252565992"><ele>112.66666666666666</ele><time>2026-04-03T12:26:44.999Z</time></trkpt><trkpt lat="43.95889776780729" lon="12.64217519673466"><ele>114.33333333333333</ele><time>2026-04-03T12:26:45.999Z</time></trkpt><trkpt lat="43.95873625584542" lon="12.64208141591053"><ele>116.0</ele><time>2026-04-03T12:26:46.999Z</time></trkpt><trkpt lat="43.958567543219814" lon="12.64198464997636"><ele>115.0</ele><time>2026-04-03T12:26:47.999Z</time></trkpt><trkpt lat="43.95839635557838" lon="12.641885854546977"><ele>114.0</ele><time>2026-04-03T12:26:48.999Z</time></trkpt><trkpt lat="43.95822894949106" lon="12.64177274550105"><ele>113.0</ele><time>2026-04-03T12:26:49.999Z</time></trkpt><trkpt lat="43.95806935089118" lon="12.641638099402215"><ele>115.33333333333333</ele><time>2026-04-03T12:26:50.999Z</time></trkpt><trkpt lat="43.957928907512176" lon="12.6414692065897"><ele>117.66666666666666</ele><time>2026-04-03T12:26:51.999Z</time></trkpt><trkpt lat="43.95778717458551" lon="12.641299652287355"><ele>120.0</ele><time>2026-04-03T12:26:52.999Z</time></trkpt><trkpt lat="43.95763885507184" lon="12.641137879797494"><ele>121.0</ele><time>2026-04-03T12:26:53.999Z</time></trkpt><trkpt lat="43.95748419430611" lon="12.640993332754194"><ele>122.0</ele><time>2026-04-03T12:26:54.999Z</time></trkpt><trkpt lat="43.95734004991055" lon="12.640867670075473"><ele>123.0</ele><time>2026-04-03T12:26:55.999Z</time></trkpt><trkpt lat="43.95721294473644" lon="12.640745118050667"><ele>123.0</ele><time>2026-04-03T12:26:56.999Z</time></trkpt><trkpt lat="43.957110714747905" lon="12.64060625890182"><ele>123.0</ele><time>2026-04-03T12:26:57.999Z</time></trkpt><trkpt lat="43.95703299244193" lon="12.640446341448232"><ele>123.0</ele><time>2026-04-03T12:26:59Z</time></trkpt><trkpt lat="43.95697233655119" lon="12.640257654374203"><ele>123.0</ele><time>2026-04-03T12:27:00Z</time></trkpt><trkpt lat="43.95691379245105" lon="12.640053596250544"><ele>122.66666666666666</ele><time>2026-04-03T12:27:01Z</time></trkpt><trkpt lat="43.95684569033184" lon="12.639849115664282"><ele>122.33333333333333</ele><time>2026-04-03T12:27:02Z</time></trkpt><trkpt lat="43.95676251917685" lon="12.639640259134069"><ele>122.0</ele><time>2026-04-03T12:27:03Z</time></trkpt><trkpt lat="43.956670887366954" lon="12.639424674854984"><ele>122.0</ele><time>2026-04-03T12:27:04Z</time></trkpt><trkpt lat="43.956582126655455" lon="12.639211564444542"><ele>122.0</ele><time>2026-04-03T12:27:05Z</time></trkpt><trkpt lat="43.95650707384821" lon="12.639035285436112"><ele>122.0</ele><time>2026-04-03T12:27:06Z</time></trkpt><trkpt lat="43.956449921056716" lon="12.638895721995048"><ele>122.0</ele><time>2026-04-03T12:27:07Z</time></trkpt><trkpt lat="43.956409067791434" lon="12.63878048346016"><ele>121.99999999999999</ele><time>2026-04-03T12:27:08Z</time></trkpt><trkpt lat="43.956386595061154" lon="12.638663325288503"><ele>122.0</ele><time>2026-04-03T12:27:09Z</time></trkpt><trkpt lat="43.956395749911174" lon="12.63854732454368"><ele>122.0</ele><time>2026-04-03T12:27:10Z</time></trkpt><trkpt lat="43.95639989941521" lon="12.638448791572209"><ele>122.0</ele><time>2026-04-03T12:27:11Z</time></trkpt><trkpt lat="43.95636860942975" lon="12.638369940642354"><ele>121.99999999999999</ele><time>2026-04-03T12:27:12Z</time></trkpt><trkpt lat="43.956311391536595" lon="12.63831305009149"><ele>122.0</ele><time>2026-04-03T12:27:13Z</time></trkpt><trkpt lat="43.95622888430246" lon="12.638279628650501"><ele>121.5</ele><time>2026-04-03T12:27:14Z</time></trkpt><trkpt lat="43.95614605704607" lon="12.638206577454634"><ele>121.0</ele><time>2026-04-03T12:27:15Z</time></trkpt><trkpt lat="43.95607856381333" lon="12.63808070893952"><ele>120.5</ele><time>2026-04-03T12:27:16Z</time></trkpt><trkpt lat="43.95599525357929" lon="12.637947308360262"><ele>120.0</ele><time>2026-04-03T12:27:17Z</time></trkpt><trkpt lat="43.9558873876184" lon="12.637828785686404"><ele>122.25</ele><time>2026-04-03T12:27:18Z</time></trkpt><trkpt lat="43.9557642882165" lon="12.637718428052311"><ele>124.5</ele><time>2026-04-03T12:27:19Z</time></trkpt><trkpt lat="43.955631862457224" lon="12.637611064263758"><ele>126.75</ele><time>2026-04-03T12:27:20Z</time></trkpt><trkpt lat="43.95550505995404" lon="12.637504305551825"><ele>129.0</ele><time>2026-04-03T12:27:21Z</time></trkpt><trkpt lat="43.95537314165584" lon="12.637392291601616"><ele>129.0</ele><time>2026-04-03T12:27:22Z</time></trkpt><trkpt lat="43.95523640028741" lon="12.637280180893642"><ele>129.0</ele><time>2026-04-03T12:27:23Z</time></trkpt><trkpt lat="43.95509492556051" lon="12.637163748017503"><ele>129.0</ele><time>2026-04-03T12:27:24Z</time></trkpt><trkpt lat="43.95496580775616" lon="12.637043976436956"><ele>131.0</ele><time>2026-04-03T12:27:25Z</time></trkpt><trkpt lat="43.95484397044228" lon="12.63690796661225"><ele>133.0</ele><time>2026-04-03T12:27:26Z</time></trkpt><trkpt lat="43.95472254735567" lon="12.63674475160989"><ele>135.0</ele><time>2026-04-03T12:27:27Z</time></trkpt><trkpt lat="43.95459781255205" lon="12.636561283228888"><ele>135.0</ele><time>2026-04-03T12:27:28Z</time></trkpt><trkpt lat="43.95446559460913" lon="12.63637413763827"><ele>135.0</ele><time>2026-04-03T12:27:29Z</time></trkpt><trkpt lat="43.954334817554965" lon="12.636191756774457"><ele>135.0</ele><time>2026-04-03T12:27:30Z</time></trkpt><trkpt lat="43.95419987306152" lon="12.63601899514581"><ele>133.0</ele><time>2026-04-03T12:27:31Z</time></trkpt><trkpt lat="43.9540600937502" lon="12.635846495219749"><ele>131.0</ele><time>2026-04-03T12:27:32Z</time></trkpt><trkpt lat="43.953913396707144" lon="12.635682881134535"><ele>129.0</ele><time>2026-04-03T12:27:33Z</time></trkpt><trkpt lat="43.95375515159118" lon="12.635544240212843"><ele>129.0</ele><time>2026-04-03T12:27:34Z</time></trkpt><trkpt lat="43.95358194046533" lon="12.635439981097967"><ele>129.0</ele><time>2026-04-03T12:27:35Z</time></trkpt><trkpt lat="43.95340452520618" lon="12.635340045832113"><ele>129.0</ele><time>2026-04-03T12:27:36Z</time></trkpt><trkpt lat="43.95321375064454" lon="12.635285931436895"><ele>127.33333333333334</ele><time>2026-04-03T12:27:37Z</time></trkpt><trkpt lat="43.953013840518054" lon="12.635259709751283"><ele>125.66666666666667</ele><time>2026-04-03T12:27:38Z</time></trkpt><trkpt lat="43.95281181225576" lon="12.63524931315628"><ele>124.0</ele><time>2026-04-03T12:27:39Z</time></trkpt><trkpt lat="43.95261309852417" lon="12.635248205464448"><ele>122.66666666666667</ele><time>2026-04-03T12:27:40Z</time></trkpt><trkpt lat="43.952417530532514" lon="12.635251184411542"><ele>121.33333333333334</ele><time>2026-04-03T12:27:41Z</time></trkpt><trkpt lat="43.95221780287144" lon="12.635256859850308"><ele>120.0</ele><time>2026-04-03T12:27:42Z</time></trkpt><trkpt lat="43.95201750027336" lon="12.635263789096696"><ele>120.0</ele><time>2026-04-03T12:27:43Z</time></trkpt><trkpt lat="43.951815798773275" lon="12.635270230498788"><ele>120.0</ele><time>2026-04-03T12:27:44Z</time></trkpt><trkpt lat="43.95161301159246" lon="12.635275746420955"><ele>120.0</ele><time>2026-04-03T12:27:45Z</time></trkpt><trkpt lat="43.951406787519076" lon="12.635281355827951"><ele>120.0</ele><time>2026-04-03T12:27:46Z</time></trkpt><trkpt lat="43.95120266255625" lon="12.635285654486166"><ele>120.0</ele><time>2026-04-03T12:27:47Z</time></trkpt><trkpt lat="43.95099672698543" lon="12.635288535567522"><ele>120.0</ele><time>2026-04-03T12:27:48Z</time></trkpt><trkpt lat="43.95079114741331" lon="12.635293430322141"><ele>120.66666666666666</ele><time>2026-04-03T12:27:48.999Z</time></trkpt><trkpt lat="43.95058512770326" lon="12.635298335552505"><ele>121.33333333333333</ele><time>2026-04-03T12:27:49.999Z</time></trkpt><trkpt lat="43.95038153465777" lon="12.635304080553132"><ele>122.0</ele><time>2026-04-03T12:27:50.999Z</time></trkpt><trkpt lat="43.950183034469795" lon="12.63531220258321"><ele>123.0</ele><time>2026-04-03T12:27:51.999Z</time></trkpt><trkpt lat="43.94999187088853" lon="12.635328766269332"><ele>124.0</ele><time>2026-04-03T12:27:52.999Z</time></trkpt><trkpt lat="43.94980861408153" lon="12.635380980234274"><ele>125.0</ele><time>2026-04-03T12:27:53.999Z</time></trkpt><trkpt lat="43.94963092313261" lon="12.635429447379293"><ele>125.0</ele><time>2026-04-03T12:27:54.999Z</time></trkpt><trkpt lat="43.94946054982453" lon="12.635492742442748"><ele>125.0</ele><time>2026-04-03T12:27:55.999Z</time></trkpt><trkpt lat="43.949299423103625" lon="12.635529823042804"><ele>125.0</ele><time>2026-04-03T12:27:56.999Z</time></trkpt><trkpt lat="43.949146029923014" lon="12.635585512694085"><ele>126.33333333333333</ele><time>2026-04-03T12:27:57.999Z</time></trkpt><trkpt lat="43.94899156604454" lon="12.635642751188346"><ele>127.66666666666666</ele><time>2026-04-03T12:27:58.999Z</time></trkpt><trkpt lat="43.948839220337625" lon="12.635699438541655"><ele>129.0</ele><time>2026-04-03T12:27:59.999Z</time></trkpt><trkpt lat="43.948697480631886" lon="12.635752179418214"><ele>129.0</ele><time>2026-04-03T12:28:00.999Z</time></trkpt><trkpt lat="43.948576481770374" lon="12.63582043871077"><ele>129.0</ele><time>2026-04-03T12:28:01.999Z</time></trkpt><trkpt lat="43.94845594956792" lon="12.635850136774092"><ele>129.0</ele><time>2026-04-03T12:28:02.999Z</time></trkpt><trkpt lat="43.94834420274471" lon="12.635893737211894"><ele>129.0</ele><time>2026-04-03T12:28:03.999Z</time></trkpt><trkpt lat="43.948235800950435" lon="12.635922558510998"><ele>129.5</ele><time>2026-04-03T12:28:04.999Z</time></trkpt><trkpt lat="43.948121791400844" lon="12.635940032925918"><ele>130.0</ele><time>2026-04-03T12:28:05.999Z</time></trkpt><trkpt lat="43.947981031343474" lon="12.635949553020424"><ele>130.5</ele><time>2026-04-03T12:28:06.999Z</time></trkpt><trkpt lat="43.94783433914681" lon="12.635939197727605"><ele>131.0</ele><time>2026-04-03T12:28:07.999Z</time></trkpt><trkpt lat="43.947680224891144" lon="12.6359096589658"><ele>132.66666666666666</ele><time>2026-04-03T12:28:08.999Z</time></trkpt><trkpt lat="43.94751822887743" lon="12.635865248479593"><ele>134.33333333333334</ele><time>2026-04-03T12:28:09.999Z</time></trkpt><trkpt lat="43.94735018227822" lon="12.635808992385696"><ele>136.0</ele><time>2026-04-03T12:28:10.999Z</time></trkpt><trkpt lat="43.947178197595164" lon="12.635741913514224"><ele>136.0</ele><time>2026-04-03T12:28:11.999Z</time></trkpt><trkpt lat="43.94700379298469" lon="12.635672560857067"><ele>136.0</ele><time>2026-04-03T12:28:12.999Z</time></trkpt><trkpt lat="43.946826831729126" lon="12.635606134645792"><ele>136.0</ele><time>2026-04-03T12:28:13.999Z</time></trkpt><trkpt lat="43.94666200397426" lon="12.635541811455198"><ele>138.0</ele><time>2026-04-03T12:28:14.999Z</time></trkpt><trkpt lat="43.94649769023086" lon="12.635484289927739"><ele>140.0</ele><time>2026-04-03T12:28:15.999Z</time></trkpt><trkpt lat="43.946329590674395" lon="12.635433752385168"><ele>142.0</ele><time>2026-04-03T12:28:16.999Z</time></trkpt><trkpt lat="43.94615751459277" lon="12.635388282774345"><ele>142.0</ele><time>2026-04-03T12:28:17.999Z</time></trkpt><trkpt lat="43.945980257751515" lon="12.635351593157475"><ele>142.0</ele><time>2026-04-03T12:28:18.999Z</time></trkpt><trkpt lat="43.945797355175806" lon="12.635320621643068"><ele>142.0</ele><time>2026-04-03T12:28:19.999Z</time></trkpt><trkpt lat="43.945611990018804" lon="12.63529214218957"><ele>142.33333333333334</ele><time>2026-04-03T12:28:20.999Z</time></trkpt><trkpt lat="43.94544076501949" lon="12.635255055291228"><ele>142.66666666666666</ele><time>2026-04-03T12:28:21.999Z</time></trkpt><trkpt lat="43.945272865134854" lon="12.635190103105272"><ele>143.0</ele><time>2026-04-03T12:28:22.999Z</time></trkpt><trkpt lat="43.945108452082174" lon="12.635088063672496"><ele>144.33333333333331</ele><time>2026-04-03T12:28:23.999Z</time></trkpt><trkpt lat="43.94494373691909" lon="12.63495295207939"><ele>145.66666666666666</ele><time>2026-04-03T12:28:24.999Z</time></trkpt><trkpt lat="43.94476981271811" lon="12.634799976775533"><ele>147.0</ele><time>2026-04-03T12:28:25.999Z</time></trkpt><trkpt lat="43.944611002347344" lon="12.634649590360485"><ele>147.0</ele><time>2026-04-03T12:28:26.999Z</time></trkpt><trkpt lat="43.94445966903746" lon="12.63451393051901"><ele>147.0</ele><time>2026-04-03T12:28:27.999Z</time></trkpt><trkpt lat="43.94432165696639" lon="12.634360765199393"><ele>147.0</ele><time>2026-04-03T12:28:28.999Z</time></trkpt><trkpt lat="43.944192254859686" lon="12.634183123481284"><ele>146.33333333333334</ele><time>2026-04-03T12:28:29.999Z</time></trkpt><trkpt lat="43.94406547318749" lon="12.633999248452414"><ele>145.66666666666669</ele><time>2026-04-03T12:28:30.999Z</time></trkpt><trkpt lat="43.94394289786272" lon="12.633823959264522"><ele>145.0</ele><time>2026-04-03T12:28:31.999Z</time></trkpt><trkpt lat="43.943805671546166" lon="12.633675141245755"><ele>144.0</ele><time>2026-04-03T12:28:32.999Z</time></trkpt><trkpt lat="43.94365311796551" lon="12.633539512002367"><ele>143.0</ele><time>2026-04-03T12:28:33.999Z</time></trkpt><trkpt lat="43.94348693103753" lon="12.633415373965743"><ele>142.0</ele><time>2026-04-03T12:28:34.999Z</time></trkpt><trkpt lat="43.943313704379285" lon="12.633298554414795"><ele>142.0</ele><time>2026-04-03T12:28:35.999Z</time></trkpt><trkpt lat="43.94314281016911" lon="12.633169861346481"><ele>142.0</ele><time>2026-04-03T12:28:36.999Z</time></trkpt><trkpt lat="43.94297557004471" lon="12.63302409887162"><ele>142.0</ele><time>2026-04-03T12:28:37.999Z</time></trkpt><trkpt lat="43.94281396548945" lon="12.63285499086402"><ele>141.66666666666669</ele><time>2026-04-03T12:28:38.999Z</time></trkpt><trkpt lat="43.94265562256972" lon="12.632675633758776"><ele>141.33333333333334</ele><time>2026-04-03T12:28:39.999Z</time></trkpt><trkpt lat="43.94249930115119" lon="12.632498070745179"><ele>141.0</ele><time>2026-04-03T12:28:40.999Z</time></trkpt><trkpt lat="43.94234810398672" lon="12.632322312206242"><ele>141.0</ele><time>2026-04-03T12:28:41.999Z</time></trkpt><trkpt lat="43.942206486532356" lon="12.63214715775939"><ele>141.0</ele><time>2026-04-03T12:28:42.999Z</time></trkpt><trkpt lat="43.94207273641869" lon="12.631971051795299"><ele>141.0</ele><time>2026-04-03T12:28:43.999Z</time></trkpt><trkpt lat="43.941943956067995" lon="12.63179253326694"><ele>141.0</ele><time>2026-04-03T12:28:44.999Z</time></trkpt><trkpt lat="43.94181870932381" lon="12.631604568917904"><ele>141.0</ele><time>2026-04-03T12:28:45.999Z</time></trkpt><trkpt lat="43.94170061655501" lon="12.631411602949456"><ele>141.0</ele><time>2026-04-03T12:28:46.999Z</time></trkpt><trkpt lat="43.941585569177334" lon="12.631211466648775"><ele>141.33333333333334</ele><time>2026-04-03T12:28:47.999Z</time></trkpt><trkpt lat="43.9414762768541" lon="12.631006469094025"><ele>141.66666666666669</ele><time>2026-04-03T12:28:48.999Z</time></trkpt><trkpt lat="43.941371460161626" lon="12.630794711881043"><ele>142.0</ele><time>2026-04-03T12:28:49.999Z</time></trkpt><trkpt lat="43.94126829325336" lon="12.630580984054285"><ele>142.0</ele><time>2026-04-03T12:28:50.999Z</time></trkpt><trkpt lat="43.94116485082562" lon="12.630364438705742"><ele>142.0</ele><time>2026-04-03T12:28:51.999Z</time></trkpt><trkpt lat="43.94105856696741" lon="12.630149676214817"><ele>142.0</ele><time>2026-04-03T12:28:52.999Z</time></trkpt><trkpt lat="43.940952620535064" lon="12.629932925543727"><ele>142.33333333333334</ele><time>2026-04-03T12:28:53.999Z</time></trkpt><trkpt lat="43.94084931852058" lon="12.629711374478001"><ele>142.66666666666666</ele><time>2026-04-03T12:28:54.999Z</time></trkpt><trkpt lat="43.94075162671019" lon="12.629485765396423"><ele>143.0</ele><time>2026-04-03T12:28:55.999Z</time></trkpt><trkpt lat="43.940660530258434" lon="12.629255801845941"><ele>143.0</ele><time>2026-04-03T12:28:56.999Z</time></trkpt><trkpt lat="43.94057607972404" lon="12.629023592813477"><ele>143.0</ele><time>2026-04-03T12:28:57.999Z</time></trkpt><trkpt lat="43.94049173159881" lon="12.628793336650777"><ele>143.0</ele><time>2026-04-03T12:28:58.999Z</time></trkpt><trkpt lat="43.94041129978377" lon="12.628576632667874"><ele>142.66666666666666</ele><time>2026-04-03T12:28:59.999Z</time></trkpt><trkpt lat="43.94033713808346" lon="12.62837221727643"><ele>142.33333333333334</ele><time>2026-04-03T12:29:00.998Z</time></trkpt><trkpt lat="43.9402694374576" lon="12.62818204627267"><ele>142.0</ele><time>2026-04-03T12:29:01.998Z</time></trkpt><trkpt lat="43.94020406064245" lon="12.627998276074013"><ele>142.0</ele><time>2026-04-03T12:29:02.998Z</time></trkpt><trkpt lat="43.94014056556149" lon="12.627818979031211"><ele>142.0</ele><time>2026-04-03T12:29:03.998Z</time></trkpt><trkpt lat="43.94008072733866" lon="12.62764223409428"><ele>142.0</ele><time>2026-04-03T12:29:05Z</time></trkpt><trkpt lat="43.94002017355067" lon="12.627470525951257"><ele>142.0</ele><time>2026-04-03T12:29:06Z</time></trkpt><trkpt lat="43.93995674947746" lon="12.62731037917257"><ele>143.75</ele><time>2026-04-03T12:29:07Z</time></trkpt><trkpt lat="43.93987912657384" lon="12.627171885711766"><ele>145.5</ele><time>2026-04-03T12:29:08Z</time></trkpt><trkpt lat="43.939784104857864" lon="12.62707131214647"><ele>147.25</ele><time>2026-04-03T12:29:09Z</time></trkpt><trkpt lat="43.93966893272495" lon="12.627007024351515"><ele>149.0</ele><time>2026-04-03T12:29:10Z</time></trkpt><trkpt lat="43.939540139198336" lon="12.626966668092017"><ele>149.0</ele><time>2026-04-03T12:29:11Z</time></trkpt><trkpt lat="43.93940972376295" lon="12.626914655750921"><ele>149.0</ele><time>2026-04-03T12:29:12Z</time></trkpt><trkpt lat="43.93926821887258" lon="12.626903345930286"><ele>149.0</ele><time>2026-04-03T12:29:13Z</time></trkpt><trkpt lat="43.93912539889385" lon="12.626861251834942"><ele>149.0</ele><time>2026-04-03T12:29:14Z</time></trkpt><trkpt lat="43.938978645742836" lon="12.626822967050847"><ele>150.33333333333331</ele><time>2026-04-03T12:29:15Z</time></trkpt><trkpt lat="43.93882950140378" lon="12.626783929765445"><ele>151.66666666666666</ele><time>2026-04-03T12:29:16Z</time></trkpt><trkpt lat="43.93868054728252" lon="12.626744624482802"><ele>153.0</ele><time>2026-04-03T12:29:17Z</time></trkpt><trkpt lat="43.93853022702316" lon="12.626706883227207"><ele>152.66666666666666</ele><time>2026-04-03T12:29:18Z</time></trkpt><trkpt lat="43.93837866894472" lon="12.626667082721607"><ele>152.33333333333331</ele><time>2026-04-03T12:29:19Z</time></trkpt><trkpt lat="43.93822576927776" lon="12.626624086515344"><ele>152.0</ele><time>2026-04-03T12:29:20Z</time></trkpt><trkpt lat="43.938072048405964" lon="12.62658444871026"><ele>152.0</ele><time>2026-04-03T12:29:21Z</time></trkpt><trkpt lat="43.937919690788675" lon="12.626543853159044"><ele>152.0</ele><time>2026-04-03T12:29:22Z</time></trkpt><trkpt lat="43.93776866498638" lon="12.626498892274126"><ele>152.0</ele><time>2026-04-03T12:29:23Z</time></trkpt><trkpt lat="43.9376339277557" lon="12.626455942703885"><ele>152.0</ele><time>2026-04-03T12:29:24Z</time></trkpt><trkpt lat="43.93750391338588" lon="12.626419559316847"><ele>150.75</ele><time>2026-04-03T12:29:25Z</time></trkpt><trkpt lat="43.93737830444142" lon="12.626387954725297"><ele>149.5</ele><time>2026-04-03T12:29:26Z</time></trkpt><trkpt lat="43.937251595739966" lon="12.626343372616759"><ele>148.25</ele><time>2026-04-03T12:29:27Z</time></trkpt><trkpt lat="43.93712945825143" lon="12.62626932254624"><ele>147.0</ele><time>2026-04-03T12:29:28Z</time></trkpt><trkpt lat="43.937006786923035" lon="12.626173906849468"><ele>149.25</ele><time>2026-04-03T12:29:29Z</time></trkpt><trkpt lat="43.93689520549048" lon="12.626044923421661"><ele>151.5</ele><time>2026-04-03T12:29:30Z</time></trkpt><trkpt lat="43.93679553045581" lon="12.62589632333878"><ele>153.75</ele><time>2026-04-03T12:29:31Z</time></trkpt><trkpt lat="43.9367109961233" lon="12.625736275215296"><ele>156.0</ele><time>2026-04-03T12:29:32Z</time></trkpt><trkpt lat="43.9366419256488" lon="12.625585466014053"><ele>156.0</ele><time>2026-04-03T12:29:33Z</time></trkpt><trkpt lat="43.936578468846385" lon="12.625441318826336"><ele>156.0</ele><time>2026-04-03T12:29:34Z</time></trkpt><trkpt lat="43.93651771820562" lon="12.625305054093433"><ele>156.0</ele><time>2026-04-03T12:29:35Z</time></trkpt><trkpt lat="43.936455740359904" lon="12.625180721589157"><ele>156.0</ele><time>2026-04-03T12:29:36Z</time></trkpt><trkpt lat="43.93638927997179" lon="12.62507037421875"><ele>156.25</ele><time>2026-04-03T12:29:37Z</time></trkpt><trkpt lat="43.93630962007497" lon="12.624975178788905"><ele>156.5</ele><time>2026-04-03T12:29:38Z</time></trkpt><trkpt lat="43.93620569314998" lon="12.624910660847203"><ele>156.75</ele><time>2026-04-03T12:29:39Z</time></trkpt><trkpt lat="43.936081795592195" lon="12.624863124332183"><ele>157.0</ele><time>2026-04-03T12:29:40Z</time></trkpt><trkpt lat="43.93594320349114" lon="12.624830746913814"><ele>156.66666666666669</ele><time>2026-04-03T12:29:41Z</time></trkpt><trkpt lat="43.935796402733274" lon="12.624800902357658"><ele>156.33333333333334</ele><time>2026-04-03T12:29:42Z</time></trkpt><trkpt lat="43.93564344640478" lon="12.624771750140498"><ele>156.0</ele><time>2026-04-03T12:29:43Z</time></trkpt><trkpt lat="43.935488646023835" lon="12.62474544040011"><ele>156.0</ele><time>2026-04-03T12:29:44Z</time></trkpt><trkpt lat="43.935346493900575" lon="12.624724077215653"><ele>156.0</ele><time>2026-04-03T12:29:45Z</time></trkpt><trkpt lat="43.93521305873321" lon="12.624730015594313"><ele>156.0</ele><time>2026-04-03T12:29:46Z</time></trkpt><trkpt lat="43.93508789420369" lon="12.624745490137492"><ele>156.0</ele><time>2026-04-03T12:29:47Z</time></trkpt><trkpt lat="43.93496284475963" lon="12.62476405808084"><ele>156.4</ele><time>2026-04-03T12:29:48Z</time></trkpt><trkpt lat="43.93484459169917" lon="12.624783856520667"><ele>156.8</ele><time>2026-04-03T12:29:49Z</time></trkpt><trkpt lat="43.93473699401268" lon="12.624810421002483"><ele>157.20000000000002</ele><time>2026-04-03T12:29:50Z</time></trkpt><trkpt lat="43.93463991732613" lon="12.62483269135962"><ele>157.6</ele><time>2026-04-03T12:29:51Z</time></trkpt><trkpt lat="43.93452606503182" lon="12.624862866094212"><ele>158.0</ele><time>2026-04-03T12:29:52Z</time></trkpt><trkpt lat="43.93440198543158" lon="12.624901560172951"><ele>158.0</ele><time>2026-04-03T12:29:53Z</time></trkpt><trkpt lat="43.934269748517856" lon="12.62493811280977"><ele>158.0</ele><time>2026-04-03T12:29:54Z</time></trkpt><trkpt lat="43.93413132329908" lon="12.624967732325857"><ele>158.0</ele><time>2026-04-03T12:29:55Z</time></trkpt><trkpt lat="43.933988122639036" lon="12.624995825441893"><ele>158.0</ele><time>2026-04-03T12:29:56Z</time></trkpt><trkpt lat="43.93384226362942" lon="12.625027044085993"><ele>159.75</ele><time>2026-04-03T12:29:56.999Z</time></trkpt><trkpt lat="43.933691380207534" lon="12.625046835811599"><ele>161.5</ele><time>2026-04-03T12:29:57.999Z</time></trkpt><trkpt lat="43.9335485674409" lon="12.62504840254417"><ele>163.25</ele><time>2026-04-03T12:29:58.999Z</time></trkpt><trkpt lat="43.93341563903302" lon="12.625017726503655"><ele>165.0</ele><time>2026-04-03T12:29:59.999Z</time></trkpt><trkpt lat="43.933305856602885" lon="12.624969294797408"><ele>166.4</ele><time>2026-04-03T12:30:00.999Z</time></trkpt><trkpt lat="43.93321250738033" lon="12.624919056777221"><ele>167.8</ele><time>2026-04-03T12:30:01.999Z</time></trkpt><trkpt lat="43.93313029619546" lon="12.624872735384999"><ele>169.2</ele><time>2026-04-03T12:30:02.999Z</time></trkpt><trkpt lat="43.93305611495895" lon="12.624836049878295"><ele>170.6</ele><time>2026-04-03T12:30:03.999Z</time></trkpt><trkpt lat="43.93294798579346" lon="12.624784016482183"><ele>172.0</ele><time>2026-04-03T12:30:05.999Z</time></trkpt><trkpt lat="43.93286190452301" lon="12.624742272006184"><ele>172.0</ele><time>2026-04-03T12:30:07.999Z</time></trkpt><trkpt lat="43.93276282152514" lon="12.624677208150516"><ele>172.0</ele><time>2026-04-03T12:30:09.999Z</time></trkpt><trkpt lat="43.93270033701075" lon="12.624642276157832"><ele>172.0</ele><time>2026-04-03T12:30:10.999Z</time></trkpt><trkpt lat="43.93262189305813" lon="12.624617938776066"><ele>172.0</ele><time>2026-04-03T12:30:11.999Z</time></trkpt><trkpt lat="43.932531519495754" lon="12.624609874417063"><ele>172.0</ele><time>2026-04-03T12:30:12.999Z</time></trkpt><trkpt lat="43.932436545900956" lon="12.62462283031058"><ele>172.0</ele><time>2026-04-03T12:30:13.999Z</time></trkpt><trkpt lat="43.93234441766016" lon="12.62466826731252"><ele>173.8</ele><time>2026-04-03T12:30:14.999Z</time></trkpt><trkpt lat="43.93225276690596" lon="12.624721425289334"><ele>175.6</ele><time>2026-04-03T12:30:15.999Z</time></trkpt><trkpt lat="43.93216101045734" lon="12.624778936475483"><ele>177.4</ele><time>2026-04-03T12:30:16.999Z</time></trkpt><trkpt lat="43.93206676276842" lon="12.624843921259618"><ele>179.20000000000002</ele><time>2026-04-03T12:30:17.999Z</time></trkpt><trkpt lat="43.93196964086897" lon="12.62491027085032"><ele>181.0</ele><time>2026-04-03T12:30:18.999Z</time></trkpt><trkpt lat="43.931874544322355" lon="12.62497975342225"><ele>181.0</ele><time>2026-04-03T12:30:19.999Z</time></trkpt><trkpt lat="43.93179536654024" lon="12.625043723082108"><ele>181.0</ele><time>2026-04-03T12:30:20.999Z</time></trkpt><trkpt lat="43.93173444315817" lon="12.625119005976774"><ele>181.0</ele><time>2026-04-03T12:30:21.999Z</time></trkpt><trkpt lat="43.93167005895312" lon="12.625190564053511"><ele>181.0</ele><time>2026-04-03T12:30:22.999Z</time></trkpt><trkpt lat="43.93165309964456" lon="12.625307947972654"><ele>181.0</ele><time>2026-04-03T12:30:23.999Z</time></trkpt><trkpt lat="43.93161548097645" lon="12.625401068570195"><ele>181.0</ele><time>2026-04-03T12:30:24.999Z</time></trkpt><trkpt lat="43.93156142257665" lon="12.62552320638391"><ele>180.60000000000002</ele><time>2026-04-03T12:30:26.999Z</time></trkpt><trkpt lat="43.93145370752556" lon="12.625447274552094"><ele>180.2</ele><time>2026-04-03T12:30:28.999Z</time></trkpt><trkpt lat="43.93139419863788" lon="12.625352422359049"><ele>179.8</ele><time>2026-04-03T12:30:29.999Z</time></trkpt><trkpt lat="43.93131155787512" lon="12.625253741552905"><ele>179.39999999999998</ele><time>2026-04-03T12:30:30.999Z</time></trkpt><trkpt lat="43.931217807700506" lon="12.625141481503835"><ele>179.0</ele><time>2026-04-03T12:30:31.999Z</time></trkpt><trkpt lat="43.93111195808628" lon="12.625010585505507"><ele>178.33333333333331</ele><time>2026-04-03T12:30:32.999Z</time></trkpt><trkpt lat="43.931001683403906" lon="12.624862573676406"><ele>177.66666666666666</ele><time>2026-04-03T12:30:33.999Z</time></trkpt><trkpt lat="43.9308881154326" lon="12.624712033691779"><ele>177.0</ele><time>2026-04-03T12:30:34.999Z</time></trkpt><trkpt lat="43.930766787841385" lon="12.624558690424747"><ele>173.0</ele><time>2026-04-03T12:30:35.999Z</time></trkpt><trkpt lat="43.93063843303233" lon="12.62440121982269"><ele>169.0</ele><time>2026-04-03T12:30:36.999Z</time></trkpt><trkpt lat="43.93051181750567" lon="12.624244306145487"><ele>165.0</ele><time>2026-04-03T12:30:37.999Z</time></trkpt><trkpt lat="43.93038306208289" lon="12.624086925576094"><ele>165.0</ele><time>2026-04-03T12:30:38.999Z</time></trkpt><trkpt lat="43.930254295366844" lon="12.623934435695215"><ele>165.0</ele><time>2026-04-03T12:30:39.999Z</time></trkpt><trkpt lat="43.930124603466545" lon="12.623782027856908"><ele>165.0</ele><time>2026-04-03T12:30:40.999Z</time></trkpt><trkpt lat="43.929996367499356" lon="12.623632109678232"><ele>164.0</ele><time>2026-04-03T12:30:41.999Z</time></trkpt><trkpt lat="43.9298688221447" lon="12.623486796992623"><ele>163.0</ele><time>2026-04-03T12:30:42.999Z</time></trkpt><trkpt lat="43.9297415213459" lon="12.623344707987073"><ele>162.0</ele><time>2026-04-03T12:30:43.999Z</time></trkpt><trkpt lat="43.9296160173916" lon="12.62319658830255"><ele>162.0</ele><time>2026-04-03T12:30:44.999Z</time></trkpt><trkpt lat="43.929494602234065" lon="12.623037290748794"><ele>162.0</ele><time>2026-04-03T12:30:45.999Z</time></trkpt><trkpt lat="43.929369101872176" lon="12.622881341196154"><ele>162.0</ele><time>2026-04-03T12:30:46.999Z</time></trkpt><trkpt lat="43.9292372723402" lon="12.622728456172243"><ele>161.33333333333334</ele><time>2026-04-03T12:30:47.999Z</time></trkpt><trkpt lat="43.92910633658715" lon="12.622570535527347"><ele>160.66666666666669</ele><time>2026-04-03T12:30:48.999Z</time></trkpt><trkpt lat="43.928976124171555" lon="12.62241431527607"><ele>160.0</ele><time>2026-04-03T12:30:49.999Z</time></trkpt><trkpt lat="43.92883850456884" lon="12.622265541022957"><ele>160.0</ele><time>2026-04-03T12:30:50.999Z</time></trkpt><trkpt lat="43.92870467664322" lon="12.622141424228701"><ele>160.0</ele><time>2026-04-03T12:30:51.999Z</time></trkpt><trkpt lat="43.9285845267651" lon="12.622033207285444"><ele>160.0</ele><time>2026-04-03T12:30:52.999Z</time></trkpt><trkpt lat="43.928494573295986" lon="12.621951931778021"><ele>160.0</ele><time>2026-04-03T12:30:53.999Z</time></trkpt><trkpt lat="43.92843640750133" lon="12.62189807564252"><ele>159.8</ele><time>2026-04-03T12:30:54.999Z</time></trkpt><trkpt lat="43.928351535194246" lon="12.621824446271889"><ele>159.6</ele><time>2026-04-03T12:30:56.999Z</time></trkpt><trkpt lat="43.92828314601045" lon="12.62176982675676"><ele>159.4</ele><time>2026-04-03T12:30:57.999Z</time></trkpt><trkpt lat="43.928205197971515" lon="12.621701767097246"><ele>159.2</ele><time>2026-04-03T12:30:58.999Z</time></trkpt><trkpt lat="43.92811268282634" lon="12.621628178596557"><ele>159.0</ele><time>2026-04-03T12:30:59.999Z</time></trkpt><trkpt lat="43.928009278244375" lon="12.62155091071717"><ele>159.0</ele><time>2026-04-03T12:31:00.999Z</time></trkpt><trkpt lat="43.92789548906617" lon="12.621476531260914"><ele>159.0</ele><time>2026-04-03T12:31:01.999Z</time></trkpt><trkpt lat="43.927784767765104" lon="12.621419985674246"><ele>159.0</ele><time>2026-04-03T12:31:02.999Z</time></trkpt><trkpt lat="43.927674122172355" lon="12.621360813701106"><ele>159.0</ele><time>2026-04-03T12:31:03.999Z</time></trkpt><trkpt lat="43.927557748880744" lon="12.621288717189268"><ele>158.25</ele><time>2026-04-03T12:31:04.999Z</time></trkpt><trkpt lat="43.92743800020393" lon="12.62121279599306"><ele>157.5</ele><time>2026-04-03T12:31:05.999Z</time></trkpt><trkpt lat="43.927313537420645" lon="12.621135834950387"><ele>156.75</ele><time>2026-04-03T12:31:06.999Z</time></trkpt><trkpt lat="43.92717927419756" lon="12.621074098395798"><ele>156.0</ele><time>2026-04-03T12:31:07.999Z</time></trkpt><trkpt lat="43.92703747403704" lon="12.621001935502608"><ele>157.0</ele><time>2026-04-03T12:31:08.999Z</time></trkpt><trkpt lat="43.92688710654684" lon="12.620970027068195"><ele>158.0</ele><time>2026-04-03T12:31:09.998Z</time></trkpt><trkpt lat="43.92675099826425" lon="12.620880850602308"><ele>159.0</ele><time>2026-04-03T12:31:11Z</time></trkpt><trkpt lat="43.926617393614585" lon="12.620770362959856"><ele>159.0</ele><time>2026-04-03T12:31:12Z</time></trkpt><trkpt lat="43.92647975958552" lon="12.620667880084932"><ele>159.0</ele><time>2026-04-03T12:31:13Z</time></trkpt><trkpt lat="43.92634367644344" lon="12.620561173609456"><ele>159.0</ele><time>2026-04-03T12:31:14Z</time></trkpt><trkpt lat="43.92620945744477" lon="12.620446994034433"><ele>159.0</ele><time>2026-04-03T12:31:15Z</time></trkpt><trkpt lat="43.92607596370056" lon="12.620329177888554"><ele>159.0</ele><time>2026-04-03T12:31:16Z</time></trkpt><trkpt lat="43.92594570920671" lon="12.620198664664347"><ele>159.0</ele><time>2026-04-03T12:31:17Z</time></trkpt><trkpt lat="43.92582386212458" lon="12.62005550765632"><ele>161.66666666666666</ele><time>2026-04-03T12:31:18Z</time></trkpt><trkpt lat="43.925700120489104" lon="12.61992607394259"><ele>164.33333333333331</ele><time>2026-04-03T12:31:19Z</time></trkpt><trkpt lat="43.92556127817827" lon="12.619817511530345"><ele>167.0</ele><time>2026-04-03T12:31:20Z</time></trkpt><trkpt lat="43.92541681698422" lon="12.619718942216188"><ele>167.0</ele><time>2026-04-03T12:31:21Z</time></trkpt><trkpt lat="43.925272503017936" lon="12.619620570710563"><ele>167.0</ele><time>2026-04-03T12:31:22Z</time></trkpt><trkpt lat="43.92512848160018" lon="12.619520918848515"><ele>167.0</ele><time>2026-04-03T12:31:23Z</time></trkpt><trkpt lat="43.92498662399409" lon="12.619425845776796"><ele>169.5</ele><time>2026-04-03T12:31:24Z</time></trkpt><trkpt lat="43.92484938850189" lon="12.619327881124615"><ele>172.0</ele><time>2026-04-03T12:31:25Z</time></trkpt><trkpt lat="43.92473043086912" lon="12.619240329274398"><ele>174.5</ele><time>2026-04-03T12:31:26Z</time></trkpt><trkpt lat="43.92462563274052" lon="12.6191632403927"><ele>177.0</ele><time>2026-04-03T12:31:27Z</time></trkpt><trkpt lat="43.92453431051718" lon="12.619099025927113"><ele>177.0</ele><time>2026-04-03T12:31:28Z</time></trkpt><trkpt lat="43.92445377410181" lon="12.619042980553045"><ele>177.0</ele><time>2026-04-03T12:31:29Z</time></trkpt><trkpt lat="43.92438463036345" lon="12.618992275668964"><ele>177.0</ele><time>2026-04-03T12:31:30Z</time></trkpt><trkpt lat="43.924314680128376" lon="12.618946781479872"><ele>177.0</ele><time>2026-04-03T12:31:31Z</time></trkpt><trkpt lat="43.92424137389465" lon="12.61889780326404"><ele>177.0</ele><time>2026-04-03T12:31:32Z</time></trkpt><trkpt lat="43.92415170082383" lon="12.618839114538353"><ele>177.0</ele><time>2026-04-03T12:31:33Z</time></trkpt><trkpt lat="43.92405262504698" lon="12.618766397181961"><ele>178.0</ele><time>2026-04-03T12:31:34Z</time></trkpt><trkpt lat="43.923942860972346" lon="12.61869052558582"><ele>179.0</ele><time>2026-04-03T12:31:35Z</time></trkpt><trkpt lat="43.92382541127452" lon="12.618613359628904"><ele>180.0</ele><time>2026-04-03T12:31:36Z</time></trkpt><trkpt lat="43.923702159036985" lon="12.618527456570769"><ele>181.0</ele><time>2026-04-03T12:31:37Z</time></trkpt><trkpt lat="43.923582095837986" lon="12.618440460305187"><ele>181.8</ele><time>2026-04-03T12:31:38Z</time></trkpt><trkpt lat="43.92346799137793" lon="12.618357417737261"><ele>182.60000000000002</ele><time>2026-04-03T12:31:39Z</time></trkpt><trkpt lat="43.92337006385823" lon="12.618279485580036"><ele>183.4</ele><time>2026-04-03T12:31:40Z</time></trkpt><trkpt lat="43.923295656456595" lon="12.618212885149074"><ele>184.2</ele><time>2026-04-03T12:31:41Z</time></trkpt><trkpt lat="43.92323562555501" lon="12.618149272224281"><ele>185.0</ele><time>2026-04-03T12:31:42Z</time></trkpt><trkpt lat="43.92315857953751" lon="12.61807425552939"><ele>186.75</ele><time>2026-04-03T12:31:43Z</time></trkpt><trkpt lat="43.923070093911235" lon="12.617981688577084"><ele>188.5</ele><time>2026-04-03T12:31:44Z</time></trkpt><trkpt lat="43.922976048919004" lon="12.617860784929002"><ele>190.25</ele><time>2026-04-03T12:31:45Z</time></trkpt><trkpt lat="43.922866277984376" lon="12.617725499751728"><ele>192.0</ele><time>2026-04-03T12:31:46Z</time></trkpt><trkpt lat="43.922749312428614" lon="12.61758204688307"><ele>192.66666666666669</ele><time>2026-04-03T12:31:47Z</time></trkpt><trkpt lat="43.92264255672453" lon="12.617444381580617"><ele>193.33333333333334</ele><time>2026-04-03T12:31:48Z</time></trkpt><trkpt lat="43.922528755172586" lon="12.617300999960548"><ele>194.0</ele><time>2026-04-03T12:31:49Z</time></trkpt><trkpt lat="43.92240395650652" lon="12.617150566348075"><ele>196.33333333333334</ele><time>2026-04-03T12:31:50Z</time></trkpt><trkpt lat="43.92227548789848" lon="12.616998205763377"><ele>198.66666666666669</ele><time>2026-04-03T12:31:51Z</time></trkpt><trkpt lat="43.92214898798128" lon="12.61684672489496"><ele>201.0</ele><time>2026-04-03T12:31:52Z</time></trkpt><trkpt lat="43.922026389916226" lon="12.616701586928892"><ele>201.5</ele><time>2026-04-03T12:31:53Z</time></trkpt><trkpt lat="43.921920316521586" lon="12.616574840470486"><ele>202.0</ele><time>2026-04-03T12:31:54Z</time></trkpt><trkpt lat="43.92182108282527" lon="12.616457006108972"><ele>202.5</ele><time>2026-04-03T12:31:55Z</time></trkpt><trkpt lat="43.92172572262637" lon="12.616350453108577"><ele>203.0</ele><time>2026-04-03T12:31:56Z</time></trkpt><trkpt lat="43.92163669822984" lon="12.616261701079003"><ele>205.4</ele><time>2026-04-03T12:31:57Z</time></trkpt><trkpt lat="43.921550211637076" lon="12.616177454867074"><ele>207.8</ele><time>2026-04-03T12:31:58Z</time></trkpt><trkpt lat="43.92146397532" lon="12.616097787838187"><ele>210.2</ele><time>2026-04-03T12:31:58.999Z</time></trkpt><trkpt lat="43.921367530586465" lon="12.616030008841344"><ele>212.6</ele><time>2026-04-03T12:31:59.999Z</time></trkpt><trkpt lat="43.92125983343785" lon="12.615964517687564"><ele>215.0</ele><time>2026-04-03T12:32:00.999Z</time></trkpt><trkpt lat="43.92114187689133" lon="12.615902829793713"><ele>215.5</ele><time>2026-04-03T12:32:01.999Z</time></trkpt><trkpt lat="43.92101610360843" lon="12.615838800383044"><ele>216.0</ele><time>2026-04-03T12:32:02.999Z</time></trkpt><trkpt lat="43.920887435295256" lon="12.615765725183264"><ele>216.5</ele><time>2026-04-03T12:32:03.999Z</time></trkpt><trkpt lat="43.92075299162748" lon="12.615692589779517"><ele>217.0</ele><time>2026-04-03T12:32:04.999Z</time></trkpt><trkpt lat="43.9206227385975" lon="12.615624304374467"><ele>217.25</ele><time>2026-04-03T12:32:05.999Z</time></trkpt><trkpt lat="43.920509038429174" lon="12.61555919403389"><ele>217.5</ele><time>2026-04-03T12:32:06.999Z</time></trkpt><trkpt lat="43.92041479652007" lon="12.615487431832"><ele>217.75</ele><time>2026-04-03T12:32:07.999Z</time></trkpt><trkpt lat="43.92033114195896" lon="12.615398991547677"><ele>218.0</ele><time>2026-04-03T12:32:08.999Z</time></trkpt><trkpt lat="43.92025176129366" lon="12.615279859500545"><ele>217.5</ele><time>2026-04-03T12:32:09.999Z</time></trkpt><trkpt lat="43.92017307217715" lon="12.615156239859898"><ele>217.0</ele><time>2026-04-03T12:32:10.999Z</time></trkpt><trkpt lat="43.92008920282655" lon="12.615008925681536"><ele>216.5</ele><time>2026-04-03T12:32:11.999Z</time></trkpt><trkpt lat="43.919995553830404" lon="12.614867414268563"><ele>216.0</ele><time>2026-04-03T12:32:12.999Z</time></trkpt><trkpt lat="43.919907435149085" lon="12.614741110549586"><ele>216.0</ele><time>2026-04-03T12:32:13.999Z</time></trkpt><trkpt lat="43.919809562847405" lon="12.6146558536491"><ele>216.00000000000003</ele><time>2026-04-03T12:32:14.999Z</time></trkpt><trkpt lat="43.91970818782791" lon="12.614597160189494"><ele>216.00000000000003</ele><time>2026-04-03T12:32:15.999Z</time></trkpt><trkpt lat="43.919623429673095" lon="12.614533166035162"><ele>216.0</ele><time>2026-04-03T12:32:16.999Z</time></trkpt><trkpt lat="43.91955655061886" lon="12.614433545858471"><ele>216.0</ele><time>2026-04-03T12:32:17.999Z</time></trkpt><trkpt lat="43.919509546064695" lon="12.614318038355227"><ele>215.4</ele><time>2026-04-03T12:32:18.999Z</time></trkpt><trkpt lat="43.91949424619471" lon="12.614174275810898"><ele>214.8</ele><time>2026-04-03T12:32:19.999Z</time></trkpt><trkpt lat="43.91949883886638" lon="12.614028554498093"><ele>214.20000000000002</ele><time>2026-04-03T12:32:20.999Z</time></trkpt><trkpt lat="43.919540293050126" lon="12.613887977954914"><ele>213.60000000000002</ele><time>2026-04-03T12:32:21.999Z</time></trkpt><trkpt lat="43.91959675533055" lon="12.613757656645722"><ele>213.0</ele><time>2026-04-03T12:32:22.999Z</time></trkpt><trkpt lat="43.91966877266763" lon="12.61363886595298"><ele>211.0</ele><time>2026-04-03T12:32:23.999Z</time></trkpt><trkpt lat="43.91975661196878" lon="12.61353810630171"><ele>209.0</ele><time>2026-04-03T12:32:24.999Z</time></trkpt><trkpt lat="43.919859972881405" lon="12.613467675325543"><ele>207.0</ele><time>2026-04-03T12:32:25.999Z</time></trkpt><trkpt lat="43.91996687752239" lon="12.613444702028024"><ele>205.0</ele><time>2026-04-03T12:32:26.999Z</time></trkpt><trkpt lat="43.9200679197141" lon="12.613423039556436"><ele>203.0</ele><time>2026-04-03T12:32:27.999Z</time></trkpt><trkpt lat="43.92014891486621" lon="12.613370610977801"><ele>203.00000000000003</ele><time>2026-04-03T12:32:28.999Z</time></trkpt><trkpt lat="43.920198829633186" lon="12.613289811313017"><ele>203.0</ele><time>2026-04-03T12:32:29.999Z</time></trkpt><trkpt lat="43.92022098151939" lon="12.61317521451464"><ele>203.0</ele><time>2026-04-03T12:32:30.999Z</time></trkpt><trkpt lat="43.92020253789228" lon="12.613053734861625"><ele>203.0</ele><time>2026-04-03T12:32:31.999Z</time></trkpt><trkpt lat="43.92014447553397" lon="12.612961312276541"><ele>203.00000000000003</ele><time>2026-04-03T12:32:32.999Z</time></trkpt><trkpt lat="43.92006484157321" lon="12.612924132869978"><ele>203.0</ele><time>2026-04-03T12:32:33.999Z</time></trkpt><trkpt lat="43.919973903231934" lon="12.612905366168391"><ele>203.0</ele><time>2026-04-03T12:32:34.999Z</time></trkpt><trkpt lat="43.91986503035129" lon="12.612913978844086"><ele>203.0</ele><time>2026-04-03T12:32:35.999Z</time></trkpt><trkpt lat="43.9197418122375" lon="12.61293215781137"><ele>203.0</ele><time>2026-04-03T12:32:36.999Z</time></trkpt><trkpt lat="43.91960353939173" lon="12.612957129124327"><ele>203.0</ele><time>2026-04-03T12:32:37.999Z</time></trkpt><trkpt lat="43.919459672078276" lon="12.61300048516637"><ele>203.0</ele><time>2026-04-03T12:32:38.999Z</time></trkpt><trkpt lat="43.91933522253159" lon="12.61302403851492"><ele>203.0</ele><time>2026-04-03T12:32:39.999Z</time></trkpt><trkpt lat="43.91921656044284" lon="12.61306973096898"><ele>203.0</ele><time>2026-04-03T12:32:40.999Z</time></trkpt><trkpt lat="43.919118377753314" lon="12.61314632898171"><ele>203.0</ele><time>2026-04-03T12:32:41.999Z</time></trkpt><trkpt lat="43.919039162263196" lon="12.613200865820966"><ele>201.2</ele><time>2026-04-03T12:32:42.999Z</time></trkpt><trkpt lat="43.918946665320114" lon="12.613283759457357"><ele>199.4</ele><time>2026-04-03T12:32:44.999Z</time></trkpt><trkpt lat="43.9188840616247" lon="12.613133179921348"><ele>197.6</ele><time>2026-04-03T12:32:46.999Z</time></trkpt><trkpt lat="43.91892396388664" lon="12.613039553665248"><ele>195.79999999999998</ele><time>2026-04-03T12:32:47.999Z</time></trkpt><trkpt lat="43.91899652730374" lon="12.612959135235329"><ele>194.0</ele><time>2026-04-03T12:32:48.999Z</time></trkpt><trkpt lat="43.91908035621035" lon="12.612880476318823"><ele>193.6</ele><time>2026-04-03T12:32:49.999Z</time></trkpt><trkpt lat="43.919159680860496" lon="12.612790461058387"><ele>193.2</ele><time>2026-04-03T12:32:50.999Z</time></trkpt><trkpt lat="43.91922312471119" lon="12.612682774472034"><ele>192.79999999999998</ele><time>2026-04-03T12:32:51.999Z</time></trkpt><trkpt lat="43.919265433473036" lon="12.612549693923011"><ele>192.39999999999998</ele><time>2026-04-03T12:32:52.999Z</time></trkpt><trkpt lat="43.91929526583901" lon="12.612402534045723"><ele>192.0</ele><time>2026-04-03T12:32:53.999Z</time></trkpt><trkpt lat="43.91931898078398" lon="12.612252665563267"><ele>192.0</ele><time>2026-04-03T12:32:54.999Z</time></trkpt><trkpt lat="43.9193297342542" lon="12.612118334907588"><ele>192.0</ele><time>2026-04-03T12:32:55.999Z</time></trkpt><trkpt lat="43.91931346038153" lon="12.611992108140498"><ele>192.0</ele><time>2026-04-03T12:32:56.999Z</time></trkpt><trkpt lat="43.91925789196663" lon="12.611863823110747"><ele>192.0</ele><time>2026-04-03T12:32:57.999Z</time></trkpt><trkpt lat="43.91916881674424" lon="12.611743075276564"><ele>192.0</ele><time>2026-04-03T12:32:58.999Z</time></trkpt><trkpt lat="43.91905816597678" lon="12.611630148574118"><ele>187.5</ele><time>2026-04-03T12:32:59.999Z</time></trkpt><trkpt lat="43.91894532459761" lon="12.611515124140677"><ele>183.0</ele><time>2026-04-03T12:33:00.999Z</time></trkpt><trkpt lat="43.918835522987486" lon="12.611405033913528"><ele>178.5</ele><time>2026-04-03T12:33:01.999Z</time></trkpt><trkpt lat="43.91873580682197" lon="12.611305258941321"><ele>174.0</ele><time>2026-04-03T12:33:02.999Z</time></trkpt><trkpt lat="43.91863975449982" lon="12.611215088116085"><ele>174.0</ele><time>2026-04-03T12:33:03.999Z</time></trkpt><trkpt lat="43.91854003412637" lon="12.61115914231343"><ele>174.0</ele><time>2026-04-03T12:33:04.999Z</time></trkpt><trkpt lat="43.91843131353288" lon="12.611157628998376"><ele>174.0</ele><time>2026-04-03T12:33:05.999Z</time></trkpt><trkpt lat="43.91832667826119" lon="12.611205033280068"><ele>174.0</ele><time>2026-04-03T12:33:06.999Z</time></trkpt><trkpt lat="43.918225926846205" lon="12.611275340131478"><ele>174.0</ele><time>2026-04-03T12:33:07.999Z</time></trkpt><trkpt lat="43.91812974302269" lon="12.611371006571636"><ele>170.25</ele><time>2026-04-03T12:33:08.999Z</time></trkpt><trkpt lat="43.91804953465497" lon="12.611504567637846"><ele>166.5</ele><time>2026-04-03T12:33:09.999Z</time></trkpt><trkpt lat="43.917966183747694" lon="12.611642434063635"><ele>162.75</ele><time>2026-04-03T12:33:10.999Z</time></trkpt><trkpt lat="43.91790396180723" lon="12.611783310830917"><ele>159.0</ele><time>2026-04-03T12:33:11.999Z</time></trkpt><trkpt lat="43.917829553943996" lon="12.611890355679794"><ele>160.25</ele><time>2026-04-03T12:33:12.998Z</time></trkpt><trkpt lat="43.91775179049883" lon="12.611997094941247"><ele>161.5</ele><time>2026-04-03T12:33:13.998Z</time></trkpt><trkpt lat="43.9176428296391" lon="12.612051391496086"><ele>162.75</ele><time>2026-04-03T12:33:14.998Z</time></trkpt><trkpt lat="43.91751605762431" lon="12.612070451942884"><ele>164.0</ele><time>2026-04-03T12:33:15.998Z</time></trkpt><trkpt lat="43.91737839574164" lon="12.612064997773736"><ele>160.0</ele><time>2026-04-03T12:33:17Z</time></trkpt><trkpt lat="43.917236946620456" lon="12.61205724666433"><ele>156.0</ele><time>2026-04-03T12:33:18Z</time></trkpt><trkpt lat="43.917098193973885" lon="12.612058278517322"><ele>152.0</ele><time>2026-04-03T12:33:19Z</time></trkpt><trkpt lat="43.91695910233982" lon="12.612069386502514"><ele>148.0</ele><time>2026-04-03T12:33:20Z</time></trkpt><trkpt lat="43.91681902675035" lon="12.612088666958098"><ele>142.66666666666669</ele><time>2026-04-03T12:33:21Z</time></trkpt><trkpt lat="43.91667374755623" lon="12.612107078718402"><ele>137.33333333333334</ele><time>2026-04-03T12:33:22Z</time></trkpt><trkpt lat="43.91652485212837" lon="12.612084950946622"><ele>132.0</ele><time>2026-04-03T12:33:23Z</time></trkpt><trkpt lat="43.91637727289929" lon="12.612021108247658"><ele>131.0</ele><time>2026-04-03T12:33:24Z</time></trkpt><trkpt lat="43.91622658950117" lon="12.61194494752701"><ele>130.0</ele><time>2026-04-03T12:33:25Z</time></trkpt><trkpt lat="43.91606810363699" lon="12.611871136354887"><ele>129.0</ele><time>2026-04-03T12:33:26Z</time></trkpt><trkpt lat="43.91590217902589" lon="12.611801115169836"><ele>125.33333333333334</ele><time>2026-04-03T12:33:27Z</time></trkpt><trkpt lat="43.915738263692965" lon="12.61174702925737"><ele>121.66666666666667</ele><time>2026-04-03T12:33:28Z</time></trkpt><trkpt lat="43.915574654854396" lon="12.611708260305019"><ele>118.0</ele><time>2026-04-03T12:33:29Z</time></trkpt><trkpt lat="43.91541426541994" lon="12.611663688489752"><ele>118.0</ele><time>2026-04-03T12:33:30Z</time></trkpt><trkpt lat="43.91525817728379" lon="12.611627396253805"><ele>118.0</ele><time>2026-04-03T12:33:31Z</time></trkpt><trkpt lat="43.91510545380984" lon="12.611594366103676"><ele>118.0</ele><time>2026-04-03T12:33:32Z</time></trkpt><trkpt lat="43.914962561448334" lon="12.611559725873844"><ele>116.4</ele><time>2026-04-03T12:33:33Z</time></trkpt><trkpt lat="43.914834076240275" lon="12.611528152097147"><ele>114.80000000000001</ele><time>2026-04-03T12:33:34Z</time></trkpt><trkpt lat="43.91472222862226" lon="12.611502654918807"><ele>113.2</ele><time>2026-04-03T12:33:35Z</time></trkpt><trkpt lat="43.914629431905794" lon="12.611479362165488"><ele>111.6</ele><time>2026-04-03T12:33:36Z</time></trkpt><trkpt lat="43.914554937549006" lon="12.611459031669982"><ele>110.0</ele><time>2026-04-03T12:33:37Z</time></trkpt><trkpt lat="43.91446304425565" lon="12.61143763293112"><ele>110.0</ele><time>2026-04-03T12:33:39Z</time></trkpt><trkpt lat="43.914447176757754" lon="12.611261349521666"><ele>110.0</ele><time>2026-04-03T12:33:43Z</time></trkpt><trkpt lat="43.914503708053935" lon="12.61115328786747"><ele>110.0</ele><time>2026-04-03T12:33:44Z</time></trkpt><trkpt lat="43.914535707638144" lon="12.611027850691459"><ele>110.0</ele><time>2026-04-03T12:33:45Z</time></trkpt><trkpt lat="43.91458059234226" lon="12.610875790666222"><ele>110.0</ele><time>2026-04-03T12:33:46Z</time></trkpt><trkpt lat="43.914636183744456" lon="12.610693181452682"><ele>109.66666666666666</ele><time>2026-04-03T12:33:47Z</time></trkpt><trkpt lat="43.91468356024038" lon="12.610513701062288"><ele>109.33333333333334</ele><time>2026-04-03T12:33:48Z</time></trkpt><trkpt lat="43.91472980828914" lon="12.610305993826483"><ele>109.0</ele><time>2026-04-03T12:33:49Z</time></trkpt><trkpt lat="43.91476968589995" lon="12.610075340404114"><ele>109.0</ele><time>2026-04-03T12:33:50Z</time></trkpt><trkpt lat="43.91479978289533" lon="12.609843936716144"><ele>109.0</ele><time>2026-04-03T12:33:51Z</time></trkpt><trkpt lat="43.91482610331178" lon="12.609607711870044"><ele>109.0</ele><time>2026-04-03T12:33:52Z</time></trkpt><trkpt lat="43.91485822114154" lon="12.609370895589612"><ele>109.0</ele><time>2026-04-03T12:33:53Z</time></trkpt><trkpt lat="43.91488660414815" lon="12.609139284150574"><ele>109.0</ele><time>2026-04-03T12:33:54Z</time></trkpt><trkpt lat="43.91491308230162" lon="12.608905224410059"><ele>109.0</ele><time>2026-04-03T12:33:55Z</time></trkpt><trkpt lat="43.91494351273256" lon="12.608669189453284"><ele>109.66666666666667</ele><time>2026-04-03T12:33:56Z</time></trkpt><trkpt lat="43.914974074719495" lon="12.608431202317185"><ele>110.33333333333334</ele><time>2026-04-03T12:33:57Z</time></trkpt><trkpt lat="43.915001680890214" lon="12.608190302047174"><ele>111.0</ele><time>2026-04-03T12:33:58Z</time></trkpt><trkpt lat="43.91502983185565" lon="12.60795583808711"><ele>111.0</ele><time>2026-04-03T12:33:59Z</time></trkpt><trkpt lat="43.91505866776178" lon="12.60773083829244"><ele>111.0</ele><time>2026-04-03T12:34:00Z</time></trkpt><trkpt lat="43.915088033900304" lon="12.607503932471538"><ele>111.0</ele><time>2026-04-03T12:34:01Z</time></trkpt><trkpt lat="43.91511841356037" lon="12.6072759407172"><ele>112.0</ele><time>2026-04-03T12:34:02Z</time></trkpt><trkpt lat="43.91514728436225" lon="12.607042224105921"><ele>113.0</ele><time>2026-04-03T12:34:03Z</time></trkpt><trkpt lat="43.91517387950856" lon="12.606806256022264"><ele>114.0</ele><time>2026-04-03T12:34:04Z</time></trkpt><trkpt lat="43.91520128193867" lon="12.606580467840708"><ele>114.0</ele><time>2026-04-03T12:34:04.999Z</time></trkpt><trkpt lat="43.91522791112152" lon="12.606357653134248"><ele>114.0</ele><time>2026-04-03T12:34:05.999Z</time></trkpt><trkpt lat="43.915257376140175" lon="12.606127403026644"><ele>114.0</ele><time>2026-04-03T12:34:06.999Z</time></trkpt><trkpt lat="43.91528752168194" lon="12.605889244940773"><ele>114.0</ele><time>2026-04-03T12:34:07.999Z</time></trkpt><trkpt lat="43.91531663269707" lon="12.605646786981834"><ele>114.0</ele><time>2026-04-03T12:34:08.999Z</time></trkpt><trkpt lat="43.91534543189315" lon="12.605402348313543"><ele>114.0</ele><time>2026-04-03T12:34:09.999Z</time></trkpt><trkpt lat="43.91537446070983" lon="12.605155976501973"><ele>114.0</ele><time>2026-04-03T12:34:10.999Z</time></trkpt><trkpt lat="43.91540324141055" lon="12.60490859728971"><ele>114.0</ele><time>2026-04-03T12:34:11.999Z</time></trkpt><trkpt lat="43.91543099694125" lon="12.60466179428292"><ele>114.0</ele><time>2026-04-03T12:34:12.999Z</time></trkpt><trkpt lat="43.915459044754705" lon="12.604417238506596"><ele>114.33333333333334</ele><time>2026-04-03T12:34:13.999Z</time></trkpt><trkpt lat="43.915486265471635" lon="12.604175381341484"><ele>114.66666666666667</ele><time>2026-04-03T12:34:14.999Z</time></trkpt><trkpt lat="43.915513854331415" lon="12.603932977833413"><ele>115.0</ele><time>2026-04-03T12:34:15.999Z</time></trkpt><trkpt lat="43.91554182144934" lon="12.603691757454943"><ele>116.0</ele><time>2026-04-03T12:34:16.999Z</time></trkpt><trkpt lat="43.915572787716975" lon="12.603451849435386"><ele>117.0</ele><time>2026-04-03T12:34:17.999Z</time></trkpt><trkpt lat="43.91560522558833" lon="12.603212611505306"><ele>118.0</ele><time>2026-04-03T12:34:18.999Z</time></trkpt><trkpt lat="43.915641947440875" lon="12.602976015193718"><ele>118.66666666666667</ele><time>2026-04-03T12:34:19.999Z</time></trkpt><trkpt lat="43.91568884380341" lon="12.602740850942654"><ele>119.33333333333334</ele><time>2026-04-03T12:34:20.999Z</time></trkpt><trkpt lat="43.91575426150869" lon="12.60251695979994"><ele>120.0</ele><time>2026-04-03T12:34:21.999Z</time></trkpt><trkpt lat="43.91582283479077" lon="12.602292225349661"><ele>120.0</ele><time>2026-04-03T12:34:22.999Z</time></trkpt><trkpt lat="43.91589220687077" lon="12.602066297203297"><ele>120.0</ele><time>2026-04-03T12:34:23.999Z</time></trkpt><trkpt lat="43.91596257751085" lon="12.601841715272727"><ele>120.0</ele><time>2026-04-03T12:34:24.999Z</time></trkpt><trkpt lat="43.91602913698243" lon="12.601620103633381"><ele>120.33333333333334</ele><time>2026-04-03T12:34:25.999Z</time></trkpt><trkpt lat="43.91609248497093" lon="12.601408642985737"><ele>120.66666666666667</ele><time>2026-04-03T12:34:26.999Z</time></trkpt><trkpt lat="43.91615361516908" lon="12.601203306019938"><ele>121.0</ele><time>2026-04-03T12:34:27.999Z</time></trkpt><trkpt lat="43.91621500408285" lon="12.60100560945822"><ele>121.25</ele><time>2026-04-03T12:34:28.999Z</time></trkpt><trkpt lat="43.91627889394101" lon="12.600813614056321"><ele>121.5</ele><time>2026-04-03T12:34:29.999Z</time></trkpt><trkpt lat="43.91634012856991" lon="12.600625323463952"><ele>121.75</ele><time>2026-04-03T12:34:30.999Z</time></trkpt><trkpt lat="43.916399548104664" lon="12.600440763419176"><ele>122.0</ele><time>2026-04-03T12:34:31.999Z</time></trkpt><trkpt lat="43.91645350339679" lon="12.600268386459184"><ele>122.0</ele><time>2026-04-03T12:34:32.999Z</time></trkpt><trkpt lat="43.91650545065391" lon="12.600109726584387"><ele>122.0</ele><time>2026-04-03T12:34:33.999Z</time></trkpt><trkpt lat="43.916552526317844" lon="12.599955717317219"><ele>122.0</ele><time>2026-04-03T12:34:34.999Z</time></trkpt><trkpt lat="43.91659803922688" lon="12.599806409080472"><ele>122.0</ele><time>2026-04-03T12:34:35.999Z</time></trkpt><trkpt lat="43.91664313741902" lon="12.599661038181742"><ele>122.0</ele><time>2026-04-03T12:34:36.999Z</time></trkpt><trkpt lat="43.916688710138864" lon="12.59951332599181"><ele>122.0</ele><time>2026-04-03T12:34:37.999Z</time></trkpt><trkpt lat="43.91673332788561" lon="12.59936408381384"><ele>122.0</ele><time>2026-04-03T12:34:38.999Z</time></trkpt><trkpt lat="43.91677779538452" lon="12.599222620393821"><ele>122.0</ele><time>2026-04-03T12:34:39.999Z</time></trkpt><trkpt lat="43.91682383933453" lon="12.599083290590261"><ele>125.0</ele><time>2026-04-03T12:34:40.999Z</time></trkpt><trkpt lat="43.91686839483751" lon="12.598939473819467"><ele>128.0</ele><time>2026-04-03T12:34:41.999Z</time></trkpt><trkpt lat="43.91691217238905" lon="12.598793471021748"><ele>131.0</ele><time>2026-04-03T12:34:42.999Z</time></trkpt><trkpt lat="43.916954595373106" lon="12.598645088936266"><ele>134.0</ele><time>2026-04-03T12:34:43.999Z</time></trkpt><trkpt lat="43.91699481355994" lon="12.598493487739164"><ele>134.0</ele><time>2026-04-03T12:34:44.999Z</time></trkpt><trkpt lat="43.91703113626987" lon="12.59833856956434"><ele>134.0</ele><time>2026-04-03T12:34:45.999Z</time></trkpt><trkpt lat="43.917062301434136" lon="12.598180004398378"><ele>134.0</ele><time>2026-04-03T12:34:46.999Z</time></trkpt><trkpt lat="43.91708267696127" lon="12.598010367827497"><ele>134.0</ele><time>2026-04-03T12:34:47.999Z</time></trkpt><trkpt lat="43.91709006725235" lon="12.597831085609812"><ele>133.2</ele><time>2026-04-03T12:34:48.999Z</time></trkpt><trkpt lat="43.91708580689195" lon="12.59765413228314"><ele>132.4</ele><time>2026-04-03T12:34:49.999Z</time></trkpt><trkpt lat="43.91707527324213" lon="12.597490393842445"><ele>131.6</ele><time>2026-04-03T12:34:50.999Z</time></trkpt><trkpt lat="43.917070522823735" lon="12.597344834642563"><ele>130.8</ele><time>2026-04-03T12:34:51.999Z</time></trkpt><trkpt lat="43.91706877852609" lon="12.597215981397131"><ele>130.0</ele><time>2026-04-03T12:34:52.999Z</time></trkpt><trkpt lat="43.91707248376187" lon="12.59710985660516"><ele>130.0</ele><time>2026-04-03T12:34:53.999Z</time></trkpt><trkpt lat="43.91708461612147" lon="12.597014721904355"><ele>130.0</ele><time>2026-04-03T12:34:54.999Z</time></trkpt><trkpt lat="43.917085806242085" lon="12.596911442072376"><ele>130.0</ele><time>2026-04-03T12:34:55.999Z</time></trkpt><trkpt lat="43.91705516564331" lon="12.596789437857431"><ele>130.0</ele><time>2026-04-03T12:34:56.999Z</time></trkpt><trkpt lat="43.917020996277074" lon="12.596624775770131"><ele>130.0</ele><time>2026-04-03T12:34:57.999Z</time></trkpt><trkpt lat="43.91700793713296" lon="12.596422751744122"><ele>129.75</ele><time>2026-04-03T12:34:58.999Z</time></trkpt><trkpt lat="43.91700299796546" lon="12.596232135524575"><ele>129.5</ele><time>2026-04-03T12:34:59.999Z</time></trkpt><trkpt lat="43.91700864469597" lon="12.59604334455614"><ele>129.25</ele><time>2026-04-03T12:35:00.999Z</time></trkpt><trkpt lat="43.9170173794065" lon="12.595838864590252"><ele>129.0</ele><time>2026-04-03T12:35:01.999Z</time></trkpt><trkpt lat="43.91702337015019" lon="12.595624183530044"><ele>128.33333333333334</ele><time>2026-04-03T12:35:02.999Z</time></trkpt><trkpt lat="43.91703370642333" lon="12.595396741730084"><ele>127.66666666666667</ele><time>2026-04-03T12:35:03.999Z</time></trkpt><trkpt lat="43.91704580646838" lon="12.595158359585636"><ele>127.0</ele><time>2026-04-03T12:35:04.999Z</time></trkpt><trkpt lat="43.917056263127364" lon="12.594910539628417"><ele>126.33333333333334</ele><time>2026-04-03T12:35:05.999Z</time></trkpt><trkpt lat="43.917068086464866" lon="12.594657862334484"><ele>125.66666666666666</ele><time>2026-04-03T12:35:06.999Z</time></trkpt><trkpt lat="43.9170789062928" lon="12.594405622761803"><ele>125.0</ele><time>2026-04-03T12:35:07.999Z</time></trkpt><trkpt lat="43.91708894547893" lon="12.594163763265904"><ele>124.33333333333333</ele><time>2026-04-03T12:35:08.999Z</time></trkpt><trkpt lat="43.917102658483586" lon="12.593917461655177"><ele>123.66666666666666</ele><time>2026-04-03T12:35:09.999Z</time></trkpt><trkpt lat="43.91712670117781" lon="12.593671611741938"><ele>123.0</ele><time>2026-04-03T12:35:10.999Z</time></trkpt><trkpt lat="43.917168916718765" lon="12.593427620614793"><ele>123.0</ele><time>2026-04-03T12:35:11.999Z</time></trkpt><trkpt lat="43.91722426014477" lon="12.593189477103481"><ele>123.0</ele><time>2026-04-03T12:35:12.999Z</time></trkpt><trkpt lat="43.91729248152903" lon="12.592953244757837"><ele>123.0</ele><time>2026-04-03T12:35:13.999Z</time></trkpt><trkpt lat="43.91736003674736" lon="12.592714266617458"><ele>123.33333333333334</ele><time>2026-04-03T12:35:14.999Z</time></trkpt><trkpt lat="43.917425267471806" lon="12.592472136375557"><ele>123.66666666666667</ele><time>2026-04-03T12:35:15.999Z</time></trkpt><trkpt lat="43.91749180479439" lon="12.592229213580804"><ele>124.0</ele><time>2026-04-03T12:35:16.999Z</time></trkpt><trkpt lat="43.91755999783195" lon="12.591985830554634"><ele>125.33333333333334</ele><time>2026-04-03T12:35:17.999Z</time></trkpt><trkpt lat="43.91762428044338" lon="12.591753042321791"><ele>126.66666666666666</ele><time>2026-04-03T12:35:18.998Z</time></trkpt><trkpt lat="43.917687920309156" lon="12.59152048264589"><ele>128.0</ele><time>2026-04-03T12:35:19.998Z</time></trkpt><trkpt lat="43.91775296885617" lon="12.59128793735294"><ele>127.0</ele><time>2026-04-03T12:35:20.998Z</time></trkpt><trkpt lat="43.91781909663173" lon="12.591056191368432"><ele>126.0</ele><time>2026-04-03T12:35:21.998Z</time></trkpt><trkpt lat="43.91788568037432" lon="12.590822959224226"><ele>125.0</ele><time>2026-04-03T12:35:23Z</time></trkpt><trkpt lat="43.917950068240586" lon="12.590588194653145"><ele>125.0</ele><time>2026-04-03T12:35:24Z</time></trkpt><trkpt lat="43.91800804276778" lon="12.590356039662495"><ele>125.0</ele><time>2026-04-03T12:35:25Z</time></trkpt><trkpt lat="43.918056193243395" lon="12.590119828220978"><ele>125.0</ele><time>2026-04-03T12:35:26Z</time></trkpt><trkpt lat="43.918092602612376" lon="12.589878075221748"><ele>124.66666666666666</ele><time>2026-04-03T12:35:27Z</time></trkpt><trkpt lat="43.91811992044132" lon="12.589629519570515"><ele>124.33333333333334</ele><time>2026-04-03T12:35:28Z</time></trkpt><trkpt lat="43.918149192924446" lon="12.58937296269079"><ele>124.0</ele><time>2026-04-03T12:35:29Z</time></trkpt><trkpt lat="43.91817918471243" lon="12.5891117353265"><ele>124.0</ele><time>2026-04-03T12:35:30Z</time></trkpt><trkpt lat="43.9182172758551" lon="12.588840890430786"><ele>124.0</ele><time>2026-04-03T12:35:31Z</time></trkpt><trkpt lat="43.91826378438146" lon="12.588583080612556"><ele>124.0</ele><time>2026-04-03T12:35:32Z</time></trkpt><trkpt lat="43.918322374747156" lon="12.588328278368275"><ele>123.66666666666667</ele><time>2026-04-03T12:35:33Z</time></trkpt><trkpt lat="43.918398987396124" lon="12.588072830089601"><ele>123.33333333333334</ele><time>2026-04-03T12:35:34Z</time></trkpt><trkpt lat="43.918483721069016" lon="12.587819305587875"><ele>123.0</ele><time>2026-04-03T12:35:35Z</time></trkpt><trkpt lat="43.91857316352701" lon="12.587569594471455"><ele>123.66666666666666</ele><time>2026-04-03T12:35:36Z</time></trkpt><trkpt lat="43.91866440243125" lon="12.58731711057156"><ele>124.33333333333333</ele><time>2026-04-03T12:35:37Z</time></trkpt><trkpt lat="43.91875350073297" lon="12.58706012990116"><ele>125.0</ele><time>2026-04-03T12:35:38Z</time></trkpt><trkpt lat="43.91884018048197" lon="12.586797514191355"><ele>125.0</ele><time>2026-04-03T12:35:39Z</time></trkpt><trkpt lat="43.91892713657566" lon="12.586525353132856"><ele>125.0</ele><time>2026-04-03T12:35:40Z</time></trkpt><trkpt lat="43.919015117867005" lon="12.5862499888216"><ele>125.0</ele><time>2026-04-03T12:35:41Z</time></trkpt><trkpt lat="43.91910398749503" lon="12.585971265624584"><ele>124.33333333333333</ele><time>2026-04-03T12:35:42Z</time></trkpt><trkpt lat="43.91919510474294" lon="12.585691630798646"><ele>123.66666666666666</ele><time>2026-04-03T12:35:43Z</time></trkpt><trkpt lat="43.91928616955544" lon="12.585411639174486"><ele>123.0</ele><time>2026-04-03T12:35:44Z</time></trkpt><trkpt lat="43.919378915878674" lon="12.585130892966468"><ele>125.0</ele><time>2026-04-03T12:35:45Z</time></trkpt><trkpt lat="43.919472665459644" lon="12.584851187318796"><ele>127.0</ele><time>2026-04-03T12:35:46Z</time></trkpt><trkpt lat="43.9195680595083" lon="12.58457051348877"><ele>129.0</ele><time>2026-04-03T12:35:47Z</time></trkpt><trkpt lat="43.9196664491666" lon="12.584290488569508"><ele>129.0</ele><time>2026-04-03T12:35:48Z</time></trkpt><trkpt lat="43.91976946053975" lon="12.584012276164037"><ele>129.0</ele><time>2026-04-03T12:35:49Z</time></trkpt><trkpt lat="43.919870138428934" lon="12.583736384773697"><ele>129.0</ele><time>2026-04-03T12:35:50Z</time></trkpt><trkpt lat="43.91995393968169" lon="12.583456528003612"><ele>128.0</ele><time>2026-04-03T12:35:51Z</time></trkpt><trkpt lat="43.92001199475349" lon="12.583165276682823"><ele>127.0</ele><time>2026-04-03T12:35:52Z</time></trkpt><trkpt lat="43.92004760497174" lon="12.582871447568628"><ele>126.0</ele><time>2026-04-03T12:35:53Z</time></trkpt><trkpt lat="43.920063893655666" lon="12.582569497352313"><ele>126.0</ele><time>2026-04-03T12:35:54Z</time></trkpt><trkpt lat="43.92006552674051" lon="12.582265382967185"><ele>126.0</ele><time>2026-04-03T12:35:55Z</time></trkpt><trkpt lat="43.92005563033675" lon="12.581959880208103"><ele>126.0</ele><time>2026-04-03T12:35:56Z</time></trkpt><trkpt lat="43.92004290071871" lon="12.581654321802297"><ele>126.0</ele><time>2026-04-03T12:35:57Z</time></trkpt><trkpt lat="43.920035569465085" lon="12.581348762133198"><ele>126.0</ele><time>2026-04-03T12:35:58Z</time></trkpt><trkpt lat="43.920029949317964" lon="12.581042117206799"><ele>126.0</ele><time>2026-04-03T12:35:59Z</time></trkpt><trkpt lat="43.92002480076278" lon="12.580736645635655"><ele>126.0</ele><time>2026-04-03T12:36:00Z</time></trkpt><trkpt lat="43.92002505800775" lon="12.580447597599418"><ele>126.0</ele><time>2026-04-03T12:36:01Z</time></trkpt><trkpt lat="43.92002274309542" lon="12.58017837015834"><ele>126.0</ele><time>2026-04-03T12:36:02Z</time></trkpt><trkpt lat="43.920007872363534" lon="12.579924465876706"><ele>126.33333333333334</ele><time>2026-04-03T12:36:03Z</time></trkpt><trkpt lat="43.91996792626543" lon="12.57968043989776"><ele>126.66666666666667</ele><time>2026-04-03T12:36:04Z</time></trkpt><trkpt lat="43.91990732054966" lon="12.579438651962422"><ele>127.0</ele><time>2026-04-03T12:36:05Z</time></trkpt><trkpt lat="43.91983984232657" lon="12.579200898771099"><ele>127.66666666666667</ele><time>2026-04-03T12:36:06Z</time></trkpt><trkpt lat="43.91977567362265" lon="12.57897778036434"><ele>128.33333333333334</ele><time>2026-04-03T12:36:07Z</time></trkpt><trkpt lat="43.9197134098099" lon="12.578776107546313"><ele>129.0</ele><time>2026-04-03T12:36:08Z</time></trkpt><trkpt lat="43.919658043957156" lon="12.578609592690684"><ele>129.6</ele><time>2026-04-03T12:36:09Z</time></trkpt><trkpt lat="43.91960677405038" lon="12.578453213955708"><ele>130.2</ele><time>2026-04-03T12:36:10Z</time></trkpt><trkpt lat="43.91957034032747" lon="12.578310068826267"><ele>130.79999999999998</ele><time>2026-04-03T12:36:11Z</time></trkpt><trkpt lat="43.919544385932625" lon="12.57817204137412"><ele>131.4</ele><time>2026-04-03T12:36:12Z</time></trkpt><trkpt lat="43.91951818428736" lon="12.578035825517059"><ele>132.0</ele><time>2026-04-03T12:36:12.999Z</time></trkpt><trkpt lat="43.91948809757399" lon="12.577901096936815"><ele>132.25</ele><time>2026-04-03T12:36:13.999Z</time></trkpt><trkpt lat="43.91945212959628" lon="12.57775458961966"><ele>132.5</ele><time>2026-04-03T12:36:14.999Z</time></trkpt><trkpt lat="43.919411724018374" lon="12.577594452146117"><ele>132.75</ele><time>2026-04-03T12:36:15.999Z</time></trkpt><trkpt lat="43.91936774396315" lon="12.577424216809012"><ele>133.0</ele><time>2026-04-03T12:36:16.999Z</time></trkpt><trkpt lat="43.9193211360196" lon="12.577242715311275"><ele>133.0</ele><time>2026-04-03T12:36:17.999Z</time></trkpt><trkpt lat="43.919271454764605" lon="12.577051993362844"><ele>133.0</ele><time>2026-04-03T12:36:18.999Z</time></trkpt><trkpt lat="43.919218101738586" lon="12.576853172363007"><ele>133.0</ele><time>2026-04-03T12:36:19.999Z</time></trkpt><trkpt lat="43.919164562910545" lon="12.576661524457617"><ele>133.0</ele><time>2026-04-03T12:36:20.999Z</time></trkpt><trkpt lat="43.91911408769285" lon="12.576477163419417"><ele>132.75</ele><time>2026-04-03T12:36:21.999Z</time></trkpt><trkpt lat="43.919066357606305" lon="12.576288662572237"><ele>132.5</ele><time>2026-04-03T12:36:22.999Z</time></trkpt><trkpt lat="43.91901896983888" lon="12.576100922417172"><ele>132.25</ele><time>2026-04-03T12:36:23.999Z</time></trkpt><trkpt lat="43.91896893120472" lon="12.57591234957876"><ele>132.0</ele><time>2026-04-03T12:36:24.999Z</time></trkpt><trkpt lat="43.918920101032086" lon="12.575722710055544"><ele>132.5</ele><time>2026-04-03T12:36:25.999Z</time></trkpt><trkpt lat="43.918872106306196" lon="12.575528121777555"><ele>133.0</ele><time>2026-04-03T12:36:26.999Z</time></trkpt><trkpt lat="43.918821005853296" lon="12.5753353674173"><ele>133.5</ele><time>2026-04-03T12:36:27.999Z</time></trkpt><trkpt lat="43.918769565761984" lon="12.575142441596748"><ele>134.0</ele><time>2026-04-03T12:36:28.999Z</time></trkpt><trkpt lat="43.91871906214277" lon="12.574952265258588"><ele>134.75</ele><time>2026-04-03T12:36:29.999Z</time></trkpt><trkpt lat="43.91866924852103" lon="12.574761797410979"><ele>135.5</ele><time>2026-04-03T12:36:30.999Z</time></trkpt><trkpt lat="43.91862366654021" lon="12.574583764253054"><ele>136.25</ele><time>2026-04-03T12:36:31.999Z</time></trkpt><trkpt lat="43.91857690516431" lon="12.574404935538412"><ele>137.0</ele><time>2026-04-03T12:36:32.999Z</time></trkpt><trkpt lat="43.918527392987976" lon="12.574219779314634"><ele>137.0</ele><time>2026-04-03T12:36:33.999Z</time></trkpt><trkpt lat="43.91847780831154" lon="12.574032214450632"><ele>137.0</ele><time>2026-04-03T12:36:34.999Z</time></trkpt><trkpt lat="43.918427559272395" lon="12.573839107279172"><ele>137.0</ele><time>2026-04-03T12:36:35.999Z</time></trkpt><trkpt lat="43.91837722628064" lon="12.573640966945607"><ele>137.0</ele><time>2026-04-03T12:36:36.999Z</time></trkpt><trkpt lat="43.91832549181624" lon="12.573441537027431"><ele>137.0</ele><time>2026-04-03T12:36:37.999Z</time></trkpt><trkpt lat="43.91827363011575" lon="12.573238521095085"><ele>137.0</ele><time>2026-04-03T12:36:38.999Z</time></trkpt><trkpt lat="43.9182218502587" lon="12.573036135641086"><ele>137.0</ele><time>2026-04-03T12:36:39.999Z</time></trkpt><trkpt lat="43.918168583204796" lon="12.572830081355155"><ele>137.66666666666666</ele><time>2026-04-03T12:36:40.999Z</time></trkpt><trkpt lat="43.9181167799003" lon="12.572628752971474"><ele>138.33333333333334</ele><time>2026-04-03T12:36:41.999Z</time></trkpt><trkpt lat="43.91806592057275" lon="12.57243019339806"><ele>139.0</ele><time>2026-04-03T12:36:42.999Z</time></trkpt><trkpt lat="43.91801461647546" lon="12.572231648067888"><ele>139.0</ele><time>2026-04-03T12:36:43.999Z</time></trkpt><trkpt lat="43.91796200312864" lon="12.572028408141463"><ele>139.0</ele><time>2026-04-03T12:36:44.999Z</time></trkpt><trkpt lat="43.91791128425822" lon="12.57183412616854"><ele>139.0</ele><time>2026-04-03T12:36:45.999Z</time></trkpt><trkpt lat="43.917858952449684" lon="12.571642045938946"><ele>139.75</ele><time>2026-04-03T12:36:46.999Z</time></trkpt><trkpt lat="43.917808737197944" lon="12.571447779689242"><ele>140.5</ele><time>2026-04-03T12:36:47.999Z</time></trkpt><trkpt lat="43.917761039684436" lon="12.571253970011984"><ele>141.25</ele><time>2026-04-03T12:36:48.999Z</time></trkpt><trkpt lat="43.91771852143598" lon="12.571052373489387"><ele>142.0</ele><time>2026-04-03T12:36:49.999Z</time></trkpt><trkpt lat="43.91769121647703" lon="12.570843840892193"><ele>142.33333333333334</ele><time>2026-04-03T12:36:50.999Z</time></trkpt><trkpt lat="43.917683193865926" lon="12.570631862478088"><ele>142.66666666666666</ele><time>2026-04-03T12:36:51.999Z</time></trkpt><trkpt lat="43.917686706698326" lon="12.570420864238871"><ele>143.0</ele><time>2026-04-03T12:36:52.999Z</time></trkpt><trkpt lat="43.91769326293549" lon="12.5702086403883"><ele>143.0</ele><time>2026-04-03T12:36:53.999Z</time></trkpt><trkpt lat="43.917696260693795" lon="12.57000098585545"><ele>143.0</ele><time>2026-04-03T12:36:54.999Z</time></trkpt><trkpt lat="43.9177009821922" lon="12.569797055055991"><ele>143.0</ele><time>2026-04-03T12:36:55.999Z</time></trkpt><trkpt lat="43.91770686807451" lon="12.569597475306187"><ele>143.0</ele><time>2026-04-03T12:36:56.999Z</time></trkpt><trkpt lat="43.91771372276208" lon="12.569400771899"><ele>143.0</ele><time>2026-04-03T12:36:57.999Z</time></trkpt><trkpt lat="43.917718224915696" lon="12.569203582042839"><ele>143.0</ele><time>2026-04-03T12:36:58.999Z</time></trkpt><trkpt lat="43.91772110677219" lon="12.569008510535312"><ele>143.0</ele><time>2026-04-03T12:36:59.999Z</time></trkpt><trkpt lat="43.917727048329965" lon="12.568814396136704"><ele>143.0</ele><time>2026-04-03T12:37:00.999Z</time></trkpt><trkpt lat="43.91773341010888" lon="12.568620435148139"><ele>143.0</ele><time>2026-04-03T12:37:01.999Z</time></trkpt><trkpt lat="43.91773728422359" lon="12.568429455012247"><ele>143.0</ele><time>2026-04-03T12:37:02.999Z</time></trkpt><trkpt lat="43.917738240819666" lon="12.568236432534535"><ele>143.0</ele><time>2026-04-03T12:37:03.999Z</time></trkpt><trkpt lat="43.91773947811693" lon="12.568036662716358"><ele>143.0</ele><time>2026-04-03T12:37:04.999Z</time></trkpt><trkpt lat="43.91773995523104" lon="12.567833073611247"><ele>143.25</ele><time>2026-04-03T12:37:05.999Z</time></trkpt><trkpt lat="43.917730868322316" lon="12.567627517079202"><ele>143.5</ele><time>2026-04-03T12:37:06.999Z</time></trkpt><trkpt lat="43.91769427751276" lon="12.567425694129273"><ele>143.75</ele><time>2026-04-03T12:37:07.999Z</time></trkpt><trkpt lat="43.91761882277923" lon="12.567245573709656"><ele>144.0</ele><time>2026-04-03T12:37:08.999Z</time></trkpt><trkpt lat="43.91751139691619" lon="12.567094626895532"><ele>144.0</ele><time>2026-04-03T12:37:09.999Z</time></trkpt><trkpt lat="43.91738816653495" lon="12.566953975169131"><ele>144.0</ele><time>2026-04-03T12:37:10.999Z</time></trkpt><trkpt lat="43.91725916800376" lon="12.566816118169534"><ele>144.0</ele><time>2026-04-03T12:37:11.999Z</time></trkpt><trkpt lat="43.91712639027434" lon="12.56668719649854"><ele>144.0</ele><time>2026-04-03T12:37:12.999Z</time></trkpt><trkpt lat="43.91698811379086" lon="12.566566651814805"><ele>144.0</ele><time>2026-04-03T12:37:13.999Z</time></trkpt><trkpt lat="43.916855675339214" lon="12.566452117913181"><ele>144.0</ele><time>2026-04-03T12:37:14.999Z</time></trkpt><trkpt lat="43.91673437736644" lon="12.566343114478288"><ele>143.5</ele><time>2026-04-03T12:37:15.999Z</time></trkpt><trkpt lat="43.91662128295476" lon="12.566236766204506"><ele>143.0</ele><time>2026-04-03T12:37:16.999Z</time></trkpt><trkpt lat="43.916511791593436" lon="12.56612584655195"><ele>142.5</ele><time>2026-04-03T12:37:17.999Z</time></trkpt><trkpt lat="43.91640112286361" lon="12.56601408786645"><ele>142.0</ele><time>2026-04-03T12:37:18.999Z</time></trkpt><trkpt lat="43.91629049128703" lon="12.565903505862671"><ele>142.0</ele><time>2026-04-03T12:37:19.999Z</time></trkpt><trkpt lat="43.91618124200977" lon="12.565791656142519"><ele>142.0</ele><time>2026-04-03T12:37:20.999Z</time></trkpt><trkpt lat="43.916073006336745" lon="12.565674112107082"><ele>142.0</ele><time>2026-04-03T12:37:21.999Z</time></trkpt><trkpt lat="43.9159672457673" lon="12.56555864051022"><ele>142.0</ele><time>2026-04-03T12:37:22.999Z</time></trkpt><trkpt lat="43.91587276193619" lon="12.565446533890334"><ele>143.2</ele><time>2026-04-03T12:37:23.999Z</time></trkpt><trkpt lat="43.91578800309919" lon="12.5653419781024"><ele>144.39999999999998</ele><time>2026-04-03T12:37:24.999Z</time></trkpt><trkpt lat="43.915712914539306" lon="12.565238560431668"><ele>145.60000000000002</ele><time>2026-04-03T12:37:25.999Z</time></trkpt><trkpt lat="43.91566224036662" lon="12.565123964945306"><ele>146.8</ele><time>2026-04-03T12:37:26.999Z</time></trkpt><trkpt lat="43.91563361956594" lon="12.56500759567351"><ele>148.0</ele><time>2026-04-03T12:37:27.999Z</time></trkpt><trkpt lat="43.91562052289206" lon="12.56489377209495"><ele>148.0</ele><time>2026-04-03T12:37:29Z</time></trkpt><trkpt lat="43.91561783397745" lon="12.564765271757102"><ele>148.0</ele><time>2026-04-03T12:37:30Z</time></trkpt><trkpt lat="43.91562402245433" lon="12.564625340821545"><ele>148.0</ele><time>2026-04-03T12:37:31Z</time></trkpt><trkpt lat="43.91563550090647" lon="12.564476958643713"><ele>148.0</ele><time>2026-04-03T12:37:32Z</time></trkpt><trkpt lat="43.91564888522793" lon="12.564322806391818"><ele>148.0</ele><time>2026-04-03T12:37:33Z</time></trkpt><trkpt lat="43.91566142143643" lon="12.564161101245757"><ele>149.25</ele><time>2026-04-03T12:37:34Z</time></trkpt><trkpt lat="43.91567630744549" lon="12.563989008783784"><ele>150.5</ele><time>2026-04-03T12:37:35Z</time></trkpt><trkpt lat="43.91568943916515" lon="12.563811410340472"><ele>151.75</ele><time>2026-04-03T12:37:36Z</time></trkpt><trkpt lat="43.915690753523556" lon="12.563634035486798"><ele>153.0</ele><time>2026-04-03T12:37:37Z</time></trkpt><trkpt lat="43.91567243352214" lon="12.563464851147405"><ele>154.75</ele><time>2026-04-03T12:37:38Z</time></trkpt><trkpt lat="43.915626814634365" lon="12.56330080963753"><ele>156.5</ele><time>2026-04-03T12:37:39Z</time></trkpt><trkpt lat="43.915558997270814" lon="12.563159245887624"><ele>158.25</ele><time>2026-04-03T12:37:40Z</time></trkpt><trkpt lat="43.91547659203863" lon="12.563042480134495"><ele>160.0</ele><time>2026-04-03T12:37:41Z</time></trkpt><trkpt lat="43.915386686602126" lon="12.562971507499716"><ele>160.0</ele><time>2026-04-03T12:37:42Z</time></trkpt><trkpt lat="43.91528843467149" lon="12.56291755450365"><ele>160.0</ele><time>2026-04-03T12:37:43Z</time></trkpt><trkpt lat="43.91518061311714" lon="12.562879761729326"><ele>160.0</ele><time>2026-04-03T12:37:44Z</time></trkpt><trkpt lat="43.91507337159731" lon="12.562819272388932"><ele>160.0</ele><time>2026-04-03T12:37:45Z</time></trkpt><trkpt lat="43.91496298415787" lon="12.562775733486243"><ele>160.0</ele><time>2026-04-03T12:37:46Z</time></trkpt><trkpt lat="43.914858756316306" lon="12.562748978428283"><ele>159.8</ele><time>2026-04-03T12:37:47Z</time></trkpt><trkpt lat="43.91477382277551" lon="12.56268530682459"><ele>159.6</ele><time>2026-04-03T12:37:48Z</time></trkpt><trkpt lat="43.9146925149087" lon="12.56260870978668"><ele>159.4</ele><time>2026-04-03T12:37:49Z</time></trkpt><trkpt lat="43.914619747302226" lon="12.56251926839276"><ele>159.2</ele><time>2026-04-03T12:37:50Z</time></trkpt><trkpt lat="43.91455148127527" lon="12.562417973042582"><ele>159.0</ele><time>2026-04-03T12:37:51Z</time></trkpt><trkpt lat="43.91448206096369" lon="12.56229039952102"><ele>159.0</ele><time>2026-04-03T12:37:52Z</time></trkpt><trkpt lat="43.914397904396616" lon="12.562137428407212"><ele>159.0</ele><time>2026-04-03T12:37:53Z</time></trkpt><trkpt lat="43.91430875586623" lon="12.561952005609639"><ele>159.0</ele><time>2026-04-03T12:37:54Z</time></trkpt><trkpt lat="43.91422338161946" lon="12.561775559801102"><ele>159.25</ele><time>2026-04-03T12:37:55Z</time></trkpt><trkpt lat="43.914143781197296" lon="12.561611040630034"><ele>159.5</ele><time>2026-04-03T12:37:56Z</time></trkpt><trkpt lat="43.91406236181211" lon="12.56145126875138"><ele>159.75</ele><time>2026-04-03T12:37:57Z</time></trkpt><trkpt lat="43.91398355177128" lon="12.5612970182054"><ele>160.0</ele><time>2026-04-03T12:37:58Z</time></trkpt><trkpt lat="43.913906112900946" lon="12.561145954410192"><ele>160.25</ele><time>2026-04-03T12:37:59Z</time></trkpt><trkpt lat="43.913831944699204" lon="12.561004549794271"><ele>160.5</ele><time>2026-04-03T12:38:00Z</time></trkpt><trkpt lat="43.913759484382695" lon="12.56087117215108"><ele>160.75</ele><time>2026-04-03T12:38:01Z</time></trkpt><trkpt lat="43.91368761060863" lon="12.560739566734732"><ele>161.0</ele><time>2026-04-03T12:38:02Z</time></trkpt><trkpt lat="43.913612829056106" lon="12.560603450202267"><ele>161.0</ele><time>2026-04-03T12:38:03Z</time></trkpt><trkpt lat="43.91354007053449" lon="12.560463540835002"><ele>161.0</ele><time>2026-04-03T12:38:04Z</time></trkpt><trkpt lat="43.913469475324256" lon="12.56032290387197"><ele>161.0</ele><time>2026-04-03T12:38:05Z</time></trkpt><trkpt lat="43.913400724268946" lon="12.560187672288837"><ele>161.0</ele><time>2026-04-03T12:38:06Z</time></trkpt><trkpt lat="43.91333066035355" lon="12.560056169752547"><ele>161.75</ele><time>2026-04-03T12:38:07Z</time></trkpt><trkpt lat="43.91326298256964" lon="12.559924498675565"><ele>162.5</ele><time>2026-04-03T12:38:08Z</time></trkpt><trkpt lat="43.913194543240635" lon="12.559791157055034"><ele>163.25</ele><time>2026-04-03T12:38:09Z</time></trkpt><trkpt lat="43.913124842565225" lon="12.559656649524566"><ele>164.0</ele><time>2026-04-03T12:38:10Z</time></trkpt><trkpt lat="43.91305209473637" lon="12.559514168711017"><ele>164.75</ele><time>2026-04-03T12:38:11Z</time></trkpt><trkpt lat="43.91297470381732" lon="12.559366266409826"><ele>165.5</ele><time>2026-04-03T12:38:12Z</time></trkpt><trkpt lat="43.912897918547486" lon="12.559215977254627"><ele>166.25</ele><time>2026-04-03T12:38:13Z</time></trkpt><trkpt lat="43.91282064881968" lon="12.559064064746533"><ele>167.0</ele><time>2026-04-03T12:38:14Z</time></trkpt><trkpt lat="43.912742397318766" lon="12.558910624551414"><ele>167.0</ele><time>2026-04-03T12:38:15Z</time></trkpt><trkpt lat="43.91266465592162" lon="12.55875683540583"><ele>167.0</ele><time>2026-04-03T12:38:16Z</time></trkpt><trkpt lat="43.91258986641429" lon="12.558609607598907"><ele>167.0</ele><time>2026-04-03T12:38:17Z</time></trkpt><trkpt lat="43.91251714216884" lon="12.55846627570439"><ele>167.0</ele><time>2026-04-03T12:38:18Z</time></trkpt><trkpt lat="43.91244374776753" lon="12.558327264757754"><ele>167.0</ele><time>2026-04-03T12:38:19Z</time></trkpt><trkpt lat="43.912374662302355" lon="12.558189648575752"><ele>167.0</ele><time>2026-04-03T12:38:19.999Z</time></trkpt><trkpt lat="43.9123082191664" lon="12.558056094625986"><ele>167.0</ele><time>2026-04-03T12:38:20.999Z</time></trkpt><trkpt lat="43.9122415884212" lon="12.557927692324903"><ele>167.0</ele><time>2026-04-03T12:38:21.999Z</time></trkpt><trkpt lat="43.91217356529223" lon="12.557797335541883"><ele>167.0</ele><time>2026-04-03T12:38:22.999Z</time></trkpt><trkpt lat="43.91210142026574" lon="12.557670605736947"><ele>167.0</ele><time>2026-04-03T12:38:23.999Z</time></trkpt><trkpt lat="43.91202671594526" lon="12.557553612220781"><ele>167.0</ele><time>2026-04-03T12:38:24.999Z</time></trkpt><trkpt lat="43.911954281298044" lon="12.557442255883414"><ele>167.0</ele><time>2026-04-03T12:38:25.999Z</time></trkpt><trkpt lat="43.91188299387553" lon="12.5573308312954"><ele>167.0</ele><time>2026-04-03T12:38:26.999Z</time></trkpt><trkpt lat="43.91181107038069" lon="12.557225013360549"><ele>167.0</ele><time>2026-04-03T12:38:27.999Z</time></trkpt><trkpt lat="43.91174205811631" lon="12.557118142336572"><ele>167.0</ele><time>2026-04-03T12:38:28.999Z</time></trkpt><trkpt lat="43.91167730671287" lon="12.557007279703946"><ele>167.0</ele><time>2026-04-03T12:38:29.999Z</time></trkpt><trkpt lat="43.911617822500126" lon="12.55689851271599"><ele>167.0</ele><time>2026-04-03T12:38:30.999Z</time></trkpt><trkpt lat="43.911563973579135" lon="12.556792793520657"><ele>167.0</ele><time>2026-04-03T12:38:31.999Z</time></trkpt><trkpt lat="43.911518026503884" lon="12.556682028492752"><ele>167.39999999999998</ele><time>2026-04-03T12:38:32.999Z</time></trkpt><trkpt lat="43.91148026147451" lon="12.5565630450005"><ele>167.79999999999998</ele><time>2026-04-03T12:38:33.999Z</time></trkpt><trkpt lat="43.911444928467375" lon="12.556443385407173"><ele>168.2</ele><time>2026-04-03T12:38:34.999Z</time></trkpt><trkpt lat="43.9114103489596" lon="12.556315243558284"><ele>168.6</ele><time>2026-04-03T12:38:35.999Z</time></trkpt><trkpt lat="43.911376104646386" lon="12.556182229395166"><ele>169.0</ele><time>2026-04-03T12:38:36.999Z</time></trkpt><trkpt lat="43.911336512030445" lon="12.556047239909224"><ele>169.6</ele><time>2026-04-03T12:38:37.999Z</time></trkpt><trkpt lat="43.911283238722625" lon="12.555911974849652"><ele>170.2</ele><time>2026-04-03T12:38:38.999Z</time></trkpt><trkpt lat="43.91122068320789" lon="12.555793154449274"><ele>170.79999999999998</ele><time>2026-04-03T12:38:39.999Z</time></trkpt><trkpt lat="43.91114915678001" lon="12.55569485474777"><ele>171.39999999999998</ele><time>2026-04-03T12:38:40.999Z</time></trkpt><trkpt lat="43.91106748449743" lon="12.555605831818518"><ele>172.0</ele><time>2026-04-03T12:38:41.999Z</time></trkpt><trkpt lat="43.910983815672296" lon="12.555522496179345"><ele>171.8</ele><time>2026-04-03T12:38:42.999Z</time></trkpt><trkpt lat="43.910901944744204" lon="12.555439611531812"><ele>171.6</ele><time>2026-04-03T12:38:43.999Z</time></trkpt><trkpt lat="43.91081853992861" lon="12.555351369414868"><ele>171.4</ele><time>2026-04-03T12:38:44.999Z</time></trkpt><trkpt lat="43.9107325706263" lon="12.555258995365106"><ele>171.20000000000002</ele><time>2026-04-03T12:38:45.999Z</time></trkpt><trkpt lat="43.91064947311366" lon="12.555160585213862"><ele>171.0</ele><time>2026-04-03T12:38:46.999Z</time></trkpt><trkpt lat="43.91057000695054" lon="12.555054080709715"><ele>172.0</ele><time>2026-04-03T12:38:47.999Z</time></trkpt><trkpt lat="43.91049649335326" lon="12.554936573246543"><ele>173.0</ele><time>2026-04-03T12:38:48.999Z</time></trkpt><trkpt lat="43.91043092735801" lon="12.554805451221242"><ele>174.0</ele><time>2026-04-03T12:38:49.999Z</time></trkpt><trkpt lat="43.910372124551586" lon="12.554658779347244"><ele>175.0</ele><time>2026-04-03T12:38:50.999Z</time></trkpt><trkpt lat="43.91031134845605" lon="12.554489581939364"><ele>176.33333333333334</ele><time>2026-04-03T12:38:51.999Z</time></trkpt><trkpt lat="43.91024035151585" lon="12.554298143706966"><ele>177.66666666666666</ele><time>2026-04-03T12:38:52.999Z</time></trkpt><trkpt lat="43.91017029464543" lon="12.554080601662726"><ele>179.0</ele><time>2026-04-03T12:38:53.999Z</time></trkpt><trkpt lat="43.910103560260026" lon="12.553846890613496"><ele>177.0</ele><time>2026-04-03T12:38:54.999Z</time></trkpt><trkpt lat="43.91003496206937" lon="12.553615159798898"><ele>175.0</ele><time>2026-04-03T12:38:55.999Z</time></trkpt><trkpt lat="43.90996191678478" lon="12.553377186916402"><ele>173.0</ele><time>2026-04-03T12:38:56.999Z</time></trkpt><trkpt lat="43.90988923594328" lon="12.553139283562071"><ele>173.0</ele><time>2026-04-03T12:38:57.999Z</time></trkpt><trkpt lat="43.90981913788224" lon="12.552915929333402"><ele>173.0</ele><time>2026-04-03T12:38:58.999Z</time></trkpt><trkpt lat="43.90974882588467" lon="12.552691833985111"><ele>173.0</ele><time>2026-04-03T12:38:59.999Z</time></trkpt><trkpt lat="43.909678270640654" lon="12.552468267593422"><ele>173.66666666666666</ele><time>2026-04-03T12:39:00.999Z</time></trkpt><trkpt lat="43.90960638954937" lon="12.552246494978403"><ele>174.33333333333334</ele><time>2026-04-03T12:39:01.999Z</time></trkpt><trkpt lat="43.90953380459986" lon="12.55202611143211"><ele>175.0</ele><time>2026-04-03T12:39:02.999Z</time></trkpt><trkpt lat="43.90946296463102" lon="12.551809623387435"><ele>176.0</ele><time>2026-04-03T12:39:03.999Z</time></trkpt><trkpt lat="43.9093952700399" lon="12.551600859924573"><ele>177.0</ele><time>2026-04-03T12:39:04.999Z</time></trkpt><trkpt lat="43.909328883031776" lon="12.551395518912358"><ele>178.0</ele><time>2026-04-03T12:39:05.999Z</time></trkpt><trkpt lat="43.909263383876564" lon="12.551189843148345"><ele>176.33333333333334</ele><time>2026-04-03T12:39:06.999Z</time></trkpt><trkpt lat="43.90919936931527" lon="12.550986382345004"><ele>174.66666666666666</ele><time>2026-04-03T12:39:07.999Z</time></trkpt><trkpt lat="43.909135810031955" lon="12.550780691653665"><ele>173.0</ele><time>2026-04-03T12:39:08.999Z</time></trkpt><trkpt lat="43.90906821451634" lon="12.5505712713769"><ele>174.0</ele><time>2026-04-03T12:39:09.999Z</time></trkpt><trkpt lat="43.90899954052074" lon="12.550362504542367"><ele>175.0</ele><time>2026-04-03T12:39:10.999Z</time></trkpt><trkpt lat="43.90892557735734" lon="12.550152277227449"><ele>176.0</ele><time>2026-04-03T12:39:11.999Z</time></trkpt><trkpt lat="43.90883867635275" lon="12.549948408953233"><ele>176.0</ele><time>2026-04-03T12:39:12.999Z</time></trkpt><trkpt lat="43.90873470433706" lon="12.549753079757608"><ele>176.0</ele><time>2026-04-03T12:39:13.999Z</time></trkpt><trkpt lat="43.908618212010076" lon="12.549570833964557"><ele>176.0</ele><time>2026-04-03T12:39:14.999Z</time></trkpt><trkpt lat="43.90849572355677" lon="12.549393259156052"><ele>175.0</ele><time>2026-04-03T12:39:15.999Z</time></trkpt><trkpt lat="43.90837467931687" lon="12.549209358706245"><ele>174.0</ele><time>2026-04-03T12:39:16.999Z</time></trkpt><trkpt lat="43.9082527610713" lon="12.549021384360772"><ele>173.0</ele><time>2026-04-03T12:39:17.999Z</time></trkpt><trkpt lat="43.908129748219125" lon="12.548835348976972"><ele>174.66666666666666</ele><time>2026-04-03T12:39:18.999Z</time></trkpt><trkpt lat="43.90800521979912" lon="12.548650652434235"><ele>176.33333333333334</ele><time>2026-04-03T12:39:19.999Z</time></trkpt><trkpt lat="43.90788287748778" lon="12.54846331813113"><ele>178.0</ele><time>2026-04-03T12:39:20.999Z</time></trkpt><trkpt lat="43.907771752662406" lon="12.548265195686993"><ele>178.0</ele><time>2026-04-03T12:39:21.999Z</time></trkpt><trkpt lat="43.907678624321825" lon="12.548055184348375"><ele>178.0</ele><time>2026-04-03T12:39:22.999Z</time></trkpt><trkpt lat="43.90761567274358" lon="12.547829536836046"><ele>178.0</ele><time>2026-04-03T12:39:23.999Z</time></trkpt><trkpt lat="43.90756262289279" lon="12.547596483690825"><ele>177.33333333333334</ele><time>2026-04-03T12:39:24.999Z</time></trkpt><trkpt lat="43.907516486530646" lon="12.54736212036009"><ele>176.66666666666666</ele><time>2026-04-03T12:39:25.999Z</time></trkpt><trkpt lat="43.90747546101653" lon="12.54712192102151"><ele>176.0</ele><time>2026-04-03T12:39:26.999Z</time></trkpt><trkpt lat="43.90743143611554" lon="12.546878217504739"><ele>176.0</ele><time>2026-04-03T12:39:27.999Z</time></trkpt><trkpt lat="43.90738695377671" lon="12.546634752342856"><ele>176.0</ele><time>2026-04-03T12:39:28.999Z</time></trkpt><trkpt lat="43.907343041185825" lon="12.546389221543862"><ele>176.0</ele><time>2026-04-03T12:39:29.999Z</time></trkpt><trkpt lat="43.90729740170063" lon="12.546143106000029"><ele>176.66666666666666</ele><time>2026-04-03T12:39:30.999Z</time></trkpt><trkpt lat="43.90725266268407" lon="12.545894649719246"><ele>177.33333333333334</ele><time>2026-04-03T12:39:31.999Z</time></trkpt><trkpt lat="43.907208145827234" lon="12.545656741138762"><ele>178.0</ele><time>2026-04-03T12:39:32.999Z</time></trkpt><trkpt lat="43.907164330977004" lon="12.54542447466377"><ele>179.33333333333334</ele><time>2026-04-03T12:39:33.999Z</time></trkpt><trkpt lat="43.90712058816116" lon="12.545191415399154"><ele>180.66666666666666</ele><time>2026-04-03T12:39:35Z</time></trkpt><trkpt lat="43.90707400164288" lon="12.544958456454475"><ele>182.0</ele><time>2026-04-03T12:39:36Z</time></trkpt><trkpt lat="43.907025785711" lon="12.544724327907716"><ele>182.66666666666666</ele><time>2026-04-03T12:39:37Z</time></trkpt><trkpt lat="43.906975266383284" lon="12.544487294170782"><ele>183.33333333333334</ele><time>2026-04-03T12:39:38Z</time></trkpt><trkpt lat="43.90692078805279" lon="12.5442496058186"><ele>184.0</ele><time>2026-04-03T12:39:39Z</time></trkpt><trkpt lat="43.90685484187658" lon="12.544012702482483"><ele>184.0</ele><time>2026-04-03T12:39:40Z</time></trkpt><trkpt lat="43.90677647335162" lon="12.543781579975102"><ele>184.0</ele><time>2026-04-03T12:39:41Z</time></trkpt><trkpt lat="43.90668831920675" lon="12.543554392961953"><ele>184.0</ele><time>2026-04-03T12:39:42Z</time></trkpt><trkpt lat="43.90659288676883" lon="12.543325492741898"><ele>183.33333333333334</ele><time>2026-04-03T12:39:43Z</time></trkpt><trkpt lat="43.90649488395132" lon="12.543087716460086"><ele>182.66666666666666</ele><time>2026-04-03T12:39:44Z</time></trkpt><trkpt lat="43.90639494264115" lon="12.542838872800553"><ele>182.0</ele><time>2026-04-03T12:39:45Z</time></trkpt><trkpt lat="43.90629555927078" lon="12.54258522538808"><ele>183.33333333333331</ele><time>2026-04-03T12:39:46Z</time></trkpt><trkpt lat="43.906196374682885" lon="12.542325888195752"><ele>184.66666666666666</ele><time>2026-04-03T12:39:47Z</time></trkpt><trkpt lat="43.90609491535456" lon="12.542063004264941"><ele>186.0</ele><time>2026-04-03T12:39:48Z</time></trkpt><trkpt lat="43.90598948649864" lon="12.541798912073617"><ele>187.0</ele><time>2026-04-03T12:39:49Z</time></trkpt><trkpt lat="43.9058844642424" lon="12.541535113541789"><ele>188.0</ele><time>2026-04-03T12:39:50Z</time></trkpt><trkpt lat="43.90578241006103" lon="12.541270366380372"><ele>189.0</ele><time>2026-04-03T12:39:51Z</time></trkpt><trkpt lat="43.90568042252354" lon="12.541004837245694"><ele>189.33333333333334</ele><time>2026-04-03T12:39:52Z</time></trkpt><trkpt lat="43.90557496016417" lon="12.540741973147817"><ele>189.66666666666669</ele><time>2026-04-03T12:39:53Z</time></trkpt><trkpt lat="43.9054677870073" lon="12.540481146549235"><ele>190.0</ele><time>2026-04-03T12:39:54Z</time></trkpt><trkpt lat="43.90535911924676" lon="12.540223791054872"><ele>190.33333333333334</ele><time>2026-04-03T12:39:55Z</time></trkpt><trkpt lat="43.90524705099605" lon="12.539968973206044"><ele>190.66666666666666</ele><time>2026-04-03T12:39:56Z</time></trkpt><trkpt lat="43.90513391401518" lon="12.539715531341901"><ele>191.0</ele><time>2026-04-03T12:39:57Z</time></trkpt><trkpt lat="43.90501683793613" lon="12.539466222771196"><ele>190.0</ele><time>2026-04-03T12:39:58Z</time></trkpt><trkpt lat="43.904887593045444" lon="12.539225504243095"><ele>189.0</ele><time>2026-04-03T12:39:59Z</time></trkpt><trkpt lat="43.90474871878288" lon="12.538993829669993"><ele>188.0</ele><time>2026-04-03T12:40:00Z</time></trkpt><trkpt lat="43.90460533396865" lon="12.538770030248541"><ele>189.0</ele><time>2026-04-03T12:40:01Z</time></trkpt><trkpt lat="43.904452641484006" lon="12.53855347092873"><ele>190.0</ele><time>2026-04-03T12:40:02Z</time></trkpt><trkpt lat="43.904292207373985" lon="12.538344643478899"><ele>191.0</ele><time>2026-04-03T12:40:03Z</time></trkpt><trkpt lat="43.904131114758954" lon="12.538143053171149"><ele>191.66666666666666</ele><time>2026-04-03T12:40:04Z</time></trkpt><trkpt lat="43.90396756512508" lon="12.537937400210597"><ele>192.33333333333331</ele><time>2026-04-03T12:40:05Z</time></trkpt><trkpt lat="43.90379971213984" lon="12.537732334505812"><ele>193.0</ele><time>2026-04-03T12:40:06Z</time></trkpt><trkpt lat="43.903629158104444" lon="12.537529948168217"><ele>193.5</ele><time>2026-04-03T12:40:07Z</time></trkpt><trkpt lat="43.903460771367584" lon="12.53732273599389"><ele>194.0</ele><time>2026-04-03T12:40:08Z</time></trkpt><trkpt lat="43.90330216606366" lon="12.53709735908486"><ele>194.5</ele><time>2026-04-03T12:40:09Z</time></trkpt><trkpt lat="43.903143706339186" lon="12.536872786580576"><ele>195.0</ele><time>2026-04-03T12:40:10Z</time></trkpt><trkpt lat="43.90297840695256" lon="12.536662004373127"><ele>195.0</ele><time>2026-04-03T12:40:11Z</time></trkpt><trkpt lat="43.90281167408071" lon="12.536454195113143"><ele>195.0</ele><time>2026-04-03T12:40:12Z</time></trkpt><trkpt lat="43.902645319961515" lon="12.536248237687978"><ele>195.0</ele><time>2026-04-03T12:40:13Z</time></trkpt><trkpt lat="43.90247883814129" lon="12.536045766296583"><ele>196.33333333333331</ele><time>2026-04-03T12:40:14Z</time></trkpt><trkpt lat="43.90232258740854" lon="12.535848454267263"><ele>197.66666666666666</ele><time>2026-04-03T12:40:15Z</time></trkpt><trkpt lat="43.9021782195988" lon="12.535662277027644"><ele>199.0</ele><time>2026-04-03T12:40:16Z</time></trkpt><trkpt lat="43.90204277251781" lon="12.535489939793141"><ele>200.0</ele><time>2026-04-03T12:40:17Z</time></trkpt><trkpt lat="43.90191681639223" lon="12.535330315645265"><ele>201.0</ele><time>2026-04-03T12:40:18Z</time></trkpt><trkpt lat="43.90179512811064" lon="12.535174111181416"><ele>202.0</ele><time>2026-04-03T12:40:19Z</time></trkpt><trkpt lat="43.901668044533984" lon="12.535014922455407"><ele>202.0</ele><time>2026-04-03T12:40:20Z</time></trkpt><trkpt lat="43.90153736829907" lon="12.534863123177303"><ele>202.0</ele><time>2026-04-03T12:40:21Z</time></trkpt><trkpt lat="43.90139933489152" lon="12.534718714577407"><ele>202.0</ele><time>2026-04-03T12:40:22Z</time></trkpt><trkpt lat="43.90125568164149" lon="12.534580760860122"><ele>201.66666666666666</ele><time>2026-04-03T12:40:22.999Z</time></trkpt><trkpt lat="43.901104214483794" lon="12.5344526831798"><ele>201.33333333333331</ele><time>2026-04-03T12:40:23.999Z</time></trkpt><trkpt lat="43.90094585651778" lon="12.534338047969161"><ele>201.0</ele><time>2026-04-03T12:40:24.999Z</time></trkpt><trkpt lat="43.900778821081815" lon="12.534240901457105"><ele>201.0</ele><time>2026-04-03T12:40:25.999Z</time></trkpt><trkpt lat="43.900606073978444" lon="12.53415886948208"><ele>201.0</ele><time>2026-04-03T12:40:26.999Z</time></trkpt><trkpt lat="43.900429914344386" lon="12.534091293058498"><ele>201.0</ele><time>2026-04-03T12:40:27.999Z</time></trkpt><trkpt lat="43.90025122806572" lon="12.534041212965558"><ele>197.66666666666666</ele><time>2026-04-03T12:40:28.999Z</time></trkpt><trkpt lat="43.90006901999105" lon="12.534001570354707"><ele>194.33333333333331</ele><time>2026-04-03T12:40:29.999Z</time></trkpt><trkpt lat="43.89988407006056" lon="12.533966514564996"><ele>191.0</ele><time>2026-04-03T12:40:30.999Z</time></trkpt><trkpt lat="43.89969853875005" lon="12.53393469854804"><ele>191.0</ele><time>2026-04-03T12:40:31.999Z</time></trkpt><trkpt lat="43.89951007208633" lon="12.533908949998487"><ele>191.0</ele><time>2026-04-03T12:40:32.999Z</time></trkpt><trkpt lat="43.89932149975967" lon="12.533882718451258"><ele>191.0</ele><time>2026-04-03T12:40:33.999Z</time></trkpt><trkpt lat="43.89913527620407" lon="12.533852234095358"><ele>190.33333333333331</ele><time>2026-04-03T12:40:34.999Z</time></trkpt><trkpt lat="43.89895530530132" lon="12.533821832688108"><ele>189.66666666666666</ele><time>2026-04-03T12:40:35.999Z</time></trkpt><trkpt lat="43.89878537330081" lon="12.533796436536907"><ele>189.0</ele><time>2026-04-03T12:40:36.999Z</time></trkpt><trkpt lat="43.898628302519676" lon="12.533771519502361"><ele>189.0</ele><time>2026-04-03T12:40:37.999Z</time></trkpt><trkpt lat="43.89848118925441" lon="12.533748273797913"><ele>189.0</ele><time>2026-04-03T12:40:38.999Z</time></trkpt><trkpt lat="43.89834657217496" lon="12.533724463157933"><ele>189.0</ele><time>2026-04-03T12:40:39.999Z</time></trkpt><trkpt lat="43.898215685894854" lon="12.53369895154732"><ele>189.0</ele><time>2026-04-03T12:40:40.999Z</time></trkpt><trkpt lat="43.89808718725443" lon="12.533678529985883"><ele>191.6</ele><time>2026-04-03T12:40:41.999Z</time></trkpt><trkpt lat="43.89796943040258" lon="12.533657049236044"><ele>194.2</ele><time>2026-04-03T12:40:42.999Z</time></trkpt><trkpt lat="43.89785866507071" lon="12.533637586778967"><ele>196.79999999999998</ele><time>2026-04-03T12:40:43.999Z</time></trkpt><trkpt lat="43.89775193430826" lon="12.533618745241352"><ele>199.39999999999998</ele><time>2026-04-03T12:40:44.999Z</time></trkpt><trkpt lat="43.89764895056803" lon="12.533597101002242"><ele>202.0</ele><time>2026-04-03T12:40:45.999Z</time></trkpt><trkpt lat="43.89753971937349" lon="12.533576683779515"><ele>202.0</ele><time>2026-04-03T12:40:46.999Z</time></trkpt><trkpt lat="43.89742017295851" lon="12.533551929247812"><ele>202.0</ele><time>2026-04-03T12:40:47.999Z</time></trkpt><trkpt lat="43.89729653439685" lon="12.533525429882367"><ele>202.0</ele><time>2026-04-03T12:40:48.999Z</time></trkpt><trkpt lat="43.89716526419668" lon="12.533495509257904"><ele>202.0</ele><time>2026-04-03T12:40:49.999Z</time></trkpt><trkpt lat="43.89702763645253" lon="12.53346304255451"><ele>202.0</ele><time>2026-04-03T12:40:50.999Z</time></trkpt><trkpt lat="43.896878370588425" lon="12.53343370279035"><ele>202.0</ele><time>2026-04-03T12:40:51.999Z</time></trkpt><trkpt lat="43.89671963941876" lon="12.533406658640297"><ele>202.0</ele><time>2026-04-03T12:40:52.999Z</time></trkpt><trkpt lat="43.89654952013496" lon="12.533388553342565"><ele>201.0</ele><time>2026-04-03T12:40:53.999Z</time></trkpt><trkpt lat="43.896369912267325" lon="12.533382644814992"><ele>200.0</ele><time>2026-04-03T12:40:54.999Z</time></trkpt><trkpt lat="43.896190366965776" lon="12.533389629877016"><ele>199.0</ele><time>2026-04-03T12:40:55.999Z</time></trkpt><trkpt lat="43.89600789689024" lon="12.533399937108358"><ele>199.0</ele><time>2026-04-03T12:40:56.999Z</time></trkpt><trkpt lat="43.895818386468676" lon="12.533415485963697"><ele>199.0</ele><time>2026-04-03T12:40:57.999Z</time></trkpt><trkpt lat="43.895629387714706" lon="12.533433797957747"><ele>199.0</ele><time>2026-04-03T12:40:58.999Z</time></trkpt><trkpt lat="43.89544236810896" lon="12.533453256081211"><ele>199.0</ele><time>2026-04-03T12:40:59.999Z</time></trkpt><trkpt lat="43.89525202266956" lon="12.533475181689578"><ele>199.0</ele><time>2026-04-03T12:41:00.999Z</time></trkpt><trkpt lat="43.895057347455236" lon="12.53349892416984"><ele>199.0</ele><time>2026-04-03T12:41:01.999Z</time></trkpt><trkpt lat="43.89486197640491" lon="12.533519791728459"><ele>199.0</ele><time>2026-04-03T12:41:02.999Z</time></trkpt><trkpt lat="43.89466056399826" lon="12.533540977242737"><ele>199.0</ele><time>2026-04-03T12:41:03.999Z</time></trkpt><trkpt lat="43.89445484335273" lon="12.533566234164521"><ele>199.0</ele><time>2026-04-03T12:41:04.999Z</time></trkpt><trkpt lat="43.8942443304612" lon="12.533593598493708"><ele>199.0</ele><time>2026-04-03T12:41:05.999Z</time></trkpt><trkpt lat="43.89402446334024" lon="12.533617490074139"><ele>199.0</ele><time>2026-04-03T12:41:06.999Z</time></trkpt><trkpt lat="43.8938008126036" lon="12.53363722391774"><ele>199.0</ele><time>2026-04-03T12:41:07.999Z</time></trkpt><trkpt lat="43.893570874520826" lon="12.53365685247137"><ele>197.0</ele><time>2026-04-03T12:41:08.999Z</time></trkpt><trkpt lat="43.89333795179787" lon="12.533668839838514"><ele>195.0</ele><time>2026-04-03T12:41:09.999Z</time></trkpt><trkpt lat="43.89310394917262" lon="12.533666054457598"><ele>195.0</ele><time>2026-04-03T12:41:10.999Z</time></trkpt><trkpt lat="43.89286931504013" lon="12.53365256713051"><ele>195.0</ele><time>2026-04-03T12:41:11.999Z</time></trkpt><trkpt lat="43.89263553053629" lon="12.533628277844059"><ele>195.5</ele><time>2026-04-03T12:41:12.999Z</time></trkpt><trkpt lat="43.89240137332939" lon="12.533595474513662"><ele>196.0</ele><time>2026-04-03T12:41:13.999Z</time></trkpt><trkpt lat="43.89216722485073" lon="12.533556936751303"><ele>196.0</ele><time>2026-04-03T12:41:14.999Z</time></trkpt><trkpt lat="43.89193483084052" lon="12.533516070294937"><ele>196.0</ele><time>2026-04-03T12:41:15.999Z</time></trkpt><trkpt lat="43.89170341933516" lon="12.533468565893473"><ele>196.5</ele><time>2026-04-03T12:41:16.999Z</time></trkpt><trkpt lat="43.8914716125273" lon="12.533418955398071"><ele>197.0</ele><time>2026-04-03T12:41:17.999Z</time></trkpt><trkpt lat="43.89123763779832" lon="12.533363333543743"><ele>197.0</ele><time>2026-04-03T12:41:18.999Z</time></trkpt><trkpt lat="43.89100350690434" lon="12.533304000582536"><ele>197.0</ele><time>2026-04-03T12:41:19.999Z</time></trkpt><trkpt lat="43.89077385548986" lon="12.533233714736543"><ele>198.0</ele><time>2026-04-03T12:41:20.999Z</time></trkpt><trkpt lat="43.890558360371294" lon="12.533139062148521"><ele>199.0</ele><time>2026-04-03T12:41:21.999Z</time></trkpt><trkpt lat="43.89034484218344" lon="12.533023170924144"><ele>199.0</ele><time>2026-04-03T12:41:22.999Z</time></trkpt><trkpt lat="43.8901382183121" lon="12.532892295332474"><ele>199.0</ele><time>2026-04-03T12:41:23.999Z</time></trkpt><trkpt lat="43.889934464726544" lon="12.532753243569763"><ele>201.0</ele><time>2026-04-03T12:41:24.999Z</time></trkpt><trkpt lat="43.889732812291896" lon="12.532607554720942"><ele>203.0</ele><time>2026-04-03T12:41:25.999Z</time></trkpt><trkpt lat="43.889535135461415" lon="12.532454884968923"><ele>203.0</ele><time>2026-04-03T12:41:26.999Z</time></trkpt><trkpt lat="43.88934159781684" lon="12.532292644577021"><ele>203.0</ele><time>2026-04-03T12:41:27.999Z</time></trkpt><trkpt lat="43.88915233923051" lon="12.532120205602565"><ele>208.0</ele><time>2026-04-03T12:41:28.999Z</time></trkpt><trkpt lat="43.888969462804354" lon="12.531936089465681"><ele>213.0</ele><time>2026-04-03T12:41:29.999Z</time></trkpt><trkpt lat="43.88879021456593" lon="12.531738396275621"><ele>213.0</ele><time>2026-04-03T12:41:30.999Z</time></trkpt><trkpt lat="43.88861523204782" lon="12.531531679678514"><ele>213.0</ele><time>2026-04-03T12:41:31.999Z</time></trkpt><trkpt lat="43.888443098219504" lon="12.531318025793265"><ele>211.0</ele><time>2026-04-03T12:41:32.999Z</time></trkpt><trkpt lat="43.88827213159881" lon="12.531096017526856"><ele>209.0</ele><time>2026-04-03T12:41:33.999Z</time></trkpt><trkpt lat="43.8881051734163" lon="12.53086972188444"><ele>209.0</ele><time>2026-04-03T12:41:34.999Z</time></trkpt><trkpt lat="43.88793803933147" lon="12.530643251305458"><ele>209.0</ele><time>2026-04-03T12:41:35.999Z</time></trkpt><trkpt lat="43.887770608150916" lon="12.530417706784425"><ele>209.5</ele><time>2026-04-03T12:41:36.999Z</time></trkpt><trkpt lat="43.88760007996577" lon="12.53018994071986"><ele>210.0</ele><time>2026-04-03T12:41:37.998Z</time></trkpt><trkpt lat="43.88742902311769" lon="12.529961027911138"><ele>210.0</ele><time>2026-04-03T12:41:38.998Z</time></trkpt><trkpt lat="43.887260514303236" lon="12.529731006088722"><ele>210.0</ele><time>2026-04-03T12:41:39.998Z</time></trkpt><trkpt lat="43.8870887225416" lon="12.529499240823592"><ele>210.0</ele><time>2026-04-03T12:41:41Z</time></trkpt><trkpt lat="43.886917099897666" lon="12.529268201849485"><ele>210.0</ele><time>2026-04-03T12:41:42Z</time></trkpt><trkpt lat="43.88674500471311" lon="12.529039034946381"><ele>210.0</ele><time>2026-04-03T12:41:43Z</time></trkpt><trkpt lat="43.88657226929151" lon="12.528809102110246"><ele>210.0</ele><time>2026-04-03T12:41:44Z</time></trkpt><trkpt lat="43.88640929244001" lon="12.528589352817784"><ele>212.33333333333331</ele><time>2026-04-03T12:41:45Z</time></trkpt><trkpt lat="43.8862586501644" lon="12.52838389057729"><ele>214.66666666666666</ele><time>2026-04-03T12:41:46Z</time></trkpt><trkpt lat="43.88611555294543" lon="12.528191227416231"><ele>217.0</ele><time>2026-04-03T12:41:47Z</time></trkpt><trkpt lat="43.88598162029301" lon="12.528008877578362"><ele>215.33333333333331</ele><time>2026-04-03T12:41:48Z</time></trkpt><trkpt lat="43.885854154711595" lon="12.527835982960257"><ele>213.66666666666669</ele><time>2026-04-03T12:41:49Z</time></trkpt><trkpt lat="43.885733234768544" lon="12.527674978646825"><ele>212.0</ele><time>2026-04-03T12:41:50Z</time></trkpt><trkpt lat="43.88561309876005" lon="12.527525948565474"><ele>212.0</ele><time>2026-04-03T12:41:51Z</time></trkpt><trkpt lat="43.88549198825394" lon="12.527385340875464"><ele>212.0</ele><time>2026-04-03T12:41:52Z</time></trkpt><trkpt lat="43.885377826048185" lon="12.52725297838859"><ele>212.0</ele><time>2026-04-03T12:41:53Z</time></trkpt><trkpt lat="43.8852726380127" lon="12.527131342543905"><ele>212.0</ele><time>2026-04-03T12:41:54Z</time></trkpt><trkpt lat="43.885180408265924" lon="12.527022290072006"><ele>212.0</ele><time>2026-04-03T12:41:55Z</time></trkpt><trkpt lat="43.88510283289384" lon="12.526914928086514"><ele>212.0</ele><time>2026-04-03T12:41:56Z</time></trkpt><trkpt lat="43.88504394589321" lon="12.526802143160975"><ele>212.0</ele><time>2026-04-03T12:41:57Z</time></trkpt><trkpt lat="43.88498424294241" lon="12.526708684097475"><ele>212.0</ele><time>2026-04-03T12:41:58Z</time></trkpt><trkpt lat="43.8849330510728" lon="12.526618172004625"><ele>212.0</ele><time>2026-04-03T12:41:59Z</time></trkpt><trkpt lat="43.8848334369739" lon="12.526572186791556"><ele>212.0</ele><time>2026-04-03T12:42:00Z</time></trkpt><trkpt lat="43.88470278718217" lon="12.526526590864536"><ele>212.0</ele><time>2026-04-03T12:42:01Z</time></trkpt><trkpt lat="43.88456743383096" lon="12.526441847556868"><ele>212.0</ele><time>2026-04-03T12:42:02Z</time></trkpt><trkpt lat="43.884432470369596" lon="12.526344271943184"><ele>212.0</ele><time>2026-04-03T12:42:03Z</time></trkpt><trkpt lat="43.88429242762004" lon="12.526229055515998"><ele>212.33333333333334</ele><time>2026-04-03T12:42:04Z</time></trkpt><trkpt lat="43.88414573804484" lon="12.52609583652307"><ele>212.66666666666669</ele><time>2026-04-03T12:42:05Z</time></trkpt><trkpt lat="43.884004931629114" lon="12.525956644888328"><ele>213.0</ele><time>2026-04-03T12:42:06Z</time></trkpt><trkpt lat="43.88387198038078" lon="12.52582071224673"><ele>213.0</ele><time>2026-04-03T12:42:07Z</time></trkpt><trkpt lat="43.88374033414832" lon="12.525683450028689"><ele>213.0</ele><time>2026-04-03T12:42:08Z</time></trkpt><trkpt lat="43.88361212189836" lon="12.525547206916311"><ele>213.0</ele><time>2026-04-03T12:42:09Z</time></trkpt><trkpt lat="43.88348777347178" lon="12.525411272348254"><ele>214.0</ele><time>2026-04-03T12:42:10Z</time></trkpt><trkpt lat="43.8833662192238" lon="12.525263034242853"><ele>215.0</ele><time>2026-04-03T12:42:11Z</time></trkpt><trkpt lat="43.88324962634386" lon="12.525094705501166"><ele>216.0</ele><time>2026-04-03T12:42:12Z</time></trkpt><trkpt lat="43.88313911183682" lon="12.524917255936614"><ele>216.0</ele><time>2026-04-03T12:42:13Z</time></trkpt><trkpt lat="43.883038912882135" lon="12.524733897393691"><ele>216.0</ele><time>2026-04-03T12:42:14Z</time></trkpt><trkpt lat="43.88294913769094" lon="12.524538253323444"><ele>216.0</ele><time>2026-04-03T12:42:15Z</time></trkpt><trkpt lat="43.882868052716255" lon="12.524333794560935"><ele>217.33333333333331</ele><time>2026-04-03T12:42:16Z</time></trkpt><trkpt lat="43.882798802415046" lon="12.524125329881498"><ele>218.66666666666666</ele><time>2026-04-03T12:42:17Z</time></trkpt><trkpt lat="43.88274012225565" lon="12.523912209730259"><ele>220.0</ele><time>2026-04-03T12:42:18Z</time></trkpt><trkpt lat="43.88269217288456" lon="12.523699118143012"><ele>223.33333333333331</ele><time>2026-04-03T12:42:19Z</time></trkpt><trkpt lat="43.882654980127505" lon="12.5234878157191"><ele>226.66666666666669</ele><time>2026-04-03T12:42:20Z</time></trkpt><trkpt lat="43.88262313305636" lon="12.523254469605709"><ele>230.0</ele><time>2026-04-03T12:42:21Z</time></trkpt><trkpt lat="43.88259847392544" lon="12.522995766703236"><ele>229.33333333333334</ele><time>2026-04-03T12:42:22Z</time></trkpt><trkpt lat="43.88257303127275" lon="12.522710709254477"><ele>228.66666666666669</ele><time>2026-04-03T12:42:23Z</time></trkpt><trkpt lat="43.882544905320664" lon="12.522401731055005"><ele>228.0</ele><time>2026-04-03T12:42:24Z</time></trkpt><trkpt lat="43.882524608867996" lon="12.522084158804805"><ele>228.66666666666669</ele><time>2026-04-03T12:42:25Z</time></trkpt><trkpt lat="43.88251051197502" lon="12.52179120891133"><ele>229.33333333333334</ele><time>2026-04-03T12:42:26Z</time></trkpt><trkpt lat="43.88249519338178" lon="12.521491902365273"><ele>230.0</ele><time>2026-04-03T12:42:27Z</time></trkpt><trkpt lat="43.88247898762297" lon="12.52119241757675"><ele>228.66666666666669</ele><time>2026-04-03T12:42:28Z</time></trkpt><trkpt lat="43.88246192746693" lon="12.520896104257298"><ele>227.33333333333331</ele><time>2026-04-03T12:42:28.999Z</time></trkpt><trkpt lat="43.88244627047122" lon="12.520611546809283"><ele>226.0</ele><time>2026-04-03T12:42:29.999Z</time></trkpt><trkpt lat="43.882428940815224" lon="12.520325181058874"><ele>225.66666666666666</ele><time>2026-04-03T12:42:30.999Z</time></trkpt><trkpt lat="43.8824068614102" lon="12.520034710097097"><ele>225.33333333333331</ele><time>2026-04-03T12:42:31.999Z</time></trkpt><trkpt lat="43.88238285362943" lon="12.519746862969082"><ele>225.0</ele><time>2026-04-03T12:42:32.999Z</time></trkpt><trkpt lat="43.88235271135407" lon="12.519452936734378"><ele>226.0</ele><time>2026-04-03T12:42:33.999Z</time></trkpt><trkpt lat="43.88231936785436" lon="12.519154544765374"><ele>227.0</ele><time>2026-04-03T12:42:34.999Z</time></trkpt><trkpt lat="43.882281601085126" lon="12.518850869516928"><ele>228.0</ele><time>2026-04-03T12:42:35.999Z</time></trkpt><trkpt lat="43.882243507039206" lon="12.518548920113309"><ele>229.66666666666669</ele><time>2026-04-03T12:42:36.999Z</time></trkpt><trkpt lat="43.88220414316109" lon="12.518252185289402"><ele>231.33333333333334</ele><time>2026-04-03T12:42:37.999Z</time></trkpt><trkpt lat="43.8821608273685" lon="12.517955858369243"><ele>233.0</ele><time>2026-04-03T12:42:38.999Z</time></trkpt><trkpt lat="43.88211902737918" lon="12.517658926105632"><ele>235.0</ele><time>2026-04-03T12:42:39.999Z</time></trkpt><trkpt lat="43.88207667388229" lon="12.51736111735287"><ele>237.0</ele><time>2026-04-03T12:42:40.999Z</time></trkpt><trkpt lat="43.88203456307597" lon="12.517065008832382"><ele>239.0</ele><time>2026-04-03T12:42:41.999Z</time></trkpt><trkpt lat="43.88199100352927" lon="12.51676860396684"><ele>240.0</ele><time>2026-04-03T12:42:42.999Z</time></trkpt><trkpt lat="43.88194606480846" lon="12.516471242498818"><ele>241.0</ele><time>2026-04-03T12:42:43.999Z</time></trkpt><trkpt lat="43.881904589811406" lon="12.516175721436499"><ele>242.0</ele><time>2026-04-03T12:42:44.999Z</time></trkpt><trkpt lat="43.88186326270114" lon="12.51587837769806"><ele>242.66666666666669</ele><time>2026-04-03T12:42:45.999Z</time></trkpt><trkpt lat="43.8818220324495" lon="12.515580852009279"><ele>243.33333333333331</ele><time>2026-04-03T12:42:46.999Z</time></trkpt><trkpt lat="43.88179039442748" lon="12.515281908280974"><ele>244.0</ele><time>2026-04-03T12:42:47.999Z</time></trkpt><trkpt lat="43.88176887544979" lon="12.514979829790839"><ele>241.66666666666666</ele><time>2026-04-03T12:42:48.999Z</time></trkpt><trkpt lat="43.88175531539861" lon="12.514677350704108"><ele>239.33333333333331</ele><time>2026-04-03T12:42:49.999Z</time></trkpt><trkpt lat="43.881747219445515" lon="12.514375738004395"><ele>237.0</ele><time>2026-04-03T12:42:50.999Z</time></trkpt><trkpt lat="43.88173417706381" lon="12.51407723736057"><ele>237.0</ele><time>2026-04-03T12:42:51.999Z</time></trkpt><trkpt lat="43.8817166034971" lon="12.51378212818156"><ele>237.0</ele><time>2026-04-03T12:42:52.999Z</time></trkpt><trkpt lat="43.881695947283205" lon="12.513492438979625"><ele>237.0</ele><time>2026-04-03T12:42:53.999Z</time></trkpt><trkpt lat="43.88167170583344" lon="12.513207437069983"><ele>238.0</ele><time>2026-04-03T12:42:54.999Z</time></trkpt><trkpt lat="43.88164153253304" lon="12.512926638217703"><ele>239.0</ele><time>2026-04-03T12:42:55.999Z</time></trkpt><trkpt lat="43.881601457230985" lon="12.51264905207377"><ele>240.0</ele><time>2026-04-03T12:42:56.999Z</time></trkpt><trkpt lat="43.88154829187423" lon="12.512374654437872"><ele>240.33333333333331</ele><time>2026-04-03T12:42:57.999Z</time></trkpt><trkpt lat="43.88148636540841" lon="12.512107206693118"><ele>240.66666666666666</ele><time>2026-04-03T12:42:58.999Z</time></trkpt><trkpt lat="43.88142098703221" lon="12.511845505105342"><ele>241.0</ele><time>2026-04-03T12:42:59.999Z</time></trkpt><trkpt lat="43.88135297753017" lon="12.511590336887124"><ele>241.33333333333331</ele><time>2026-04-03T12:43:00.999Z</time></trkpt><trkpt lat="43.881281337751695" lon="12.511338716922905"><ele>241.66666666666669</ele><time>2026-04-03T12:43:01.999Z</time></trkpt><trkpt lat="43.88121097002195" lon="12.511089676653604"><ele>242.0</ele><time>2026-04-03T12:43:02.999Z</time></trkpt><trkpt lat="43.881140037076385" lon="12.510844056504277"><ele>244.0</ele><time>2026-04-03T12:43:03.999Z</time></trkpt><trkpt lat="43.88107073788417" lon="12.510609376702876"><ele>246.0</ele><time>2026-04-03T12:43:04.999Z</time></trkpt><trkpt lat="43.88100351226531" lon="12.510383550927838"><ele>248.0</ele><time>2026-04-03T12:43:05.999Z</time></trkpt><trkpt lat="43.88093783511109" lon="12.510175950253446"><ele>247.33333333333334</ele><time>2026-04-03T12:43:06.999Z</time></trkpt><trkpt lat="43.88086785649452" lon="12.509968779008872"><ele>246.66666666666669</ele><time>2026-04-03T12:43:07.999Z</time></trkpt><trkpt lat="43.88078842693914" lon="12.50974953748291"><ele>246.0</ele><time>2026-04-03T12:43:08.999Z</time></trkpt><trkpt lat="43.88071279077478" lon="12.509509222258954"><ele>248.66666666666669</ele><time>2026-04-03T12:43:09.999Z</time></trkpt><trkpt lat="43.8806127348308" lon="12.509256786371099"><ele>251.33333333333334</ele><time>2026-04-03T12:43:10.999Z</time></trkpt><trkpt lat="43.880503889710084" lon="12.508991903460778"><ele>254.0</ele><time>2026-04-03T12:43:11.999Z</time></trkpt><trkpt lat="43.880389941567046" lon="12.508719604614596"><ele>254.33333333333334</ele><time>2026-04-03T12:43:12.999Z</time></trkpt><trkpt lat="43.88027676571535" lon="12.508453352029507"><ele>254.66666666666669</ele><time>2026-04-03T12:43:13.999Z</time></trkpt><trkpt lat="43.8801531462725" lon="12.508196386861465"><ele>255.0</ele><time>2026-04-03T12:43:14.999Z</time></trkpt><trkpt lat="43.88004258055393" lon="12.507930853316216"><ele>253.33333333333331</ele><time>2026-04-03T12:43:15.999Z</time></trkpt><trkpt lat="43.87993487088882" lon="12.507663033559163"><ele>251.66666666666666</ele><time>2026-04-03T12:43:16.999Z</time></trkpt><trkpt lat="43.879826324100506" lon="12.507400901067186"><ele>250.0</ele><time>2026-04-03T12:43:17.999Z</time></trkpt><trkpt lat="43.879722740300046" lon="12.507149031716558"><ele>252.33333333333331</ele><time>2026-04-03T12:43:18.999Z</time></trkpt><trkpt lat="43.87963885221144" lon="12.5069087143606"><ele>254.66666666666669</ele><time>2026-04-03T12:43:19.999Z</time></trkpt><trkpt lat="43.87957524970111" lon="12.506667585282878"><ele>257.0</ele><time>2026-04-03T12:43:20.999Z</time></trkpt><trkpt lat="43.87952525750595" lon="12.506415073004936"><ele>259.0</ele><time>2026-04-03T12:43:21.999Z</time></trkpt><trkpt lat="43.879475920640395" lon="12.506160158756717"><ele>261.0</ele><time>2026-04-03T12:43:22.999Z</time></trkpt><trkpt lat="43.879418404112236" lon="12.505915417534366"><ele>263.0</ele><time>2026-04-03T12:43:23.999Z</time></trkpt><trkpt lat="43.879341894251674" lon="12.505685516403638"><ele>262.0</ele><time>2026-04-03T12:43:24.999Z</time></trkpt><trkpt lat="43.87923559091244" lon="12.505475931537434"><ele>261.0</ele><time>2026-04-03T12:43:25.999Z</time></trkpt><trkpt lat="43.87911793157134" lon="12.505273485465368"><ele>260.0</ele><time>2026-04-03T12:43:26.999Z</time></trkpt><trkpt lat="43.87900423401931" lon="12.505064677632145"><ele>260.0</ele><time>2026-04-03T12:43:27.999Z</time></trkpt><trkpt lat="43.878888617109396" lon="12.504852806217947"><ele>260.0</ele><time>2026-04-03T12:43:28.999Z</time></trkpt><trkpt lat="43.87877134320569" lon="12.504642734636768"><ele>260.0</ele><time>2026-04-03T12:43:29.999Z</time></trkpt><trkpt lat="43.878659779606494" lon="12.504433703860323"><ele>258.6666666666667</ele><time>2026-04-03T12:43:30.999Z</time></trkpt><trkpt lat="43.87854647149745" lon="12.50422198205954"><ele>257.3333333333333</ele><time>2026-04-03T12:43:31.999Z</time></trkpt><trkpt lat="43.878435118071685" lon="12.504010229024596"><ele>256.0</ele><time>2026-04-03T12:43:32.999Z</time></trkpt><trkpt lat="43.87832593116709" lon="12.503796074961265"><ele>258.66666666666663</ele><time>2026-04-03T12:43:33.999Z</time></trkpt><trkpt lat="43.87822188227892" lon="12.503574441719406"><ele>261.3333333333333</ele><time>2026-04-03T12:43:34.999Z</time></trkpt><trkpt lat="43.87812182390961" lon="12.503344883289483"><ele>264.0</ele><time>2026-04-03T12:43:35.999Z</time></trkpt><trkpt lat="43.87802412776575" lon="12.503106936821172"><ele>266.0</ele><time>2026-04-03T12:43:36.999Z</time></trkpt><trkpt lat="43.87792449614831" lon="12.502864712124605"><ele>268.0</ele><time>2026-04-03T12:43:37.999Z</time></trkpt><trkpt lat="43.877822395588005" lon="12.502618249080538"><ele>270.0</ele><time>2026-04-03T12:43:38.999Z</time></trkpt><trkpt lat="43.87771706041348" lon="12.50236743986509"><ele>270.0</ele><time>2026-04-03T12:43:39.999Z</time></trkpt><trkpt lat="43.8776107057383" lon="12.502112621573245"><ele>270.0</ele><time>2026-04-03T12:43:40.999Z</time></trkpt><trkpt lat="43.8775022358735" lon="12.501853344232506"><ele>270.0</ele><time>2026-04-03T12:43:41.999Z</time></trkpt><trkpt lat="43.877392840502544" lon="12.501597483066938"><ele>269.0</ele><time>2026-04-03T12:43:42.999Z</time></trkpt><trkpt lat="43.87729095510313" lon="12.501353275063487"><ele>268.0</ele><time>2026-04-03T12:43:43.998Z</time></trkpt><trkpt lat="43.87718569454831" lon="12.501104948963167"><ele>267.0</ele><time>2026-04-03T12:43:44.998Z</time></trkpt><trkpt lat="43.87708110350522" lon="12.500855921110352"><ele>267.0</ele><time>2026-04-03T12:43:45.998Z</time></trkpt><trkpt lat="43.87697898542014" lon="12.500608488130936"><ele>267.0</ele><time>2026-04-03T12:43:47Z</time></trkpt><trkpt lat="43.87688041186492" lon="12.500367896348298"><ele>267.0</ele><time>2026-04-03T12:43:48Z</time></trkpt><trkpt lat="43.87678362808932" lon="12.500131954140112"><ele>267.0</ele><time>2026-04-03T12:43:49Z</time></trkpt><trkpt lat="43.876685604121775" lon="12.499895107479949"><ele>267.0</ele><time>2026-04-03T12:43:50Z</time></trkpt><trkpt lat="43.8765893506857" lon="12.499653907646469"><ele>267.0</ele><time>2026-04-03T12:43:51Z</time></trkpt><trkpt lat="43.87649621057448" lon="12.499409246430233"><ele>267.0</ele><time>2026-04-03T12:43:52Z</time></trkpt><trkpt lat="43.876408479677515" lon="12.499160703008753"><ele>267.0</ele><time>2026-04-03T12:43:53Z</time></trkpt><trkpt lat="43.876333490581445" lon="12.498923899899687"><ele>267.0</ele><time>2026-04-03T12:43:54Z</time></trkpt><trkpt lat="43.87627374781616" lon="12.498712119212833"><ele>268.6666666666667</ele><time>2026-04-03T12:43:55Z</time></trkpt><trkpt lat="43.8762255107806" lon="12.49850860674737"><ele>270.33333333333337</ele><time>2026-04-03T12:43:56Z</time></trkpt><trkpt lat="43.87618354437079" lon="12.498304674189416"><ele>272.0</ele><time>2026-04-03T12:43:57Z</time></trkpt><trkpt lat="43.876143981032094" lon="12.49809952234483"><ele>275.33333333333337</ele><time>2026-04-03T12:43:58Z</time></trkpt><trkpt lat="43.876104355568785" lon="12.497893943510508"><ele>278.6666666666667</ele><time>2026-04-03T12:43:59Z</time></trkpt><trkpt lat="43.876065327824776" lon="12.497693267719642"><ele>282.0</ele><time>2026-04-03T12:44:00Z</time></trkpt><trkpt lat="43.87602560570271" lon="12.49749251853832"><ele>282.0</ele><time>2026-04-03T12:44:01Z</time></trkpt><trkpt lat="43.87598684989862" lon="12.49729192837061"><ele>282.0</ele><time>2026-04-03T12:44:02Z</time></trkpt><trkpt lat="43.87594449775079" lon="12.49709215214332"><ele>282.0</ele><time>2026-04-03T12:44:03Z</time></trkpt><trkpt lat="43.87589210275759" lon="12.496902875642482"><ele>282.0</ele><time>2026-04-03T12:44:04Z</time></trkpt><trkpt lat="43.875808707516846" lon="12.49673386994451"><ele>278.6666666666667</ele><time>2026-04-03T12:44:05Z</time></trkpt><trkpt lat="43.875705100357735" lon="12.496574312290587"><ele>275.33333333333337</ele><time>2026-04-03T12:44:06Z</time></trkpt><trkpt lat="43.87559618401452" lon="12.4964153049823"><ele>272.0</ele><time>2026-04-03T12:44:07Z</time></trkpt><trkpt lat="43.87548620911538" lon="12.496255734573205"><ele>273.0</ele><time>2026-04-03T12:44:08Z</time></trkpt><trkpt lat="43.87537672928219" lon="12.49611130751086"><ele>274.0</ele><time>2026-04-03T12:44:09Z</time></trkpt><trkpt lat="43.87526312277803" lon="12.495992278348735"><ele>275.0</ele><time>2026-04-03T12:44:10Z</time></trkpt><trkpt lat="43.8751527754642" lon="12.495897534997017"><ele>276.0</ele><time>2026-04-03T12:44:11Z</time></trkpt><trkpt lat="43.87504857879454" lon="12.49580954015004"><ele>276.0</ele><time>2026-04-03T12:44:12Z</time></trkpt><trkpt lat="43.874953080258614" lon="12.495720292981277"><ele>276.0</ele><time>2026-04-03T12:44:13Z</time></trkpt><trkpt lat="43.87486131601745" lon="12.495639168082931"><ele>276.0</ele><time>2026-04-03T12:44:14Z</time></trkpt><trkpt lat="43.87475625593365" lon="12.495569889225415"><ele>276.0</ele><time>2026-04-03T12:44:15Z</time></trkpt><trkpt lat="43.87464481845357" lon="12.49550764200616"><ele>276.0</ele><time>2026-04-03T12:44:16Z</time></trkpt><trkpt lat="43.874536785489965" lon="12.495444338268227"><ele>276.0</ele><time>2026-04-03T12:44:17Z</time></trkpt><trkpt lat="43.8744449166173" lon="12.495383613800936"><ele>276.0</ele><time>2026-04-03T12:44:18Z</time></trkpt><trkpt lat="43.874364776732286" lon="12.495336888705669"><ele>276.0</ele><time>2026-04-03T12:44:19Z</time></trkpt><trkpt lat="43.874299809923166" lon="12.49530011368587"><ele>276.0</ele><time>2026-04-03T12:44:20Z</time></trkpt><trkpt lat="43.87420268208946" lon="12.49524243521048"><ele>277.6</ele><time>2026-04-03T12:44:22Z</time></trkpt><trkpt lat="43.87409509618875" lon="12.495133733424003"><ele>279.20000000000005</ele><time>2026-04-03T12:44:24Z</time></trkpt><trkpt lat="43.874041367966726" lon="12.495081258157233"><ele>280.79999999999995</ele><time>2026-04-03T12:44:25Z</time></trkpt><trkpt lat="43.87394247329215" lon="12.494977730471106"><ele>282.4</ele><time>2026-04-03T12:44:27Z</time></trkpt><trkpt lat="43.873887766811265" lon="12.49492187439737"><ele>284.0</ele><time>2026-04-03T12:44:28Z</time></trkpt><trkpt lat="43.873837035851054" lon="12.494864528799308"><ele>284.0</ele><time>2026-04-03T12:44:29Z</time></trkpt><trkpt lat="43.873783693942606" lon="12.494802224875553"><ele>284.0</ele><time>2026-04-03T12:44:30Z</time></trkpt><trkpt lat="43.8737260127677" lon="12.494741160179416"><ele>284.0</ele><time>2026-04-03T12:44:31Z</time></trkpt><trkpt lat="43.87366720022491" lon="12.494681042555127"><ele>284.0</ele><time>2026-04-03T12:44:32Z</time></trkpt><trkpt lat="43.87360930748096" lon="12.494615679265745"><ele>284.0</ele><time>2026-04-03T12:44:33Z</time></trkpt><trkpt lat="43.87355047815622" lon="12.494549387163701"><ele>284.0</ele><time>2026-04-03T12:44:34Z</time></trkpt><trkpt lat="43.87348869112899" lon="12.49448210020984"><ele>284.0</ele><time>2026-04-03T12:44:34.999Z</time></trkpt><trkpt lat="43.873426594585816" lon="12.494413081432766"><ele>284.1666666666667</ele><time>2026-04-03T12:44:35.999Z</time></trkpt><trkpt lat="43.87336539630048" lon="12.49434307711756"><ele>284.33333333333337</ele><time>2026-04-03T12:44:36.999Z</time></trkpt><trkpt lat="43.87330700112153" lon="12.494273940269109"><ele>284.5</ele><time>2026-04-03T12:44:37.999Z</time></trkpt><trkpt lat="43.87324603674042" lon="12.49420371760089"><ele>284.6666666666667</ele><time>2026-04-03T12:44:38.999Z</time></trkpt><trkpt lat="43.8731854240415" lon="12.494131644080271"><ele>284.8333333333333</ele><time>2026-04-03T12:44:39.999Z</time></trkpt><trkpt lat="43.87312124787041" lon="12.494064640863412"><ele>285.0</ele><time>2026-04-03T12:44:40.999Z</time></trkpt><trkpt lat="43.87305262513263" lon="12.493994913919337"><ele>285.0</ele><time>2026-04-03T12:44:41.999Z</time></trkpt><trkpt lat="43.87297869375638" lon="12.493916775125586"><ele>285.0</ele><time>2026-04-03T12:44:42.999Z</time></trkpt><trkpt lat="43.87289935667381" lon="12.493832714147734"><ele>285.0</ele><time>2026-04-03T12:44:43.999Z</time></trkpt><trkpt lat="43.87281434951103" lon="12.493736887454064"><ele>285.0</ele><time>2026-04-03T12:44:44.999Z</time></trkpt><trkpt lat="43.87272444265132" lon="12.493631542351892"><ele>285.0</ele><time>2026-04-03T12:44:45.999Z</time></trkpt><trkpt lat="43.872631751075254" lon="12.493526977516078"><ele>285.5</ele><time>2026-04-03T12:44:46.999Z</time></trkpt><trkpt lat="43.87254162819481" lon="12.493423561494588"><ele>286.0</ele><time>2026-04-03T12:44:47.999Z</time></trkpt><trkpt lat="43.87244793636969" lon="12.493311049132688"><ele>286.5</ele><time>2026-04-03T12:44:48.999Z</time></trkpt><trkpt lat="43.872350133099104" lon="12.493195666561705"><ele>287.0</ele><time>2026-04-03T12:44:49.999Z</time></trkpt><trkpt lat="43.87224601411882" lon="12.493080817369952"><ele>287.0</ele><time>2026-04-03T12:44:50.999Z</time></trkpt><trkpt lat="43.87213470756152" lon="12.492958841238318"><ele>287.0</ele><time>2026-04-03T12:44:51.999Z</time></trkpt><trkpt lat="43.872022746453986" lon="12.492827781714798"><ele>287.0</ele><time>2026-04-03T12:44:52.999Z</time></trkpt><trkpt lat="43.87190460103604" lon="12.492691844962753"><ele>287.0</ele><time>2026-04-03T12:44:53.999Z</time></trkpt><trkpt lat="43.871798099598195" lon="12.49256784762895"><ele>286.75</ele><time>2026-04-03T12:44:54.999Z</time></trkpt><trkpt lat="43.87169786387344" lon="12.492451241060495"><ele>286.5</ele><time>2026-04-03T12:44:55.999Z</time></trkpt><trkpt lat="43.8715949865421" lon="12.492323686237278"><ele>286.25</ele><time>2026-04-03T12:44:56.999Z</time></trkpt><trkpt lat="43.87149485727305" lon="12.492179142729206"><ele>286.0</ele><time>2026-04-03T12:44:57.999Z</time></trkpt><trkpt lat="43.87140180910551" lon="12.49201219678396"><ele>291.3333333333333</ele><time>2026-04-03T12:44:58.999Z</time></trkpt><trkpt lat="43.87132319818382" lon="12.491841870067866"><ele>296.6666666666667</ele><time>2026-04-03T12:44:59.999Z</time></trkpt><trkpt lat="43.87125319233757" lon="12.491655239345713"><ele>302.0</ele><time>2026-04-03T12:45:00.999Z</time></trkpt><trkpt lat="43.87118107468086" lon="12.491457191535297"><ele>299.6666666666667</ele><time>2026-04-03T12:45:01.999Z</time></trkpt><trkpt lat="43.87110056656897" lon="12.491256135591518"><ele>297.3333333333333</ele><time>2026-04-03T12:45:02.999Z</time></trkpt><trkpt lat="43.87100346829994" lon="12.491048139017883"><ele>295.0</ele><time>2026-04-03T12:45:03.999Z</time></trkpt><trkpt lat="43.87089872738507" lon="12.49084512972427"><ele>295.0</ele><time>2026-04-03T12:45:04.999Z</time></trkpt><trkpt lat="43.87079437159149" lon="12.490652805023787"><ele>295.0</ele><time>2026-04-03T12:45:05.999Z</time></trkpt><trkpt lat="43.870695147908556" lon="12.49047320899978"><ele>295.0</ele><time>2026-04-03T12:45:06.999Z</time></trkpt><trkpt lat="43.870606372491935" lon="12.49030460726191"><ele>297.25</ele><time>2026-04-03T12:45:07.999Z</time></trkpt><trkpt lat="43.870525398413776" lon="12.49014091586149"><ele>299.5</ele><time>2026-04-03T12:45:08.999Z</time></trkpt><trkpt lat="43.8704582122323" lon="12.489978998801202"><ele>301.75</ele><time>2026-04-03T12:45:09.999Z</time></trkpt><trkpt lat="43.870408626421195" lon="12.489822580412605"><ele>304.0</ele><time>2026-04-03T12:45:10.999Z</time></trkpt><trkpt lat="43.870373831383375" lon="12.489671292818771"><ele>304.4</ele><time>2026-04-03T12:45:11.999Z</time></trkpt><trkpt lat="43.870354573774065" lon="12.489524613086177"><ele>304.79999999999995</ele><time>2026-04-03T12:45:12.999Z</time></trkpt><trkpt lat="43.87035039509699" lon="12.489395738986678"><ele>305.20000000000005</ele><time>2026-04-03T12:45:13.999Z</time></trkpt><trkpt lat="43.87036286028436" lon="12.48928720621516"><ele>305.6</ele><time>2026-04-03T12:45:14.999Z</time></trkpt><trkpt lat="43.87038659032714" lon="12.489192824177893"><ele>306.0</ele><time>2026-04-03T12:45:15.999Z</time></trkpt><trkpt lat="43.8703322646738" lon="12.489061452804224"><ele>306.0</ele><time>2026-04-03T12:45:17.999Z</time></trkpt><trkpt lat="43.870258355885206" lon="12.489044567545676"><ele>306.0</ele><time>2026-04-03T12:45:18.999Z</time></trkpt><trkpt lat="43.870165492220465" lon="12.489059061033483"><ele>306.0</ele><time>2026-04-03T12:45:19.999Z</time></trkpt><trkpt lat="43.87005957448296" lon="12.489046122745714"><ele>306.0</ele><time>2026-04-03T12:45:20.999Z</time></trkpt><trkpt lat="43.8699383142123" lon="12.489064790604486"><ele>306.0</ele><time>2026-04-03T12:45:21.999Z</time></trkpt><trkpt lat="43.869822775580964" lon="12.489081810000243"><ele>303.40000000000003</ele><time>2026-04-03T12:45:22.999Z</time></trkpt><trkpt lat="43.86972252847114" lon="12.4891002278337"><ele>300.8</ele><time>2026-04-03T12:45:23.999Z</time></trkpt><trkpt lat="43.86964727932543" lon="12.489106854842325"><ele>298.20000000000005</ele><time>2026-04-03T12:45:24.999Z</time></trkpt><trkpt lat="43.86958886522333" lon="12.489042349526255"><ele>295.6</ele><time>2026-04-03T12:45:25.999Z</time></trkpt><trkpt lat="43.869535675109226" lon="12.488927090177114"><ele>293.0</ele><time>2026-04-03T12:45:26.999Z</time></trkpt><trkpt lat="43.86947861927286" lon="12.488777569556962"><ele>292.0</ele><time>2026-04-03T12:45:27.999Z</time></trkpt><trkpt lat="43.86941649095636" lon="12.488610643623359"><ele>291.0</ele><time>2026-04-03T12:45:28.999Z</time></trkpt><trkpt lat="43.8693602483681" lon="12.488457024474165"><ele>290.0</ele><time>2026-04-03T12:45:29.999Z</time></trkpt><trkpt lat="43.86930874324518" lon="12.488309215988908"><ele>289.0</ele><time>2026-04-03T12:45:30.999Z</time></trkpt><trkpt lat="43.869254554894795" lon="12.488154793536447"><ele>288.25</ele><time>2026-04-03T12:45:31.999Z</time></trkpt><trkpt lat="43.869191808733646" lon="12.48800215633049"><ele>287.5</ele><time>2026-04-03T12:45:32.999Z</time></trkpt><trkpt lat="43.86911760323739" lon="12.487865993939057"><ele>286.75</ele><time>2026-04-03T12:45:33.999Z</time></trkpt><trkpt lat="43.86901466821936" lon="12.48775749580806"><ele>286.0</ele><time>2026-04-03T12:45:34.999Z</time></trkpt><trkpt lat="43.868892706932954" lon="12.487682212058859"><ele>287.75</ele><time>2026-04-03T12:45:35.999Z</time></trkpt><trkpt lat="43.86876132187346" lon="12.48762933544271"><ele>289.5</ele><time>2026-04-03T12:45:36.999Z</time></trkpt><trkpt lat="43.868630730144595" lon="12.487557839412856"><ele>291.25</ele><time>2026-04-03T12:45:37.999Z</time></trkpt><trkpt lat="43.868518298770745" lon="12.48744540989531"><ele>293.0</ele><time>2026-04-03T12:45:38.999Z</time></trkpt><trkpt lat="43.86844061020697" lon="12.487308654641437"><ele>293.0</ele><time>2026-04-03T12:45:39.999Z</time></trkpt><trkpt lat="43.868383572279456" lon="12.487170542062618"><ele>293.0</ele><time>2026-04-03T12:45:40.999Z</time></trkpt><trkpt lat="43.86833374978425" lon="12.487030967284134"><ele>293.0</ele><time>2026-04-03T12:45:41.999Z</time></trkpt><trkpt lat="43.86826361642009" lon="12.486893468739405"><ele>293.0</ele><time>2026-04-03T12:45:42.999Z</time></trkpt><trkpt lat="43.86817153539055" lon="12.486761078292691"><ele>296.6666666666667</ele><time>2026-04-03T12:45:43.999Z</time></trkpt><trkpt lat="43.86805324145788" lon="12.486648460565991"><ele>300.3333333333333</ele><time>2026-04-03T12:45:44.999Z</time></trkpt><trkpt lat="43.867900786576364" lon="12.48655724228398"><ele>304.0</ele><time>2026-04-03T12:45:45.999Z</time></trkpt><trkpt lat="43.867742987270205" lon="12.486511056947474"><ele>305.5</ele><time>2026-04-03T12:45:46.999Z</time></trkpt><trkpt lat="43.86760637040022" lon="12.48649820268918"><ele>307.0</ele><time>2026-04-03T12:45:47.999Z</time></trkpt><trkpt lat="43.867480723277914" lon="12.486457544648767"><ele>308.5</ele><time>2026-04-03T12:45:48.999Z</time></trkpt><trkpt lat="43.867369494384675" lon="12.486367807104097"><ele>310.0</ele><time>2026-04-03T12:45:49.998Z</time></trkpt><trkpt lat="43.867274353284785" lon="12.486246471394109"><ele>310.0</ele><time>2026-04-03T12:45:50.998Z</time></trkpt><trkpt lat="43.867178113013274" lon="12.486120697138238"><ele>310.0</ele><time>2026-04-03T12:45:51.998Z</time></trkpt><trkpt lat="43.867080962618985" lon="12.48598821965824"><ele>310.0</ele><time>2026-04-03T12:45:53Z</time></trkpt><trkpt lat="43.86698050107305" lon="12.485852857406579"><ele>310.0</ele><time>2026-04-03T12:45:54Z</time></trkpt><trkpt lat="43.86687868028531" lon="12.485708114147728"><ele>310.75</ele><time>2026-04-03T12:45:55Z</time></trkpt><trkpt lat="43.866769294686826" lon="12.485567327875025"><ele>311.5</ele><time>2026-04-03T12:45:56Z</time></trkpt><trkpt lat="43.86664317798921" lon="12.485476779550643"><ele>312.25</ele><time>2026-04-03T12:45:57Z</time></trkpt><trkpt lat="43.86650723505742" lon="12.485412849962751"><ele>313.0</ele><time>2026-04-03T12:45:58Z</time></trkpt><trkpt lat="43.86636838150979" lon="12.485352253213193"><ele>313.0</ele><time>2026-04-03T12:45:59Z</time></trkpt><trkpt lat="43.86624801456722" lon="12.485272048965552"><ele>313.0</ele><time>2026-04-03T12:46:00Z</time></trkpt><trkpt lat="43.866159994597" lon="12.485162220643796"><ele>313.0</ele><time>2026-04-03T12:46:01Z</time></trkpt><trkpt lat="43.866109422975974" lon="12.48502980250237"><ele>313.0</ele><time>2026-04-03T12:46:02Z</time></trkpt><trkpt lat="43.866077389326676" lon="12.48486512243597"><ele>313.0</ele><time>2026-04-03T12:46:03Z</time></trkpt><trkpt lat="43.86605112456969" lon="12.484670200204429"><ele>313.0</ele><time>2026-04-03T12:46:04Z</time></trkpt><trkpt lat="43.86603005331717" lon="12.484448619296442"><ele>313.0</ele><time>2026-04-03T12:46:05Z</time></trkpt><trkpt lat="43.8660092796932" lon="12.484215502418461"><ele>316.66666666666663</ele><time>2026-04-03T12:46:06Z</time></trkpt><trkpt lat="43.86599065457148" lon="12.483977871660858"><ele>320.3333333333333</ele><time>2026-04-03T12:46:07Z</time></trkpt><trkpt lat="43.865975746712245" lon="12.483761028020343"><ele>324.0</ele><time>2026-04-03T12:46:08Z</time></trkpt><trkpt lat="43.8659781222526" lon="12.483556389856135"><ele>325.3333333333333</ele><time>2026-04-03T12:46:09Z</time></trkpt><trkpt lat="43.86600091325356" lon="12.483351636559494"><ele>326.66666666666663</ele><time>2026-04-03T12:46:10Z</time></trkpt><trkpt lat="43.86602345800286" lon="12.483124698605627"><ele>328.0</ele><time>2026-04-03T12:46:11Z</time></trkpt><trkpt lat="43.86603965207748" lon="12.482893650008606"><ele>329.0</ele><time>2026-04-03T12:46:12Z</time></trkpt><trkpt lat="43.866052639466425" lon="12.48266338455778"><ele>330.0</ele><time>2026-04-03T12:46:13Z</time></trkpt><trkpt lat="43.86606029593129" lon="12.482443410017725"><ele>331.0</ele><time>2026-04-03T12:46:14Z</time></trkpt><trkpt lat="43.866052556807105" lon="12.482262974570077"><ele>331.0</ele><time>2026-04-03T12:46:15Z</time></trkpt><trkpt lat="43.86603744882153" lon="12.482101120825435"><ele>331.0</ele><time>2026-04-03T12:46:16Z</time></trkpt><trkpt lat="43.86601040097673" lon="12.481933626688704"><ele>331.0</ele><time>2026-04-03T12:46:17Z</time></trkpt><trkpt lat="43.86597686323886" lon="12.481757122260825"><ele>331.0</ele><time>2026-04-03T12:46:18Z</time></trkpt><trkpt lat="43.86594688655404" lon="12.48157615020418"><ele>330.5</ele><time>2026-04-03T12:46:19Z</time></trkpt><trkpt lat="43.865926112833556" lon="12.481386520324786"><ele>330.0</ele><time>2026-04-03T12:46:20Z</time></trkpt><trkpt lat="43.86590991857266" lon="12.481218591307822"><ele>329.5</ele><time>2026-04-03T12:46:21Z</time></trkpt><trkpt lat="43.86587575351572" lon="12.481071422319582"><ele>329.0</ele><time>2026-04-03T12:46:22Z</time></trkpt><trkpt lat="43.865810805843175" lon="12.48093733814588"><ele>330.5</ele><time>2026-04-03T12:46:23Z</time></trkpt><trkpt lat="43.865718438159455" lon="12.480821596921652"><ele>332.0</ele><time>2026-04-03T12:46:24Z</time></trkpt><trkpt lat="43.865609314896695" lon="12.480725196219591"><ele>333.5</ele><time>2026-04-03T12:46:25Z</time></trkpt><trkpt lat="43.86549036934796" lon="12.480632706130535"><ele>335.0</ele><time>2026-04-03T12:46:26Z</time></trkpt><trkpt lat="43.86537658364549" lon="12.480525917288631"><ele>335.2</ele><time>2026-04-03T12:46:27Z</time></trkpt><trkpt lat="43.86527616512711" lon="12.480426678908177"><ele>335.4</ele><time>2026-04-03T12:46:28Z</time></trkpt><trkpt lat="43.86520969939642" lon="12.480334061418635"><ele>335.6</ele><time>2026-04-03T12:46:29Z</time></trkpt><trkpt lat="43.86515730836722" lon="12.480239168444072"><ele>335.8</ele><time>2026-04-03T12:46:30Z</time></trkpt><trkpt lat="43.86511792709081" lon="12.480135355902465"><ele>336.0</ele><time>2026-04-03T12:46:31Z</time></trkpt><trkpt lat="43.865067351636974" lon="12.480022455423608"><ele>336.0</ele><time>2026-04-03T12:46:32Z</time></trkpt><trkpt lat="43.86501645082144" lon="12.479904409012178"><ele>336.0</ele><time>2026-04-03T12:46:33Z</time></trkpt><trkpt lat="43.86496659143644" lon="12.479771967106485"><ele>336.0</ele><time>2026-04-03T12:46:34Z</time></trkpt><trkpt lat="43.86493688219503" lon="12.479616383575497"><ele>336.0</ele><time>2026-04-03T12:46:35Z</time></trkpt><trkpt lat="43.86489566159092" lon="12.479456740781966"><ele>336.0</ele><time>2026-04-03T12:46:36Z</time></trkpt><trkpt lat="43.86483541218124" lon="12.479292537061921"><ele>339.0</ele><time>2026-04-03T12:46:37Z</time></trkpt><trkpt lat="43.864769119210045" lon="12.479118709750795"><ele>342.0</ele><time>2026-04-03T12:46:38Z</time></trkpt><trkpt lat="43.864703348826204" lon="12.478932550283265"><ele>345.0</ele><time>2026-04-03T12:46:39Z</time></trkpt><trkpt lat="43.864629537969634" lon="12.478742530491461"><ele>348.0</ele><time>2026-04-03T12:46:40Z</time></trkpt><trkpt lat="43.86454355629751" lon="12.47856069199375"><ele>348.0</ele><time>2026-04-03T12:46:40.999Z</time></trkpt><trkpt lat="43.864450267266406" lon="12.478401253975862"><ele>348.0</ele><time>2026-04-03T12:46:41.999Z</time></trkpt><trkpt lat="43.864350398105884" lon="12.478250834496379"><ele>348.0</ele><time>2026-04-03T12:46:42.999Z</time></trkpt><trkpt lat="43.86423306326498" lon="12.478111887565262"><ele>348.0</ele><time>2026-04-03T12:46:43.999Z</time></trkpt><trkpt lat="43.864105288674935" lon="12.47799116167359"><ele>348.0</ele><time>2026-04-03T12:46:44.999Z</time></trkpt><trkpt lat="43.86397022071516" lon="12.4778798526475"><ele>348.0</ele><time>2026-04-03T12:46:45.999Z</time></trkpt><trkpt lat="43.86383154526077" lon="12.477765953996627"><ele>349.6666666666667</ele><time>2026-04-03T12:46:46.999Z</time></trkpt><trkpt lat="43.86367549746665" lon="12.477687245422775"><ele>351.33333333333337</ele><time>2026-04-03T12:46:47.999Z</time></trkpt><trkpt lat="43.86351060359067" lon="12.477635866199828"><ele>353.0</ele><time>2026-04-03T12:46:48.999Z</time></trkpt><trkpt lat="43.86336506274332" lon="12.47758094994803"><ele>353.0</ele><time>2026-04-03T12:46:49.999Z</time></trkpt><trkpt lat="43.86323802070606" lon="12.477502808188977"><ele>353.0</ele><time>2026-04-03T12:46:50.999Z</time></trkpt><trkpt lat="43.86309870333414" lon="12.47743115857632"><ele>353.0</ele><time>2026-04-03T12:46:51.999Z</time></trkpt><trkpt lat="43.86295930942757" lon="12.477313674279738"><ele>353.0</ele><time>2026-04-03T12:46:52.999Z</time></trkpt><trkpt lat="43.86281816574467" lon="12.477191092089528"><ele>353.0</ele><time>2026-04-03T12:46:53.999Z</time></trkpt><trkpt lat="43.862679702981296" lon="12.47707587228005"><ele>353.0</ele><time>2026-04-03T12:46:54.999Z</time></trkpt><trkpt lat="43.86255349591342" lon="12.476963913136832"><ele>354.0</ele><time>2026-04-03T12:46:55.999Z</time></trkpt><trkpt lat="43.86242125541069" lon="12.476860034917356"><ele>355.0</ele><time>2026-04-03T12:46:56.999Z</time></trkpt><trkpt lat="43.862291340915135" lon="12.476750735604863"><ele>356.0</ele><time>2026-04-03T12:46:57.999Z</time></trkpt><trkpt lat="43.862159702810054" lon="12.476642528436981"><ele>356.0</ele><time>2026-04-03T12:46:58.999Z</time></trkpt><trkpt lat="43.86202852957345" lon="12.476533436179016"><ele>356.0</ele><time>2026-04-03T12:46:59.999Z</time></trkpt><trkpt lat="43.861894672408276" lon="12.476425607896344"><ele>356.0</ele><time>2026-04-03T12:47:00.999Z</time></trkpt><trkpt lat="43.86176049668841" lon="12.476316565453347"><ele>357.5</ele><time>2026-04-03T12:47:01.999Z</time></trkpt><trkpt lat="43.86163231764255" lon="12.476203982278811"><ele>359.0</ele><time>2026-04-03T12:47:02.999Z</time></trkpt><trkpt lat="43.86152428959759" lon="12.476109208306598"><ele>360.5</ele><time>2026-04-03T12:47:03.999Z</time></trkpt><trkpt lat="43.861422945358854" lon="12.476024185716163"><ele>362.0</ele><time>2026-04-03T12:47:04.999Z</time></trkpt><trkpt lat="43.86134024788415" lon="12.475951888955205"><ele>362.0</ele><time>2026-04-03T12:47:05.999Z</time></trkpt><trkpt lat="43.861255631798976" lon="12.475872534790742"><ele>362.0</ele><time>2026-04-03T12:47:06.999Z</time></trkpt><trkpt lat="43.861165441933814" lon="12.475777680944129"><ele>362.0</ele><time>2026-04-03T12:47:07.999Z</time></trkpt><trkpt lat="43.861070610602425" lon="12.475674356107817"><ele>362.0</ele><time>2026-04-03T12:47:08.999Z</time></trkpt><trkpt lat="43.860964857784474" lon="12.475559693273482"><ele>361.75</ele><time>2026-04-03T12:47:09.999Z</time></trkpt><trkpt lat="43.860852363279996" lon="12.47543463809424"><ele>361.5</ele><time>2026-04-03T12:47:10.999Z</time></trkpt><trkpt lat="43.86073993957634" lon="12.47531483964241"><ele>361.25</ele><time>2026-04-03T12:47:11.999Z</time></trkpt><trkpt lat="43.86062424039817" lon="12.475187568835496"><ele>361.0</ele><time>2026-04-03T12:47:12.999Z</time></trkpt><trkpt lat="43.86050925014781" lon="12.475060481223744"><ele>361.0</ele><time>2026-04-03T12:47:13.999Z</time></trkpt><trkpt lat="43.86039901041888" lon="12.474945238053346"><ele>361.0</ele><time>2026-04-03T12:47:14.999Z</time></trkpt><trkpt lat="43.86027789182943" lon="12.47484414002757"><ele>361.0</ele><time>2026-04-03T12:47:15.999Z</time></trkpt><trkpt lat="43.86015298689629" lon="12.474773066806145"><ele>361.0</ele><time>2026-04-03T12:47:16.999Z</time></trkpt><trkpt lat="43.86001827252621" lon="12.47472742490521"><ele>357.0</ele><time>2026-04-03T12:47:17.999Z</time></trkpt><trkpt lat="43.85987801637163" lon="12.474702481812706"><ele>353.0</ele><time>2026-04-03T12:47:18.999Z</time></trkpt><trkpt lat="43.85973366144736" lon="12.474681177200594"><ele>349.0</ele><time>2026-04-03T12:47:19.999Z</time></trkpt><trkpt lat="43.85958780724341" lon="12.474695581548305"><ele>345.0</ele><time>2026-04-03T12:47:20.999Z</time></trkpt><trkpt lat="43.85944787810505" lon="12.4747837456998"><ele>345.0</ele><time>2026-04-03T12:47:21.999Z</time></trkpt><trkpt lat="43.85932509679928" lon="12.474862995777224"><ele>345.0</ele><time>2026-04-03T12:47:22.999Z</time></trkpt><trkpt lat="43.859210245884455" lon="12.474919844156068"><ele>345.0</ele><time>2026-04-03T12:47:23.999Z</time></trkpt><trkpt lat="43.85909321214556" lon="12.474924893376729"><ele>345.0</ele><time>2026-04-03T12:47:24.999Z</time></trkpt><trkpt lat="43.858992754004944" lon="12.47488475077125"><ele>346.8</ele><time>2026-04-03T12:47:25.999Z</time></trkpt><trkpt lat="43.85892738674611" lon="12.474799613785061"><ele>348.6</ele><time>2026-04-03T12:47:26.999Z</time></trkpt><trkpt lat="43.858886959888615" lon="12.474689510411451"><ele>350.4</ele><time>2026-04-03T12:47:27.999Z</time></trkpt><trkpt lat="43.85885479061747" lon="12.474561133395726"><ele>352.2</ele><time>2026-04-03T12:47:28.999Z</time></trkpt><trkpt lat="43.858828730785" lon="12.47442367781321"><ele>354.0</ele><time>2026-04-03T12:47:29.999Z</time></trkpt><trkpt lat="43.85879827529429" lon="12.474270444840387"><ele>357.25</ele><time>2026-04-03T12:47:30.999Z</time></trkpt><trkpt lat="43.85875933930689" lon="12.474115428817441"><ele>360.5</ele><time>2026-04-03T12:47:31.999Z</time></trkpt><trkpt lat="43.858718108822536" lon="12.473948196696101"><ele>363.75</ele><time>2026-04-03T12:47:32.999Z</time></trkpt><trkpt lat="43.85866672584159" lon="12.473773580824608"><ele>367.0</ele><time>2026-04-03T12:47:33.999Z</time></trkpt><trkpt lat="43.85860964833086" lon="12.47359301003"><ele>367.5</ele><time>2026-04-03T12:47:34.999Z</time></trkpt><trkpt lat="43.85853979372305" lon="12.47341323600792"><ele>368.0</ele><time>2026-04-03T12:47:35.999Z</time></trkpt><trkpt lat="43.85846380209313" lon="12.473239058969899"><ele>368.5</ele><time>2026-04-03T12:47:36.999Z</time></trkpt><trkpt lat="43.85838483837467" lon="12.473067758498196"><ele>369.0</ele><time>2026-04-03T12:47:37.999Z</time></trkpt><trkpt lat="43.858310460259865" lon="12.472895477275278"><ele>367.5</ele><time>2026-04-03T12:47:38.999Z</time></trkpt><trkpt lat="43.85823911890401" lon="12.472722747622043"><ele>366.0</ele><time>2026-04-03T12:47:39.999Z</time></trkpt><trkpt lat="43.85816853416262" lon="12.47255015164232"><ele>364.5</ele><time>2026-04-03T12:47:40.999Z</time></trkpt><trkpt lat="43.858101910131744" lon="12.472378267624645"><ele>363.0</ele><time>2026-04-03T12:47:41.999Z</time></trkpt><trkpt lat="43.858045102490024" lon="12.472208954340521"><ele>366.0</ele><time>2026-04-03T12:47:42.999Z</time></trkpt><trkpt lat="43.85800666964014" lon="12.472046117278651"><ele>369.0</ele><time>2026-04-03T12:47:43.999Z</time></trkpt><trkpt lat="43.85798344409925" lon="12.471889174030736"><ele>372.0</ele><time>2026-04-03T12:47:44.999Z</time></trkpt><trkpt lat="43.8579725142292" lon="12.471729098391222"><ele>375.0</ele><time>2026-04-03T12:47:45.999Z</time></trkpt><trkpt lat="43.857960509640904" lon="12.47156095095875"><ele>375.0</ele><time>2026-04-03T12:47:46.999Z</time></trkpt><trkpt lat="43.85793627265464" lon="12.471391237806362"><ele>375.0</ele><time>2026-04-03T12:47:47.999Z</time></trkpt><trkpt lat="43.85788750211214" lon="12.47122206625762"><ele>375.0</ele><time>2026-04-03T12:47:48.999Z</time></trkpt><trkpt lat="43.85782871589157" lon="12.471054605466726"><ele>375.0</ele><time>2026-04-03T12:47:49.999Z</time></trkpt><trkpt lat="43.85775646761509" lon="12.470890006502305"><ele>377.0</ele><time>2026-04-03T12:47:50.999Z</time></trkpt><trkpt lat="43.8576601177309" lon="12.470734576296522"><ele>379.0</ele><time>2026-04-03T12:47:51.999Z</time></trkpt><trkpt lat="43.85753902098069" lon="12.470598147869623"><ele>381.0</ele><time>2026-04-03T12:47:52.999Z</time></trkpt><trkpt lat="43.857405620990185" lon="12.470478781547882"><ele>382.25</ele><time>2026-04-03T12:47:53.999Z</time></trkpt><trkpt lat="43.85727559803677" lon="12.470350988602407"><ele>383.5</ele><time>2026-04-03T12:47:54.999Z</time></trkpt><trkpt lat="43.857151810400076" lon="12.470252055679023"><ele>384.75</ele><time>2026-04-03T12:47:55.998Z</time></trkpt><trkpt lat="43.85704471762339" lon="12.470146729995502"><ele>386.0</ele><time>2026-04-03T12:47:56.998Z</time></trkpt><trkpt lat="43.8569337782624" lon="12.470024607893272"><ele>386.0</ele><time>2026-04-03T12:47:57.998Z</time></trkpt><trkpt lat="43.85684145879411" lon="12.46985859095693"><ele>386.0</ele><time>2026-04-03T12:47:59Z</time></trkpt><trkpt lat="43.856750009926586" lon="12.469700413589955"><ele>386.0</ele><time>2026-04-03T12:48:00Z</time></trkpt><trkpt lat="43.85665378230121" lon="12.469541635611108"><ele>386.0</ele><time>2026-04-03T12:48:01Z</time></trkpt><trkpt lat="43.856558044138566" lon="12.469385263646007"><ele>385.66666666666663</ele><time>2026-04-03T12:48:02Z</time></trkpt><trkpt lat="43.85645906248119" lon="12.469230414550111"><ele>385.33333333333337</ele><time>2026-04-03T12:48:03Z</time></trkpt><trkpt lat="43.85635249244212" lon="12.469071170415742"><ele>385.0</ele><time>2026-04-03T12:48:04Z</time></trkpt><trkpt lat="43.856236034752925" lon="12.468913909435534"><ele>383.6666666666667</ele><time>2026-04-03T12:48:05Z</time></trkpt><trkpt lat="43.856110496383245" lon="12.468761579319972"><ele>382.33333333333337</ele><time>2026-04-03T12:48:06Z</time></trkpt><trkpt lat="43.85596886117815" lon="12.468619588344453"><ele>381.0</ele><time>2026-04-03T12:48:07Z</time></trkpt><trkpt lat="43.855825617251746" lon="12.468485561349599"><ele>381.0</ele><time>2026-04-03T12:48:08Z</time></trkpt><trkpt lat="43.85568309128334" lon="12.468375010149638"><ele>381.0</ele><time>2026-04-03T12:48:09Z</time></trkpt><trkpt lat="43.855516716198025" lon="12.468290076669092"><ele>381.0</ele><time>2026-04-03T12:48:10Z</time></trkpt><trkpt lat="43.85534827394044" lon="12.468220444254662"><ele>381.0</ele><time>2026-04-03T12:48:11Z</time></trkpt><trkpt lat="43.85517659767724" lon="12.468170491862196"><ele>381.0</ele><time>2026-04-03T12:48:12Z</time></trkpt><trkpt lat="43.85502706736738" lon="12.468060778520611"><ele>381.0</ele><time>2026-04-03T12:48:13Z</time></trkpt><trkpt lat="43.854878142065374" lon="12.46796873887648"><ele>385.66666666666663</ele><time>2026-04-03T12:48:14Z</time></trkpt><trkpt lat="43.85472689781797" lon="12.467872952409467"><ele>390.3333333333333</ele><time>2026-04-03T12:48:15Z</time></trkpt><trkpt lat="43.8545879563827" lon="12.46774185945865"><ele>395.0</ele><time>2026-04-03T12:48:16Z</time></trkpt><trkpt lat="43.85444971293237" lon="12.46759283713448"><ele>395.0</ele><time>2026-04-03T12:48:17Z</time></trkpt><trkpt lat="43.85429566149383" lon="12.467469992007903"><ele>395.0</ele><time>2026-04-03T12:48:18Z</time></trkpt><trkpt lat="43.85413077231504" lon="12.467388898157525"><ele>395.0</ele><time>2026-04-03T12:48:19Z</time></trkpt><trkpt lat="43.85396161021113" lon="12.467318647087849"><ele>387.66666666666663</ele><time>2026-04-03T12:48:20Z</time></trkpt><trkpt lat="43.85379193064939" lon="12.467222242494687"><ele>380.3333333333333</ele><time>2026-04-03T12:48:21Z</time></trkpt><trkpt lat="43.8536087274013" lon="12.467187228218675"><ele>373.0</ele><time>2026-04-03T12:48:22Z</time></trkpt><trkpt lat="43.85343605271666" lon="12.46719539167997"><ele>367.66666666666663</ele><time>2026-04-03T12:48:23Z</time></trkpt><trkpt lat="43.853283767753936" lon="12.4671805877375"><ele>362.3333333333333</ele><time>2026-04-03T12:48:24Z</time></trkpt><trkpt lat="43.853129158088464" lon="12.467138174040663"><ele>357.0</ele><time>2026-04-03T12:48:25Z</time></trkpt><trkpt lat="43.85298160736546" lon="12.46710882990017"><ele>359.75</ele><time>2026-04-03T12:48:26Z</time></trkpt><trkpt lat="43.85285753344536" lon="12.467024675757767"><ele>362.5</ele><time>2026-04-03T12:48:27Z</time></trkpt><trkpt lat="43.85275683216707" lon="12.466907893274378"><ele>365.25</ele><time>2026-04-03T12:48:28Z</time></trkpt><trkpt lat="43.85267551574605" lon="12.466755742611882"><ele>368.0</ele><time>2026-04-03T12:48:29Z</time></trkpt><trkpt lat="43.8526109836027" lon="12.466577567101059"><ele>368.0</ele><time>2026-04-03T12:48:30Z</time></trkpt><trkpt lat="43.8525466002941" lon="12.466396977786568"><ele>368.0</ele><time>2026-04-03T12:48:31Z</time></trkpt><trkpt lat="43.85244384988149" lon="12.466247454186872"><ele>368.0</ele><time>2026-04-03T12:48:32Z</time></trkpt><trkpt lat="43.85229883610315" lon="12.466136234172456"><ele>371.6666666666667</ele><time>2026-04-03T12:48:33Z</time></trkpt><trkpt lat="43.852126301007964" lon="12.466026215457504"><ele>375.3333333333333</ele><time>2026-04-03T12:48:34Z</time></trkpt><trkpt lat="43.851947215897006" lon="12.465960540786291"><ele>379.0</ele><time>2026-04-03T12:48:35Z</time></trkpt><trkpt lat="43.85180829568988" lon="12.465815958198343"><ele>379.3333333333333</ele><time>2026-04-03T12:48:36Z</time></trkpt><trkpt lat="43.85166070249311" lon="12.465675575301981"><ele>379.6666666666667</ele><time>2026-04-03T12:48:37Z</time></trkpt><trkpt lat="43.85153404933342" lon="12.465496576541911"><ele>380.0</ele><time>2026-04-03T12:48:38Z</time></trkpt><trkpt lat="43.851405559667704" lon="12.465312560932638"><ele>380.0</ele><time>2026-04-03T12:48:39Z</time></trkpt><trkpt lat="43.85127330687635" lon="12.465134501122368"><ele>380.0</ele><time>2026-04-03T12:48:40Z</time></trkpt><trkpt lat="43.851118680843534" lon="12.464985978385807"><ele>380.0</ele><time>2026-04-03T12:48:41Z</time></trkpt><trkpt lat="43.850950839052" lon="12.464862542765884"><ele>376.6666666666667</ele><time>2026-04-03T12:48:42Z</time></trkpt><trkpt lat="43.85077497786665" lon="12.4647555795036"><ele>373.3333333333333</ele><time>2026-04-03T12:48:42.999Z</time></trkpt><trkpt lat="43.85060622296899" lon="12.464650122091394"><ele>370.0</ele><time>2026-04-03T12:48:43.999Z</time></trkpt><trkpt lat="43.85044375335474" lon="12.464544581734133"><ele>370.0</ele><time>2026-04-03T12:48:44.999Z</time></trkpt><trkpt lat="43.85028266282341" lon="12.464441891893173"><ele>370.0</ele><time>2026-04-03T12:48:45.999Z</time></trkpt><trkpt lat="43.850138098182185" lon="12.464347201079265"><ele>370.0</ele><time>2026-04-03T12:48:46.999Z</time></trkpt><trkpt lat="43.85001772289626" lon="12.464230195401065"><ele>369.0</ele><time>2026-04-03T12:48:47.999Z</time></trkpt><trkpt lat="43.84991867269163" lon="12.464088361611482"><ele>368.0</ele><time>2026-04-03T12:48:48.999Z</time></trkpt><trkpt lat="43.84983133776959" lon="12.463925140392995"><ele>367.0</ele><time>2026-04-03T12:48:49.999Z</time></trkpt><trkpt lat="43.84974609510003" lon="12.463760031469294"><ele>366.0</ele><time>2026-04-03T12:48:50.999Z</time></trkpt><trkpt lat="43.849660088570324" lon="12.463590584931113"><ele>369.0</ele><time>2026-04-03T12:48:51.999Z</time></trkpt><trkpt lat="43.849573981069014" lon="12.463412783367218"><ele>372.0</ele><time>2026-04-03T12:48:52.999Z</time></trkpt><trkpt lat="43.84948845057056" lon="12.463223375358202"><ele>375.0</ele><time>2026-04-03T12:48:53.999Z</time></trkpt><trkpt lat="43.84939909558774" lon="12.463026616717828"><ele>375.3333333333333</ele><time>2026-04-03T12:48:54.999Z</time></trkpt><trkpt lat="43.84930925846606" lon="12.462827768254233"><ele>375.66666666666663</ele><time>2026-04-03T12:48:55.999Z</time></trkpt><trkpt lat="43.849223626869524" lon="12.462635630807894"><ele>376.0</ele><time>2026-04-03T12:48:56.999Z</time></trkpt><trkpt lat="43.84913610768305" lon="12.46244243061028"><ele>376.0</ele><time>2026-04-03T12:48:57.999Z</time></trkpt><trkpt lat="43.849044287989244" lon="12.462249145576747"><ele>376.0</ele><time>2026-04-03T12:48:58.999Z</time></trkpt><trkpt lat="43.84895450725765" lon="12.462051820998912"><ele>376.0</ele><time>2026-04-03T12:48:59.999Z</time></trkpt><trkpt lat="43.848862996081245" lon="12.461854153269556"><ele>380.3333333333333</ele><time>2026-04-03T12:49:00.999Z</time></trkpt><trkpt lat="43.848774947917086" lon="12.461663459017663"><ele>384.66666666666663</ele><time>2026-04-03T12:49:01.999Z</time></trkpt><trkpt lat="43.84869731648962" lon="12.46148929419547"><ele>389.0</ele><time>2026-04-03T12:49:02.999Z</time></trkpt><trkpt lat="43.84862007499409" lon="12.461319423691597"><ele>386.75</ele><time>2026-04-03T12:49:03.999Z</time></trkpt><trkpt lat="43.84854014514758" lon="12.461149115149881"><ele>384.5</ele><time>2026-04-03T12:49:04.999Z</time></trkpt><trkpt lat="43.84845365889442" lon="12.460980363122498"><ele>382.25</ele><time>2026-04-03T12:49:05.999Z</time></trkpt><trkpt lat="43.84837016938646" lon="12.460814077641391"><ele>380.0</ele><time>2026-04-03T12:49:06.999Z</time></trkpt><trkpt lat="43.848276565347106" lon="12.460651450286914"><ele>380.0</ele><time>2026-04-03T12:49:07.999Z</time></trkpt><trkpt lat="43.84816410789665" lon="12.460504562898945"><ele>380.0</ele><time>2026-04-03T12:49:08.999Z</time></trkpt><trkpt lat="43.84804241374353" lon="12.460368299902402"><ele>380.0</ele><time>2026-04-03T12:49:09.999Z</time></trkpt><trkpt lat="43.84791231655174" lon="12.460234720973677"><ele>380.0</ele><time>2026-04-03T12:49:10.999Z</time></trkpt><trkpt lat="43.84778426689357" lon="12.460103283993572"><ele>380.0</ele><time>2026-04-03T12:49:11.999Z</time></trkpt><trkpt lat="43.847659013658664" lon="12.459969217033503"><ele>380.0</ele><time>2026-04-03T12:49:12.999Z</time></trkpt><trkpt lat="43.84753183213132" lon="12.459834867821591"><ele>380.0</ele><time>2026-04-03T12:49:13.999Z</time></trkpt><trkpt lat="43.847409455738905" lon="12.459701129016867"><ele>380.0</ele><time>2026-04-03T12:49:14.999Z</time></trkpt><trkpt lat="43.84728787086559" lon="12.45956107418803"><ele>380.0</ele><time>2026-04-03T12:49:15.999Z</time></trkpt><trkpt lat="43.84717135826736" lon="12.459411212269371"><ele>383.5</ele><time>2026-04-03T12:49:16.999Z</time></trkpt><trkpt lat="43.84706633762665" lon="12.459245143206548"><ele>387.0</ele><time>2026-04-03T12:49:17.999Z</time></trkpt><trkpt lat="43.8469757474002" lon="12.45907961417422"><ele>390.5</ele><time>2026-04-03T12:49:18.999Z</time></trkpt><trkpt lat="43.84690048952668" lon="12.458928354139795"><ele>394.0</ele><time>2026-04-03T12:49:19.999Z</time></trkpt><trkpt lat="43.8468266177264" lon="12.458776694891615"><ele>392.5</ele><time>2026-04-03T12:49:20.999Z</time></trkpt><trkpt lat="43.846749860000465" lon="12.458625987896314"><ele>391.0</ele><time>2026-04-03T12:49:21.999Z</time></trkpt><trkpt lat="43.84667097497887" lon="12.458478513146352"><ele>389.5</ele><time>2026-04-03T12:49:22.999Z</time></trkpt><trkpt lat="43.846598489" lon="12.4583385105222"><ele>388.0</ele><time>2026-04-03T12:49:23.999Z</time></trkpt><trkpt lat="43.84653120010544" lon="12.458205846396663"><ele>388.0</ele><time>2026-04-03T12:49:24.999Z</time></trkpt><trkpt lat="43.84646782016658" lon="12.458084237695466"><ele>388.0</ele><time>2026-04-03T12:49:25.999Z</time></trkpt><trkpt lat="43.84640234018104" lon="12.457957551062975"><ele>388.0</ele><time>2026-04-03T12:49:26.999Z</time></trkpt><trkpt lat="43.846329352857744" lon="12.457819259455992"><ele>388.0</ele><time>2026-04-03T12:49:27.999Z</time></trkpt><trkpt lat="43.84625010326664" lon="12.457671988122437"><ele>390.25</ele><time>2026-04-03T12:49:28.999Z</time></trkpt><trkpt lat="43.846169600664915" lon="12.457514434501958"><ele>392.5</ele><time>2026-04-03T12:49:29.999Z</time></trkpt><trkpt lat="43.84608733757741" lon="12.457353197109404"><ele>394.75</ele><time>2026-04-03T12:49:30.999Z</time></trkpt><trkpt lat="43.84600425726602" lon="12.457186961354026"><ele>397.0</ele><time>2026-04-03T12:49:31.999Z</time></trkpt><trkpt lat="43.84591892588654" lon="12.457015442464504"><ele>397.0</ele><time>2026-04-03T12:49:32.999Z</time></trkpt><trkpt lat="43.845829214417144" lon="12.45684812305995"><ele>397.0</ele><time>2026-04-03T12:49:33.999Z</time></trkpt><trkpt lat="43.84573583824657" lon="12.45667306394725"><ele>397.0</ele><time>2026-04-03T12:49:34.999Z</time></trkpt><trkpt lat="43.845645963972885" lon="12.45649391762688"><ele>397.0</ele><time>2026-04-03T12:49:35.999Z</time></trkpt><trkpt lat="43.84555716827168" lon="12.456308196566678"><ele>397.0</ele><time>2026-04-03T12:49:36.999Z</time></trkpt><trkpt lat="43.84547107852657" lon="12.45611476904493"><ele>397.0</ele><time>2026-04-03T12:49:37.999Z</time></trkpt><trkpt lat="43.84539581513649" lon="12.455915046562684"><ele>400.0</ele><time>2026-04-03T12:49:38.999Z</time></trkpt><trkpt lat="43.84533046541746" lon="12.455709963079691"><ele>403.0</ele><time>2026-04-03T12:49:39.999Z</time></trkpt><trkpt lat="43.84526539211035" lon="12.455510420295555"><ele>406.0</ele><time>2026-04-03T12:49:40.999Z</time></trkpt><trkpt lat="43.84519319835607" lon="12.455316001875913"><ele>405.25</ele><time>2026-04-03T12:49:41.999Z</time></trkpt><trkpt lat="43.84511152408113" lon="12.455136081718898"><ele>404.5</ele><time>2026-04-03T12:49:42.999Z</time></trkpt><trkpt lat="43.84502201573212" lon="12.454975826567736"><ele>403.75</ele><time>2026-04-03T12:49:43.999Z</time></trkpt><trkpt lat="43.844915526959184" lon="12.45483799383371"><ele>403.0</ele><time>2026-04-03T12:49:44.999Z</time></trkpt><trkpt lat="43.844803761379396" lon="12.454688796401875"><ele>406.6666666666667</ele><time>2026-04-03T12:49:45.999Z</time></trkpt><trkpt lat="43.84465028458641" lon="12.454596447992532"><ele>410.33333333333337</ele><time>2026-04-03T12:49:46.999Z</time></trkpt><trkpt lat="43.84450805472614" lon="12.454466970223484"><ele>414.0</ele><time>2026-04-03T12:49:47.999Z</time></trkpt><trkpt lat="43.84436203097198" lon="12.454356397576086"><ele>410.33333333333337</ele><time>2026-04-03T12:49:48.999Z</time></trkpt><trkpt lat="43.844205255301304" lon="12.454255713595392"><ele>406.6666666666667</ele><time>2026-04-03T12:49:49.999Z</time></trkpt><trkpt lat="43.84407533720366" lon="12.45411550175051"><ele>403.0</ele><time>2026-04-03T12:49:50.999Z</time></trkpt><trkpt lat="43.84396110259731" lon="12.453939593266378"><ele>409.33333333333337</ele><time>2026-04-03T12:49:51.999Z</time></trkpt><trkpt lat="43.843857753771665" lon="12.453741113166734"><ele>415.66666666666663</ele><time>2026-04-03T12:49:52.999Z</time></trkpt><trkpt lat="43.843751472982554" lon="12.453532251944596"><ele>422.0</ele><time>2026-04-03T12:49:53.999Z</time></trkpt><trkpt lat="43.84365687947106" lon="12.453352157086655"><ele>422.0</ele><time>2026-04-03T12:49:54.999Z</time></trkpt><trkpt lat="43.84357325466534" lon="12.453188915128814"><ele>422.0</ele><time>2026-04-03T12:49:55.999Z</time></trkpt><trkpt lat="43.8435203869752" lon="12.453023787391821"><ele>422.0</ele><time>2026-04-03T12:49:56.999Z</time></trkpt><trkpt lat="43.843502553816734" lon="12.452851352497786"><ele>422.0</ele><time>2026-04-03T12:49:57.999Z</time></trkpt><trkpt lat="43.84351644468569" lon="12.452674189349736"><ele>423.5</ele><time>2026-04-03T12:49:58.998Z</time></trkpt><trkpt lat="43.84357351931842" lon="12.452523174026785"><ele>425.0</ele><time>2026-04-03T12:49:59.998Z</time></trkpt><trkpt lat="43.84365933381705" lon="12.452413714232879"><ele>426.5</ele><time>2026-04-03T12:50:00.998Z</time></trkpt><trkpt lat="43.84377777726293" lon="12.45232174639432"><ele>428.0</ele><time>2026-04-03T12:50:01.998Z</time></trkpt><trkpt lat="43.84391683899215" lon="12.452250098975362"><ele>428.0</ele><time>2026-04-03T12:50:02.998Z</time></trkpt><trkpt lat="43.84405882851081" lon="12.45216256975948"><ele>428.0</ele><time>2026-04-03T12:50:03.998Z</time></trkpt><trkpt lat="43.844183189480034" lon="12.452050131744054"><ele>428.0</ele><time>2026-04-03T12:50:05Z</time></trkpt><trkpt lat="43.84426680771488" lon="12.451957610119802"><ele>428.0</ele><time>2026-04-03T12:50:06Z</time></trkpt><trkpt lat="43.84432323300649" lon="12.451845313166809"><ele>428.59999999999997</ele><time>2026-04-03T12:50:07Z</time></trkpt><trkpt lat="43.84434808637571" lon="12.451697280310679"><ele>429.19999999999993</ele><time>2026-04-03T12:50:08Z</time></trkpt><trkpt lat="43.844328012335396" lon="12.451541062936487"><ele>429.8</ele><time>2026-04-03T12:50:09Z</time></trkpt><trkpt lat="43.84425912149303" lon="12.45142430534671"><ele>430.4</ele><time>2026-04-03T12:50:10Z</time></trkpt><trkpt lat="43.84417289902984" lon="12.451329643803865"><ele>431.0</ele><time>2026-04-03T12:50:11Z</time></trkpt><trkpt lat="43.84402282382178" lon="12.45131963807244"><ele>429.0</ele><time>2026-04-03T12:50:12Z</time></trkpt><trkpt lat="43.84386169146004" lon="12.451318377849336"><ele>427.0</ele><time>2026-04-03T12:50:13Z</time></trkpt><trkpt lat="43.84370050156173" lon="12.45130344266806"><ele>425.0</ele><time>2026-04-03T12:50:14Z</time></trkpt><trkpt lat="43.84356651570603" lon="12.451272486227461"><ele>426.0</ele><time>2026-04-03T12:50:15Z</time></trkpt><trkpt lat="43.84344937575497" lon="12.451227507786172"><ele>427.0</ele><time>2026-04-03T12:50:16Z</time></trkpt><trkpt lat="43.84334198586037" lon="12.451163021406146"><ele>428.0</ele><time>2026-04-03T12:50:17Z</time></trkpt><trkpt lat="43.84324608904959" lon="12.451078784266636"><ele>429.0</ele><time>2026-04-03T12:50:18Z</time></trkpt><trkpt lat="43.84318824102244" lon="12.450946068270154"><ele>429.0</ele><time>2026-04-03T12:50:19Z</time></trkpt><trkpt lat="43.843163064923175" lon="12.450795440394534"><ele>429.0</ele><time>2026-04-03T12:50:20Z</time></trkpt><trkpt lat="43.84316350239182" lon="12.450631251246145"><ele>429.0</ele><time>2026-04-03T12:50:21Z</time></trkpt><trkpt lat="43.843183311891714" lon="12.450463464066686"><ele>429.0</ele><time>2026-04-03T12:50:22Z</time></trkpt><trkpt lat="43.843215749715256" lon="12.450293081161828"><ele>429.5</ele><time>2026-04-03T12:50:23Z</time></trkpt><trkpt lat="43.84325316746409" lon="12.450124171637421"><ele>430.0</ele><time>2026-04-03T12:50:24Z</time></trkpt><trkpt lat="43.84329395635709" lon="12.449955017299501"><ele>430.5</ele><time>2026-04-03T12:50:25Z</time></trkpt><trkpt lat="43.843326568585084" lon="12.44980672112531"><ele>431.0</ele><time>2026-04-03T12:50:26Z</time></trkpt><trkpt lat="43.8433508982078" lon="12.449662793231179"><ele>431.5</ele><time>2026-04-03T12:50:27Z</time></trkpt><trkpt lat="43.84338002316608" lon="12.449514811690138"><ele>432.0</ele><time>2026-04-03T12:50:28Z</time></trkpt><trkpt lat="43.843415417128064" lon="12.449359311439425"><ele>432.5</ele><time>2026-04-03T12:50:29Z</time></trkpt><trkpt lat="43.84346099083313" lon="12.449202171897111"><ele>433.0</ele><time>2026-04-03T12:50:30Z</time></trkpt><trkpt lat="43.84351756561649" lon="12.44905372342075"><ele>434.25</ele><time>2026-04-03T12:50:31Z</time></trkpt><trkpt lat="43.84357985923098" lon="12.448903825413902"><ele>435.5</ele><time>2026-04-03T12:50:32Z</time></trkpt><trkpt lat="43.84364661318413" lon="12.448746293168494"><ele>436.75</ele><time>2026-04-03T12:50:33Z</time></trkpt><trkpt lat="43.84371621478167" lon="12.448573889283994"><ele>438.0</ele><time>2026-04-03T12:50:34Z</time></trkpt><trkpt lat="43.84378562052666" lon="12.448398650147876"><ele>438.5</ele><time>2026-04-03T12:50:35Z</time></trkpt><trkpt lat="43.8438500322896" lon="12.448235368025468"><ele>439.0</ele><time>2026-04-03T12:50:36Z</time></trkpt><trkpt lat="43.843912680486795" lon="12.448081070028818"><ele>439.5</ele><time>2026-04-03T12:50:37Z</time></trkpt><trkpt lat="43.84397798772907" lon="12.447928203845576"><ele>440.0</ele><time>2026-04-03T12:50:38Z</time></trkpt><trkpt lat="43.84404399199253" lon="12.447776097271198"><ele>440.5</ele><time>2026-04-03T12:50:39Z</time></trkpt><trkpt lat="43.84410795505852" lon="12.44761824295043"><ele>441.0</ele><time>2026-04-03T12:50:40Z</time></trkpt><trkpt lat="43.84416995517832" lon="12.447455790799026"><ele>441.5</ele><time>2026-04-03T12:50:41Z</time></trkpt><trkpt lat="43.844236367390465" lon="12.447288950822267"><ele>442.0</ele><time>2026-04-03T12:50:42Z</time></trkpt><trkpt lat="43.84430324404771" lon="12.447117733910186"><ele>443.75</ele><time>2026-04-03T12:50:43Z</time></trkpt><trkpt lat="43.84437301201521" lon="12.446944259068292"><ele>445.5</ele><time>2026-04-03T12:50:44Z</time></trkpt><trkpt lat="43.84444548858541" lon="12.44677006907674"><ele>447.25</ele><time>2026-04-03T12:50:45Z</time></trkpt><trkpt lat="43.84451890079696" lon="12.446593838934861"><ele>449.0</ele><time>2026-04-03T12:50:46Z</time></trkpt><trkpt lat="43.84459651054244" lon="12.44641766218824"><ele>448.66666666666663</ele><time>2026-04-03T12:50:47Z</time></trkpt><trkpt lat="43.84467689984821" lon="12.446238476167311"><ele>448.33333333333337</ele><time>2026-04-03T12:50:48Z</time></trkpt><trkpt lat="43.8447567564985" lon="12.446050903888755"><ele>448.0</ele><time>2026-04-03T12:50:48.999Z</time></trkpt><trkpt lat="43.844824628256575" lon="12.445849158638708"><ele>448.0</ele><time>2026-04-03T12:50:49.999Z</time></trkpt><trkpt lat="43.84487752624936" lon="12.445633983615792"><ele>448.0</ele><time>2026-04-03T12:50:50.999Z</time></trkpt><trkpt lat="43.84490653695226" lon="12.445424970606892"><ele>448.0</ele><time>2026-04-03T12:50:51.999Z</time></trkpt><trkpt lat="43.84492849038349" lon="12.445209785853484"><ele>446.6666666666667</ele><time>2026-04-03T12:50:52.999Z</time></trkpt><trkpt lat="43.84494196719598" lon="12.44499088455299"><ele>445.33333333333337</ele><time>2026-04-03T12:50:53.999Z</time></trkpt><trkpt lat="43.8449497918047" lon="12.444770764878962"><ele>444.0</ele><time>2026-04-03T12:50:54.999Z</time></trkpt><trkpt lat="43.844955150981164" lon="12.444547232596848"><ele>442.66666666666663</ele><time>2026-04-03T12:50:55.999Z</time></trkpt><trkpt lat="43.84495987871568" lon="12.44432198229738"><ele>441.3333333333333</ele><time>2026-04-03T12:50:56.999Z</time></trkpt><trkpt lat="43.84496484671853" lon="12.444091966438684"><ele>440.0</ele><time>2026-04-03T12:50:57.999Z</time></trkpt><trkpt lat="43.84497206369619" lon="12.443870338046915"><ele>439.75</ele><time>2026-04-03T12:50:58.999Z</time></trkpt><trkpt lat="43.84497769073659" lon="12.443663701915202"><ele>439.5</ele><time>2026-04-03T12:50:59.999Z</time></trkpt><trkpt lat="43.844985153318206" lon="12.443467328260589"><ele>439.25</ele><time>2026-04-03T12:51:00.999Z</time></trkpt><trkpt lat="43.8449958622409" lon="12.443274317323361"><ele>439.0</ele><time>2026-04-03T12:51:01.999Z</time></trkpt><trkpt lat="43.84501697452233" lon="12.443086202151477"><ele>438.0</ele><time>2026-04-03T12:51:02.999Z</time></trkpt><trkpt lat="43.84506678638111" lon="12.44291344796386"><ele>437.0</ele><time>2026-04-03T12:51:03.999Z</time></trkpt><trkpt lat="43.84514543372346" lon="12.442777596723003"><ele>436.0</ele><time>2026-04-03T12:51:04.999Z</time></trkpt><trkpt lat="43.845246878714015" lon="12.44266461419003"><ele>435.0</ele><time>2026-04-03T12:51:05.999Z</time></trkpt><trkpt lat="43.84535777402246" lon="12.442568672062047"><ele>438.75</ele><time>2026-04-03T12:51:06.999Z</time></trkpt><trkpt lat="43.84548733727467" lon="12.442490045797728"><ele>442.5</ele><time>2026-04-03T12:51:07.999Z</time></trkpt><trkpt lat="43.84563097675143" lon="12.442429152012807"><ele>446.25</ele><time>2026-04-03T12:51:08.999Z</time></trkpt><trkpt lat="43.84577740031376" lon="12.442367401511596"><ele>450.0</ele><time>2026-04-03T12:51:09.999Z</time></trkpt><trkpt lat="43.84592472188367" lon="12.442299616290077"><ele>450.25</ele><time>2026-04-03T12:51:10.999Z</time></trkpt><trkpt lat="43.846059212951154" lon="12.442242427784718"><ele>450.5</ele><time>2026-04-03T12:51:11.999Z</time></trkpt><trkpt lat="43.84617730869692" lon="12.44217761535261"><ele>450.75</ele><time>2026-04-03T12:51:12.999Z</time></trkpt><trkpt lat="43.84627198413249" lon="12.44209275966778"><ele>451.0</ele><time>2026-04-03T12:51:13.999Z</time></trkpt><trkpt lat="43.846349226114576" lon="12.4419478749102"><ele>451.0</ele><time>2026-04-03T12:51:14.999Z</time></trkpt><trkpt lat="43.84639211934029" lon="12.441775186430833"><ele>451.0</ele><time>2026-04-03T12:51:15.999Z</time></trkpt><trkpt lat="43.84641573342809" lon="12.441580767869548"><ele>451.0</ele><time>2026-04-03T12:51:16.999Z</time></trkpt><trkpt lat="43.8464342742398" lon="12.441371260131275"><ele>451.0</ele><time>2026-04-03T12:51:17.999Z</time></trkpt><trkpt lat="43.84644163819149" lon="12.44116599949286"><ele>452.25</ele><time>2026-04-03T12:51:18.999Z</time></trkpt><trkpt lat="43.846416227073355" lon="12.440981620281898"><ele>453.5</ele><time>2026-04-03T12:51:19.999Z</time></trkpt><trkpt lat="43.846358527100904" lon="12.440802367216802"><ele>454.75</ele><time>2026-04-03T12:51:20.999Z</time></trkpt><trkpt lat="43.846264701031565" lon="12.440630202406727"><ele>456.0</ele><time>2026-04-03T12:51:21.999Z</time></trkpt><trkpt lat="43.84612316845514" lon="12.440471545177783"><ele>453.66666666666663</ele><time>2026-04-03T12:51:22.999Z</time></trkpt><trkpt lat="43.84598993025311" lon="12.440301986406613"><ele>451.3333333333333</ele><time>2026-04-03T12:51:23.999Z</time></trkpt><trkpt lat="43.845865107392505" lon="12.440164877028554"><ele>449.0</ele><time>2026-04-03T12:51:24.999Z</time></trkpt><trkpt lat="43.84575000737686" lon="12.440046519639225"><ele>449.0</ele><time>2026-04-03T12:51:25.999Z</time></trkpt><trkpt lat="43.845697795307075" lon="12.439895234222915"><ele>449.0</ele><time>2026-04-03T12:51:26.999Z</time></trkpt><trkpt lat="43.845675817480135" lon="12.439715705407668"><ele>449.0</ele><time>2026-04-03T12:51:27.999Z</time></trkpt><trkpt lat="43.8456877056752" lon="12.439519436282932"><ele>449.0</ele><time>2026-04-03T12:51:28.999Z</time></trkpt><trkpt lat="43.84569572205932" lon="12.439309573165328"><ele>450.0</ele><time>2026-04-03T12:51:29.999Z</time></trkpt><trkpt lat="43.8456998941955" lon="12.439083176904798"><ele>451.0</ele><time>2026-04-03T12:51:30.999Z</time></trkpt><trkpt lat="43.8457051262759" lon="12.438865436021393"><ele>452.0</ele><time>2026-04-03T12:51:31.999Z</time></trkpt><trkpt lat="43.845712575254986" lon="12.4386513143601"><ele>452.0</ele><time>2026-04-03T12:51:32.999Z</time></trkpt><trkpt lat="43.84572106405223" lon="12.438432735657004"><ele>452.0</ele><time>2026-04-03T12:51:33.999Z</time></trkpt><trkpt lat="43.845733163967644" lon="12.43821478153842"><ele>452.0</ele><time>2026-04-03T12:51:34.999Z</time></trkpt><trkpt lat="43.845745057991614" lon="12.437994350132621"><ele>452.0</ele><time>2026-04-03T12:51:35.999Z</time></trkpt><trkpt lat="43.84575977036568" lon="12.437775867960847"><ele>452.0</ele><time>2026-04-03T12:51:36.999Z</time></trkpt><trkpt lat="43.845772728144226" lon="12.43756502826981"><ele>452.0</ele><time>2026-04-03T12:51:37.999Z</time></trkpt><trkpt lat="43.84578383884478" lon="12.437356215224236"><ele>452.0</ele><time>2026-04-03T12:51:38.999Z</time></trkpt><trkpt lat="43.8457884837811" lon="12.437148743756087"><ele>452.0</ele><time>2026-04-03T12:51:39.999Z</time></trkpt><trkpt lat="43.84577924895605" lon="12.436936034283818"><ele>452.0</ele><time>2026-04-03T12:51:40.999Z</time></trkpt><trkpt lat="43.845764483096296" lon="12.436721108629955"><ele>452.3333333333333</ele><time>2026-04-03T12:51:41.999Z</time></trkpt><trkpt lat="43.845749398926266" lon="12.436507863804742"><ele>452.66666666666663</ele><time>2026-04-03T12:51:42.999Z</time></trkpt><trkpt lat="43.84573432342081" lon="12.436292389264121"><ele>453.0</ele><time>2026-04-03T12:51:43.999Z</time></trkpt><trkpt lat="43.84572317640931" lon="12.436075861429993"><ele>454.33333333333337</ele><time>2026-04-03T12:51:44.999Z</time></trkpt><trkpt lat="43.84571527914373" lon="12.43585797055897"><ele>455.6666666666667</ele><time>2026-04-03T12:51:45.999Z</time></trkpt><trkpt lat="43.84570821405055" lon="12.435636332519847"><ele>457.0</ele><time>2026-04-03T12:51:46.999Z</time></trkpt><trkpt lat="43.84569653458927" lon="12.435409129680258"><ele>457.6666666666667</ele><time>2026-04-03T12:51:47.999Z</time></trkpt><trkpt lat="43.84568458145213" lon="12.435188691704953"><ele>458.33333333333337</ele><time>2026-04-03T12:51:48.999Z</time></trkpt><trkpt lat="43.845675997180116" lon="12.434977231449826"><ele>459.0</ele><time>2026-04-03T12:51:49.999Z</time></trkpt><trkpt lat="43.845670542089174" lon="12.434784333614049"><ele>459.5</ele><time>2026-04-03T12:51:50.999Z</time></trkpt><trkpt lat="43.84566512897875" lon="12.434606015572488"><ele>460.0</ele><time>2026-04-03T12:51:51.999Z</time></trkpt><trkpt lat="43.84565846998107" lon="12.434423721393014"><ele>460.5</ele><time>2026-04-03T12:51:52.999Z</time></trkpt><trkpt lat="43.845659300258745" lon="12.43423890206446"><ele>461.0</ele><time>2026-04-03T12:51:53.999Z</time></trkpt><trkpt lat="43.84566456527867" lon="12.434054658517473"><ele>461.0</ele><time>2026-04-03T12:51:54.999Z</time></trkpt><trkpt lat="43.84567182032029" lon="12.433887692747046"><ele>461.0</ele><time>2026-04-03T12:51:55.999Z</time></trkpt><trkpt lat="43.84568300139474" lon="12.433732492794176"><ele>461.0</ele><time>2026-04-03T12:51:56.999Z</time></trkpt><trkpt lat="43.84569495579965" lon="12.433592867542112"><ele>461.0</ele><time>2026-04-03T12:51:57.999Z</time></trkpt><trkpt lat="43.84570866543838" lon="12.433476003237637"><ele>461.0</ele><time>2026-04-03T12:51:58.999Z</time></trkpt><trkpt lat="43.84572552354425" lon="12.433337260372697"><ele>460.0</ele><time>2026-04-03T12:51:59.999Z</time></trkpt><trkpt lat="43.84574141851855" lon="12.433189142795584"><ele>459.0</ele><time>2026-04-03T12:52:00.999Z</time></trkpt><trkpt lat="43.84576079675487" lon="12.433027418268905"><ele>458.0</ele><time>2026-04-03T12:52:01.999Z</time></trkpt><trkpt lat="43.84578294675117" lon="12.432860264189378"><ele>457.0</ele><time>2026-04-03T12:52:02.999Z</time></trkpt><trkpt lat="43.845804287043556" lon="12.432683990754754"><ele>457.0</ele><time>2026-04-03T12:52:03.999Z</time></trkpt><trkpt lat="43.84581931694368" lon="12.432497443228899"><ele>457.0</ele><time>2026-04-03T12:52:04.999Z</time></trkpt><trkpt lat="43.84581888130532" lon="12.432304793205953"><ele>457.0</ele><time>2026-04-03T12:52:05.999Z</time></trkpt><trkpt lat="43.84580580671103" lon="12.432105924703569"><ele>457.0</ele><time>2026-04-03T12:52:06.999Z</time></trkpt><trkpt lat="43.845783705729595" lon="12.431903677292832"><ele>457.25</ele><time>2026-04-03T12:52:07.999Z</time></trkpt><trkpt lat="43.84575759634547" lon="12.431705687020889"><ele>457.5</ele><time>2026-04-03T12:52:08.999Z</time></trkpt><trkpt lat="43.84573295925151" lon="12.431525731381761"><ele>457.75</ele><time>2026-04-03T12:52:09.999Z</time></trkpt><trkpt lat="43.84571822852193" lon="12.431348947009788"><ele>458.0</ele><time>2026-04-03T12:52:11Z</time></trkpt><trkpt lat="43.845730701009884" lon="12.431170824754384"><ele>458.0</ele><time>2026-04-03T12:52:12Z</time></trkpt><trkpt lat="43.845770525677636" lon="12.430993414489786"><ele>458.0</ele><time>2026-04-03T12:52:13Z</time></trkpt><trkpt lat="43.845827623345556" lon="12.430815289309637"><ele>458.0</ele><time>2026-04-03T12:52:14Z</time></trkpt><trkpt lat="43.84588914567824" lon="12.430629871552908"><ele>458.0</ele><time>2026-04-03T12:52:15Z</time></trkpt><trkpt lat="43.84595362170741" lon="12.430433559471217"><ele>463.3333333333333</ele><time>2026-04-03T12:52:16Z</time></trkpt><trkpt lat="43.846022607588125" lon="12.43023177744152"><ele>468.66666666666663</ele><time>2026-04-03T12:52:17Z</time></trkpt><trkpt lat="43.84609254380827" lon="12.430026959021722"><ele>474.0</ele><time>2026-04-03T12:52:18Z</time></trkpt><trkpt lat="43.84615655982542" lon="12.429834235756628"><ele>474.0</ele><time>2026-04-03T12:52:19Z</time></trkpt><trkpt lat="43.84622001055509" lon="12.429648672667321"><ele>474.0</ele><time>2026-04-03T12:52:20Z</time></trkpt><trkpt lat="43.84628477080927" lon="12.429461900091452"><ele>474.0</ele><time>2026-04-03T12:52:21Z</time></trkpt><trkpt lat="43.846338495600385" lon="12.429265724224923"><ele>474.0</ele><time>2026-04-03T12:52:22Z</time></trkpt><trkpt lat="43.84636104397861" lon="12.429055031463257"><ele>473.0</ele><time>2026-04-03T12:52:23Z</time></trkpt><trkpt lat="43.84635089176887" lon="12.42883214477112"><ele>472.0</ele><time>2026-04-03T12:52:24Z</time></trkpt><trkpt lat="43.84632336729324" lon="12.428607281322279"><ele>471.0</ele><time>2026-04-03T12:52:25Z</time></trkpt><trkpt lat="43.84628197443054" lon="12.428383821829446"><ele>471.0</ele><time>2026-04-03T12:52:26Z</time></trkpt><trkpt lat="43.84622889076659" lon="12.42816685176488"><ele>471.0</ele><time>2026-04-03T12:52:27Z</time></trkpt><trkpt lat="43.84618540582607" lon="12.427968102478804"><ele>471.0</ele><time>2026-04-03T12:52:28Z</time></trkpt><trkpt lat="43.84614545428204" lon="12.427776610349703"><ele>471.0</ele><time>2026-04-03T12:52:29Z</time></trkpt><trkpt lat="43.846105374480054" lon="12.427586557708551"><ele>471.0</ele><time>2026-04-03T12:52:30Z</time></trkpt><trkpt lat="43.84606449277989" lon="12.427390849830257"><ele>471.0</ele><time>2026-04-03T12:52:31Z</time></trkpt><trkpt lat="43.84602141151875" lon="12.427196318107864"><ele>471.0</ele><time>2026-04-03T12:52:32Z</time></trkpt><trkpt lat="43.84597434924591" lon="12.426999216384695"><ele>469.25</ele><time>2026-04-03T12:52:33Z</time></trkpt><trkpt lat="43.84593487566637" lon="12.426802543862813"><ele>467.5</ele><time>2026-04-03T12:52:34Z</time></trkpt><trkpt lat="43.84590994134953" lon="12.426599172729357"><ele>465.75</ele><time>2026-04-03T12:52:35Z</time></trkpt><trkpt lat="43.84590320940788" lon="12.426391146635162"><ele>464.0</ele><time>2026-04-03T12:52:36Z</time></trkpt><trkpt lat="43.845914064870776" lon="12.426180027041017"><ele>464.0</ele><time>2026-04-03T12:52:37Z</time></trkpt><trkpt lat="43.84593305791714" lon="12.425971978797467"><ele>464.0</ele><time>2026-04-03T12:52:38Z</time></trkpt><trkpt lat="43.84596221556739" lon="12.425762811854394"><ele>464.0</ele><time>2026-04-03T12:52:39Z</time></trkpt><trkpt lat="43.84600170710613" lon="12.425551933895365"><ele>470.3333333333333</ele><time>2026-04-03T12:52:40Z</time></trkpt><trkpt lat="43.84605294732964" lon="12.42534352328723"><ele>476.66666666666663</ele><time>2026-04-03T12:52:41Z</time></trkpt><trkpt lat="43.84612013668866" lon="12.425145583924103"><ele>483.0</ele><time>2026-04-03T12:52:42Z</time></trkpt><trkpt lat="43.84618045174143" lon="12.424941911268107"><ele>483.0</ele><time>2026-04-03T12:52:43Z</time></trkpt><trkpt lat="43.84621890200716" lon="12.424723798626752"><ele>483.0</ele><time>2026-04-03T12:52:44Z</time></trkpt><trkpt lat="43.84624819767589" lon="12.424509806063483"><ele>483.0</ele><time>2026-04-03T12:52:45Z</time></trkpt><trkpt lat="43.846270514071975" lon="12.424295658428438"><ele>484.0</ele><time>2026-04-03T12:52:46Z</time></trkpt><trkpt lat="43.846256014315145" lon="12.424084444455913"><ele>485.0</ele><time>2026-04-03T12:52:47Z</time></trkpt><trkpt lat="43.84621593457075" lon="12.423854285637658"><ele>486.0</ele><time>2026-04-03T12:52:48Z</time></trkpt><trkpt lat="43.84614664313186" lon="12.423623971871725"><ele>488.33333333333337</ele><time>2026-04-03T12:52:49Z</time></trkpt><trkpt lat="43.846082929080495" lon="12.423382027188287"><ele>490.6666666666667</ele><time>2026-04-03T12:52:50Z</time></trkpt><trkpt lat="43.84605227862923" lon="12.423145568456457"><ele>493.0</ele><time>2026-04-03T12:52:51Z</time></trkpt><trkpt lat="43.84604271149762" lon="12.422919965256112"><ele>493.0</ele><time>2026-04-03T12:52:52Z</time></trkpt><trkpt lat="43.846042027533734" lon="12.422706298011354"><ele>493.0</ele><time>2026-04-03T12:52:53Z</time></trkpt><trkpt lat="43.84605169858537" lon="12.422483513967903"><ele>493.0</ele><time>2026-04-03T12:52:54Z</time></trkpt><trkpt lat="43.846085084257254" lon="12.422261354388683"><ele>489.6666666666667</ele><time>2026-04-03T12:52:55Z</time></trkpt><trkpt lat="43.84612004880735" lon="12.422036591595147"><ele>486.33333333333337</ele><time>2026-04-03T12:52:56Z</time></trkpt><trkpt lat="43.84615323040252" lon="12.421809564028703"><ele>483.0</ele><time>2026-04-03T12:52:57Z</time></trkpt><trkpt lat="43.846197694024326" lon="12.421586780771447"><ele>483.0</ele><time>2026-04-03T12:52:58Z</time></trkpt><trkpt lat="43.84624029088647" lon="12.42136195010588"><ele>483.0</ele><time>2026-04-03T12:52:59Z</time></trkpt><trkpt lat="43.84627536605856" lon="12.421145343160571"><ele>483.0</ele><time>2026-04-03T12:53:00Z</time></trkpt><trkpt lat="43.846307237357756" lon="12.42093708716586"><ele>482.25</ele><time>2026-04-03T12:53:01Z</time></trkpt><trkpt lat="43.84634207609419" lon="12.420743465047352"><ele>481.5</ele><time>2026-04-03T12:53:01.999Z</time></trkpt><trkpt lat="43.846381569384576" lon="12.420559473330485"><ele>480.75</ele><time>2026-04-03T12:53:02.999Z</time></trkpt><trkpt lat="43.84642863188269" lon="12.420396460534606"><ele>480.0</ele><time>2026-04-03T12:53:03.999Z</time></trkpt><trkpt lat="43.84648910559086" lon="12.420265792480812"><ele>479.0</ele><time>2026-04-03T12:53:04.999Z</time></trkpt><trkpt lat="43.846551141174146" lon="12.420137411274142"><ele>478.0</ele><time>2026-04-03T12:53:05.999Z</time></trkpt><trkpt lat="43.84659260211711" lon="12.419980239017805"><ele>477.0</ele><time>2026-04-03T12:53:06.999Z</time></trkpt><trkpt lat="43.846590400393346" lon="12.419803501751904"><ele>476.0</ele><time>2026-04-03T12:53:07.999Z</time></trkpt><trkpt lat="43.8465567235377" lon="12.419633756405597"><ele>476.0</ele><time>2026-04-03T12:53:08.999Z</time></trkpt><trkpt lat="43.84649543381983" lon="12.419493255602037"><ele>476.0</ele><time>2026-04-03T12:53:09.999Z</time></trkpt><trkpt lat="43.84641562821318" lon="12.419370885719392"><ele>476.0</ele><time>2026-04-03T12:53:10.999Z</time></trkpt><trkpt lat="43.84632135717419" lon="12.419245508555871"><ele>476.0</ele><time>2026-04-03T12:53:11.999Z</time></trkpt><trkpt lat="43.84623368110392" lon="12.41911802795253"><ele>476.0</ele><time>2026-04-03T12:53:12.999Z</time></trkpt><trkpt lat="43.84615127675795" lon="12.41898323449503"><ele>476.0</ele><time>2026-04-03T12:53:13.999Z</time></trkpt><trkpt lat="43.846068308607464" lon="12.41883579012522"><ele>476.0</ele><time>2026-04-03T12:53:14.999Z</time></trkpt><trkpt lat="43.8459964388887" lon="12.418685764783696"><ele>476.0</ele><time>2026-04-03T12:53:15.999Z</time></trkpt><trkpt lat="43.845938186521764" lon="12.418530455458866"><ele>476.25</ele><time>2026-04-03T12:53:16.999Z</time></trkpt><trkpt lat="43.84588593396133" lon="12.418357482394311"><ele>476.5</ele><time>2026-04-03T12:53:17.999Z</time></trkpt><trkpt lat="43.84584202987515" lon="12.418170625340304"><ele>476.75</ele><time>2026-04-03T12:53:18.999Z</time></trkpt><trkpt lat="43.84580292195599" lon="12.417970235269184"><ele>477.0</ele><time>2026-04-03T12:53:19.999Z</time></trkpt><trkpt lat="43.845761433526135" lon="12.417761735153348"><ele>477.0</ele><time>2026-04-03T12:53:20.999Z</time></trkpt><trkpt lat="43.845719430935176" lon="12.417559864736127"><ele>477.0</ele><time>2026-04-03T12:53:21.999Z</time></trkpt><trkpt lat="43.845684676457054" lon="12.417360560882127"><ele>477.0</ele><time>2026-04-03T12:53:22.999Z</time></trkpt><trkpt lat="43.84565087292949" lon="12.41717058777181"><ele>477.0</ele><time>2026-04-03T12:53:23.999Z</time></trkpt><trkpt lat="43.84561630997093" lon="12.417004376365094"><ele>477.0</ele><time>2026-04-03T12:53:24.999Z</time></trkpt><trkpt lat="43.84558205993272" lon="12.41685781997963"><ele>477.00000000000006</ele><time>2026-04-03T12:53:25.999Z</time></trkpt><trkpt lat="43.84554864849497" lon="12.416722008605985"><ele>477.00000000000006</ele><time>2026-04-03T12:53:26.999Z</time></trkpt><trkpt lat="43.845499369751536" lon="12.416600743294598"><ele>477.0</ele><time>2026-04-03T12:53:27.999Z</time></trkpt><trkpt lat="43.84542606418548" lon="12.416503948469746"><ele>477.0</ele><time>2026-04-03T12:53:28.999Z</time></trkpt><trkpt lat="43.8453344206282" lon="12.416425206743295"><ele>477.0</ele><time>2026-04-03T12:53:29.999Z</time></trkpt><trkpt lat="43.84521425306209" lon="12.41639923343112"><ele>477.0</ele><time>2026-04-03T12:53:30.999Z</time></trkpt><trkpt lat="43.84509231216541" lon="12.41644977915324"><ele>477.0</ele><time>2026-04-03T12:53:31.999Z</time></trkpt><trkpt lat="43.84498202250825" lon="12.41650696419137"><ele>477.0</ele><time>2026-04-03T12:53:32.999Z</time></trkpt><trkpt lat="43.84487276235122" lon="12.416568821228857"><ele>473.0</ele><time>2026-04-03T12:53:33.999Z</time></trkpt><trkpt lat="43.844759613282726" lon="12.41663253441476"><ele>469.0</ele><time>2026-04-03T12:53:34.999Z</time></trkpt><trkpt lat="43.844644828748436" lon="12.416697414769104"><ele>465.0</ele><time>2026-04-03T12:53:35.999Z</time></trkpt><trkpt lat="43.84452827705338" lon="12.416766464756073"><ele>461.0</ele><time>2026-04-03T12:53:36.999Z</time></trkpt><trkpt lat="43.844411103723345" lon="12.416835883002848"><ele>459.25</ele><time>2026-04-03T12:53:37.999Z</time></trkpt><trkpt lat="43.844292082670314" lon="12.416906395945505"><ele>457.5</ele><time>2026-04-03T12:53:38.999Z</time></trkpt><trkpt lat="43.844169188626076" lon="12.416979394175701"><ele>455.75</ele><time>2026-04-03T12:53:39.999Z</time></trkpt><trkpt lat="43.844044521251384" lon="12.417054364845127"><ele>454.0</ele><time>2026-04-03T12:53:40.999Z</time></trkpt><trkpt lat="43.84391846256739" lon="12.417131393270894"><ele>454.25</ele><time>2026-04-03T12:53:41.999Z</time></trkpt><trkpt lat="43.84379280508226" lon="12.417211072911103"><ele>454.5</ele><time>2026-04-03T12:53:42.999Z</time></trkpt><trkpt lat="43.84367478290499" lon="12.41726792493785"><ele>454.75</ele><time>2026-04-03T12:53:43.999Z</time></trkpt><trkpt lat="43.84357115997788" lon="12.417261892395127"><ele>455.0</ele><time>2026-04-03T12:53:44.999Z</time></trkpt><trkpt lat="43.843462346064655" lon="12.417205472378907"><ele>457.25</ele><time>2026-04-03T12:53:45.999Z</time></trkpt><trkpt lat="43.843352968850816" lon="12.417075116262641"><ele>459.5</ele><time>2026-04-03T12:53:46.999Z</time></trkpt><trkpt lat="43.84326445249693" lon="12.41693255935109"><ele>461.75</ele><time>2026-04-03T12:53:47.999Z</time></trkpt><trkpt lat="43.84317429191595" lon="12.416838273274518"><ele>464.0</ele><time>2026-04-03T12:53:48.999Z</time></trkpt><trkpt lat="43.84307214546333" lon="12.416798966306478"><ele>464.0</ele><time>2026-04-03T12:53:49.999Z</time></trkpt><trkpt lat="43.84297881429097" lon="12.416797874972648"><ele>464.0</ele><time>2026-04-03T12:53:50.999Z</time></trkpt><trkpt lat="43.84288960312268" lon="12.41679722429225"><ele>464.0</ele><time>2026-04-03T12:53:51.999Z</time></trkpt><trkpt lat="43.84280169305486" lon="12.416813744280486"><ele>464.0</ele><time>2026-04-03T12:53:52.999Z</time></trkpt><trkpt lat="43.842708525221624" lon="12.416833516422798"><ele>464.0</ele><time>2026-04-03T12:53:53.999Z</time></trkpt><trkpt lat="43.84260734723333" lon="12.416854988447286"><ele>466.2</ele><time>2026-04-03T12:53:54.999Z</time></trkpt><trkpt lat="43.842504720623495" lon="12.416899042258292"><ele>468.4</ele><time>2026-04-03T12:53:55.999Z</time></trkpt><trkpt lat="43.84240080948994" lon="12.416901910065361"><ele>470.6</ele><time>2026-04-03T12:53:56.999Z</time></trkpt><trkpt lat="43.84231043908822" lon="12.416938837352822"><ele>472.8</ele><time>2026-04-03T12:53:57.999Z</time></trkpt><trkpt lat="43.84224496720519" lon="12.417055200699316"><ele>475.0</ele><time>2026-04-03T12:53:58.999Z</time></trkpt><trkpt lat="43.84220448109916" lon="12.41717834168379"><ele>476.0</ele><time>2026-04-03T12:53:59.999Z</time></trkpt><trkpt lat="43.842190746264706" lon="12.417320887566826"><ele>477.0</ele><time>2026-04-03T12:54:00.999Z</time></trkpt><trkpt lat="43.84225377571806" lon="12.417453132717878"><ele>478.0</ele><time>2026-04-03T12:54:01.999Z</time></trkpt><trkpt lat="43.84232249734224" lon="12.417551072846159"><ele>479.0</ele><time>2026-04-03T12:54:02.999Z</time></trkpt><trkpt lat="43.842417691982035" lon="12.417636071058618"><ele>480.0</ele><time>2026-04-03T12:54:03.999Z</time></trkpt><trkpt lat="43.84251120637251" lon="12.417726366122142"><ele>480.0</ele><time>2026-04-03T12:54:04.999Z</time></trkpt><trkpt lat="43.84259286281915" lon="12.417801335952761"><ele>480.0</ele><time>2026-04-03T12:54:05.999Z</time></trkpt><trkpt lat="43.84267754388073" lon="12.41788188087037"><ele>480.0</ele><time>2026-04-03T12:54:06.999Z</time></trkpt><trkpt lat="43.8427407807884" lon="12.417964856095713"><ele>480.0</ele><time>2026-04-03T12:54:07.999Z</time></trkpt><trkpt lat="43.84277475607647" lon="12.418054723372355"><ele>480.0</ele><time>2026-04-03T12:54:08.999Z</time></trkpt><trkpt lat="43.84277419809128" lon="12.418158029023912"><ele>480.0</ele><time>2026-04-03T12:54:09.999Z</time></trkpt><trkpt lat="43.84273607037748" lon="12.41824396555991"><ele>481.4</ele><time>2026-04-03T12:54:10.999Z</time></trkpt><trkpt lat="43.84266837590538" lon="12.418303141950796"><ele>482.8</ele><time>2026-04-03T12:54:11.999Z</time></trkpt><trkpt lat="43.84258292436749" lon="12.418311599691634"><ele>484.20000000000005</ele><time>2026-04-03T12:54:12.999Z</time></trkpt><trkpt lat="43.84248521611684" lon="12.418245851968447"><ele>485.6</ele><time>2026-04-03T12:54:13.999Z</time></trkpt><trkpt lat="43.84235932817035" lon="12.418162679056188"><ele>487.0</ele><time>2026-04-03T12:54:14.999Z</time></trkpt><trkpt lat="43.84220561460384" lon="12.418059997994341"><ele>488.6666666666667</ele><time>2026-04-03T12:54:15.999Z</time></trkpt><trkpt lat="43.8420424674125" lon="12.417965619956076"><ele>490.33333333333337</ele><time>2026-04-03T12:54:17Z</time></trkpt><trkpt lat="43.841864490950144" lon="12.417839634608585"><ele>492.0</ele><time>2026-04-03T12:54:18Z</time></trkpt><trkpt lat="43.84168251509623" lon="12.417734943237209"><ele>492.0</ele><time>2026-04-03T12:54:19Z</time></trkpt><trkpt lat="43.84152392796187" lon="12.417624017234079"><ele>492.0</ele><time>2026-04-03T12:54:20Z</time></trkpt><trkpt lat="43.841379308155695" lon="12.41750947169465"><ele>492.0</ele><time>2026-04-03T12:54:21Z</time></trkpt><trkpt lat="43.841249668403805" lon="12.417407825812147"><ele>492.0</ele><time>2026-04-03T12:54:22Z</time></trkpt><trkpt lat="43.84112601499534" lon="12.417311597989631"><ele>492.0</ele><time>2026-04-03T12:54:23Z</time></trkpt><trkpt lat="43.841007329619764" lon="12.417213079453443"><ele>492.0</ele><time>2026-04-03T12:54:24Z</time></trkpt><trkpt lat="43.8408968356802" lon="12.41710284411731"><ele>492.0</ele><time>2026-04-03T12:54:25Z</time></trkpt><trkpt lat="43.84081868824129" lon="12.416948564580666"><ele>493.75</ele><time>2026-04-03T12:54:26Z</time></trkpt><trkpt lat="43.84076726302624" lon="12.416751469274404"><ele>495.5</ele><time>2026-04-03T12:54:27Z</time></trkpt><trkpt lat="43.8407195183297" lon="12.416549255059289"><ele>497.25</ele><time>2026-04-03T12:54:28Z</time></trkpt><trkpt lat="43.84066305908043" lon="12.416370928352256"><ele>499.0</ele><time>2026-04-03T12:54:29Z</time></trkpt><trkpt lat="43.84057647099601" lon="12.416221545041612"><ele>499.0</ele><time>2026-04-03T12:54:30Z</time></trkpt><trkpt lat="43.84046900058733" lon="12.416086946136653"><ele>499.0</ele><time>2026-04-03T12:54:31Z</time></trkpt><trkpt lat="43.84036366319934" lon="12.41595480629472"><ele>499.0</ele><time>2026-04-03T12:54:32Z</time></trkpt><trkpt lat="43.840296332166275" lon="12.415781938025079"><ele>499.0</ele><time>2026-04-03T12:54:33Z</time></trkpt><trkpt lat="43.84026637952185" lon="12.41558949521003"><ele>498.0</ele><time>2026-04-03T12:54:34Z</time></trkpt><trkpt lat="43.84021371226375" lon="12.415419256649104"><ele>497.0</ele><time>2026-04-03T12:54:35Z</time></trkpt><trkpt lat="43.84012814142906" lon="12.415302501987206"><ele>496.0</ele><time>2026-04-03T12:54:36Z</time></trkpt><trkpt lat="43.840022133637774" lon="12.41522726034061"><ele>495.0</ele><time>2026-04-03T12:54:37Z</time></trkpt><trkpt lat="43.839903136482825" lon="12.415160738879255"><ele>498.25</ele><time>2026-04-03T12:54:38Z</time></trkpt><trkpt lat="43.83977042022027" lon="12.415142127546137"><ele>501.5</ele><time>2026-04-03T12:54:39Z</time></trkpt><trkpt lat="43.839642885994664" lon="12.415132532151027"><ele>504.75</ele><time>2026-04-03T12:54:40Z</time></trkpt><trkpt lat="43.83952474615981" lon="12.415090926515234"><ele>508.0</ele><time>2026-04-03T12:54:41Z</time></trkpt><trkpt lat="43.83942003161152" lon="12.415018922282266"><ele>508.0</ele><time>2026-04-03T12:54:42Z</time></trkpt><trkpt lat="43.839343684221596" lon="12.414907082330636"><ele>507.99999999999994</ele><time>2026-04-03T12:54:43Z</time></trkpt><trkpt lat="43.83927900349686" lon="12.414784886700524"><ele>507.99999999999994</ele><time>2026-04-03T12:54:44Z</time></trkpt><trkpt lat="43.839218867987746" lon="12.414661694847528"><ele>508.0</ele><time>2026-04-03T12:54:45Z</time></trkpt><trkpt lat="43.83915885094718" lon="12.414537219759817"><ele>508.0</ele><time>2026-04-03T12:54:46Z</time></trkpt><trkpt lat="43.83909866544675" lon="12.41441203306919"><ele>510.2</ele><time>2026-04-03T12:54:47Z</time></trkpt><trkpt lat="43.83903949557281" lon="12.41429040225056"><ele>512.4</ele><time>2026-04-03T12:54:48Z</time></trkpt><trkpt lat="43.83898283575952" lon="12.414170863980228"><ele>514.5999999999999</ele><time>2026-04-03T12:54:49Z</time></trkpt><trkpt lat="43.83892933462781" lon="12.414052597494898"><ele>516.8</ele><time>2026-04-03T12:54:50Z</time></trkpt><trkpt lat="43.83885803388629" lon="12.413950974424706"><ele>519.0</ele><time>2026-04-03T12:54:51Z</time></trkpt><trkpt lat="43.83876995354666" lon="12.41385283355529"><ele>518.75</ele><time>2026-04-03T12:54:52Z</time></trkpt><trkpt lat="43.838659555028464" lon="12.413778044338034"><ele>518.5</ele><time>2026-04-03T12:54:53Z</time></trkpt><trkpt lat="43.83854029549135" lon="12.41372677951475"><ele>518.25</ele><time>2026-04-03T12:54:54Z</time></trkpt><trkpt lat="43.83843618881345" lon="12.413657569598394"><ele>518.0</ele><time>2026-04-03T12:54:55Z</time></trkpt><trkpt lat="43.83834786368192" lon="12.413623237903098"><ele>518.8</ele><time>2026-04-03T12:54:56Z</time></trkpt><trkpt lat="43.838266381956906" lon="12.413604731816129"><ele>519.5999999999999</ele><time>2026-04-03T12:54:57Z</time></trkpt><trkpt lat="43.8381902422494" lon="12.413659195895226"><ele>520.4000000000001</ele><time>2026-04-03T12:54:58Z</time></trkpt><trkpt lat="43.83815544231897" lon="12.413830642206149"><ele>521.2</ele><time>2026-04-03T12:54:59Z</time></trkpt><trkpt lat="43.838165251082756" lon="12.413998295323047"><ele>522.0</ele><time>2026-04-03T12:55:00Z</time></trkpt><trkpt lat="43.83818355121352" lon="12.41417910151914"><ele>523.5</ele><time>2026-04-03T12:55:01Z</time></trkpt><trkpt lat="43.83819887021342" lon="12.414368924127315"><ele>525.0</ele><time>2026-04-03T12:55:02Z</time></trkpt><trkpt lat="43.838210991535036" lon="12.414519123035774"><ele>526.5</ele><time>2026-04-03T12:55:03Z</time></trkpt><trkpt lat="43.83822212557259" lon="12.414657911784927"><ele>528.0</ele><time>2026-04-03T12:55:04Z</time></trkpt><trkpt lat="43.838234199159814" lon="12.414808704055186"><ele>529.25</ele><time>2026-04-03T12:55:05Z</time></trkpt><trkpt lat="43.83826583345032" lon="12.41497924487915"><ele>530.5</ele><time>2026-04-03T12:55:06Z</time></trkpt><trkpt lat="43.838262982039076" lon="12.415167370122829"><ele>531.75</ele><time>2026-04-03T12:55:07Z</time></trkpt><trkpt lat="43.838274821285644" lon="12.415363485083839"><ele>533.0</ele><time>2026-04-03T12:55:08Z</time></trkpt><trkpt lat="43.83827961517597" lon="12.415556698981113"><ele>533.5</ele><time>2026-04-03T12:55:09Z</time></trkpt><trkpt lat="43.838265349580915" lon="12.415746939753566"><ele>534.0</ele><time>2026-04-03T12:55:10Z</time></trkpt><trkpt lat="43.838232157482835" lon="12.415935744888818"><ele>534.5</ele><time>2026-04-03T12:55:11Z</time></trkpt><trkpt lat="43.83819252625401" lon="12.416131313779294"><ele>535.0</ele><time>2026-04-03T12:55:12Z</time></trkpt><trkpt lat="43.838154793366414" lon="12.416312020559213"><ele>535.5</ele><time>2026-04-03T12:55:12.999Z</time></trkpt><trkpt lat="43.83811630689084" lon="12.4164952262943"><ele>536.0</ele><time>2026-04-03T12:55:13.999Z</time></trkpt><trkpt lat="43.838080839725166" lon="12.416682504045006"><ele>536.5</ele><time>2026-04-03T12:55:14.999Z</time></trkpt><trkpt lat="43.83804626373101" lon="12.416874067627683"><ele>537.0</ele><time>2026-04-03T12:55:15.999Z</time></trkpt><trkpt lat="43.83802079862263" lon="12.417072024420081"><ele>537.0</ele><time>2026-04-03T12:55:16.999Z</time></trkpt><trkpt lat="43.83801032173467" lon="12.417280099707849"><ele>537.0</ele><time>2026-04-03T12:55:17.999Z</time></trkpt><trkpt lat="43.838033181105075" lon="12.417488432704284"><ele>537.0</ele><time>2026-04-03T12:55:18.999Z</time></trkpt><trkpt lat="43.83803113542596" lon="12.417682472774656"><ele>537.0</ele><time>2026-04-03T12:55:19.999Z</time></trkpt><trkpt lat="43.838033751128265" lon="12.417843126268512"><ele>537.0</ele><time>2026-04-03T12:55:20.999Z</time></trkpt><trkpt lat="43.838011869962315" lon="12.417974438055026"><ele>537.0</ele><time>2026-04-03T12:55:21.999Z</time></trkpt><trkpt lat="43.83796573579574" lon="12.418088241161618"><ele>537.0</ele><time>2026-04-03T12:55:22.999Z</time></trkpt><trkpt lat="43.83789267126735" lon="12.418159382267262"><ele>537.0</ele><time>2026-04-03T12:55:23.999Z</time></trkpt><trkpt lat="43.83780750065024" lon="12.418192853648693"><ele>537.0</ele><time>2026-04-03T12:55:24.999Z</time></trkpt><trkpt lat="43.837713155961325" lon="12.418182362987505"><ele>539.8000000000001</ele><time>2026-04-03T12:55:25.999Z</time></trkpt><trkpt lat="43.83761883192527" lon="12.41813383179555"><ele>542.6</ele><time>2026-04-03T12:55:26.999Z</time></trkpt><trkpt lat="43.83754291752928" lon="12.418021385454693"><ele>545.4000000000001</ele><time>2026-04-03T12:55:27.999Z</time></trkpt><trkpt lat="43.83748049441735" lon="12.417886254546852"><ele>548.2</ele><time>2026-04-03T12:55:28.999Z</time></trkpt><trkpt lat="43.83742477309031" lon="12.417741405920053"><ele>551.0</ele><time>2026-04-03T12:55:29.999Z</time></trkpt><trkpt lat="43.83736478652166" lon="12.417594107674676"><ele>551.0</ele><time>2026-04-03T12:55:30.999Z</time></trkpt><trkpt lat="43.83729711293039" lon="12.417453380240065"><ele>551.0</ele><time>2026-04-03T12:55:31.999Z</time></trkpt><trkpt lat="43.83722473424951" lon="12.417339567270927"><ele>551.0</ele><time>2026-04-03T12:55:32.999Z</time></trkpt><trkpt lat="43.83715540880555" lon="12.417245628060087"><ele>551.0</ele><time>2026-04-03T12:55:33.999Z</time></trkpt><trkpt lat="43.837098181193724" lon="12.417131885402037"><ele>551.0</ele><time>2026-04-03T12:55:34.999Z</time></trkpt><trkpt lat="43.837013437231434" lon="12.417055669562476"><ele>550.8</ele><time>2026-04-03T12:55:35.999Z</time></trkpt><trkpt lat="43.83694191643479" lon="12.416959303002079"><ele>550.6</ele><time>2026-04-03T12:55:36.999Z</time></trkpt><trkpt lat="43.836876834083355" lon="12.416873303018674"><ele>550.4</ele><time>2026-04-03T12:55:37.999Z</time></trkpt><trkpt lat="43.836808993583475" lon="12.416793205512409"><ele>550.2</ele><time>2026-04-03T12:55:38.999Z</time></trkpt><trkpt lat="43.83673457544813" lon="12.41670825990928"><ele>550.0</ele><time>2026-04-03T12:55:39.999Z</time></trkpt><trkpt lat="43.83666671533272" lon="12.416626595197362"><ele>551.5</ele><time>2026-04-03T12:55:40.999Z</time></trkpt><trkpt lat="43.836602131359825" lon="12.416548185611033"><ele>553.0</ele><time>2026-04-03T12:55:41.999Z</time></trkpt><trkpt lat="43.836534447689225" lon="12.41646781236244"><ele>554.5</ele><time>2026-04-03T12:55:42.999Z</time></trkpt><trkpt lat="43.83647214953667" lon="12.416391951675445"><ele>556.0</ele><time>2026-04-03T12:55:43.999Z</time></trkpt><trkpt lat="43.836414833293716" lon="12.416321982581454"><ele>557.5</ele><time>2026-04-03T12:55:44.999Z</time></trkpt><trkpt lat="43.836356136490046" lon="12.416240399239594"><ele>559.0</ele><time>2026-04-03T12:55:45.999Z</time></trkpt><trkpt lat="43.836293218056156" lon="12.416153476513513"><ele>559.0</ele><time>2026-04-03T12:55:46.999Z</time></trkpt><trkpt lat="43.836236233349105" lon="12.416068555704962"><ele>559.0</ele><time>2026-04-03T12:55:47.999Z</time></trkpt><trkpt lat="43.83620056283944" lon="12.415989674056593"><ele>559.0</ele><time>2026-04-03T12:55:48.999Z</time></trkpt><trkpt lat="43.8361574621487" lon="12.415905268253143"><ele>559.0</ele><time>2026-04-03T12:55:49.999Z</time></trkpt><trkpt lat="43.83611811664567" lon="12.415813523215215"><ele>559.0</ele><time>2026-04-03T12:55:50.999Z</time></trkpt><trkpt lat="43.83607861181562" lon="12.415714762494797"><ele>559.0</ele><time>2026-04-03T12:55:51.999Z</time></trkpt><trkpt lat="43.836036188325885" lon="12.415616699858992"><ele>559.0</ele><time>2026-04-03T12:55:52.999Z</time></trkpt><trkpt lat="43.83598718371886" lon="12.41551699614071"><ele>559.0</ele><time>2026-04-03T12:55:53.999Z</time></trkpt><trkpt lat="43.83593544423516" lon="12.41542385603248"><ele>559.0</ele><time>2026-04-03T12:55:54.999Z</time></trkpt><trkpt lat="43.83588866457881" lon="12.415349463662853"><ele>559.0</ele><time>2026-04-03T12:55:55.999Z</time></trkpt><trkpt lat="43.83582716879951" lon="12.41526914041653"><ele>559.0</ele><time>2026-04-03T12:55:56.999Z</time></trkpt><trkpt lat="43.835762818850995" lon="12.415169449757599"><ele>559.0</ele><time>2026-04-03T12:55:57.999Z</time></trkpt><trkpt lat="43.83567075786669" lon="12.4151052281166"><ele>560.6</ele><time>2026-04-03T12:55:58.999Z</time></trkpt><trkpt lat="43.83558178161989" lon="12.415022109345367"><ele>562.2</ele><time>2026-04-03T12:55:59.999Z</time></trkpt><trkpt lat="43.83548592593491" lon="12.414938837985051"><ele>563.8000000000001</ele><time>2026-04-03T12:56:00.999Z</time></trkpt><trkpt lat="43.83539451616035" lon="12.414851056499662"><ele>565.4</ele><time>2026-04-03T12:56:01.999Z</time></trkpt><trkpt lat="43.83532000095984" lon="12.414765247393655"><ele>567.0</ele><time>2026-04-03T12:56:02.999Z</time></trkpt><trkpt lat="43.83522650646319" lon="12.41471744762377"><ele>568.0</ele><time>2026-04-03T12:56:03.999Z</time></trkpt><trkpt lat="43.83513898235882" lon="12.414649966723738"><ele>569.0</ele><time>2026-04-03T12:56:04.999Z</time></trkpt><trkpt lat="43.835047148639795" lon="12.414587273239297"><ele>570.0</ele><time>2026-04-03T12:56:05.999Z</time></trkpt><trkpt lat="43.83494846920494" lon="12.414533542976809"><ele>571.0</ele><time>2026-04-03T12:56:06.999Z</time></trkpt><trkpt lat="43.83484509057958" lon="12.414480242111319"><ele>572.0</ele><time>2026-04-03T12:56:07.999Z</time></trkpt><trkpt lat="43.83474608135046" lon="12.414431740075376"><ele>572.0</ele><time>2026-04-03T12:56:08.999Z</time></trkpt><trkpt lat="43.83464659697136" lon="12.414380006476202"><ele>572.0</ele><time>2026-04-03T12:56:09.999Z</time></trkpt><trkpt lat="43.83454944454422" lon="12.414322778131393"><ele>572.0</ele><time>2026-04-03T12:56:10.999Z</time></trkpt><trkpt lat="43.83444634623361" lon="12.414269521848059"><ele>572.0</ele><time>2026-04-03T12:56:11.999Z</time></trkpt><trkpt lat="43.83434257870686" lon="12.414210848103318"><ele>572.0</ele><time>2026-04-03T12:56:12.999Z</time></trkpt><trkpt lat="43.83423829320606" lon="12.414147220795535"><ele>574.6</ele><time>2026-04-03T12:56:13.999Z</time></trkpt><trkpt lat="43.83414608490293" lon="12.414081863832255"><ele>577.2</ele><time>2026-04-03T12:56:14.999Z</time></trkpt><trkpt lat="43.834046586326444" lon="12.41402229318099"><ele>579.8</ele><time>2026-04-03T12:56:15.999Z</time></trkpt><trkpt lat="43.83394247318319" lon="12.413978516939963"><ele>582.4</ele><time>2026-04-03T12:56:16.999Z</time></trkpt><trkpt lat="43.83383894323035" lon="12.413929959446088"><ele>585.0</ele><time>2026-04-03T12:56:17.999Z</time></trkpt><trkpt lat="43.83372405448815" lon="12.413928488275056"><ele>585.0</ele><time>2026-04-03T12:56:18.999Z</time></trkpt><trkpt lat="43.83360861924219" lon="12.413906267505467"><ele>585.0</ele><time>2026-04-03T12:56:19.999Z</time></trkpt><trkpt lat="43.833488140999584" lon="12.41389198517654"><ele>585.0</ele><time>2026-04-03T12:56:20.999Z</time></trkpt><trkpt lat="43.833373996272535" lon="12.413874353282619"><ele>585.0</ele><time>2026-04-03T12:56:21.999Z</time></trkpt><trkpt lat="43.833259977056215" lon="12.413848254951121"><ele>584.75</ele><time>2026-04-03T12:56:23Z</time></trkpt><trkpt lat="43.833143085513875" lon="12.41381372899088"><ele>584.5</ele><time>2026-04-03T12:56:24Z</time></trkpt><trkpt lat="43.83302545071363" lon="12.413761799327371"><ele>584.25</ele><time>2026-04-03T12:56:25Z</time></trkpt><trkpt lat="43.83291596805594" lon="12.413685512739047"><ele>584.0</ele><time>2026-04-03T12:56:26Z</time></trkpt><trkpt lat="43.83281556636602" lon="12.413593922663823"><ele>584.0</ele><time>2026-04-03T12:56:27Z</time></trkpt><trkpt lat="43.83272043557426" lon="12.41349577659914"><ele>584.0</ele><time>2026-04-03T12:56:28Z</time></trkpt><trkpt lat="43.83263351034252" lon="12.413387316732074"><ele>584.0</ele><time>2026-04-03T12:56:29Z</time></trkpt><trkpt lat="43.83255204112871" lon="12.413276393583821"><ele>584.0</ele><time>2026-04-03T12:56:30Z</time></trkpt><trkpt lat="43.83247077521532" lon="12.413163801982625"><ele>585.25</ele><time>2026-04-03T12:56:31Z</time></trkpt><trkpt lat="43.83239341629856" lon="12.41304424821112"><ele>586.5</ele><time>2026-04-03T12:56:32Z</time></trkpt><trkpt lat="43.832319546811064" lon="12.412916895668793"><ele>587.75</ele><time>2026-04-03T12:56:33Z</time></trkpt><trkpt lat="43.83223277437299" lon="12.412806193316033"><ele>589.0</ele><time>2026-04-03T12:56:34Z</time></trkpt><trkpt lat="43.83214036313634" lon="12.412715273142766"><ele>589.0</ele><time>2026-04-03T12:56:35Z</time></trkpt><trkpt lat="43.83204713860194" lon="12.412645849281349"><ele>589.0</ele><time>2026-04-03T12:56:36Z</time></trkpt><trkpt lat="43.831951927547195" lon="12.412577390994516"><ele>589.0</ele><time>2026-04-03T12:56:37Z</time></trkpt><trkpt lat="43.83185458036613" lon="12.412503349333525"><ele>589.0</ele><time>2026-04-03T12:56:38Z</time></trkpt><trkpt lat="43.8317507987459" lon="12.412425864328013"><ele>589.0</ele><time>2026-04-03T12:56:39Z</time></trkpt><trkpt lat="43.831641544283" lon="12.412349034328445"><ele>591.0</ele><time>2026-04-03T12:56:40Z</time></trkpt><trkpt lat="43.83153233941378" lon="12.412263736568963"><ele>593.0</ele><time>2026-04-03T12:56:41Z</time></trkpt><trkpt lat="43.831421941790154" lon="12.412184498295739"><ele>595.0</ele><time>2026-04-03T12:56:42Z</time></trkpt><trkpt lat="43.831317395483964" lon="12.412086987109106"><ele>597.0</ele><time>2026-04-03T12:56:43Z</time></trkpt><trkpt lat="43.831213762871684" lon="12.411989230856841"><ele>597.0</ele><time>2026-04-03T12:56:44Z</time></trkpt><trkpt lat="43.83111742457002" lon="12.41188286844495"><ele>597.0</ele><time>2026-04-03T12:56:45Z</time></trkpt><trkpt lat="43.83102289496938" lon="12.411769984615924"><ele>597.0</ele><time>2026-04-03T12:56:46Z</time></trkpt><trkpt lat="43.83093074054636" lon="12.41166588079448"><ele>597.0</ele><time>2026-04-03T12:56:47Z</time></trkpt><trkpt lat="43.83084334122841" lon="12.411564638399298"><ele>597.8000000000001</ele><time>2026-04-03T12:56:48Z</time></trkpt><trkpt lat="43.83075880695015" lon="12.411457813133639"><ele>598.6</ele><time>2026-04-03T12:56:49Z</time></trkpt><trkpt lat="43.8306824578001" lon="12.411338859942193"><ele>599.4000000000001</ele><time>2026-04-03T12:56:50Z</time></trkpt><trkpt lat="43.830621389814176" lon="12.411210597994758"><ele>600.2</ele><time>2026-04-03T12:56:51Z</time></trkpt><trkpt lat="43.83057868314268" lon="12.41108349579826"><ele>601.0</ele><time>2026-04-03T12:56:52Z</time></trkpt><trkpt lat="43.8305422380462" lon="12.410948215141648"><ele>601.0</ele><time>2026-04-03T12:56:53Z</time></trkpt><trkpt lat="43.830516295138274" lon="12.410815172697797"><ele>601.0</ele><time>2026-04-03T12:56:54Z</time></trkpt><trkpt lat="43.8305013733037" lon="12.410699722080405"><ele>601.0</ele><time>2026-04-03T12:56:55Z</time></trkpt><trkpt lat="43.83048799156581" lon="12.410582857568517"><ele>601.0</ele><time>2026-04-03T12:56:56Z</time></trkpt><trkpt lat="43.83047296134404" lon="12.41046894437081"><ele>601.0</ele><time>2026-04-03T12:56:57Z</time></trkpt><trkpt lat="43.83045726847569" lon="12.41035738836494"><ele>601.0</ele><time>2026-04-03T12:56:58Z</time></trkpt><trkpt lat="43.83044642197483" lon="12.41024674660958"><ele>600.8333333333334</ele><time>2026-04-03T12:56:59Z</time></trkpt><trkpt lat="43.83043364351434" lon="12.410151206569473"><ele>600.6666666666667</ele><time>2026-04-03T12:57:00Z</time></trkpt><trkpt lat="43.83041828507726" lon="12.410054058194707"><ele>600.5</ele><time>2026-04-03T12:57:01Z</time></trkpt><trkpt lat="43.83039452817445" lon="12.409952438478609"><ele>600.3333333333334</ele><time>2026-04-03T12:57:02Z</time></trkpt><trkpt lat="43.8303492182983" lon="12.409855599384713"><ele>600.1666666666666</ele><time>2026-04-03T12:57:03Z</time></trkpt><trkpt lat="43.83029333355039" lon="12.409752165541935"><ele>600.0</ele><time>2026-04-03T12:57:04Z</time></trkpt><trkpt lat="43.830212152318786" lon="12.409676197886947"><ele>601.0</ele><time>2026-04-03T12:57:05Z</time></trkpt><trkpt lat="43.83011225614096" lon="12.40962517420556"><ele>602.0</ele><time>2026-04-03T12:57:06Z</time></trkpt><trkpt lat="43.83000367215727" lon="12.409587081379554"><ele>603.0</ele><time>2026-04-03T12:57:07Z</time></trkpt><trkpt lat="43.82988426782658" lon="12.40955915043023"><ele>604.0</ele><time>2026-04-03T12:57:08Z</time></trkpt><trkpt lat="43.82977584460294" lon="12.409535987370793"><ele>605.0</ele><time>2026-04-03T12:57:09Z</time></trkpt><trkpt lat="43.829668441853904" lon="12.409518935404941"><ele>605.0</ele><time>2026-04-03T12:57:10Z</time></trkpt><trkpt lat="43.82955791496878" lon="12.409505435252113"><ele>605.0</ele><time>2026-04-03T12:57:11Z</time></trkpt><trkpt lat="43.82944533118476" lon="12.40949574952121"><ele>605.0</ele><time>2026-04-03T12:57:12Z</time></trkpt><trkpt lat="43.82933161794655" lon="12.409490016081458"><ele>605.0</ele><time>2026-04-03T12:57:13Z</time></trkpt><trkpt lat="43.82921746431717" lon="12.40948276607536"><ele>606.2</ele><time>2026-04-03T12:57:14Z</time></trkpt><trkpt lat="43.82910323660797" lon="12.409467098368575"><ele>607.4</ele><time>2026-04-03T12:57:15Z</time></trkpt><trkpt lat="43.8289967828589" lon="12.409460389460435"><ele>608.6</ele><time>2026-04-03T12:57:16Z</time></trkpt><trkpt lat="43.82889790903175" lon="12.409391873289989"><ele>609.8</ele><time>2026-04-03T12:57:17Z</time></trkpt><trkpt lat="43.828798328126176" lon="12.409308377962734"><ele>611.0</ele><time>2026-04-03T12:57:17.999Z</time></trkpt><trkpt lat="43.82870375636847" lon="12.409208601839676"><ele>611.0</ele><time>2026-04-03T12:57:18.999Z</time></trkpt><trkpt lat="43.82861429643935" lon="12.409106187098772"><ele>611.0</ele><time>2026-04-03T12:57:19.999Z</time></trkpt><trkpt lat="43.828529196918396" lon="12.409016776213655"><ele>611.0</ele><time>2026-04-03T12:57:20.999Z</time></trkpt><trkpt lat="43.828449890989965" lon="12.408942222062105"><ele>611.0</ele><time>2026-04-03T12:57:21.999Z</time></trkpt><trkpt lat="43.82836948700552" lon="12.408884069446037"><ele>611.0</ele><time>2026-04-03T12:57:22.999Z</time></trkpt><trkpt lat="43.828288116700854" lon="12.408815478685044"><ele>610.75</ele><time>2026-04-03T12:57:23.999Z</time></trkpt><trkpt lat="43.82817339364649" lon="12.408778581526205"><ele>610.5</ele><time>2026-04-03T12:57:24.999Z</time></trkpt><trkpt lat="43.828051293361064" lon="12.408760743498384"><ele>610.25</ele><time>2026-04-03T12:57:25.999Z</time></trkpt><trkpt lat="43.82793504802944" lon="12.40874971660056"><ele>610.0</ele><time>2026-04-03T12:57:26.999Z</time></trkpt><trkpt lat="43.82782332948563" lon="12.408743583896317"><ele>610.0</ele><time>2026-04-03T12:57:27.999Z</time></trkpt><trkpt lat="43.82770515494801" lon="12.408739329381786"><ele>610.0</ele><time>2026-04-03T12:57:28.999Z</time></trkpt><trkpt lat="43.82759458736534" lon="12.408737284075006"><ele>610.0</ele><time>2026-04-03T12:57:29.999Z</time></trkpt><trkpt lat="43.827494289494595" lon="12.408736819568416"><ele>610.0</ele><time>2026-04-03T12:57:30.999Z</time></trkpt><trkpt lat="43.827392852954716" lon="12.408736349788116"><ele>610.0</ele><time>2026-04-03T12:57:31.999Z</time></trkpt><trkpt lat="43.82728620230533" lon="12.4087352001193"><ele>611.8</ele><time>2026-04-03T12:57:32.999Z</time></trkpt><trkpt lat="43.82717859447962" lon="12.408730251352555"><ele>613.6</ele><time>2026-04-03T12:57:33.999Z</time></trkpt><trkpt lat="43.82707278221192" lon="12.408741071016813"><ele>615.4</ele><time>2026-04-03T12:57:34.999Z</time></trkpt><trkpt lat="43.8269774736828" lon="12.408691566889377"><ele>617.2</ele><time>2026-04-03T12:57:35.999Z</time></trkpt><trkpt lat="43.82689980238397" lon="12.408610934182281"><ele>619.0</ele><time>2026-04-03T12:57:36.999Z</time></trkpt><trkpt lat="43.8268331587096" lon="12.408506842718817"><ele>618.8</ele><time>2026-04-03T12:57:37.999Z</time></trkpt><trkpt lat="43.82677495726858" lon="12.408373514013972"><ele>618.5999999999999</ele><time>2026-04-03T12:57:38.999Z</time></trkpt><trkpt lat="43.82673028345426" lon="12.408240151358086"><ele>618.4</ele><time>2026-04-03T12:57:39.999Z</time></trkpt><trkpt lat="43.8266831468124" lon="12.408103919844054"><ele>618.1999999999999</ele><time>2026-04-03T12:57:40.999Z</time></trkpt><trkpt lat="43.82663989241558" lon="12.4079660304695"><ele>618.0</ele><time>2026-04-03T12:57:41.999Z</time></trkpt><trkpt lat="43.82659455614644" lon="12.407827548924985"><ele>618.0</ele><time>2026-04-03T12:57:42.999Z</time></trkpt><trkpt lat="43.82654845320822" lon="12.407686590414006"><ele>618.0</ele><time>2026-04-03T12:57:43.999Z</time></trkpt><trkpt lat="43.82649769761096" lon="12.407542038810876"><ele>618.0</ele><time>2026-04-03T12:57:44.999Z</time></trkpt><trkpt lat="43.82644579057822" lon="12.407393685451446"><ele>618.0</ele><time>2026-04-03T12:57:45.999Z</time></trkpt><trkpt lat="43.82639429799545" lon="12.407249804590286"><ele>616.6</ele><time>2026-04-03T12:57:46.999Z</time></trkpt><trkpt lat="43.82633999819875" lon="12.407131621685677"><ele>615.1999999999999</ele><time>2026-04-03T12:57:47.999Z</time></trkpt><trkpt lat="43.82628771904446" lon="12.407023433051913"><ele>613.8</ele><time>2026-04-03T12:57:48.999Z</time></trkpt><trkpt lat="43.82622919421046" lon="12.406913578446304"><ele>612.4</ele><time>2026-04-03T12:57:49.999Z</time></trkpt><trkpt lat="43.82615493094613" lon="12.406812986235499"><ele>611.0</ele><time>2026-04-03T12:57:50.999Z</time></trkpt><trkpt lat="43.826081007929304" lon="12.406706043649711"><ele>611.0</ele><time>2026-04-03T12:57:51.999Z</time></trkpt><trkpt lat="43.82598666823879" lon="12.406630669227217"><ele>611.0</ele><time>2026-04-03T12:57:52.999Z</time></trkpt><trkpt lat="43.82588557991599" lon="12.406574228220387"><ele>611.0</ele><time>2026-04-03T12:57:53.999Z</time></trkpt><trkpt lat="43.82577928631886" lon="12.406537222814213"><ele>611.0</ele><time>2026-04-03T12:57:54.999Z</time></trkpt><trkpt lat="43.82566757266" lon="12.406520540595766"><ele>611.0</ele><time>2026-04-03T12:57:55.999Z</time></trkpt><trkpt lat="43.82555633681224" lon="12.406518263117215"><ele>615.0</ele><time>2026-04-03T12:57:56.999Z</time></trkpt><trkpt lat="43.82544633979177" lon="12.406524570525988"><ele>619.0</ele><time>2026-04-03T12:57:57.999Z</time></trkpt><trkpt lat="43.82533450604687" lon="12.406532256149946"><ele>623.0</ele><time>2026-04-03T12:57:58.999Z</time></trkpt><trkpt lat="43.82521755428458" lon="12.406542786457246"><ele>627.0</ele><time>2026-04-03T12:57:59.999Z</time></trkpt><trkpt lat="43.82510111183084" lon="12.406553881590852"><ele>628.5</ele><time>2026-04-03T12:58:00.999Z</time></trkpt><trkpt lat="43.824984218446836" lon="12.40656462965597"><ele>630.0</ele><time>2026-04-03T12:58:01.999Z</time></trkpt><trkpt lat="43.82486936456319" lon="12.406569306051647"><ele>631.5</ele><time>2026-04-03T12:58:02.999Z</time></trkpt><trkpt lat="43.82475494621774" lon="12.406590804255579"><ele>633.0</ele><time>2026-04-03T12:58:03.999Z</time></trkpt><trkpt lat="43.82465097664215" lon="12.406560853739082"><ele>633.0</ele><time>2026-04-03T12:58:04.999Z</time></trkpt><trkpt lat="43.824554861934324" lon="12.40656058722288"><ele>633.0</ele><time>2026-04-03T12:58:05.999Z</time></trkpt><trkpt lat="43.824455358063936" lon="12.406514282382625"><ele>633.0</ele><time>2026-04-03T12:58:06.999Z</time></trkpt><trkpt lat="43.82435525100801" lon="12.40645016604161"><ele>633.0</ele><time>2026-04-03T12:58:07.999Z</time></trkpt><trkpt lat="43.8242572752045" lon="12.406367198646185"><ele>633.0</ele><time>2026-04-03T12:58:08.999Z</time></trkpt><trkpt lat="43.8241616763144" lon="12.406269920771697"><ele>632.25</ele><time>2026-04-03T12:58:09.999Z</time></trkpt><trkpt lat="43.82407054564669" lon="12.406164468632115"><ele>631.5</ele><time>2026-04-03T12:58:10.999Z</time></trkpt><trkpt lat="43.82398158959853" lon="12.406066400642272"><ele>630.75</ele><time>2026-04-03T12:58:11.999Z</time></trkpt><trkpt lat="43.82389365981378" lon="12.405974346065516"><ele>630.0</ele><time>2026-04-03T12:58:12.999Z</time></trkpt><trkpt lat="43.82381028396069" lon="12.405875252466538"><ele>630.0</ele><time>2026-04-03T12:58:13.999Z</time></trkpt><trkpt lat="43.823737364042536" lon="12.405768508766085"><ele>630.0</ele><time>2026-04-03T12:58:14.999Z</time></trkpt><trkpt lat="43.823670985548986" lon="12.40564373878808"><ele>630.0</ele><time>2026-04-03T12:58:15.999Z</time></trkpt><trkpt lat="43.823625208848185" lon="12.405489911636716"><ele>630.0</ele><time>2026-04-03T12:58:16.999Z</time></trkpt><trkpt lat="43.82358912635023" lon="12.405334561430411"><ele>631.25</ele><time>2026-04-03T12:58:17.999Z</time></trkpt><trkpt lat="43.823556866133394" lon="12.405168543541835"><ele>632.5</ele><time>2026-04-03T12:58:18.999Z</time></trkpt><trkpt lat="43.823530857047984" lon="12.405002472286478"><ele>633.75</ele><time>2026-04-03T12:58:19.999Z</time></trkpt><trkpt lat="43.82350194948135" lon="12.404853884086583"><ele>635.0</ele><time>2026-04-03T12:58:20.999Z</time></trkpt><trkpt lat="43.823477826237756" lon="12.404701748182314"><ele>634.0</ele><time>2026-04-03T12:58:21.999Z</time></trkpt><trkpt lat="43.82345500294212" lon="12.404564589780994"><ele>633.0</ele><time>2026-04-03T12:58:22.999Z</time></trkpt><trkpt lat="43.8234196033611" lon="12.404430233558173"><ele>632.0</ele><time>2026-04-03T12:58:23.999Z</time></trkpt><trkpt lat="43.82337034022102" lon="12.404311224485527"><ele>631.0</ele><time>2026-04-03T12:58:24.999Z</time></trkpt><trkpt lat="43.82331242799847" lon="12.404214509048096"><ele>630.0</ele><time>2026-04-03T12:58:25.999Z</time></trkpt><trkpt lat="43.82324573860405" lon="12.404125226032273"><ele>630.0</ele><time>2026-04-03T12:58:26.999Z</time></trkpt><trkpt lat="43.82317919538697" lon="12.404014763837342"><ele>630.0</ele><time>2026-04-03T12:58:27.999Z</time></trkpt><trkpt lat="43.82308124366186" lon="12.403924355804117"><ele>630.0</ele><time>2026-04-03T12:58:29Z</time></trkpt><trkpt lat="43.822998494847326" lon="12.403795083563507"><ele>630.0</ele><time>2026-04-03T12:58:30Z</time></trkpt><trkpt lat="43.82292308199611" lon="12.403644404478133"><ele>628.5</ele><time>2026-04-03T12:58:31Z</time></trkpt><trkpt lat="43.82285357293947" lon="12.403476079651213"><ele>627.0</ele><time>2026-04-03T12:58:32Z</time></trkpt><trkpt lat="43.82279006671769" lon="12.403312023800545"><ele>625.5</ele><time>2026-04-03T12:58:33Z</time></trkpt><trkpt lat="43.822728119877254" lon="12.403142645961074"><ele>624.0</ele><time>2026-04-03T12:58:34Z</time></trkpt><trkpt lat="43.82266602201415" lon="12.402966276635706"><ele>626.0</ele><time>2026-04-03T12:58:35Z</time></trkpt><trkpt lat="43.822607471164744" lon="12.402792699494366"><ele>628.0</ele><time>2026-04-03T12:58:36Z</time></trkpt><trkpt lat="43.82255501847644" lon="12.40262535291981"><ele>630.0</ele><time>2026-04-03T12:58:37Z</time></trkpt><trkpt lat="43.822501825692285" lon="12.402453614042724"><ele>632.0</ele><time>2026-04-03T12:58:38Z</time></trkpt><trkpt lat="43.822452814027145" lon="12.402278483758467"><ele>632.0</ele><time>2026-04-03T12:58:39Z</time></trkpt><trkpt lat="43.82240640066119" lon="12.402106411415854"><ele>632.0</ele><time>2026-04-03T12:58:40Z</time></trkpt><trkpt lat="43.82236343247548" lon="12.401940214158307"><ele>632.0</ele><time>2026-04-03T12:58:41Z</time></trkpt><trkpt lat="43.82231912044918" lon="12.401780212430191"><ele>632.0</ele><time>2026-04-03T12:58:42Z</time></trkpt><trkpt lat="43.822276402224865" lon="12.401620339549"><ele>632.0</ele><time>2026-04-03T12:58:43Z</time></trkpt><trkpt lat="43.822231695226385" lon="12.401453839371163"><ele>632.0</ele><time>2026-04-03T12:58:44Z</time></trkpt><trkpt lat="43.822186452093945" lon="12.4012795110845"><ele>632.0</ele><time>2026-04-03T12:58:45Z</time></trkpt><trkpt lat="43.8221405530969" lon="12.401103093055333"><ele>632.0</ele><time>2026-04-03T12:58:46Z</time></trkpt><trkpt lat="43.822100039941226" lon="12.400935435546096"><ele>630.75</ele><time>2026-04-03T12:58:47Z</time></trkpt><trkpt lat="43.822068719919926" lon="12.400779548143001"><ele>629.5</ele><time>2026-04-03T12:58:48Z</time></trkpt><trkpt lat="43.82204529111579" lon="12.400604941863067"><ele>628.25</ele><time>2026-04-03T12:58:49Z</time></trkpt><trkpt lat="43.822024441638895" lon="12.400425919714058"><ele>627.0</ele><time>2026-04-03T12:58:50Z</time></trkpt><trkpt lat="43.822004799176085" lon="12.400242854619245"><ele>626.75</ele><time>2026-04-03T12:58:51Z</time></trkpt><trkpt lat="43.82198883108713" lon="12.400055506942836"><ele>626.5</ele><time>2026-04-03T12:58:52Z</time></trkpt><trkpt lat="43.82197672892778" lon="12.39987097731538"><ele>626.25</ele><time>2026-04-03T12:58:53Z</time></trkpt><trkpt lat="43.82197160097081" lon="12.39970248223389"><ele>626.0</ele><time>2026-04-03T12:58:54Z</time></trkpt><trkpt lat="43.82197269312477" lon="12.399536137498563"><ele>627.0</ele><time>2026-04-03T12:58:55Z</time></trkpt><trkpt lat="43.82197308717068" lon="12.39936612554351"><ele>628.0</ele><time>2026-04-03T12:58:56Z</time></trkpt><trkpt lat="43.82197286482773" lon="12.399196967907026"><ele>629.0</ele><time>2026-04-03T12:58:57Z</time></trkpt><trkpt lat="43.82197801673699" lon="12.399029018704109"><ele>630.0</ele><time>2026-04-03T12:58:58Z</time></trkpt><trkpt lat="43.82199290424905" lon="12.398862739580814"><ele>631.5</ele><time>2026-04-03T12:58:59Z</time></trkpt><trkpt lat="43.822021002798905" lon="12.398690222553205"><ele>633.0</ele><time>2026-04-03T12:59:00Z</time></trkpt><trkpt lat="43.82206044521602" lon="12.398514792963981"><ele>634.5</ele><time>2026-04-03T12:59:01Z</time></trkpt><trkpt lat="43.822105004944504" lon="12.398350954099445"><ele>636.0</ele><time>2026-04-03T12:59:02Z</time></trkpt><trkpt lat="43.82215337927392" lon="12.398185333074387"><ele>636.0</ele><time>2026-04-03T12:59:03Z</time></trkpt><trkpt lat="43.82221256259618" lon="12.398030175076599"><ele>636.0</ele><time>2026-04-03T12:59:04Z</time></trkpt><trkpt lat="43.82227004876773" lon="12.397874589258516"><ele>636.0</ele><time>2026-04-03T12:59:05Z</time></trkpt><trkpt lat="43.82232592678497" lon="12.397714377794772"><ele>636.0</ele><time>2026-04-03T12:59:06Z</time></trkpt><trkpt lat="43.8223855545695" lon="12.397551591206236"><ele>636.0</ele><time>2026-04-03T12:59:07Z</time></trkpt><trkpt lat="43.822440067934345" lon="12.397395092418488"><ele>636.0</ele><time>2026-04-03T12:59:08Z</time></trkpt><trkpt lat="43.8224859341725" lon="12.397250291109579"><ele>636.0</ele><time>2026-04-03T12:59:09Z</time></trkpt><trkpt lat="43.822529917027055" lon="12.397104473279567"><ele>636.0</ele><time>2026-04-03T12:59:10Z</time></trkpt><trkpt lat="43.82256952493671" lon="12.396948824875636"><ele>637.2</ele><time>2026-04-03T12:59:11Z</time></trkpt><trkpt lat="43.82259966827924" lon="12.39679367856808"><ele>638.4000000000001</ele><time>2026-04-03T12:59:12Z</time></trkpt><trkpt lat="43.82262007781305" lon="12.39666567427979"><ele>639.6</ele><time>2026-04-03T12:59:13Z</time></trkpt><trkpt lat="43.822619943512755" lon="12.396546254311744"><ele>640.8000000000001</ele><time>2026-04-03T12:59:14Z</time></trkpt><trkpt lat="43.8225988813203" lon="12.396430939581371"><ele>642.0</ele><time>2026-04-03T12:59:15Z</time></trkpt><trkpt lat="43.82257680248298" lon="12.396300955635288"><ele>643.2</ele><time>2026-04-03T12:59:16Z</time></trkpt><trkpt lat="43.822516143373385" lon="12.396181196572844"><ele>644.4000000000001</ele><time>2026-04-03T12:59:17Z</time></trkpt><trkpt lat="43.822441749590304" lon="12.396073520911273"><ele>645.5999999999999</ele><time>2026-04-03T12:59:18Z</time></trkpt><trkpt lat="43.82235433090055" lon="12.395975468541987"><ele>646.8</ele><time>2026-04-03T12:59:19Z</time></trkpt><trkpt lat="43.8222676729887" lon="12.395877781604092"><ele>648.0</ele><time>2026-04-03T12:59:20Z</time></trkpt><trkpt lat="43.82218237133355" lon="12.395779437219765"><ele>648.0</ele><time>2026-04-03T12:59:21Z</time></trkpt><trkpt lat="43.82209670919697" lon="12.395680677232754"><ele>648.0</ele><time>2026-04-03T12:59:21.999Z</time></trkpt><trkpt lat="43.82201337592223" lon="12.395583916889661"><ele>648.0</ele><time>2026-04-03T12:59:22.999Z</time></trkpt><trkpt lat="43.821931879565604" lon="12.395485070947364"><ele>648.0</ele><time>2026-04-03T12:59:23.999Z</time></trkpt><trkpt lat="43.821850646611516" lon="12.395380751468824"><ele>648.0</ele><time>2026-04-03T12:59:24.999Z</time></trkpt><trkpt lat="43.82176306747288" lon="12.395278660456597"><ele>650.25</ele><time>2026-04-03T12:59:25.999Z</time></trkpt><trkpt lat="43.82167900561277" lon="12.395143818532796"><ele>652.5</ele><time>2026-04-03T12:59:26.999Z</time></trkpt><trkpt lat="43.82159904014012" lon="12.395001009860817"><ele>654.75</ele><time>2026-04-03T12:59:27.999Z</time></trkpt><trkpt lat="43.82152631523914" lon="12.394851783032275"><ele>657.0</ele><time>2026-04-03T12:59:28.999Z</time></trkpt><trkpt lat="43.82146655959904" lon="12.394712909191343"><ele>657.8</ele><time>2026-04-03T12:59:29.999Z</time></trkpt><trkpt lat="43.8214200685274" lon="12.394588574707152"><ele>658.6</ele><time>2026-04-03T12:59:30.999Z</time></trkpt><trkpt lat="43.82138474569439" lon="12.394472770489472"><ele>659.4</ele><time>2026-04-03T12:59:31.999Z</time></trkpt><trkpt lat="43.8213606202987" lon="12.394364938512961"><ele>660.1999999999999</ele><time>2026-04-03T12:59:32.999Z</time></trkpt><trkpt lat="43.82134338220976" lon="12.394250119559496"><ele>661.0</ele><time>2026-04-03T12:59:33.999Z</time></trkpt><trkpt lat="43.821354327993156" lon="12.394121673051359"><ele>661.0</ele><time>2026-04-03T12:59:34.999Z</time></trkpt><trkpt lat="43.82134010258016" lon="12.393988437724905"><ele>661.0</ele><time>2026-04-03T12:59:35.999Z</time></trkpt><trkpt lat="43.82131970023978" lon="12.393844718637206"><ele>661.0</ele><time>2026-04-03T12:59:36.999Z</time></trkpt><trkpt lat="43.821294786442074" lon="12.393708175492058"><ele>661.0</ele><time>2026-04-03T12:59:37.999Z</time></trkpt><trkpt lat="43.82126511919456" lon="12.393570248313047"><ele>661.0</ele><time>2026-04-03T12:59:38.999Z</time></trkpt><trkpt lat="43.82120524122587" lon="12.393443470653501"><ele>660.0</ele><time>2026-04-03T12:59:39.999Z</time></trkpt><trkpt lat="43.82113690112834" lon="12.393314320449162"><ele>659.0</ele><time>2026-04-03T12:59:40.999Z</time></trkpt><trkpt lat="43.8210573448883" lon="12.393161753629418"><ele>658.0</ele><time>2026-04-03T12:59:41.999Z</time></trkpt><trkpt lat="43.82095528786527" lon="12.392972545779042"><ele>657.0</ele><time>2026-04-03T12:59:42.999Z</time></trkpt><trkpt lat="43.82082503687556" lon="12.392771842290559"><ele>656.0</ele><time>2026-04-03T12:59:43.999Z</time></trkpt><trkpt lat="43.82067496037143" lon="12.39255861826975"><ele>655.0</ele><time>2026-04-03T12:59:44.999Z</time></trkpt><trkpt lat="43.82051028841311" lon="12.392329133483784"><ele>654.0</ele><time>2026-04-03T12:59:45.999Z</time></trkpt><trkpt lat="43.82035191271125" lon="12.392119853842436"><ele>653.6666666666666</ele><time>2026-04-03T12:59:46.999Z</time></trkpt><trkpt lat="43.820220333055815" lon="12.391871496233373"><ele>653.3333333333333</ele><time>2026-04-03T12:59:47.999Z</time></trkpt><trkpt lat="43.8201067538387" lon="12.391612947924378"><ele>653.0</ele><time>2026-04-03T12:59:48.999Z</time></trkpt><trkpt lat="43.82000525219926" lon="12.391356730246224"><ele>657.3333333333333</ele><time>2026-04-03T12:59:49.999Z</time></trkpt><trkpt lat="43.81990730113201" lon="12.391104050647312"><ele>661.6666666666666</ele><time>2026-04-03T12:59:50.999Z</time></trkpt><trkpt lat="43.819803220248225" lon="12.390854126500074"><ele>666.0</ele><time>2026-04-03T12:59:51.999Z</time></trkpt><trkpt lat="43.819695882482264" lon="12.390611888636748"><ele>668.6666666666666</ele><time>2026-04-03T12:59:52.999Z</time></trkpt><trkpt lat="43.819578603360874" lon="12.390377923564944"><ele>671.3333333333333</ele><time>2026-04-03T12:59:53.999Z</time></trkpt><trkpt lat="43.81946595052216" lon="12.390164479792071"><ele>674.0</ele><time>2026-04-03T12:59:54.999Z</time></trkpt><trkpt lat="43.81935410189384" lon="12.389967839049387"><ele>673.6666666666666</ele><time>2026-04-03T12:59:55.999Z</time></trkpt><trkpt lat="43.81923888469708" lon="12.389803753996445"><ele>673.3333333333334</ele><time>2026-04-03T12:59:56.999Z</time></trkpt><trkpt lat="43.819129480710835" lon="12.38964888500827"><ele>673.0</ele><time>2026-04-03T12:59:57.999Z</time></trkpt><trkpt lat="43.81899023977732" lon="12.389528752944877"><ele>678.0</ele><time>2026-04-03T12:59:58.999Z</time></trkpt><trkpt lat="43.81885032292734" lon="12.389405096206952"><ele>683.0</ele><time>2026-04-03T12:59:59.999Z</time></trkpt><trkpt lat="43.818718407530476" lon="12.389303682238953"><ele>688.0</ele><time>2026-04-03T13:00:00.999Z</time></trkpt><trkpt lat="43.81861240534634" lon="12.389150016976426"><ele>688.0</ele><time>2026-04-03T13:00:01.999Z</time></trkpt><trkpt lat="43.8185276137048" lon="12.388964960145096"><ele>688.0</ele><time>2026-04-03T13:00:02.999Z</time></trkpt><trkpt lat="43.81846146356724" lon="12.388767165525373"><ele>688.0</ele><time>2026-04-03T13:00:03.999Z</time></trkpt><trkpt lat="43.818382450013395" lon="12.388572559033872"><ele>689.0</ele><time>2026-04-03T13:00:04.999Z</time></trkpt><trkpt lat="43.81827344184336" lon="12.388383377308724"><ele>690.0</ele><time>2026-04-03T13:00:05.999Z</time></trkpt><trkpt lat="43.818140946792404" lon="12.388234037474552"><ele>691.0</ele><time>2026-04-03T13:00:06.999Z</time></trkpt><trkpt lat="43.8179979027688" lon="12.388096778466227"><ele>691.0</ele><time>2026-04-03T13:00:07.999Z</time></trkpt><trkpt lat="43.81782481228979" lon="12.388012397396427"><ele>691.0</ele><time>2026-04-03T13:00:08.999Z</time></trkpt><trkpt lat="43.817647055041654" lon="12.3879462298268"><ele>691.0</ele><time>2026-04-03T13:00:09.999Z</time></trkpt><trkpt lat="43.81746881151963" lon="12.387895409551012"><ele>693.75</ele><time>2026-04-03T13:00:10.999Z</time></trkpt><trkpt lat="43.81731545003008" lon="12.387847690493366"><ele>696.5</ele><time>2026-04-03T13:00:11.999Z</time></trkpt><trkpt lat="43.81718489185135" lon="12.387788252429166"><ele>699.25</ele><time>2026-04-03T13:00:12.999Z</time></trkpt><trkpt lat="43.81709525762209" lon="12.387647425882427"><ele>702.0</ele><time>2026-04-03T13:00:13.999Z</time></trkpt><trkpt lat="43.817020792826916" lon="12.387474041965982"><ele>702.0</ele><time>2026-04-03T13:00:14.999Z</time></trkpt><trkpt lat="43.816952767006896" lon="12.387287462330521"><ele>702.0</ele><time>2026-04-03T13:00:15.999Z</time></trkpt><trkpt lat="43.816890138427645" lon="12.38708497710306"><ele>702.0</ele><time>2026-04-03T13:00:16.999Z</time></trkpt><trkpt lat="43.81684167063629" lon="12.386869129369648"><ele>703.0</ele><time>2026-04-03T13:00:17.999Z</time></trkpt><trkpt lat="43.816800517274416" lon="12.386631907566043"><ele>704.0</ele><time>2026-04-03T13:00:18.999Z</time></trkpt><trkpt lat="43.81675879199641" lon="12.386391337345566"><ele>705.0</ele><time>2026-04-03T13:00:19.999Z</time></trkpt><trkpt lat="43.81671465283174" lon="12.386149231229028"><ele>705.0</ele><time>2026-04-03T13:00:20.999Z</time></trkpt><trkpt lat="43.81666739574413" lon="12.385931986239124"><ele>705.0</ele><time>2026-04-03T13:00:21.999Z</time></trkpt><trkpt lat="43.81659615934043" lon="12.385746510869348"><ele>705.0</ele><time>2026-04-03T13:00:22.999Z</time></trkpt><trkpt lat="43.816483409334886" lon="12.385596058398022"><ele>708.0</ele><time>2026-04-03T13:00:23.999Z</time></trkpt><trkpt lat="43.8163418438712" lon="12.385480695096131"><ele>711.0</ele><time>2026-04-03T13:00:24.999Z</time></trkpt><trkpt lat="43.816205546097805" lon="12.385344272444453"><ele>714.0</ele><time>2026-04-03T13:00:25.999Z</time></trkpt><trkpt lat="43.816073608020254" lon="12.385209136518712"><ele>712.0</ele><time>2026-04-03T13:00:26.999Z</time></trkpt><trkpt lat="43.81594681611523" lon="12.385059233568448"><ele>710.0</ele><time>2026-04-03T13:00:27.999Z</time></trkpt><trkpt lat="43.81584625451553" lon="12.38486738057102"><ele>708.0</ele><time>2026-04-03T13:00:28.999Z</time></trkpt><trkpt lat="43.81575051022568" lon="12.384651858968425"><ele>708.0</ele><time>2026-04-03T13:00:29.999Z</time></trkpt><trkpt lat="43.81565847168493" lon="12.384428119876235"><ele>708.0</ele><time>2026-04-03T13:00:30.999Z</time></trkpt><trkpt lat="43.81557025195255" lon="12.38421905764344"><ele>708.0</ele><time>2026-04-03T13:00:31.999Z</time></trkpt><trkpt lat="43.81548255594032" lon="12.384008166300884"><ele>710.6666666666666</ele><time>2026-04-03T13:00:32.999Z</time></trkpt><trkpt lat="43.81540843192847" lon="12.383785083460705"><ele>713.3333333333333</ele><time>2026-04-03T13:00:33.999Z</time></trkpt><trkpt lat="43.815345414798166" lon="12.3835443875555"><ele>716.0</ele><time>2026-04-03T13:00:35Z</time></trkpt><trkpt lat="43.8152827683235" lon="12.383299886809645"><ele>716.0</ele><time>2026-04-03T13:00:36Z</time></trkpt><trkpt lat="43.815212550659034" lon="12.383051938039433"><ele>716.0</ele><time>2026-04-03T13:00:37Z</time></trkpt><trkpt lat="43.815139745371184" lon="12.382806698741351"><ele>716.0</ele><time>2026-04-03T13:00:38Z</time></trkpt><trkpt lat="43.81508761902515" lon="12.382545361096847"><ele>712.0</ele><time>2026-04-03T13:00:39Z</time></trkpt><trkpt lat="43.81504931306125" lon="12.38227444998707"><ele>708.0</ele><time>2026-04-03T13:00:40Z</time></trkpt><trkpt lat="43.81501350120919" lon="12.382000290787188"><ele>704.0</ele><time>2026-04-03T13:00:41Z</time></trkpt><trkpt lat="43.81497348849147" lon="12.381715715841262"><ele>703.6666666666666</ele><time>2026-04-03T13:00:42Z</time></trkpt><trkpt lat="43.81492714931792" lon="12.381432421098545"><ele>703.3333333333334</ele><time>2026-04-03T13:00:43Z</time></trkpt><trkpt lat="43.8148795605861" lon="12.381147911209098"><ele>703.0</ele><time>2026-04-03T13:00:44Z</time></trkpt><trkpt lat="43.814829616160694" lon="12.38086238316765"><ele>703.3333333333334</ele><time>2026-04-03T13:00:45Z</time></trkpt><trkpt lat="43.81477229492591" lon="12.380578363589644"><ele>703.6666666666666</ele><time>2026-04-03T13:00:46Z</time></trkpt><trkpt lat="43.81471588482834" lon="12.380298428686524"><ele>704.0</ele><time>2026-04-03T13:00:47Z</time></trkpt><trkpt lat="43.81466956274161" lon="12.38001887047506"><ele>704.0</ele><time>2026-04-03T13:00:48Z</time></trkpt><trkpt lat="43.814632145516306" lon="12.379745621742122"><ele>704.0</ele><time>2026-04-03T13:00:49Z</time></trkpt><trkpt lat="43.81461321621761" lon="12.379491363434127"><ele>704.0</ele><time>2026-04-03T13:00:50Z</time></trkpt><trkpt lat="43.81460860484251" lon="12.379243698048215"><ele>703.3333333333333</ele><time>2026-04-03T13:00:51Z</time></trkpt><trkpt lat="43.81461000506183" lon="12.379001063021569"><ele>702.6666666666666</ele><time>2026-04-03T13:00:52Z</time></trkpt><trkpt lat="43.81460251353972" lon="12.378759428753394"><ele>702.0</ele><time>2026-04-03T13:00:53Z</time></trkpt><trkpt lat="43.81458022969343" lon="12.378524589204506"><ele>701.6666666666666</ele><time>2026-04-03T13:00:54Z</time></trkpt><trkpt lat="43.81454851014947" lon="12.378284095379312"><ele>701.3333333333333</ele><time>2026-04-03T13:00:55Z</time></trkpt><trkpt lat="43.814515229066245" lon="12.378043777013232"><ele>701.0</ele><time>2026-04-03T13:00:56Z</time></trkpt><trkpt lat="43.81447952520771" lon="12.377804560210194"><ele>702.6666666666666</ele><time>2026-04-03T13:00:57Z</time></trkpt><trkpt lat="43.81444785721897" lon="12.37756778141804"><ele>704.3333333333334</ele><time>2026-04-03T13:00:58Z</time></trkpt><trkpt lat="43.81441375034702" lon="12.377330329555718"><ele>706.0</ele><time>2026-04-03T13:00:59Z</time></trkpt><trkpt lat="43.81436865673329" lon="12.377093480953054"><ele>709.3333333333334</ele><time>2026-04-03T13:01:00Z</time></trkpt><trkpt lat="43.81430602294917" lon="12.376862696349345"><ele>712.6666666666666</ele><time>2026-04-03T13:01:01Z</time></trkpt><trkpt lat="43.81423477720301" lon="12.376630895481629"><ele>716.0</ele><time>2026-04-03T13:01:02Z</time></trkpt><trkpt lat="43.81416201022566" lon="12.37639873742945"><ele>720.0</ele><time>2026-04-03T13:01:03Z</time></trkpt><trkpt lat="43.8140879437818" lon="12.376165795365841"><ele>724.0</ele><time>2026-04-03T13:01:04Z</time></trkpt><trkpt lat="43.81401210945991" lon="12.37593343829101"><ele>728.0</ele><time>2026-04-03T13:01:05Z</time></trkpt><trkpt lat="43.81393256927438" lon="12.37570743528114"><ele>729.0</ele><time>2026-04-03T13:01:06Z</time></trkpt><trkpt lat="43.81384079723325" lon="12.375485340406561"><ele>730.0</ele><time>2026-04-03T13:01:07Z</time></trkpt><trkpt lat="43.81373748716694" lon="12.375275873850951"><ele>731.0</ele><time>2026-04-03T13:01:08Z</time></trkpt><trkpt lat="43.813634827756985" lon="12.37506510871692"><ele>731.0</ele><time>2026-04-03T13:01:09Z</time></trkpt><trkpt lat="43.813509535755166" lon="12.374877458344459"><ele>731.0</ele><time>2026-04-03T13:01:10Z</time></trkpt><trkpt lat="43.81339162524637" lon="12.374704562825112"><ele>731.0</ele><time>2026-04-03T13:01:11Z</time></trkpt><trkpt lat="43.813280980978575" lon="12.374562386016635"><ele>732.0</ele><time>2026-04-03T13:01:12Z</time></trkpt><trkpt lat="43.813199466813444" lon="12.374398061200695"><ele>733.0</ele><time>2026-04-03T13:01:13Z</time></trkpt><trkpt lat="43.813143895090604" lon="12.37424226511181"><ele>734.0</ele><time>2026-04-03T13:01:14Z</time></trkpt><trkpt lat="43.81310673667598" lon="12.374089643431635"><ele>735.0</ele><time>2026-04-03T13:01:15Z</time></trkpt><trkpt lat="43.81309812671158" lon="12.373946642501725"><ele>736.25</ele><time>2026-04-03T13:01:16Z</time></trkpt><trkpt lat="43.813117618794855" lon="12.373797216090797"><ele>737.5</ele><time>2026-04-03T13:01:17Z</time></trkpt><trkpt lat="43.81317004494959" lon="12.373640523323395"><ele>738.75</ele><time>2026-04-03T13:01:18Z</time></trkpt><trkpt lat="43.81322994828445" lon="12.373474153306459"><ele>740.0</ele><time>2026-04-03T13:01:19Z</time></trkpt><trkpt lat="43.81328503991835" lon="12.373300031773363"><ele>740.0</ele><time>2026-04-03T13:01:20Z</time></trkpt><trkpt lat="43.81333155253356" lon="12.37313045440336"><ele>740.0</ele><time>2026-04-03T13:01:21Z</time></trkpt><trkpt lat="43.81336885433405" lon="12.372968303873549"><ele>740.0</ele><time>2026-04-03T13:01:22Z</time></trkpt><trkpt lat="43.81340449462774" lon="12.372818374901401"><ele>740.0</ele><time>2026-04-03T13:01:23Z</time></trkpt><trkpt lat="43.81343939482125" lon="12.37266663577496"><ele>739.5</ele><time>2026-04-03T13:01:24Z</time></trkpt><trkpt lat="43.81344531009908" lon="12.372494445043982"><ele>739.0</ele><time>2026-04-03T13:01:25Z</time></trkpt><trkpt lat="43.813425630557695" lon="12.372320295810418"><ele>738.5</ele><time>2026-04-03T13:01:26Z</time></trkpt><trkpt lat="43.813488562002036" lon="12.372110232426733"><ele>738.0</ele><time>2026-04-03T13:01:27Z</time></trkpt><trkpt lat="43.813454521163465" lon="12.371891239246459"><ele>738.0</ele><time>2026-04-03T13:01:27.999Z</time></trkpt><trkpt lat="43.81341971012317" lon="12.371656685765993"><ele>738.0</ele><time>2026-04-03T13:01:28.999Z</time></trkpt><trkpt lat="43.813390870521204" lon="12.371402607261022"><ele>738.0</ele><time>2026-04-03T13:01:29.999Z</time></trkpt><trkpt lat="43.8133661353646" lon="12.371168612081838"><ele>738.5</ele><time>2026-04-03T13:01:30.999Z</time></trkpt><trkpt lat="43.81334836220436" lon="12.370959905604202"><ele>739.0</ele><time>2026-04-03T13:01:31.999Z</time></trkpt><trkpt lat="43.813354562657636" lon="12.37076954938446"><ele>739.5</ele><time>2026-04-03T13:01:32.999Z</time></trkpt><trkpt lat="43.81338923353236" lon="12.370578322463455"><ele>740.0</ele><time>2026-04-03T13:01:33.999Z</time></trkpt><trkpt lat="43.81344113603901" lon="12.370396341172404"><ele>742.0</ele><time>2026-04-03T13:01:34.999Z</time></trkpt><trkpt lat="43.813498633896735" lon="12.37024513977582"><ele>744.0</ele><time>2026-04-03T13:01:35.999Z</time></trkpt><trkpt lat="43.813563589714306" lon="12.370140106766966"><ele>746.0</ele><time>2026-04-03T13:01:36.999Z</time></trkpt><trkpt lat="43.81366642995538" lon="12.370077777288254"><ele>748.0</ele><time>2026-04-03T13:01:37.999Z</time></trkpt><trkpt lat="43.81379145075244" lon="12.370056246153315"><ele>748.0</ele><time>2026-04-03T13:01:38.999Z</time></trkpt><trkpt lat="43.81393493423402" lon="12.37005162007121"><ele>748.0</ele><time>2026-04-03T13:01:39.999Z</time></trkpt><trkpt lat="43.81409275774893" lon="12.370031107037777"><ele>748.0</ele><time>2026-04-03T13:01:40.999Z</time></trkpt><trkpt lat="43.81424725964344" lon="12.369963629210845"><ele>748.3333333333334</ele><time>2026-04-03T13:01:41.999Z</time></trkpt><trkpt lat="43.81438346853223" lon="12.369843380622411"><ele>748.6666666666666</ele><time>2026-04-03T13:01:42.999Z</time></trkpt><trkpt lat="43.814506373170786" lon="12.369685138386957"><ele>749.0</ele><time>2026-04-03T13:01:43.999Z</time></trkpt><trkpt lat="43.8146189251728" lon="12.369508605851719"><ele>749.0</ele><time>2026-04-03T13:01:44.999Z</time></trkpt><trkpt lat="43.81472263373443" lon="12.369323487129664"><ele>749.0</ele><time>2026-04-03T13:01:45.999Z</time></trkpt><trkpt lat="43.81482177397509" lon="12.369126463087657"><ele>749.0</ele><time>2026-04-03T13:01:46.999Z</time></trkpt><trkpt lat="43.81491088474016" lon="12.368938702975791"><ele>750.3333333333333</ele><time>2026-04-03T13:01:47.999Z</time></trkpt><trkpt lat="43.81499779386899" lon="12.368763250706365"><ele>751.6666666666666</ele><time>2026-04-03T13:01:48.999Z</time></trkpt><trkpt lat="43.81509998714855" lon="12.368595801700707"><ele>753.0</ele><time>2026-04-03T13:01:49.999Z</time></trkpt><trkpt lat="43.815204631636355" lon="12.368443935408331"><ele>753.0</ele><time>2026-04-03T13:01:50.999Z</time></trkpt><trkpt lat="43.8153105263007" lon="12.36830137785511"><ele>753.0</ele><time>2026-04-03T13:01:51.999Z</time></trkpt><trkpt lat="43.815414886659326" lon="12.368163892398758"><ele>753.0</ele><time>2026-04-03T13:01:52.999Z</time></trkpt><trkpt lat="43.815513028382945" lon="12.3680321900414"><ele>753.0</ele><time>2026-04-03T13:01:53.999Z</time></trkpt><trkpt lat="43.81560853586762" lon="12.36789445129211"><ele>754.25</ele><time>2026-04-03T13:01:54.999Z</time></trkpt><trkpt lat="43.81569871737308" lon="12.367759248566383"><ele>755.5</ele><time>2026-04-03T13:01:55.999Z</time></trkpt><trkpt lat="43.815784463376325" lon="12.367623207681785"><ele>756.75</ele><time>2026-04-03T13:01:56.999Z</time></trkpt><trkpt lat="43.815869248195874" lon="12.367481550951519"><ele>758.0</ele><time>2026-04-03T13:01:57.999Z</time></trkpt><trkpt lat="43.81594859434657" lon="12.367332865203377"><ele>757.5</ele><time>2026-04-03T13:01:58.999Z</time></trkpt><trkpt lat="43.81602319653745" lon="12.367178309688583"><ele>757.0</ele><time>2026-04-03T13:01:59.999Z</time></trkpt><trkpt lat="43.8160954965207" lon="12.367021966456385"><ele>756.5</ele><time>2026-04-03T13:02:00.999Z</time></trkpt><trkpt lat="43.81616636173565" lon="12.366867019668458"><ele>756.0</ele><time>2026-04-03T13:02:01.999Z</time></trkpt><trkpt lat="43.81623482994068" lon="12.366706050212692"><ele>756.0</ele><time>2026-04-03T13:02:02.999Z</time></trkpt><trkpt lat="43.816304204146576" lon="12.366541196819798"><ele>756.0</ele><time>2026-04-03T13:02:03.999Z</time></trkpt><trkpt lat="43.8163709144282" lon="12.36638245869515"><ele>756.0</ele><time>2026-04-03T13:02:04.999Z</time></trkpt><trkpt lat="43.81644316858991" lon="12.366223403634965"><ele>756.0</ele><time>2026-04-03T13:02:05.999Z</time></trkpt><trkpt lat="43.81652548109406" lon="12.366063847869382"><ele>755.3333333333334</ele><time>2026-04-03T13:02:06.999Z</time></trkpt><trkpt lat="43.816635476281434" lon="12.365924234298522"><ele>754.6666666666667</ele><time>2026-04-03T13:02:07.999Z</time></trkpt><trkpt lat="43.81676972132786" lon="12.365791931198444"><ele>754.0</ele><time>2026-04-03T13:02:08.999Z</time></trkpt><trkpt lat="43.816905529355914" lon="12.365664844566828"><ele>754.0</ele><time>2026-04-03T13:02:09.999Z</time></trkpt><trkpt lat="43.81702771417761" lon="12.365549216260812"><ele>754.0</ele><time>2026-04-03T13:02:10.999Z</time></trkpt><trkpt lat="43.81712103713045" lon="12.365432150762288"><ele>754.0</ele><time>2026-04-03T13:02:11.999Z</time></trkpt><trkpt lat="43.81717525665449" lon="12.365301784889297"><ele>754.0</ele><time>2026-04-03T13:02:12.999Z</time></trkpt><trkpt lat="43.81719108760855" lon="12.365149139047318"><ele>754.0</ele><time>2026-04-03T13:02:13.999Z</time></trkpt><trkpt lat="43.81716725186929" lon="12.364967153829982"><ele>754.0</ele><time>2026-04-03T13:02:14.999Z</time></trkpt><trkpt lat="43.81711242819725" lon="12.364773142654165"><ele>754.0</ele><time>2026-04-03T13:02:15.999Z</time></trkpt><trkpt lat="43.817048186623566" lon="12.364592970721587"><ele>754.0</ele><time>2026-04-03T13:02:16.999Z</time></trkpt><trkpt lat="43.81700392118953" lon="12.364415506597684"><ele>754.75</ele><time>2026-04-03T13:02:17.999Z</time></trkpt><trkpt lat="43.816991682903655" lon="12.36424364682812"><ele>755.5</ele><time>2026-04-03T13:02:18.999Z</time></trkpt><trkpt lat="43.81701296800621" lon="12.364082435836298"><ele>756.25</ele><time>2026-04-03T13:02:19.999Z</time></trkpt><trkpt lat="43.81706064411437" lon="12.363930428272246"><ele>757.0</ele><time>2026-04-03T13:02:20.999Z</time></trkpt><trkpt lat="43.81714452757397" lon="12.363809095322093"><ele>761.0</ele><time>2026-04-03T13:02:21.999Z</time></trkpt><trkpt lat="43.81724288198647" lon="12.363685032342643"><ele>765.0</ele><time>2026-04-03T13:02:22.999Z</time></trkpt><trkpt lat="43.81735841777764" lon="12.36357888391922"><ele>769.0</ele><time>2026-04-03T13:02:23.999Z</time></trkpt><trkpt lat="43.81749364801765" lon="12.363523413083717"><ele>773.0</ele><time>2026-04-03T13:02:24.999Z</time></trkpt><trkpt lat="43.81765034470285" lon="12.363495760426842"><ele>770.3333333333334</ele><time>2026-04-03T13:02:25.999Z</time></trkpt><trkpt lat="43.817818660639226" lon="12.363480812571416"><ele>767.6666666666667</ele><time>2026-04-03T13:02:26.999Z</time></trkpt><trkpt lat="43.81799048762479" lon="12.36345717241408"><ele>765.0</ele><time>2026-04-03T13:02:27.999Z</time></trkpt><trkpt lat="43.818163564256146" lon="12.363423890079423"><ele>765.0</ele><time>2026-04-03T13:02:28.999Z</time></trkpt><trkpt lat="43.818326906634226" lon="12.36338261765772"><ele>765.0</ele><time>2026-04-03T13:02:29.999Z</time></trkpt><trkpt lat="43.81849171013115" lon="12.363337178040554"><ele>765.0</ele><time>2026-04-03T13:02:30.999Z</time></trkpt><trkpt lat="43.81865170362071" lon="12.3632853760765"><ele>763.6666666666666</ele><time>2026-04-03T13:02:31.999Z</time></trkpt><trkpt lat="43.818807727543394" lon="12.363241156009646"><ele>762.3333333333333</ele><time>2026-04-03T13:02:32.999Z</time></trkpt><trkpt lat="43.818957734547766" lon="12.363216536831121"><ele>761.0</ele><time>2026-04-03T13:02:33.999Z</time></trkpt><trkpt lat="43.819098513130136" lon="12.363225369334446"><ele>761.0</ele><time>2026-04-03T13:02:34.999Z</time></trkpt><trkpt lat="43.8192285732742" lon="12.363273491413295"><ele>761.0</ele><time>2026-04-03T13:02:35.999Z</time></trkpt><trkpt lat="43.81934674056168" lon="12.363360935336107"><ele>761.0</ele><time>2026-04-03T13:02:36.999Z</time></trkpt><trkpt lat="43.819466190560995" lon="12.363469356535443"><ele>761.0</ele><time>2026-04-03T13:02:37.999Z</time></trkpt><trkpt lat="43.81959762091957" lon="12.363570910212884"><ele>761.6666666666666</ele><time>2026-04-03T13:02:38.999Z</time></trkpt><trkpt lat="43.81974391042736" lon="12.36364615835377"><ele>762.3333333333334</ele><time>2026-04-03T13:02:39.999Z</time></trkpt><trkpt lat="43.819900866103566" lon="12.363698081316894"><ele>763.0</ele><time>2026-04-03T13:02:41Z</time></trkpt><trkpt lat="43.82006780941294" lon="12.363741178684574"><ele>760.6666666666667</ele><time>2026-04-03T13:02:42Z</time></trkpt><trkpt lat="43.82023524681995" lon="12.363783280879383"><ele>758.3333333333334</ele><time>2026-04-03T13:02:43Z</time></trkpt><trkpt lat="43.82039831700596" lon="12.363816095227595"><ele>756.0</ele><time>2026-04-03T13:02:44Z</time></trkpt><trkpt lat="43.820552946769055" lon="12.36382269474586"><ele>756.0</ele><time>2026-04-03T13:02:45Z</time></trkpt><trkpt lat="43.82068575328194" lon="12.363798041799974"><ele>756.0</ele><time>2026-04-03T13:02:46Z</time></trkpt><trkpt lat="43.82080939825757" lon="12.363731330060238"><ele>756.0</ele><time>2026-04-03T13:02:47Z</time></trkpt><trkpt lat="43.8209143133058" lon="12.363625627457175"><ele>756.0</ele><time>2026-04-03T13:02:48Z</time></trkpt><trkpt lat="43.821011351819166" lon="12.363498937514056"><ele>753.25</ele><time>2026-04-03T13:02:49Z</time></trkpt><trkpt lat="43.821111316984314" lon="12.363362069445131"><ele>750.5</ele><time>2026-04-03T13:02:50Z</time></trkpt><trkpt lat="43.8212147895186" lon="12.363215073382987"><ele>747.75</ele><time>2026-04-03T13:02:51Z</time></trkpt><trkpt lat="43.821318597762655" lon="12.363056660923396"><ele>745.0</ele><time>2026-04-03T13:02:52Z</time></trkpt><trkpt lat="43.82142525808846" lon="12.362892447644375"><ele>745.0</ele><time>2026-04-03T13:02:53Z</time></trkpt><trkpt lat="43.821540672441344" lon="12.362727323838348"><ele>745.0</ele><time>2026-04-03T13:02:54Z</time></trkpt><trkpt lat="43.82166079924804" lon="12.362560025423207"><ele>745.0</ele><time>2026-04-03T13:02:55Z</time></trkpt><trkpt lat="43.82178168297412" lon="12.36240114409676"><ele>739.6666666666667</ele><time>2026-04-03T13:02:56Z</time></trkpt><trkpt lat="43.82190380433921" lon="12.362254591693945"><ele>734.3333333333334</ele><time>2026-04-03T13:02:57Z</time></trkpt><trkpt lat="43.82202555539494" lon="12.362129284567496"><ele>729.0</ele><time>2026-04-03T13:02:58Z</time></trkpt><trkpt lat="43.82214992691074" lon="12.362019429294069"><ele>729.0</ele><time>2026-04-03T13:02:59Z</time></trkpt><trkpt lat="43.82228908845173" lon="12.361933165857012"><ele>729.0</ele><time>2026-04-03T13:03:00Z</time></trkpt><trkpt lat="43.822437221008464" lon="12.361876555464484"><ele>729.0</ele><time>2026-04-03T13:03:01Z</time></trkpt><trkpt lat="43.82258846602183" lon="12.361833458539706"><ele>730.3333333333334</ele><time>2026-04-03T13:03:02Z</time></trkpt><trkpt lat="43.82274099064562" lon="12.361784261833208"><ele>731.6666666666667</ele><time>2026-04-03T13:03:03Z</time></trkpt><trkpt lat="43.82289293505904" lon="12.361731449452803"><ele>733.0</ele><time>2026-04-03T13:03:04Z</time></trkpt><trkpt lat="43.82304479099149" lon="12.361678206114735"><ele>733.0</ele><time>2026-04-03T13:03:05Z</time></trkpt><trkpt lat="43.82319573673454" lon="12.361626144242997"><ele>733.0</ele><time>2026-04-03T13:03:06Z</time></trkpt><trkpt lat="43.82334468477233" lon="12.36157343532857"><ele>733.0</ele><time>2026-04-03T13:03:07Z</time></trkpt><trkpt lat="43.82348209962587" lon="12.361528482847266"><ele>738.75</ele><time>2026-04-03T13:03:08Z</time></trkpt><trkpt lat="43.823608267339026" lon="12.361495236328201"><ele>744.5</ele><time>2026-04-03T13:03:09Z</time></trkpt><trkpt lat="43.823737962835885" lon="12.361493618483399"><ele>750.25</ele><time>2026-04-03T13:03:10Z</time></trkpt><trkpt lat="43.82385945749081" lon="12.361527844780156"><ele>756.0</ele><time>2026-04-03T13:03:11Z</time></trkpt><trkpt lat="43.82397420344181" lon="12.361581845802137"><ele>756.0</ele><time>2026-04-03T13:03:12Z</time></trkpt><trkpt lat="43.824076784820974" lon="12.361669082346676"><ele>756.0</ele><time>2026-04-03T13:03:13Z</time></trkpt><trkpt lat="43.82416594828364" lon="12.361782420402987"><ele>756.0</ele><time>2026-04-03T13:03:14Z</time></trkpt><trkpt lat="43.824240511659895" lon="12.361922831117305"><ele>756.0</ele><time>2026-04-03T13:03:15Z</time></trkpt><trkpt lat="43.82427766005304" lon="12.36210971381947"><ele>754.5</ele><time>2026-04-03T13:03:16Z</time></trkpt><trkpt lat="43.82431087677587" lon="12.362283306300114"><ele>753.0</ele><time>2026-04-03T13:03:17Z</time></trkpt><trkpt lat="43.824305570275975" lon="12.362451090718983"><ele>751.5</ele><time>2026-04-03T13:03:18Z</time></trkpt><trkpt lat="43.82425640979418" lon="12.36258804789693"><ele>750.0</ele><time>2026-04-03T13:03:19Z</time></trkpt><trkpt lat="43.824201453372034" lon="12.362710734709616"><ele>750.0</ele><time>2026-04-03T13:03:20Z</time></trkpt><trkpt lat="43.82415537965638" lon="12.3628251949539"><ele>750.0</ele><time>2026-04-03T13:03:21Z</time></trkpt><trkpt lat="43.82414338811778" lon="12.362945941388572"><ele>750.0</ele><time>2026-04-03T13:03:22Z</time></trkpt><trkpt lat="43.824191820977866" lon="12.363065240116148"><ele>750.0</ele><time>2026-04-03T13:03:23Z</time></trkpt><trkpt lat="43.8242627391743" lon="12.363146450435746"><ele>750.0</ele><time>2026-04-03T13:03:24Z</time></trkpt><trkpt lat="43.82436710633594" lon="12.3631889789295"><ele>753.75</ele><time>2026-04-03T13:03:25Z</time></trkpt><trkpt lat="43.82449214611076" lon="12.363193891797092"><ele>757.5</ele><time>2026-04-03T13:03:26Z</time></trkpt><trkpt lat="43.824635028061586" lon="12.363202097333682"><ele>761.25</ele><time>2026-04-03T13:03:27Z</time></trkpt><trkpt lat="43.82477723156216" lon="12.363228819881604"><ele>765.0</ele><time>2026-04-03T13:03:28Z</time></trkpt><trkpt lat="43.82491814070303" lon="12.363274005066105"><ele>765.0</ele><time>2026-04-03T13:03:29Z</time></trkpt><trkpt lat="43.825058292363636" lon="12.363346264957132"><ele>765.0</ele><time>2026-04-03T13:03:30Z</time></trkpt><trkpt lat="43.82519867422224" lon="12.363448955197784"><ele>765.0</ele><time>2026-04-03T13:03:31Z</time></trkpt><trkpt lat="43.825335307560074" lon="12.36358081457413"><ele>766.3333333333333</ele><time>2026-04-03T13:03:31.999Z</time></trkpt><trkpt lat="43.82546811299109" lon="12.363732790316227"><ele>767.6666666666666</ele><time>2026-04-03T13:03:32.999Z</time></trkpt><trkpt lat="43.825596993931796" lon="12.363891133787485"><ele>769.0</ele><time>2026-04-03T13:03:33.999Z</time></trkpt><trkpt lat="43.82571177070182" lon="12.364040507427823"><ele>769.0</ele><time>2026-04-03T13:03:34.999Z</time></trkpt><trkpt lat="43.82582671737755" lon="12.364190053718918"><ele>769.0</ele><time>2026-04-03T13:03:35.999Z</time></trkpt><trkpt lat="43.825945625267444" lon="12.364324269566167"><ele>769.0</ele><time>2026-04-03T13:03:36.999Z</time></trkpt><trkpt lat="43.8260775390636" lon="12.364435581531533"><ele>775.6666666666666</ele><time>2026-04-03T13:03:37.999Z</time></trkpt><trkpt lat="43.826223213641114" lon="12.36451968678467"><ele>782.3333333333333</ele><time>2026-04-03T13:03:38.999Z</time></trkpt><trkpt lat="43.82637412532683" lon="12.364584576713394"><ele>789.0</ele><time>2026-04-03T13:03:39.999Z</time></trkpt><trkpt lat="43.8265188106592" lon="12.364640665762673"><ele>789.0</ele><time>2026-04-03T13:03:40.999Z</time></trkpt><trkpt lat="43.82664358837892" lon="12.364672150955501"><ele>789.0</ele><time>2026-04-03T13:03:41.999Z</time></trkpt><trkpt lat="43.826760074573016" lon="12.36466201715253"><ele>789.0</ele><time>2026-04-03T13:03:42.999Z</time></trkpt><trkpt lat="43.82689175414523" lon="12.364602993656632"><ele>789.0</ele><time>2026-04-03T13:03:43.999Z</time></trkpt><trkpt lat="43.82702798036211" lon="12.364524490459882"><ele>785.0</ele><time>2026-04-03T13:03:44.999Z</time></trkpt><trkpt lat="43.827166230960216" lon="12.364434350778726"><ele>781.0</ele><time>2026-04-03T13:03:45.999Z</time></trkpt><trkpt lat="43.82730704640144" lon="12.364330507101084"><ele>777.0</ele><time>2026-04-03T13:03:46.999Z</time></trkpt><trkpt lat="43.82744741451908" lon="12.364210690796424"><ele>777.0</ele><time>2026-04-03T13:03:47.999Z</time></trkpt><trkpt lat="43.827580302218074" lon="12.364075312880047"><ele>777.0</ele><time>2026-04-03T13:03:48.999Z</time></trkpt><trkpt lat="43.82770957266385" lon="12.363929022455144"><ele>777.0</ele><time>2026-04-03T13:03:49.999Z</time></trkpt><trkpt lat="43.827834033925875" lon="12.363780111998524"><ele>778.3333333333333</ele><time>2026-04-03T13:03:50.999Z</time></trkpt><trkpt lat="43.827964218865645" lon="12.363634506666108"><ele>779.6666666666666</ele><time>2026-04-03T13:03:51.999Z</time></trkpt><trkpt lat="43.82810458327911" lon="12.363498518947738"><ele>781.0</ele><time>2026-04-03T13:03:52.999Z</time></trkpt><trkpt lat="43.82825414466543" lon="12.363373015875652"><ele>781.0</ele><time>2026-04-03T13:03:53.999Z</time></trkpt><trkpt lat="43.82840226522112" lon="12.363250418713323"><ele>781.0</ele><time>2026-04-03T13:03:54.999Z</time></trkpt><trkpt lat="43.8285337781203" lon="12.36311978106682"><ele>781.0</ele><time>2026-04-03T13:03:55.999Z</time></trkpt><trkpt lat="43.82865023830269" lon="12.362969336438944"><ele>783.6666666666666</ele><time>2026-04-03T13:03:56.999Z</time></trkpt><trkpt lat="43.82876144408086" lon="12.36281203779869"><ele>786.3333333333333</ele><time>2026-04-03T13:03:57.999Z</time></trkpt><trkpt lat="43.82887251104347" lon="12.36265244874375"><ele>789.0</ele><time>2026-04-03T13:03:58.999Z</time></trkpt><trkpt lat="43.82898814568917" lon="12.362505111998466"><ele>789.0</ele><time>2026-04-03T13:03:59.999Z</time></trkpt><trkpt lat="43.829120945817714" lon="12.362381367146142"><ele>789.0</ele><time>2026-04-03T13:04:00.999Z</time></trkpt><trkpt lat="43.829275263291095" lon="12.362279378257682"><ele>789.0</ele><time>2026-04-03T13:04:01.999Z</time></trkpt><trkpt lat="43.829439930813386" lon="12.362203620620793"><ele>791.5</ele><time>2026-04-03T13:04:02.999Z</time></trkpt><trkpt lat="43.8295797883483" lon="12.362145281756252"><ele>794.0</ele><time>2026-04-03T13:04:03.999Z</time></trkpt><trkpt lat="43.82969160954841" lon="12.362047851800748"><ele>796.5</ele><time>2026-04-03T13:04:04.999Z</time></trkpt><trkpt lat="43.82976814069713" lon="12.361919241655087"><ele>799.0</ele><time>2026-04-03T13:04:05.999Z</time></trkpt><trkpt lat="43.82982934634103" lon="12.361753339619153"><ele>799.0</ele><time>2026-04-03T13:04:06.999Z</time></trkpt><trkpt lat="43.82989412442082" lon="12.361563863624795"><ele>799.0</ele><time>2026-04-03T13:04:07.999Z</time></trkpt><trkpt lat="43.82996945581014" lon="12.361377995114339"><ele>799.0</ele><time>2026-04-03T13:04:08.999Z</time></trkpt><trkpt lat="43.83006993535973" lon="12.36122306563413"><ele>801.6666666666666</ele><time>2026-04-03T13:04:09.999Z</time></trkpt><trkpt lat="43.830201646725406" lon="12.361105426314868"><ele>804.3333333333333</ele><time>2026-04-03T13:04:10.999Z</time></trkpt><trkpt lat="43.83035633188978" lon="12.360998056650221"><ele>807.0</ele><time>2026-04-03T13:04:11.999Z</time></trkpt><trkpt lat="43.8305133263195" lon="12.360886040671026"><ele>807.0</ele><time>2026-04-03T13:04:12.999Z</time></trkpt><trkpt lat="43.83067548975878" lon="12.360770541874855"><ele>807.0</ele><time>2026-04-03T13:04:13.999Z</time></trkpt><trkpt lat="43.830839367970135" lon="12.360655250454192"><ele>807.0</ele><time>2026-04-03T13:04:14.999Z</time></trkpt><trkpt lat="43.83100430207323" lon="12.360532227015758"><ele>811.6666666666667</ele><time>2026-04-03T13:04:15.999Z</time></trkpt><trkpt lat="43.83116880975438" lon="12.360409213952286"><ele>816.3333333333334</ele><time>2026-04-03T13:04:16.999Z</time></trkpt><trkpt lat="43.83133044725628" lon="12.360289135441679"><ele>821.0</ele><time>2026-04-03T13:04:17.999Z</time></trkpt><trkpt lat="43.83148542083142" lon="12.36017280610041"><ele>821.0</ele><time>2026-04-03T13:04:18.999Z</time></trkpt><trkpt lat="43.83163277522367" lon="12.360064268419245"><ele>821.0</ele><time>2026-04-03T13:04:19.999Z</time></trkpt><trkpt lat="43.83177369551881" lon="12.3599610359836"><ele>821.0</ele><time>2026-04-03T13:04:20.999Z</time></trkpt><trkpt lat="43.831907373986986" lon="12.3598605082333"><ele>819.75</ele><time>2026-04-03T13:04:21.999Z</time></trkpt><trkpt lat="43.83202432026306" lon="12.359768583886815"><ele>818.5</ele><time>2026-04-03T13:04:22.999Z</time></trkpt><trkpt lat="43.8321267906702" lon="12.359680702625488"><ele>817.25</ele><time>2026-04-03T13:04:23.999Z</time></trkpt><trkpt lat="43.832216832668564" lon="12.359603115935668"><ele>816.0</ele><time>2026-04-03T13:04:24.999Z</time></trkpt><trkpt lat="43.832305223217794" lon="12.359522617304446"><ele>817.4</ele><time>2026-04-03T13:04:25.999Z</time></trkpt><trkpt lat="43.83238837544539" lon="12.35943852816013"><ele>818.8</ele><time>2026-04-03T13:04:26.999Z</time></trkpt><trkpt lat="43.83246414127518" lon="12.359355899673751"><ele>820.1999999999999</ele><time>2026-04-03T13:04:27.999Z</time></trkpt><trkpt lat="43.83253551822635" lon="12.359287682448443"><ele>821.5999999999999</ele><time>2026-04-03T13:04:28.999Z</time></trkpt><trkpt lat="43.832591227644826" lon="12.35922712536502"><ele>823.0</ele><time>2026-04-03T13:04:29.999Z</time></trkpt><trkpt lat="43.83267382072591" lon="12.35912864961983"><ele>823.8</ele><time>2026-04-03T13:04:31.999Z</time></trkpt><trkpt lat="43.8325903082809" lon="12.358947939024958"><ele>824.5999999999999</ele><time>2026-04-03T13:04:35.999Z</time></trkpt><trkpt lat="43.83247605209347" lon="12.358918598850218"><ele>825.4000000000001</ele><time>2026-04-03T13:04:37.999Z</time></trkpt><trkpt lat="43.83240927930037" lon="12.358874329505753"><ele>826.2</ele><time>2026-04-03T13:04:38.999Z</time></trkpt><trkpt lat="43.832311532857645" lon="12.358846932802427"><ele>827.0</ele><time>2026-04-03T13:04:39.999Z</time></trkpt><trkpt lat="43.832206482612584" lon="12.358819936490962"><ele>828.5</ele><time>2026-04-03T13:04:40.999Z</time></trkpt><trkpt lat="43.83209360459246" lon="12.35880072655981"><ele>830.0</ele><time>2026-04-03T13:04:41.999Z</time></trkpt><trkpt lat="43.83196695290613" lon="12.358794102541266"><ele>831.5</ele><time>2026-04-03T13:04:42.999Z</time></trkpt><trkpt lat="43.8318265093392" lon="12.358845522209707"><ele>833.0</ele><time>2026-04-03T13:04:43.999Z</time></trkpt><trkpt lat="43.831705385721165" lon="12.358900256887228"><ele>833.0</ele><time>2026-04-03T13:04:44.999Z</time></trkpt><trkpt lat="43.83157720382547" lon="12.358960014059445"><ele>833.0</ele><time>2026-04-03T13:04:45.999Z</time></trkpt><trkpt lat="43.83144506930656" lon="12.35902043141211"><ele>833.0</ele><time>2026-04-03T13:04:47Z</time></trkpt><trkpt lat="43.831308465151864" lon="12.359076501500184"><ele>833.0</ele><time>2026-04-03T13:04:48Z</time></trkpt><trkpt lat="43.83116691529791" lon="12.359134377362931"><ele>833.0</ele><time>2026-04-03T13:04:49Z</time></trkpt><trkpt lat="43.831020911965624" lon="12.359191190743477"><ele>833.0</ele><time>2026-04-03T13:04:50Z</time></trkpt><trkpt lat="43.830873553226944" lon="12.359239757505073"><ele>833.0</ele><time>2026-04-03T13:04:51Z</time></trkpt><trkpt lat="43.83073436971994" lon="12.359293816926453"><ele>833.0</ele><time>2026-04-03T13:04:52Z</time></trkpt><trkpt lat="43.830595856703546" lon="12.359371907208784"><ele>837.0</ele><time>2026-04-03T13:04:53Z</time></trkpt><trkpt lat="43.83046288812476" lon="12.359470838284462"><ele>841.0</ele><time>2026-04-03T13:04:54Z</time></trkpt><trkpt lat="43.83033466658882" lon="12.359576542185437"><ele>845.0</ele><time>2026-04-03T13:04:55Z</time></trkpt><trkpt lat="43.830207903337495" lon="12.359689018726712"><ele>843.5</ele><time>2026-04-03T13:04:56Z</time></trkpt><trkpt lat="43.83007913168338" lon="12.35978048296641"><ele>842.0</ele><time>2026-04-03T13:04:57Z</time></trkpt><trkpt lat="43.8299430003385" lon="12.359851766727939"><ele>840.5</ele><time>2026-04-03T13:04:58Z</time></trkpt><trkpt lat="43.82979832528198" lon="12.359892514227683"><ele>839.0</ele><time>2026-04-03T13:04:59Z</time></trkpt><trkpt lat="43.8296526428067" lon="12.359913993646325"><ele>839.0</ele><time>2026-04-03T13:05:00Z</time></trkpt><trkpt lat="43.82951413326788" lon="12.359906734936905"><ele>839.0</ele><time>2026-04-03T13:05:01Z</time></trkpt><trkpt lat="43.829374560272925" lon="12.359888933537642"><ele>839.0</ele><time>2026-04-03T13:05:02Z</time></trkpt><trkpt lat="43.82923121722218" lon="12.359900272955702"><ele>839.0</ele><time>2026-04-03T13:05:03Z</time></trkpt><trkpt lat="43.82908708622073" lon="12.3599749617747"><ele>845.0</ele><time>2026-04-03T13:05:04Z</time></trkpt><trkpt lat="43.82895868869398" lon="12.360107833295984"><ele>851.0</ele><time>2026-04-03T13:05:05Z</time></trkpt><trkpt lat="43.82883872162774" lon="12.360256218111905"><ele>857.0</ele><time>2026-04-03T13:05:06Z</time></trkpt><trkpt lat="43.82870773900494" lon="12.360396227874677"><ele>857.0</ele><time>2026-04-03T13:05:07Z</time></trkpt><trkpt lat="43.828580186626596" lon="12.360530461568223"><ele>857.0</ele><time>2026-04-03T13:05:08Z</time></trkpt><trkpt lat="43.82846930265695" lon="12.360641016205163"><ele>857.0</ele><time>2026-04-03T13:05:09Z</time></trkpt><trkpt lat="43.82836668624919" lon="12.360719739427015"><ele>857.0</ele><time>2026-04-03T13:05:10Z</time></trkpt><trkpt lat="43.82826103917339" lon="12.360767615158137"><ele>856.0</ele><time>2026-04-03T13:05:11Z</time></trkpt><trkpt lat="43.82814936324384" lon="12.360787297065503"><ele>855.0</ele><time>2026-04-03T13:05:12Z</time></trkpt><trkpt lat="43.828029932345835" lon="12.360817884944852"><ele>854.0</ele><time>2026-04-03T13:05:13Z</time></trkpt><trkpt lat="43.82790536689181" lon="12.360824174002577"><ele>853.0</ele><time>2026-04-03T13:05:14Z</time></trkpt><trkpt lat="43.827782321417054" lon="12.360826686502548"><ele>853.0</ele><time>2026-04-03T13:05:15Z</time></trkpt><trkpt lat="43.82768015128964" lon="12.360913750265"><ele>853.0</ele><time>2026-04-03T13:05:16Z</time></trkpt><trkpt lat="43.82758538285359" lon="12.361005036509722"><ele>853.0</ele><time>2026-04-03T13:05:17Z</time></trkpt><trkpt lat="43.82748446903214" lon="12.36108369875287"><ele>853.0</ele><time>2026-04-03T13:05:18Z</time></trkpt><trkpt lat="43.82737669080744" lon="12.361138135057914"><ele>856.5</ele><time>2026-04-03T13:05:19Z</time></trkpt><trkpt lat="43.82726057460934" lon="12.361180727076547"><ele>860.0</ele><time>2026-04-03T13:05:20Z</time></trkpt><trkpt lat="43.827132082488745" lon="12.361204493675618"><ele>863.5</ele><time>2026-04-03T13:05:21Z</time></trkpt><trkpt lat="43.827007882334534" lon="12.361215952511397"><ele>867.0</ele><time>2026-04-03T13:05:22Z</time></trkpt><trkpt lat="43.82689544015265" lon="12.361215924402892"><ele>865.8</ele><time>2026-04-03T13:05:23Z</time></trkpt><trkpt lat="43.826789812753205" lon="12.36120064721578"><ele>864.6</ele><time>2026-04-03T13:05:24Z</time></trkpt><trkpt lat="43.82667815912672" lon="12.36119363667169"><ele>863.3999999999999</ele><time>2026-04-03T13:05:25Z</time></trkpt><trkpt lat="43.826573661510785" lon="12.361152034720208"><ele>862.1999999999999</ele><time>2026-04-03T13:05:26Z</time></trkpt><trkpt lat="43.82647972384427" lon="12.361088090352817"><ele>861.0</ele><time>2026-04-03T13:05:27Z</time></trkpt><trkpt lat="43.826410244124936" lon="12.360994335774846"><ele>861.0</ele><time>2026-04-03T13:05:28Z</time></trkpt><trkpt lat="43.82636661145162" lon="12.360872819837365"><ele>860.9999999999999</ele><time>2026-04-03T13:05:29Z</time></trkpt><trkpt lat="43.82634352388273" lon="12.360728202812394"><ele>860.9999999999999</ele><time>2026-04-03T13:05:30Z</time></trkpt><trkpt lat="43.82633933015168" lon="12.36056770907239"><ele>861.0</ele><time>2026-04-03T13:05:31Z</time></trkpt><trkpt lat="43.82633358388348" lon="12.360399340624431"><ele>861.0</ele><time>2026-04-03T13:05:32Z</time></trkpt><trkpt lat="43.826301302533516" lon="12.360236196387593"><ele>862.5</ele><time>2026-04-03T13:05:33Z</time></trkpt><trkpt lat="43.82623821580465" lon="12.360073766926396"><ele>864.0</ele><time>2026-04-03T13:05:34Z</time></trkpt><trkpt lat="43.826159412154915" lon="12.359911294010136"><ele>865.5</ele><time>2026-04-03T13:05:34.999Z</time></trkpt><trkpt lat="43.826074201697644" lon="12.359750162862552"><ele>867.0</ele><time>2026-04-03T13:05:35.999Z</time></trkpt><trkpt lat="43.825994796780854" lon="12.359586860988664"><ele>860.25</ele><time>2026-04-03T13:05:36.999Z</time></trkpt><trkpt lat="43.82593087423682" lon="12.359421479717728"><ele>853.5</ele><time>2026-04-03T13:05:37.999Z</time></trkpt><trkpt lat="43.825889074860854" lon="12.359264277307902"><ele>846.75</ele><time>2026-04-03T13:05:38.999Z</time></trkpt><trkpt lat="43.82587138115855" lon="12.359107668049711"><ele>840.0</ele><time>2026-04-03T13:05:39.999Z</time></trkpt><trkpt lat="43.82587353571462" lon="12.358942477655775"><ele>843.25</ele><time>2026-04-03T13:05:40.999Z</time></trkpt><trkpt lat="43.82587911993605" lon="12.358766364983456"><ele>846.5</ele><time>2026-04-03T13:05:41.999Z</time></trkpt><trkpt lat="43.8258665638808" lon="12.35857683000916"><ele>849.75</ele><time>2026-04-03T13:05:42.999Z</time></trkpt><trkpt lat="43.8258247250243" lon="12.35839075633556"><ele>853.0</ele><time>2026-04-03T13:05:43.999Z</time></trkpt><trkpt lat="43.82574895995487" lon="12.358212883353211"><ele>853.0</ele><time>2026-04-03T13:05:44.999Z</time></trkpt><trkpt lat="43.82566017316796" lon="12.358035170890906"><ele>853.0</ele><time>2026-04-03T13:05:45.999Z</time></trkpt><trkpt lat="43.825571935973144" lon="12.357856863706164"><ele>853.0</ele><time>2026-04-03T13:05:46.999Z</time></trkpt><trkpt lat="43.825496686014226" lon="12.357666668686274"><ele>856.6666666666666</ele><time>2026-04-03T13:05:47.999Z</time></trkpt><trkpt lat="43.82543221941924" lon="12.357467007437505"><ele>860.3333333333333</ele><time>2026-04-03T13:05:48.999Z</time></trkpt><trkpt lat="43.82537349063972" lon="12.357257247584911"><ele>864.0</ele><time>2026-04-03T13:05:49.999Z</time></trkpt><trkpt lat="43.825319575309976" lon="12.357043843400044"><ele>868.3333333333333</ele><time>2026-04-03T13:05:50.999Z</time></trkpt><trkpt lat="43.82526634320521" lon="12.35683002692884"><ele>872.6666666666666</ele><time>2026-04-03T13:05:51.999Z</time></trkpt><trkpt lat="43.82521431664887" lon="12.35661730629187"><ele>877.0</ele><time>2026-04-03T13:05:52.999Z</time></trkpt><trkpt lat="43.82516185616178" lon="12.356410701288086"><ele>875.0</ele><time>2026-04-03T13:05:53.999Z</time></trkpt><trkpt lat="43.825114619273606" lon="12.356206986505208"><ele>873.0</ele><time>2026-04-03T13:05:54.999Z</time></trkpt><trkpt lat="43.825068443611364" lon="12.356006023302273"><ele>871.0</ele><time>2026-04-03T13:05:55.999Z</time></trkpt><trkpt lat="43.825021284850514" lon="12.355808216478982"><ele>871.0</ele><time>2026-04-03T13:05:56.999Z</time></trkpt><trkpt lat="43.82497664757065" lon="12.355615101383941"><ele>871.0</ele><time>2026-04-03T13:05:57.999Z</time></trkpt><trkpt lat="43.82494312904957" lon="12.355425514035721"><ele>871.0</ele><time>2026-04-03T13:05:58.999Z</time></trkpt><trkpt lat="43.82492420665678" lon="12.355230576960063"><ele>871.0</ele><time>2026-04-03T13:05:59.999Z</time></trkpt><trkpt lat="43.82491302708126" lon="12.355032418031046"><ele>874.0</ele><time>2026-04-03T13:06:00.999Z</time></trkpt><trkpt lat="43.82490869247655" lon="12.354826501736682"><ele>877.0</ele><time>2026-04-03T13:06:01.999Z</time></trkpt><trkpt lat="43.824921142365376" lon="12.354615522244137"><ele>880.0</ele><time>2026-04-03T13:06:02.999Z</time></trkpt><trkpt lat="43.82495016880289" lon="12.35439999771071"><ele>881.6666666666666</ele><time>2026-04-03T13:06:03.999Z</time></trkpt><trkpt lat="43.82497665306714" lon="12.354179043190372"><ele>883.3333333333333</ele><time>2026-04-03T13:06:04.999Z</time></trkpt><trkpt lat="43.82499756104889" lon="12.35395563682775"><ele>885.0</ele><time>2026-04-03T13:06:05.999Z</time></trkpt><trkpt lat="43.8250167496961" lon="12.353731505468836"><ele>887.0</ele><time>2026-04-03T13:06:06.999Z</time></trkpt><trkpt lat="43.825037570784936" lon="12.353515072085365"><ele>889.0</ele><time>2026-04-03T13:06:07.999Z</time></trkpt><trkpt lat="43.82505873373228" lon="12.353309275668636"><ele>891.0</ele><time>2026-04-03T13:06:08.999Z</time></trkpt><trkpt lat="43.825077609990224" lon="12.353131632020519"><ele>893.0</ele><time>2026-04-03T13:06:09.999Z</time></trkpt><trkpt lat="43.82508832758596" lon="12.352965759768828"><ele>894.2</ele><time>2026-04-03T13:06:10.999Z</time></trkpt><trkpt lat="43.825085838841936" lon="12.352818655620228"><ele>895.4</ele><time>2026-04-03T13:06:11.999Z</time></trkpt><trkpt lat="43.82506856416308" lon="12.35267873367196"><ele>896.6000000000001</ele><time>2026-04-03T13:06:12.999Z</time></trkpt><trkpt lat="43.82502689283276" lon="12.352558531374031"><ele>897.8000000000001</ele><time>2026-04-03T13:06:13.999Z</time></trkpt><trkpt lat="43.82495464192323" lon="12.352469221334786"><ele>899.0</ele><time>2026-04-03T13:06:14.999Z</time></trkpt><trkpt lat="43.8248611988459" lon="12.352388752343503"><ele>899.0</ele><time>2026-04-03T13:06:15.999Z</time></trkpt><trkpt lat="43.824742255492716" lon="12.352361970955426"><ele>899.0</ele><time>2026-04-03T13:06:16.999Z</time></trkpt><trkpt lat="43.82461856300856" lon="12.352350022830885"><ele>899.0</ele><time>2026-04-03T13:06:17.999Z</time></trkpt><trkpt lat="43.82449514373568" lon="12.352341493097246"><ele>899.0</ele><time>2026-04-03T13:06:18.999Z</time></trkpt><trkpt lat="43.824367932664664" lon="12.35233306451273"><ele>898.8333333333334</ele><time>2026-04-03T13:06:19.999Z</time></trkpt><trkpt lat="43.82424809591093" lon="12.352330660658776"><ele>898.6666666666667</ele><time>2026-04-03T13:06:20.999Z</time></trkpt><trkpt lat="43.8241503035294" lon="12.352324437262372"><ele>898.5</ele><time>2026-04-03T13:06:21.999Z</time></trkpt><trkpt lat="43.82407035731899" lon="12.352315087070176"><ele>898.3333333333333</ele><time>2026-04-03T13:06:22.999Z</time></trkpt><trkpt lat="43.82400197770031" lon="12.35230168913097"><ele>898.1666666666666</ele><time>2026-04-03T13:06:23.999Z</time></trkpt><trkpt lat="43.823939253141" lon="12.352235296998419"><ele>898.0</ele><time>2026-04-03T13:06:24.999Z</time></trkpt><trkpt lat="43.82388916132773" lon="12.352141745510918"><ele>899.0</ele><time>2026-04-03T13:06:25.999Z</time></trkpt><trkpt lat="43.823855283407234" lon="12.35202499220502"><ele>900.0</ele><time>2026-04-03T13:06:26.999Z</time></trkpt><trkpt lat="43.82382860909366" lon="12.35189500811447"><ele>901.0</ele><time>2026-04-03T13:06:27.999Z</time></trkpt><trkpt lat="43.82380229261891" lon="12.351751858921684"><ele>902.0</ele><time>2026-04-03T13:06:28.999Z</time></trkpt><trkpt lat="43.82378212745793" lon="12.351617697801741"><ele>903.0</ele><time>2026-04-03T13:06:29.999Z</time></trkpt><trkpt lat="43.823767533716584" lon="12.351482089376807"><ele>904.5</ele><time>2026-04-03T13:06:30.999Z</time></trkpt><trkpt lat="43.823758599506334" lon="12.351328884013913"><ele>906.0</ele><time>2026-04-03T13:06:31.999Z</time></trkpt><trkpt lat="43.82375689923961" lon="12.351162557588042"><ele>907.5</ele><time>2026-04-03T13:06:32.999Z</time></trkpt><trkpt lat="43.82376704725231" lon="12.350988033052221"><ele>909.0</ele><time>2026-04-03T13:06:33.999Z</time></trkpt><trkpt lat="43.823786018439655" lon="12.350807502329635"><ele>909.0</ele><time>2026-04-03T13:06:34.999Z</time></trkpt><trkpt lat="43.823812226286925" lon="12.350625725057"><ele>909.0000000000001</ele><time>2026-04-03T13:06:35.999Z</time></trkpt><trkpt lat="43.82384220459023" lon="12.350458422232574"><ele>909.0000000000001</ele><time>2026-04-03T13:06:36.999Z</time></trkpt><trkpt lat="43.82386271279422" lon="12.350328058158235"><ele>909.0</ele><time>2026-04-03T13:06:37.999Z</time></trkpt><trkpt lat="43.82386308902241" lon="12.350215146682396"><ele>909.0</ele><time>2026-04-03T13:06:38.999Z</time></trkpt><trkpt lat="43.823827998897144" lon="12.35011439325536"><ele>911.0</ele><time>2026-04-03T13:06:39.999Z</time></trkpt><trkpt lat="43.823755507470935" lon="12.350036903187886"><ele>913.0000000000001</ele><time>2026-04-03T13:06:40.999Z</time></trkpt><trkpt lat="43.82367047912723" lon="12.349942991879773"><ele>915.0000000000001</ele><time>2026-04-03T13:06:41.999Z</time></trkpt><trkpt lat="43.82354263488894" lon="12.349901210836414"><ele>917.0</ele><time>2026-04-03T13:06:42.999Z</time></trkpt><trkpt lat="43.823438452053864" lon="12.34989092584031"><ele>919.0</ele><time>2026-04-03T13:06:43.999Z</time></trkpt><trkpt lat="43.82336071785182" lon="12.349862821445662"><ele>919.1666666666666</ele><time>2026-04-03T13:06:44.999Z</time></trkpt><trkpt lat="43.82328173299155" lon="12.349834502934481"><ele>919.3333333333333</ele><time>2026-04-03T13:06:45.999Z</time></trkpt><trkpt lat="43.82321601422554" lon="12.349767953717409"><ele>919.5</ele><time>2026-04-03T13:06:46.999Z</time></trkpt><trkpt lat="43.82313733175018" lon="12.349732345000202"><ele>919.6666666666667</ele><time>2026-04-03T13:06:47.999Z</time></trkpt><trkpt lat="43.823048352976755" lon="12.34969890477405"><ele>919.8333333333334</ele><time>2026-04-03T13:06:48.999Z</time></trkpt><trkpt lat="43.82295484353475" lon="12.349720923770999"><ele>920.0</ele><time>2026-04-03T13:06:49.999Z</time></trkpt><trkpt lat="43.822895342619354" lon="12.349757068681905"><ele>920.0000000000001</ele><time>2026-04-03T13:06:50.998Z</time></trkpt><trkpt lat="43.82279919554897" lon="12.349831656915459"><ele>920.0</ele><time>2026-04-03T13:13:25Z</time></trkpt><trkpt lat="43.822746224895695" lon="12.349923534026853"><ele>920.0</ele><time>2026-04-03T13:13:26Z</time></trkpt><trkpt lat="43.82270022166407" lon="12.350016639615056"><ele>920.0</ele><time>2026-04-03T13:13:27Z</time></trkpt><trkpt lat="43.82265984864085" lon="12.35010920414187"><ele>920.0000000000001</ele><time>2026-04-03T13:13:28Z</time></trkpt><trkpt lat="43.822621053488675" lon="12.350198151056214"><ele>920.0</ele><time>2026-04-03T13:13:29Z</time></trkpt><trkpt lat="43.82258400289959" lon="12.350272947936798"><ele>919.8333333333334</ele><time>2026-04-03T13:13:30Z</time></trkpt><trkpt lat="43.82251276567788" lon="12.350350265128014"><ele>919.6666666666667</ele><time>2026-04-03T13:13:32Z</time></trkpt><trkpt lat="43.82240864715814" lon="12.350325879642424"><ele>919.5</ele><time>2026-04-03T13:13:34Z</time></trkpt><trkpt lat="43.82235518104529" lon="12.350258421812022"><ele>919.3333333333333</ele><time>2026-04-03T13:13:35Z</time></trkpt><trkpt lat="43.822294906534616" lon="12.350208486594173"><ele>919.1666666666666</ele><time>2026-04-03T13:13:36Z</time></trkpt><trkpt lat="43.82221918064275" lon="12.350178818422998"><ele>919.0</ele><time>2026-04-03T13:13:37Z</time></trkpt><trkpt lat="43.82214344155408" lon="12.350126189033396"><ele>918.9999999999999</ele><time>2026-04-03T13:13:38Z</time></trkpt><trkpt lat="43.82206932494868" lon="12.350106106201048"><ele>919.0</ele><time>2026-04-03T13:13:39Z</time></trkpt><trkpt lat="43.82199641602358" lon="12.35004717819581"><ele>919.0</ele><time>2026-04-03T13:13:40Z</time></trkpt><trkpt lat="43.8219400944727" lon="12.349952308169826"><ele>919.0</ele><time>2026-04-03T13:13:41Z</time></trkpt><trkpt lat="43.82189902155818" lon="12.349837766962228"><ele>918.9999999999999</ele><time>2026-04-03T13:13:42Z</time></trkpt><trkpt lat="43.82185146221611" lon="12.349708531037598"><ele>919.0</ele><time>2026-04-03T13:13:43Z</time></trkpt><trkpt lat="43.82181767682848" lon="12.349548135469234"><ele>917.5</ele><time>2026-04-03T13:13:44Z</time></trkpt><trkpt lat="43.82177702838226" lon="12.349391238130538"><ele>916.0</ele><time>2026-04-03T13:13:45Z</time></trkpt><trkpt lat="43.82173820439243" lon="12.34924288823248"><ele>914.5</ele><time>2026-04-03T13:13:46Z</time></trkpt><trkpt lat="43.821662723429995" lon="12.349117616784744"><ele>913.0</ele><time>2026-04-03T13:13:47Z</time></trkpt><trkpt lat="43.82157026442741" lon="12.349011638609486"><ele>913.0</ele><time>2026-04-03T13:13:48Z</time></trkpt><trkpt lat="43.82146880662249" lon="12.348925190440829"><ele>913.0</ele><time>2026-04-03T13:13:49Z</time></trkpt><trkpt lat="43.82135542027294" lon="12.348862835905102"><ele>913.0</ele><time>2026-04-03T13:13:50Z</time></trkpt><trkpt lat="43.821244250237356" lon="12.348791384129337"><ele>913.0</ele><time>2026-04-03T13:13:51Z</time></trkpt><trkpt lat="43.8211533406695" lon="12.348745366391096"><ele>913.0</ele><time>2026-04-03T13:13:52Z</time></trkpt><trkpt lat="43.82107511035488" lon="12.348713488467869"><ele>913.0</ele><time>2026-04-03T13:13:53Z</time></trkpt><trkpt lat="43.821019999991506" lon="12.348617556949913"><ele>913.0</ele><time>2026-04-03T13:13:54Z</time></trkpt><trkpt lat="43.82099029615205" lon="12.348495584801155"><ele>913.0</ele><time>2026-04-03T13:13:55Z</time></trkpt><trkpt lat="43.82097734448723" lon="12.34836042024002"><ele>913.0</ele><time>2026-04-03T13:13:56Z</time></trkpt><trkpt lat="43.82094921922636" lon="12.348202784123902"><ele>916.0</ele><time>2026-04-03T13:13:57Z</time></trkpt><trkpt lat="43.82093871227867" lon="12.348039433353684"><ele>919.0</ele><time>2026-04-03T13:13:58Z</time></trkpt><trkpt lat="43.820930406825525" lon="12.347877854740268"><ele>922.0</ele><time>2026-04-03T13:13:59Z</time></trkpt><trkpt lat="43.820921888565415" lon="12.347712136086916"><ele>925.0</ele><time>2026-04-03T13:13:59.999Z</time></trkpt><trkpt lat="43.820912127050484" lon="12.34753910538757"><ele>925.0</ele><time>2026-04-03T13:14:00.999Z</time></trkpt><trkpt lat="43.820902165663384" lon="12.347354043399532"><ele>925.0</ele><time>2026-04-03T13:14:01.999Z</time></trkpt><trkpt lat="43.82087059278689" lon="12.347164627809308"><ele>925.0</ele><time>2026-04-03T13:14:02.999Z</time></trkpt><trkpt lat="43.82084555197122" lon="12.346963173830478"><ele>925.0</ele><time>2026-04-03T13:14:03.999Z</time></trkpt><trkpt lat="43.82081223542917" lon="12.346757139215853"><ele>927.75</ele><time>2026-04-03T13:14:04.999Z</time></trkpt><trkpt lat="43.82080567740548" lon="12.346579028237903"><ele>930.5</ele><time>2026-04-03T13:14:05.999Z</time></trkpt><trkpt lat="43.820810223187316" lon="12.346410115331729"><ele>933.25</ele><time>2026-04-03T13:14:06.999Z</time></trkpt><trkpt lat="43.82076877148893" lon="12.346252072541352"><ele>936.0</ele><time>2026-04-03T13:14:07.999Z</time></trkpt><trkpt lat="43.820709280817866" lon="12.346096789521779"><ele>939.75</ele><time>2026-04-03T13:14:08.999Z</time></trkpt><trkpt lat="43.82064041838637" lon="12.34594403518436"><ele>943.5</ele><time>2026-04-03T13:14:09.999Z</time></trkpt><trkpt lat="43.820572433856626" lon="12.345795737833447"><ele>947.25</ele><time>2026-04-03T13:14:10.999Z</time></trkpt><trkpt lat="43.82050751710775" lon="12.345684072216923"><ele>951.0</ele><time>2026-04-03T13:14:11.999Z</time></trkpt><trkpt lat="43.82044573151112" lon="12.34557540784778"><ele>952.0</ele><time>2026-04-03T13:14:12.999Z</time></trkpt><trkpt lat="43.82034836624486" lon="12.345515917883478"><ele>952.9999999999999</ele><time>2026-04-03T13:14:13.999Z</time></trkpt><trkpt lat="43.82023960843478" lon="12.345488227513394"><ele>953.9999999999999</ele><time>2026-04-03T13:14:14.999Z</time></trkpt><trkpt lat="43.82015420977696" lon="12.345445210769627"><ele>955.0</ele><time>2026-04-03T13:14:15.999Z</time></trkpt><trkpt lat="43.820096955270316" lon="12.34538810089209"><ele>956.0</ele><time>2026-04-03T13:14:16.999Z</time></trkpt><trkpt lat="43.820061885850095" lon="12.345277962440296"><ele>956.0</ele><time>2026-04-03T13:14:17.999Z</time></trkpt><trkpt lat="43.820027982893485" lon="12.345144317142337"><ele>956.0</ele><time>2026-04-03T13:14:18.999Z</time></trkpt><trkpt lat="43.81996910086892" lon="12.345009589526784"><ele>956.0</ele><time>2026-04-03T13:14:19.999Z</time></trkpt><trkpt lat="43.81989116225968" lon="12.344887069135144"><ele>956.0</ele><time>2026-04-03T13:14:20.999Z</time></trkpt><trkpt lat="43.8197984969813" lon="12.344775985527692"><ele>960.4</ele><time>2026-04-03T13:14:21.999Z</time></trkpt><trkpt lat="43.81970849175946" lon="12.344695901633258"><ele>964.8</ele><time>2026-04-03T13:14:22.999Z</time></trkpt><trkpt lat="43.81964661482219" lon="12.344625742823096"><ele>969.1999999999999</ele><time>2026-04-03T13:14:23.999Z</time></trkpt><trkpt lat="43.81959040945122" lon="12.344584462119979"><ele>973.5999999999999</ele><time>2026-04-03T13:14:24.999Z</time></trkpt><trkpt lat="43.819483727199376" lon="12.344519075922497"><ele>978.0</ele><time>2026-04-03T13:14:26.999Z</time></trkpt><trkpt lat="43.81941502274023" lon="12.344454548063101"><ele>978.0</ele><time>2026-04-03T13:14:28.999Z</time></trkpt><trkpt lat="43.81941160169083" lon="12.344302694596141"><ele>978.0</ele><time>2026-04-03T13:14:30.999Z</time></trkpt><trkpt lat="43.819538007121224" lon="12.344314916356886"><ele>978.0</ele><time>2026-04-03T13:14:31.999Z</time></trkpt><trkpt lat="43.819613183924545" lon="12.344281852918412"><ele>978.0</ele><time>2026-04-03T13:14:33.999Z</time></trkpt><trkpt lat="43.81967629287843" lon="12.344289492668112"><ele>978.0</ele><time>2026-04-03T13:14:34.999Z</time></trkpt><trkpt lat="43.81974389577475" lon="12.344271921110726"><ele>978.0</ele><time>2026-04-03T13:14:35.999Z</time></trkpt><trkpt lat="43.819828502004206" lon="12.344258925347708"><ele>978.0</ele><time>2026-04-03T13:14:36.999Z</time></trkpt><trkpt lat="43.81992021275533" lon="12.3442577748487"><ele>978.0</ele><time>2026-04-03T13:14:37.999Z</time></trkpt><trkpt lat="43.820010822920125" lon="12.34425303469508"><ele>978.0</ele><time>2026-04-03T13:14:38.999Z</time></trkpt><trkpt lat="43.82010839131811" lon="12.344231477736914"><ele>978.0</ele><time>2026-04-03T13:14:39.999Z</time></trkpt><trkpt lat="43.82021322902222" lon="12.34421718312618"><ele>978.0</ele><time>2026-04-03T13:14:40.999Z</time></trkpt><trkpt lat="43.820322628917864" lon="12.344206258515003"><ele>979.8</ele><time>2026-04-03T13:14:41.999Z</time></trkpt><trkpt lat="43.820425769067995" lon="12.344222332667957"><ele>981.5999999999999</ele><time>2026-04-03T13:14:42.999Z</time></trkpt><trkpt lat="43.82052936594072" lon="12.344270092667765"><ele>983.4000000000001</ele><time>2026-04-03T13:14:43.999Z</time></trkpt><trkpt lat="43.82063720676119" lon="12.344326932010459"><ele>985.2</ele><time>2026-04-03T13:14:44.999Z</time></trkpt><trkpt lat="43.820736908018006" lon="12.344390482776507"><ele>987.0</ele><time>2026-04-03T13:14:45.999Z</time></trkpt><trkpt lat="43.820809597657686" lon="12.344446375494934"><ele>987.0</ele><time>2026-04-03T13:14:46.999Z</time></trkpt><trkpt lat="43.82087511145535" lon="12.344483334957065"><ele>987.0</ele><time>2026-04-03T13:14:47.999Z</time></trkpt><trkpt lat="43.820947536809506" lon="12.344496054129888"><ele>987.0</ele><time>2026-04-03T13:14:48.999Z</time></trkpt><trkpt lat="43.82100904833391" lon="12.344432086278537"><ele>987.0</ele><time>2026-04-03T13:14:49.999Z</time></trkpt><trkpt lat="43.82106412367602" lon="12.344372540553705"><ele>987.0</ele><time>2026-04-03T13:14:50.999Z</time></trkpt><trkpt lat="43.82111536645796" lon="12.344299808892265"><ele>987.0</ele><time>2026-04-03T13:14:51.999Z</time></trkpt><trkpt lat="43.82117032443399" lon="12.344205825140959"><ele>987.0</ele><time>2026-04-03T13:14:52.999Z</time></trkpt><trkpt lat="43.8212092118742" lon="12.344084795516448"><ele>987.0</ele><time>2026-04-03T13:14:53.999Z</time></trkpt><trkpt lat="43.821244004691465" lon="12.34396800140241"><ele>987.0</ele><time>2026-04-03T13:14:54.999Z</time></trkpt><trkpt lat="43.8213391001617" lon="12.343943566408214"><ele>987.0</ele><time>2026-04-03T13:14:55.999Z</time></trkpt><trkpt lat="43.82143786205317" lon="12.343916439331462"><ele>987.0</ele><time>2026-04-03T13:14:56.999Z</time></trkpt><trkpt lat="43.82154937519478" lon="12.343884874398684"><ele>990.75</ele><time>2026-04-03T13:14:57.999Z</time></trkpt><trkpt lat="43.82167283587216" lon="12.343862475054012"><ele>994.5</ele><time>2026-04-03T13:14:58.999Z</time></trkpt><trkpt lat="43.82179034048497" lon="12.343852319798831"><ele>998.25</ele><time>2026-04-03T13:14:59.999Z</time></trkpt><trkpt lat="43.821908162155275" lon="12.343844411742124"><ele>1002.0</ele><time>2026-04-03T13:15:00.999Z</time></trkpt><trkpt lat="43.82202709722171" lon="12.343825476478347"><ele>1002.0</ele><time>2026-04-03T13:15:01.999Z</time></trkpt><trkpt lat="43.822138563642916" lon="12.34379453840105"><ele>1002.0</ele><time>2026-04-03T13:15:02.999Z</time></trkpt><trkpt lat="43.82224928344146" lon="12.343768677339815"><ele>1002.0</ele><time>2026-04-03T13:15:03.999Z</time></trkpt><trkpt lat="43.82236140193316" lon="12.343734685625613"><ele>1002.0</ele><time>2026-04-03T13:15:04.999Z</time></trkpt><trkpt lat="43.82245042419327" lon="12.343618086522419"><ele>1002.0</ele><time>2026-04-03T13:15:05.999Z</time></trkpt><trkpt lat="43.822552757516185" lon="12.343521626001564"><ele>1002.0</ele><time>2026-04-03T13:15:06.999Z</time></trkpt><trkpt lat="43.82266438488489" lon="12.343442959833414"><ele>1002.0</ele><time>2026-04-03T13:15:07.999Z</time></trkpt><trkpt lat="43.822764460825574" lon="12.343342313938876"><ele>1002.0</ele><time>2026-04-03T13:15:08.999Z</time></trkpt><trkpt lat="43.822863910833455" lon="12.343240543795007"><ele>1003.25</ele><time>2026-04-03T13:15:09.999Z</time></trkpt><trkpt lat="43.822966241432745" lon="12.343134364048868"><ele>1004.5</ele><time>2026-04-03T13:15:10.999Z</time></trkpt><trkpt lat="43.82306978425621" lon="12.34302237233073"><ele>1005.75</ele><time>2026-04-03T13:15:11.999Z</time></trkpt><trkpt lat="43.82317428810176" lon="12.342909846311107"><ele>1007.0</ele><time>2026-04-03T13:15:12.999Z</time></trkpt><trkpt lat="43.82328863721225" lon="12.342813280748837"><ele>1008.5</ele><time>2026-04-03T13:15:13.999Z</time></trkpt><trkpt lat="43.82341654328784" lon="12.342753276824427"><ele>1010.0</ele><time>2026-04-03T13:15:14.999Z</time></trkpt><trkpt lat="43.8235500148997" lon="12.342711958327808"><ele>1011.5</ele><time>2026-04-03T13:15:15.999Z</time></trkpt><trkpt lat="43.82367702983407" lon="12.342676851951502"><ele>1013.0</ele><time>2026-04-03T13:15:17Z</time></trkpt><trkpt lat="43.8237880593516" lon="12.342666349494499"><ele>1013.0</ele><time>2026-04-03T13:15:18Z</time></trkpt><trkpt lat="43.82389034846234" lon="12.342691103509988"><ele>1013.0</ele><time>2026-04-03T13:15:19Z</time></trkpt><trkpt lat="43.8239961723439" lon="12.342745277414297"><ele>1013.0</ele><time>2026-04-03T13:15:20Z</time></trkpt><trkpt lat="43.824104272493685" lon="12.342820157784162"><ele>1013.0</ele><time>2026-04-03T13:15:21Z</time></trkpt><trkpt lat="43.82421502359039" lon="12.342893538231133"><ele>1013.0000000000001</ele><time>2026-04-03T13:15:22Z</time></trkpt><trkpt lat="43.82430087674563" lon="12.342945058781584"><ele>1013.0</ele><time>2026-04-03T13:15:23Z</time></trkpt><trkpt lat="43.824375775012385" lon="12.342955591146364"><ele>1013.0</ele><time>2026-04-03T13:15:24Z</time></trkpt><trkpt lat="43.82445234634959" lon="12.342930889234818"><ele>1013.0</ele><time>2026-04-03T13:15:25Z</time></trkpt><trkpt lat="43.82449739437212" lon="12.342829166395207"><ele>1013.0000000000001</ele><time>2026-04-03T13:15:26Z</time></trkpt><trkpt lat="43.82456298911619" lon="12.342740076804006"><ele>1013.0</ele><time>2026-04-03T13:15:27Z</time></trkpt><trkpt lat="43.82464844289168" lon="12.342661862256575"><ele>1012.5</ele><time>2026-04-03T13:15:28Z</time></trkpt><trkpt lat="43.82474113973433" lon="12.342545741765003"><ele>1012.0</ele><time>2026-04-03T13:15:29Z</time></trkpt><trkpt lat="43.82484822590344" lon="12.342452131653571"><ele>1011.5</ele><time>2026-04-03T13:15:30Z</time></trkpt><trkpt lat="43.82494892287369" lon="12.342360966891887"><ele>1011.0</ele><time>2026-04-03T13:15:31Z</time></trkpt><trkpt lat="43.82501758490983" lon="12.342210581706233"><ele>1013.3333333333333</ele><time>2026-04-03T13:15:32Z</time></trkpt><trkpt lat="43.82507316134772" lon="12.342022038083515"><ele>1015.6666666666666</ele><time>2026-04-03T13:15:33Z</time></trkpt><trkpt lat="43.82512245759456" lon="12.341808921496062"><ele>1018.0</ele><time>2026-04-03T13:15:34Z</time></trkpt><trkpt lat="43.82515293547304" lon="12.341577479367794"><ele>1020.6666666666666</ele><time>2026-04-03T13:15:35Z</time></trkpt><trkpt lat="43.82519445849088" lon="12.341352283895365"><ele>1023.3333333333333</ele><time>2026-04-03T13:15:36Z</time></trkpt><trkpt lat="43.82524744563308" lon="12.341148688088495"><ele>1026.0</ele><time>2026-04-03T13:15:37Z</time></trkpt><trkpt lat="43.82527714646153" lon="12.340974519494486"><ele>1026.0</ele><time>2026-04-03T13:15:38Z</time></trkpt><trkpt lat="43.82530154544502" lon="12.340832059066694"><ele>1026.0</ele><time>2026-04-03T13:15:39Z</time></trkpt><trkpt lat="43.825312884674474" lon="12.340711213130227"><ele>1026.0</ele><time>2026-04-03T13:15:40Z</time></trkpt><trkpt lat="43.82529368825898" lon="12.340593701495933"><ele>1026.0</ele><time>2026-04-03T13:15:41Z</time></trkpt><trkpt lat="43.82523919315207" lon="12.340497790267488"><ele>1026.0</ele><time>2026-04-03T13:15:42Z</time></trkpt><trkpt lat="43.82517933188497" lon="12.340393413637361"><ele>1029.6</ele><time>2026-04-03T13:15:43Z</time></trkpt><trkpt lat="43.82506871007338" lon="12.340348474302024"><ele>1033.1999999999998</ele><time>2026-04-03T13:15:44Z</time></trkpt><trkpt lat="43.824962951498286" lon="12.340321844221158"><ele>1036.8000000000002</ele><time>2026-04-03T13:15:45Z</time></trkpt><trkpt lat="43.8248567591867" lon="12.340294903267603"><ele>1040.4</ele><time>2026-04-03T13:15:46Z</time></trkpt><trkpt lat="43.8247450617148" lon="12.34025911851891"><ele>1044.0</ele><time>2026-04-03T13:15:47Z</time></trkpt><trkpt lat="43.82463186313112" lon="12.340212927408553"><ele>1044.0</ele><time>2026-04-03T13:15:48Z</time></trkpt><trkpt lat="43.82451879994098" lon="12.340145718919453"><ele>1044.0</ele><time>2026-04-03T13:15:49Z</time></trkpt><trkpt lat="43.82439935851299" lon="12.340069222913657"><ele>1044.0</ele><time>2026-04-03T13:15:50Z</time></trkpt><trkpt lat="43.824270808254624" lon="12.339991733830786"><ele>1044.0</ele><time>2026-04-03T13:15:51Z</time></trkpt><trkpt lat="43.82414099379882" lon="12.33991431775421"><ele>1043.75</ele><time>2026-04-03T13:15:52Z</time></trkpt><trkpt lat="43.82401202983334" lon="12.339841195253534"><ele>1043.5</ele><time>2026-04-03T13:15:53Z</time></trkpt><trkpt lat="43.82389487625749" lon="12.33977468647112"><ele>1043.25</ele><time>2026-04-03T13:15:54Z</time></trkpt><trkpt lat="43.82378067632837" lon="12.339709854432218"><ele>1043.0</ele><time>2026-04-03T13:15:55Z</time></trkpt><trkpt lat="43.82367006914851" lon="12.339644981922065"><ele>1046.25</ele><time>2026-04-03T13:15:56Z</time></trkpt><trkpt lat="43.82356093838516" lon="12.339575438046884"><ele>1049.5</ele><time>2026-04-03T13:15:57Z</time></trkpt><trkpt lat="43.823441162747955" lon="12.339513041022323"><ele>1052.75</ele><time>2026-04-03T13:15:58Z</time></trkpt><trkpt lat="43.823308648520765" lon="12.339472251575158"><ele>1056.0</ele><time>2026-04-03T13:15:59Z</time></trkpt><trkpt lat="43.82316951517298" lon="12.339445992619972"><ele>1056.3333333333333</ele><time>2026-04-03T13:16:00Z</time></trkpt><trkpt lat="43.8230206442876" lon="12.339435344355364"><ele>1056.6666666666665</ele><time>2026-04-03T13:16:01Z</time></trkpt><trkpt lat="43.82286774853925" lon="12.339431505430326"><ele>1057.0</ele><time>2026-04-03T13:16:02Z</time></trkpt><trkpt lat="43.82271334429653" lon="12.339429494548135"><ele>1057.0</ele><time>2026-04-03T13:16:03Z</time></trkpt><trkpt lat="43.82255183735689" lon="12.339419689060193"><ele>1057.0</ele><time>2026-04-03T13:16:04Z</time></trkpt><trkpt lat="43.822387352562345" lon="12.339406416127561"><ele>1057.0</ele><time>2026-04-03T13:16:05Z</time></trkpt><trkpt lat="43.8222203245189" lon="12.339393264107422"><ele>1057.0</ele><time>2026-04-03T13:16:06Z</time></trkpt><trkpt lat="43.82205356846193" lon="12.339379854118807"><ele>1057.0</ele><time>2026-04-03T13:16:07Z</time></trkpt><trkpt lat="43.82188730914763" lon="12.339351644751172"><ele>1057.0</ele><time>2026-04-03T13:16:08Z</time></trkpt><trkpt lat="43.8217255660782" lon="12.339302972097471"><ele>1056.6666666666665</ele><time>2026-04-03T13:16:09Z</time></trkpt><trkpt lat="43.82155784133953" lon="12.339255979107465"><ele>1056.3333333333333</ele><time>2026-04-03T13:16:10Z</time></trkpt><trkpt lat="43.82139056766467" lon="12.339213897351845"><ele>1056.0</ele><time>2026-04-03T13:16:11Z</time></trkpt><trkpt lat="43.82122407998442" lon="12.339173974177088"><ele>1056.0</ele><time>2026-04-03T13:16:12Z</time></trkpt><trkpt lat="43.82106164929851" lon="12.339139516481449"><ele>1056.0</ele><time>2026-04-03T13:16:12.999Z</time></trkpt><trkpt lat="43.820902746480286" lon="12.33910591879013"><ele>1056.0</ele><time>2026-04-03T13:16:13.999Z</time></trkpt><trkpt lat="43.8207593310921" lon="12.339077710148963"><ele>1058.0</ele><time>2026-04-03T13:16:14.999Z</time></trkpt><trkpt lat="43.820612964086514" lon="12.339065307345985"><ele>1060.0</ele><time>2026-04-03T13:16:15.999Z</time></trkpt><trkpt lat="43.82047104813772" lon="12.339086165450558"><ele>1062.0</ele><time>2026-04-03T13:16:16.999Z</time></trkpt><trkpt lat="43.820338126111" lon="12.339135034029514"><ele>1064.0</ele><time>2026-04-03T13:16:17.999Z</time></trkpt><trkpt lat="43.820210805393046" lon="12.339224091446262"><ele>1066.25</ele><time>2026-04-03T13:16:18.999Z</time></trkpt><trkpt lat="43.82009848778368" lon="12.339331525386315"><ele>1068.5</ele><time>2026-04-03T13:16:19.999Z</time></trkpt><trkpt lat="43.81998100569204" lon="12.339467017749179"><ele>1070.75</ele><time>2026-04-03T13:16:20.999Z</time></trkpt><trkpt lat="43.819871742936705" lon="12.339606361875353"><ele>1073.0</ele><time>2026-04-03T13:16:21.999Z</time></trkpt><trkpt lat="43.81978011538957" lon="12.339714412873624"><ele>1072.4</ele><time>2026-04-03T13:16:22.999Z</time></trkpt><trkpt lat="43.81967856699131" lon="12.339794438492783"><ele>1071.8</ele><time>2026-04-03T13:16:23.999Z</time></trkpt><trkpt lat="43.819590747961506" lon="12.339841456170277"><ele>1071.2</ele><time>2026-04-03T13:16:24.999Z</time></trkpt><trkpt lat="43.81948923597756" lon="12.339871443839769"><ele>1070.6</ele><time>2026-04-03T13:16:25.999Z</time></trkpt><trkpt lat="43.81938782712809" lon="12.339867315921776"><ele>1070.0</ele><time>2026-04-03T13:16:26.999Z</time></trkpt><trkpt lat="43.81927358296914" lon="12.339850148951285"><ele>1069.75</ele><time>2026-04-03T13:16:27.999Z</time></trkpt><trkpt lat="43.81916273230148" lon="12.339808766069591"><ele>1069.5</ele><time>2026-04-03T13:16:28.999Z</time></trkpt><trkpt lat="43.81904545108272" lon="12.33974586818779"><ele>1069.25</ele><time>2026-04-03T13:16:29.999Z</time></trkpt><trkpt lat="43.81893389327039" lon="12.339653315165947"><ele>1069.0</ele><time>2026-04-03T13:16:30.999Z</time></trkpt><trkpt lat="43.81880811781383" lon="12.339567656063078"><ele>1070.5</ele><time>2026-04-03T13:16:31.999Z</time></trkpt><trkpt lat="43.81868610492479" lon="12.339459542836579"><ele>1072.0</ele><time>2026-04-03T13:16:32.999Z</time></trkpt><trkpt lat="43.818558148996566" lon="12.339348240270722"><ele>1073.5</ele><time>2026-04-03T13:16:33.999Z</time></trkpt><trkpt lat="43.818433672831446" lon="12.339234100042752"><ele>1075.0</ele><time>2026-04-03T13:16:34.999Z</time></trkpt><trkpt lat="43.81831309025219" lon="12.339118719577653"><ele>1075.0</ele><time>2026-04-03T13:16:35.999Z</time></trkpt><trkpt lat="43.818192077210306" lon="12.339002880118787"><ele>1075.0</ele><time>2026-04-03T13:16:36.999Z</time></trkpt><trkpt lat="43.818083634284946" lon="12.338891557322127"><ele>1075.0</ele><time>2026-04-03T13:16:37.999Z</time></trkpt><trkpt lat="43.81799195655676" lon="12.338781348578904"><ele>1075.0</ele><time>2026-04-03T13:16:38.999Z</time></trkpt><trkpt lat="43.817916598150866" lon="12.338668042105503"><ele>1077.6</ele><time>2026-04-03T13:16:39.999Z</time></trkpt><trkpt lat="43.817854744720634" lon="12.33854686067228"><ele>1080.2</ele><time>2026-04-03T13:16:40.999Z</time></trkpt><trkpt lat="43.817806539716585" lon="12.338425722000292"><ele>1082.8</ele><time>2026-04-03T13:16:41.999Z</time></trkpt><trkpt lat="43.81775639923316" lon="12.338312277653754"><ele>1085.4</ele><time>2026-04-03T13:16:42.999Z</time></trkpt><trkpt lat="43.817708687805954" lon="12.33820099627012"><ele>1088.0</ele><time>2026-04-03T13:16:43.999Z</time></trkpt><trkpt lat="43.81767128931611" lon="12.338084048091629"><ele>1090.2</ele><time>2026-04-03T13:16:44.999Z</time></trkpt><trkpt lat="43.81763150719063" lon="12.337962221255607"><ele>1092.4</ele><time>2026-04-03T13:16:45.999Z</time></trkpt><trkpt lat="43.817594040581625" lon="12.337837020088768"><ele>1094.6000000000001</ele><time>2026-04-03T13:16:46.999Z</time></trkpt><trkpt lat="43.81754629429735" lon="12.337705411779549"><ele>1096.8</ele><time>2026-04-03T13:16:47.999Z</time></trkpt><trkpt lat="43.81748362074079" lon="12.337576270622499"><ele>1099.0</ele><time>2026-04-03T13:16:48.999Z</time></trkpt><trkpt lat="43.81740378383012" lon="12.33745905208131"><ele>1099.0</ele><time>2026-04-03T13:16:49.999Z</time></trkpt><trkpt lat="43.817309274049734" lon="12.337361475611056"><ele>1099.0</ele><time>2026-04-03T13:16:50.999Z</time></trkpt><trkpt lat="43.817205740679434" lon="12.337267150753238"><ele>1099.0</ele><time>2026-04-03T13:16:51.999Z</time></trkpt><trkpt lat="43.817100977148066" lon="12.337171866156412"><ele>1099.0</ele><time>2026-04-03T13:16:52.999Z</time></trkpt><trkpt lat="43.816997760521616" lon="12.337079738772857"><ele>1100.8</ele><time>2026-04-03T13:16:53.999Z</time></trkpt><trkpt lat="43.81689448324688" lon="12.33698607680818"><ele>1102.6000000000001</ele><time>2026-04-03T13:16:54.999Z</time></trkpt><trkpt lat="43.816818274759726" lon="12.336911916272639"><ele>1104.4</ele><time>2026-04-03T13:16:55.999Z</time></trkpt><trkpt lat="43.81675623346249" lon="12.336821416547984"><ele>1106.2</ele><time>2026-04-03T13:16:56.999Z</time></trkpt><trkpt lat="43.81670291286887" lon="12.336712120108809"><ele>1108.0</ele><time>2026-04-03T13:16:57.999Z</time></trkpt><trkpt lat="43.816667061912064" lon="12.336591047583548"><ele>1108.0</ele><time>2026-04-03T13:16:58.999Z</time></trkpt><trkpt lat="43.81664809559365" lon="12.33646786915164"><ele>1108.0</ele><time>2026-04-03T13:16:59.999Z</time></trkpt><trkpt lat="43.81662586469146" lon="12.336347664618868"><ele>1108.0</ele><time>2026-04-03T13:17:00.999Z</time></trkpt><trkpt lat="43.81662548326259" lon="12.336224798830328"><ele>1108.0</ele><time>2026-04-03T13:17:01.999Z</time></trkpt><trkpt lat="43.81664498463242" lon="12.33609759047258"><ele>1108.0</ele><time>2026-04-03T13:17:02.999Z</time></trkpt><trkpt lat="43.81669509136811" lon="12.33598395551021"><ele>1111.6</ele><time>2026-04-03T13:17:03.999Z</time></trkpt><trkpt lat="43.816773052924795" lon="12.335901436777158"><ele>1115.1999999999998</ele><time>2026-04-03T13:17:04.999Z</time></trkpt><trkpt lat="43.816861421158336" lon="12.335851268941951"><ele>1118.8</ele><time>2026-04-03T13:17:05.999Z</time></trkpt><trkpt lat="43.81694968305173" lon="12.33579995183543"><ele>1122.3999999999999</ele><time>2026-04-03T13:17:06.999Z</time></trkpt><trkpt lat="43.81703717342556" lon="12.3357387494293"><ele>1126.0</ele><time>2026-04-03T13:17:07.999Z</time></trkpt><trkpt lat="43.81711615563773" lon="12.335673022841174"><ele>1126.2</ele><time>2026-04-03T13:17:08.999Z</time></trkpt><trkpt lat="43.81718745883502" lon="12.335597419895889"><ele>1126.3999999999999</ele><time>2026-04-03T13:17:09.999Z</time></trkpt><trkpt lat="43.81725270635333" lon="12.335503927341662"><ele>1126.6</ele><time>2026-04-03T13:17:10.999Z</time></trkpt><trkpt lat="43.81729846101905" lon="12.335392041521343"><ele>1126.8</ele><time>2026-04-03T13:17:11.999Z</time></trkpt><trkpt lat="43.81734182340947" lon="12.335257249275447"><ele>1127.0</ele><time>2026-04-03T13:17:12.999Z</time></trkpt><trkpt lat="43.8173763845055" lon="12.335107605911993"><ele>1129.4</ele><time>2026-04-03T13:17:13.999Z</time></trkpt><trkpt lat="43.81740544581194" lon="12.334955921480562"><ele>1131.8000000000002</ele><time>2026-04-03T13:17:14.999Z</time></trkpt><trkpt lat="43.81742758411875" lon="12.334804174315028"><ele>1134.2</ele><time>2026-04-03T13:17:15.999Z</time></trkpt><trkpt lat="43.81746287928144" lon="12.334654276599228"><ele>1136.6000000000001</ele><time>2026-04-03T13:17:16.999Z</time></trkpt><trkpt lat="43.817489567410604" lon="12.33450759080501"><ele>1139.0</ele><time>2026-04-03T13:17:17.999Z</time></trkpt><trkpt lat="43.81751918090906" lon="12.33436664498248"><ele>1140.0</ele><time>2026-04-03T13:17:18.999Z</time></trkpt><trkpt lat="43.817569243703545" lon="12.334262607456669"><ele>1141.0</ele><time>2026-04-03T13:17:19.999Z</time></trkpt><trkpt lat="43.81764351110915" lon="12.334166621107645"><ele>1142.0</ele><time>2026-04-03T13:17:20.999Z</time></trkpt><trkpt lat="43.81773922735965" lon="12.334071988019545"><ele>1143.0</ele><time>2026-04-03T13:17:21.999Z</time></trkpt><trkpt lat="43.81784194428199" lon="12.333978778101944"><ele>1144.0</ele><time>2026-04-03T13:17:23Z</time></trkpt><trkpt lat="43.817948574998965" lon="12.333880706658945"><ele>1144.8333333333333</ele><time>2026-04-03T13:17:24Z</time></trkpt><trkpt lat="43.81803466275587" lon="12.333798190181831"><ele>1145.6666666666665</ele><time>2026-04-03T13:17:25Z</time></trkpt><trkpt lat="43.81810150221349" lon="12.333720372983768"><ele>1146.5</ele><time>2026-04-03T13:17:26Z</time></trkpt><trkpt lat="43.8181424434839" lon="12.333643845811174"><ele>1147.3333333333333</ele><time>2026-04-03T13:17:27Z</time></trkpt><trkpt lat="43.81817374870025" lon="12.333563935669883"><ele>1148.1666666666667</ele><time>2026-04-03T13:17:28Z</time></trkpt><trkpt lat="43.81816863134578" lon="12.333468128106652"><ele>1149.0</ele><time>2026-04-03T13:17:29Z</time></trkpt><trkpt lat="43.81812294626779" lon="12.3333906914151"><ele>1149.0</ele><time>2026-04-03T13:17:30Z</time></trkpt><trkpt lat="43.81805708973875" lon="12.333350678126898"><ele>1149.0</ele><time>2026-04-03T13:17:31Z</time></trkpt><trkpt lat="43.81798952557186" lon="12.333310086398315"><ele>1149.0</ele><time>2026-04-03T13:17:32Z</time></trkpt><trkpt lat="43.817909681104425" lon="12.333305062013261"><ele>1149.0</ele><time>2026-04-03T13:17:33Z</time></trkpt><trkpt lat="43.81781999717504" lon="12.333311432267248"><ele>1149.0</ele><time>2026-04-03T13:17:34Z</time></trkpt><trkpt lat="43.81772066828516" lon="12.333323796537337"><ele>1149.0</ele><time>2026-04-03T13:17:35Z</time></trkpt><trkpt lat="43.81760961514667" lon="12.333338786772053"><ele>1151.0</ele><time>2026-04-03T13:17:36Z</time></trkpt><trkpt lat="43.81748877975297" lon="12.333358862168476"><ele>1153.0</ele><time>2026-04-03T13:17:37Z</time></trkpt><trkpt lat="43.81736539416297" lon="12.333386374368981"><ele>1155.0</ele><time>2026-04-03T13:17:38Z</time></trkpt><trkpt lat="43.817241962284946" lon="12.333415583828943"><ele>1157.0</ele><time>2026-04-03T13:17:39Z</time></trkpt><trkpt lat="43.817129319745476" lon="12.333433946823012"><ele>1157.0</ele><time>2026-04-03T13:17:40Z</time></trkpt><trkpt lat="43.81701854956573" lon="12.33344518178992"><ele>1157.0</ele><time>2026-04-03T13:17:41Z</time></trkpt><trkpt lat="43.81691308921353" lon="12.333394206464185"><ele>1157.0</ele><time>2026-04-03T13:17:42Z</time></trkpt><trkpt lat="43.8168071992399" lon="12.333320650004245"><ele>1157.0</ele><time>2026-04-03T13:17:43Z</time></trkpt><trkpt lat="43.81671274992427" lon="12.333230141211532"><ele>1160.25</ele><time>2026-04-03T13:17:44Z</time></trkpt><trkpt lat="43.81662628116837" lon="12.333133326827207"><ele>1163.5</ele><time>2026-04-03T13:17:45Z</time></trkpt><trkpt lat="43.816540414523786" lon="12.333028216243749"><ele>1166.75</ele><time>2026-04-03T13:17:46Z</time></trkpt><trkpt lat="43.81644984546082" lon="12.33292602746604"><ele>1170.0</ele><time>2026-04-03T13:17:47Z</time></trkpt><trkpt lat="43.816356886987506" lon="12.332820179331254"><ele>1171.2</ele><time>2026-04-03T13:17:48Z</time></trkpt><trkpt lat="43.81626574303959" lon="12.332722210161787"><ele>1172.4</ele><time>2026-04-03T13:17:49Z</time></trkpt><trkpt lat="43.816184737033346" lon="12.332640929397984"><ele>1173.6</ele><time>2026-04-03T13:17:50Z</time></trkpt><trkpt lat="43.81610117940853" lon="12.332581267301755"><ele>1174.8</ele><time>2026-04-03T13:17:51Z</time></trkpt><trkpt lat="43.81601068238015" lon="12.332536555599479"><ele>1176.0</ele><time>2026-04-03T13:17:52Z</time></trkpt><trkpt lat="43.815910475643484" lon="12.332513296419604"><ele>1176.0</ele><time>2026-04-03T13:17:53Z</time></trkpt><trkpt lat="43.81580561304218" lon="12.332488168926295"><ele>1176.0</ele><time>2026-04-03T13:17:54Z</time></trkpt><trkpt lat="43.815693495739225" lon="12.332506005902728"><ele>1176.0</ele><time>2026-04-03T13:17:55Z</time></trkpt><trkpt lat="43.815577295208634" lon="12.332530635947988"><ele>1176.0</ele><time>2026-04-03T13:17:56Z</time></trkpt><trkpt lat="43.81545486565094" lon="12.332555004105576"><ele>1176.0</ele><time>2026-04-03T13:17:57Z</time></trkpt><trkpt lat="43.81532817735771" lon="12.332568113034464"><ele>1176.0</ele><time>2026-04-03T13:17:58Z</time></trkpt><trkpt lat="43.81520710230158" lon="12.332594671798509"><ele>1176.0</ele><time>2026-04-03T13:17:59Z</time></trkpt><trkpt lat="43.81508224193339" lon="12.332588632517947"><ele>1176.0</ele><time>2026-04-03T13:18:00Z</time></trkpt><trkpt lat="43.8149517615365" lon="12.332574065589878"><ele>1176.0</ele><time>2026-04-03T13:18:01Z</time></trkpt><trkpt lat="43.81482739565749" lon="12.33256387478704"><ele>1176.0</ele><time>2026-04-03T13:18:02Z</time></trkpt><trkpt lat="43.81470788083843" lon="12.332549773793067"><ele>1176.0</ele><time>2026-04-03T13:18:03Z</time></trkpt><trkpt lat="43.8145887704785" lon="12.332533979686385"><ele>1176.0</ele><time>2026-04-03T13:18:04Z</time></trkpt><trkpt lat="43.81446388613075" lon="12.33251431972441"><ele>1176.0</ele><time>2026-04-03T13:18:05Z</time></trkpt><trkpt lat="43.81433661655575" lon="12.332470969218843"><ele>1176.0</ele><time>2026-04-03T13:18:06Z</time></trkpt><trkpt lat="43.81420537497796" lon="12.332446261064938"><ele>1176.0</ele><time>2026-04-03T13:18:07Z</time></trkpt><trkpt lat="43.81407005705077" lon="12.332420785485468"><ele>1176.0</ele><time>2026-04-03T13:18:08Z</time></trkpt><trkpt lat="43.81393278834885" lon="12.332394639027974"><ele>1175.25</ele><time>2026-04-03T13:18:09Z</time></trkpt><trkpt lat="43.813797426146756" lon="12.332368253824944"><ele>1174.5</ele><time>2026-04-03T13:18:10Z</time></trkpt><trkpt lat="43.81366431470852" lon="12.332341218003736"><ele>1173.75</ele><time>2026-04-03T13:18:11Z</time></trkpt><trkpt lat="43.813530285748485" lon="12.332316607269119"><ele>1173.0</ele><time>2026-04-03T13:18:12Z</time></trkpt><trkpt lat="43.813395703053594" lon="12.332286256566546"><ele>1175.25</ele><time>2026-04-03T13:18:13Z</time></trkpt><trkpt lat="43.813264569837514" lon="12.332256676121554"><ele>1177.5</ele><time>2026-04-03T13:18:14Z</time></trkpt><trkpt lat="43.81313718452315" lon="12.33218933247825"><ele>1179.75</ele><time>2026-04-03T13:18:15Z</time></trkpt><trkpt lat="43.8130031045991" lon="12.332107447363068"><ele>1182.0</ele><time>2026-04-03T13:18:16Z</time></trkpt><trkpt lat="43.812867467788095" lon="12.332018900509285"><ele>1182.0</ele><time>2026-04-03T13:18:17Z</time></trkpt><trkpt lat="43.81273145978077" lon="12.331928886958464"><ele>1182.0</ele><time>2026-04-03T13:18:18Z</time></trkpt><trkpt lat="43.81260159300639" lon="12.331845904954875"><ele>1182.0</ele><time>2026-04-03T13:18:18.999Z</time></trkpt><trkpt lat="43.81247314910876" lon="12.331763173662045"><ele>1182.0</ele><time>2026-04-03T13:18:19.999Z</time></trkpt><trkpt lat="43.81234424277962" lon="12.331680884369625"><ele>1184.25</ele><time>2026-04-03T13:18:20.999Z</time></trkpt><trkpt lat="43.812216331584686" lon="12.331598240598632"><ele>1186.5</ele><time>2026-04-03T13:18:21.999Z</time></trkpt><trkpt lat="43.81209261752741" lon="12.331517963084945"><ele>1188.75</ele><time>2026-04-03T13:18:22.999Z</time></trkpt><trkpt lat="43.8119716092745" lon="12.331437550567463"><ele>1191.0</ele><time>2026-04-03T13:18:23.999Z</time></trkpt><trkpt lat="43.81185355332209" lon="12.331359442611275"><ele>1188.5</ele><time>2026-04-03T13:18:24.999Z</time></trkpt><trkpt lat="43.81173601624465" lon="12.33128234260899"><ele>1186.0</ele><time>2026-04-03T13:18:25.999Z</time></trkpt><trkpt lat="43.811614896624626" lon="12.331201615465053"><ele>1183.5</ele><time>2026-04-03T13:18:26.999Z</time></trkpt><trkpt lat="43.811494860326924" lon="12.331113835360426"><ele>1181.0</ele><time>2026-04-03T13:18:27.999Z</time></trkpt><trkpt lat="43.81138670915581" lon="12.331027746237432"><ele>1181.0</ele><time>2026-04-03T13:18:28.999Z</time></trkpt><trkpt lat="43.8112965973436" lon="12.330955842529084"><ele>1181.0</ele><time>2026-04-03T13:18:29.999Z</time></trkpt><trkpt lat="43.811217313868575" lon="12.33089782740353"><ele>1181.0</ele><time>2026-04-03T13:18:30.999Z</time></trkpt><trkpt lat="43.81114845226317" lon="12.330855571677535"><ele>1181.0</ele><time>2026-04-03T13:18:31.999Z</time></trkpt><trkpt lat="43.81109219585496" lon="12.330801246371317"><ele>1181.0</ele><time>2026-04-03T13:18:32.999Z</time></trkpt><trkpt lat="43.81100980985306" lon="12.33077452854426"><ele>1181.0</ele><time>2026-04-03T13:18:33.999Z</time></trkpt><trkpt lat="43.81092006979935" lon="12.330818411589789"><ele>1182.25</ele><time>2026-04-03T13:18:34.999Z</time></trkpt><trkpt lat="43.81084274700382" lon="12.330988734067997"><ele>1183.5</ele><time>2026-04-03T13:18:35.999Z</time></trkpt><trkpt lat="43.81079178895649" lon="12.331135795538094"><ele>1184.75</ele><time>2026-04-03T13:18:36.999Z</time></trkpt><trkpt lat="43.81073090583149" lon="12.331293190426164"><ele>1186.0</ele><time>2026-04-03T13:18:37.999Z</time></trkpt><trkpt lat="43.81065664294386" lon="12.331455801616434"><ele>1181.0</ele><time>2026-04-03T13:18:38.999Z</time></trkpt><trkpt lat="43.810565123286665" lon="12.331617305001938"><ele>1176.0</ele><time>2026-04-03T13:18:39.999Z</time></trkpt><trkpt lat="43.81046882465165" lon="12.331779044731931"><ele>1171.0</ele><time>2026-04-03T13:18:40.999Z</time></trkpt><trkpt lat="43.810359507060525" lon="12.33195204181523"><ele>1171.0</ele><time>2026-04-03T13:18:41.999Z</time></trkpt><trkpt lat="43.810245114596604" lon="12.332136032998905"><ele>1171.0</ele><time>2026-04-03T13:18:42.999Z</time></trkpt><trkpt lat="43.81012671330744" lon="12.332327780668498"><ele>1171.0</ele><time>2026-04-03T13:18:43.999Z</time></trkpt><trkpt lat="43.81002213113053" lon="12.332495095541432"><ele>1175.0</ele><time>2026-04-03T13:18:44.999Z</time></trkpt><trkpt lat="43.80991800450957" lon="12.332641525305268"><ele>1179.0</ele><time>2026-04-03T13:18:45.999Z</time></trkpt><trkpt lat="43.80981203219817" lon="12.332769667922422"><ele>1183.0</ele><time>2026-04-03T13:18:46.999Z</time></trkpt><trkpt lat="43.809702573001225" lon="12.33287362924354"><ele>1187.0</ele><time>2026-04-03T13:18:47.999Z</time></trkpt><trkpt lat="43.809569608921855" lon="12.332958233258378"><ele>1187.0</ele><time>2026-04-03T13:18:48.999Z</time></trkpt><trkpt lat="43.80942630005293" lon="12.33304164984581"><ele>1187.0</ele><time>2026-04-03T13:18:49.999Z</time></trkpt><trkpt lat="43.80927760939646" lon="12.33313062570014"><ele>1187.0</ele><time>2026-04-03T13:18:50.999Z</time></trkpt><trkpt lat="43.809144212106894" lon="12.333211022623466"><ele>1186.8333333333335</ele><time>2026-04-03T13:18:51.999Z</time></trkpt><trkpt lat="43.80903352718667" lon="12.33325338627977"><ele>1186.6666666666667</ele><time>2026-04-03T13:18:52.999Z</time></trkpt><trkpt lat="43.80893753231215" lon="12.333268585558727"><ele>1186.5</ele><time>2026-04-03T13:18:53.999Z</time></trkpt><trkpt lat="43.80885755068218" lon="12.333260921316679"><ele>1186.3333333333333</ele><time>2026-04-03T13:18:54.999Z</time></trkpt><trkpt lat="43.80879300366189" lon="12.333232518966673"><ele>1186.1666666666665</ele><time>2026-04-03T13:18:55.999Z</time></trkpt><trkpt lat="43.80872376093935" lon="12.333189073121083"><ele>1186.0</ele><time>2026-04-03T13:18:56.999Z</time></trkpt><trkpt lat="43.80864421348584" lon="12.333132056304729"><ele>1186.0</ele><time>2026-04-03T13:18:57.999Z</time></trkpt><trkpt lat="43.808557642097526" lon="12.333074329138705"><ele>1186.0</ele><time>2026-04-03T13:18:58.999Z</time></trkpt><trkpt lat="43.80847440119452" lon="12.332991023786915"><ele>1186.0</ele><time>2026-04-03T13:18:59.999Z</time></trkpt><trkpt lat="43.80838021627221" lon="12.332920306057467"><ele>1186.0</ele><time>2026-04-03T13:19:00.999Z</time></trkpt><trkpt lat="43.8082857954591" lon="12.332832094018322"><ele>1186.0</ele><time>2026-04-03T13:19:01.999Z</time></trkpt><trkpt lat="43.80817529392647" lon="12.332771229214378"><ele>1193.5</ele><time>2026-04-03T13:19:02.999Z</time></trkpt><trkpt lat="43.808048901941184" lon="12.332725943141233"><ele>1201.0</ele><time>2026-04-03T13:19:03.999Z</time></trkpt><trkpt lat="43.80792260212643" lon="12.332708073621038"><ele>1208.5</ele><time>2026-04-03T13:19:04.999Z</time></trkpt><trkpt lat="43.80779525322407" lon="12.332709052814248"><ele>1216.0</ele><time>2026-04-03T13:19:05.999Z</time></trkpt><trkpt lat="43.807675904199826" lon="12.332712991168156"><ele>1219.25</ele><time>2026-04-03T13:19:06.999Z</time></trkpt><trkpt lat="43.8075591194916" lon="12.332716844902933"><ele>1222.5</ele><time>2026-04-03T13:19:07.999Z</time></trkpt><trkpt lat="43.807443221492534" lon="12.332720669374558"><ele>1225.75</ele><time>2026-04-03T13:19:08.999Z</time></trkpt><trkpt lat="43.80732659743797" lon="12.332725732251221"><ele>1229.0</ele><time>2026-04-03T13:19:09.999Z</time></trkpt><trkpt lat="43.80721263520601" lon="12.332751887098073"><ele>1229.0</ele><time>2026-04-03T13:19:10.999Z</time></trkpt><trkpt lat="43.807104869067885" lon="12.332754716420665"><ele>1229.0</ele><time>2026-04-03T13:19:11.999Z</time></trkpt><trkpt lat="43.80699404044155" lon="12.332747384413228"><ele>1229.0</ele><time>2026-04-03T13:19:12.999Z</time></trkpt><trkpt lat="43.806882161730684" lon="12.332755794015418"><ele>1229.0</ele><time>2026-04-03T13:19:13.999Z</time></trkpt><trkpt lat="43.80677268738017" lon="12.332770036947146"><ele>1229.0</ele><time>2026-04-03T13:19:14.999Z</time></trkpt><trkpt lat="43.806684669300026" lon="12.332774794037395"><ele>1230.6666666666667</ele><time>2026-04-03T13:19:15.999Z</time></trkpt><trkpt lat="43.80661450062434" lon="12.332802079432204"><ele>1232.3333333333335</ele><time>2026-04-03T13:19:16.999Z</time></trkpt><trkpt lat="43.806551638253985" lon="12.332847089520358"><ele>1234.0</ele><time>2026-04-03T13:19:17.999Z</time></trkpt><trkpt lat="43.806497476858354" lon="12.33296450350629"><ele>1235.6666666666667</ele><time>2026-04-03T13:19:18.999Z</time></trkpt><trkpt lat="43.8064783002999" lon="12.333085045383335"><ele>1237.3333333333333</ele><time>2026-04-03T13:19:19.999Z</time></trkpt><trkpt lat="43.80646737052847" lon="12.33320983888693"><ele>1239.0</ele><time>2026-04-03T13:19:20.999Z</time></trkpt><trkpt lat="43.80646060400054" lon="12.333339221617386"><ele>1239.0</ele><time>2026-04-03T13:19:21.999Z</time></trkpt><trkpt lat="43.806453289917144" lon="12.333473276671754"><ele>1239.0</ele><time>2026-04-03T13:19:22.999Z</time></trkpt><trkpt lat="43.80643395159105" lon="12.33358365563901"><ele>1239.0</ele><time>2026-04-03T13:19:23.999Z</time></trkpt><trkpt lat="43.8064192585612" lon="12.33367404590434"><ele>1239.0</ele><time>2026-04-03T13:19:24.999Z</time></trkpt><trkpt lat="43.80642590758657" lon="12.333804468643791"><ele>1239.0</ele><time>2026-04-03T13:19:26.999Z</time></trkpt><trkpt lat="43.806417159213346" lon="12.333897482966242"><ele>1239.0</ele><time>2026-04-03T13:19:40Z</time></trkpt><trkpt lat="43.80643506236987" lon="12.333775687339815"><ele>1239.0</ele><time>2026-04-03T13:19:52Z</time></trkpt><trkpt lat="43.80644308176267" lon="12.333656239911024"><ele>1239.0</ele><time>2026-04-03T13:19:54Z</time></trkpt><trkpt lat="43.806459211106606" lon="12.333561809712211"><ele>1239.0</ele><time>2026-04-03T13:19:56Z</time></trkpt><trkpt lat="43.8064482643144" lon="12.333673923049583"><ele>1239.0</ele><time>2026-04-03T13:20:02Z</time></trkpt><trkpt lat="43.80643825789493" lon="12.33385164016391"><ele>1239.0</ele><time>2026-04-03T13:20:04Z</time></trkpt><trkpt lat="43.806428319942064" lon="12.333957302449324"><ele>1239.0</ele><time>2026-04-03T13:20:05Z</time></trkpt><trkpt lat="43.80640272947936" lon="12.33408605472964"><ele>1237.8333333333333</ele><time>2026-04-03T13:20:07Z</time></trkpt><trkpt lat="43.806371627797816" lon="12.334206241531788"><ele>1236.6666666666667</ele><time>2026-04-03T13:20:09Z</time></trkpt><trkpt lat="43.80634400561801" lon="12.334312720146578"><ele>1235.5</ele><time>2026-04-03T13:20:11Z</time></trkpt><trkpt lat="43.80631851112976" lon="12.334407766875572"><ele>1234.3333333333335</ele><time>2026-04-03T13:20:13Z</time></trkpt><trkpt lat="43.80629014752278" lon="12.334509930556184"><ele>1233.1666666666667</ele><time>2026-04-03T13:20:16Z</time></trkpt><trkpt lat="43.80627621592826" lon="12.334610123821074"><ele>1232.0</ele><time>2026-04-03T13:20:19Z</time></trkpt><trkpt lat="43.8062772273423" lon="12.334507173481837"><ele>1232.0</ele><time>2026-04-03T13:20:23Z</time></trkpt><trkpt lat="43.806278206005835" lon="12.334370668768692"><ele>1232.0</ele><time>2026-04-03T13:20:25.999Z</time></trkpt><trkpt lat="43.80630668912866" lon="12.334266196845368"><ele>1232.0</ele><time>2026-04-03T13:20:27.999Z</time></trkpt><trkpt lat="43.80632365896965" lon="12.334177348189806"><ele>1232.0</ele><time>2026-04-03T13:20:31.999Z</time></trkpt><trkpt lat="43.80628568427049" lon="12.334282775468836"><ele>1232.0</ele><time>2026-04-03T13:20:41.999Z</time></trkpt><trkpt lat="43.80625947310284" lon="12.334368131437063"><ele>1232.0</ele><time>2026-04-03T13:20:43.999Z</time></trkpt><trkpt lat="43.80624914349065" lon="12.334480416295905"><ele>1232.0</ele><time>2026-04-03T13:20:46.999Z</time></trkpt><trkpt lat="43.80626892490766" lon="12.334567978585778"><ele>1232.0</ele><time>2026-04-03T13:20:49.999Z</time></trkpt><trkpt lat="43.80631557265571" lon="12.334635368612277"><ele>1232.0</ele><time>2026-04-03T13:20:51.999Z</time></trkpt><trkpt lat="43.80640180475528" lon="12.33466545752832"><ele>1232.0</ele><time>2026-04-03T13:20:54.999Z</time></trkpt><trkpt lat="43.80647463336793" lon="12.334620666138276"><ele>1232.0</ele><time>2026-04-03T13:20:57.999Z</time></trkpt><trkpt lat="43.80646208887145" lon="12.334528162460918"><ele>1232.0</ele><time>2026-04-03T13:21:59Z</time></trkpt><trkpt lat="43.80641952446442" lon="12.334462338547363"><ele>1232.0</ele><time>2026-04-03T13:23:52Z</time></trkpt><trkpt lat="43.806432270507685" lon="12.334552903245497"><ele>1232.0</ele><time>2026-04-03T13:24:36.999Z</time></trkpt><trkpt lat="43.806458452075745" lon="12.33446523703363"><ele>1232.0</ele><time>2026-04-03T13:38:14Z</time></trkpt><trkpt lat="43.80647092593228" lon="12.334350589258007"><ele>1232.0</ele><time>2026-04-03T13:38:16Z</time></trkpt><trkpt lat="43.80649113314228" lon="12.334249009933963"><ele>1232.0</ele><time>2026-04-03T13:38:18Z</time></trkpt><trkpt lat="43.80649795923521" lon="12.334119091897431"><ele>1232.0</ele><time>2026-04-03T13:38:20Z</time></trkpt><trkpt lat="43.80650207847527" lon="12.334004403440392"><ele>1232.0</ele><time>2026-04-03T13:38:22Z</time></trkpt><trkpt lat="43.806504088017505" lon="12.333869555442893"><ele>1233.4</ele><time>2026-04-03T13:38:24Z</time></trkpt><trkpt lat="43.80649047927815" lon="12.33375181299298"><ele>1234.8000000000002</ele><time>2026-04-03T13:38:26Z</time></trkpt><trkpt lat="43.80648065708616" lon="12.333626354912141"><ele>1236.2</ele><time>2026-04-03T13:38:28Z</time></trkpt><trkpt lat="43.80648286105611" lon="12.333485920284803"><ele>1237.6000000000001</ele><time>2026-04-03T13:38:30Z</time></trkpt><trkpt lat="43.806484737629596" lon="12.333292139514258"><ele>1239.0</ele><time>2026-04-03T13:38:32Z</time></trkpt><trkpt lat="43.806487344131334" lon="12.33318895379072"><ele>1239.0</ele><time>2026-04-03T13:38:33Z</time></trkpt><trkpt lat="43.80649545754334" lon="12.333095225767176"><ele>1239.0</ele><time>2026-04-03T13:38:34Z</time></trkpt><trkpt lat="43.80653446256616" lon="12.332942586330892"><ele>1239.0</ele><time>2026-04-03T13:38:36Z</time></trkpt><trkpt lat="43.80664553922175" lon="12.332838801949201"><ele>1239.0</ele><time>2026-04-03T13:38:38Z</time></trkpt><trkpt lat="43.80672480459836" lon="12.33280960529191"><ele>1239.0</ele><time>2026-04-03T13:38:39Z</time></trkpt><trkpt lat="43.80681425332237" lon="12.332785742949618"><ele>1237.0</ele><time>2026-04-03T13:38:40Z</time></trkpt><trkpt lat="43.80691248837409" lon="12.332784268575743"><ele>1235.0</ele><time>2026-04-03T13:38:41Z</time></trkpt><trkpt lat="43.807013689770834" lon="12.332781684115192"><ele>1233.0</ele><time>2026-04-03T13:38:42Z</time></trkpt><trkpt lat="43.80711649535736" lon="12.33278238379835"><ele>1231.0</ele><time>2026-04-03T13:38:43Z</time></trkpt><trkpt lat="43.8072212771354" lon="12.332778862423144"><ele>1229.0</ele><time>2026-04-03T13:38:44Z</time></trkpt><trkpt lat="43.807325342991184" lon="12.332772897524551"><ele>1229.0</ele><time>2026-04-03T13:38:45Z</time></trkpt><trkpt lat="43.80743185238134" lon="12.332767254847274"><ele>1229.0</ele><time>2026-04-03T13:38:46Z</time></trkpt><trkpt lat="43.80753464925044" lon="12.332769109334546"><ele>1229.0</ele><time>2026-04-03T13:38:47Z</time></trkpt><trkpt lat="43.80764790562113" lon="12.332762069218198"><ele>1229.0</ele><time>2026-04-03T13:38:48Z</time></trkpt><trkpt lat="43.8077609845874" lon="12.332760043946719"><ele>1229.0</ele><time>2026-04-03T13:38:49Z</time></trkpt><trkpt lat="43.807874134235256" lon="12.332764096009075"><ele>1225.75</ele><time>2026-04-03T13:38:50Z</time></trkpt><trkpt lat="43.80798768363049" lon="12.332774554431762"><ele>1222.5</ele><time>2026-04-03T13:38:51Z</time></trkpt><trkpt lat="43.808103296232844" lon="12.332804151971139"><ele>1219.25</ele><time>2026-04-03T13:38:52Z</time></trkpt><trkpt lat="43.8082162166064" lon="12.332858886271646"><ele>1216.0</ele><time>2026-04-03T13:38:53Z</time></trkpt><trkpt lat="43.80832337751967" lon="12.332935264701625"><ele>1216.0</ele><time>2026-04-03T13:38:54Z</time></trkpt><trkpt lat="43.808431779448156" lon="12.333026082842888"><ele>1216.0</ele><time>2026-04-03T13:38:55Z</time></trkpt><trkpt lat="43.80853692314955" lon="12.333122844462295"><ele>1216.0</ele><time>2026-04-03T13:38:56Z</time></trkpt><trkpt lat="43.808645306494384" lon="12.333216501603276"><ele>1216.0</ele><time>2026-04-03T13:38:57Z</time></trkpt><trkpt lat="43.80875770562352" lon="12.333287062234037"><ele>1210.0</ele><time>2026-04-03T13:38:58Z</time></trkpt><trkpt lat="43.80887559964796" lon="12.333325807406052"><ele>1204.0</ele><time>2026-04-03T13:38:59Z</time></trkpt><trkpt lat="43.80896786547507" lon="12.333330296253234"><ele>1198.0</ele><time>2026-04-03T13:39:00Z</time></trkpt><trkpt lat="43.809069996137175" lon="12.333295362403836"><ele>1192.0</ele><time>2026-04-03T13:39:01Z</time></trkpt><trkpt lat="43.80918019310396" lon="12.333232058001046"><ele>1186.0</ele><time>2026-04-03T13:39:02Z</time></trkpt><trkpt lat="43.809304257975455" lon="12.33315925775103"><ele>1186.25</ele><time>2026-04-03T13:39:03Z</time></trkpt><trkpt lat="43.80943563327101" lon="12.333083394698367"><ele>1186.5</ele><time>2026-04-03T13:39:04Z</time></trkpt><trkpt lat="43.80956156785099" lon="12.333010733179979"><ele>1186.75</ele><time>2026-04-03T13:39:05Z</time></trkpt><trkpt lat="43.80967633265196" lon="12.33293901005312"><ele>1187.0</ele><time>2026-04-03T13:39:06Z</time></trkpt><trkpt lat="43.80978725370985" lon="12.332854753266009"><ele>1187.0</ele><time>2026-04-03T13:39:07Z</time></trkpt><trkpt lat="43.809894540749795" lon="12.332740227751795"><ele>1187.0</ele><time>2026-04-03T13:39:08Z</time></trkpt><trkpt lat="43.80999554985685" lon="12.332601812269463"><ele>1187.0</ele><time>2026-04-03T13:39:09Z</time></trkpt><trkpt lat="43.81009269974482" lon="12.332448671753147"><ele>1187.0</ele><time>2026-04-03T13:39:10Z</time></trkpt><trkpt lat="43.8101872007255" lon="12.332298353027468"><ele>1183.0</ele><time>2026-04-03T13:39:11Z</time></trkpt><trkpt lat="43.81028555782064" lon="12.332138734778583"><ele>1179.0</ele><time>2026-04-03T13:39:12Z</time></trkpt><trkpt lat="43.81037984059153" lon="12.331983335907163"><ele>1175.0</ele><time>2026-04-03T13:39:13Z</time></trkpt><trkpt lat="43.810465813743946" lon="12.331842078910064"><ele>1171.0</ele><time>2026-04-03T13:39:14Z</time></trkpt><trkpt lat="43.81054616626305" lon="12.331711339625173"><ele>1171.0</ele><time>2026-04-03T13:39:15Z</time></trkpt><trkpt lat="43.81061889846075" lon="12.331584923819136"><ele>1171.0</ele><time>2026-04-03T13:39:16Z</time></trkpt><trkpt lat="43.8106828562234" lon="12.33145660454857"><ele>1171.0</ele><time>2026-04-03T13:39:17Z</time></trkpt><trkpt lat="43.810744782560235" lon="12.331324374975921"><ele>1171.0</ele><time>2026-04-03T13:39:18Z</time></trkpt><trkpt lat="43.81079639289592" lon="12.33119312395406"><ele>1172.6666666666665</ele><time>2026-04-03T13:39:19Z</time></trkpt><trkpt lat="43.810850932043" lon="12.331074835229025"><ele>1174.3333333333333</ele><time>2026-04-03T13:39:20Z</time></trkpt><trkpt lat="43.810906969681874" lon="12.330973976882968"><ele>1176.0</ele><time>2026-04-03T13:39:21Z</time></trkpt><trkpt lat="43.81094068977225" lon="12.330872677425539"><ele>1177.6666666666667</ele><time>2026-04-03T13:39:22Z</time></trkpt><trkpt lat="43.8109961043188" lon="12.330826011567106"><ele>1179.3333333333335</ele><time>2026-04-03T13:39:23Z</time></trkpt><trkpt lat="43.81106300999054" lon="12.330827041156631"><ele>1181.0</ele><time>2026-04-03T13:39:24Z</time></trkpt><trkpt lat="43.81114471386272" lon="12.330878817070893"><ele>1181.0</ele><time>2026-04-03T13:39:25Z</time></trkpt><trkpt lat="43.81123212313663" lon="12.330962046666153"><ele>1181.0</ele><time>2026-04-03T13:39:26Z</time></trkpt><trkpt lat="43.81133620608707" lon="12.331053415367053"><ele>1181.0</ele><time>2026-04-03T13:39:27Z</time></trkpt><trkpt lat="43.811450046863676" lon="12.331139097502406"><ele>1181.0</ele><time>2026-04-03T13:39:28Z</time></trkpt><trkpt lat="43.81156629949739" lon="12.331220478041748"><ele>1181.0</ele><time>2026-04-03T13:39:29Z</time></trkpt><trkpt lat="43.8117024683081" lon="12.331302397617407"><ele>1181.0</ele><time>2026-04-03T13:39:30Z</time></trkpt><trkpt lat="43.81183659129878" lon="12.33139121573931"><ele>1181.0</ele><time>2026-04-03T13:39:31Z</time></trkpt><trkpt lat="43.81197945112967" lon="12.33147974508033"><ele>1176.6666666666667</ele><time>2026-04-03T13:39:32Z</time></trkpt><trkpt lat="43.81212933960259" lon="12.33157629007942"><ele>1172.3333333333333</ele><time>2026-04-03T13:39:33Z</time></trkpt><trkpt lat="43.812274224296914" lon="12.33167521017519"><ele>1168.0</ele><time>2026-04-03T13:39:34Z</time></trkpt><trkpt lat="43.81241695569427" lon="12.331769354995107"><ele>1168.0</ele><time>2026-04-03T13:39:35Z</time></trkpt><trkpt lat="43.81256437897024" lon="12.331866550133363"><ele>1168.0</ele><time>2026-04-03T13:39:36Z</time></trkpt><trkpt lat="43.81271419187471" lon="12.331966342208364"><ele>1168.0</ele><time>2026-04-03T13:39:37Z</time></trkpt><trkpt lat="43.81286534832448" lon="12.332066007579892"><ele>1172.6666666666665</ele><time>2026-04-03T13:39:38Z</time></trkpt><trkpt lat="43.81301803182031" lon="12.332162326795963"><ele>1177.3333333333333</ele><time>2026-04-03T13:39:39Z</time></trkpt><trkpt lat="43.81317166426603" lon="12.332250407109834"><ele>1182.0</ele><time>2026-04-03T13:39:40Z</time></trkpt><trkpt lat="43.81331704199368" lon="12.332312989586606"><ele>1179.75</ele><time>2026-04-03T13:39:41Z</time></trkpt><trkpt lat="43.813460863109064" lon="12.332352942547345"><ele>1177.5</ele><time>2026-04-03T13:39:42Z</time></trkpt><trkpt lat="43.81360735275104" lon="12.332383734121917"><ele>1175.25</ele><time>2026-04-03T13:39:43Z</time></trkpt><trkpt lat="43.81375987805018" lon="12.332409345736018"><ele>1173.0</ele><time>2026-04-03T13:39:44Z</time></trkpt><trkpt lat="43.813913323503094" lon="12.332428910769389"><ele>1173.0</ele><time>2026-04-03T13:39:45Z</time></trkpt><trkpt lat="43.81406223046054" lon="12.332450245154442"><ele>1173.0</ele><time>2026-04-03T13:39:46Z</time></trkpt><trkpt lat="43.814205723790224" lon="12.33248248195362"><ele>1173.0</ele><time>2026-04-03T13:39:47Z</time></trkpt><trkpt lat="43.814343666010615" lon="12.332516303337975"><ele>1173.0</ele><time>2026-04-03T13:39:48Z</time></trkpt><trkpt lat="43.8144791718175" lon="12.332541979496826"><ele>1173.75</ele><time>2026-04-03T13:39:49Z</time></trkpt><trkpt lat="43.81461171600699" lon="12.3325614428312"><ele>1174.5</ele><time>2026-04-03T13:39:50Z</time></trkpt><trkpt lat="43.8147411039533" lon="12.332578643197355"><ele>1175.25</ele><time>2026-04-03T13:39:51Z</time></trkpt><trkpt lat="43.81487330571873" lon="12.332592688232772"><ele>1176.0</ele><time>2026-04-03T13:39:52Z</time></trkpt><trkpt lat="43.81500564761487" lon="12.3325924389998"><ele>1176.0</ele><time>2026-04-03T13:39:53Z</time></trkpt><trkpt lat="43.81513404856371" lon="12.332617410848782"><ele>1176.0</ele><time>2026-04-03T13:39:54Z</time></trkpt><trkpt lat="43.81525267645077" lon="12.332601678828688"><ele>1176.0</ele><time>2026-04-03T13:39:55Z</time></trkpt><trkpt lat="43.81535919053468" lon="12.33260669370085"><ele>1176.0</ele><time>2026-04-03T13:39:56Z</time></trkpt><trkpt lat="43.81546131287369" lon="12.332595945978282"><ele>1176.0</ele><time>2026-04-03T13:39:57Z</time></trkpt><trkpt lat="43.81556297945052" lon="12.3325786261684"><ele>1176.0</ele><time>2026-04-03T13:39:58Z</time></trkpt><trkpt lat="43.815666622898114" lon="12.332556929498764"><ele>1176.0</ele><time>2026-04-03T13:39:59Z</time></trkpt><trkpt lat="43.8157719095467" lon="12.332530507968348"><ele>1176.0</ele><time>2026-04-03T13:40:00Z</time></trkpt><trkpt lat="43.81588477874346" lon="12.332525554479833"><ele>1176.0</ele><time>2026-04-03T13:40:01Z</time></trkpt><trkpt lat="43.81599825188439" lon="12.33255227812152"><ele>1177.5</ele><time>2026-04-03T13:40:02Z</time></trkpt><trkpt lat="43.816097797701374" lon="12.332612411194269"><ele>1179.0</ele><time>2026-04-03T13:40:03Z</time></trkpt><trkpt lat="43.81618903553974" lon="12.332701184021142"><ele>1180.5</ele><time>2026-04-03T13:40:04Z</time></trkpt><trkpt lat="43.81628108496863" lon="12.33280932508128"><ele>1182.0</ele><time>2026-04-03T13:40:05Z</time></trkpt><trkpt lat="43.816376006907014" lon="12.33292270068296"><ele>1182.0</ele><time>2026-04-03T13:40:06Z</time></trkpt><trkpt lat="43.81647428790705" lon="12.333039571385111"><ele>1182.0</ele><time>2026-04-03T13:40:07Z</time></trkpt><trkpt lat="43.81657183219284" lon="12.333152102938268"><ele>1182.0</ele><time>2026-04-03T13:40:08Z</time></trkpt><trkpt lat="43.816681331259126" lon="12.333259751372685"><ele>1182.0</ele><time>2026-04-03T13:40:09Z</time></trkpt><trkpt lat="43.81678181112629" lon="12.333360822114859"><ele>1175.75</ele><time>2026-04-03T13:40:10Z</time></trkpt><trkpt lat="43.81689063616757" lon="12.333438950022913"><ele>1169.5</ele><time>2026-04-03T13:40:11Z</time></trkpt><trkpt lat="43.81700096614097" lon="12.333483447775262"><ele>1163.25</ele><time>2026-04-03T13:40:12Z</time></trkpt><trkpt lat="43.81711263416627" lon="12.333495735696212"><ele>1157.0</ele><time>2026-04-03T13:40:13Z</time></trkpt><trkpt lat="43.8172173936286" lon="12.333479020946182"><ele>1157.0</ele><time>2026-04-03T13:40:14Z</time></trkpt><trkpt lat="43.81732630680195" lon="12.333445475574681"><ele>1157.0</ele><time>2026-04-03T13:40:15Z</time></trkpt><trkpt lat="43.81743428708087" lon="12.33341116949853"><ele>1157.0</ele><time>2026-04-03T13:40:16Z</time></trkpt><trkpt lat="43.81754318592737" lon="12.333388458452193"><ele>1157.0</ele><time>2026-04-03T13:40:17Z</time></trkpt><trkpt lat="43.817656792400776" lon="12.333376371865914"><ele>1157.0</ele><time>2026-04-03T13:40:18Z</time></trkpt><trkpt lat="43.81776453638895" lon="12.333366171708255"><ele>1155.6666666666667</ele><time>2026-04-03T13:40:19Z</time></trkpt><trkpt lat="43.81785646734019" lon="12.33335799855739"><ele>1154.3333333333335</ele><time>2026-04-03T13:40:20Z</time></trkpt><trkpt lat="43.8179310494304" lon="12.333351479794477"><ele>1153.0</ele><time>2026-04-03T13:40:21Z</time></trkpt><trkpt lat="43.818007282036504" lon="12.333361461789227"><ele>1151.6666666666667</ele><time>2026-04-03T13:40:22Z</time></trkpt><trkpt lat="43.818075913257616" lon="12.333398326089846"><ele>1150.3333333333333</ele><time>2026-04-03T13:40:23Z</time></trkpt><trkpt lat="43.81812126850239" lon="12.333542968512017"><ele>1149.0</ele><time>2026-04-03T13:40:25Z</time></trkpt><trkpt lat="43.81810060406146" lon="12.333627035690576"><ele>1149.0</ele><time>2026-04-03T13:40:26Z</time></trkpt><trkpt lat="43.81804602744837" lon="12.333709519548277"><ele>1149.0</ele><time>2026-04-03T13:40:27Z</time></trkpt><trkpt lat="43.81796635394998" lon="12.333780322408888"><ele>1149.0</ele><time>2026-04-03T13:40:28Z</time></trkpt><trkpt lat="43.81788067506265" lon="12.333861104438826"><ele>1149.0</ele><time>2026-04-03T13:40:29Z</time></trkpt><trkpt lat="43.8177868010501" lon="12.333945664843064"><ele>1149.0</ele><time>2026-04-03T13:40:30Z</time></trkpt><trkpt lat="43.81769051891172" lon="12.334030046050783"><ele>1148.0</ele><time>2026-04-03T13:40:31Z</time></trkpt><trkpt lat="43.81761030585425" lon="12.334115472700269"><ele>1147.0</ele><time>2026-04-03T13:40:32Z</time></trkpt><trkpt lat="43.81753972718279" lon="12.334210284955619"><ele>1146.0</ele><time>2026-04-03T13:40:33Z</time></trkpt><trkpt lat="43.817481163011266" lon="12.334318434160995"><ele>1145.0</ele><time>2026-04-03T13:40:34Z</time></trkpt><trkpt lat="43.817437992843146" lon="12.334442026800271"><ele>1144.0</ele><time>2026-04-03T13:40:35Z</time></trkpt><trkpt lat="43.81740934979109" lon="12.334582072779058"><ele>1142.75</ele><time>2026-04-03T13:40:36Z</time></trkpt><trkpt lat="43.817393146073265" lon="12.334734862182417"><ele>1141.5</ele><time>2026-04-03T13:40:37Z</time></trkpt><trkpt lat="43.817372099385665" lon="12.33490080833153"><ele>1140.25</ele><time>2026-04-03T13:40:38Z</time></trkpt><trkpt lat="43.81734420165031" lon="12.335066908950177"><ele>1139.0</ele><time>2026-04-03T13:40:39Z</time></trkpt><trkpt lat="43.817306176547206" lon="12.335227450027826"><ele>1139.0</ele><time>2026-04-03T13:40:40Z</time></trkpt><trkpt lat="43.81726212150594" lon="12.335375573383399"><ele>1139.0</ele><time>2026-04-03T13:40:41Z</time></trkpt><trkpt lat="43.817207357029226" lon="12.335496730926133"><ele>1139.0</ele><time>2026-04-03T13:40:42Z</time></trkpt><trkpt lat="43.81713548240143" lon="12.335598023431322"><ele>1139.0</ele><time>2026-04-03T13:40:43Z</time></trkpt><trkpt lat="43.81704066013411" lon="12.335656202533338"><ele>1139.0</ele><time>2026-04-03T13:40:44Z</time></trkpt><trkpt lat="43.8169475159717" lon="12.335724764487024"><ele>1136.6000000000001</ele><time>2026-04-03T13:40:45Z</time></trkpt><trkpt lat="43.81685231100696" lon="12.335782516224299"><ele>1134.2</ele><time>2026-04-03T13:40:46Z</time></trkpt><trkpt lat="43.8167775759714" lon="12.335848900261349"><ele>1131.8000000000002</ele><time>2026-04-03T13:40:47Z</time></trkpt><trkpt lat="43.81670215785308" lon="12.335897464941286"><ele>1129.4</ele><time>2026-04-03T13:40:48Z</time></trkpt><trkpt lat="43.81664084596335" lon="12.33597747001936"><ele>1127.0</ele><time>2026-04-03T13:40:49Z</time></trkpt><trkpt lat="43.816593435398" lon="12.336086215498302"><ele>1126.8</ele><time>2026-04-03T13:40:50Z</time></trkpt><trkpt lat="43.81656668272631" lon="12.336212274672684"><ele>1126.6</ele><time>2026-04-03T13:40:51Z</time></trkpt><trkpt lat="43.81656268678106" lon="12.33634804397456"><ele>1126.3999999999999</ele><time>2026-04-03T13:40:52Z</time></trkpt><trkpt lat="43.81656896382452" lon="12.33649214085528"><ele>1126.2</ele><time>2026-04-03T13:40:53Z</time></trkpt><trkpt lat="43.81659613392723" lon="12.336627863456362"><ele>1126.0</ele><time>2026-04-03T13:40:54Z</time></trkpt><trkpt lat="43.81664053231521" lon="12.33675073789304"><ele>1123.8</ele><time>2026-04-03T13:40:55Z</time></trkpt><trkpt lat="43.816699354575704" lon="12.336853372251841"><ele>1121.6</ele><time>2026-04-03T13:40:56Z</time></trkpt><trkpt lat="43.81677122686438" lon="12.336938999718997"><ele>1119.4</ele><time>2026-04-03T13:40:57Z</time></trkpt><trkpt lat="43.81686284312089" lon="12.337028627743935"><ele>1117.2</ele><time>2026-04-03T13:40:58Z</time></trkpt><trkpt lat="43.81696641781883" lon="12.337106623651357"><ele>1115.0</ele><time>2026-04-03T13:40:59Z</time></trkpt><trkpt lat="43.81707060544705" lon="12.337184691649858"><ele>1111.0</ele><time>2026-04-03T13:41:00Z</time></trkpt><trkpt lat="43.81717766817567" lon="12.337275825929638"><ele>1107.0</ele><time>2026-04-03T13:41:01Z</time></trkpt><trkpt lat="43.81728344085475" lon="12.33737835677726"><ele>1103.0</ele><time>2026-04-03T13:41:02Z</time></trkpt><trkpt lat="43.8173732820952" lon="12.337494978680697"><ele>1099.0</ele><time>2026-04-03T13:41:03Z</time></trkpt><trkpt lat="43.81745010485564" lon="12.337621194277595"><ele>1099.0</ele><time>2026-04-03T13:41:04Z</time></trkpt><trkpt lat="43.81750815536802" lon="12.337763015175561"><ele>1099.0</ele><time>2026-04-03T13:41:05Z</time></trkpt><trkpt lat="43.817548622933955" lon="12.337917629887697"><ele>1099.0</ele><time>2026-04-03T13:41:06Z</time></trkpt><trkpt lat="43.81759059319807" lon="12.33807019849417"><ele>1099.0</ele><time>2026-04-03T13:41:07Z</time></trkpt><trkpt lat="43.81764603526647" lon="12.338215918902796"><ele>1096.25</ele><time>2026-04-03T13:41:08Z</time></trkpt><trkpt lat="43.817709182579755" lon="12.338361707666529"><ele>1093.5</ele><time>2026-04-03T13:41:09Z</time></trkpt><trkpt lat="43.81778092207851" lon="12.338508058826298"><ele>1090.75</ele><time>2026-04-03T13:41:10Z</time></trkpt><trkpt lat="43.81786034260173" lon="12.338662221036799"><ele>1088.0</ele><time>2026-04-03T13:41:11Z</time></trkpt><trkpt lat="43.81796207100273" lon="12.338822359234264"><ele>1083.6666666666667</ele><time>2026-04-03T13:41:12Z</time></trkpt><trkpt lat="43.818088689204735" lon="12.338969952955"><ele>1079.3333333333333</ele><time>2026-04-03T13:41:13Z</time></trkpt><trkpt lat="43.81822054821305" lon="12.339107596424746"><ele>1075.0</ele><time>2026-04-03T13:41:14Z</time></trkpt><trkpt lat="43.81836639109116" lon="12.33923547818719"><ele>1077.0</ele><time>2026-04-03T13:41:15Z</time></trkpt><trkpt lat="43.81851809694733" lon="12.339362580530747"><ele>1079.0</ele><time>2026-04-03T13:41:16Z</time></trkpt><trkpt lat="43.818669387232454" lon="12.339493339003836"><ele>1081.0</ele><time>2026-04-03T13:41:17Z</time></trkpt><trkpt lat="43.81880996001784" lon="12.339615120195747"><ele>1078.25</ele><time>2026-04-03T13:41:18Z</time></trkpt><trkpt lat="43.81893878933831" lon="12.339725956047419"><ele>1075.5</ele><time>2026-04-03T13:41:19Z</time></trkpt><trkpt lat="43.819065134328376" lon="12.339816654469498"><ele>1072.75</ele><time>2026-04-03T13:41:20Z</time></trkpt><trkpt lat="43.8191921255877" lon="12.339885879089294"><ele>1070.0</ele><time>2026-04-03T13:41:21Z</time></trkpt><trkpt lat="43.81932088109523" lon="12.339918096465492"><ele>1070.0</ele><time>2026-04-03T13:41:22Z</time></trkpt><trkpt lat="43.81945151769671" lon="12.339927795212448"><ele>1070.0</ele><time>2026-04-03T13:41:23Z</time></trkpt><trkpt lat="43.81957256778324" lon="12.339905122794264"><ele>1070.0</ele><time>2026-04-03T13:41:24Z</time></trkpt><trkpt lat="43.81968024353291" lon="12.33984882473645"><ele>1070.0</ele><time>2026-04-03T13:41:25Z</time></trkpt><trkpt lat="43.81978104356521" lon="12.33976987408954"><ele>1070.75</ele><time>2026-04-03T13:41:26Z</time></trkpt><trkpt lat="43.81987969511293" lon="12.339664891125661"><ele>1071.5</ele><time>2026-04-03T13:41:27Z</time></trkpt><trkpt lat="43.81998076852049" lon="12.339540258315267"><ele>1072.25</ele><time>2026-04-03T13:41:28Z</time></trkpt><trkpt lat="43.82007769915013" lon="12.33940988469718"><ele>1073.0</ele><time>2026-04-03T13:41:29Z</time></trkpt><trkpt lat="43.820178948126745" lon="12.339291049177898"><ele>1070.75</ele><time>2026-04-03T13:41:30Z</time></trkpt><trkpt lat="43.820283723812736" lon="12.339207462948815"><ele>1068.5</ele><time>2026-04-03T13:41:31Z</time></trkpt><trkpt lat="43.8204044262955" lon="12.339150858583368"><ele>1066.25</ele><time>2026-04-03T13:41:32Z</time></trkpt><trkpt lat="43.82053957302622" lon="12.33911708970878"><ele>1064.0</ele><time>2026-04-03T13:41:33Z</time></trkpt><trkpt lat="43.820693039520336" lon="12.339105011565419"><ele>1064.0</ele><time>2026-04-03T13:41:34Z</time></trkpt><trkpt lat="43.820842342829465" lon="12.339129833773818"><ele>1064.0</ele><time>2026-04-03T13:41:35Z</time></trkpt><trkpt lat="43.82098734360918" lon="12.339163450845454"><ele>1064.0</ele><time>2026-04-03T13:41:36Z</time></trkpt><trkpt lat="43.82113632428029" lon="12.33920596143426"><ele>1064.0</ele><time>2026-04-03T13:41:37Z</time></trkpt><trkpt lat="43.82130344647455" lon="12.339251311690955"><ele>1061.3333333333335</ele><time>2026-04-03T13:41:38Z</time></trkpt><trkpt lat="43.821468616418365" lon="12.339289458207316"><ele>1058.6666666666667</ele><time>2026-04-03T13:41:39Z</time></trkpt><trkpt lat="43.821636133089434" lon="12.339329908342291"><ele>1056.0</ele><time>2026-04-03T13:41:40Z</time></trkpt><trkpt lat="43.82180436816253" lon="12.33937022633242"><ele>1056.3333333333333</ele><time>2026-04-03T13:41:41Z</time></trkpt><trkpt lat="43.82197405761943" lon="12.339409309621388"><ele>1056.6666666666665</ele><time>2026-04-03T13:41:42Z</time></trkpt><trkpt lat="43.82214998062838" lon="12.339433380157606"><ele>1057.0</ele><time>2026-04-03T13:41:43Z</time></trkpt><trkpt lat="43.822332331995945" lon="12.339450508260706"><ele>1057.0</ele><time>2026-04-03T13:41:44Z</time></trkpt><trkpt lat="43.82251654856287" lon="12.339461917510276"><ele>1057.0</ele><time>2026-04-03T13:41:45Z</time></trkpt><trkpt lat="43.82269937875579" lon="12.339469845199586"><ele>1057.0</ele><time>2026-04-03T13:41:46Z</time></trkpt><trkpt lat="43.8228787519338" lon="12.339474538270542"><ele>1057.0</ele><time>2026-04-03T13:41:47Z</time></trkpt><trkpt lat="43.823046655822914" lon="12.339475863786483"><ele>1057.0</ele><time>2026-04-03T13:41:48Z</time></trkpt><trkpt lat="43.8232016330068" lon="12.339490499497403"><ele>1057.0</ele><time>2026-04-03T13:41:49Z</time></trkpt><trkpt lat="43.82334307583849" lon="12.339527193571326"><ele>1057.0</ele><time>2026-04-03T13:41:50Z</time></trkpt><trkpt lat="43.82347803947098" lon="12.339582452610895"><ele>1057.0</ele><time>2026-04-03T13:41:51Z</time></trkpt><trkpt lat="43.823604045386986" lon="12.339653334097891"><ele>1057.0</ele><time>2026-04-03T13:41:52Z</time></trkpt><trkpt lat="43.82373181627959" lon="12.339733719215955"><ele>1057.0</ele><time>2026-04-03T13:41:53Z</time></trkpt><trkpt lat="43.82386671007638" lon="12.339812924704066"><ele>1052.3333333333333</ele><time>2026-04-03T13:41:54Z</time></trkpt><trkpt lat="43.824010642023886" lon="12.339888817444562"><ele>1047.6666666666667</ele><time>2026-04-03T13:41:55Z</time></trkpt><trkpt lat="43.82416037747874" lon="12.339969075950412"><ele>1043.0</ele><time>2026-04-03T13:41:56Z</time></trkpt><trkpt lat="43.824311739893524" lon="12.340059678720612"><ele>1043.25</ele><time>2026-04-03T13:41:57Z</time></trkpt><trkpt lat="43.824454522516724" lon="12.340147693650087"><ele>1043.5</ele><time>2026-04-03T13:41:58Z</time></trkpt><trkpt lat="43.82459047781496" lon="12.340226129097148"><ele>1043.75</ele><time>2026-04-03T13:41:59Z</time></trkpt><trkpt lat="43.8247231613724" lon="12.34029175051562"><ele>1044.0</ele><time>2026-04-03T13:42:00Z</time></trkpt><trkpt lat="43.824850653585436" lon="12.34033446660493"><ele>1044.0</ele><time>2026-04-03T13:42:01Z</time></trkpt><trkpt lat="43.82496256014243" lon="12.340362397501469"><ele>1044.0</ele><time>2026-04-03T13:42:02Z</time></trkpt><trkpt lat="43.82505891129095" lon="12.340391835630461"><ele>1044.0</ele><time>2026-04-03T13:42:03Z</time></trkpt><trkpt lat="43.82513701264312" lon="12.340424994602095"><ele>1044.0</ele><time>2026-04-03T13:42:04Z</time></trkpt><trkpt lat="43.82519648622117" lon="12.340467758241058"><ele>1044.0</ele><time>2026-04-03T13:42:05Z</time></trkpt><trkpt lat="43.825241067264955" lon="12.340536800243559"><ele>1044.0</ele><time>2026-04-03T13:42:06Z</time></trkpt><trkpt lat="43.82526314940228" lon="12.340642177754944"><ele>1039.5</ele><time>2026-04-03T13:42:07Z</time></trkpt><trkpt lat="43.82526216818358" lon="12.340784512293805"><ele>1035.0</ele><time>2026-04-03T13:42:08Z</time></trkpt><trkpt lat="43.82523515473901" lon="12.340942535226791"><ele>1030.5</ele><time>2026-04-03T13:42:09Z</time></trkpt><trkpt lat="43.82519981065129" lon="12.341095998170994"><ele>1026.0</ele><time>2026-04-03T13:42:10Z</time></trkpt><trkpt lat="43.82516404985184" lon="12.341260265274459"><ele>1024.0</ele><time>2026-04-03T13:42:11Z</time></trkpt><trkpt lat="43.825129442271326" lon="12.341429015500175"><ele>1022.0</ele><time>2026-04-03T13:42:12Z</time></trkpt><trkpt lat="43.82509527943994" lon="12.341606828138204"><ele>1020.0</ele><time>2026-04-03T13:42:13Z</time></trkpt><trkpt lat="43.82505932772421" lon="12.341785249425016"><ele>1018.0</ele><time>2026-04-03T13:42:14Z</time></trkpt><trkpt lat="43.825022653264675" lon="12.341959310163466"><ele>1018.0</ele><time>2026-04-03T13:42:15Z</time></trkpt><trkpt lat="43.82497598000322" lon="12.342134232131324"><ele>1018.0</ele><time>2026-04-03T13:42:16Z</time></trkpt><trkpt lat="43.82491856702269" lon="12.342289767816448"><ele>1018.0</ele><time>2026-04-03T13:42:17Z</time></trkpt><trkpt lat="43.82483352678245" lon="12.342396654296403"><ele>1018.0</ele><time>2026-04-03T13:42:18Z</time></trkpt><trkpt lat="43.82473894379312" lon="12.342466026325342"><ele>1016.5999999999999</ele><time>2026-04-03T13:42:19Z</time></trkpt><trkpt lat="43.824651411103886" lon="12.342545982973371"><ele>1015.1999999999999</ele><time>2026-04-03T13:42:20Z</time></trkpt><trkpt lat="43.82457735962297" lon="12.342643089777088"><ele>1013.8</ele><time>2026-04-03T13:42:21Z</time></trkpt><trkpt lat="43.82449721885577" lon="12.34274072514462"><ele>1012.4</ele><time>2026-04-03T13:42:22Z</time></trkpt><trkpt lat="43.82443290975888" lon="12.342841733398282"><ele>1011.0</ele><time>2026-04-03T13:42:23Z</time></trkpt><trkpt lat="43.824378759114374" lon="12.342895880878679"><ele>1011.4</ele><time>2026-04-03T13:42:24Z</time></trkpt><trkpt lat="43.82429562365519" lon="12.342909625163099"><ele>1011.8</ele><time>2026-04-03T13:42:25Z</time></trkpt><trkpt lat="43.8242200368635" lon="12.34283594975171"><ele>1012.1999999999999</ele><time>2026-04-03T13:42:26Z</time></trkpt><trkpt lat="43.82412787629442" lon="12.342779385274959"><ele>1012.5999999999999</ele><time>2026-04-03T13:42:27Z</time></trkpt><trkpt lat="43.82402513627778" lon="12.342712960864073"><ele>1013.0</ele><time>2026-04-03T13:42:28Z</time></trkpt><trkpt lat="43.82391949428724" lon="12.342644709727743"><ele>1013.0</ele><time>2026-04-03T13:42:29Z</time></trkpt><trkpt lat="43.8238036874495" lon="12.34259242723613"><ele>1013.0</ele><time>2026-04-03T13:42:30Z</time></trkpt><trkpt lat="43.82368264067525" lon="12.342584825209345"><ele>1013.0</ele><time>2026-04-03T13:42:31Z</time></trkpt><trkpt lat="43.82355956300242" lon="12.342620748027846"><ele>1013.0</ele><time>2026-04-03T13:42:32Z</time></trkpt><trkpt lat="43.82343712225015" lon="12.342662921390808"><ele>1014.0</ele><time>2026-04-03T13:42:33Z</time></trkpt><trkpt lat="43.82331270551907" lon="12.342713834762062"><ele>1015.0</ele><time>2026-04-03T13:42:34Z</time></trkpt><trkpt lat="43.82319225032264" lon="12.342794622175305"><ele>1016.0</ele><time>2026-04-03T13:42:35Z</time></trkpt><trkpt lat="43.82309365593612" lon="12.342911441281053"><ele>1017.0</ele><time>2026-04-03T13:42:36Z</time></trkpt><trkpt lat="43.823004168217814" lon="12.343011736474391"><ele>1015.0</ele><time>2026-04-03T13:42:37Z</time></trkpt><trkpt lat="43.82291937876641" lon="12.343103170972029"><ele>1013.0</ele><time>2026-04-03T13:42:38Z</time></trkpt><trkpt lat="43.82282890015324" lon="12.343191456385817"><ele>1011.0</ele><time>2026-04-03T13:42:39Z</time></trkpt><trkpt lat="43.82273943445469" lon="12.343285211228546"><ele>1009.0</ele><time>2026-04-03T13:42:40Z</time></trkpt><trkpt lat="43.82264204681038" lon="12.343379416774678"><ele>1007.0</ele><time>2026-04-03T13:42:41Z</time></trkpt><trkpt lat="43.82253501885937" lon="12.343471358912463"><ele>1005.75</ele><time>2026-04-03T13:42:42Z</time></trkpt><trkpt lat="43.8224299677126" lon="12.343574068491074"><ele>1004.5</ele><time>2026-04-03T13:42:43Z</time></trkpt><trkpt lat="43.82233296171037" lon="12.343662503726131"><ele>1003.25</ele><time>2026-04-03T13:42:44Z</time></trkpt><trkpt lat="43.82223500623782" lon="12.343729113105319"><ele>1002.0</ele><time>2026-04-03T13:42:45Z</time></trkpt><trkpt lat="43.82212503270382" lon="12.34372806415323"><ele>1002.0</ele><time>2026-04-03T13:42:46Z</time></trkpt><trkpt lat="43.8220198530572" lon="12.343740869549698"><ele>1002.0</ele><time>2026-04-03T13:42:47Z</time></trkpt><trkpt lat="43.82191359498802" lon="12.343774327911646"><ele>1002.0</ele><time>2026-04-03T13:42:48Z</time></trkpt><trkpt lat="43.82180421816578" lon="12.343759788507091"><ele>1002.0</ele><time>2026-04-03T13:42:49Z</time></trkpt><trkpt lat="43.82170430531973" lon="12.343773497031503"><ele>1002.0</ele><time>2026-04-03T13:42:50Z</time></trkpt><trkpt lat="43.821598714920064" lon="12.343791662811343"><ele>1002.2</ele><time>2026-04-03T13:42:51Z</time></trkpt><trkpt lat="43.821488525913566" lon="12.34381619054235"><ele>1002.4000000000001</ele><time>2026-04-03T13:42:52Z</time></trkpt><trkpt lat="43.821377228253446" lon="12.343869788312425"><ele>1002.5999999999999</ele><time>2026-04-03T13:42:53Z</time></trkpt><trkpt lat="43.821269763919574" lon="12.34389070407139"><ele>1002.8</ele><time>2026-04-03T13:42:54Z</time></trkpt><trkpt lat="43.82117954589747" lon="12.343954119647073"><ele>1003.0</ele><time>2026-04-03T13:42:55Z</time></trkpt><trkpt lat="43.82114013638954" lon="12.344075398059339"><ele>1000.3333333333333</ele><time>2026-04-03T13:42:56Z</time></trkpt><trkpt lat="43.82110117915676" lon="12.34417362238391"><ele>997.6666666666666</ele><time>2026-04-03T13:42:57Z</time></trkpt><trkpt lat="43.821071588334036" lon="12.34427460156509"><ele>995.0</ele><time>2026-04-03T13:42:58Z</time></trkpt><trkpt lat="43.82102861201872" lon="12.344356974931832"><ele>992.3333333333333</ele><time>2026-04-03T13:42:59Z</time></trkpt><trkpt lat="43.82095241759324" lon="12.344400397354168"><ele>989.6666666666666</ele><time>2026-04-03T13:43:00Z</time></trkpt><trkpt lat="43.82088421373074" lon="12.344419975674711"><ele>987.0</ele><time>2026-04-03T13:43:01Z</time></trkpt><trkpt lat="43.82075961946112" lon="12.34435522996418"><ele>987.0</ele><time>2026-04-03T13:43:03Z</time></trkpt><trkpt lat="43.8206905768173" lon="12.34430536541274"><ele>987.0</ele><time>2026-04-03T13:43:04Z</time></trkpt><trkpt lat="43.82060877312456" lon="12.344247468384081"><ele>987.0</ele><time>2026-04-03T13:43:05Z</time></trkpt><trkpt lat="43.82051718128045" lon="12.3442024254764"><ele>987.0</ele><time>2026-04-03T13:43:06Z</time></trkpt><trkpt lat="43.820425803922625" lon="12.344175717475176"><ele>987.0</ele><time>2026-04-03T13:43:07Z</time></trkpt><trkpt lat="43.82033567890646" lon="12.344157259788199"><ele>987.0</ele><time>2026-04-03T13:43:08Z</time></trkpt><trkpt lat="43.82024296783886" lon="12.344148021723969"><ele>987.0</ele><time>2026-04-03T13:43:09Z</time></trkpt><trkpt lat="43.82014679293829" lon="12.344146307989616"><ele>987.0</ele><time>2026-04-03T13:43:10Z</time></trkpt><trkpt lat="43.82004369534836" lon="12.344160088136931"><ele>987.0</ele><time>2026-04-03T13:43:11Z</time></trkpt><trkpt lat="43.81993194227084" lon="12.344172560517952"><ele>987.0</ele><time>2026-04-03T13:43:12Z</time></trkpt><trkpt lat="43.819821487682766" lon="12.344204204962315"><ele>985.5</ele><time>2026-04-03T13:43:13Z</time></trkpt><trkpt lat="43.81971811386432" lon="12.344207689686964"><ele>984.0</ele><time>2026-04-03T13:43:14Z</time></trkpt><trkpt lat="43.81962702026517" lon="12.34422484080758"><ele>982.5</ele><time>2026-04-03T13:43:15Z</time></trkpt><trkpt lat="43.81955536134723" lon="12.34424539392354"><ele>981.0</ele><time>2026-04-03T13:43:16Z</time></trkpt><trkpt lat="43.81948741849975" lon="12.344261408634944"><ele>979.5</ele><time>2026-04-03T13:43:17Z</time></trkpt><trkpt lat="43.81942370548565" lon="12.344286336533974"><ele>978.0</ele><time>2026-04-03T13:43:18Z</time></trkpt><trkpt lat="43.81933389412794" lon="12.344386264991853"><ele>978.0</ele><time>2026-04-03T13:43:20Z</time></trkpt><trkpt lat="43.81936050386815" lon="12.34452056206429"><ele>978.0</ele><time>2026-04-03T13:43:22Z</time></trkpt><trkpt lat="43.819493816602645" lon="12.344584706546172"><ele>978.0</ele><time>2026-04-03T13:43:24Z</time></trkpt><trkpt lat="43.81958773673063" lon="12.344629795007389"><ele>978.0</ele><time>2026-04-03T13:43:25Z</time></trkpt><trkpt lat="43.81969114697555" lon="12.344709198148333"><ele>972.5</ele><time>2026-04-03T13:43:26Z</time></trkpt><trkpt lat="43.81978578780099" lon="12.344811919919646"><ele>967.0</ele><time>2026-04-03T13:43:27Z</time></trkpt><trkpt lat="43.81987837080945" lon="12.344943988507232"><ele>961.5</ele><time>2026-04-03T13:43:28Z</time></trkpt><trkpt lat="43.819958986470375" lon="12.345097311301515"><ele>956.0</ele><time>2026-04-03T13:43:29Z</time></trkpt><trkpt lat="43.82000415166047" lon="12.345256557869703"><ele>956.0</ele><time>2026-04-03T13:43:30Z</time></trkpt><trkpt lat="43.820035308410205" lon="12.345381625405569"><ele>955.9999999999999</ele><time>2026-04-03T13:43:31Z</time></trkpt><trkpt lat="43.82009852760178" lon="12.345468475791447"><ele>955.9999999999999</ele><time>2026-04-03T13:43:32Z</time></trkpt><trkpt lat="43.82019759257507" lon="12.345524801439893"><ele>956.0</ele><time>2026-04-03T13:43:33Z</time></trkpt><trkpt lat="43.820306238637286" lon="12.345550666211302"><ele>956.0</ele><time>2026-04-03T13:43:34Z</time></trkpt><trkpt lat="43.82040283768181" lon="12.345586459231493"><ele>954.75</ele><time>2026-04-03T13:43:35Z</time></trkpt><trkpt lat="43.82047256946486" lon="12.345689341504297"><ele>953.5</ele><time>2026-04-03T13:43:36Z</time></trkpt><trkpt lat="43.82053960396681" lon="12.345833884286119"><ele>952.25</ele><time>2026-04-03T13:43:37Z</time></trkpt><trkpt lat="43.82060863451372" lon="12.345991897596242"><ele>951.0</ele><time>2026-04-03T13:43:38Z</time></trkpt><trkpt lat="43.82067745503657" lon="12.346147262311156"><ele>951.0</ele><time>2026-04-03T13:43:39Z</time></trkpt><trkpt lat="43.82073030454853" lon="12.346309085159543"><ele>951.0</ele><time>2026-04-03T13:43:40Z</time></trkpt><trkpt lat="43.820758983686424" lon="12.34649823925706"><ele>951.0</ele><time>2026-04-03T13:43:41Z</time></trkpt><trkpt lat="43.82076316842552" lon="12.34670751055504"><ele>951.0</ele><time>2026-04-03T13:43:42Z</time></trkpt><trkpt lat="43.82077434543206" lon="12.346921490422814"><ele>946.0</ele><time>2026-04-03T13:43:43Z</time></trkpt><trkpt lat="43.82080244623498" lon="12.347125578058284"><ele>941.0</ele><time>2026-04-03T13:43:44Z</time></trkpt><trkpt lat="43.82084124868082" lon="12.347327184368606"><ele>936.0</ele><time>2026-04-03T13:43:45Z</time></trkpt><trkpt lat="43.820873786567944" lon="12.347529080099319"><ele>933.25</ele><time>2026-04-03T13:43:46Z</time></trkpt><trkpt lat="43.820887239915315" lon="12.347737303188262"><ele>930.5</ele><time>2026-04-03T13:43:47Z</time></trkpt><trkpt lat="43.8208879651041" lon="12.347950174304966"><ele>927.75</ele><time>2026-04-03T13:43:48Z</time></trkpt><trkpt lat="43.82089333294323" lon="12.348143439509379"><ele>925.0</ele><time>2026-04-03T13:43:49Z</time></trkpt><trkpt lat="43.82090784033527" lon="12.34830946919549"><ele>925.0</ele><time>2026-04-03T13:43:50Z</time></trkpt><trkpt lat="43.820925702202615" lon="12.348450927998861"><ele>925.0</ele><time>2026-04-03T13:43:51Z</time></trkpt><trkpt lat="43.820955160917975" lon="12.34858053904855"><ele>925.0</ele><time>2026-04-03T13:43:52Z</time></trkpt><trkpt lat="43.82101642658965" lon="12.348699337594201"><ele>925.0</ele><time>2026-04-03T13:43:53Z</time></trkpt><trkpt lat="43.821110193254796" lon="12.348782994803992"><ele>925.0</ele><time>2026-04-03T13:43:54Z</time></trkpt><trkpt lat="43.82122045103424" lon="12.348828648937545"><ele>925.0</ele><time>2026-04-03T13:43:55Z</time></trkpt><trkpt lat="43.8213374387747" lon="12.348871015142732"><ele>925.0</ele><time>2026-04-03T13:43:56Z</time></trkpt><trkpt lat="43.82144685588461" lon="12.348939414487406"><ele>925.0</ele><time>2026-04-03T13:43:57Z</time></trkpt><trkpt lat="43.821545875408155" lon="12.349038010164469"><ele>925.0</ele><time>2026-04-03T13:43:58Z</time></trkpt><trkpt lat="43.821628114576505" lon="12.349168026957708"><ele>923.5</ele><time>2026-04-03T13:43:59Z</time></trkpt><trkpt lat="43.82169851953926" lon="12.349323482205186"><ele>922.0</ele><time>2026-04-03T13:44:00Z</time></trkpt><trkpt lat="43.821751727366205" lon="12.34950561386791"><ele>920.5</ele><time>2026-04-03T13:44:01Z</time></trkpt><trkpt lat="43.821795804151364" lon="12.34970103999673"><ele>919.0</ele><time>2026-04-03T13:44:02Z</time></trkpt><trkpt lat="43.82183879240953" lon="12.349864726390921"><ele>919.0</ele><time>2026-04-03T13:44:03Z</time></trkpt><trkpt lat="43.82189462318579" lon="12.349985832991964"><ele>919.0000000000001</ele><time>2026-04-03T13:44:04Z</time></trkpt><trkpt lat="43.82196013525706" lon="12.350070976230167"><ele>919.0000000000001</ele><time>2026-04-03T13:44:05Z</time></trkpt><trkpt lat="43.82204806083501" lon="12.350135906211207"><ele>919.0</ele><time>2026-04-03T13:44:06Z</time></trkpt><trkpt lat="43.82215862791579" lon="12.350177469068434"><ele>919.0</ele><time>2026-04-03T13:44:07Z</time></trkpt><trkpt lat="43.82226697328257" lon="12.350211694757425"><ele>919.0</ele><time>2026-04-03T13:44:08Z</time></trkpt><trkpt lat="43.82233798599853" lon="12.350307750698956"><ele>919.0000000000001</ele><time>2026-04-03T13:44:09Z</time></trkpt><trkpt lat="43.822412364697094" lon="12.350352711224279"><ele>919.0000000000001</ele><time>2026-04-03T13:44:10Z</time></trkpt><trkpt lat="43.822470085742935" lon="12.35039599294102"><ele>919.0</ele><time>2026-04-03T13:44:11Z</time></trkpt><trkpt lat="43.82259409960685" lon="12.350337022509018"><ele>919.0</ele><time>2026-04-03T13:44:13Z</time></trkpt><trkpt lat="43.82264599720141" lon="12.350216270385381"><ele>919.1666666666666</ele><time>2026-04-03T13:44:14Z</time></trkpt><trkpt lat="43.82269742133938" lon="12.350078623318531"><ele>919.3333333333333</ele><time>2026-04-03T13:44:15Z</time></trkpt><trkpt lat="43.82274567234207" lon="12.349974705554782"><ele>919.5</ele><time>2026-04-03T13:44:16Z</time></trkpt><trkpt lat="43.8227901423485" lon="12.349894941274975"><ele>919.6666666666667</ele><time>2026-04-03T13:44:17Z</time></trkpt><trkpt lat="43.82286374560357" lon="12.349834603536099"><ele>919.8333333333334</ele><time>2026-04-03T13:44:19Z</time></trkpt><trkpt lat="43.822925415646594" lon="12.349795324154739"><ele>920.0</ele><time>2026-04-03T13:53:06.001Z</time></trkpt><trkpt lat="43.82304773040492" lon="12.34975097737239"><ele>920.0</ele><time>2026-04-03T13:53:08.001Z</time></trkpt><trkpt lat="43.823118748220146" lon="12.349752904340995"><ele>920.0</ele><time>2026-04-03T13:53:09.001Z</time></trkpt><trkpt lat="43.82325116677028" lon="12.349854095537422"><ele>920.0</ele><time>2026-04-03T13:53:11.001Z</time></trkpt><trkpt lat="43.823334525407546" lon="12.349912196094087"><ele>920.0</ele><time>2026-04-03T13:53:12.001Z</time></trkpt><trkpt lat="43.823432109457805" lon="12.349947159851817"><ele>920.0</ele><time>2026-04-03T13:53:13.001Z</time></trkpt><trkpt lat="43.8235321786918" lon="12.3499587814809"><ele>919.8333333333334</ele><time>2026-04-03T13:53:14.001Z</time></trkpt><trkpt lat="43.82362027761631" lon="12.349981477619933"><ele>919.6666666666667</ele><time>2026-04-03T13:53:15.001Z</time></trkpt><trkpt lat="43.82369841846276" lon="12.350028839826265"><ele>919.5</ele><time>2026-04-03T13:53:16.001Z</time></trkpt><trkpt lat="43.823757583100324" lon="12.35011039389046"><ele>919.3333333333333</ele><time>2026-04-03T13:53:17.001Z</time></trkpt><trkpt lat="43.82379788441087" lon="12.35021268998043"><ele>919.1666666666666</ele><time>2026-04-03T13:53:18.001Z</time></trkpt><trkpt lat="43.82381492528347" lon="12.350331623440406"><ele>919.0</ele><time>2026-04-03T13:53:19.001Z</time></trkpt><trkpt lat="43.82379544302887" lon="12.35046294764601"><ele>916.5</ele><time>2026-04-03T13:53:20.001Z</time></trkpt><trkpt lat="43.823762156267456" lon="12.350616337217426"><ele>914.0</ele><time>2026-04-03T13:53:21Z</time></trkpt><trkpt lat="43.823739707096344" lon="12.350787293985768"><ele>911.5</ele><time>2026-04-03T13:53:22Z</time></trkpt><trkpt lat="43.82372618155392" lon="12.350953510071504"><ele>909.0</ele><time>2026-04-03T13:53:23Z</time></trkpt><trkpt lat="43.823713700036755" lon="12.351121805100652"><ele>909.0</ele><time>2026-04-03T13:53:24Z</time></trkpt><trkpt lat="43.82370654870369" lon="12.351286542328767"><ele>909.0000000000001</ele><time>2026-04-03T13:53:25Z</time></trkpt><trkpt lat="43.82370978765641" lon="12.351436819780057"><ele>909.0000000000001</ele><time>2026-04-03T13:53:26Z</time></trkpt><trkpt lat="43.82372517178562" lon="12.351570789327981"><ele>909.0</ele><time>2026-04-03T13:53:27Z</time></trkpt><trkpt lat="43.823743337726974" lon="12.351692087956526"><ele>909.0</ele><time>2026-04-03T13:53:28Z</time></trkpt><trkpt lat="43.82376410156867" lon="12.351807390443126"><ele>908.0</ele><time>2026-04-03T13:53:29Z</time></trkpt><trkpt lat="43.82378862951382" lon="12.351920680620616"><ele>907.0</ele><time>2026-04-03T13:53:30Z</time></trkpt><trkpt lat="43.823807294130255" lon="12.352032865786223"><ele>906.0</ele><time>2026-04-03T13:53:31Z</time></trkpt><trkpt lat="43.82383488597205" lon="12.352140313832168"><ele>905.0</ele><time>2026-04-03T13:53:32Z</time></trkpt><trkpt lat="43.82388076424843" lon="12.35222742523498"><ele>904.0</ele><time>2026-04-03T13:53:33Z</time></trkpt><trkpt lat="43.82394071099196" lon="12.352299130912144"><ele>903.0</ele><time>2026-04-03T13:53:34Z</time></trkpt><trkpt lat="43.8240103276291" lon="12.352359654147122"><ele>902.2</ele><time>2026-04-03T13:53:35Z</time></trkpt><trkpt lat="43.82409032420288" lon="12.352381343146217"><ele>901.4</ele><time>2026-04-03T13:53:36Z</time></trkpt><trkpt lat="43.8241781682096" lon="12.35238276801458"><ele>900.6000000000001</ele><time>2026-04-03T13:53:37Z</time></trkpt><trkpt lat="43.82427839012391" lon="12.352383225032744"><ele>899.8000000000001</ele><time>2026-04-03T13:53:38Z</time></trkpt><trkpt lat="43.82438324468689" lon="12.352388020951981"><ele>899.0</ele><time>2026-04-03T13:53:39Z</time></trkpt><trkpt lat="43.8244967280697" lon="12.352395695460578"><ele>899.0</ele><time>2026-04-03T13:53:40Z</time></trkpt><trkpt lat="43.82460985110784" lon="12.352397496264986"><ele>899.0000000000001</ele><time>2026-04-03T13:53:41Z</time></trkpt><trkpt lat="43.824717915716974" lon="12.352404782937011"><ele>899.0000000000001</ele><time>2026-04-03T13:53:42Z</time></trkpt><trkpt lat="43.824822770748604" lon="12.352420342410527"><ele>899.0</ele><time>2026-04-03T13:53:43Z</time></trkpt><trkpt lat="43.82491719880846" lon="12.352466068609674"><ele>899.0</ele><time>2026-04-03T13:53:44Z</time></trkpt><trkpt lat="43.82498851887525" lon="12.352549691615957"><ele>899.0</ele><time>2026-04-03T13:53:45Z</time></trkpt><trkpt lat="43.82502331701647" lon="12.352663248160995"><ele>899.0000000000001</ele><time>2026-04-03T13:53:46Z</time></trkpt><trkpt lat="43.82503491673847" lon="12.352811808214966"><ele>899.0000000000001</ele><time>2026-04-03T13:53:47Z</time></trkpt><trkpt lat="43.82504125272538" lon="12.352976261110747"><ele>899.0</ele><time>2026-04-03T13:53:48Z</time></trkpt><trkpt lat="43.82503368247434" lon="12.353159534355791"><ele>899.0</ele><time>2026-04-03T13:53:49Z</time></trkpt><trkpt lat="43.825012440198535" lon="12.353358432523724"><ele>897.0</ele><time>2026-04-03T13:53:50Z</time></trkpt><trkpt lat="43.82498891973234" lon="12.353568171125561"><ele>895.0</ele><time>2026-04-03T13:53:51Z</time></trkpt><trkpt lat="43.82497059093741" lon="12.353780628401367"><ele>893.0</ele><time>2026-04-03T13:53:52Z</time></trkpt><trkpt lat="43.82495073876279" lon="12.353990532225465"><ele>891.0</ele><time>2026-04-03T13:53:53Z</time></trkpt><trkpt lat="43.824927664676494" lon="12.35419482466292"><ele>889.0</ele><time>2026-04-03T13:53:54Z</time></trkpt><trkpt lat="43.82490168067536" lon="12.35439847063599"><ele>887.0</ele><time>2026-04-03T13:53:55Z</time></trkpt><trkpt lat="43.82487853383684" lon="12.354593172518403"><ele>885.0</ele><time>2026-04-03T13:53:56Z</time></trkpt><trkpt lat="43.82486133551218" lon="12.354780019511345"><ele>883.75</ele><time>2026-04-03T13:53:57Z</time></trkpt><trkpt lat="43.8248638620387" lon="12.354965242975435"><ele>882.5</ele><time>2026-04-03T13:53:58Z</time></trkpt><trkpt lat="43.82487580568069" lon="12.355141415138398"><ele>881.25</ele><time>2026-04-03T13:53:59Z</time></trkpt><trkpt lat="43.82488759977347" lon="12.355317018990137"><ele>880.0</ele><time>2026-04-03T13:54:00Z</time></trkpt><trkpt lat="43.82491201063164" lon="12.355492196373236"><ele>877.75</ele><time>2026-04-03T13:54:01Z</time></trkpt><trkpt lat="43.824944840652016" lon="12.355660313938571"><ele>875.5</ele><time>2026-04-03T13:54:02Z</time></trkpt><trkpt lat="43.82498311154073" lon="12.3558319613629"><ele>873.25</ele><time>2026-04-03T13:54:03Z</time></trkpt><trkpt lat="43.825028610440484" lon="12.35600247888286"><ele>871.0</ele><time>2026-04-03T13:54:04Z</time></trkpt><trkpt lat="43.82507679377743" lon="12.356182886346165"><ele>873.0</ele><time>2026-04-03T13:54:05Z</time></trkpt><trkpt lat="43.82512410141314" lon="12.35637243115822"><ele>875.0</ele><time>2026-04-03T13:54:06Z</time></trkpt><trkpt lat="43.82517505331417" lon="12.35657161939717"><ele>877.0</ele><time>2026-04-03T13:54:07Z</time></trkpt><trkpt lat="43.82522328815018" lon="12.356781965388175"><ele>877.0</ele><time>2026-04-03T13:54:08Z</time></trkpt><trkpt lat="43.825274273384494" lon="12.356998044755333"><ele>877.0</ele><time>2026-04-03T13:54:09Z</time></trkpt><trkpt lat="43.82532731723073" lon="12.35721672207808"><ele>877.0</ele><time>2026-04-03T13:54:10Z</time></trkpt><trkpt lat="43.825385794752385" lon="12.35742762510924"><ele>872.6666666666666</ele><time>2026-04-03T13:54:11Z</time></trkpt><trkpt lat="43.82545315314677" lon="12.357630595331429"><ele>868.3333333333333</ele><time>2026-04-03T13:54:12Z</time></trkpt><trkpt lat="43.8255342125111" lon="12.357828873824733"><ele>864.0</ele><time>2026-04-03T13:54:13Z</time></trkpt><trkpt lat="43.82562086167297" lon="12.358022059997529"><ele>861.25</ele><time>2026-04-03T13:54:14Z</time></trkpt><trkpt lat="43.8257137511807" lon="12.358204163005444"><ele>858.5</ele><time>2026-04-03T13:54:15Z</time></trkpt><trkpt lat="43.825796392597454" lon="12.35836646731341"><ele>855.75</ele><time>2026-04-03T13:54:16Z</time></trkpt><trkpt lat="43.8258420179243" lon="12.358538402097686"><ele>853.0</ele><time>2026-04-03T13:54:17Z</time></trkpt><trkpt lat="43.82582415195338" lon="12.358717845994809"><ele>849.75</ele><time>2026-04-03T13:54:18Z</time></trkpt><trkpt lat="43.825830002649404" lon="12.35889308000165"><ele>846.5</ele><time>2026-04-03T13:54:19Z</time></trkpt><trkpt lat="43.825830107141336" lon="12.359068718581518"><ele>843.25</ele><time>2026-04-03T13:54:20Z</time></trkpt><trkpt lat="43.82585240500669" lon="12.359243269041954"><ele>840.0</ele><time>2026-04-03T13:54:21Z</time></trkpt><trkpt lat="43.82590054290242" lon="12.359419336646384"><ele>840.0</ele><time>2026-04-03T13:54:22Z</time></trkpt><trkpt lat="43.82597135873866" lon="12.359595582195396"><ele>840.0</ele><time>2026-04-03T13:54:23Z</time></trkpt><trkpt lat="43.82605518250223" lon="12.359767327543093"><ele>840.0</ele><time>2026-04-03T13:54:24Z</time></trkpt><trkpt lat="43.82614189687476" lon="12.359943155123968"><ele>840.0</ele><time>2026-04-03T13:54:25Z</time></trkpt><trkpt lat="43.82622998302773" lon="12.360124867143645"><ele>845.25</ele><time>2026-04-03T13:54:26Z</time></trkpt><trkpt lat="43.82629130566713" lon="12.360311544842128"><ele>850.5</ele><time>2026-04-03T13:54:27Z</time></trkpt><trkpt lat="43.82629301762724" lon="12.36048719642353"><ele>855.75</ele><time>2026-04-03T13:54:28Z</time></trkpt><trkpt lat="43.826292066499036" lon="12.360659833274084"><ele>861.0</ele><time>2026-04-03T13:54:29Z</time></trkpt><trkpt lat="43.8263173327944" lon="12.360821768297024"><ele>861.0</ele><time>2026-04-03T13:54:30Z</time></trkpt><trkpt lat="43.826361029597166" lon="12.360964708465252"><ele>860.9999999999999</ele><time>2026-04-03T13:54:31Z</time></trkpt><trkpt lat="43.82643313055958" lon="12.361080570075377"><ele>860.9999999999999</ele><time>2026-04-03T13:54:32Z</time></trkpt><trkpt lat="43.82652236118588" lon="12.3611575401106"><ele>861.0</ele><time>2026-04-03T13:54:33Z</time></trkpt><trkpt lat="43.82662907354376" lon="12.361204981551209"><ele>861.0</ele><time>2026-04-03T13:54:34Z</time></trkpt><trkpt lat="43.826757110430734" lon="12.361241045024947"><ele>863.0</ele><time>2026-04-03T13:54:35Z</time></trkpt><trkpt lat="43.8268999849464" lon="12.361264721021984"><ele>865.0</ele><time>2026-04-03T13:54:36Z</time></trkpt><trkpt lat="43.827056944409684" lon="12.361268870586716"><ele>867.0</ele><time>2026-04-03T13:54:37Z</time></trkpt><trkpt lat="43.827221161368584" lon="12.361242698885404"><ele>867.0</ele><time>2026-04-03T13:54:38Z</time></trkpt><trkpt lat="43.82737014285648" lon="12.361195424120286"><ele>867.0</ele><time>2026-04-03T13:54:39Z</time></trkpt><trkpt lat="43.827493946934496" lon="12.361129195495431"><ele>867.0</ele><time>2026-04-03T13:54:40Z</time></trkpt><trkpt lat="43.82759965478047" lon="12.361042426020774"><ele>867.0</ele><time>2026-04-03T13:54:41Z</time></trkpt><trkpt lat="43.827691180465806" lon="12.360955056830916"><ele>863.5</ele><time>2026-04-03T13:54:42Z</time></trkpt><trkpt lat="43.827782570415735" lon="12.36088126318473"><ele>860.0</ele><time>2026-04-03T13:54:43Z</time></trkpt><trkpt lat="43.82788919857837" lon="12.360839413999287"><ele>856.5</ele><time>2026-04-03T13:54:44Z</time></trkpt><trkpt lat="43.82801374065568" lon="12.360849068611573"><ele>853.0</ele><time>2026-04-03T13:54:45Z</time></trkpt><trkpt lat="43.82814343765552" lon="12.360841604394068"><ele>853.0</ele><time>2026-04-03T13:54:46Z</time></trkpt><trkpt lat="43.82828046094332" lon="12.360812694910836"><ele>853.0</ele><time>2026-04-03T13:54:46.999Z</time></trkpt><trkpt lat="43.82840758356874" lon="12.360748200396747"><ele>853.0</ele><time>2026-04-03T13:54:47.999Z</time></trkpt><trkpt lat="43.82852477690725" lon="12.36064625289064"><ele>853.0</ele><time>2026-04-03T13:54:48.999Z</time></trkpt><trkpt lat="43.82863103332505" lon="12.360526990886404"><ele>854.0</ele><time>2026-04-03T13:54:49.999Z</time></trkpt><trkpt lat="43.82874268708884" lon="12.360416026301346"><ele>855.0</ele><time>2026-04-03T13:54:50.999Z</time></trkpt><trkpt lat="43.82885167202759" lon="12.360300815776737"><ele>856.0</ele><time>2026-04-03T13:54:51.999Z</time></trkpt><trkpt lat="43.828955630351075" lon="12.360177909763465"><ele>857.0</ele><time>2026-04-03T13:54:52.999Z</time></trkpt><trkpt lat="43.82906013556137" lon="12.36006113343395"><ele>857.0</ele><time>2026-04-03T13:54:53.999Z</time></trkpt><trkpt lat="43.829180906463094" lon="12.359979963824873"><ele>857.0</ele><time>2026-04-03T13:54:54.999Z</time></trkpt><trkpt lat="43.82931163206865" lon="12.359944540421138"><ele>857.0</ele><time>2026-04-03T13:54:55.999Z</time></trkpt><trkpt lat="43.82944526895285" lon="12.359942807104956"><ele>857.0</ele><time>2026-04-03T13:54:56.999Z</time></trkpt><trkpt lat="43.82957814381511" lon="12.359960071350773"><ele>852.5</ele><time>2026-04-03T13:54:57.999Z</time></trkpt><trkpt lat="43.829709599292315" lon="12.359956847902573"><ele>848.0</ele><time>2026-04-03T13:54:58.999Z</time></trkpt><trkpt lat="43.82984104855885" lon="12.359925151601914"><ele>843.5</ele><time>2026-04-03T13:54:59.999Z</time></trkpt><trkpt lat="43.82997323687468" lon="12.359881440878752"><ele>839.0</ele><time>2026-04-03T13:55:00.999Z</time></trkpt><trkpt lat="43.830104573177344" lon="12.359819631153265"><ele>840.5</ele><time>2026-04-03T13:55:01.999Z</time></trkpt><trkpt lat="43.83022828079379" lon="12.359732372179671"><ele>842.0</ele><time>2026-04-03T13:55:02.999Z</time></trkpt><trkpt lat="43.83034821101914" lon="12.35962464693237"><ele>843.5</ele><time>2026-04-03T13:55:03.999Z</time></trkpt><trkpt lat="43.83047723014821" lon="12.35951315190693"><ele>845.0</ele><time>2026-04-03T13:55:04.999Z</time></trkpt><trkpt lat="43.83061718337976" lon="12.359410969609131"><ele>845.0</ele><time>2026-04-03T13:55:05.999Z</time></trkpt><trkpt lat="43.83076685281019" lon="12.359329685145989"><ele>845.0</ele><time>2026-04-03T13:55:06.999Z</time></trkpt><trkpt lat="43.830923493196266" lon="12.359272184058625"><ele>845.0</ele><time>2026-04-03T13:55:07.999Z</time></trkpt><trkpt lat="43.831081313734906" lon="12.359215002370426"><ele>841.0</ele><time>2026-04-03T13:55:08.999Z</time></trkpt><trkpt lat="43.83123708743915" lon="12.359153875144328"><ele>837.0</ele><time>2026-04-03T13:55:09.999Z</time></trkpt><trkpt lat="43.8313827779426" lon="12.359094333917245"><ele>833.0</ele><time>2026-04-03T13:55:11Z</time></trkpt><trkpt lat="43.83151918369943" lon="12.359036429002202"><ele>833.0</ele><time>2026-04-03T13:55:12Z</time></trkpt><trkpt lat="43.83164747305884" lon="12.35898155599202"><ele>833.0</ele><time>2026-04-03T13:55:13Z</time></trkpt><trkpt lat="43.83176786701488" lon="12.35892180395931"><ele>833.0</ele><time>2026-04-03T13:55:14Z</time></trkpt><trkpt lat="43.831884637464924" lon="12.358869398647636"><ele>833.0</ele><time>2026-04-03T13:55:15Z</time></trkpt><trkpt lat="43.831997366072464" lon="12.358841946997735"><ele>834.0</ele><time>2026-04-03T13:55:16Z</time></trkpt><trkpt lat="43.83211048203876" lon="12.35884768201178"><ele>835.0</ele><time>2026-04-03T13:55:17Z</time></trkpt><trkpt lat="43.832206712562154" lon="12.35886564159069"><ele>836.0</ele><time>2026-04-03T13:55:18Z</time></trkpt><trkpt lat="43.83229951449749" lon="12.35888890125653"><ele>837.0</ele><time>2026-04-03T13:55:19Z</time></trkpt><trkpt lat="43.83238711644906" lon="12.358912782504495"><ele>838.0</ele><time>2026-04-03T13:55:20Z</time></trkpt><trkpt lat="43.83246387106925" lon="12.358937409504591"><ele>835.8</ele><time>2026-04-03T13:55:21Z</time></trkpt><trkpt lat="43.83257157565134" lon="12.358994564318913"><ele>833.5999999999999</ele><time>2026-04-03T13:55:23Z</time></trkpt><trkpt lat="43.832622521642996" lon="12.359050463795063"><ele>831.4000000000001</ele><time>2026-04-03T13:55:26Z</time></trkpt><trkpt lat="43.832512365225696" lon="12.359216290006426"><ele>829.2</ele><time>2026-04-03T13:55:28Z</time></trkpt><trkpt lat="43.83244210580427" lon="12.359274313099796"><ele>827.0</ele><time>2026-04-03T13:55:29Z</time></trkpt><trkpt lat="43.832369328001626" lon="12.359349774853417"><ele>827.0</ele><time>2026-04-03T13:55:30Z</time></trkpt><trkpt lat="43.8322813847731" lon="12.359444326656206"><ele>827.0</ele><time>2026-04-03T13:55:31Z</time></trkpt><trkpt lat="43.832179050813636" lon="12.35955042563027"><ele>827.0</ele><time>2026-04-03T13:55:32Z</time></trkpt><trkpt lat="43.83207133794448" lon="12.359651290613243"><ele>827.0</ele><time>2026-04-03T13:55:33Z</time></trkpt><trkpt lat="43.831951755387124" lon="12.359752021486944"><ele>825.0</ele><time>2026-04-03T13:55:34Z</time></trkpt><trkpt lat="43.831819553665625" lon="12.35985295518164"><ele>823.0</ele><time>2026-04-03T13:55:35Z</time></trkpt><trkpt lat="43.83167959347295" lon="12.35995366201127"><ele>821.0</ele><time>2026-04-03T13:55:36Z</time></trkpt><trkpt lat="43.83153987237993" lon="12.360056398043989"><ele>821.0</ele><time>2026-04-03T13:55:37Z</time></trkpt><trkpt lat="43.83140196417366" lon="12.360157597374794"><ele>821.0</ele><time>2026-04-03T13:55:38Z</time></trkpt><trkpt lat="43.83126177573439" lon="12.360262606102143"><ele>821.0</ele><time>2026-04-03T13:55:39Z</time></trkpt><trkpt lat="43.83112138179934" lon="12.360366689969545"><ele>821.0</ele><time>2026-04-03T13:55:40Z</time></trkpt><trkpt lat="43.83098091508438" lon="12.360469775375119"><ele>821.0</ele><time>2026-04-03T13:55:41Z</time></trkpt><trkpt lat="43.83084118939719" lon="12.360572882890033"><ele>821.0</ele><time>2026-04-03T13:55:42Z</time></trkpt><trkpt lat="43.83070011793066" lon="12.36067408537858"><ele>816.3333333333334</ele><time>2026-04-03T13:55:43Z</time></trkpt><trkpt lat="43.83055864981056" lon="12.360772391785545"><ele>811.6666666666667</ele><time>2026-04-03T13:55:44Z</time></trkpt><trkpt lat="43.83041873795439" lon="12.360868953574787"><ele>807.0</ele><time>2026-04-03T13:55:45Z</time></trkpt><trkpt lat="43.83027913378664" lon="12.360967682729893"><ele>807.0</ele><time>2026-04-03T13:55:46Z</time></trkpt><trkpt lat="43.83014698819828" lon="12.361071013020418"><ele>807.0</ele><time>2026-04-03T13:55:47Z</time></trkpt><trkpt lat="43.830013650763355" lon="12.361174898578666"><ele>807.0</ele><time>2026-04-03T13:55:48Z</time></trkpt><trkpt lat="43.82992826724104" lon="12.36133278137766"><ele>807.0</ele><time>2026-04-03T13:55:49Z</time></trkpt><trkpt lat="43.829858646098444" lon="12.36149672022279"><ele>805.0</ele><time>2026-04-03T13:55:50Z</time></trkpt><trkpt lat="43.829806147349984" lon="12.361663414825994"><ele>803.0</ele><time>2026-04-03T13:55:51Z</time></trkpt><trkpt lat="43.829748329102344" lon="12.361821410532821"><ele>801.0</ele><time>2026-04-03T13:55:52Z</time></trkpt><trkpt lat="43.82967435925779" lon="12.361961754613908"><ele>799.0</ele><time>2026-04-03T13:55:53Z</time></trkpt><trkpt lat="43.82956840339799" lon="12.36205011503772"><ele>799.0</ele><time>2026-04-03T13:55:54Z</time></trkpt><trkpt lat="43.8294530910093" lon="12.362114078273569"><ele>799.0</ele><time>2026-04-03T13:55:55Z</time></trkpt><trkpt lat="43.82932814546834" lon="12.362190378170544"><ele>799.0</ele><time>2026-04-03T13:55:56Z</time></trkpt><trkpt lat="43.82919150153945" lon="12.362245062985162"><ele>799.0</ele><time>2026-04-03T13:55:57Z</time></trkpt><trkpt lat="43.82906241383806" lon="12.36233874628333"><ele>795.6666666666666</ele><time>2026-04-03T13:55:58Z</time></trkpt><trkpt lat="43.82892812340958" lon="12.362463958034736"><ele>792.3333333333333</ele><time>2026-04-03T13:55:59Z</time></trkpt><trkpt lat="43.828816632836805" lon="12.36263660205461"><ele>789.0</ele><time>2026-04-03T13:56:00Z</time></trkpt><trkpt lat="43.828691524489855" lon="12.362811967135467"><ele>789.0</ele><time>2026-04-03T13:56:01Z</time></trkpt><trkpt lat="43.82857272166812" lon="12.362980905853817"><ele>789.0</ele><time>2026-04-03T13:56:02Z</time></trkpt><trkpt lat="43.82843255832056" lon="12.363127579073852"><ele>789.0</ele><time>2026-04-03T13:56:03Z</time></trkpt><trkpt lat="43.82827232623255" lon="12.36326185503556"><ele>786.3333333333333</ele><time>2026-04-03T13:56:04Z</time></trkpt><trkpt lat="43.82810746038124" lon="12.363401106808436"><ele>783.6666666666666</ele><time>2026-04-03T13:56:05Z</time></trkpt><trkpt lat="43.8279488909817" lon="12.363552365356366"><ele>781.0</ele><time>2026-04-03T13:56:06Z</time></trkpt><trkpt lat="43.82779983999885" lon="12.363720080890605"><ele>779.6666666666666</ele><time>2026-04-03T13:56:07Z</time></trkpt><trkpt lat="43.827659228315866" lon="12.363888193663565"><ele>778.3333333333333</ele><time>2026-04-03T13:56:08Z</time></trkpt><trkpt lat="43.827517708476336" lon="12.364042861979753"><ele>777.0</ele><time>2026-04-03T13:56:09Z</time></trkpt><trkpt lat="43.82737530438758" lon="12.364186766217422"><ele>777.0</ele><time>2026-04-03T13:56:10Z</time></trkpt><trkpt lat="43.82723398070161" lon="12.364316752667754"><ele>777.0</ele><time>2026-04-03T13:56:11Z</time></trkpt><trkpt lat="43.82707884871883" lon="12.364397153710811"><ele>777.0</ele><time>2026-04-03T13:56:12Z</time></trkpt><trkpt lat="43.8269336369715" lon="12.364484310620796"><ele>777.0</ele><time>2026-04-03T13:56:13Z</time></trkpt><trkpt lat="43.82681824999124" lon="12.36457219891066"><ele>777.0</ele><time>2026-04-03T13:56:14Z</time></trkpt><trkpt lat="43.82669415597185" lon="12.364610073068349"><ele>777.0</ele><time>2026-04-03T13:56:15Z</time></trkpt><trkpt lat="43.82655662760199" lon="12.36460587100454"><ele>777.0</ele><time>2026-04-03T13:56:16Z</time></trkpt><trkpt lat="43.826424915467626" lon="12.364530158279383"><ele>781.0</ele><time>2026-04-03T13:56:17Z</time></trkpt><trkpt lat="43.8262842576288" lon="12.36446546686431"><ele>785.0</ele><time>2026-04-03T13:56:18Z</time></trkpt><trkpt lat="43.82614122507785" lon="12.36439773715836"><ele>789.0</ele><time>2026-04-03T13:56:19Z</time></trkpt><trkpt lat="43.8259964753489" lon="12.364330440949876"><ele>782.3333333333333</ele><time>2026-04-03T13:56:20Z</time></trkpt><trkpt lat="43.825879221285646" lon="12.36418454116477"><ele>775.6666666666666</ele><time>2026-04-03T13:56:21Z</time></trkpt><trkpt lat="43.82575960916277" lon="12.364035182627136"><ele>769.0</ele><time>2026-04-03T13:56:22Z</time></trkpt><trkpt lat="43.82563809912449" lon="12.363876923271826"><ele>777.0</ele><time>2026-04-03T13:56:23Z</time></trkpt><trkpt lat="43.82551319378707" lon="12.36372296228436"><ele>785.0</ele><time>2026-04-03T13:56:24Z</time></trkpt><trkpt lat="43.825390414950476" lon="12.363588044508191"><ele>793.0</ele><time>2026-04-03T13:56:25Z</time></trkpt><trkpt lat="43.82527223178105" lon="12.363466693348894"><ele>786.0</ele><time>2026-04-03T13:56:26Z</time></trkpt><trkpt lat="43.825144826680315" lon="12.36337758036182"><ele>779.0</ele><time>2026-04-03T13:56:27Z</time></trkpt><trkpt lat="43.825026412224005" lon="12.363261427391526"><ele>772.0</ele><time>2026-04-03T13:56:28Z</time></trkpt><trkpt lat="43.82488333019919" lon="12.363209092123421"><ele>765.0</ele><time>2026-04-03T13:56:28.999Z</time></trkpt><trkpt lat="43.82473614720712" lon="12.363164964011673"><ele>765.0</ele><time>2026-04-03T13:56:29.999Z</time></trkpt><trkpt lat="43.82458795944715" lon="12.363145786468436"><ele>765.0</ele><time>2026-04-03T13:56:30.999Z</time></trkpt><trkpt lat="43.824461501383084" lon="12.363139896333537"><ele>765.0</ele><time>2026-04-03T13:56:31.999Z</time></trkpt><trkpt lat="43.82435496317807" lon="12.363113824063703"><ele>765.0</ele><time>2026-04-03T13:56:32.999Z</time></trkpt><trkpt lat="43.82426287156614" lon="12.363113485967792"><ele>762.0</ele><time>2026-04-03T13:56:33.999Z</time></trkpt><trkpt lat="43.824190840815774" lon="12.36302057912844"><ele>759.0</ele><time>2026-04-03T13:56:34.999Z</time></trkpt><trkpt lat="43.82416752880897" lon="12.362901447844031"><ele>756.0</ele><time>2026-04-03T13:56:35.999Z</time></trkpt><trkpt lat="43.82419843046873" lon="12.36278069312722"><ele>753.0</ele><time>2026-04-03T13:56:36.999Z</time></trkpt><trkpt lat="43.824260599000695" lon="12.362658496363498"><ele>750.0</ele><time>2026-04-03T13:56:37.999Z</time></trkpt><trkpt lat="43.82432007922162" lon="12.36252256010675"><ele>751.5</ele><time>2026-04-03T13:56:38.999Z</time></trkpt><trkpt lat="43.82433476024309" lon="12.362344129824285"><ele>753.0</ele><time>2026-04-03T13:56:39.999Z</time></trkpt><trkpt lat="43.8243132638425" lon="12.362165412168345"><ele>754.5</ele><time>2026-04-03T13:56:40.999Z</time></trkpt><trkpt lat="43.82427038097434" lon="12.361999412887602"><ele>756.0</ele><time>2026-04-03T13:56:41.999Z</time></trkpt><trkpt lat="43.824233989597246" lon="12.361850045596368"><ele>756.0</ele><time>2026-04-03T13:56:42.999Z</time></trkpt><trkpt lat="43.82416197315976" lon="12.361723667657607"><ele>756.0</ele><time>2026-04-03T13:56:43.999Z</time></trkpt><trkpt lat="43.824081791090535" lon="12.361619367936402"><ele>756.0</ele><time>2026-04-03T13:56:44.999Z</time></trkpt><trkpt lat="43.82400207582508" lon="12.361540216808512"><ele>756.0</ele><time>2026-04-03T13:56:45.999Z</time></trkpt><trkpt lat="43.82391305510117" lon="12.361484057667857"><ele>756.0</ele><time>2026-04-03T13:56:46.999Z</time></trkpt><trkpt lat="43.823814838368826" lon="12.361445324247015"><ele>756.0</ele><time>2026-04-03T13:56:47.999Z</time></trkpt><trkpt lat="43.82370302377828" lon="12.361422443834053"><ele>756.0</ele><time>2026-04-03T13:56:48.999Z</time></trkpt><trkpt lat="43.82358145683311" lon="12.361423092261848"><ele>756.0</ele><time>2026-04-03T13:56:49.999Z</time></trkpt><trkpt lat="43.823455817580566" lon="12.361453672186963"><ele>756.0</ele><time>2026-04-03T13:56:50.999Z</time></trkpt><trkpt lat="43.823328632796496" lon="12.361495457597771"><ele>750.25</ele><time>2026-04-03T13:56:51.999Z</time></trkpt><trkpt lat="43.823206827418055" lon="12.361538062667845"><ele>744.5</ele><time>2026-04-03T13:56:52.999Z</time></trkpt><trkpt lat="43.82309042115598" lon="12.361579318004562"><ele>738.75</ele><time>2026-04-03T13:56:53.999Z</time></trkpt><trkpt lat="43.82297285070229" lon="12.361620425972257"><ele>733.0</ele><time>2026-04-03T13:56:54.999Z</time></trkpt><trkpt lat="43.822854757386935" lon="12.36166171681819"><ele>733.0</ele><time>2026-04-03T13:56:55.999Z</time></trkpt><trkpt lat="43.82273603916129" lon="12.361701993868111"><ele>733.0</ele><time>2026-04-03T13:56:56.999Z</time></trkpt><trkpt lat="43.82261637048624" lon="12.36174171757342"><ele>733.0</ele><time>2026-04-03T13:56:57.999Z</time></trkpt><trkpt lat="43.82249749464134" lon="12.361782199016268"><ele>733.0</ele><time>2026-04-03T13:56:58.999Z</time></trkpt><trkpt lat="43.822377799913305" lon="12.361823696060254"><ele>732.0</ele><time>2026-04-03T13:56:59.999Z</time></trkpt><trkpt lat="43.82226162585154" lon="12.361865760427557"><ele>731.0</ele><time>2026-04-03T13:57:00.999Z</time></trkpt><trkpt lat="43.822150930204806" lon="12.361919419500914"><ele>730.0</ele><time>2026-04-03T13:57:01.999Z</time></trkpt><trkpt lat="43.822057355608095" lon="12.362018847663606"><ele>729.0</ele><time>2026-04-03T13:57:02.999Z</time></trkpt><trkpt lat="43.82195949721332" lon="12.362114031672933"><ele>727.5</ele><time>2026-04-03T13:57:03.999Z</time></trkpt><trkpt lat="43.82185892361898" lon="12.36222426203329"><ele>726.0</ele><time>2026-04-03T13:57:04.999Z</time></trkpt><trkpt lat="43.821745322188065" lon="12.362325085172635"><ele>724.5</ele><time>2026-04-03T13:57:05.999Z</time></trkpt><trkpt lat="43.82165373092163" lon="12.362478176027142"><ele>723.0</ele><time>2026-04-03T13:57:06.999Z</time></trkpt><trkpt lat="43.82155400361759" lon="12.362625488734707"><ele>726.0</ele><time>2026-04-03T13:57:07.999Z</time></trkpt><trkpt lat="43.82144077728639" lon="12.362754760650553"><ele>729.0</ele><time>2026-04-03T13:57:08.999Z</time></trkpt><trkpt lat="43.821351925140775" lon="12.362915224948903"><ele>732.0</ele><time>2026-04-03T13:57:09.999Z</time></trkpt><trkpt lat="43.82125028354939" lon="12.363061283218281"><ele>735.0</ele><time>2026-04-03T13:57:10.999Z</time></trkpt><trkpt lat="43.82114830167661" lon="12.363210905223232"><ele>735.0</ele><time>2026-04-03T13:57:11.999Z</time></trkpt><trkpt lat="43.82103402496177" lon="12.363347203079787"><ele>735.0</ele><time>2026-04-03T13:57:12.999Z</time></trkpt><trkpt lat="43.8209253766875" lon="12.363489745199512"><ele>735.0</ele><time>2026-04-03T13:57:13.999Z</time></trkpt><trkpt lat="43.82081743185892" lon="12.363604039805528"><ele>735.0</ele><time>2026-04-03T13:57:14.999Z</time></trkpt><trkpt lat="43.820711735952976" lon="12.363692229603028"><ele>740.25</ele><time>2026-04-03T13:57:15.999Z</time></trkpt><trkpt lat="43.820591203231054" lon="12.363739271085596"><ele>745.5</ele><time>2026-04-03T13:57:17Z</time></trkpt><trkpt lat="43.82045733438139" lon="12.363746259262228"><ele>750.75</ele><time>2026-04-03T13:57:18Z</time></trkpt><trkpt lat="43.82032098090213" lon="12.363732621946443"><ele>756.0</ele><time>2026-04-03T13:57:19Z</time></trkpt><trkpt lat="43.82018177692157" lon="12.363702311157398"><ele>757.75</ele><time>2026-04-03T13:57:20Z</time></trkpt><trkpt lat="43.820035358771165" lon="12.36368483040293"><ele>759.5</ele><time>2026-04-03T13:57:21Z</time></trkpt><trkpt lat="43.819890844788446" lon="12.363639959399686"><ele>761.25</ele><time>2026-04-03T13:57:22Z</time></trkpt><trkpt lat="43.81975344112562" lon="12.363574474015003"><ele>763.0</ele><time>2026-04-03T13:57:23Z</time></trkpt><trkpt lat="43.81961826199311" lon="12.363545208720247"><ele>763.0</ele><time>2026-04-03T13:57:24Z</time></trkpt><trkpt lat="43.819502667303865" lon="12.36343183156234"><ele>763.0</ele><time>2026-04-03T13:57:25Z</time></trkpt><trkpt lat="43.81937085927563" lon="12.363347156691892"><ele>763.0</ele><time>2026-04-03T13:57:26Z</time></trkpt><trkpt lat="43.819244754053564" lon="12.363251834134669"><ele>763.0</ele><time>2026-04-03T13:57:27Z</time></trkpt><trkpt lat="43.81911662226586" lon="12.363160147639517"><ele>762.5</ele><time>2026-04-03T13:57:28Z</time></trkpt><trkpt lat="43.81898329221844" lon="12.363154663640437"><ele>762.0</ele><time>2026-04-03T13:57:29Z</time></trkpt><trkpt lat="43.81884743267044" lon="12.363160459353674"><ele>761.5</ele><time>2026-04-03T13:57:30Z</time></trkpt><trkpt lat="43.81870474688357" lon="12.363205139435097"><ele>761.0</ele><time>2026-04-03T13:57:31Z</time></trkpt><trkpt lat="43.81855379610226" lon="12.36323444797732"><ele>762.3333333333333</ele><time>2026-04-03T13:57:32Z</time></trkpt><trkpt lat="43.818404805886516" lon="12.363296241803628"><ele>763.6666666666666</ele><time>2026-04-03T13:57:33Z</time></trkpt><trkpt lat="43.818251891841044" lon="12.363330439172246"><ele>765.0</ele><time>2026-04-03T13:57:34Z</time></trkpt><trkpt lat="43.818094384025635" lon="12.363364966004513"><ele>765.0</ele><time>2026-04-03T13:57:35Z</time></trkpt><trkpt lat="43.817933974104605" lon="12.363397326405167"><ele>765.0</ele><time>2026-04-03T13:57:36Z</time></trkpt><trkpt lat="43.81777007480099" lon="12.363423517190554"><ele>765.0</ele><time>2026-04-03T13:57:37Z</time></trkpt><trkpt lat="43.81760696782556" lon="12.363445016520378"><ele>767.0</ele><time>2026-04-03T13:57:38Z</time></trkpt><trkpt lat="43.817458419796985" lon="12.363472275971555"><ele>769.0</ele><time>2026-04-03T13:57:39Z</time></trkpt><trkpt lat="43.81732953827695" lon="12.363517216350827"><ele>771.0</ele><time>2026-04-03T13:57:40Z</time></trkpt><trkpt lat="43.81721510600885" lon="12.36360044509854"><ele>773.0</ele><time>2026-04-03T13:57:41Z</time></trkpt><trkpt lat="43.817114158864015" lon="12.363721816426828"><ele>769.0</ele><time>2026-04-03T13:57:42Z</time></trkpt><trkpt lat="43.817031671442265" lon="12.363865757645376"><ele>765.0</ele><time>2026-04-03T13:57:43Z</time></trkpt><trkpt lat="43.81697079139101" lon="12.364020340652786"><ele>761.0</ele><time>2026-04-03T13:57:44Z</time></trkpt><trkpt lat="43.81694942477845" lon="12.364175448095784"><ele>757.0</ele><time>2026-04-03T13:57:45Z</time></trkpt><trkpt lat="43.81695926841791" lon="12.364344770041855"><ele>757.0</ele><time>2026-04-03T13:57:46Z</time></trkpt><trkpt lat="43.81699121801348" lon="12.364529233212501"><ele>757.0</ele><time>2026-04-03T13:57:47Z</time></trkpt><trkpt lat="43.817039773960495" lon="12.36470998546118"><ele>757.0</ele><time>2026-04-03T13:57:48Z</time></trkpt><trkpt lat="43.81709081318501" lon="12.364867959343377"><ele>757.0</ele><time>2026-04-03T13:57:49Z</time></trkpt><trkpt lat="43.81712905956169" lon="12.365009158396846"><ele>756.4000000000001</ele><time>2026-04-03T13:57:50Z</time></trkpt><trkpt lat="43.817145404162225" lon="12.365144517199067"><ele>755.8000000000001</ele><time>2026-04-03T13:57:51Z</time></trkpt><trkpt lat="43.81711830392008" lon="12.365285019115882"><ele>755.2</ele><time>2026-04-03T13:57:52Z</time></trkpt><trkpt lat="43.817053323404075" lon="12.365409789508615"><ele>754.6</ele><time>2026-04-03T13:57:53Z</time></trkpt><trkpt lat="43.8169532978377" lon="12.36551539455456"><ele>754.0</ele><time>2026-04-03T13:57:54Z</time></trkpt><trkpt lat="43.816839744648505" lon="12.365622098626732"><ele>756.0</ele><time>2026-04-03T13:57:55Z</time></trkpt><trkpt lat="43.81672238315881" lon="12.365736752238732"><ele>758.0</ele><time>2026-04-03T13:57:56Z</time></trkpt><trkpt lat="43.816605939473455" lon="12.365860745048948"><ele>760.0</ele><time>2026-04-03T13:57:57Z</time></trkpt><trkpt lat="43.816502437390604" lon="12.36597984569211"><ele>762.0</ele><time>2026-04-03T13:57:58Z</time></trkpt><trkpt lat="43.81641793045679" lon="12.366120707102239"><ele>762.0</ele><time>2026-04-03T13:57:59Z</time></trkpt><trkpt lat="43.8163448113523" lon="12.366291112070575"><ele>762.0</ele><time>2026-04-03T13:58:00Z</time></trkpt><trkpt lat="43.816271092485536" lon="12.366474800099645"><ele>762.0</ele><time>2026-04-03T13:58:01Z</time></trkpt><trkpt lat="43.816189427974486" lon="12.366659721582893"><ele>761.75</ele><time>2026-04-03T13:58:02Z</time></trkpt><trkpt lat="43.8161107620677" lon="12.366841896919048"><ele>761.5</ele><time>2026-04-03T13:58:03Z</time></trkpt><trkpt lat="43.816031738784694" lon="12.367017449725868"><ele>761.25</ele><time>2026-04-03T13:58:04Z</time></trkpt><trkpt lat="43.81594942697591" lon="12.367183356574872"><ele>761.0</ele><time>2026-04-03T13:58:05Z</time></trkpt><trkpt lat="43.81586451420933" lon="12.36734077353454"><ele>760.25</ele><time>2026-04-03T13:58:06Z</time></trkpt><trkpt lat="43.815779426806415" lon="12.367495767773788"><ele>759.5</ele><time>2026-04-03T13:58:07Z</time></trkpt><trkpt lat="43.81568703003058" lon="12.367650259576692"><ele>758.75</ele><time>2026-04-03T13:58:08Z</time></trkpt><trkpt lat="43.815590634400635" lon="12.367801134198963"><ele>758.0</ele><time>2026-04-03T13:58:09Z</time></trkpt><trkpt lat="43.815485308540644" lon="12.367952322335954"><ele>756.3333333333333</ele><time>2026-04-03T13:58:10Z</time></trkpt><trkpt lat="43.81537461229778" lon="12.368104665577553"><ele>754.6666666666666</ele><time>2026-04-03T13:58:11Z</time></trkpt><trkpt lat="43.815264474045854" lon="12.36826031940113"><ele>753.0</ele><time>2026-04-03T13:58:12Z</time></trkpt><trkpt lat="43.81515594827137" lon="12.368412036201844"><ele>753.25</ele><time>2026-04-03T13:58:13Z</time></trkpt><trkpt lat="43.815051746136575" lon="12.368562174731085"><ele>753.5</ele><time>2026-04-03T13:58:14Z</time></trkpt><trkpt lat="43.81495790446893" lon="12.36871535862497"><ele>753.75</ele><time>2026-04-03T13:58:15Z</time></trkpt><trkpt lat="43.814869169613566" lon="12.368883593088816"><ele>754.0</ele><time>2026-04-03T13:58:16Z</time></trkpt><trkpt lat="43.81478445845358" lon="12.369060871775456"><ele>752.3333333333334</ele><time>2026-04-03T13:58:17Z</time></trkpt><trkpt lat="43.81469707398013" lon="12.36924272930762"><ele>750.6666666666666</ele><time>2026-04-03T13:58:18Z</time></trkpt><trkpt lat="43.81460041291659" lon="12.369420155580345"><ele>749.0</ele><time>2026-04-03T13:58:19Z</time></trkpt><trkpt lat="43.814493309295884" lon="12.36959365126997"><ele>748.75</ele><time>2026-04-03T13:58:20Z</time></trkpt><trkpt lat="43.814381048581026" lon="12.369752092304"><ele>748.5</ele><time>2026-04-03T13:58:21Z</time></trkpt><trkpt lat="43.81427059658746" lon="12.369874777434513"><ele>748.25</ele><time>2026-04-03T13:58:22Z</time></trkpt><trkpt lat="43.814142274640076" lon="12.369935586168692"><ele>748.0</ele><time>2026-04-03T13:58:23Z</time></trkpt><trkpt lat="43.81400551463187" lon="12.369961883396808"><ele>748.0</ele><time>2026-04-03T13:58:24Z</time></trkpt><trkpt lat="43.81386252295128" lon="12.36997587767454"><ele>748.0</ele><time>2026-04-03T13:58:25Z</time></trkpt><trkpt lat="43.81373422162601" lon="12.369982450347084"><ele>748.0</ele><time>2026-04-03T13:58:26Z</time></trkpt><trkpt lat="43.81362106157563" lon="12.37000721716271"><ele>748.0</ele><time>2026-04-03T13:58:26.999Z</time></trkpt><trkpt lat="43.813512885417474" lon="12.370079711045022"><ele>746.25</ele><time>2026-04-03T13:58:27.999Z</time></trkpt><trkpt lat="43.81343155475212" lon="12.370208164005989"><ele>744.5</ele><time>2026-04-03T13:58:28.999Z</time></trkpt><trkpt lat="43.81339230179855" lon="12.37038695516728"><ele>742.75</ele><time>2026-04-03T13:58:29.999Z</time></trkpt><trkpt lat="43.8133472378989" lon="12.370565631729987"><ele>741.0</ele><time>2026-04-03T13:58:30.999Z</time></trkpt><trkpt lat="43.81331281066999" lon="12.370756482721719"><ele>740.6666666666666</ele><time>2026-04-03T13:58:31.999Z</time></trkpt><trkpt lat="43.81330700623764" lon="12.37096205881257"><ele>740.3333333333333</ele><time>2026-04-03T13:58:32.999Z</time></trkpt><trkpt lat="43.813324823137336" lon="12.371180241827853"><ele>740.0</ele><time>2026-04-03T13:58:33.999Z</time></trkpt><trkpt lat="43.81335235460494" lon="12.371403593626587"><ele>739.5</ele><time>2026-04-03T13:58:34.999Z</time></trkpt><trkpt lat="43.813378801559935" lon="12.371613821249893"><ele>739.0</ele><time>2026-04-03T13:58:35.999Z</time></trkpt><trkpt lat="43.813403184858544" lon="12.371810009125898"><ele>738.5</ele><time>2026-04-03T13:58:36.999Z</time></trkpt><trkpt lat="43.813423693219775" lon="12.371984602391533"><ele>738.0</ele><time>2026-04-03T13:58:37.999Z</time></trkpt><trkpt lat="43.813442666403176" lon="12.37213739939121"><ele>738.0</ele><time>2026-04-03T13:58:38.999Z</time></trkpt><trkpt lat="43.813455848067946" lon="12.372259897760932"><ele>738.0</ele><time>2026-04-03T13:58:39.999Z</time></trkpt><trkpt lat="43.81345047018928" lon="12.372351803538663"><ele>738.0</ele><time>2026-04-03T13:58:40.999Z</time></trkpt><trkpt lat="43.81335955644419" lon="12.37245407749244"><ele>738.0</ele><time>2026-04-03T13:58:42.999Z</time></trkpt><trkpt lat="43.81329695161797" lon="12.372427890110735"><ele>738.0</ele><time>2026-04-03T13:58:43.999Z</time></trkpt><trkpt lat="43.81325564935312" lon="12.372342085531999"><ele>738.0</ele><time>2026-04-03T13:58:44.999Z</time></trkpt><trkpt lat="43.81322973980804" lon="12.372218612695535"><ele>738.0</ele><time>2026-04-03T13:58:45.999Z</time></trkpt><trkpt lat="43.8131938716979" lon="12.372088696035336"><ele>738.0</ele><time>2026-04-03T13:58:46.999Z</time></trkpt><trkpt lat="43.81315180549765" lon="12.371938275303592"><ele>738.0</ele><time>2026-04-03T13:58:47.999Z</time></trkpt><trkpt lat="43.813109637936186" lon="12.371775286295554"><ele>738.0</ele><time>2026-04-03T13:58:48.999Z</time></trkpt><trkpt lat="43.81307251916494" lon="12.371624501839"><ele>738.0</ele><time>2026-04-03T13:58:49.999Z</time></trkpt><trkpt lat="43.81303296634344" lon="12.371475148696621"><ele>738.0</ele><time>2026-04-03T13:58:50.999Z</time></trkpt><trkpt lat="43.81299464709714" lon="12.371324064239142"><ele>738.0</ele><time>2026-04-03T13:58:51.999Z</time></trkpt><trkpt lat="43.812958464087544" lon="12.371172320601392"><ele>738.0</ele><time>2026-04-03T13:58:52.999Z</time></trkpt><trkpt lat="43.81292876944916" lon="12.371017735211575"><ele>738.5</ele><time>2026-04-03T13:58:53.999Z</time></trkpt><trkpt lat="43.81289113841871" lon="12.37086667724752"><ele>739.0</ele><time>2026-04-03T13:58:54.999Z</time></trkpt><trkpt lat="43.812850129464096" lon="12.370714536895315"><ele>739.5</ele><time>2026-04-03T13:58:55.999Z</time></trkpt><trkpt lat="43.812806820327154" lon="12.370567452082025"><ele>740.0</ele><time>2026-04-03T13:58:56.999Z</time></trkpt><trkpt lat="43.81272699738959" lon="12.370442313220343"><ele>736.25</ele><time>2026-04-03T13:58:57.999Z</time></trkpt><trkpt lat="43.81263106794905" lon="12.370306556989494"><ele>732.5</ele><time>2026-04-03T13:58:58.999Z</time></trkpt><trkpt lat="43.812518351547446" lon="12.37018260034696"><ele>728.75</ele><time>2026-04-03T13:58:59.999Z</time></trkpt><trkpt lat="43.81241404557787" lon="12.37006430509275"><ele>725.0</ele><time>2026-04-03T13:59:00.999Z</time></trkpt><trkpt lat="43.81232575570204" lon="12.369973411645558"><ele>725.0</ele><time>2026-04-03T13:59:01.999Z</time></trkpt><trkpt lat="43.81229309069946" lon="12.369851810664402"><ele>725.0</ele><time>2026-04-03T13:59:02.999Z</time></trkpt><trkpt lat="43.81229260422153" lon="12.369718625659544"><ele>725.0</ele><time>2026-04-03T13:59:03.999Z</time></trkpt><trkpt lat="43.81233898553563" lon="12.369592268343188"><ele>725.0</ele><time>2026-04-03T13:59:04.999Z</time></trkpt><trkpt lat="43.81242216401051" lon="12.369457456434883"><ele>725.0</ele><time>2026-04-03T13:59:05.999Z</time></trkpt><trkpt lat="43.81251566923275" lon="12.36929806766473"><ele>725.3333333333333</ele><time>2026-04-03T13:59:06.999Z</time></trkpt><trkpt lat="43.812611439984394" lon="12.369114254492299"><ele>725.6666666666666</ele><time>2026-04-03T13:59:07.999Z</time></trkpt><trkpt lat="43.81269016248594" lon="12.368937710609815"><ele>726.0</ele><time>2026-04-03T13:59:08.999Z</time></trkpt><trkpt lat="43.8127394539776" lon="12.368758126681465"><ele>726.0</ele><time>2026-04-03T13:59:09.999Z</time></trkpt><trkpt lat="43.81275656716693" lon="12.368557493916562"><ele>726.0</ele><time>2026-04-03T13:59:10.999Z</time></trkpt><trkpt lat="43.81275701003188" lon="12.368337481213953"><ele>726.0</ele><time>2026-04-03T13:59:11.999Z</time></trkpt><trkpt lat="43.812767592499235" lon="12.368113427428408"><ele>723.3333333333334</ele><time>2026-04-03T13:59:12.999Z</time></trkpt><trkpt lat="43.81280688930355" lon="12.367895588581698"><ele>720.6666666666667</ele><time>2026-04-03T13:59:13.999Z</time></trkpt><trkpt lat="43.81285867926132" lon="12.367667201338309"><ele>718.0</ele><time>2026-04-03T13:59:14.999Z</time></trkpt><trkpt lat="43.81291975881664" lon="12.36743633014696"><ele>718.0</ele><time>2026-04-03T13:59:15.999Z</time></trkpt><trkpt lat="43.812993138885396" lon="12.36721145855623"><ele>718.0</ele><time>2026-04-03T13:59:16.999Z</time></trkpt><trkpt lat="43.81308021791854" lon="12.36700715354402"><ele>718.0</ele><time>2026-04-03T13:59:17.999Z</time></trkpt><trkpt lat="43.81317063929833" lon="12.366824670958184"><ele>716.75</ele><time>2026-04-03T13:59:18.999Z</time></trkpt><trkpt lat="43.81325409065958" lon="12.36666475774419"><ele>715.5</ele><time>2026-04-03T13:59:19.999Z</time></trkpt><trkpt lat="43.8133231739331" lon="12.366518457138707"><ele>714.25</ele><time>2026-04-03T13:59:20.999Z</time></trkpt><trkpt lat="43.81335393668194" lon="12.366347427190146"><ele>713.0</ele><time>2026-04-03T13:59:21.999Z</time></trkpt><trkpt lat="43.81333841442744" lon="12.366172711936562"><ele>713.0</ele><time>2026-04-03T13:59:23Z</time></trkpt><trkpt lat="43.81327941571566" lon="12.366016154590323"><ele>713.0</ele><time>2026-04-03T13:59:24Z</time></trkpt><trkpt lat="43.813207243224284" lon="12.365862986867787"><ele>713.0</ele><time>2026-04-03T13:59:25Z</time></trkpt><trkpt lat="43.81307598935593" lon="12.3657654901275"><ele>713.0</ele><time>2026-04-03T13:59:26Z</time></trkpt><trkpt lat="43.81293290969901" lon="12.36569356946447"><ele>713.0</ele><time>2026-04-03T13:59:27Z</time></trkpt><trkpt lat="43.81278375347965" lon="12.365618881430013"><ele>713.0</ele><time>2026-04-03T13:59:28Z</time></trkpt><trkpt lat="43.812634877238835" lon="12.365540267073905"><ele>713.0</ele><time>2026-04-03T13:59:29Z</time></trkpt><trkpt lat="43.812512899488866" lon="12.36546892129303"><ele>711.5</ele><time>2026-04-03T13:59:30Z</time></trkpt><trkpt lat="43.812406314832266" lon="12.365390156598822"><ele>710.0</ele><time>2026-04-03T13:59:31Z</time></trkpt><trkpt lat="43.81229574227511" lon="12.36527268041739"><ele>708.5</ele><time>2026-04-03T13:59:32Z</time></trkpt><trkpt lat="43.812170868256295" lon="12.365127000227991"><ele>707.0</ele><time>2026-04-03T13:59:33Z</time></trkpt><trkpt lat="43.812042296548604" lon="12.364974077332013"><ele>707.0</ele><time>2026-04-03T13:59:34Z</time></trkpt><trkpt lat="43.811919518390845" lon="12.364825620969416"><ele>707.0</ele><time>2026-04-03T13:59:35Z</time></trkpt><trkpt lat="43.81179936213605" lon="12.364686383231998"><ele>707.0</ele><time>2026-04-03T13:59:36Z</time></trkpt><trkpt lat="43.81167111353563" lon="12.364579287731992"><ele>705.6666666666666</ele><time>2026-04-03T13:59:37Z</time></trkpt><trkpt lat="43.81153969544965" lon="12.364487625588756"><ele>704.3333333333334</ele><time>2026-04-03T13:59:38Z</time></trkpt><trkpt lat="43.81137874098898" lon="12.364444651500177"><ele>703.0</ele><time>2026-04-03T13:59:39Z</time></trkpt><trkpt lat="43.81119680845309" lon="12.364405514957037"><ele>703.0</ele><time>2026-04-03T13:59:40Z</time></trkpt><trkpt lat="43.811015566810696" lon="12.364380923793169"><ele>703.0</ele><time>2026-04-03T13:59:41Z</time></trkpt><trkpt lat="43.81083469121734" lon="12.36435337830207"><ele>703.0</ele><time>2026-04-03T13:59:42Z</time></trkpt><trkpt lat="43.81066178846654" lon="12.364328145484796"><ele>698.6666666666667</ele><time>2026-04-03T13:59:43Z</time></trkpt><trkpt lat="43.81049992558604" lon="12.36431078473265"><ele>694.3333333333334</ele><time>2026-04-03T13:59:44Z</time></trkpt><trkpt lat="43.81035049435739" lon="12.364328914833392"><ele>690.0</ele><time>2026-04-03T13:59:45Z</time></trkpt><trkpt lat="43.81022089629709" lon="12.36443856451588"><ele>690.75</ele><time>2026-04-03T13:59:46Z</time></trkpt><trkpt lat="43.810087946099685" lon="12.364528895128547"><ele>691.5</ele><time>2026-04-03T13:59:47Z</time></trkpt><trkpt lat="43.80996602794767" lon="12.364647858704108"><ele>692.25</ele><time>2026-04-03T13:59:48Z</time></trkpt><trkpt lat="43.80985437728502" lon="12.36475308413296"><ele>693.0</ele><time>2026-04-03T13:59:49Z</time></trkpt><trkpt lat="43.80973685194006" lon="12.364832205470778"><ele>691.0</ele><time>2026-04-03T13:59:50Z</time></trkpt><trkpt lat="43.80960535587184" lon="12.364871561248963"><ele>689.0</ele><time>2026-04-03T13:59:51Z</time></trkpt><trkpt lat="43.8094561269006" lon="12.364907722304515"><ele>687.0</ele><time>2026-04-03T13:59:52Z</time></trkpt><trkpt lat="43.809304373428645" lon="12.364926032074992"><ele>685.0</ele><time>2026-04-03T13:59:53Z</time></trkpt><trkpt lat="43.80914400617165" lon="12.364944564581878"><ele>683.3333333333334</ele><time>2026-04-03T13:59:54Z</time></trkpt><trkpt lat="43.808979056750864" lon="12.364964911788109"><ele>681.6666666666666</ele><time>2026-04-03T13:59:55Z</time></trkpt><trkpt lat="43.80881605926317" lon="12.36498609228515"><ele>680.0</ele><time>2026-04-03T13:59:56Z</time></trkpt><trkpt lat="43.80865211601765" lon="12.365026250244423"><ele>680.0</ele><time>2026-04-03T13:59:57Z</time></trkpt><trkpt lat="43.80849536790381" lon="12.365102244397841"><ele>680.0</ele><time>2026-04-03T13:59:58Z</time></trkpt><trkpt lat="43.808351028135505" lon="12.365233849425882"><ele>680.0</ele><time>2026-04-03T13:59:59Z</time></trkpt><trkpt lat="43.80820028136643" lon="12.365358025840806"><ele>679.6666666666666</ele><time>2026-04-03T14:00:00Z</time></trkpt><trkpt lat="43.80806846767839" lon="12.365493880955249"><ele>679.3333333333334</ele><time>2026-04-03T14:00:01Z</time></trkpt><trkpt lat="43.80794569726296" lon="12.365615136024266"><ele>679.0</ele><time>2026-04-03T14:00:02Z</time></trkpt><trkpt lat="43.80782748777328" lon="12.365717564393835"><ele>678.75</ele><time>2026-04-03T14:00:03Z</time></trkpt><trkpt lat="43.8077189189782" lon="12.365816846825668"><ele>678.5</ele><time>2026-04-03T14:00:04Z</time></trkpt><trkpt lat="43.80758088274396" lon="12.365820218714738"><ele>678.25</ele><time>2026-04-03T14:00:05Z</time></trkpt><trkpt lat="43.807432927736464" lon="12.365816535057279"><ele>678.0</ele><time>2026-04-03T14:00:06Z</time></trkpt><trkpt lat="43.80726847540189" lon="12.365774601435216"><ele>678.0</ele><time>2026-04-03T14:00:07Z</time></trkpt><trkpt lat="43.807094670775854" lon="12.365725362504543"><ele>678.0</ele><time>2026-04-03T14:00:08Z</time></trkpt><trkpt lat="43.80692694337739" lon="12.365677672406813"><ele>678.0</ele><time>2026-04-03T14:00:09Z</time></trkpt><trkpt lat="43.806779172614334" lon="12.365621196065447"><ele>678.6666666666666</ele><time>2026-04-03T14:00:10Z</time></trkpt><trkpt lat="43.80665276953891" lon="12.365504262824091"><ele>679.3333333333333</ele><time>2026-04-03T14:00:11Z</time></trkpt><trkpt lat="43.80652907763167" lon="12.365354271851247"><ele>680.0</ele><time>2026-04-03T14:00:12Z</time></trkpt><trkpt lat="43.806405406642604" lon="12.365193889658796"><ele>680.0</ele><time>2026-04-03T14:00:13Z</time></trkpt><trkpt lat="43.806282520926864" lon="12.365032727143706"><ele>680.0</ele><time>2026-04-03T14:00:14Z</time></trkpt><trkpt lat="43.806161668509915" lon="12.364877642332434"><ele>680.0</ele><time>2026-04-03T14:00:15Z</time></trkpt><trkpt lat="43.80603274960789" lon="12.36473206196248"><ele>680.6666666666666</ele><time>2026-04-03T14:00:16Z</time></trkpt><trkpt lat="43.80587889114158" lon="12.364624261586044"><ele>681.3333333333334</ele><time>2026-04-03T14:00:17Z</time></trkpt><trkpt lat="43.80571660267732" lon="12.364542779496036"><ele>682.0</ele><time>2026-04-03T14:00:18Z</time></trkpt><trkpt lat="43.80555406357041" lon="12.364462104329316"><ele>682.0</ele><time>2026-04-03T14:00:19Z</time></trkpt><trkpt lat="43.80539051363726" lon="12.364390709500416"><ele>682.0</ele><time>2026-04-03T14:00:20Z</time></trkpt><trkpt lat="43.805221060947424" lon="12.364363342102772"><ele>682.0</ele><time>2026-04-03T14:00:21Z</time></trkpt><trkpt lat="43.805044604536945" lon="12.364386031721219"><ele>681.6666666666667</ele><time>2026-04-03T14:00:22Z</time></trkpt><trkpt lat="43.80487461936103" lon="12.364415596206639"><ele>681.3333333333334</ele><time>2026-04-03T14:00:23Z</time></trkpt><trkpt lat="43.80470512739079" lon="12.364441461814678"><ele>681.0</ele><time>2026-04-03T14:00:24Z</time></trkpt><trkpt lat="43.804537661409405" lon="12.364464114682391"><ele>681.0</ele><time>2026-04-03T14:00:25Z</time></trkpt><trkpt lat="43.80437211683343" lon="12.364482828426132"><ele>681.0</ele><time>2026-04-03T14:00:26Z</time></trkpt><trkpt lat="43.80421541664032" lon="12.36450054413524"><ele>681.0</ele><time>2026-04-03T14:00:27Z</time></trkpt><trkpt lat="43.80406848338393" lon="12.364516626443642"><ele>681.25</ele><time>2026-04-03T14:00:27.999Z</time></trkpt><trkpt lat="43.80392920110344" lon="12.364531585473202"><ele>681.5</ele><time>2026-04-03T14:00:28.999Z</time></trkpt><trkpt lat="43.80379977923906" lon="12.364545485517649"><ele>681.75</ele><time>2026-04-03T14:00:29.999Z</time></trkpt><trkpt lat="43.80367583634877" lon="12.364558797094249"><ele>682.0</ele><time>2026-04-03T14:00:30.999Z</time></trkpt><trkpt lat="43.80355879600533" lon="12.36457033931066"><ele>681.25</ele><time>2026-04-03T14:00:31.999Z</time></trkpt><trkpt lat="43.80344405080421" lon="12.364586782941194"><ele>680.5</ele><time>2026-04-03T14:00:32.999Z</time></trkpt><trkpt lat="43.80333308723567" lon="12.364641801357228"><ele>679.75</ele><time>2026-04-03T14:00:33.999Z</time></trkpt><trkpt lat="43.80324862885378" lon="12.364772545941634"><ele>679.0</ele><time>2026-04-03T14:00:34.999Z</time></trkpt><trkpt lat="43.80317186756176" lon="12.36489381966653"><ele>677.8333333333334</ele><time>2026-04-03T14:00:35.999Z</time></trkpt><trkpt lat="43.8031095179706" lon="12.3650125533426"><ele>676.6666666666667</ele><time>2026-04-03T14:00:36.999Z</time></trkpt><trkpt lat="43.80305239129954" lon="12.365128707964029"><ele>675.5</ele><time>2026-04-03T14:00:37.999Z</time></trkpt><trkpt lat="43.8029950166892" lon="12.36522708063198"><ele>674.3333333333334</ele><time>2026-04-03T14:00:38.999Z</time></trkpt><trkpt lat="43.80294226530437" lon="12.36528376672518"><ele>673.1666666666666</ele><time>2026-04-03T14:00:39.999Z</time></trkpt><trkpt lat="43.80286783662267" lon="12.365312189459742"><ele>672.0</ele><time>2026-04-03T14:00:41.999Z</time></trkpt><trkpt lat="43.80282619522957" lon="12.365211530866027"><ele>672.0</ele><time>2026-04-03T14:00:42.999Z</time></trkpt><trkpt lat="43.802760882929775" lon="12.36512262647629"><ele>672.0</ele><time>2026-04-03T14:00:43.999Z</time></trkpt><trkpt lat="43.802686365981074" lon="12.365025602757513"><ele>672.0</ele><time>2026-04-03T14:00:44.999Z</time></trkpt><trkpt lat="43.802596810003735" lon="12.36491491719973"><ele>672.0</ele><time>2026-04-03T14:00:45.999Z</time></trkpt><trkpt lat="43.80250155361817" lon="12.364805168791458"><ele>672.0</ele><time>2026-04-03T14:00:46.999Z</time></trkpt><trkpt lat="43.80241478072859" lon="12.36470217826549"><ele>674.0</ele><time>2026-04-03T14:00:47.999Z</time></trkpt><trkpt lat="43.80232677421172" lon="12.364591432391158"><ele>676.0</ele><time>2026-04-03T14:00:48.999Z</time></trkpt><trkpt lat="43.802241592389805" lon="12.364475748433563"><ele>678.0</ele><time>2026-04-03T14:00:49.999Z</time></trkpt><trkpt lat="43.80216174016105" lon="12.364352014263499"><ele>680.0</ele><time>2026-04-03T14:00:50.999Z</time></trkpt><trkpt lat="43.802085318029455" lon="12.364218718184958"><ele>680.0</ele><time>2026-04-03T14:00:51.999Z</time></trkpt><trkpt lat="43.80201491080191" lon="12.364070022074147"><ele>680.0</ele><time>2026-04-03T14:00:52.999Z</time></trkpt><trkpt lat="43.801949267467855" lon="12.363909652957965"><ele>680.0</ele><time>2026-04-03T14:00:53.999Z</time></trkpt><trkpt lat="43.80188295839045" lon="12.363746056342654"><ele>680.0</ele><time>2026-04-03T14:00:54.999Z</time></trkpt><trkpt lat="43.80181316828286" lon="12.363586351583054"><ele>681.5</ele><time>2026-04-03T14:00:55.999Z</time></trkpt><trkpt lat="43.801729834394855" lon="12.36346880385156"><ele>683.0</ele><time>2026-04-03T14:00:56.999Z</time></trkpt><trkpt lat="43.80166900881723" lon="12.363345151539036"><ele>684.5</ele><time>2026-04-03T14:00:57.999Z</time></trkpt><trkpt lat="43.80156166320214" lon="12.36325214234783"><ele>686.0</ele><time>2026-04-03T14:00:58.999Z</time></trkpt><trkpt lat="43.801443344415496" lon="12.363180457705543"><ele>686.0</ele><time>2026-04-03T14:00:59.999Z</time></trkpt><trkpt lat="43.80131212579112" lon="12.363138053725095"><ele>686.0</ele><time>2026-04-03T14:01:00.999Z</time></trkpt><trkpt lat="43.801185817442466" lon="12.363063959153747"><ele>686.0</ele><time>2026-04-03T14:01:01.999Z</time></trkpt><trkpt lat="43.8010510064276" lon="12.36299384562452"><ele>686.0</ele><time>2026-04-03T14:01:02.999Z</time></trkpt><trkpt lat="43.800914521553864" lon="12.362919332797077"><ele>687.6666666666666</ele><time>2026-04-03T14:01:03.999Z</time></trkpt><trkpt lat="43.800789645290806" lon="12.362801538357218"><ele>689.3333333333334</ele><time>2026-04-03T14:01:04.999Z</time></trkpt><trkpt lat="43.80065141970547" lon="12.362722272240658"><ele>691.0</ele><time>2026-04-03T14:01:05.999Z</time></trkpt><trkpt lat="43.80051356082916" lon="12.362643717136246"><ele>691.0</ele><time>2026-04-03T14:01:06.999Z</time></trkpt><trkpt lat="43.80038257888292" lon="12.362569797782367"><ele>691.0</ele><time>2026-04-03T14:01:07.999Z</time></trkpt><trkpt lat="43.800254617064255" lon="12.362497733452837"><ele>691.0</ele><time>2026-04-03T14:01:08.999Z</time></trkpt><trkpt lat="43.800124972032485" lon="12.362424857349511"><ele>691.0</ele><time>2026-04-03T14:01:09.999Z</time></trkpt><trkpt lat="43.7999943415762" lon="12.36235055218821"><ele>691.75</ele><time>2026-04-03T14:01:10.999Z</time></trkpt><trkpt lat="43.799867496548366" lon="12.362275542637894"><ele>692.5</ele><time>2026-04-03T14:01:11.999Z</time></trkpt><trkpt lat="43.79974269172928" lon="12.362205422488994"><ele>693.25</ele><time>2026-04-03T14:01:12.999Z</time></trkpt><trkpt lat="43.79963397052448" lon="12.362152346905612"><ele>694.0</ele><time>2026-04-03T14:01:13.999Z</time></trkpt><trkpt lat="43.799534804309204" lon="12.362123770661746"><ele>695.5</ele><time>2026-04-03T14:01:14.999Z</time></trkpt><trkpt lat="43.79942613366466" lon="12.362158175589181"><ele>697.0</ele><time>2026-04-03T14:01:15.999Z</time></trkpt><trkpt lat="43.79932886813774" lon="12.362233308889369"><ele>698.5</ele><time>2026-04-03T14:01:16.999Z</time></trkpt><trkpt lat="43.79925156829711" lon="12.362365678490725"><ele>700.0</ele><time>2026-04-03T14:01:17.999Z</time></trkpt><trkpt lat="43.79917487380086" lon="12.362510003705788"><ele>700.75</ele><time>2026-04-03T14:01:18.999Z</time></trkpt><trkpt lat="43.799099184069576" lon="12.362673585640222"><ele>701.5</ele><time>2026-04-03T14:01:19.999Z</time></trkpt><trkpt lat="43.79898828450538" lon="12.362808633867473"><ele>702.25</ele><time>2026-04-03T14:01:20.999Z</time></trkpt><trkpt lat="43.79887071543804" lon="12.362934591603866"><ele>703.0</ele><time>2026-04-03T14:01:21.999Z</time></trkpt><trkpt lat="43.79874398673287" lon="12.36304051340624"><ele>701.8</ele><time>2026-04-03T14:01:22.999Z</time></trkpt><trkpt lat="43.79863254814185" lon="12.363120103330841"><ele>700.5999999999999</ele><time>2026-04-03T14:01:23.999Z</time></trkpt><trkpt lat="43.798529089325115" lon="12.36316712010928"><ele>699.4000000000001</ele><time>2026-04-03T14:01:24.999Z</time></trkpt><trkpt lat="43.79842672744226" lon="12.363181567322806"><ele>698.2</ele><time>2026-04-03T14:01:25.999Z</time></trkpt><trkpt lat="43.79832004785538" lon="12.363189322452786"><ele>697.0</ele><time>2026-04-03T14:01:26.999Z</time></trkpt><trkpt lat="43.79821857606378" lon="12.363199679039596"><ele>700.75</ele><time>2026-04-03T14:01:27.999Z</time></trkpt><trkpt lat="43.79812101864779" lon="12.363246337609521"><ele>704.5</ele><time>2026-04-03T14:01:29Z</time></trkpt><trkpt lat="43.798004459315145" lon="12.36329314011553"><ele>708.25</ele><time>2026-04-03T14:01:30Z</time></trkpt><trkpt lat="43.79787029936061" lon="12.363333102153927"><ele>712.0</ele><time>2026-04-03T14:01:31Z</time></trkpt><trkpt lat="43.797730660303245" lon="12.363403309503505"><ele>714.0</ele><time>2026-04-03T14:01:32Z</time></trkpt><trkpt lat="43.79758414059631" lon="12.363478821557196"><ele>716.0</ele><time>2026-04-03T14:01:33Z</time></trkpt><trkpt lat="43.797442096237745" lon="12.363558798840495"><ele>718.0</ele><time>2026-04-03T14:01:34Z</time></trkpt><trkpt lat="43.79733201688728" lon="12.363662502391945"><ele>720.0</ele><time>2026-04-03T14:01:35Z</time></trkpt><trkpt lat="43.79724263898696" lon="12.36378634469487"><ele>718.5</ele><time>2026-04-03T14:01:36Z</time></trkpt><trkpt lat="43.79717166193315" lon="12.363937555641645"><ele>717.0</ele><time>2026-04-03T14:01:37Z</time></trkpt><trkpt lat="43.797127754810695" lon="12.36411552399437"><ele>715.5</ele><time>2026-04-03T14:01:38Z</time></trkpt><trkpt lat="43.79711264974327" lon="12.36430675319255"><ele>714.0</ele><time>2026-04-03T14:01:39Z</time></trkpt><trkpt lat="43.79713279732087" lon="12.36450712861591"><ele>714.25</ele><time>2026-04-03T14:01:40Z</time></trkpt><trkpt lat="43.79717034133319" lon="12.364700243095912"><ele>714.5</ele><time>2026-04-03T14:01:41Z</time></trkpt><trkpt lat="43.79718268822761" lon="12.364862305885293"><ele>714.75</ele><time>2026-04-03T14:01:42Z</time></trkpt><trkpt lat="43.79716723520843" lon="12.365028212267138"><ele>715.0</ele><time>2026-04-03T14:01:43Z</time></trkpt><trkpt lat="43.797107076538346" lon="12.365200630779956"><ele>715.0</ele><time>2026-04-03T14:01:44Z</time></trkpt><trkpt lat="43.79706594269011" lon="12.365401858478979"><ele>715.0</ele><time>2026-04-03T14:01:45Z</time></trkpt><trkpt lat="43.79699095485464" lon="12.365601234366078"><ele>715.0</ele><time>2026-04-03T14:01:46Z</time></trkpt><trkpt lat="43.7969249337029" lon="12.365813354171793"><ele>714.25</ele><time>2026-04-03T14:01:47Z</time></trkpt><trkpt lat="43.79686565342659" lon="12.36600329116978"><ele>713.5</ele><time>2026-04-03T14:01:48Z</time></trkpt><trkpt lat="43.796807353228985" lon="12.366176179588972"><ele>712.75</ele><time>2026-04-03T14:01:49Z</time></trkpt><trkpt lat="43.796756595413854" lon="12.36631452271779"><ele>712.0</ele><time>2026-04-03T14:01:50Z</time></trkpt><trkpt lat="43.796675672738935" lon="12.36638384898242"><ele>714.5</ele><time>2026-04-03T14:01:51Z</time></trkpt><trkpt lat="43.7965785920705" lon="12.366399861360348"><ele>717.0</ele><time>2026-04-03T14:01:52Z</time></trkpt><trkpt lat="43.79647579363763" lon="12.366354805892524"><ele>719.5</ele><time>2026-04-03T14:01:53Z</time></trkpt><trkpt lat="43.79639533245839" lon="12.3662348337432"><ele>722.0</ele><time>2026-04-03T14:01:54Z</time></trkpt><trkpt lat="43.79629936850476" lon="12.366096117181678"><ele>723.6666666666666</ele><time>2026-04-03T14:01:55Z</time></trkpt><trkpt lat="43.79619068732592" lon="12.365935679401664"><ele>725.3333333333334</ele><time>2026-04-03T14:01:56Z</time></trkpt><trkpt lat="43.79608066071446" lon="12.365779303482737"><ele>727.0</ele><time>2026-04-03T14:01:57Z</time></trkpt><trkpt lat="43.79595427422364" lon="12.365653747285707"><ele>730.0</ele><time>2026-04-03T14:01:58Z</time></trkpt><trkpt lat="43.795826362409535" lon="12.365525946995147"><ele>733.0</ele><time>2026-04-03T14:01:59Z</time></trkpt><trkpt lat="43.79568937407414" lon="12.365407886937927"><ele>736.0</ele><time>2026-04-03T14:02:00Z</time></trkpt><trkpt lat="43.795534834411896" lon="12.365324758168258"><ele>736.0</ele><time>2026-04-03T14:02:01Z</time></trkpt><trkpt lat="43.79536410137041" lon="12.365281407980216"><ele>736.0</ele><time>2026-04-03T14:02:02Z</time></trkpt><trkpt lat="43.7951993493356" lon="12.365191119773788"><ele>736.0</ele><time>2026-04-03T14:02:03Z</time></trkpt><trkpt lat="43.795030799460555" lon="12.36510243032227"><ele>734.3333333333334</ele><time>2026-04-03T14:02:04Z</time></trkpt><trkpt lat="43.794859581135725" lon="12.365012558937316"><ele>732.6666666666666</ele><time>2026-04-03T14:02:05Z</time></trkpt><trkpt lat="43.794694326170436" lon="12.364897090025504"><ele>731.0</ele><time>2026-04-03T14:02:06Z</time></trkpt><trkpt lat="43.79452592814731" lon="12.364844936265918"><ele>731.0</ele><time>2026-04-03T14:02:07Z</time></trkpt><trkpt lat="43.79436590053313" lon="12.364818733174102"><ele>731.0</ele><time>2026-04-03T14:02:08Z</time></trkpt><trkpt lat="43.79420065412736" lon="12.364809716465498"><ele>731.0</ele><time>2026-04-03T14:02:09Z</time></trkpt><trkpt lat="43.794031757346666" lon="12.364831709040814"><ele>730.3333333333333</ele><time>2026-04-03T14:02:10Z</time></trkpt><trkpt lat="43.79387033683623" lon="12.364893865864664"><ele>729.6666666666666</ele><time>2026-04-03T14:02:11Z</time></trkpt><trkpt lat="43.79371378231393" lon="12.364962699705044"><ele>729.0</ele><time>2026-04-03T14:02:12Z</time></trkpt><trkpt lat="43.7935582614821" lon="12.365031079077115"><ele>731.6666666666666</ele><time>2026-04-03T14:02:13Z</time></trkpt><trkpt lat="43.793403873801914" lon="12.365097845163907"><ele>734.3333333333333</ele><time>2026-04-03T14:02:14Z</time></trkpt><trkpt lat="43.793255495389005" lon="12.365156999176433"><ele>737.0</ele><time>2026-04-03T14:02:15Z</time></trkpt><trkpt lat="43.79312711860598" lon="12.365209875897376"><ele>737.0</ele><time>2026-04-03T14:02:16Z</time></trkpt><trkpt lat="43.79299997898766" lon="12.365270475233983"><ele>737.0</ele><time>2026-04-03T14:02:17Z</time></trkpt><trkpt lat="43.792893184867836" lon="12.365416253569547"><ele>737.0</ele><time>2026-04-03T14:02:18Z</time></trkpt><trkpt lat="43.792788958507025" lon="12.3655624269826"><ele>737.0</ele><time>2026-04-03T14:02:19Z</time></trkpt><trkpt lat="43.79269549734902" lon="12.365729863314904"><ele>740.0</ele><time>2026-04-03T14:02:20Z</time></trkpt><trkpt lat="43.79258364453423" lon="12.365883617417703"><ele>743.0</ele><time>2026-04-03T14:02:21Z</time></trkpt><trkpt lat="43.792486909815175" lon="12.366053233924442"><ele>746.0</ele><time>2026-04-03T14:02:22Z</time></trkpt><trkpt lat="43.79238886092218" lon="12.366225296829729"><ele>744.4</ele><time>2026-04-03T14:02:23Z</time></trkpt><trkpt lat="43.79229409566027" lon="12.366375700076519"><ele>742.8</ele><time>2026-04-03T14:02:23.999Z</time></trkpt><trkpt lat="43.792219562520444" lon="12.366469987788438"><ele>741.1999999999999</ele><time>2026-04-03T14:02:24.999Z</time></trkpt><trkpt lat="43.79212975923898" lon="12.366511791344307"><ele>739.5999999999999</ele><time>2026-04-03T14:02:25.999Z</time></trkpt><trkpt lat="43.792044874771356" lon="12.366522772644293"><ele>738.0</ele><time>2026-04-03T14:02:26.999Z</time></trkpt><trkpt lat="43.79196747248967" lon="12.366476009742742"><ele>738.0</ele><time>2026-04-03T14:02:27.999Z</time></trkpt><trkpt lat="43.791916089930965" lon="12.366372455330007"><ele>738.0</ele><time>2026-04-03T14:02:28.999Z</time></trkpt><trkpt lat="43.79188619722805" lon="12.366258263559851"><ele>738.0</ele><time>2026-04-03T14:02:29.999Z</time></trkpt><trkpt lat="43.791888331223504" lon="12.366121737797638"><ele>738.0</ele><time>2026-04-03T14:02:30.999Z</time></trkpt><trkpt lat="43.791889533473835" lon="12.365961402310987"><ele>738.0</ele><time>2026-04-03T14:02:31.999Z</time></trkpt><trkpt lat="43.79190826139352" lon="12.365781177875865"><ele>740.0</ele><time>2026-04-03T14:02:32.999Z</time></trkpt><trkpt lat="43.791927130589514" lon="12.3655805771359"><ele>742.0</ele><time>2026-04-03T14:02:33.999Z</time></trkpt><trkpt lat="43.791952286934674" lon="12.365371148715552"><ele>744.0</ele><time>2026-04-03T14:02:34.999Z</time></trkpt><trkpt lat="43.79197896709456" lon="12.365173953803374"><ele>746.0</ele><time>2026-04-03T14:02:35.999Z</time></trkpt><trkpt lat="43.79199907911307" lon="12.364976738613622"><ele>747.25</ele><time>2026-04-03T14:02:36.999Z</time></trkpt><trkpt lat="43.79201216496764" lon="12.36477722592701"><ele>748.5</ele><time>2026-04-03T14:02:37.999Z</time></trkpt><trkpt lat="43.792030427151694" lon="12.364578903990996"><ele>749.75</ele><time>2026-04-03T14:02:38.999Z</time></trkpt><trkpt lat="43.792049654261696" lon="12.364381866758402"><ele>751.0</ele><time>2026-04-03T14:02:39.999Z</time></trkpt><trkpt lat="43.79206427630991" lon="12.364187704385929"><ele>751.0</ele><time>2026-04-03T14:02:40.999Z</time></trkpt><trkpt lat="43.79205508496401" lon="12.363992871714077"><ele>751.0</ele><time>2026-04-03T14:02:41.999Z</time></trkpt><trkpt lat="43.792012964930265" lon="12.363804012621879"><ele>751.0</ele><time>2026-04-03T14:02:42.999Z</time></trkpt><trkpt lat="43.791960495104846" lon="12.363608628115124"><ele>751.0</ele><time>2026-04-03T14:02:43.999Z</time></trkpt><trkpt lat="43.79186127028327" lon="12.363435003017601"><ele>749.3333333333334</ele><time>2026-04-03T14:02:44.999Z</time></trkpt><trkpt lat="43.79175309133111" lon="12.363268825968387"><ele>747.6666666666666</ele><time>2026-04-03T14:02:45.999Z</time></trkpt><trkpt lat="43.791637896944046" lon="12.36310074013393"><ele>746.0</ele><time>2026-04-03T14:02:46.999Z</time></trkpt><trkpt lat="43.7915217743176" lon="12.36292061239743"><ele>746.0</ele><time>2026-04-03T14:02:47.999Z</time></trkpt><trkpt lat="43.7914058374299" lon="12.362740778464866"><ele>746.0</ele><time>2026-04-03T14:02:48.999Z</time></trkpt><trkpt lat="43.79129029448803" lon="12.362562262955038"><ele>746.0</ele><time>2026-04-03T14:02:49.999Z</time></trkpt><trkpt lat="43.79117317396522" lon="12.362382005226127"><ele>746.0</ele><time>2026-04-03T14:02:50.999Z</time></trkpt><trkpt lat="43.79105711260538" lon="12.36220980882398"><ele>746.0</ele><time>2026-04-03T14:02:51.999Z</time></trkpt><trkpt lat="43.79094921797218" lon="12.362051069720035"><ele>746.0</ele><time>2026-04-03T14:02:52.999Z</time></trkpt><trkpt lat="43.79084728855031" lon="12.361902855764232"><ele>743.25</ele><time>2026-04-03T14:02:53.999Z</time></trkpt><trkpt lat="43.790742033580834" lon="12.361770055659377"><ele>740.5</ele><time>2026-04-03T14:02:54.999Z</time></trkpt><trkpt lat="43.79062149539136" lon="12.361664192099166"><ele>737.75</ele><time>2026-04-03T14:02:55.999Z</time></trkpt><trkpt lat="43.79047137582224" lon="12.361591211235265"><ele>735.0</ele><time>2026-04-03T14:02:56.999Z</time></trkpt><trkpt lat="43.79030341597315" lon="12.36156008718308"><ele>731.0</ele><time>2026-04-03T14:02:57.999Z</time></trkpt><trkpt lat="43.790134173690824" lon="12.361547755604338"><ele>727.0</ele><time>2026-04-03T14:02:58.999Z</time></trkpt><trkpt lat="43.789974668862875" lon="12.361539849474967"><ele>723.0</ele><time>2026-04-03T14:02:59.999Z</time></trkpt><trkpt lat="43.78982060280908" lon="12.361535432384496"><ele>723.0</ele><time>2026-04-03T14:03:00.999Z</time></trkpt><trkpt lat="43.78967130867925" lon="12.361531152116148"><ele>723.0</ele><time>2026-04-03T14:03:01.999Z</time></trkpt><trkpt lat="43.78954172394127" lon="12.36152537999012"><ele>723.0</ele><time>2026-04-03T14:03:02.999Z</time></trkpt><trkpt lat="43.78943553851301" lon="12.361511574238484"><ele>723.0</ele><time>2026-04-03T14:03:03.999Z</time></trkpt><trkpt lat="43.789358873706085" lon="12.36147265086959"><ele>724.1666666666666</ele><time>2026-04-03T14:03:04.999Z</time></trkpt><trkpt lat="43.789310847155605" lon="12.361394032253106"><ele>725.3333333333334</ele><time>2026-04-03T14:03:05.999Z</time></trkpt><trkpt lat="43.789293512876924" lon="12.361297375993104"><ele>726.5</ele><time>2026-04-03T14:03:06.999Z</time></trkpt><trkpt lat="43.789291175324074" lon="12.361185959035552"><ele>727.6666666666667</ele><time>2026-04-03T14:03:07.999Z</time></trkpt><trkpt lat="43.78933981834064" lon="12.361059828620085"><ele>728.8333333333334</ele><time>2026-04-03T14:03:08.999Z</time></trkpt><trkpt lat="43.789394184401516" lon="12.36092841212949"><ele>730.0</ele><time>2026-04-03T14:03:09.999Z</time></trkpt><trkpt lat="43.78944858558335" lon="12.360785712766596"><ele>730.0</ele><time>2026-04-03T14:03:10.999Z</time></trkpt><trkpt lat="43.78950504327384" lon="12.36063092318357"><ele>730.0</ele><time>2026-04-03T14:03:11.999Z</time></trkpt><trkpt lat="43.789636109424094" lon="12.360297857862827"><ele>730.0</ele><time>2026-04-03T14:03:13.999Z</time></trkpt><trkpt lat="43.78970083675475" lon="12.360138534874443"><ele>729.0</ele><time>2026-04-03T14:03:14.999Z</time></trkpt><trkpt lat="43.78975326000273" lon="12.359989864365218"><ele>728.0</ele><time>2026-04-03T14:03:15.999Z</time></trkpt><trkpt lat="43.78978274140074" lon="12.359846256255805"><ele>727.0</ele><time>2026-04-03T14:03:16.999Z</time></trkpt><trkpt lat="43.78980175248132" lon="12.359702649498988"><ele>726.0</ele><time>2026-04-03T14:03:17.999Z</time></trkpt><trkpt lat="43.78980541467027" lon="12.359556801126896"><ele>725.0</ele><time>2026-04-03T14:03:18.999Z</time></trkpt><trkpt lat="43.789796358536535" lon="12.3594125453691"><ele>725.0</ele><time>2026-04-03T14:03:19.999Z</time></trkpt><trkpt lat="43.78976796843598" lon="12.35926970055243"><ele>725.0</ele><time>2026-04-03T14:03:20.999Z</time></trkpt><trkpt lat="43.78972141543019" lon="12.359128642227864"><ele>725.0</ele><time>2026-04-03T14:03:21.999Z</time></trkpt><trkpt lat="43.7896562335345" lon="12.358991083714082"><ele>725.0</ele><time>2026-04-03T14:03:22.999Z</time></trkpt><trkpt lat="43.78959277088476" lon="12.358846114986294"><ele>727.0</ele><time>2026-04-03T14:03:23.999Z</time></trkpt><trkpt lat="43.78951045049018" lon="12.358713195332225"><ele>729.0</ele><time>2026-04-03T14:03:24.999Z</time></trkpt><trkpt lat="43.78942179369218" lon="12.358579709444786"><ele>731.0</ele><time>2026-04-03T14:03:25.999Z</time></trkpt><trkpt lat="43.78932582596067" lon="12.358445540376369"><ele>733.0</ele><time>2026-04-03T14:03:26.999Z</time></trkpt><trkpt lat="43.7892218625524" lon="12.358313346242312"><ele>731.25</ele><time>2026-04-03T14:03:27.999Z</time></trkpt><trkpt lat="43.789106756652444" lon="12.358191353549191"><ele>729.5</ele><time>2026-04-03T14:03:28.999Z</time></trkpt><trkpt lat="43.788982874016426" lon="12.358081419430466"><ele>727.75</ele><time>2026-04-03T14:03:29.999Z</time></trkpt><trkpt lat="43.788845012937244" lon="12.35800601731607"><ele>726.0</ele><time>2026-04-03T14:03:30.999Z</time></trkpt><trkpt lat="43.78870530063364" lon="12.357952658186594"><ele>726.0</ele><time>2026-04-03T14:03:31.999Z</time></trkpt><trkpt lat="43.788565852236935" lon="12.357903813700972"><ele>726.0</ele><time>2026-04-03T14:03:32.999Z</time></trkpt><trkpt lat="43.78842777990547" lon="12.357859934535451"><ele>726.0</ele><time>2026-04-03T14:03:33.999Z</time></trkpt><trkpt lat="43.78829485752927" lon="12.357814564115754"><ele>726.0</ele><time>2026-04-03T14:03:35Z</time></trkpt><trkpt lat="43.78817418798362" lon="12.357755150074487"><ele>723.5999999999999</ele><time>2026-04-03T14:03:36Z</time></trkpt><trkpt lat="43.78806949441249" lon="12.357673630656265"><ele>721.2</ele><time>2026-04-03T14:03:37Z</time></trkpt><trkpt lat="43.78798337435968" lon="12.357575661298663"><ele>718.8</ele><time>2026-04-03T14:03:38Z</time></trkpt><trkpt lat="43.7879047842906" lon="12.357477477479163"><ele>716.4000000000001</ele><time>2026-04-03T14:03:39Z</time></trkpt><trkpt lat="43.78784860153591" lon="12.357348118059017"><ele>714.0</ele><time>2026-04-03T14:03:40Z</time></trkpt><trkpt lat="43.78779676791914" lon="12.357215954845378"><ele>715.8000000000001</ele><time>2026-04-03T14:03:41Z</time></trkpt><trkpt lat="43.78775147743897" lon="12.357082662435905"><ele>717.6</ele><time>2026-04-03T14:03:42Z</time></trkpt><trkpt lat="43.78771011223356" lon="12.35694976635152"><ele>719.4</ele><time>2026-04-03T14:03:43Z</time></trkpt><trkpt lat="43.78766748150339" lon="12.356808685611016"><ele>721.2</ele><time>2026-04-03T14:03:44Z</time></trkpt><trkpt lat="43.78762335463174" lon="12.356657523769602"><ele>723.0</ele><time>2026-04-03T14:03:45Z</time></trkpt><trkpt lat="43.78757935498056" lon="12.356500824264502"><ele>718.5</ele><time>2026-04-03T14:03:46Z</time></trkpt><trkpt lat="43.78753580729683" lon="12.356340096871495"><ele>714.0</ele><time>2026-04-03T14:03:47Z</time></trkpt><trkpt lat="43.78749922074233" lon="12.356183528749932"><ele>709.5</ele><time>2026-04-03T14:03:48Z</time></trkpt><trkpt lat="43.787475200243456" lon="12.356024736898277"><ele>705.0</ele><time>2026-04-03T14:03:49Z</time></trkpt><trkpt lat="43.787463988499" lon="12.355863003818635"><ele>705.0</ele><time>2026-04-03T14:03:50Z</time></trkpt><trkpt lat="43.787458025581365" lon="12.355704670969391"><ele>705.0</ele><time>2026-04-03T14:03:51Z</time></trkpt><trkpt lat="43.78745786437175" lon="12.355544253665581"><ele>705.0</ele><time>2026-04-03T14:03:52Z</time></trkpt><trkpt lat="43.78745686867861" lon="12.355376292505674"><ele>705.0</ele><time>2026-04-03T14:03:53Z</time></trkpt><trkpt lat="43.78745019955235" lon="12.35520064463509"><ele>705.25</ele><time>2026-04-03T14:03:54Z</time></trkpt><trkpt lat="43.78744405535902" lon="12.35502459561069"><ele>705.5</ele><time>2026-04-03T14:03:55Z</time></trkpt><trkpt lat="43.78743903342342" lon="12.354860582507978"><ele>705.75</ele><time>2026-04-03T14:03:56Z</time></trkpt><trkpt lat="43.78743656152546" lon="12.354705455075097"><ele>706.0</ele><time>2026-04-03T14:03:57Z</time></trkpt><trkpt lat="43.787430533903034" lon="12.354550633628712"><ele>706.75</ele><time>2026-04-03T14:03:58Z</time></trkpt><trkpt lat="43.787411343726355" lon="12.354390374159"><ele>707.5</ele><time>2026-04-03T14:03:59Z</time></trkpt><trkpt lat="43.7873735205852" lon="12.354225606501464"><ele>708.25</ele><time>2026-04-03T14:04:00Z</time></trkpt><trkpt lat="43.787319199849094" lon="12.354058727475701"><ele>709.0</ele><time>2026-04-03T14:04:01Z</time></trkpt><trkpt lat="43.78725915128131" lon="12.353885709920739"><ele>710.75</ele><time>2026-04-03T14:04:02Z</time></trkpt><trkpt lat="43.78719569187424" lon="12.353705961853379"><ele>712.5</ele><time>2026-04-03T14:04:03Z</time></trkpt><trkpt lat="43.78713233231896" lon="12.353520786482747"><ele>714.25</ele><time>2026-04-03T14:04:04Z</time></trkpt><trkpt lat="43.787064366657354" lon="12.353334102652864"><ele>716.0</ele><time>2026-04-03T14:04:05Z</time></trkpt><trkpt lat="43.78700170931728" lon="12.353153795447781"><ele>716.5</ele><time>2026-04-03T14:04:06Z</time></trkpt><trkpt lat="43.7869441828145" lon="12.352987040601926"><ele>717.0</ele><time>2026-04-03T14:04:07Z</time></trkpt><trkpt lat="43.78689171738451" lon="12.35282966982157"><ele>717.5</ele><time>2026-04-03T14:04:08Z</time></trkpt><trkpt lat="43.786836456023984" lon="12.352674873962686"><ele>718.0</ele><time>2026-04-03T14:04:09Z</time></trkpt><trkpt lat="43.78677937360975" lon="12.35252199844379"><ele>713.0</ele><time>2026-04-03T14:04:10Z</time></trkpt><trkpt lat="43.78672557806953" lon="12.352368459719704"><ele>708.0</ele><time>2026-04-03T14:04:11Z</time></trkpt><trkpt lat="43.78666994262131" lon="12.352218592191981"><ele>703.0</ele><time>2026-04-03T14:04:12Z</time></trkpt><trkpt lat="43.78661628182814" lon="12.352063286496413"><ele>698.0</ele><time>2026-04-03T14:04:13Z</time></trkpt><trkpt lat="43.78656163041333" lon="12.351911709440033"><ele>698.0</ele><time>2026-04-03T14:04:14Z</time></trkpt><trkpt lat="43.78652142580202" lon="12.351768921647762"><ele>698.0</ele><time>2026-04-03T14:04:15Z</time></trkpt><trkpt lat="43.78649215804988" lon="12.351639878265075"><ele>698.0</ele><time>2026-04-03T14:04:16Z</time></trkpt><trkpt lat="43.78647855923408" lon="12.351548983859308"><ele>698.0</ele><time>2026-04-03T14:04:17Z</time></trkpt><trkpt lat="43.78644898878217" lon="12.35145833483991"><ele>698.0</ele><time>2026-04-03T14:04:19Z</time></trkpt><trkpt lat="43.78641639040768" lon="12.351320048801679"><ele>698.0</ele><time>2026-04-03T14:04:22Z</time></trkpt><trkpt lat="43.786378117182174" lon="12.351156292808945"><ele>698.0</ele><time>2026-04-03T14:04:24Z</time></trkpt><trkpt lat="43.78631709915066" lon="12.351075737517386"><ele>698.0</ele><time>2026-04-03T14:04:25Z</time></trkpt><trkpt lat="43.786271457294056" lon="12.350946585613626"><ele>698.0</ele><time>2026-04-03T14:04:26Z</time></trkpt><trkpt lat="43.786235279435296" lon="12.350779357278354"><ele>698.0</ele><time>2026-04-03T14:04:27Z</time></trkpt><trkpt lat="43.78619505598537" lon="12.35061206601863"><ele>698.75</ele><time>2026-04-03T14:04:27.999Z</time></trkpt><trkpt lat="43.78614962981792" lon="12.350434367020464"><ele>699.5</ele><time>2026-04-03T14:04:28.999Z</time></trkpt><trkpt lat="43.78610089422249" lon="12.350234423764794"><ele>700.25</ele><time>2026-04-03T14:04:29.999Z</time></trkpt><trkpt lat="43.78604899740551" lon="12.350028537098558"><ele>701.0</ele><time>2026-04-03T14:04:30.999Z</time></trkpt><trkpt lat="43.78599984584571" lon="12.349815724819518"><ele>698.3333333333333</ele><time>2026-04-03T14:04:31.999Z</time></trkpt><trkpt lat="43.78594880306107" lon="12.349618337270849"><ele>695.6666666666666</ele><time>2026-04-03T14:04:32.999Z</time></trkpt><trkpt lat="43.78589690192101" lon="12.349417374379334"><ele>693.0</ele><time>2026-04-03T14:04:33.999Z</time></trkpt><trkpt lat="43.785846982579166" lon="12.349225754671115"><ele>693.0</ele><time>2026-04-03T14:04:34.999Z</time></trkpt><trkpt lat="43.78579441888256" lon="12.349051657558086"><ele>693.0</ele><time>2026-04-03T14:04:35.999Z</time></trkpt><trkpt lat="43.78572195009193" lon="12.348893234908157"><ele>693.0</ele><time>2026-04-03T14:04:36.999Z</time></trkpt><trkpt lat="43.78561480827748" lon="12.348749015322156"><ele>693.0</ele><time>2026-04-03T14:04:37.999Z</time></trkpt><trkpt lat="43.78549711330231" lon="12.348586303052087"><ele>694.3333333333334</ele><time>2026-04-03T14:04:38.999Z</time></trkpt><trkpt lat="43.785364740700146" lon="12.348449297619435"><ele>695.6666666666667</ele><time>2026-04-03T14:04:39.999Z</time></trkpt><trkpt lat="43.785224365778326" lon="12.348315581529338"><ele>697.0</ele><time>2026-04-03T14:04:40.999Z</time></trkpt><trkpt lat="43.785077119114334" lon="12.34817932493018"><ele>696.3333333333334</ele><time>2026-04-03T14:04:41.999Z</time></trkpt><trkpt lat="43.784931711437835" lon="12.348044770088235"><ele>695.6666666666666</ele><time>2026-04-03T14:04:42.999Z</time></trkpt><trkpt lat="43.784793164776076" lon="12.34791656411028"><ele>695.0</ele><time>2026-04-03T14:04:43.999Z</time></trkpt><trkpt lat="43.78465266620566" lon="12.347786553412723"><ele>695.0</ele><time>2026-04-03T14:04:44.999Z</time></trkpt><trkpt lat="43.784512696421736" lon="12.347657031077048"><ele>695.0</ele><time>2026-04-03T14:04:45.999Z</time></trkpt><trkpt lat="43.784374653500635" lon="12.347525331917595"><ele>695.0</ele><time>2026-04-03T14:04:46.999Z</time></trkpt><trkpt lat="43.7842336248436" lon="12.347391495942894"><ele>694.6666666666666</ele><time>2026-04-03T14:04:47.999Z</time></trkpt><trkpt lat="43.78409190489176" lon="12.347257003963406"><ele>694.3333333333334</ele><time>2026-04-03T14:04:48.999Z</time></trkpt><trkpt lat="43.783949003012594" lon="12.347121390337598"><ele>694.0</ele><time>2026-04-03T14:04:49.999Z</time></trkpt><trkpt lat="43.78380493417771" lon="12.346985025386468"><ele>694.0</ele><time>2026-04-03T14:04:50.999Z</time></trkpt><trkpt lat="43.78365852187596" lon="12.346848294644337"><ele>694.0</ele><time>2026-04-03T14:04:51.999Z</time></trkpt><trkpt lat="43.78351069648918" lon="12.346711116051216"><ele>694.0</ele><time>2026-04-03T14:04:52.999Z</time></trkpt><trkpt lat="43.78336189501323" lon="12.346574281998475"><ele>695.0</ele><time>2026-04-03T14:04:53.999Z</time></trkpt><trkpt lat="43.78321341671482" lon="12.346436872350736"><ele>696.0</ele><time>2026-04-03T14:04:54.999Z</time></trkpt><trkpt lat="43.78306596038753" lon="12.346299371824347"><ele>697.0</ele><time>2026-04-03T14:04:55.999Z</time></trkpt><trkpt lat="43.78291969089885" lon="12.3461609011045"><ele>693.5</ele><time>2026-04-03T14:04:56.999Z</time></trkpt><trkpt lat="43.78263726688644" lon="12.345895047807838"><ele>690.0</ele><time>2026-04-03T14:04:58.999Z</time></trkpt><trkpt lat="43.782507278641205" lon="12.345773237984199"><ele>690.0</ele><time>2026-04-03T14:04:59.999Z</time></trkpt><trkpt lat="43.78238684395766" lon="12.34566146588193"><ele>690.0</ele><time>2026-04-03T14:05:00.999Z</time></trkpt><trkpt lat="43.782266637532736" lon="12.345560535713723"><ele>690.0</ele><time>2026-04-03T14:05:01.999Z</time></trkpt><trkpt lat="43.78217573170888" lon="12.345414569467296"><ele>690.0</ele><time>2026-04-03T14:05:02.999Z</time></trkpt><trkpt lat="43.7820925879783" lon="12.345252897396053"><ele>693.3333333333334</ele><time>2026-04-03T14:05:03.999Z</time></trkpt><trkpt lat="43.78202812174032" lon="12.345067456447856"><ele>696.6666666666667</ele><time>2026-04-03T14:05:04.999Z</time></trkpt><trkpt lat="43.78199518403628" lon="12.344869536100997"><ele>700.0</ele><time>2026-04-03T14:05:05.999Z</time></trkpt><trkpt lat="43.781964687616096" lon="12.344657282721379"><ele>700.6666666666667</ele><time>2026-04-03T14:05:06.999Z</time></trkpt><trkpt lat="43.78193585542255" lon="12.344445081781718"><ele>701.3333333333334</ele><time>2026-04-03T14:05:07.999Z</time></trkpt><trkpt lat="43.781903288389636" lon="12.3442338776805"><ele>702.0</ele><time>2026-04-03T14:05:08.999Z</time></trkpt><trkpt lat="43.78186572813765" lon="12.344031199826976"><ele>701.0</ele><time>2026-04-03T14:05:09.999Z</time></trkpt><trkpt lat="43.78182318916135" lon="12.343832421468475"><ele>700.0</ele><time>2026-04-03T14:05:10.999Z</time></trkpt><trkpt lat="43.781767402172605" lon="12.343640370958381"><ele>699.0</ele><time>2026-04-03T14:05:11.999Z</time></trkpt><trkpt lat="43.781706805202184" lon="12.34345574719025"><ele>698.0</ele><time>2026-04-03T14:05:12.999Z</time></trkpt><trkpt lat="43.781648749574934" lon="12.343275759498596"><ele>698.0</ele><time>2026-04-03T14:05:13.999Z</time></trkpt><trkpt lat="43.781593282932434" lon="12.343099125250767"><ele>698.0</ele><time>2026-04-03T14:05:14.999Z</time></trkpt><trkpt lat="43.781537847291744" lon="12.342925794954427"><ele>698.0</ele><time>2026-04-03T14:05:15.999Z</time></trkpt><trkpt lat="43.78148327900564" lon="12.3427572893565"><ele>698.0</ele><time>2026-04-03T14:05:16.999Z</time></trkpt><trkpt lat="43.78142965570695" lon="12.342589225469316"><ele>701.0</ele><time>2026-04-03T14:05:17.999Z</time></trkpt><trkpt lat="43.78137619607647" lon="12.342422113412374"><ele>704.0</ele><time>2026-04-03T14:05:18.999Z</time></trkpt><trkpt lat="43.781321575882195" lon="12.342254341125305"><ele>707.0</ele><time>2026-04-03T14:05:19.999Z</time></trkpt><trkpt lat="43.78126913992209" lon="12.34208607362749"><ele>710.0</ele><time>2026-04-03T14:05:20.999Z</time></trkpt><trkpt lat="43.781215685435974" lon="12.34191749170696"><ele>710.75</ele><time>2026-04-03T14:05:21.999Z</time></trkpt><trkpt lat="43.78116031323802" lon="12.341750658953496"><ele>711.5</ele><time>2026-04-03T14:05:22.999Z</time></trkpt><trkpt lat="43.78111036122381" lon="12.3415824762453"><ele>712.25</ele><time>2026-04-03T14:05:23.999Z</time></trkpt><trkpt lat="43.78105967392464" lon="12.341413583478248"><ele>713.0</ele><time>2026-04-03T14:05:24.999Z</time></trkpt><trkpt lat="43.781004932809935" lon="12.341238604299063"><ele>713.25</ele><time>2026-04-03T14:05:25.999Z</time></trkpt><trkpt lat="43.780952413578284" lon="12.341063148344842"><ele>713.5</ele><time>2026-04-03T14:05:26.999Z</time></trkpt><trkpt lat="43.78090282548686" lon="12.340902006595547"><ele>713.75</ele><time>2026-04-03T14:05:27.999Z</time></trkpt><trkpt lat="43.78085275793524" lon="12.340739121350252"><ele>714.0</ele><time>2026-04-03T14:05:28.999Z</time></trkpt><trkpt lat="43.78080099251853" lon="12.340570932283738"><ele>715.0</ele><time>2026-04-03T14:05:29.999Z</time></trkpt><trkpt lat="43.78075105361305" lon="12.340409791439308"><ele>716.0</ele><time>2026-04-03T14:05:30.999Z</time></trkpt><trkpt lat="43.780706075356356" lon="12.34025394595338"><ele>717.0</ele><time>2026-04-03T14:05:31.999Z</time></trkpt><trkpt lat="43.7806584350355" lon="12.340095371044061"><ele>718.0</ele><time>2026-04-03T14:05:32.999Z</time></trkpt><trkpt lat="43.7806085826838" lon="12.33993224780372"><ele>718.0</ele><time>2026-04-03T14:05:33.999Z</time></trkpt><trkpt lat="43.78056038099901" lon="12.339763054035167"><ele>718.0</ele><time>2026-04-03T14:05:34.999Z</time></trkpt><trkpt lat="43.78050791470697" lon="12.339593051065052"><ele>718.0</ele><time>2026-04-03T14:05:35.999Z</time></trkpt><trkpt lat="43.780452979839495" lon="12.339422814525063"><ele>718.0</ele><time>2026-04-03T14:05:36.999Z</time></trkpt><trkpt lat="43.78039925103733" lon="12.339248465815261"><ele>718.0</ele><time>2026-04-03T14:05:37.999Z</time></trkpt><trkpt lat="43.780345293095905" lon="12.339073776069146"><ele>718.0</ele><time>2026-04-03T14:05:38.999Z</time></trkpt><trkpt lat="43.78029041873714" lon="12.338897062136745"><ele>718.0</ele><time>2026-04-03T14:05:39.999Z</time></trkpt><trkpt lat="43.780235257447785" lon="12.33871732954206"><ele>718.0</ele><time>2026-04-03T14:05:41Z</time></trkpt><trkpt lat="43.78017921402332" lon="12.338533256812326"><ele>718.0</ele><time>2026-04-03T14:05:42Z</time></trkpt><trkpt lat="43.780119963598175" lon="12.338351339002546"><ele>718.0</ele><time>2026-04-03T14:05:43Z</time></trkpt><trkpt lat="43.78005519302548" lon="12.338176972308103"><ele>718.0</ele><time>2026-04-03T14:05:44Z</time></trkpt><trkpt lat="43.77999932118575" lon="12.338000888227597"><ele>718.0</ele><time>2026-04-03T14:05:45Z</time></trkpt><trkpt lat="43.77990607243025" lon="12.337846892406992"><ele>719.75</ele><time>2026-04-03T14:05:46Z</time></trkpt><trkpt lat="43.779796084740006" lon="12.33771808940773"><ele>721.5</ele><time>2026-04-03T14:05:47Z</time></trkpt><trkpt lat="43.779671096099634" lon="12.337609535160244"><ele>723.25</ele><time>2026-04-03T14:05:48Z</time></trkpt><trkpt lat="43.77954155946462" lon="12.337512846170782"><ele>725.0</ele><time>2026-04-03T14:05:49Z</time></trkpt><trkpt lat="43.779410634569494" lon="12.337416149988666"><ele>724.6666666666666</ele><time>2026-04-03T14:05:50Z</time></trkpt><trkpt lat="43.779277522937896" lon="12.337317838795121"><ele>724.3333333333334</ele><time>2026-04-03T14:05:51Z</time></trkpt><trkpt lat="43.779141531108955" lon="12.337217400396828"><ele>724.0</ele><time>2026-04-03T14:05:52Z</time></trkpt><trkpt lat="43.778994136806816" lon="12.337145381448783"><ele>724.0</ele><time>2026-04-03T14:05:53Z</time></trkpt><trkpt lat="43.77885873943418" lon="12.33704372639133"><ele>724.0</ele><time>2026-04-03T14:05:54Z</time></trkpt><trkpt lat="43.77872284124828" lon="12.336945889180285"><ele>724.0</ele><time>2026-04-03T14:05:55Z</time></trkpt><trkpt lat="43.778586371391" lon="12.336850289237187"><ele>724.0</ele><time>2026-04-03T14:05:56Z</time></trkpt><trkpt lat="43.778468570429936" lon="12.336722986414122"><ele>724.0</ele><time>2026-04-03T14:05:57Z</time></trkpt><trkpt lat="43.77834744266372" lon="12.336627263659574"><ele>724.0</ele><time>2026-04-03T14:05:58Z</time></trkpt><trkpt lat="43.77824837237868" lon="12.336523020996896"><ele>724.0</ele><time>2026-04-03T14:05:59Z</time></trkpt><trkpt lat="43.778168660627955" lon="12.33639613862499"><ele>724.75</ele><time>2026-04-03T14:06:00Z</time></trkpt><trkpt lat="43.77812697010635" lon="12.336228512393829"><ele>725.5</ele><time>2026-04-03T14:06:01Z</time></trkpt><trkpt lat="43.77813053807827" lon="12.33604418253278"><ele>726.25</ele><time>2026-04-03T14:06:02Z</time></trkpt><trkpt lat="43.77810829905511" lon="12.335850200679113"><ele>727.0</ele><time>2026-04-03T14:06:03Z</time></trkpt><trkpt lat="43.7781070003132" lon="12.335639824545536"><ele>727.6666666666667</ele><time>2026-04-03T14:06:04Z</time></trkpt><trkpt lat="43.77810685605853" lon="12.335421677702195"><ele>728.3333333333334</ele><time>2026-04-03T14:06:05Z</time></trkpt><trkpt lat="43.778104363442544" lon="12.335194725577514"><ele>729.0</ele><time>2026-04-03T14:06:06Z</time></trkpt><trkpt lat="43.77809970915464" lon="12.33496053488075"><ele>730.6666666666666</ele><time>2026-04-03T14:06:07Z</time></trkpt><trkpt lat="43.778099365711014" lon="12.334719888898247"><ele>732.3333333333333</ele><time>2026-04-03T14:06:08Z</time></trkpt><trkpt lat="43.77809890799011" lon="12.334476898850776"><ele>734.0</ele><time>2026-04-03T14:06:09Z</time></trkpt><trkpt lat="43.77809766721335" lon="12.334237713039862"><ele>734.0</ele><time>2026-04-03T14:06:10Z</time></trkpt><trkpt lat="43.77809764423684" lon="12.333998705508497"><ele>734.0</ele><time>2026-04-03T14:06:11Z</time></trkpt><trkpt lat="43.778100438510215" lon="12.333760442389798"><ele>734.0</ele><time>2026-04-03T14:06:12Z</time></trkpt><trkpt lat="43.778098381411134" lon="12.333524990832121"><ele>735.6666666666666</ele><time>2026-04-03T14:06:13Z</time></trkpt><trkpt lat="43.778094268769756" lon="12.33329707782142"><ele>737.3333333333334</ele><time>2026-04-03T14:06:14Z</time></trkpt><trkpt lat="43.778096972275996" lon="12.333076860115503"><ele>739.0</ele><time>2026-04-03T14:06:15Z</time></trkpt><trkpt lat="43.778112420326906" lon="12.332860639634037"><ele>739.3333333333334</ele><time>2026-04-03T14:06:16Z</time></trkpt><trkpt lat="43.77813813358153" lon="12.332644659090564"><ele>739.6666666666666</ele><time>2026-04-03T14:06:17Z</time></trkpt><trkpt lat="43.778172927080064" lon="12.332429037545646"><ele>740.0</ele><time>2026-04-03T14:06:18Z</time></trkpt><trkpt lat="43.77822692042291" lon="12.33221681261443"><ele>741.3333333333333</ele><time>2026-04-03T14:06:19Z</time></trkpt><trkpt lat="43.77829919695235" lon="12.332012189817055"><ele>742.6666666666666</ele><time>2026-04-03T14:06:20Z</time></trkpt><trkpt lat="43.77838056661833" lon="12.331818281900878"><ele>744.0</ele><time>2026-04-03T14:06:21Z</time></trkpt><trkpt lat="43.77846656035957" lon="12.331641416590102"><ele>745.75</ele><time>2026-04-03T14:06:22Z</time></trkpt><trkpt lat="43.778554697327266" lon="12.331482133080437"><ele>747.5</ele><time>2026-04-03T14:06:23Z</time></trkpt><trkpt lat="43.778638824505656" lon="12.33134091437206"><ele>749.25</ele><time>2026-04-03T14:06:24Z</time></trkpt><trkpt lat="43.77871430436205" lon="12.331222771661858"><ele>751.0</ele><time>2026-04-03T14:06:25Z</time></trkpt><trkpt lat="43.77878417555887" lon="12.33112314473668"><ele>751.1666666666667</ele><time>2026-04-03T14:06:26Z</time></trkpt><trkpt lat="43.77884964647099" lon="12.331045680400209"><ele>751.3333333333334</ele><time>2026-04-03T14:06:27Z</time></trkpt><trkpt lat="43.77891050875367" lon="12.330982275088797"><ele>751.5</ele><time>2026-04-03T14:06:28Z</time></trkpt><trkpt lat="43.77896954211504" lon="12.33091211089606"><ele>751.6666666666666</ele><time>2026-04-03T14:06:29Z</time></trkpt><trkpt lat="43.77902963584446" lon="12.330819759901974"><ele>751.8333333333333</ele><time>2026-04-03T14:06:30Z</time></trkpt><trkpt lat="43.77907809092125" lon="12.33070657493603"><ele>752.0</ele><time>2026-04-03T14:06:31Z</time></trkpt><trkpt lat="43.77910409201726" lon="12.330573665688124"><ele>753.5</ele><time>2026-04-03T14:06:32Z</time></trkpt><trkpt lat="43.77910914587611" lon="12.330431159003055"><ele>755.0</ele><time>2026-04-03T14:06:33Z</time></trkpt><trkpt lat="43.77910006421675" lon="12.330284164368463"><ele>756.5</ele><time>2026-04-03T14:06:34Z</time></trkpt><trkpt lat="43.77906772692505" lon="12.330127274923871"><ele>758.0</ele><time>2026-04-03T14:06:35Z</time></trkpt><trkpt lat="43.77899707643512" lon="12.32996758304718"><ele>758.0</ele><time>2026-04-03T14:06:36Z</time></trkpt><trkpt lat="43.77890001835618" lon="12.32981805967311"><ele>758.0</ele><time>2026-04-03T14:06:37Z</time></trkpt><trkpt lat="43.77879389807926" lon="12.329666016244868"><ele>758.0</ele><time>2026-04-03T14:06:37.999Z</time></trkpt><trkpt lat="43.778702227818556" lon="12.329483588676702"><ele>758.3333333333333</ele><time>2026-04-03T14:06:38.999Z</time></trkpt><trkpt lat="43.77859371456643" lon="12.329305137885713"><ele>758.6666666666666</ele><time>2026-04-03T14:06:39.999Z</time></trkpt><trkpt lat="43.77848424374364" lon="12.329147335188182"><ele>759.0</ele><time>2026-04-03T14:06:40.999Z</time></trkpt><trkpt lat="43.77838684397468" lon="12.329008636719271"><ele>760.25</ele><time>2026-04-03T14:06:41.999Z</time></trkpt><trkpt lat="43.778290461506266" lon="12.328868564823601"><ele>761.5</ele><time>2026-04-03T14:06:42.999Z</time></trkpt><trkpt lat="43.77817980127916" lon="12.328744222672004"><ele>762.75</ele><time>2026-04-03T14:06:43.999Z</time></trkpt><trkpt lat="43.77805686670881" lon="12.328639473024568"><ele>764.0</ele><time>2026-04-03T14:06:44.999Z</time></trkpt><trkpt lat="43.77792855599998" lon="12.32854660742176"><ele>764.0</ele><time>2026-04-03T14:06:45.999Z</time></trkpt><trkpt lat="43.777797173840604" lon="12.328459898726852"><ele>764.0</ele><time>2026-04-03T14:06:46.999Z</time></trkpt><trkpt lat="43.7776679721255" lon="12.328374894978497"><ele>764.0</ele><time>2026-04-03T14:06:47.999Z</time></trkpt><trkpt lat="43.777558228461324" lon="12.32829275341976"><ele>764.0</ele><time>2026-04-03T14:06:48.999Z</time></trkpt><trkpt lat="43.777457630988295" lon="12.328191255103931"><ele>763.75</ele><time>2026-04-03T14:06:49.999Z</time></trkpt><trkpt lat="43.77738015177981" lon="12.328064234357829"><ele>763.5</ele><time>2026-04-03T14:06:50.999Z</time></trkpt><trkpt lat="43.777322811540735" lon="12.32791523823371"><ele>763.25</ele><time>2026-04-03T14:06:51.999Z</time></trkpt><trkpt lat="43.77731975531696" lon="12.327727571792975"><ele>763.0</ele><time>2026-04-03T14:06:52.999Z</time></trkpt><trkpt lat="43.77732783414449" lon="12.327529459942879"><ele>764.25</ele><time>2026-04-03T14:06:53.999Z</time></trkpt><trkpt lat="43.77732554294343" lon="12.327354469071516"><ele>765.5</ele><time>2026-04-03T14:06:54.999Z</time></trkpt><trkpt lat="43.77730948051487" lon="12.327186009069091"><ele>766.75</ele><time>2026-04-03T14:06:55.999Z</time></trkpt><trkpt lat="43.77724868187547" lon="12.32702141308068"><ele>768.0</ele><time>2026-04-03T14:06:56.999Z</time></trkpt><trkpt lat="43.77713670129198" lon="12.326886588148888"><ele>769.3333333333333</ele><time>2026-04-03T14:06:57.999Z</time></trkpt><trkpt lat="43.77702441710802" lon="12.326744066399046"><ele>770.6666666666666</ele><time>2026-04-03T14:06:58.999Z</time></trkpt><trkpt lat="43.776914966100954" lon="12.326577368980654"><ele>772.0</ele><time>2026-04-03T14:06:59.999Z</time></trkpt><trkpt lat="43.77679826498578" lon="12.326432169988191"><ele>773.75</ele><time>2026-04-03T14:07:00.999Z</time></trkpt><trkpt lat="43.776693759419615" lon="12.326293725208851"><ele>775.5</ele><time>2026-04-03T14:07:01.999Z</time></trkpt><trkpt lat="43.77660485097305" lon="12.32616064871108"><ele>777.25</ele><time>2026-04-03T14:07:02.999Z</time></trkpt><trkpt lat="43.77651095638043" lon="12.326034595069958"><ele>779.0</ele><time>2026-04-03T14:07:03.999Z</time></trkpt><trkpt lat="43.776470961315546" lon="12.325862201994207"><ele>779.0</ele><time>2026-04-03T14:07:04.999Z</time></trkpt><trkpt lat="43.776462401989164" lon="12.325678499309081"><ele>779.0</ele><time>2026-04-03T14:07:05.999Z</time></trkpt><trkpt lat="43.7764874921571" lon="12.325493537986175"><ele>779.0</ele><time>2026-04-03T14:07:06.999Z</time></trkpt><trkpt lat="43.77654182193438" lon="12.325304714436179"><ele>779.0</ele><time>2026-04-03T14:07:07.999Z</time></trkpt><trkpt lat="43.77660708207184" lon="12.325113624298504"><ele>781.0</ele><time>2026-04-03T14:07:08.999Z</time></trkpt><trkpt lat="43.77667314121352" lon="12.324912728087648"><ele>783.0</ele><time>2026-04-03T14:07:09.999Z</time></trkpt><trkpt lat="43.77674155898306" lon="12.324707645018659"><ele>785.0</ele><time>2026-04-03T14:07:10.999Z</time></trkpt><trkpt lat="43.77681615871778" lon="12.324501417275751"><ele>787.6666666666667</ele><time>2026-04-03T14:07:11.999Z</time></trkpt><trkpt lat="43.77689766947655" lon="12.32429484816191"><ele>790.3333333333333</ele><time>2026-04-03T14:07:12.999Z</time></trkpt><trkpt lat="43.77698392800378" lon="12.32409267014767"><ele>793.0</ele><time>2026-04-03T14:07:13.999Z</time></trkpt><trkpt lat="43.77706964029326" lon="12.323892542288466"><ele>794.75</ele><time>2026-04-03T14:07:14.999Z</time></trkpt><trkpt lat="43.7771548996095" lon="12.323697277127048"><ele>796.5</ele><time>2026-04-03T14:07:15.999Z</time></trkpt><trkpt lat="43.77724273562585" lon="12.323536329654033"><ele>798.25</ele><time>2026-04-03T14:07:16.999Z</time></trkpt><trkpt lat="43.77734051165722" lon="12.323416186442051"><ele>800.0</ele><time>2026-04-03T14:07:17.999Z</time></trkpt><trkpt lat="43.77745666269956" lon="12.323323140722174"><ele>800.0</ele><time>2026-04-03T14:07:18.999Z</time></trkpt><trkpt lat="43.77758007650448" lon="12.3232475904968"><ele>800.0</ele><time>2026-04-03T14:07:19.999Z</time></trkpt><trkpt lat="43.77770958317266" lon="12.323188533633848"><ele>800.0</ele><time>2026-04-03T14:07:20.999Z</time></trkpt><trkpt lat="43.777970405663964" lon="12.323058525898565"><ele>802.75</ele><time>2026-04-03T14:07:22.999Z</time></trkpt><trkpt lat="43.77810333525127" lon="12.32298351732396"><ele>805.5</ele><time>2026-04-03T14:07:23.999Z</time></trkpt><trkpt lat="43.778240027954155" lon="12.322904634578363"><ele>808.25</ele><time>2026-04-03T14:07:24.999Z</time></trkpt><trkpt lat="43.778378667443356" lon="12.32282740831841"><ele>811.0</ele><time>2026-04-03T14:07:25.999Z</time></trkpt><trkpt lat="43.77852314203358" lon="12.322751101170091"><ele>812.0</ele><time>2026-04-03T14:07:26.999Z</time></trkpt><trkpt lat="43.778669491933364" lon="12.322673635857395"><ele>813.0</ele><time>2026-04-03T14:07:27.999Z</time></trkpt><trkpt lat="43.77882156231898" lon="12.322594590152596"><ele>814.0</ele><time>2026-04-03T14:07:28.999Z</time></trkpt><trkpt lat="43.77897877541416" lon="12.322521563371076"><ele>814.0</ele><time>2026-04-03T14:07:29.999Z</time></trkpt><trkpt lat="43.77913527063025" lon="12.322442872304759"><ele>814.0</ele><time>2026-04-03T14:07:30.999Z</time></trkpt><trkpt lat="43.77928913382917" lon="12.322361620811742"><ele>814.0</ele><time>2026-04-03T14:07:31.999Z</time></trkpt><trkpt lat="43.779443200566405" lon="12.32227603515559"><ele>817.6666666666666</ele><time>2026-04-03T14:07:32.999Z</time></trkpt><trkpt lat="43.77959795408431" lon="12.322191423223817"><ele>821.3333333333333</ele><time>2026-04-03T14:07:33.999Z</time></trkpt><trkpt lat="43.7797515531335" lon="12.322114342659336"><ele>825.0</ele><time>2026-04-03T14:07:34.999Z</time></trkpt><trkpt lat="43.77988470802147" lon="12.32203715154018"><ele>825.0</ele><time>2026-04-03T14:07:35.999Z</time></trkpt><trkpt lat="43.77999565320829" lon="12.3219545502576"><ele>825.0</ele><time>2026-04-03T14:07:36.999Z</time></trkpt><trkpt lat="43.780086077805876" lon="12.321848443044432"><ele>825.0</ele><time>2026-04-03T14:07:37.999Z</time></trkpt><trkpt lat="43.7801530003292" lon="12.321719415926538"><ele>825.0</ele><time>2026-04-03T14:07:38.999Z</time></trkpt><trkpt lat="43.78018824429531" lon="12.321558431976918"><ele>828.3333333333333</ele><time>2026-04-03T14:07:39.999Z</time></trkpt><trkpt lat="43.780192579098234" lon="12.321370299076646"><ele>831.6666666666666</ele><time>2026-04-03T14:07:40.999Z</time></trkpt><trkpt lat="43.78016487392752" lon="12.321158777140898"><ele>835.0</ele><time>2026-04-03T14:07:41.999Z</time></trkpt><trkpt lat="43.78010845302432" lon="12.320927388362847"><ele>835.0</ele><time>2026-04-03T14:07:42.999Z</time></trkpt><trkpt lat="43.78006493940926" lon="12.32069249509186"><ele>835.0</ele><time>2026-04-03T14:07:43.999Z</time></trkpt><trkpt lat="43.780009606842476" lon="12.320507486581409"><ele>835.0</ele><time>2026-04-03T14:07:44.999Z</time></trkpt><trkpt lat="43.77995545027308" lon="12.320333227533766"><ele>836.0</ele><time>2026-04-03T14:07:45.999Z</time></trkpt><trkpt lat="43.779908592641334" lon="12.320151526546406"><ele>837.0</ele><time>2026-04-03T14:07:47Z</time></trkpt><trkpt lat="43.77988166574901" lon="12.319970736332923"><ele>838.0</ele><time>2026-04-03T14:07:48Z</time></trkpt><trkpt lat="43.779860504572525" lon="12.319775096101218"><ele>839.0</ele><time>2026-04-03T14:07:49Z</time></trkpt><trkpt lat="43.7798665877362" lon="12.319563870581286"><ele>839.6666666666667</ele><time>2026-04-03T14:07:50Z</time></trkpt><trkpt lat="43.779870731615766" lon="12.319338088762844"><ele>840.3333333333333</ele><time>2026-04-03T14:07:51Z</time></trkpt><trkpt lat="43.77987554597323" lon="12.319105811663569"><ele>841.0</ele><time>2026-04-03T14:07:52Z</time></trkpt><trkpt lat="43.77988748367089" lon="12.318862648485592"><ele>842.6666666666666</ele><time>2026-04-03T14:07:53Z</time></trkpt><trkpt lat="43.779904664599044" lon="12.318615959568561"><ele>844.3333333333333</ele><time>2026-04-03T14:07:54Z</time></trkpt><trkpt lat="43.77992396603613" lon="12.318378331287272"><ele>846.0</ele><time>2026-04-03T14:07:55Z</time></trkpt><trkpt lat="43.77994019577192" lon="12.318162714246998"><ele>848.0</ele><time>2026-04-03T14:07:56Z</time></trkpt><trkpt lat="43.77995366169789" lon="12.317943772405307"><ele>850.0</ele><time>2026-04-03T14:07:57Z</time></trkpt><trkpt lat="43.7799497641782" lon="12.3177289411342"><ele>852.0</ele><time>2026-04-03T14:07:58Z</time></trkpt><trkpt lat="43.77992135460889" lon="12.31752541660081"><ele>852.0</ele><time>2026-04-03T14:07:59Z</time></trkpt><trkpt lat="43.77986790268807" lon="12.317349581638517"><ele>852.0</ele><time>2026-04-03T14:08:00Z</time></trkpt><trkpt lat="43.77981383060754" lon="12.317177706662443"><ele>852.0</ele><time>2026-04-03T14:08:01Z</time></trkpt><trkpt lat="43.77973718953124" lon="12.317027795404092"><ele>852.0</ele><time>2026-04-03T14:08:02Z</time></trkpt><trkpt lat="43.779655349211666" lon="12.31688224148543"><ele>854.0</ele><time>2026-04-03T14:08:03Z</time></trkpt><trkpt lat="43.77957289313523" lon="12.316740585127663"><ele>856.0</ele><time>2026-04-03T14:08:04Z</time></trkpt><trkpt lat="43.77948146156356" lon="12.316612539041362"><ele>858.0</ele><time>2026-04-03T14:08:05Z</time></trkpt><trkpt lat="43.77941918364541" lon="12.316456689804832"><ele>860.0</ele><time>2026-04-03T14:08:06Z</time></trkpt><trkpt lat="43.77938244682379" lon="12.316273983833689"><ele>861.5</ele><time>2026-04-03T14:08:07Z</time></trkpt><trkpt lat="43.77936729351009" lon="12.316073778211988"><ele>863.0</ele><time>2026-04-03T14:08:08Z</time></trkpt><trkpt lat="43.77938870510433" lon="12.315876701947024"><ele>864.5</ele><time>2026-04-03T14:08:09Z</time></trkpt><trkpt lat="43.779430154770054" lon="12.315702998525733"><ele>866.0</ele><time>2026-04-03T14:08:10Z</time></trkpt><trkpt lat="43.77949611196778" lon="12.315538497946157"><ele>866.5</ele><time>2026-04-03T14:08:11Z</time></trkpt><trkpt lat="43.77958346895975" lon="12.31538432486201"><ele>867.0</ele><time>2026-04-03T14:08:12Z</time></trkpt><trkpt lat="43.77967422153889" lon="12.315222059809585"><ele>867.5</ele><time>2026-04-03T14:08:13Z</time></trkpt><trkpt lat="43.7797336349581" lon="12.315029065686089"><ele>868.0</ele><time>2026-04-03T14:08:14Z</time></trkpt><trkpt lat="43.77977233373678" lon="12.314830318441766"><ele>869.25</ele><time>2026-04-03T14:08:15Z</time></trkpt><trkpt lat="43.779790987037934" lon="12.314656308815678"><ele>870.5</ele><time>2026-04-03T14:08:16Z</time></trkpt><trkpt lat="43.77979791321457" lon="12.314483696760728"><ele>871.75</ele><time>2026-04-03T14:08:17Z</time></trkpt><trkpt lat="43.77979726159641" lon="12.314313398528446"><ele>873.0</ele><time>2026-04-03T14:08:18Z</time></trkpt><trkpt lat="43.77977486719823" lon="12.314167181938718"><ele>873.0</ele><time>2026-04-03T14:08:19Z</time></trkpt><trkpt lat="43.77972440759429" lon="12.314042299206626"><ele>873.0</ele><time>2026-04-03T14:08:20Z</time></trkpt><trkpt lat="43.77966072924101" lon="12.313918646147723"><ele>873.0</ele><time>2026-04-03T14:08:21Z</time></trkpt><trkpt lat="43.77955061473457" lon="12.31381785717162"><ele>873.0</ele><time>2026-04-03T14:08:22Z</time></trkpt><trkpt lat="43.77943189509767" lon="12.313720066475696"><ele>873.0</ele><time>2026-04-03T14:08:23Z</time></trkpt><trkpt lat="43.77929998058713" lon="12.313605265720259"><ele>873.0</ele><time>2026-04-03T14:08:24Z</time></trkpt><trkpt lat="43.77915420203593" lon="12.313490100331602"><ele>873.0</ele><time>2026-04-03T14:08:25Z</time></trkpt><trkpt lat="43.77899524671683" lon="12.313407474241641"><ele>873.0</ele><time>2026-04-03T14:08:26Z</time></trkpt><trkpt lat="43.77884590771232" lon="12.313327496104728"><ele>873.0</ele><time>2026-04-03T14:08:27Z</time></trkpt><trkpt lat="43.77868410465138" lon="12.313275703716952"><ele>873.0</ele><time>2026-04-03T14:08:28Z</time></trkpt><trkpt lat="43.77852387355017" lon="12.31322601472527"><ele>873.0</ele><time>2026-04-03T14:08:29Z</time></trkpt><trkpt lat="43.77837506100538" lon="12.313174003477389"><ele>873.0</ele><time>2026-04-03T14:08:30Z</time></trkpt><trkpt lat="43.778239921485216" lon="12.313114084327552"><ele>873.0</ele><time>2026-04-03T14:08:31Z</time></trkpt><trkpt lat="43.778131404864645" lon="12.313024210438313"><ele>873.0</ele><time>2026-04-03T14:08:32Z</time></trkpt><trkpt lat="43.77804184270008" lon="12.312915111847328"><ele>874.75</ele><time>2026-04-03T14:08:33Z</time></trkpt><trkpt lat="43.77799105074039" lon="12.312752475582005"><ele>876.5</ele><time>2026-04-03T14:08:34Z</time></trkpt><trkpt lat="43.77797012011751" lon="12.312569902116953"><ele>878.25</ele><time>2026-04-03T14:08:35Z</time></trkpt><trkpt lat="43.77796896329964" lon="12.312368066743797"><ele>880.0</ele><time>2026-04-03T14:08:36Z</time></trkpt><trkpt lat="43.77798229064166" lon="12.312150645512954"><ele>882.3333333333333</ele><time>2026-04-03T14:08:37Z</time></trkpt><trkpt lat="43.77800836070969" lon="12.311923378512706"><ele>884.6666666666667</ele><time>2026-04-03T14:08:38Z</time></trkpt><trkpt lat="43.77804950185552" lon="12.311692531095973"><ele>887.0</ele><time>2026-04-03T14:08:39Z</time></trkpt><trkpt lat="43.77809930341753" lon="12.311460121082057"><ele>889.3333333333334</ele><time>2026-04-03T14:08:40Z</time></trkpt><trkpt lat="43.778151213476" lon="12.311242707977241"><ele>891.6666666666667</ele><time>2026-04-03T14:08:41Z</time></trkpt><trkpt lat="43.77819788885967" lon="12.311037169478231"><ele>894.0</ele><time>2026-04-03T14:08:42Z</time></trkpt><trkpt lat="43.77824452578146" lon="12.310853614954198"><ele>894.0</ele><time>2026-04-03T14:08:43Z</time></trkpt><trkpt lat="43.77829696644369" lon="12.310681892938263"><ele>894.0</ele><time>2026-04-03T14:08:44Z</time></trkpt><trkpt lat="43.77835964482113" lon="12.310518382121709"><ele>894.0</ele><time>2026-04-03T14:08:45Z</time></trkpt><trkpt lat="43.77843549917195" lon="12.310360124859658"><ele>894.0</ele><time>2026-04-03T14:08:46Z</time></trkpt><trkpt lat="43.77850910506198" lon="12.31020305393799"><ele>896.5</ele><time>2026-04-03T14:08:47Z</time></trkpt><trkpt lat="43.77858025818391" lon="12.310044418499006"><ele>899.0</ele><time>2026-04-03T14:08:48Z</time></trkpt><trkpt lat="43.77864935826125" lon="12.309885292245788"><ele>901.5</ele><time>2026-04-03T14:08:48.999Z</time></trkpt><trkpt lat="43.778725743861436" lon="12.309737106278163"><ele>904.0</ele><time>2026-04-03T14:08:49.999Z</time></trkpt><trkpt lat="43.77881473255671" lon="12.309601632832637"><ele>905.0</ele><time>2026-04-03T14:08:50.999Z</time></trkpt><trkpt lat="43.778928217946266" lon="12.309486311080223"><ele>906.0</ele><time>2026-04-03T14:08:51.999Z</time></trkpt><trkpt lat="43.77906337155729" lon="12.309386803107342"><ele>907.0</ele><time>2026-04-03T14:08:52.999Z</time></trkpt><trkpt lat="43.779212489732195" lon="12.309294655015853"><ele>909.0</ele><time>2026-04-03T14:08:53.999Z</time></trkpt><trkpt lat="43.77937248840131" lon="12.309193707674643"><ele>911.0</ele><time>2026-04-03T14:08:54.999Z</time></trkpt><trkpt lat="43.77953428070408" lon="12.309084645466877"><ele>913.0</ele><time>2026-04-03T14:08:55.999Z</time></trkpt><trkpt lat="43.77968234705859" lon="12.308988770017436"><ele>913.75</ele><time>2026-04-03T14:08:56.999Z</time></trkpt><trkpt lat="43.779810161429694" lon="12.308899451586345"><ele>914.5</ele><time>2026-04-03T14:08:57.999Z</time></trkpt><trkpt lat="43.779916888537976" lon="12.308806937822352"><ele>915.25</ele><time>2026-04-03T14:08:58.999Z</time></trkpt><trkpt lat="43.78000526641431" lon="12.308712244936089"><ele>916.0</ele><time>2026-04-03T14:08:59.999Z</time></trkpt><trkpt lat="43.78008122359617" lon="12.30859973936503"><ele>916.0</ele><time>2026-04-03T14:09:00.999Z</time></trkpt><trkpt lat="43.780141051555574" lon="12.308458523910776"><ele>916.0</ele><time>2026-04-03T14:09:01.999Z</time></trkpt><trkpt lat="43.78018249649913" lon="12.308291831381817"><ele>916.0</ele><time>2026-04-03T14:09:02.999Z</time></trkpt><trkpt lat="43.78021686980423" lon="12.308112733251624"><ele>916.0</ele><time>2026-04-03T14:09:03.999Z</time></trkpt><trkpt lat="43.78024766384284" lon="12.307922936242974"><ele>919.6666666666666</ele><time>2026-04-03T14:09:04.999Z</time></trkpt><trkpt lat="43.78028095839198" lon="12.30771847797565"><ele>923.3333333333333</ele><time>2026-04-03T14:09:05.999Z</time></trkpt><trkpt lat="43.780319032623225" lon="12.307510757627503"><ele>927.0</ele><time>2026-04-03T14:09:06.999Z</time></trkpt><trkpt lat="43.78035779036515" lon="12.307293972161787"><ele>929.0</ele><time>2026-04-03T14:09:07.999Z</time></trkpt><trkpt lat="43.78039546297412" lon="12.30707134135151"><ele>931.0</ele><time>2026-04-03T14:09:08.999Z</time></trkpt><trkpt lat="43.78043417035413" lon="12.306840407919944"><ele>933.0</ele><time>2026-04-03T14:09:09.999Z</time></trkpt><trkpt lat="43.780475197400456" lon="12.306605174188169"><ele>934.0</ele><time>2026-04-03T14:09:10.999Z</time></trkpt><trkpt lat="43.78051909625623" lon="12.306365211573574"><ele>935.0</ele><time>2026-04-03T14:09:11.999Z</time></trkpt><trkpt lat="43.78056241857051" lon="12.306119638540588"><ele>936.0</ele><time>2026-04-03T14:09:12.999Z</time></trkpt><trkpt lat="43.780607288818146" lon="12.305873256886768"><ele>936.0</ele><time>2026-04-03T14:09:13.999Z</time></trkpt><trkpt lat="43.78065404561279" lon="12.305623791942383"><ele>936.0</ele><time>2026-04-03T14:09:14.999Z</time></trkpt><trkpt lat="43.78070084457102" lon="12.305386730045283"><ele>936.0</ele><time>2026-04-03T14:09:15.999Z</time></trkpt><trkpt lat="43.780744707505605" lon="12.30515922344818"><ele>937.6666666666667</ele><time>2026-04-03T14:09:16.999Z</time></trkpt><trkpt lat="43.78078467335021" lon="12.304934942595311"><ele>939.3333333333334</ele><time>2026-04-03T14:09:17.999Z</time></trkpt><trkpt lat="43.78081324251799" lon="12.304711352922887"><ele>941.0</ele><time>2026-04-03T14:09:18.999Z</time></trkpt><trkpt lat="43.78082258415689" lon="12.304489225597035"><ele>942.0</ele><time>2026-04-03T14:09:19.999Z</time></trkpt><trkpt lat="43.78080341912105" lon="12.304272459083453"><ele>943.0</ele><time>2026-04-03T14:09:20.999Z</time></trkpt><trkpt lat="43.780750286300226" lon="12.304061690410428"><ele>944.0</ele><time>2026-04-03T14:09:21.999Z</time></trkpt><trkpt lat="43.78068846822711" lon="12.303855882855991"><ele>945.75</ele><time>2026-04-03T14:09:22.999Z</time></trkpt><trkpt lat="43.780634869193506" lon="12.303659051120087"><ele>947.5</ele><time>2026-04-03T14:09:23.999Z</time></trkpt><trkpt lat="43.78058998963476" lon="12.303487617165889"><ele>949.25</ele><time>2026-04-03T14:09:24.999Z</time></trkpt><trkpt lat="43.78054751891048" lon="12.303316017072376"><ele>951.0</ele><time>2026-04-03T14:09:25.999Z</time></trkpt><trkpt lat="43.780487655982334" lon="12.303140423039562"><ele>952.25</ele><time>2026-04-03T14:09:26.999Z</time></trkpt><trkpt lat="43.78045750600242" lon="12.302944374370556"><ele>953.5</ele><time>2026-04-03T14:09:27.999Z</time></trkpt><trkpt lat="43.78044749694306" lon="12.302756849557586"><ele>954.75</ele><time>2026-04-03T14:09:28.999Z</time></trkpt><trkpt lat="43.780468920995325" lon="12.302589731376182"><ele>956.0</ele><time>2026-04-03T14:09:29.999Z</time></trkpt><trkpt lat="43.780514502785245" lon="12.302428733105115"><ele>956.0</ele><time>2026-04-03T14:09:30.999Z</time></trkpt><trkpt lat="43.78058446085224" lon="12.302287712244567"><ele>956.0</ele><time>2026-04-03T14:09:31.999Z</time></trkpt><trkpt lat="43.78068368385958" lon="12.302192388128997"><ele>956.0</ele><time>2026-04-03T14:09:32.999Z</time></trkpt><trkpt lat="43.780793196756484" lon="12.302156300663102"><ele>956.0</ele><time>2026-04-03T14:09:33.999Z</time></trkpt><trkpt lat="43.7809081703279" lon="12.302164239764068"><ele>957.75</ele><time>2026-04-03T14:09:34.999Z</time></trkpt><trkpt lat="43.78102923261501" lon="12.302227919704984"><ele>959.5</ele><time>2026-04-03T14:09:35.999Z</time></trkpt><trkpt lat="43.78115141034684" lon="12.302320083700835"><ele>961.25</ele><time>2026-04-03T14:09:36.999Z</time></trkpt><trkpt lat="43.781274877580735" lon="12.302420420728238"><ele>963.0</ele><time>2026-04-03T14:09:37.999Z</time></trkpt><trkpt lat="43.78138772705471" lon="12.302467566152984"><ele>963.0</ele><time>2026-04-03T14:09:38.999Z</time></trkpt><trkpt lat="43.78149914309465" lon="12.302450859705118"><ele>963.0</ele><time>2026-04-03T14:09:39.999Z</time></trkpt><trkpt lat="43.78161012937231" lon="12.302375400690192"><ele>963.0</ele><time>2026-04-03T14:09:40.999Z</time></trkpt><trkpt lat="43.781719938537925" lon="12.30226276626834"><ele>963.0</ele><time>2026-04-03T14:09:41.999Z</time></trkpt><trkpt lat="43.78183553268384" lon="12.302145436053086"><ele>965.3333333333333</ele><time>2026-04-03T14:09:42.999Z</time></trkpt><trkpt lat="43.781962687975074" lon="12.302025920266162"><ele>967.6666666666666</ele><time>2026-04-03T14:09:43.999Z</time></trkpt><trkpt lat="43.78209175227978" lon="12.301905834081973"><ele>970.0</ele><time>2026-04-03T14:09:44.999Z</time></trkpt><trkpt lat="43.78221549935463" lon="12.301800035348098"><ele>970.0</ele><time>2026-04-03T14:09:45.999Z</time></trkpt><trkpt lat="43.7823338439675" lon="12.301746465713666"><ele>970.0</ele><time>2026-04-03T14:09:46.999Z</time></trkpt><trkpt lat="43.78244369556788" lon="12.301745530231353"><ele>970.0</ele><time>2026-04-03T14:09:47.999Z</time></trkpt><trkpt lat="43.782521883848474" lon="12.301770165304532"><ele>970.0</ele><time>2026-04-03T14:09:48.999Z</time></trkpt><trkpt lat="43.78258918611923" lon="12.30180017168972"><ele>970.0</ele><time>2026-04-03T14:09:49.999Z</time></trkpt><trkpt lat="43.782709308388654" lon="12.301882580193745"><ele>972.0</ele><time>2026-04-03T14:09:51.999Z</time></trkpt><trkpt lat="43.782793560926585" lon="12.301945008436528"><ele>974.0</ele><time>2026-04-03T14:09:53Z</time></trkpt><trkpt lat="43.78290134865988" lon="12.30202885229796"><ele>976.0</ele><time>2026-04-03T14:09:54Z</time></trkpt><trkpt lat="43.78302430597924" lon="12.302135559421194"><ele>978.0</ele><time>2026-04-03T14:09:55Z</time></trkpt><trkpt lat="43.78313916173913" lon="12.302234409958094"><ele>978.0</ele><time>2026-04-03T14:09:56Z</time></trkpt><trkpt lat="43.78325527944637" lon="12.30233526955394"><ele>978.0</ele><time>2026-04-03T14:09:57Z</time></trkpt><trkpt lat="43.78337953213387" lon="12.302439265785903"><ele>978.0</ele><time>2026-04-03T14:09:58Z</time></trkpt><trkpt lat="43.78351117090237" lon="12.302547259205216"><ele>978.0</ele><time>2026-04-03T14:09:59Z</time></trkpt><trkpt lat="43.7836405020158" lon="12.302656394830962"><ele>979.4</ele><time>2026-04-03T14:10:00Z</time></trkpt><trkpt lat="43.78375876405387" lon="12.30274770614045"><ele>980.8</ele><time>2026-04-03T14:10:01Z</time></trkpt><trkpt lat="43.783862396454815" lon="12.302811276269072"><ele>982.2</ele><time>2026-04-03T14:10:02Z</time></trkpt><trkpt lat="43.78395834266715" lon="12.302839059344398"><ele>983.6</ele><time>2026-04-03T14:10:03Z</time></trkpt><trkpt lat="43.78404762007877" lon="12.302836680482764"><ele>985.0</ele><time>2026-04-03T14:10:04Z</time></trkpt><trkpt lat="43.78413503055331" lon="12.302800576383158"><ele>985.0</ele><time>2026-04-03T14:10:05Z</time></trkpt><trkpt lat="43.7842220159007" lon="12.302734866858245"><ele>985.0</ele><time>2026-04-03T14:10:06Z</time></trkpt><trkpt lat="43.78431966017999" lon="12.302645732299583"><ele>985.0</ele><time>2026-04-03T14:10:07Z</time></trkpt><trkpt lat="43.78442617786893" lon="12.302541806673"><ele>985.0</ele><time>2026-04-03T14:10:08Z</time></trkpt><trkpt lat="43.784541818661474" lon="12.30242848764425"><ele>988.0</ele><time>2026-04-03T14:10:09Z</time></trkpt><trkpt lat="43.78466404084281" lon="12.302312904589357"><ele>991.0</ele><time>2026-04-03T14:10:10Z</time></trkpt><trkpt lat="43.78479896817925" lon="12.302202921194747"><ele>994.0</ele><time>2026-04-03T14:10:11Z</time></trkpt><trkpt lat="43.78494094162145" lon="12.302098277244035"><ele>994.0</ele><time>2026-04-03T14:10:12Z</time></trkpt><trkpt lat="43.78508376588026" lon="12.301983680740847"><ele>994.0</ele><time>2026-04-03T14:10:13Z</time></trkpt><trkpt lat="43.78520540157394" lon="12.301868831562844"><ele>994.0</ele><time>2026-04-03T14:10:14Z</time></trkpt><trkpt lat="43.78529492633033" lon="12.30174615938329"><ele>994.0</ele><time>2026-04-03T14:10:15Z</time></trkpt><trkpt lat="43.78535584823845" lon="12.301606007779364"><ele>997.25</ele><time>2026-04-03T14:10:16Z</time></trkpt><trkpt lat="43.78539808793202" lon="12.30145108618576"><ele>1000.5</ele><time>2026-04-03T14:10:17Z</time></trkpt><trkpt lat="43.78542419101887" lon="12.301286798497953"><ele>1003.75</ele><time>2026-04-03T14:10:18Z</time></trkpt><trkpt lat="43.78544415898526" lon="12.301125888585176"><ele>1007.0</ele><time>2026-04-03T14:10:19Z</time></trkpt><trkpt lat="43.785447038322225" lon="12.300989057378136"><ele>1007.4000000000001</ele><time>2026-04-03T14:10:20Z</time></trkpt><trkpt lat="43.785438765314424" lon="12.300853203766529"><ele>1007.8000000000001</ele><time>2026-04-03T14:10:21Z</time></trkpt><trkpt lat="43.78541189592695" lon="12.300720485829153"><ele>1008.2</ele><time>2026-04-03T14:10:22Z</time></trkpt><trkpt lat="43.785379493250716" lon="12.30058425934468"><ele>1008.6</ele><time>2026-04-03T14:10:23Z</time></trkpt><trkpt lat="43.78535631885664" lon="12.300441945166918"><ele>1009.0</ele><time>2026-04-03T14:10:24Z</time></trkpt><trkpt lat="43.78533671109174" lon="12.300292657194433"><ele>1009.6</ele><time>2026-04-03T14:10:25Z</time></trkpt><trkpt lat="43.78533056683725" lon="12.300155703934676"><ele>1010.2</ele><time>2026-04-03T14:10:26Z</time></trkpt><trkpt lat="43.78534208775787" lon="12.300028724490032"><ele>1010.8000000000001</ele><time>2026-04-03T14:10:27Z</time></trkpt><trkpt lat="43.785361958625145" lon="12.2998962327209"><ele>1011.4000000000001</ele><time>2026-04-03T14:10:28Z</time></trkpt><trkpt lat="43.785394061732454" lon="12.299757207476608"><ele>1012.0</ele><time>2026-04-03T14:10:29Z</time></trkpt><trkpt lat="43.78541977220339" lon="12.299628511154033"><ele>1011.9999999999999</ele><time>2026-04-03T14:10:30Z</time></trkpt><trkpt lat="43.785446942732094" lon="12.29951957088411"><ele>1012.0</ele><time>2026-04-03T14:10:31Z</time></trkpt><trkpt lat="43.78547442827832" lon="12.299415954323104"><ele>1012.0</ele><time>2026-04-03T14:10:32Z</time></trkpt><trkpt lat="43.78550278671103" lon="12.299321685524479"><ele>1012.0</ele><time>2026-04-03T14:10:33Z</time></trkpt><trkpt lat="43.78553515534147" lon="12.299243051921566"><ele>1011.9999999999999</ele><time>2026-04-03T14:10:34Z</time></trkpt><trkpt lat="43.78560538614164" lon="12.299104136482661"><ele>1012.0</ele><time>2026-04-03T14:10:36Z</time></trkpt><trkpt lat="43.7856433415544" lon="12.299031975248495"><ele>1012.0000000000001</ele><time>2026-04-03T14:10:37Z</time></trkpt><trkpt lat="43.785679977916686" lon="12.298955458481105"><ele>1012.0</ele><time>2026-04-03T14:10:38Z</time></trkpt><trkpt lat="43.785716518236526" lon="12.298877924844051"><ele>1012.0000000000001</ele><time>2026-04-03T14:10:39Z</time></trkpt><trkpt lat="43.785758382426984" lon="12.298799996918527"><ele>1012.0000000000001</ele><time>2026-04-03T14:10:40Z</time></trkpt><trkpt lat="43.785798903136524" lon="12.298727688575285"><ele>1012.0</ele><time>2026-04-03T14:10:41Z</time></trkpt><trkpt lat="43.78584373678688" lon="12.298616308795985"><ele>1012.0000000000001</ele><time>2026-04-03T14:10:43Z</time></trkpt><trkpt lat="43.78588163514758" lon="12.298535405562234"><ele>1012.0000000000001</ele><time>2026-04-03T14:10:46Z</time></trkpt><trkpt lat="43.78593367798989" lon="12.298434749139469"><ele>1011.3333333333333</ele><time>2026-04-03T14:10:50Z</time></trkpt><trkpt lat="43.78586391354308" lon="12.298302753222274"><ele>1010.6666666666666</ele><time>2026-04-03T14:10:51Z</time></trkpt><trkpt lat="43.78591178985666" lon="12.29823732703953"><ele>1010.0</ele><time>2026-04-03T14:10:54Z</time></trkpt><trkpt lat="43.785848272079015" lon="12.298217863684073"><ele>1009.3333333333333</ele><time>2026-04-03T14:11:00Z</time></trkpt><trkpt lat="43.78581571803182" lon="12.298299297597874"><ele>1008.6666666666666</ele><time>2026-04-03T14:11:43.999Z</time></trkpt><trkpt lat="43.78581658883158" lon="12.298438857161562"><ele>1008.0</ele><time>2026-04-03T14:11:45.999Z</time></trkpt><trkpt lat="43.78581313945869" lon="12.29854980802981"><ele>1008.0</ele><time>2026-04-03T14:11:47.999Z</time></trkpt><trkpt lat="43.785828556781574" lon="12.298674461895766"><ele>1008.0</ele><time>2026-04-03T14:11:49.999Z</time></trkpt><trkpt lat="43.785699827611204" lon="12.298843586608058"><ele>1008.0</ele><time>2026-04-03T14:11:50.999Z</time></trkpt><trkpt lat="43.785639484068106" lon="12.29894761844483"><ele>1008.0</ele><time>2026-04-03T14:11:52.999Z</time></trkpt><trkpt lat="43.78556521642739" lon="12.298924727900522"><ele>1008.0</ele><time>2026-04-03T14:11:55.999Z</time></trkpt><trkpt lat="43.78553275581401" lon="12.29883161316063"><ele>1008.0</ele><time>2026-04-03T14:11:57.999Z</time></trkpt><trkpt lat="43.78549928406705" lon="12.298745210035646"><ele>1008.0</ele><time>2026-04-03T14:12:00Z</time></trkpt><trkpt lat="43.78545069432905" lon="12.29863555264946"><ele>1008.0</ele><time>2026-04-03T14:12:03Z</time></trkpt><trkpt lat="43.78538763303265" lon="12.298550838474046"><ele>1008.0</ele><time>2026-04-03T14:12:05Z</time></trkpt><trkpt lat="43.78532661735344" lon="12.29847210816493"><ele>1008.0</ele><time>2026-04-03T14:12:07Z</time></trkpt><trkpt lat="43.785252639035875" lon="12.29837328287901"><ele>1008.0</ele><time>2026-04-03T14:12:09Z</time></trkpt><trkpt lat="43.78516778401104" lon="12.298275663277494"><ele>1009.0</ele><time>2026-04-03T14:12:11Z</time></trkpt><trkpt lat="43.78507731830221" lon="12.2981995421812"><ele>1010.0</ele><time>2026-04-03T14:12:13Z</time></trkpt><trkpt lat="43.78498584176892" lon="12.298136357229144"><ele>1011.0</ele><time>2026-04-03T14:12:15Z</time></trkpt><trkpt lat="43.78488047400654" lon="12.298089216818582"><ele>1012.0</ele><time>2026-04-03T14:12:17Z</time></trkpt><trkpt lat="43.78481612948137" lon="12.298070293754485"><ele>1013.0</ele><time>2026-04-03T14:12:18Z</time></trkpt><trkpt lat="43.78475142915026" lon="12.298067733811626"><ele>1014.0</ele><time>2026-04-03T14:12:19Z</time></trkpt><trkpt lat="43.78468707015454" lon="12.29806486439472"><ele>1014.3333333333334</ele><time>2026-04-03T14:12:20Z</time></trkpt><trkpt lat="43.78461875193841" lon="12.298052155759365"><ele>1014.6666666666667</ele><time>2026-04-03T14:12:22Z</time></trkpt><trkpt lat="43.7846087444702" lon="12.297956017905008"><ele>1015.0</ele><time>2026-04-03T14:12:24Z</time></trkpt><trkpt lat="43.78457036660351" lon="12.297838174925783"><ele>1015.3333333333334</ele><time>2026-04-03T14:12:27Z</time></trkpt><trkpt lat="43.78454207846541" lon="12.297713534848416"><ele>1015.6666666666667</ele><time>2026-04-03T14:12:29Z</time></trkpt><trkpt lat="43.78451119788401" lon="12.297578172541245"><ele>1016.0</ele><time>2026-04-03T14:12:31Z</time></trkpt><trkpt lat="43.78447569687608" lon="12.29747462603268"><ele>1016.0000000000001</ele><time>2026-04-03T14:12:34Z</time></trkpt><trkpt lat="43.78445859557486" lon="12.297368988418848"><ele>1016.0</ele><time>2026-04-03T14:12:36Z</time></trkpt><trkpt lat="43.78443932280067" lon="12.297273505659192"><ele>1016.0</ele><time>2026-04-03T14:12:38Z</time></trkpt><trkpt lat="43.78442448619109" lon="12.297168543094504"><ele>1016.0</ele><time>2026-04-03T14:12:41Z</time></trkpt><trkpt lat="43.78440734515648" lon="12.297287856515597"><ele>1016.0000000000001</ele><time>2026-04-03T14:12:49Z</time></trkpt><trkpt lat="43.784445302185375" lon="12.297371764747865"><ele>1016.0</ele><time>2026-04-03T14:12:51Z</time></trkpt><trkpt lat="43.784475987207806" lon="12.297481987016052"><ele>1016.0</ele><time>2026-04-03T14:12:53Z</time></trkpt><trkpt lat="43.784498791183196" lon="12.297595366198275"><ele>1015.9999999999999</ele><time>2026-04-03T14:12:55Z</time></trkpt><trkpt lat="43.78451679232759" lon="12.29769407034906"><ele>1015.9999999999999</ele><time>2026-04-03T14:12:57Z</time></trkpt><trkpt lat="43.784552985391635" lon="12.297838532038826"><ele>1016.0</ele><time>2026-04-03T14:12:59Z</time></trkpt><trkpt lat="43.78457946089863" lon="12.297938666997196"><ele>1016.0</ele><time>2026-04-03T14:13:01Z</time></trkpt><trkpt lat="43.78463185312782" lon="12.298063936611856"><ele>1015.6666666666667</ele><time>2026-04-03T14:13:04Z</time></trkpt><trkpt lat="43.784616658834324" lon="12.298201791702848"><ele>1015.3333333333334</ele><time>2026-04-03T14:13:06Z</time></trkpt><trkpt lat="43.784660938366564" lon="12.29835066037193"><ele>1015.0</ele><time>2026-04-03T14:13:08Z</time></trkpt><trkpt lat="43.7846963273937" lon="12.298423587788786"><ele>1014.6666666666667</ele><time>2026-04-03T14:13:09Z</time></trkpt><trkpt lat="43.784744894151714" lon="12.298488584962866"><ele>1014.3333333333334</ele><time>2026-04-03T14:13:09.999Z</time></trkpt><trkpt lat="43.784773698209825" lon="12.298574967345054"><ele>1014.0</ele><time>2026-04-03T14:13:10.999Z</time></trkpt><trkpt lat="43.78480033896585" lon="12.29865930047306"><ele>1014.0</ele><time>2026-04-03T14:13:11.999Z</time></trkpt><trkpt lat="43.784850785161495" lon="12.29881591277426"><ele>1014.0000000000001</ele><time>2026-04-03T14:13:13.999Z</time></trkpt><trkpt lat="43.78488044248455" lon="12.29897954245189"><ele>1014.0000000000001</ele><time>2026-04-03T14:13:15.999Z</time></trkpt><trkpt lat="43.78496033234076" lon="12.299110911751246"><ele>1014.0</ele><time>2026-04-03T14:13:17.999Z</time></trkpt><trkpt lat="43.785001938118" lon="12.299194891711828"><ele>1014.0</ele><time>2026-04-03T14:13:18.999Z</time></trkpt><trkpt lat="43.78507217559033" lon="12.299264108710565"><ele>1013.8333333333334</ele><time>2026-04-03T14:13:19.999Z</time></trkpt><trkpt lat="43.78513432178597" lon="12.299334313476413"><ele>1013.6666666666667</ele><time>2026-04-03T14:13:20.999Z</time></trkpt><trkpt lat="43.78518390157347" lon="12.299399140958332"><ele>1013.5</ele><time>2026-04-03T14:13:21.999Z</time></trkpt><trkpt lat="43.785227009673335" lon="12.29948296932421"><ele>1013.3333333333334</ele><time>2026-04-03T14:13:22.999Z</time></trkpt><trkpt lat="43.785267959076656" lon="12.29955208413811"><ele>1013.1666666666667</ele><time>2026-04-03T14:13:23.999Z</time></trkpt><trkpt lat="43.785291195647716" lon="12.299693987851791"><ele>1013.0</ele><time>2026-04-03T14:13:25.999Z</time></trkpt><trkpt lat="43.78531254084366" lon="12.299803081017531"><ele>1013.0</ele><time>2026-04-03T14:13:27.999Z</time></trkpt><trkpt lat="43.785301003787104" lon="12.299894514939695"><ele>1013.0</ele><time>2026-04-03T14:13:29.999Z</time></trkpt><trkpt lat="43.785303121502615" lon="12.299988853258082"><ele>1013.0</ele><time>2026-04-03T14:13:31.999Z</time></trkpt><trkpt lat="43.78507922216203" lon="12.299984631098434"><ele>1013.0</ele><time>2026-04-03T14:13:33.999Z</time></trkpt><trkpt lat="43.784992378645775" lon="12.299963778052451"><ele>1013.0</ele><time>2026-04-03T14:13:34.999Z</time></trkpt><trkpt lat="43.784898748297465" lon="12.29990107316941"><ele>1012.75</ele><time>2026-04-03T14:13:35.999Z</time></trkpt><trkpt lat="43.784788339375254" lon="12.299842277607858"><ele>1012.5</ele><time>2026-04-03T14:13:36.999Z</time></trkpt><trkpt lat="43.78468055994396" lon="12.29977252247306"><ele>1012.25</ele><time>2026-04-03T14:13:37.999Z</time></trkpt><trkpt lat="43.78457734825592" lon="12.299707466162614"><ele>1012.0</ele><time>2026-04-03T14:13:38.999Z</time></trkpt><trkpt lat="43.78446865077302" lon="12.299647247776255"><ele>1012.0</ele><time>2026-04-03T14:13:39.999Z</time></trkpt><trkpt lat="43.78435605313032" lon="12.299588980317624"><ele>1012.0</ele><time>2026-04-03T14:13:40.999Z</time></trkpt><trkpt lat="43.784251017180026" lon="12.299510707204087"><ele>1012.0</ele><time>2026-04-03T14:13:41.999Z</time></trkpt><trkpt lat="43.784154640593485" lon="12.299404701486447"><ele>1012.0</ele><time>2026-04-03T14:13:42.999Z</time></trkpt><trkpt lat="43.78407615645254" lon="12.29925906454423"><ele>1012.0</ele><time>2026-04-03T14:13:43.999Z</time></trkpt><trkpt lat="43.783986178388204" lon="12.299107788602305"><ele>1012.0</ele><time>2026-04-03T14:13:44.999Z</time></trkpt><trkpt lat="43.783907901370014" lon="12.298940118689464"><ele>1012.0</ele><time>2026-04-03T14:13:45.999Z</time></trkpt><trkpt lat="43.783830369917844" lon="12.298766595044993"><ele>1012.0</ele><time>2026-04-03T14:13:46.999Z</time></trkpt><trkpt lat="43.783744939180195" lon="12.298594527488449"><ele>1012.0</ele><time>2026-04-03T14:13:47.999Z</time></trkpt><trkpt lat="43.783666617898184" lon="12.2984241064974"><ele>1012.0</ele><time>2026-04-03T14:13:48.999Z</time></trkpt><trkpt lat="43.78359413852897" lon="12.298265574807742"><ele>1012.0</ele><time>2026-04-03T14:13:49.999Z</time></trkpt><trkpt lat="43.78351443851332" lon="12.298124839030157"><ele>1012.0</ele><time>2026-04-03T14:13:50.999Z</time></trkpt><trkpt lat="43.78342993322204" lon="12.297997061464846"><ele>1010.25</ele><time>2026-04-03T14:13:51.999Z</time></trkpt><trkpt lat="43.78333096961577" lon="12.297880674778613"><ele>1008.5</ele><time>2026-04-03T14:13:52.999Z</time></trkpt><trkpt lat="43.783222130520926" lon="12.297777209868583"><ele>1006.75</ele><time>2026-04-03T14:13:53.999Z</time></trkpt><trkpt lat="43.78310083406826" lon="12.29768872553808"><ele>1005.0</ele><time>2026-04-03T14:13:54.999Z</time></trkpt><trkpt lat="43.78298247799718" lon="12.29758455652898"><ele>1005.0</ele><time>2026-04-03T14:13:55.999Z</time></trkpt><trkpt lat="43.782854527137296" lon="12.297494432206962"><ele>1005.0</ele><time>2026-04-03T14:13:56.999Z</time></trkpt><trkpt lat="43.78272354871506" lon="12.297402175378393"><ele>1005.0</ele><time>2026-04-03T14:13:57.999Z</time></trkpt><trkpt lat="43.78258855766899" lon="12.297307092187731"><ele>1005.0</ele><time>2026-04-03T14:13:58.999Z</time></trkpt><trkpt lat="43.78245124905565" lon="12.2972103765774"><ele>1004.3333333333333</ele><time>2026-04-03T14:13:59.999Z</time></trkpt><trkpt lat="43.782310232744656" lon="12.297111049390946"><ele>1003.6666666666666</ele><time>2026-04-03T14:14:00.999Z</time></trkpt><trkpt lat="43.78216570842734" lon="12.29700925128679"><ele>1003.0</ele><time>2026-04-03T14:14:01.999Z</time></trkpt><trkpt lat="43.78201967283002" lon="12.296906346929367"><ele>1003.0</ele><time>2026-04-03T14:14:02.999Z</time></trkpt><trkpt lat="43.781872826671815" lon="12.296801357115767"><ele>1003.0</ele><time>2026-04-03T14:14:03.999Z</time></trkpt><trkpt lat="43.7817243921762" lon="12.296695231686279"><ele>1003.0</ele><time>2026-04-03T14:14:05Z</time></trkpt><trkpt lat="43.78158308388262" lon="12.29659420125244"><ele>1002.3333333333333</ele><time>2026-04-03T14:14:06Z</time></trkpt><trkpt lat="43.7814459882182" lon="12.296496182688216"><ele>1001.6666666666667</ele><time>2026-04-03T14:14:07Z</time></trkpt><trkpt lat="43.78130795813141" lon="12.29639749605111"><ele>1001.0</ele><time>2026-04-03T14:14:08Z</time></trkpt><trkpt lat="43.7811621709743" lon="12.296316255680129"><ele>1001.0</ele><time>2026-04-03T14:14:09Z</time></trkpt><trkpt lat="43.78102343082212" lon="12.296211419728474"><ele>1001.0</ele><time>2026-04-03T14:14:10Z</time></trkpt><trkpt lat="43.7808793858789" lon="12.296112552331815"><ele>1001.0</ele><time>2026-04-03T14:14:11Z</time></trkpt><trkpt lat="43.78073247867568" lon="12.296014767574988"><ele>999.3333333333334</ele><time>2026-04-03T14:14:12Z</time></trkpt><trkpt lat="43.78058569518121" lon="12.295912189726439"><ele>997.6666666666667</ele><time>2026-04-03T14:14:13Z</time></trkpt><trkpt lat="43.78044500484773" lon="12.295789174911368"><ele>996.0</ele><time>2026-04-03T14:14:14Z</time></trkpt><trkpt lat="43.780297933664386" lon="12.295684426031032"><ele>995.0</ele><time>2026-04-03T14:14:15Z</time></trkpt><trkpt lat="43.78015597141006" lon="12.295586769433909"><ele>994.0</ele><time>2026-04-03T14:14:16Z</time></trkpt><trkpt lat="43.78002482948984" lon="12.295510113367516"><ele>993.0</ele><time>2026-04-03T14:14:17Z</time></trkpt><trkpt lat="43.779917065561385" lon="12.295401157535515"><ele>992.0</ele><time>2026-04-03T14:14:18Z</time></trkpt><trkpt lat="43.77983591442016" lon="12.295277249214582"><ele>992.0</ele><time>2026-04-03T14:14:19Z</time></trkpt><trkpt lat="43.77978607954711" lon="12.29515160427385"><ele>992.0</ele><time>2026-04-03T14:14:20Z</time></trkpt><trkpt lat="43.77976112687713" lon="12.295005384239891"><ele>992.0</ele><time>2026-04-03T14:14:21Z</time></trkpt><trkpt lat="43.779740085442604" lon="12.29484865243216"><ele>992.0</ele><time>2026-04-03T14:14:22Z</time></trkpt><trkpt lat="43.779732319767106" lon="12.294685382916521"><ele>992.0</ele><time>2026-04-03T14:14:23Z</time></trkpt><trkpt lat="43.77972967431593" lon="12.294507683355716"><ele>991.75</ele><time>2026-04-03T14:14:24Z</time></trkpt><trkpt lat="43.77972709256417" lon="12.294317876154208"><ele>991.5</ele><time>2026-04-03T14:14:25Z</time></trkpt><trkpt lat="43.779727937021825" lon="12.294125853795776"><ele>991.25</ele><time>2026-04-03T14:14:26Z</time></trkpt><trkpt lat="43.7797261217074" lon="12.293923781461604"><ele>991.0</ele><time>2026-04-03T14:14:27Z</time></trkpt><trkpt lat="43.77972425269055" lon="12.29371490040325"><ele>992.3333333333333</ele><time>2026-04-03T14:14:28Z</time></trkpt><trkpt lat="43.77972360038039" lon="12.293499525908922"><ele>993.6666666666667</ele><time>2026-04-03T14:14:29Z</time></trkpt><trkpt lat="43.77972247926782" lon="12.293279524167062"><ele>995.0</ele><time>2026-04-03T14:14:30Z</time></trkpt><trkpt lat="43.779716399950715" lon="12.293064775664588"><ele>995.3333333333334</ele><time>2026-04-03T14:14:31Z</time></trkpt><trkpt lat="43.77969949157113" lon="12.292842897312086"><ele>995.6666666666667</ele><time>2026-04-03T14:14:32Z</time></trkpt><trkpt lat="43.77966408294273" lon="12.292626788629015"><ele>996.0</ele><time>2026-04-03T14:14:33Z</time></trkpt><trkpt lat="43.77962229856711" lon="12.292408462289165"><ele>997.0</ele><time>2026-04-03T14:14:34Z</time></trkpt><trkpt lat="43.7795790804708" lon="12.292190730806245"><ele>998.0</ele><time>2026-04-03T14:14:35Z</time></trkpt><trkpt lat="43.77953913081908" lon="12.291970892081192"><ele>999.0</ele><time>2026-04-03T14:14:36Z</time></trkpt><trkpt lat="43.77950215697543" lon="12.291747166836428"><ele>999.0</ele><time>2026-04-03T14:14:37Z</time></trkpt><trkpt lat="43.77946585542085" lon="12.291525290807815"><ele>999.0</ele><time>2026-04-03T14:14:38Z</time></trkpt><trkpt lat="43.779432135281546" lon="12.291315617285907"><ele>999.0</ele><time>2026-04-03T14:14:39Z</time></trkpt><trkpt lat="43.77940320463274" lon="12.29112276319644"><ele>1000.0</ele><time>2026-04-03T14:14:40Z</time></trkpt><trkpt lat="43.779374196966494" lon="12.290952181064561"><ele>1001.0</ele><time>2026-04-03T14:14:41Z</time></trkpt><trkpt lat="43.779348814506555" lon="12.290784932187146"><ele>1002.0</ele><time>2026-04-03T14:14:42Z</time></trkpt><trkpt lat="43.77932175267732" lon="12.290614048594513"><ele>1003.0</ele><time>2026-04-03T14:14:43Z</time></trkpt><trkpt lat="43.779292384944036" lon="12.290436932450351"><ele>1003.25</ele><time>2026-04-03T14:14:44Z</time></trkpt><trkpt lat="43.77926280137336" lon="12.290258841346478"><ele>1003.5</ele><time>2026-04-03T14:14:45Z</time></trkpt><trkpt lat="43.77923103597309" lon="12.290079922041766"><ele>1003.75</ele><time>2026-04-03T14:14:46Z</time></trkpt><trkpt lat="43.779201566129665" lon="12.289898687362548"><ele>1004.0</ele><time>2026-04-03T14:14:47Z</time></trkpt><trkpt lat="43.779175670892535" lon="12.289714414617176"><ele>1004.0</ele><time>2026-04-03T14:14:48Z</time></trkpt><trkpt lat="43.77915403133166" lon="12.289527589365248"><ele>1004.0</ele><time>2026-04-03T14:14:49Z</time></trkpt><trkpt lat="43.77914400394326" lon="12.289341619796886"><ele>1004.0</ele><time>2026-04-03T14:14:50Z</time></trkpt><trkpt lat="43.77915661201463" lon="12.289168098189325"><ele>1004.0</ele><time>2026-04-03T14:14:51Z</time></trkpt><trkpt lat="43.77918688864532" lon="12.288992336989944"><ele>1004.25</ele><time>2026-04-03T14:14:52Z</time></trkpt><trkpt lat="43.77923194033744" lon="12.288821556388216"><ele>1004.5</ele><time>2026-04-03T14:14:53Z</time></trkpt><trkpt lat="43.779302794984126" lon="12.288659093196063"><ele>1004.75</ele><time>2026-04-03T14:14:54Z</time></trkpt><trkpt lat="43.779383423550385" lon="12.288502360789305"><ele>1005.0</ele><time>2026-04-03T14:14:55Z</time></trkpt><trkpt lat="43.779462892409136" lon="12.288343472058045"><ele>1003.75</ele><time>2026-04-03T14:14:56Z</time></trkpt><trkpt lat="43.77953291891866" lon="12.288182512262344"><ele>1002.5</ele><time>2026-04-03T14:14:57Z</time></trkpt><trkpt lat="43.7795719587227" lon="12.288003980113967"><ele>1001.25</ele><time>2026-04-03T14:14:58Z</time></trkpt><trkpt lat="43.77959394746603" lon="12.28780964452303"><ele>1000.0</ele><time>2026-04-03T14:14:59Z</time></trkpt><trkpt lat="43.77961883769495" lon="12.287609303565626"><ele>1000.0</ele><time>2026-04-03T14:15:00Z</time></trkpt><trkpt lat="43.77964984344779" lon="12.287408736823936"><ele>1000.0</ele><time>2026-04-03T14:15:01Z</time></trkpt><trkpt lat="43.77967721311024" lon="12.28720319596458"><ele>1000.0</ele><time>2026-04-03T14:15:02Z</time></trkpt><trkpt lat="43.77970685346927" lon="12.286998392999807"><ele>999.6666666666666</ele><time>2026-04-03T14:15:03Z</time></trkpt><trkpt lat="43.7797271362952" lon="12.286789505080563"><ele>999.3333333333333</ele><time>2026-04-03T14:15:04Z</time></trkpt><trkpt lat="43.77971798838134" lon="12.286572722129325"><ele>999.0</ele><time>2026-04-03T14:15:05Z</time></trkpt><trkpt lat="43.77967738784128" lon="12.286356727963112"><ele>999.0</ele><time>2026-04-03T14:15:06Z</time></trkpt><trkpt lat="43.77962534027708" lon="12.286145514591619"><ele>999.0</ele><time>2026-04-03T14:15:07Z</time></trkpt><trkpt lat="43.77956756346932" lon="12.285935430336659"><ele>999.0</ele><time>2026-04-03T14:15:08Z</time></trkpt><trkpt lat="43.779511569926456" lon="12.28571304402065"><ele>998.0</ele><time>2026-04-03T14:15:09Z</time></trkpt><trkpt lat="43.77945573809079" lon="12.285485397250532"><ele>997.0</ele><time>2026-04-03T14:15:10Z</time></trkpt><trkpt lat="43.77939907581899" lon="12.285248909822302"><ele>996.0</ele><time>2026-04-03T14:15:11Z</time></trkpt><trkpt lat="43.77934219926195" lon="12.285008080061337"><ele>998.0</ele><time>2026-04-03T14:15:12Z</time></trkpt><trkpt lat="43.779287943835364" lon="12.284768586300428"><ele>1000.0</ele><time>2026-04-03T14:15:13Z</time></trkpt><trkpt lat="43.77923757649456" lon="12.284542742906456"><ele>1002.0</ele><time>2026-04-03T14:15:14Z</time></trkpt><trkpt lat="43.779186685974956" lon="12.284321326660988"><ele>1002.0</ele><time>2026-04-03T14:15:15Z</time></trkpt><trkpt lat="43.77913365201624" lon="12.284098449229656"><ele>1002.0</ele><time>2026-04-03T14:15:16Z</time></trkpt><trkpt lat="43.7790794695428" lon="12.283876641908456"><ele>1002.0</ele><time>2026-04-03T14:15:17Z</time></trkpt><trkpt lat="43.77902513723238" lon="12.283652874571324"><ele>1002.0</ele><time>2026-04-03T14:15:18Z</time></trkpt><trkpt lat="43.77897216249784" lon="12.28342998692726"><ele>1002.0</ele><time>2026-04-03T14:15:19Z</time></trkpt><trkpt lat="43.778922510862" lon="12.283205326422236"><ele>1002.0</ele><time>2026-04-03T14:15:20Z</time></trkpt><trkpt lat="43.77887697759106" lon="12.28297720119926"><ele>1001.0</ele><time>2026-04-03T14:15:21Z</time></trkpt><trkpt lat="43.778842041618205" lon="12.28274876998304"><ele>1000.0</ele><time>2026-04-03T14:15:21.999Z</time></trkpt><trkpt lat="43.77882010266465" lon="12.282513356301717"><ele>999.0</ele><time>2026-04-03T14:15:22.999Z</time></trkpt><trkpt lat="43.77881169035884" lon="12.282275440282207"><ele>999.0</ele><time>2026-04-03T14:15:23.999Z</time></trkpt><trkpt lat="43.778815439178" lon="12.28203460838468"><ele>999.0</ele><time>2026-04-03T14:15:24.999Z</time></trkpt><trkpt lat="43.77882742828155" lon="12.281791975028428"><ele>999.0</ele><time>2026-04-03T14:15:25.999Z</time></trkpt><trkpt lat="43.778836886009145" lon="12.281553998945727"><ele>999.6666666666667</ele><time>2026-04-03T14:15:26.999Z</time></trkpt><trkpt lat="43.77884518567039" lon="12.281314376228867"><ele>1000.3333333333334</ele><time>2026-04-03T14:15:27.999Z</time></trkpt><trkpt lat="43.778853838775966" lon="12.281076378541009"><ele>1001.0</ele><time>2026-04-03T14:15:28.999Z</time></trkpt><trkpt lat="43.7788603823382" lon="12.28083392168529"><ele>1001.0</ele><time>2026-04-03T14:15:29.999Z</time></trkpt><trkpt lat="43.77886592453667" lon="12.280602551239621"><ele>1001.0</ele><time>2026-04-03T14:15:30.999Z</time></trkpt><trkpt lat="43.778871547952946" lon="12.28038997619946"><ele>1001.0</ele><time>2026-04-03T14:15:31.999Z</time></trkpt><trkpt lat="43.77889709327966" lon="12.280192183981208"><ele>1000.75</ele><time>2026-04-03T14:15:32.999Z</time></trkpt><trkpt lat="43.77895244539988" lon="12.280029871037325"><ele>1000.5</ele><time>2026-04-03T14:15:33.999Z</time></trkpt><trkpt lat="43.779039565624394" lon="12.279899821968492"><ele>1000.25</ele><time>2026-04-03T14:15:34.999Z</time></trkpt><trkpt lat="43.77915586826199" lon="12.279810420269815"><ele>1000.0</ele><time>2026-04-03T14:15:35.999Z</time></trkpt><trkpt lat="43.77928790297673" lon="12.279776181685733"><ele>1000.5</ele><time>2026-04-03T14:15:36.999Z</time></trkpt><trkpt lat="43.77942487154605" lon="12.279773615264531"><ele>1001.0</ele><time>2026-04-03T14:15:37.999Z</time></trkpt><trkpt lat="43.77956341016066" lon="12.279766230527184"><ele>1001.5</ele><time>2026-04-03T14:15:38.999Z</time></trkpt><trkpt lat="43.779703984474615" lon="12.279748307454764"><ele>1002.0</ele><time>2026-04-03T14:15:39.999Z</time></trkpt><trkpt lat="43.77984242931252" lon="12.279716661382697"><ele>1002.0</ele><time>2026-04-03T14:15:40.999Z</time></trkpt><trkpt lat="43.77995684371947" lon="12.279652100248517"><ele>1002.0</ele><time>2026-04-03T14:15:41.999Z</time></trkpt><trkpt lat="43.78005421344643" lon="12.27956003149197"><ele>1002.0</ele><time>2026-04-03T14:15:42.999Z</time></trkpt><trkpt lat="43.780134857619096" lon="12.279450753962028"><ele>1002.0</ele><time>2026-04-03T14:15:43.999Z</time></trkpt><trkpt lat="43.78020132785716" lon="12.279309188546216"><ele>1002.0</ele><time>2026-04-03T14:15:44.999Z</time></trkpt><trkpt lat="43.7802472711154" lon="12.279133954350893"><ele>1002.0</ele><time>2026-04-03T14:15:45.999Z</time></trkpt><trkpt lat="43.78028176335463" lon="12.278933408531046"><ele>1002.0</ele><time>2026-04-03T14:15:46.999Z</time></trkpt><trkpt lat="43.78032814832255" lon="12.278720388925091"><ele>1002.0</ele><time>2026-04-03T14:15:47.999Z</time></trkpt><trkpt lat="43.78037672245983" lon="12.278497696818372"><ele>1002.0</ele><time>2026-04-03T14:15:48.999Z</time></trkpt><trkpt lat="43.78042739468897" lon="12.278262875971658"><ele>1002.0</ele><time>2026-04-03T14:15:49.999Z</time></trkpt><trkpt lat="43.780479901554514" lon="12.278022491501643"><ele>1002.0</ele><time>2026-04-03T14:15:50.999Z</time></trkpt><trkpt lat="43.78053342596981" lon="12.277776429430562"><ele>1002.0</ele><time>2026-04-03T14:15:51.999Z</time></trkpt><trkpt lat="43.78058717994187" lon="12.27752908508433"><ele>1002.0</ele><time>2026-04-03T14:15:52.999Z</time></trkpt><trkpt lat="43.78064112957974" lon="12.277280108703197"><ele>1002.0</ele><time>2026-04-03T14:15:53.999Z</time></trkpt><trkpt lat="43.78069665573904" lon="12.277032443632148"><ele>1002.0</ele><time>2026-04-03T14:15:54.999Z</time></trkpt><trkpt lat="43.78074605261471" lon="12.276811301341892"><ele>1002.0</ele><time>2026-04-03T14:15:55.999Z</time></trkpt><trkpt lat="43.780785692040254" lon="12.276641349749285"><ele>1002.0</ele><time>2026-04-03T14:15:56.999Z</time></trkpt><trkpt lat="43.78081917735639" lon="12.276498036453615"><ele>1002.0</ele><time>2026-04-03T14:15:57.999Z</time></trkpt><trkpt lat="43.78085231733305" lon="12.276362182894161"><ele>1002.0</ele><time>2026-04-03T14:15:58.999Z</time></trkpt><trkpt lat="43.78087771583989" lon="12.276251066228975"><ele>1002.0</ele><time>2026-04-03T14:15:59.999Z</time></trkpt><trkpt lat="43.78089572301106" lon="12.276164682696281"><ele>1002.0</ele><time>2026-04-03T14:16:00.999Z</time></trkpt><trkpt lat="43.78091083034297" lon="12.276029915775732"><ele>1002.0</ele><time>2026-04-03T14:18:19Z</time></trkpt><trkpt lat="43.78094047143228" lon="12.27587229503302"><ele>1002.0</ele><time>2026-04-03T14:18:21Z</time></trkpt><trkpt lat="43.78096383785337" lon="12.275770879837244"><ele>1002.0</ele><time>2026-04-03T14:18:22Z</time></trkpt><trkpt lat="43.78098806389176" lon="12.275667165380186"><ele>1002.6</ele><time>2026-04-03T14:18:23Z</time></trkpt><trkpt lat="43.78101198557809" lon="12.27555591221443"><ele>1003.2</ele><time>2026-04-03T14:18:24Z</time></trkpt><trkpt lat="43.78103842875249" lon="12.275434451684685"><ele>1003.8</ele><time>2026-04-03T14:18:25Z</time></trkpt><trkpt lat="43.781067567053356" lon="12.27530004582016"><ele>1004.4</ele><time>2026-04-03T14:18:26Z</time></trkpt><trkpt lat="43.78110102816646" lon="12.275152525965764"><ele>1005.0</ele><time>2026-04-03T14:18:27Z</time></trkpt><trkpt lat="43.78113504363233" lon="12.275005261900414"><ele>1001.5</ele><time>2026-04-03T14:18:28Z</time></trkpt><trkpt lat="43.78117511603841" lon="12.274852704919454"><ele>998.0</ele><time>2026-04-03T14:18:29Z</time></trkpt><trkpt lat="43.781212669027106" lon="12.274686189339695"><ele>994.5</ele><time>2026-04-03T14:18:30Z</time></trkpt><trkpt lat="43.78124931345473" lon="12.274506536428479"><ele>991.0</ele><time>2026-04-03T14:18:31Z</time></trkpt><trkpt lat="43.781290066399144" lon="12.274314352830412"><ele>991.0</ele><time>2026-04-03T14:18:32Z</time></trkpt><trkpt lat="43.78133041832483" lon="12.274116821489356"><ele>991.0</ele><time>2026-04-03T14:18:33Z</time></trkpt><trkpt lat="43.78138082557472" lon="12.273919600219587"><ele>991.0</ele><time>2026-04-03T14:18:34Z</time></trkpt><trkpt lat="43.781429088318795" lon="12.273713609046649"><ele>991.3333333333333</ele><time>2026-04-03T14:18:35Z</time></trkpt><trkpt lat="43.781476123014734" lon="12.273498180512682"><ele>991.6666666666667</ele><time>2026-04-03T14:18:36Z</time></trkpt><trkpt lat="43.781524467250094" lon="12.273277162452455"><ele>992.0</ele><time>2026-04-03T14:18:37Z</time></trkpt><trkpt lat="43.78157244714882" lon="12.273049912500868"><ele>992.3333333333334</ele><time>2026-04-03T14:18:38Z</time></trkpt><trkpt lat="43.781621146274105" lon="12.27281917676634"><ele>992.6666666666667</ele><time>2026-04-03T14:18:39Z</time></trkpt><trkpt lat="43.78167390976689" lon="12.272583386791258"><ele>993.0</ele><time>2026-04-03T14:18:40Z</time></trkpt><trkpt lat="43.78172548245496" lon="12.272347355791903"><ele>992.6666666666667</ele><time>2026-04-03T14:18:41Z</time></trkpt><trkpt lat="43.78177631323859" lon="12.272111338642203"><ele>992.3333333333334</ele><time>2026-04-03T14:18:42Z</time></trkpt><trkpt lat="43.7818299263294" lon="12.271887210810766"><ele>992.0</ele><time>2026-04-03T14:18:43Z</time></trkpt><trkpt lat="43.781875661872235" lon="12.271675181112089"><ele>992.6666666666667</ele><time>2026-04-03T14:18:44Z</time></trkpt><trkpt lat="43.78190118619183" lon="12.271463973386377"><ele>993.3333333333333</ele><time>2026-04-03T14:18:45Z</time></trkpt><trkpt lat="43.78193879758933" lon="12.271263987952237"><ele>994.0</ele><time>2026-04-03T14:18:46Z</time></trkpt><trkpt lat="43.78189876974411" lon="12.271034401623659"><ele>994.3333333333333</ele><time>2026-04-03T14:18:47Z</time></trkpt><trkpt lat="43.781868737411735" lon="12.27081611668752"><ele>994.6666666666667</ele><time>2026-04-03T14:18:48Z</time></trkpt><trkpt lat="43.78181995318841" lon="12.270595023641178"><ele>995.0</ele><time>2026-04-03T14:18:49Z</time></trkpt><trkpt lat="43.78174922596215" lon="12.270379779965685"><ele>993.0</ele><time>2026-04-03T14:18:50Z</time></trkpt><trkpt lat="43.781668488254425" lon="12.270159703512508"><ele>991.0</ele><time>2026-04-03T14:18:51Z</time></trkpt><trkpt lat="43.781586202343185" lon="12.269935034800168"><ele>989.0</ele><time>2026-04-03T14:18:52Z</time></trkpt><trkpt lat="43.78150361578959" lon="12.26970519483035"><ele>989.0</ele><time>2026-04-03T14:18:53Z</time></trkpt><trkpt lat="43.78141939995257" lon="12.269469103131213"><ele>989.0</ele><time>2026-04-03T14:18:54Z</time></trkpt><trkpt lat="43.78133359513586" lon="12.269230501859573"><ele>989.0</ele><time>2026-04-03T14:18:55Z</time></trkpt><trkpt lat="43.781250012717145" lon="12.26899069088946"><ele>990.0</ele><time>2026-04-03T14:18:56Z</time></trkpt><trkpt lat="43.78116647067655" lon="12.268761656671916"><ele>991.0</ele><time>2026-04-03T14:18:57Z</time></trkpt><trkpt lat="43.781087557514795" lon="12.268526238849327"><ele>992.0</ele><time>2026-04-03T14:18:58Z</time></trkpt><trkpt lat="43.781010591217886" lon="12.268289622263433"><ele>989.6666666666667</ele><time>2026-04-03T14:18:59Z</time></trkpt><trkpt lat="43.78094190615954" lon="12.268047940932407"><ele>987.3333333333333</ele><time>2026-04-03T14:19:00Z</time></trkpt><trkpt lat="43.780880338869565" lon="12.267807704953755"><ele>985.0</ele><time>2026-04-03T14:19:01Z</time></trkpt><trkpt lat="43.78082187177449" lon="12.267567694589665"><ele>985.0</ele><time>2026-04-03T14:19:02Z</time></trkpt><trkpt lat="43.78076176447849" lon="12.267331856828967"><ele>985.0</ele><time>2026-04-03T14:19:03Z</time></trkpt><trkpt lat="43.78070192491108" lon="12.267109826551021"><ele>985.0</ele><time>2026-04-03T14:19:04Z</time></trkpt><trkpt lat="43.780649446710186" lon="12.266900092102903"><ele>985.0</ele><time>2026-04-03T14:19:05Z</time></trkpt><trkpt lat="43.78060474119035" lon="12.26670107607791"><ele>985.0</ele><time>2026-04-03T14:19:06Z</time></trkpt><trkpt lat="43.780565320076235" lon="12.26651083727085"><ele>985.0</ele><time>2026-04-03T14:19:07Z</time></trkpt><trkpt lat="43.78054171224015" lon="12.266332869283053"><ele>985.0</ele><time>2026-04-03T14:19:08Z</time></trkpt><trkpt lat="43.780537843277" lon="12.266158157260774"><ele>985.0</ele><time>2026-04-03T14:19:09Z</time></trkpt><trkpt lat="43.78055822156852" lon="12.265991094698455"><ele>985.0</ele><time>2026-04-03T14:19:10Z</time></trkpt><trkpt lat="43.78059765880975" lon="12.265839979174928"><ele>985.0</ele><time>2026-04-03T14:19:11Z</time></trkpt><trkpt lat="43.780655093723084" lon="12.265709792906453"><ele>985.0</ele><time>2026-04-03T14:19:12Z</time></trkpt><trkpt lat="43.780724486017085" lon="12.265597568808488"><ele>981.5</ele><time>2026-04-03T14:19:13Z</time></trkpt><trkpt lat="43.780797978688035" lon="12.26547947977688"><ele>978.0</ele><time>2026-04-03T14:19:14Z</time></trkpt><trkpt lat="43.78090729272935" lon="12.26541700653363"><ele>974.5</ele><time>2026-04-03T14:19:15Z</time></trkpt><trkpt lat="43.78101634574224" lon="12.265354818368069"><ele>971.0</ele><time>2026-04-03T14:19:16Z</time></trkpt><trkpt lat="43.78113601227194" lon="12.265312580959826"><ele>971.0</ele><time>2026-04-03T14:19:17Z</time></trkpt><trkpt lat="43.78125963557624" lon="12.265242110888076"><ele>971.0</ele><time>2026-04-03T14:19:18Z</time></trkpt><trkpt lat="43.78140108239343" lon="12.2652133460974"><ele>971.0</ele><time>2026-04-03T14:19:19Z</time></trkpt><trkpt lat="43.7815387346198" lon="12.26515275609105"><ele>971.0</ele><time>2026-04-03T14:19:20Z</time></trkpt><trkpt lat="43.78168271616154" lon="12.265096936280615"><ele>971.0</ele><time>2026-04-03T14:19:21Z</time></trkpt><trkpt lat="43.781831068867305" lon="12.265041715068282"><ele>971.0</ele><time>2026-04-03T14:19:22Z</time></trkpt><trkpt lat="43.78198661129124" lon="12.264974433099978"><ele>971.0</ele><time>2026-04-03T14:19:23Z</time></trkpt><trkpt lat="43.782131844095304" lon="12.264892877126242"><ele>968.3333333333334</ele><time>2026-04-03T14:19:24Z</time></trkpt><trkpt lat="43.78225584805772" lon="12.264776126590098"><ele>965.6666666666667</ele><time>2026-04-03T14:19:25Z</time></trkpt><trkpt lat="43.782371510452144" lon="12.264625625466213"><ele>963.0</ele><time>2026-04-03T14:19:26Z</time></trkpt><trkpt lat="43.78248341188737" lon="12.26445563459806"><ele>963.0</ele><time>2026-04-03T14:19:27Z</time></trkpt><trkpt lat="43.78259993771954" lon="12.264274751146045"><ele>963.0</ele><time>2026-04-03T14:19:28Z</time></trkpt><trkpt lat="43.78272485452239" lon="12.264092523812778"><ele>963.0</ele><time>2026-04-03T14:19:28.999Z</time></trkpt><trkpt lat="43.78284521549339" lon="12.263915519727316"><ele>960.3333333333333</ele><time>2026-04-03T14:19:29.999Z</time></trkpt><trkpt lat="43.78295844481298" lon="12.263739876668732"><ele>957.6666666666666</ele><time>2026-04-03T14:19:30.999Z</time></trkpt><trkpt lat="43.78306830625704" lon="12.26357785287235"><ele>955.0</ele><time>2026-04-03T14:19:31.999Z</time></trkpt><trkpt lat="43.78317618612275" lon="12.263428772959378"><ele>955.0</ele><time>2026-04-03T14:19:32.999Z</time></trkpt><trkpt lat="43.78328875452032" lon="12.263293003490144"><ele>955.0</ele><time>2026-04-03T14:19:33.999Z</time></trkpt><trkpt lat="43.78340748422064" lon="12.263177268368139"><ele>955.0</ele><time>2026-04-03T14:19:34.999Z</time></trkpt><trkpt lat="43.78352748123649" lon="12.2630682013826"><ele>955.0</ele><time>2026-04-03T14:19:35.999Z</time></trkpt><trkpt lat="43.78364249725005" lon="12.2629574533842"><ele>953.0</ele><time>2026-04-03T14:19:36.999Z</time></trkpt><trkpt lat="43.78374999950356" lon="12.26285209865229"><ele>951.0</ele><time>2026-04-03T14:19:37.999Z</time></trkpt><trkpt lat="43.78383853493509" lon="12.262758287417489"><ele>949.0</ele><time>2026-04-03T14:19:38.999Z</time></trkpt><trkpt lat="43.78390275457763" lon="12.262641936697493"><ele>947.0</ele><time>2026-04-03T14:19:39.999Z</time></trkpt><trkpt lat="43.78391970089544" lon="12.262511480216343"><ele>945.0</ele><time>2026-04-03T14:19:40.999Z</time></trkpt><trkpt lat="43.78389223778141" lon="12.262389033052298"><ele>938.5</ele><time>2026-04-03T14:19:41.999Z</time></trkpt><trkpt lat="43.78384695652015" lon="12.262271638711018"><ele>932.0</ele><time>2026-04-03T14:19:42.999Z</time></trkpt><trkpt lat="43.783747795037414" lon="12.262190216807955"><ele>925.5</ele><time>2026-04-03T14:19:43.999Z</time></trkpt><trkpt lat="43.78362971012825" lon="12.262171747076698"><ele>919.0</ele><time>2026-04-03T14:19:44.999Z</time></trkpt><trkpt lat="43.78350264235229" lon="12.262229984577187"><ele>923.75</ele><time>2026-04-03T14:19:45.999Z</time></trkpt><trkpt lat="43.783387934192575" lon="12.262334569236366"><ele>928.5</ele><time>2026-04-03T14:19:46.999Z</time></trkpt><trkpt lat="43.783265798837604" lon="12.262432248335355"><ele>933.25</ele><time>2026-04-03T14:19:47.999Z</time></trkpt><trkpt lat="43.7831257720149" lon="12.262525658892804"><ele>938.0</ele><time>2026-04-03T14:19:48.999Z</time></trkpt><trkpt lat="43.78298770923275" lon="12.262606335057477"><ele>938.0</ele><time>2026-04-03T14:19:49.999Z</time></trkpt><trkpt lat="43.78284360874218" lon="12.26267557012503"><ele>938.0</ele><time>2026-04-03T14:19:50.999Z</time></trkpt><trkpt lat="43.782690142510816" lon="12.262715083840042"><ele>938.0</ele><time>2026-04-03T14:19:51.999Z</time></trkpt><trkpt lat="43.782532128902226" lon="12.262717078740701"><ele>934.3333333333334</ele><time>2026-04-03T14:19:52.999Z</time></trkpt><trkpt lat="43.78237094181268" lon="12.262673715166672"><ele>930.6666666666667</ele><time>2026-04-03T14:19:53.999Z</time></trkpt><trkpt lat="43.782201471351605" lon="12.26260832436855"><ele>927.0</ele><time>2026-04-03T14:19:54.999Z</time></trkpt><trkpt lat="43.782023401725226" lon="12.262528711898607"><ele>927.0</ele><time>2026-04-03T14:19:55.999Z</time></trkpt><trkpt lat="43.78185226729904" lon="12.262452200045365"><ele>927.0</ele><time>2026-04-03T14:19:56.999Z</time></trkpt><trkpt lat="43.781722057401154" lon="12.26239058230501"><ele>927.0</ele><time>2026-04-03T14:19:57.999Z</time></trkpt><trkpt lat="43.78161340143244" lon="12.26233478607576"><ele>927.0</ele><time>2026-04-03T14:19:58.999Z</time></trkpt><trkpt lat="43.78152540525647" lon="12.262295277603366"><ele>923.2</ele><time>2026-04-03T14:19:59.999Z</time></trkpt><trkpt lat="43.781466842398125" lon="12.262196594167802"><ele>919.4000000000001</ele><time>2026-04-03T14:20:00.999Z</time></trkpt><trkpt lat="43.78144008839374" lon="12.262070072197771"><ele>915.5999999999999</ele><time>2026-04-03T14:20:01.999Z</time></trkpt><trkpt lat="43.78145271714635" lon="12.261934275645789"><ele>911.8</ele><time>2026-04-03T14:20:02.999Z</time></trkpt><trkpt lat="43.78150880823956" lon="12.261820107874088"><ele>908.0</ele><time>2026-04-03T14:20:03.999Z</time></trkpt><trkpt lat="43.781604147433406" lon="12.261741017673351"><ele>908.0</ele><time>2026-04-03T14:20:04.999Z</time></trkpt><trkpt lat="43.78172330928049" lon="12.261688323953067"><ele>908.0</ele><time>2026-04-03T14:20:05.999Z</time></trkpt><trkpt lat="43.78186088244976" lon="12.261648047572026"><ele>908.0</ele><time>2026-04-03T14:20:06.999Z</time></trkpt><trkpt lat="43.78201012897568" lon="12.261598692905723"><ele>908.0</ele><time>2026-04-03T14:20:07.999Z</time></trkpt><trkpt lat="43.782165706576535" lon="12.261544596617485"><ele>907.0</ele><time>2026-04-03T14:20:08.999Z</time></trkpt><trkpt lat="43.78230677026147" lon="12.261476730961599"><ele>906.0</ele><time>2026-04-03T14:20:09.999Z</time></trkpt><trkpt lat="43.78241959711766" lon="12.261375194662614"><ele>905.0</ele><time>2026-04-03T14:20:10.999Z</time></trkpt><trkpt lat="43.7825076833801" lon="12.261235621144863"><ele>904.0</ele><time>2026-04-03T14:20:11.999Z</time></trkpt><trkpt lat="43.7825712057945" lon="12.261055592642741"><ele>904.0</ele><time>2026-04-03T14:20:12.999Z</time></trkpt><trkpt lat="43.78260851210347" lon="12.260847111823757"><ele>904.0</ele><time>2026-04-03T14:20:13.999Z</time></trkpt><trkpt lat="43.78264681256088" lon="12.26062835066779"><ele>904.0</ele><time>2026-04-03T14:20:14.999Z</time></trkpt><trkpt lat="43.78269416519059" lon="12.260402216722023"><ele>899.0</ele><time>2026-04-03T14:20:15.999Z</time></trkpt><trkpt lat="43.78274642395276" lon="12.260165421518114"><ele>894.0</ele><time>2026-04-03T14:20:16.999Z</time></trkpt><trkpt lat="43.782799034394706" lon="12.259928580844774"><ele>889.0</ele><time>2026-04-03T14:20:17.999Z</time></trkpt><trkpt lat="43.782842643702885" lon="12.259703023263787"><ele>888.3333333333333</ele><time>2026-04-03T14:20:18.999Z</time></trkpt><trkpt lat="43.78287484982419" lon="12.25948154172884"><ele>887.6666666666667</ele><time>2026-04-03T14:20:19.999Z</time></trkpt><trkpt lat="43.78288531180911" lon="12.259256974202888"><ele>887.0</ele><time>2026-04-03T14:20:20.999Z</time></trkpt><trkpt lat="43.782867391640146" lon="12.25902664419327"><ele>886.0</ele><time>2026-04-03T14:20:21.999Z</time></trkpt><trkpt lat="43.78283481969399" lon="12.25879980120309"><ele>885.0</ele><time>2026-04-03T14:20:23Z</time></trkpt><trkpt lat="43.782799832642596" lon="12.25858182872455"><ele>884.0</ele><time>2026-04-03T14:20:24Z</time></trkpt><trkpt lat="43.78276897778756" lon="12.258369847471915"><ele>884.0</ele><time>2026-04-03T14:20:25Z</time></trkpt><trkpt lat="43.782745907549156" lon="12.258159733807728"><ele>884.0</ele><time>2026-04-03T14:20:26Z</time></trkpt><trkpt lat="43.78273464201631" lon="12.257935851674922"><ele>884.0</ele><time>2026-04-03T14:20:27Z</time></trkpt><trkpt lat="43.782730237143184" lon="12.257703238312008"><ele>882.6666666666667</ele><time>2026-04-03T14:20:28Z</time></trkpt><trkpt lat="43.78273316165489" lon="12.257475396720995"><ele>881.3333333333333</ele><time>2026-04-03T14:20:29Z</time></trkpt><trkpt lat="43.7827417160006" lon="12.257247825858869"><ele>880.0</ele><time>2026-04-03T14:20:30Z</time></trkpt><trkpt lat="43.78275492000373" lon="12.257013321877167"><ele>878.0</ele><time>2026-04-03T14:20:31Z</time></trkpt><trkpt lat="43.78277071461525" lon="12.256770041572434"><ele>876.0</ele><time>2026-04-03T14:20:32Z</time></trkpt><trkpt lat="43.78279864403064" lon="12.256524297933757"><ele>874.0</ele><time>2026-04-03T14:20:33Z</time></trkpt><trkpt lat="43.78283917821907" lon="12.256274279786952"><ele>872.0</ele><time>2026-04-03T14:20:34Z</time></trkpt><trkpt lat="43.782886619385096" lon="12.256027245505587"><ele>870.0</ele><time>2026-04-03T14:20:35Z</time></trkpt><trkpt lat="43.782933793514545" lon="12.25578563132168"><ele>868.0</ele><time>2026-04-03T14:20:36Z</time></trkpt><trkpt lat="43.78297687083107" lon="12.255547575365199"><ele>865.0</ele><time>2026-04-03T14:20:37Z</time></trkpt><trkpt lat="43.783017228693524" lon="12.255329063464549"><ele>862.0</ele><time>2026-04-03T14:20:38Z</time></trkpt><trkpt lat="43.78305925190054" lon="12.255114595578993"><ele>859.0</ele><time>2026-04-03T14:20:39Z</time></trkpt><trkpt lat="43.7830980794032" lon="12.254904839867118"><ele>858.0</ele><time>2026-04-03T14:20:40Z</time></trkpt><trkpt lat="43.783143752385875" lon="12.254690737312641"><ele>857.0</ele><time>2026-04-03T14:20:41Z</time></trkpt><trkpt lat="43.78318211811612" lon="12.254479376855127"><ele>856.0</ele><time>2026-04-03T14:20:42Z</time></trkpt><trkpt lat="43.78322014037009" lon="12.254272543533228"><ele>856.0</ele><time>2026-04-03T14:20:43Z</time></trkpt><trkpt lat="43.78326038625711" lon="12.254068144722854"><ele>856.0</ele><time>2026-04-03T14:20:44Z</time></trkpt><trkpt lat="43.783306623873145" lon="12.253868871616147"><ele>856.0</ele><time>2026-04-03T14:20:45Z</time></trkpt><trkpt lat="43.78334131310861" lon="12.253670939456374"><ele>855.6666666666666</ele><time>2026-04-03T14:20:46Z</time></trkpt><trkpt lat="43.783361096946884" lon="12.253453847024037"><ele>855.3333333333333</ele><time>2026-04-03T14:20:47Z</time></trkpt><trkpt lat="43.783370271663486" lon="12.25322270629411"><ele>855.0</ele><time>2026-04-03T14:20:48Z</time></trkpt><trkpt lat="43.78337049294524" lon="12.252984408373836"><ele>854.0</ele><time>2026-04-03T14:20:49Z</time></trkpt><trkpt lat="43.78336576881622" lon="12.252739748674317"><ele>853.0</ele><time>2026-04-03T14:20:50Z</time></trkpt><trkpt lat="43.78336087666765" lon="12.252491377036586"><ele>852.0</ele><time>2026-04-03T14:20:51Z</time></trkpt><trkpt lat="43.78335333583855" lon="12.252242800739403"><ele>850.3333333333333</ele><time>2026-04-03T14:20:52Z</time></trkpt><trkpt lat="43.78335068156406" lon="12.252002330730326"><ele>848.6666666666666</ele><time>2026-04-03T14:20:53Z</time></trkpt><trkpt lat="43.783347860506844" lon="12.25177036873002"><ele>847.0</ele><time>2026-04-03T14:20:54Z</time></trkpt><trkpt lat="43.78333959464056" lon="12.251542111885152"><ele>845.3333333333333</ele><time>2026-04-03T14:20:55Z</time></trkpt><trkpt lat="43.783326747973575" lon="12.251322478647218"><ele>843.6666666666667</ele><time>2026-04-03T14:20:56Z</time></trkpt><trkpt lat="43.783306700490826" lon="12.251109395282473"><ele>842.0</ele><time>2026-04-03T14:20:57Z</time></trkpt><trkpt lat="43.78328134455635" lon="12.250912179642278"><ele>842.0</ele><time>2026-04-03T14:20:58Z</time></trkpt><trkpt lat="43.78326247397641" lon="12.250764845493062"><ele>842.0</ele><time>2026-04-03T14:20:59Z</time></trkpt><trkpt lat="43.78324914873717" lon="12.250596709742627"><ele>842.0</ele><time>2026-04-03T14:21:00Z</time></trkpt><trkpt lat="43.78324638935173" lon="12.250403383482048"><ele>842.0</ele><time>2026-04-03T14:21:01Z</time></trkpt><trkpt lat="43.78325441791085" lon="12.250198340952483"><ele>840.3333333333334</ele><time>2026-04-03T14:21:02Z</time></trkpt><trkpt lat="43.78326591660448" lon="12.24998593127764"><ele>838.6666666666667</ele><time>2026-04-03T14:21:03Z</time></trkpt><trkpt lat="43.783271066984206" lon="12.249765669357037"><ele>837.0</ele><time>2026-04-03T14:21:04Z</time></trkpt><trkpt lat="43.783273516184146" lon="12.249536376128532"><ele>835.6666666666667</ele><time>2026-04-03T14:21:05Z</time></trkpt><trkpt lat="43.78327489084085" lon="12.249304270957843"><ele>834.3333333333334</ele><time>2026-04-03T14:21:06Z</time></trkpt><trkpt lat="43.78328033043519" lon="12.249090424473323"><ele>833.0</ele><time>2026-04-03T14:21:07Z</time></trkpt><trkpt lat="43.783285113920456" lon="12.248899845209284"><ele>832.8</ele><time>2026-04-03T14:21:08Z</time></trkpt><trkpt lat="43.78328721854107" lon="12.248735549563534"><ele>832.5999999999999</ele><time>2026-04-03T14:21:09Z</time></trkpt><trkpt lat="43.783288176054455" lon="12.2485876751825"><ele>832.4000000000001</ele><time>2026-04-03T14:21:10Z</time></trkpt><trkpt lat="43.78328609988642" lon="12.248465775795731"><ele>832.2</ele><time>2026-04-03T14:21:11Z</time></trkpt><trkpt lat="43.783294914086575" lon="12.24831160591311"><ele>832.0</ele><time>2026-04-03T14:21:13Z</time></trkpt><trkpt lat="43.78331312711531" lon="12.248207553792271"><ele>832.0</ele><time>2026-04-03T14:21:16Z</time></trkpt><trkpt lat="43.78330360663972" lon="12.24809861196448"><ele>832.0</ele><time>2026-04-03T14:21:19Z</time></trkpt><trkpt lat="43.783285150109876" lon="12.248189457512412"><ele>832.0</ele><time>2026-04-03T14:30:09.999Z</time></trkpt><trkpt lat="43.78327868471307" lon="12.24835260748531"><ele>832.0</ele><time>2026-04-03T14:30:11.999Z</time></trkpt><trkpt lat="43.78308134290446" lon="12.248355175597597"><ele>832.0</ele><time>2026-04-03T14:30:12.999Z</time></trkpt><trkpt lat="43.78304393671779" lon="12.248426087721633"><ele>832.0</ele><time>2026-04-03T14:30:13.999Z</time></trkpt><trkpt lat="43.78297037894406" lon="12.248479032955402"><ele>832.0</ele><time>2026-04-03T14:30:14.999Z</time></trkpt><trkpt lat="43.78289395888728" lon="12.248606702395616"><ele>832.0</ele><time>2026-04-03T14:30:16.999Z</time></trkpt><trkpt lat="43.78323597257186" lon="12.249103441249629"><ele>832.2</ele><time>2026-04-03T14:30:17.999Z</time></trkpt><trkpt lat="43.78323126032377" lon="12.24924037367975"><ele>832.4000000000001</ele><time>2026-04-03T14:30:18.999Z</time></trkpt><trkpt lat="43.78322905103504" lon="12.24938642653691"><ele>832.5999999999999</ele><time>2026-04-03T14:30:19.999Z</time></trkpt><trkpt lat="43.783225114224116" lon="12.249546924246275"><ele>832.8</ele><time>2026-04-03T14:30:20.999Z</time></trkpt><trkpt lat="43.78322134087664" lon="12.249720619324666"><ele>833.0</ele><time>2026-04-03T14:30:21.999Z</time></trkpt><trkpt lat="43.78321955339728" lon="12.249904624692196"><ele>834.0</ele><time>2026-04-03T14:30:22.999Z</time></trkpt><trkpt lat="43.783216633839075" lon="12.250080349162076"><ele>835.0</ele><time>2026-04-03T14:30:23.999Z</time></trkpt><trkpt lat="43.783212233422944" lon="12.250260126261065"><ele>836.0</ele><time>2026-04-03T14:30:24.999Z</time></trkpt><trkpt lat="43.783208386697616" lon="12.250442833923701"><ele>837.0</ele><time>2026-04-03T14:30:25.999Z</time></trkpt><trkpt lat="43.783214503468656" lon="12.250628596976997"><ele>838.25</ele><time>2026-04-03T14:30:26.999Z</time></trkpt><trkpt lat="43.78322771598218" lon="12.250812892704174"><ele>839.5</ele><time>2026-04-03T14:30:27.999Z</time></trkpt><trkpt lat="43.78324533594749" lon="12.250996911747801"><ele>840.75</ele><time>2026-04-03T14:30:28.999Z</time></trkpt><trkpt lat="43.783266081196345" lon="12.251179598847722"><ele>842.0</ele><time>2026-04-03T14:30:29.999Z</time></trkpt><trkpt lat="43.783284485337866" lon="12.251363937952032"><ele>843.25</ele><time>2026-04-03T14:30:30.999Z</time></trkpt><trkpt lat="43.78330043965793" lon="12.251550766700221"><ele>844.5</ele><time>2026-04-03T14:30:31.999Z</time></trkpt><trkpt lat="43.78330692834382" lon="12.251748518853548"><ele>845.75</ele><time>2026-04-03T14:30:32.999Z</time></trkpt><trkpt lat="43.78330936055784" lon="12.251955131340448"><ele>847.0</ele><time>2026-04-03T14:30:33.999Z</time></trkpt><trkpt lat="43.783309070820884" lon="12.252163970448084"><ele>848.6666666666666</ele><time>2026-04-03T14:30:34.999Z</time></trkpt><trkpt lat="43.78330998038578" lon="12.25237861271332"><ele>850.3333333333333</ele><time>2026-04-03T14:30:35.999Z</time></trkpt><trkpt lat="43.78331656880107" lon="12.252596197319956"><ele>852.0</ele><time>2026-04-03T14:30:36.999Z</time></trkpt><trkpt lat="43.783319810067226" lon="12.252806175752884"><ele>852.0</ele><time>2026-04-03T14:30:37.999Z</time></trkpt><trkpt lat="43.7833216827354" lon="12.252997117081378"><ele>852.0</ele><time>2026-04-03T14:30:38.999Z</time></trkpt><trkpt lat="43.78332246224201" lon="12.253183242337734"><ele>852.0</ele><time>2026-04-03T14:30:39.999Z</time></trkpt><trkpt lat="43.78331816747572" lon="12.253371349680291"><ele>852.0</ele><time>2026-04-03T14:30:40.999Z</time></trkpt><trkpt lat="43.783307250323055" lon="12.253557701140071"><ele>852.75</ele><time>2026-04-03T14:30:41.999Z</time></trkpt><trkpt lat="43.78328385510943" lon="12.253748095967893"><ele>853.5</ele><time>2026-04-03T14:30:42.999Z</time></trkpt><trkpt lat="43.783250835304344" lon="12.253940487403613"><ele>854.25</ele><time>2026-04-03T14:30:43.999Z</time></trkpt><trkpt lat="43.78321249290106" lon="12.254141679535664"><ele>855.0</ele><time>2026-04-03T14:30:44.999Z</time></trkpt><trkpt lat="43.78317615544327" lon="12.254346040724958"><ele>855.3333333333333</ele><time>2026-04-03T14:30:45.999Z</time></trkpt><trkpt lat="43.78313586085938" lon="12.254550707698419"><ele>855.6666666666666</ele><time>2026-04-03T14:30:46.999Z</time></trkpt><trkpt lat="43.783096612663876" lon="12.254754931878447"><ele>856.0</ele><time>2026-04-03T14:30:47.999Z</time></trkpt><trkpt lat="43.7830584046986" lon="12.254957267739705"><ele>856.75</ele><time>2026-04-03T14:30:48.999Z</time></trkpt><trkpt lat="43.78301882285951" lon="12.255156605638176"><ele>857.5</ele><time>2026-04-03T14:30:49.999Z</time></trkpt><trkpt lat="43.78298039617085" lon="12.255354608418056"><ele>858.25</ele><time>2026-04-03T14:30:50.999Z</time></trkpt><trkpt lat="43.78293928612036" lon="12.255551608669444"><ele>859.0</ele><time>2026-04-03T14:30:51.999Z</time></trkpt><trkpt lat="43.78289982018972" lon="12.255754848394321"><ele>862.0</ele><time>2026-04-03T14:30:53Z</time></trkpt><trkpt lat="43.78286283772261" lon="12.255962207361671"><ele>865.0</ele><time>2026-04-03T14:30:54Z</time></trkpt><trkpt lat="43.78282442954062" lon="12.256168860181184"><ele>868.0</ele><time>2026-04-03T14:30:55Z</time></trkpt><trkpt lat="43.78278631920722" lon="12.256378974965111"><ele>870.0</ele><time>2026-04-03T14:30:56Z</time></trkpt><trkpt lat="43.78275345303255" lon="12.25658782569365"><ele>872.0</ele><time>2026-04-03T14:30:57Z</time></trkpt><trkpt lat="43.78273583003378" lon="12.256804066116336"><ele>874.0</ele><time>2026-04-03T14:30:58Z</time></trkpt><trkpt lat="43.78272368344137" lon="12.257033756864686"><ele>874.0</ele><time>2026-04-03T14:30:59Z</time></trkpt><trkpt lat="43.78271520413461" lon="12.257264599306616"><ele>874.0</ele><time>2026-04-03T14:31:00Z</time></trkpt><trkpt lat="43.782707221583934" lon="12.257499065420575"><ele>874.0</ele><time>2026-04-03T14:31:01Z</time></trkpt><trkpt lat="43.78270307403638" lon="12.257733479465546"><ele>876.0</ele><time>2026-04-03T14:31:02Z</time></trkpt><trkpt lat="43.78270857594663" lon="12.257971220385956"><ele>878.0</ele><time>2026-04-03T14:31:03Z</time></trkpt><trkpt lat="43.78272445260514" lon="12.258214349837962"><ele>880.0</ele><time>2026-04-03T14:31:04Z</time></trkpt><trkpt lat="43.78274776538925" lon="12.258436181254464"><ele>881.3333333333333</ele><time>2026-04-03T14:31:05Z</time></trkpt><trkpt lat="43.78278027654237" lon="12.258655731581404"><ele>882.6666666666667</ele><time>2026-04-03T14:31:06Z</time></trkpt><trkpt lat="43.7828151044817" lon="12.258868071596059"><ele>884.0</ele><time>2026-04-03T14:31:07Z</time></trkpt><trkpt lat="43.78284123311959" lon="12.259079418209962"><ele>885.0</ele><time>2026-04-03T14:31:08Z</time></trkpt><trkpt lat="43.78285422838162" lon="12.259286617660138"><ele>886.0</ele><time>2026-04-03T14:31:09Z</time></trkpt><trkpt lat="43.78284297898383" lon="12.259502499328999"><ele>887.0</ele><time>2026-04-03T14:31:10Z</time></trkpt><trkpt lat="43.7827969247104" lon="12.259715484084973"><ele>887.6666666666667</ele><time>2026-04-03T14:31:11Z</time></trkpt><trkpt lat="43.78276572956988" lon="12.259940164212688"><ele>888.3333333333333</ele><time>2026-04-03T14:31:12Z</time></trkpt><trkpt lat="43.78271547933588" lon="12.260157204866621"><ele>889.0</ele><time>2026-04-03T14:31:13Z</time></trkpt><trkpt lat="43.78266761871018" lon="12.260378205964082"><ele>894.0</ele><time>2026-04-03T14:31:14Z</time></trkpt><trkpt lat="43.78262269320004" lon="12.260602324427682"><ele>899.0</ele><time>2026-04-03T14:31:15Z</time></trkpt><trkpt lat="43.78256416834879" lon="12.260808984615684"><ele>904.0</ele><time>2026-04-03T14:31:16Z</time></trkpt><trkpt lat="43.78252285221724" lon="12.261000046970159"><ele>904.0</ele><time>2026-04-03T14:31:17Z</time></trkpt><trkpt lat="43.78247202241259" lon="12.261166647533132"><ele>904.0</ele><time>2026-04-03T14:31:18Z</time></trkpt><trkpt lat="43.782402694406926" lon="12.261294396711575"><ele>904.0</ele><time>2026-04-03T14:31:19Z</time></trkpt><trkpt lat="43.78230649497414" lon="12.261400897716756"><ele>904.0</ele><time>2026-04-03T14:31:20Z</time></trkpt><trkpt lat="43.7821741354991" lon="12.261453455352367"><ele>905.3333333333333</ele><time>2026-04-03T14:31:21Z</time></trkpt><trkpt lat="43.78202102939705" lon="12.261506760846984"><ele>906.6666666666667</ele><time>2026-04-03T14:31:22Z</time></trkpt><trkpt lat="43.78185678387132" lon="12.261559143531294"><ele>908.0</ele><time>2026-04-03T14:31:23Z</time></trkpt><trkpt lat="43.78169787296398" lon="12.26161697029372"><ele>908.0</ele><time>2026-04-03T14:31:24Z</time></trkpt><trkpt lat="43.781571493367345" lon="12.261705254628726"><ele>908.0</ele><time>2026-04-03T14:31:25Z</time></trkpt><trkpt lat="43.78147202120384" lon="12.261760417717106"><ele>908.0</ele><time>2026-04-03T14:31:26Z</time></trkpt><trkpt lat="43.78142414305572" lon="12.261890619874253"><ele>908.0</ele><time>2026-04-03T14:31:27Z</time></trkpt><trkpt lat="43.781404275104165" lon="12.262018577092542"><ele>908.0</ele><time>2026-04-03T14:31:28Z</time></trkpt><trkpt lat="43.781415341826936" lon="12.262156832652007"><ele>911.0</ele><time>2026-04-03T14:31:29Z</time></trkpt><trkpt lat="43.781470449083784" lon="12.262289653234355"><ele>914.0</ele><time>2026-04-03T14:31:30Z</time></trkpt><trkpt lat="43.78155939364956" lon="12.262397791741988"><ele>917.0</ele><time>2026-04-03T14:31:31Z</time></trkpt><trkpt lat="43.78168178781288" lon="12.262458201416681"><ele>920.0</ele><time>2026-04-03T14:31:32Z</time></trkpt><trkpt lat="43.781819638872236" lon="12.262506260854986"><ele>922.3333333333334</ele><time>2026-04-03T14:31:33Z</time></trkpt><trkpt lat="43.78196524033587" lon="12.26257229494839"><ele>924.6666666666667</ele><time>2026-04-03T14:31:34Z</time></trkpt><trkpt lat="43.78211589452143" lon="12.262640740681004"><ele>927.0</ele><time>2026-04-03T14:31:35Z</time></trkpt><trkpt lat="43.7822714966889" lon="12.26271409001462"><ele>927.0</ele><time>2026-04-03T14:31:36Z</time></trkpt><trkpt lat="43.782426097265834" lon="12.262774182367753"><ele>927.0</ele><time>2026-04-03T14:31:37Z</time></trkpt><trkpt lat="43.78258148830157" lon="12.262792767438095"><ele>927.0</ele><time>2026-04-03T14:31:38Z</time></trkpt><trkpt lat="43.78274102570238" lon="12.262781518474306"><ele>930.6666666666667</ele><time>2026-04-03T14:31:39Z</time></trkpt><trkpt lat="43.782900848364676" lon="12.26272751148878"><ele>934.3333333333334</ele><time>2026-04-03T14:31:40Z</time></trkpt><trkpt lat="43.783057352402516" lon="12.262649351566782"><ele>938.0</ele><time>2026-04-03T14:31:41Z</time></trkpt><trkpt lat="43.783209058840505" lon="12.26255260731124"><ele>938.0</ele><time>2026-04-03T14:31:42Z</time></trkpt><trkpt lat="43.78334821366619" lon="12.262447834423204"><ele>938.0</ele><time>2026-04-03T14:31:43Z</time></trkpt><trkpt lat="43.78346317284825" lon="12.262354254243101"><ele>938.0</ele><time>2026-04-03T14:31:44Z</time></trkpt><trkpt lat="43.78355406962443" lon="12.262281780463233"><ele>938.0</ele><time>2026-04-03T14:31:45Z</time></trkpt><trkpt lat="43.78364242306637" lon="12.262245809294136"><ele>939.1666666666667</ele><time>2026-04-03T14:31:46Z</time></trkpt><trkpt lat="43.78373201447033" lon="12.262262159496625"><ele>940.3333333333334</ele><time>2026-04-03T14:31:47Z</time></trkpt><trkpt lat="43.78380613112943" lon="12.262326794429034"><ele>941.5</ele><time>2026-04-03T14:31:48Z</time></trkpt><trkpt lat="43.78385466642623" lon="12.262428685443071"><ele>942.6666666666667</ele><time>2026-04-03T14:31:49Z</time></trkpt><trkpt lat="43.783873219116806" lon="12.262545019185927"><ele>943.8333333333334</ele><time>2026-04-03T14:31:50Z</time></trkpt><trkpt lat="43.78385465516162" lon="12.26266328926393"><ele>945.0</ele><time>2026-04-03T14:31:51Z</time></trkpt><trkpt lat="43.783773462782456" lon="12.262742857531332"><ele>945.0</ele><time>2026-04-03T14:31:52Z</time></trkpt><trkpt lat="43.78368223875154" lon="12.262828650091263"><ele>945.0</ele><time>2026-04-03T14:31:53Z</time></trkpt><trkpt lat="43.78357836027063" lon="12.262926134112965"><ele>945.0</ele><time>2026-04-03T14:31:54Z</time></trkpt><trkpt lat="43.78346292491072" lon="12.26303428096925"><ele>945.0</ele><time>2026-04-03T14:31:55Z</time></trkpt><trkpt lat="43.78333798140149" lon="12.263158315891333"><ele>948.3333333333333</ele><time>2026-04-03T14:31:56Z</time></trkpt><trkpt lat="43.78321735235596" lon="12.263315043700484"><ele>951.6666666666666</ele><time>2026-04-03T14:31:57Z</time></trkpt><trkpt lat="43.7830812517155" lon="12.263462317735172"><ele>955.0</ele><time>2026-04-03T14:31:58Z</time></trkpt><trkpt lat="43.78297308703889" lon="12.263651007847463"><ele>955.0</ele><time>2026-04-03T14:31:58.999Z</time></trkpt><trkpt lat="43.782864964792985" lon="12.26381106020797"><ele>955.0</ele><time>2026-04-03T14:31:59.999Z</time></trkpt><trkpt lat="43.78275592677798" lon="12.263977671689904"><ele>955.0</ele><time>2026-04-03T14:32:00.999Z</time></trkpt><trkpt lat="43.78264175642697" lon="12.26414081804465"><ele>957.6666666666666</ele><time>2026-04-03T14:32:01.999Z</time></trkpt><trkpt lat="43.78252650936583" lon="12.2643028717308"><ele>960.3333333333333</ele><time>2026-04-03T14:32:02.999Z</time></trkpt><trkpt lat="43.78241619560408" lon="12.264473276090056"><ele>963.0</ele><time>2026-04-03T14:32:03.999Z</time></trkpt><trkpt lat="43.7822941687138" lon="12.264622374620972"><ele>963.0</ele><time>2026-04-03T14:32:04.999Z</time></trkpt><trkpt lat="43.78217601188189" lon="12.264768477877373"><ele>963.0</ele><time>2026-04-03T14:32:05.999Z</time></trkpt><trkpt lat="43.782036662063796" lon="12.26486646154436"><ele>963.0</ele><time>2026-04-03T14:32:06.999Z</time></trkpt><trkpt lat="43.78188583118403" lon="12.264932408759446"><ele>965.6666666666667</ele><time>2026-04-03T14:32:07.999Z</time></trkpt><trkpt lat="43.781731965623706" lon="12.264994255120394"><ele>968.3333333333334</ele><time>2026-04-03T14:32:08.999Z</time></trkpt><trkpt lat="43.78157576066084" lon="12.265053186462927"><ele>971.0</ele><time>2026-04-03T14:32:09.999Z</time></trkpt><trkpt lat="43.78141997742577" lon="12.265111520310382"><ele>971.0</ele><time>2026-04-03T14:32:10.999Z</time></trkpt><trkpt lat="43.78126195439282" lon="12.265169939877953"><ele>971.0</ele><time>2026-04-03T14:32:11.999Z</time></trkpt><trkpt lat="43.781103235451" lon="12.265230665897498"><ele>971.0</ele><time>2026-04-03T14:32:12.999Z</time></trkpt><trkpt lat="43.7809457520282" lon="12.265303946404908"><ele>969.5</ele><time>2026-04-03T14:32:13.999Z</time></trkpt><trkpt lat="43.78080650135679" lon="12.265391808909445"><ele>968.0</ele><time>2026-04-03T14:32:14.999Z</time></trkpt><trkpt lat="43.78069361885346" lon="12.265511347782157"><ele>966.5</ele><time>2026-04-03T14:32:15.999Z</time></trkpt><trkpt lat="43.78061556269225" lon="12.26567745034783"><ele>965.0</ele><time>2026-04-03T14:32:16.999Z</time></trkpt><trkpt lat="43.78054730159118" lon="12.265849633097318"><ele>970.0</ele><time>2026-04-03T14:32:17.999Z</time></trkpt><trkpt lat="43.78050261795053" lon="12.26604368404238"><ele>975.0</ele><time>2026-04-03T14:32:18.999Z</time></trkpt><trkpt lat="43.7804852974835" lon="12.266248007664707"><ele>980.0</ele><time>2026-04-03T14:32:19.999Z</time></trkpt><trkpt lat="43.78049942788569" lon="12.266459716206414"><ele>985.0</ele><time>2026-04-03T14:32:20.999Z</time></trkpt><trkpt lat="43.780540214983596" lon="12.266673450809845"><ele>985.0</ele><time>2026-04-03T14:32:21.999Z</time></trkpt><trkpt lat="43.78059704567382" lon="12.266888251606106"><ele>985.0</ele><time>2026-04-03T14:32:22.999Z</time></trkpt><trkpt lat="43.7806608554391" lon="12.267110012459476"><ele>985.0</ele><time>2026-04-03T14:32:23.999Z</time></trkpt><trkpt lat="43.78072302873651" lon="12.267343741654201"><ele>985.0</ele><time>2026-04-03T14:32:24.999Z</time></trkpt><trkpt lat="43.78078537500083" lon="12.26758277163295"><ele>985.0</ele><time>2026-04-03T14:32:25.999Z</time></trkpt><trkpt lat="43.78084812670986" lon="12.26783155895635"><ele>985.0</ele><time>2026-04-03T14:32:26.999Z</time></trkpt><trkpt lat="43.7809181044893" lon="12.2680803090747"><ele>984.0</ele><time>2026-04-03T14:32:27.999Z</time></trkpt><trkpt lat="43.78099673756298" lon="12.268331316108029"><ele>983.0</ele><time>2026-04-03T14:32:28.999Z</time></trkpt><trkpt lat="43.78107696677747" lon="12.268570976445028"><ele>982.0</ele><time>2026-04-03T14:32:29.999Z</time></trkpt><trkpt lat="43.78115554928674" lon="12.26879410860424"><ele>984.3333333333333</ele><time>2026-04-03T14:32:30.999Z</time></trkpt><trkpt lat="43.781232211779205" lon="12.26901876143309"><ele>986.6666666666667</ele><time>2026-04-03T14:32:31.999Z</time></trkpt><trkpt lat="43.78130747049196" lon="12.269246020920484"><ele>989.0</ele><time>2026-04-03T14:32:32.999Z</time></trkpt><trkpt lat="43.78138628338821" lon="12.26947074320337"><ele>989.0</ele><time>2026-04-03T14:32:33.999Z</time></trkpt><trkpt lat="43.78146653559603" lon="12.269695389456786"><ele>989.0</ele><time>2026-04-03T14:32:34.999Z</time></trkpt><trkpt lat="43.78154856214028" lon="12.269921958615834"><ele>989.0</ele><time>2026-04-03T14:32:35.999Z</time></trkpt><trkpt lat="43.781632648537204" lon="12.270148920292753"><ele>988.6666666666667</ele><time>2026-04-03T14:32:36.999Z</time></trkpt><trkpt lat="43.7817129948652" lon="12.270375627924711"><ele>988.3333333333333</ele><time>2026-04-03T14:32:37.999Z</time></trkpt><trkpt lat="43.78178866797384" lon="12.270601532473822"><ele>988.0</ele><time>2026-04-03T14:32:38.999Z</time></trkpt><trkpt lat="43.78184334069244" lon="12.270834115158733"><ele>990.0</ele><time>2026-04-03T14:32:39.999Z</time></trkpt><trkpt lat="43.78186470724758" lon="12.271078754337475"><ele>992.0</ele><time>2026-04-03T14:32:40.999Z</time></trkpt><trkpt lat="43.78186958361408" lon="12.2713252032875"><ele>994.0</ele><time>2026-04-03T14:32:41.999Z</time></trkpt><trkpt lat="43.781850264645506" lon="12.271557802876599"><ele>993.6666666666666</ele><time>2026-04-03T14:32:42.999Z</time></trkpt><trkpt lat="43.78178483471052" lon="12.271812115538992"><ele>993.3333333333333</ele><time>2026-04-03T14:32:43.999Z</time></trkpt><trkpt lat="43.78172903214699" lon="12.272068715128409"><ele>993.0</ele><time>2026-04-03T14:32:44.999Z</time></trkpt><trkpt lat="43.78167233947103" lon="12.272329408501003"><ele>993.0</ele><time>2026-04-03T14:32:45.999Z</time></trkpt><trkpt lat="43.7816142992309" lon="12.272596298507947"><ele>993.0</ele><time>2026-04-03T14:32:46.999Z</time></trkpt><trkpt lat="43.78155534502105" lon="12.2728673913155"><ele>993.0</ele><time>2026-04-03T14:32:47.999Z</time></trkpt><trkpt lat="43.78149626082473" lon="12.273139082305562"><ele>992.6666666666667</ele><time>2026-04-03T14:32:48.999Z</time></trkpt><trkpt lat="43.78143611330225" lon="12.273415661442382"><ele>992.3333333333334</ele><time>2026-04-03T14:32:49.999Z</time></trkpt><trkpt lat="43.7813766204573" lon="12.273689231478237"><ele>992.0</ele><time>2026-04-03T14:32:50.999Z</time></trkpt><trkpt lat="43.78131736354221" lon="12.273961716334147"><ele>991.6666666666667</ele><time>2026-04-03T14:32:51.999Z</time></trkpt><trkpt lat="43.78125777343353" lon="12.274234312403252"><ele>991.3333333333333</ele><time>2026-04-03T14:32:52.999Z</time></trkpt><trkpt lat="43.781197948369204" lon="12.274507961069506"><ele>991.0</ele><time>2026-04-03T14:32:53.999Z</time></trkpt><trkpt lat="43.7811378502476" lon="12.274782858974675"><ele>991.0</ele><time>2026-04-03T14:32:54.999Z</time></trkpt><trkpt lat="43.781077469060094" lon="12.27505905201432"><ele>991.0</ele><time>2026-04-03T14:32:55.999Z</time></trkpt><trkpt lat="43.781016787513" lon="12.275336619079438"><ele>991.0</ele><time>2026-04-03T14:32:56.999Z</time></trkpt><trkpt lat="43.78095635200829" lon="12.27561305992161"><ele>994.3333333333333</ele><time>2026-04-03T14:32:57.999Z</time></trkpt><trkpt lat="43.78089526144985" lon="12.2758924969715"><ele>997.6666666666667</ele><time>2026-04-03T14:32:59Z</time></trkpt><trkpt lat="43.78083378898508" lon="12.276173681176099"><ele>1001.0</ele><time>2026-04-03T14:33:00Z</time></trkpt><trkpt lat="43.780772072814706" lon="12.276456083808808"><ele>1001.0</ele><time>2026-04-03T14:33:01Z</time></trkpt><trkpt lat="43.78071084486288" lon="12.2767362712624"><ele>1001.0</ele><time>2026-04-03T14:33:02Z</time></trkpt><trkpt lat="43.78065090712779" lon="12.27701055601974"><ele>1001.0</ele><time>2026-04-03T14:33:03Z</time></trkpt><trkpt lat="43.78059083287969" lon="12.277285463850097"><ele>1001.3333333333334</ele><time>2026-04-03T14:33:04Z</time></trkpt><trkpt lat="43.78053055465811" lon="12.277561305455318"><ele>1001.6666666666667</ele><time>2026-04-03T14:33:05Z</time></trkpt><trkpt lat="43.78047236455425" lon="12.277833068115413"><ele>1002.0</ele><time>2026-04-03T14:33:06Z</time></trkpt><trkpt lat="43.78041344960628" lon="12.278109812173293"><ele>1002.0</ele><time>2026-04-03T14:33:07Z</time></trkpt><trkpt lat="43.78035383562777" lon="12.278389839904587"><ele>1002.0</ele><time>2026-04-03T14:33:08Z</time></trkpt><trkpt lat="43.78029811503866" lon="12.278651578996735"><ele>1002.0</ele><time>2026-04-03T14:33:09Z</time></trkpt><trkpt lat="43.780247321709936" lon="12.2788901731486"><ele>1002.0</ele><time>2026-04-03T14:33:10Z</time></trkpt><trkpt lat="43.780199363969864" lon="12.27910100397795"><ele>1002.0</ele><time>2026-04-03T14:33:11Z</time></trkpt><trkpt lat="43.780145504959634" lon="12.279280766288368"><ele>1002.0</ele><time>2026-04-03T14:33:12Z</time></trkpt><trkpt lat="43.78007562453088" lon="12.279412934880208"><ele>1002.0</ele><time>2026-04-03T14:33:13Z</time></trkpt><trkpt lat="43.7799999308786" lon="12.279519873737247"><ele>1003.25</ele><time>2026-04-03T14:33:14Z</time></trkpt><trkpt lat="43.779906239493116" lon="12.279601757561043"><ele>1004.5</ele><time>2026-04-03T14:33:15Z</time></trkpt><trkpt lat="43.77979435931758" lon="12.279649891651353"><ele>1005.75</ele><time>2026-04-03T14:33:16Z</time></trkpt><trkpt lat="43.77966150717731" lon="12.279675597981116"><ele>1007.0</ele><time>2026-04-03T14:33:17Z</time></trkpt><trkpt lat="43.77951232188622" lon="12.27969569628199"><ele>1006.3333333333334</ele><time>2026-04-03T14:33:18Z</time></trkpt><trkpt lat="43.779347278425014" lon="12.279720421340654"><ele>1005.6666666666667</ele><time>2026-04-03T14:33:19Z</time></trkpt><trkpt lat="43.779186637102505" lon="12.279753312882859"><ele>1005.0</ele><time>2026-04-03T14:33:20Z</time></trkpt><trkpt lat="43.77905951469943" lon="12.279801275132492"><ele>1003.75</ele><time>2026-04-03T14:33:21Z</time></trkpt><trkpt lat="43.77897694960308" lon="12.27991799779412"><ele>1002.5</ele><time>2026-04-03T14:33:22Z</time></trkpt><trkpt lat="43.778906962808705" lon="12.280043458124098"><ele>1001.25</ele><time>2026-04-03T14:33:23Z</time></trkpt><trkpt lat="43.77887579748407" lon="12.280213874593052"><ele>1000.0</ele><time>2026-04-03T14:33:24Z</time></trkpt><trkpt lat="43.77885062949096" lon="12.280424001459451"><ele>1000.3333333333333</ele><time>2026-04-03T14:33:25Z</time></trkpt><trkpt lat="43.77884214680006" lon="12.280654469433188"><ele>1000.6666666666667</ele><time>2026-04-03T14:33:26Z</time></trkpt><trkpt lat="43.77881850362819" lon="12.280901894061081"><ele>1001.0</ele><time>2026-04-03T14:33:27Z</time></trkpt><trkpt lat="43.778810357416795" lon="12.281165200585693"><ele>1001.0</ele><time>2026-04-03T14:33:28Z</time></trkpt><trkpt lat="43.778818701125125" lon="12.28142884152361"><ele>1001.0</ele><time>2026-04-03T14:33:29Z</time></trkpt><trkpt lat="43.77880846448675" lon="12.281677634139223"><ele>1001.0</ele><time>2026-04-03T14:33:30Z</time></trkpt><trkpt lat="43.77879729464403" lon="12.281929467031784"><ele>1000.3333333333334</ele><time>2026-04-03T14:33:31Z</time></trkpt><trkpt lat="43.77879064262548" lon="12.282183405371176"><ele>999.6666666666667</ele><time>2026-04-03T14:33:32Z</time></trkpt><trkpt lat="43.778792350439424" lon="12.282436179460408"><ele>999.0</ele><time>2026-04-03T14:33:33Z</time></trkpt><trkpt lat="43.77881404983417" lon="12.282690796899727"><ele>999.0</ele><time>2026-04-03T14:33:34Z</time></trkpt><trkpt lat="43.77885423861174" lon="12.28293990351899"><ele>999.0</ele><time>2026-04-03T14:33:35Z</time></trkpt><trkpt lat="43.778904379499544" lon="12.283193599335412"><ele>999.0</ele><time>2026-04-03T14:33:36Z</time></trkpt><trkpt lat="43.778959776452844" lon="12.283448936475395"><ele>1000.0</ele><time>2026-04-03T14:33:37Z</time></trkpt><trkpt lat="43.779020585945574" lon="12.28371080290775"><ele>1001.0</ele><time>2026-04-03T14:33:38Z</time></trkpt><trkpt lat="43.779087956964425" lon="12.283975142698887"><ele>1002.0</ele><time>2026-04-03T14:33:39Z</time></trkpt><trkpt lat="43.77915446667671" lon="12.284243609327657"><ele>1002.0</ele><time>2026-04-03T14:33:40Z</time></trkpt><trkpt lat="43.77921467079313" lon="12.284513252620123"><ele>1002.0</ele><time>2026-04-03T14:33:41Z</time></trkpt><trkpt lat="43.77927727335523" lon="12.284784963393014"><ele>1002.0</ele><time>2026-04-03T14:33:42Z</time></trkpt><trkpt lat="43.77934248536671" lon="12.2850529739589"><ele>1001.0</ele><time>2026-04-03T14:33:43Z</time></trkpt><trkpt lat="43.77940315753833" lon="12.285307146599536"><ele>1000.0</ele><time>2026-04-03T14:33:44Z</time></trkpt><trkpt lat="43.77945811194083" lon="12.2855484729295"><ele>999.0</ele><time>2026-04-03T14:33:45Z</time></trkpt><trkpt lat="43.77950646330285" lon="12.285783183114926"><ele>999.0</ele><time>2026-04-03T14:33:46Z</time></trkpt><trkpt lat="43.77955975185138" lon="12.286008891641472"><ele>999.0</ele><time>2026-04-03T14:33:47Z</time></trkpt><trkpt lat="43.77961157331458" lon="12.28623602648958"><ele>999.0</ele><time>2026-04-03T14:33:48Z</time></trkpt><trkpt lat="43.77966483467034" lon="12.286462256705349"><ele>1000.3333333333333</ele><time>2026-04-03T14:33:49Z</time></trkpt><trkpt lat="43.7796974850284" lon="12.28667662965905"><ele>1001.6666666666666</ele><time>2026-04-03T14:33:50Z</time></trkpt><trkpt lat="43.77969754961519" lon="12.28688187001242"><ele>1003.0</ele><time>2026-04-03T14:33:51Z</time></trkpt><trkpt lat="43.779652730720215" lon="12.287089835987581"><ele>1002.0</ele><time>2026-04-03T14:33:52Z</time></trkpt><trkpt lat="43.77962326609917" lon="12.28731643287392"><ele>1001.0</ele><time>2026-04-03T14:33:53Z</time></trkpt><trkpt lat="43.779604193777395" lon="12.28755234403503"><ele>1000.0</ele><time>2026-04-03T14:33:54Z</time></trkpt><trkpt lat="43.779570641738275" lon="12.287794973506209"><ele>1000.0</ele><time>2026-04-03T14:33:55Z</time></trkpt><trkpt lat="43.7795249950733" lon="12.288037931088336"><ele>1000.0</ele><time>2026-04-03T14:33:56Z</time></trkpt><trkpt lat="43.77943489767453" lon="12.288264131039476"><ele>1000.0</ele><time>2026-04-03T14:33:57Z</time></trkpt><trkpt lat="43.779337989107326" lon="12.288480259794282"><ele>1001.3333333333333</ele><time>2026-04-03T14:33:58Z</time></trkpt><trkpt lat="43.7792479326024" lon="12.288681163393152"><ele>1002.6666666666667</ele><time>2026-04-03T14:33:59Z</time></trkpt><trkpt lat="43.77917545961" lon="12.288874209230977"><ele>1004.0</ele><time>2026-04-03T14:34:00Z</time></trkpt><trkpt lat="43.77914196265736" lon="12.289075220438724"><ele>1004.0</ele><time>2026-04-03T14:34:01Z</time></trkpt><trkpt lat="43.77910560833307" lon="12.289251397085453"><ele>1004.0</ele><time>2026-04-03T14:34:01.999Z</time></trkpt><trkpt lat="43.77912267106479" lon="12.289432482169337"><ele>1004.0</ele><time>2026-04-03T14:34:02.999Z</time></trkpt><trkpt lat="43.7791422293944" lon="12.289621034840435"><ele>1004.0</ele><time>2026-04-03T14:34:03.999Z</time></trkpt><trkpt lat="43.77916712436218" lon="12.289823746345096"><ele>1005.3333333333334</ele><time>2026-04-03T14:34:04.999Z</time></trkpt><trkpt lat="43.779201598448786" lon="12.290028768653661"><ele>1006.6666666666667</ele><time>2026-04-03T14:34:05.999Z</time></trkpt><trkpt lat="43.77923497266892" lon="12.290247747926726"><ele>1008.0</ele><time>2026-04-03T14:34:06.999Z</time></trkpt><trkpt lat="43.77927236088572" lon="12.290478212639309"><ele>1008.6666666666667</ele><time>2026-04-03T14:34:07.999Z</time></trkpt><trkpt lat="43.77931088322324" lon="12.29071149192741"><ele>1009.3333333333334</ele><time>2026-04-03T14:34:08.999Z</time></trkpt><trkpt lat="43.77934936543112" lon="12.29095320017835"><ele>1010.0</ele><time>2026-04-03T14:34:09.999Z</time></trkpt><trkpt lat="43.77939144608348" lon="12.291199948285366"><ele>1006.3333333333334</ele><time>2026-04-03T14:34:10.999Z</time></trkpt><trkpt lat="43.77943571077522" lon="12.291453643264239"><ele>1002.6666666666667</ele><time>2026-04-03T14:34:11.999Z</time></trkpt><trkpt lat="43.77947697216454" lon="12.291715948859759"><ele>999.0</ele><time>2026-04-03T14:34:12.999Z</time></trkpt><trkpt lat="43.77951731052097" lon="12.291979577993176"><ele>999.0</ele><time>2026-04-03T14:34:13.999Z</time></trkpt><trkpt lat="43.77956060884282" lon="12.292242267532147"><ele>999.0</ele><time>2026-04-03T14:34:14.999Z</time></trkpt><trkpt lat="43.779606895387076" lon="12.29250783944802"><ele>999.0</ele><time>2026-04-03T14:34:15.999Z</time></trkpt><trkpt lat="43.779645633399326" lon="12.292759072368982"><ele>998.0</ele><time>2026-04-03T14:34:16.999Z</time></trkpt><trkpt lat="43.77967545371207" lon="12.292998308094623"><ele>997.0</ele><time>2026-04-03T14:34:17.999Z</time></trkpt><trkpt lat="43.77969445687229" lon="12.293234983250247"><ele>996.0</ele><time>2026-04-03T14:34:18.999Z</time></trkpt><trkpt lat="43.779698421295016" lon="12.29348378089771"><ele>995.6666666666667</ele><time>2026-04-03T14:34:19.999Z</time></trkpt><trkpt lat="43.77969936403777" lon="12.293737814420746"><ele>995.3333333333334</ele><time>2026-04-03T14:34:20.999Z</time></trkpt><trkpt lat="43.77969667211399" lon="12.293997228728669"><ele>995.0</ele><time>2026-04-03T14:34:21.999Z</time></trkpt><trkpt lat="43.77969547476656" lon="12.294260330947958"><ele>994.0</ele><time>2026-04-03T14:34:22.999Z</time></trkpt><trkpt lat="43.779696382915326" lon="12.294520264497946"><ele>993.0</ele><time>2026-04-03T14:34:23.999Z</time></trkpt><trkpt lat="43.77969954989979" lon="12.29473548459326"><ele>992.0</ele><time>2026-04-03T14:34:24.999Z</time></trkpt><trkpt lat="43.779709925174195" lon="12.294893788831596"><ele>992.0</ele><time>2026-04-03T14:34:25.999Z</time></trkpt><trkpt lat="43.77973170457855" lon="12.295040162648508"><ele>992.0</ele><time>2026-04-03T14:34:26.999Z</time></trkpt><trkpt lat="43.77976716301718" lon="12.295185958403572"><ele>992.0</ele><time>2026-04-03T14:34:27.999Z</time></trkpt><trkpt lat="43.77982298802823" lon="12.295321571631622"><ele>992.0</ele><time>2026-04-03T14:34:28.999Z</time></trkpt><trkpt lat="43.779908469026864" lon="12.29545459623251"><ele>992.0</ele><time>2026-04-03T14:34:29.999Z</time></trkpt><trkpt lat="43.78002757294035" lon="12.295575130638175"><ele>992.0</ele><time>2026-04-03T14:34:30.999Z</time></trkpt><trkpt lat="43.78017269310432" lon="12.295679935559185"><ele>992.0</ele><time>2026-04-03T14:34:31.999Z</time></trkpt><trkpt lat="43.78033010729572" lon="12.295782830852525"><ele>993.3333333333334</ele><time>2026-04-03T14:34:32.999Z</time></trkpt><trkpt lat="43.780494975861956" lon="12.295893128911375"><ele>994.6666666666667</ele><time>2026-04-03T14:34:33.999Z</time></trkpt><trkpt lat="43.78066680520923" lon="12.29601566590468"><ele>996.0</ele><time>2026-04-03T14:34:34.999Z</time></trkpt><trkpt lat="43.780835805030506" lon="12.296139878736321"><ele>996.0</ele><time>2026-04-03T14:34:35.999Z</time></trkpt><trkpt lat="43.78100719563483" lon="12.296260042308747"><ele>996.0</ele><time>2026-04-03T14:34:36.999Z</time></trkpt><trkpt lat="43.78117706896766" lon="12.296384709635626"><ele>996.0</ele><time>2026-04-03T14:34:37.999Z</time></trkpt><trkpt lat="43.78134951572955" lon="12.296511202226904"><ele>995.0</ele><time>2026-04-03T14:34:38.999Z</time></trkpt><trkpt lat="43.78152437610322" lon="12.296632834613277"><ele>994.0</ele><time>2026-04-03T14:34:39.999Z</time></trkpt><trkpt lat="43.78169910326233" lon="12.296758639683745"><ele>993.0</ele><time>2026-04-03T14:34:40.999Z</time></trkpt><trkpt lat="43.78187145311987" lon="12.296882686562478"><ele>996.3333333333333</ele><time>2026-04-03T14:34:41.999Z</time></trkpt><trkpt lat="43.78204504937173" lon="12.297004443696997"><ele>999.6666666666666</ele><time>2026-04-03T14:34:42.999Z</time></trkpt><trkpt lat="43.78221432685259" lon="12.297122903683055"><ele>1003.0</ele><time>2026-04-03T14:34:43.999Z</time></trkpt><trkpt lat="43.78237742360172" lon="12.297235567803654"><ele>1003.6666666666666</ele><time>2026-04-03T14:34:44.999Z</time></trkpt><trkpt lat="43.78253611636868" lon="12.297345195118222"><ele>1004.3333333333333</ele><time>2026-04-03T14:34:45.999Z</time></trkpt><trkpt lat="43.78269106203761" lon="12.297457124861202"><ele>1005.0</ele><time>2026-04-03T14:34:46.999Z</time></trkpt><trkpt lat="43.78284347286645" lon="12.29756464802091"><ele>1005.0</ele><time>2026-04-03T14:34:47.999Z</time></trkpt><trkpt lat="43.782991567280696" lon="12.297667202936074"><ele>1005.0</ele><time>2026-04-03T14:34:48.999Z</time></trkpt><trkpt lat="43.7831331596901" lon="12.297768914415066"><ele>1005.0</ele><time>2026-04-03T14:34:49.999Z</time></trkpt><trkpt lat="43.783259722232835" lon="12.297873470444161"><ele>1005.0</ele><time>2026-04-03T14:34:50.999Z</time></trkpt><trkpt lat="43.78337671802932" lon="12.297995134843166"><ele>1005.0</ele><time>2026-04-03T14:34:51.999Z</time></trkpt><trkpt lat="43.78348394553909" lon="12.298141261363781"><ele>1005.0</ele><time>2026-04-03T14:34:52.999Z</time></trkpt><trkpt lat="43.78358024695575" lon="12.298316894445332"><ele>1007.3333333333333</ele><time>2026-04-03T14:34:53.999Z</time></trkpt><trkpt lat="43.78366774191028" lon="12.29850038731733"><ele>1009.6666666666666</ele><time>2026-04-03T14:34:54.999Z</time></trkpt><trkpt lat="43.783752636065536" lon="12.29869386792266"><ele>1012.0</ele><time>2026-04-03T14:34:55.999Z</time></trkpt><trkpt lat="43.78384023221005" lon="12.298883605875641"><ele>1011.25</ele><time>2026-04-03T14:34:56.999Z</time></trkpt><trkpt lat="43.7839271629815" lon="12.299066290418002"><ele>1010.5</ele><time>2026-04-03T14:34:57.999Z</time></trkpt><trkpt lat="43.784009243379316" lon="12.299240874718507"><ele>1009.75</ele><time>2026-04-03T14:34:58.999Z</time></trkpt><trkpt lat="43.784097527940126" lon="12.29938154254388"><ele>1009.0</ele><time>2026-04-03T14:34:59.999Z</time></trkpt><trkpt lat="43.78418310617063" lon="12.29948402926343"><ele>1009.0</ele><time>2026-04-03T14:35:00.999Z</time></trkpt><trkpt lat="43.784272821539524" lon="12.2995769440203"><ele>1009.0</ele><time>2026-04-03T14:35:01.999Z</time></trkpt><trkpt lat="43.784373929345215" lon="12.299655678819505"><ele>1009.0</ele><time>2026-04-03T14:35:02.999Z</time></trkpt><trkpt lat="43.78448120744165" lon="12.299725190733389"><ele>1009.0</ele><time>2026-04-03T14:35:03.999Z</time></trkpt><trkpt lat="43.784596358780874" lon="12.299789929430045"><ele>1008.5</ele><time>2026-04-03T14:35:05Z</time></trkpt><trkpt lat="43.78471552086465" lon="12.299854403233393"><ele>1008.0</ele><time>2026-04-03T14:35:06Z</time></trkpt><trkpt lat="43.784833724206464" lon="12.299916916854555"><ele>1007.5</ele><time>2026-04-03T14:35:07Z</time></trkpt><trkpt lat="43.784940407321805" lon="12.299970826357876"><ele>1007.0</ele><time>2026-04-03T14:35:08Z</time></trkpt><trkpt lat="43.785018972569354" lon="12.300023045295797"><ele>1007.0</ele><time>2026-04-03T14:35:09Z</time></trkpt><trkpt lat="43.78509175707359" lon="12.300083034259716"><ele>1007.0</ele><time>2026-04-03T14:35:10Z</time></trkpt><trkpt lat="43.78516561082728" lon="12.300079872131128"><ele>1007.0</ele><time>2026-04-03T14:35:11Z</time></trkpt><trkpt lat="43.78527095739631" lon="12.300102945153334"><ele>1007.0</ele><time>2026-04-03T14:35:13Z</time></trkpt><trkpt lat="43.78530629795251" lon="12.30033486897689"><ele>1007.0</ele><time>2026-04-03T14:35:15Z</time></trkpt><trkpt lat="43.78533222209037" lon="12.300420747221322"><ele>1007.4000000000001</ele><time>2026-04-03T14:35:16Z</time></trkpt><trkpt lat="43.78535643130254" lon="12.30053519128834"><ele>1007.8000000000001</ele><time>2026-04-03T14:35:17Z</time></trkpt><trkpt lat="43.78538255769736" lon="12.300668226641907"><ele>1008.2</ele><time>2026-04-03T14:35:18Z</time></trkpt><trkpt lat="43.7854086174015" lon="12.300813624677163"><ele>1008.6</ele><time>2026-04-03T14:35:19Z</time></trkpt><trkpt lat="43.78542693154946" lon="12.300949901943115"><ele>1009.0</ele><time>2026-04-03T14:35:20Z</time></trkpt><trkpt lat="43.78542608005077" lon="12.301078822800381"><ele>1009.0</ele><time>2026-04-03T14:35:21Z</time></trkpt><trkpt lat="43.785408825261186" lon="12.301206731143383"><ele>1009.0000000000001</ele><time>2026-04-03T14:35:22Z</time></trkpt><trkpt lat="43.78538640282256" lon="12.301346867338564"><ele>1009.0000000000001</ele><time>2026-04-03T14:35:23Z</time></trkpt><trkpt lat="43.78535379973776" lon="12.301476968357061"><ele>1009.0</ele><time>2026-04-03T14:35:24Z</time></trkpt><trkpt lat="43.78531066926818" lon="12.301599693494914"><ele>1009.0</ele><time>2026-04-03T14:35:25Z</time></trkpt><trkpt lat="43.785251011796575" lon="12.301740714937225"><ele>1005.25</ele><time>2026-04-03T14:35:26Z</time></trkpt><trkpt lat="43.78516110190164" lon="12.301863151746058"><ele>1001.5</ele><time>2026-04-03T14:35:27Z</time></trkpt><trkpt lat="43.78505304272559" lon="12.301963546884917"><ele>997.75</ele><time>2026-04-03T14:35:28Z</time></trkpt><trkpt lat="43.78492879209278" lon="12.302062314461011"><ele>994.0</ele><time>2026-04-03T14:35:29Z</time></trkpt><trkpt lat="43.78479846354491" lon="12.30216240737878"><ele>995.3333333333333</ele><time>2026-04-03T14:35:30Z</time></trkpt><trkpt lat="43.784675845968835" lon="12.302263559636291"><ele>996.6666666666667</ele><time>2026-04-03T14:35:31Z</time></trkpt><trkpt lat="43.784542924790244" lon="12.30236704839174"><ele>998.0</ele><time>2026-04-03T14:35:32Z</time></trkpt><trkpt lat="43.78441032784766" lon="12.302483754428078"><ele>995.4</ele><time>2026-04-03T14:35:33Z</time></trkpt><trkpt lat="43.78428732864324" lon="12.302600649761738"><ele>992.8</ele><time>2026-04-03T14:35:34Z</time></trkpt><trkpt lat="43.78418925534527" lon="12.302688736400313"><ele>990.2</ele><time>2026-04-03T14:35:35Z</time></trkpt><trkpt lat="43.784104671657374" lon="12.302753315668658"><ele>987.6</ele><time>2026-04-03T14:35:36Z</time></trkpt><trkpt lat="43.78402152046946" lon="12.30278581375381"><ele>985.0</ele><time>2026-04-03T14:35:37Z</time></trkpt><trkpt lat="43.78393104508754" lon="12.302759051818844"><ele>985.0</ele><time>2026-04-03T14:35:38Z</time></trkpt><trkpt lat="43.78383988035744" lon="12.302733818260087"><ele>985.0</ele><time>2026-04-03T14:35:39Z</time></trkpt><trkpt lat="43.78374295361612" lon="12.302661418295827"><ele>985.0</ele><time>2026-04-03T14:35:40Z</time></trkpt><trkpt lat="43.783624238430335" lon="12.302563433305323"><ele>985.0</ele><time>2026-04-03T14:35:41Z</time></trkpt><trkpt lat="43.78349213250983" lon="12.302454044883405"><ele>982.6666666666666</ele><time>2026-04-03T14:35:42Z</time></trkpt><trkpt lat="43.78335192947849" lon="12.302337138372277"><ele>980.3333333333333</ele><time>2026-04-03T14:35:43Z</time></trkpt><trkpt lat="43.783199732859266" lon="12.302235596196358"><ele>978.0</ele><time>2026-04-03T14:35:44Z</time></trkpt><trkpt lat="43.78305288558884" lon="12.302106268744826"><ele>978.0</ele><time>2026-04-03T14:35:45Z</time></trkpt><trkpt lat="43.782927036241404" lon="12.30199847850363"><ele>978.0</ele><time>2026-04-03T14:35:46Z</time></trkpt><trkpt lat="43.78283153018913" lon="12.301925056275294"><ele>978.0</ele><time>2026-04-03T14:35:47Z</time></trkpt><trkpt lat="43.78273939791873" lon="12.301852418030146"><ele>978.0</ele><time>2026-04-03T14:35:48Z</time></trkpt><trkpt lat="43.78267325195631" lon="12.301774484619239"><ele>976.4</ele><time>2026-04-03T14:35:49Z</time></trkpt><trkpt lat="43.78260455015832" lon="12.301726844028078"><ele>974.8</ele><time>2026-04-03T14:35:50Z</time></trkpt><trkpt lat="43.78251923540855" lon="12.301693008738857"><ele>973.2</ele><time>2026-04-03T14:35:51Z</time></trkpt><trkpt lat="43.78242944229459" lon="12.301685565547873"><ele>971.6</ele><time>2026-04-03T14:35:52Z</time></trkpt><trkpt lat="43.78232521500646" lon="12.301691321387644"><ele>970.0</ele><time>2026-04-03T14:35:53Z</time></trkpt><trkpt lat="43.7822072923709" lon="12.301752407536918"><ele>970.0</ele><time>2026-04-03T14:35:54Z</time></trkpt><trkpt lat="43.782099981322176" lon="12.301834470506336"><ele>970.0</ele><time>2026-04-03T14:35:55Z</time></trkpt><trkpt lat="43.78198603402969" lon="12.30193820151748"><ele>970.0</ele><time>2026-04-03T14:35:55.999Z</time></trkpt><trkpt lat="43.78186706581758" lon="12.302048553098382"><ele>970.0</ele><time>2026-04-03T14:35:56.999Z</time></trkpt><trkpt lat="43.781749979494215" lon="12.302183048067196"><ele>968.25</ele><time>2026-04-03T14:35:57.999Z</time></trkpt><trkpt lat="43.7816362785288" lon="12.302276118231049"><ele>966.5</ele><time>2026-04-03T14:35:58.999Z</time></trkpt><trkpt lat="43.78153674770264" lon="12.302358542118043"><ele>964.75</ele><time>2026-04-03T14:35:59.999Z</time></trkpt><trkpt lat="43.78143355792824" lon="12.302390143339972"><ele>963.0</ele><time>2026-04-03T14:36:00.999Z</time></trkpt><trkpt lat="43.781337363411545" lon="12.302411820590299"><ele>963.0</ele><time>2026-04-03T14:36:01.999Z</time></trkpt><trkpt lat="43.781240590049045" lon="12.302329941840108"><ele>963.0</ele><time>2026-04-03T14:36:02.999Z</time></trkpt><trkpt lat="43.78114130321353" lon="12.302241360965127"><ele>963.0</ele><time>2026-04-03T14:36:03.999Z</time></trkpt><trkpt lat="43.78103428268638" lon="12.302154487715343"><ele>963.0</ele><time>2026-04-03T14:36:04.999Z</time></trkpt><trkpt lat="43.780916472504174" lon="12.30209695805343"><ele>961.25</ele><time>2026-04-03T14:36:05.999Z</time></trkpt><trkpt lat="43.7808128091141" lon="12.302088646419675"><ele>959.5</ele><time>2026-04-03T14:36:06.999Z</time></trkpt><trkpt lat="43.78069719527045" lon="12.302118747528898"><ele>957.75</ele><time>2026-04-03T14:36:07.999Z</time></trkpt><trkpt lat="43.780589985733045" lon="12.3021916436034"><ele>956.0</ele><time>2026-04-03T14:36:08.999Z</time></trkpt><trkpt lat="43.780520587081995" lon="12.302346103089349"><ele>956.0</ele><time>2026-04-03T14:36:09.999Z</time></trkpt><trkpt lat="43.78046397499614" lon="12.30249595832217"><ele>956.0</ele><time>2026-04-03T14:36:10.999Z</time></trkpt><trkpt lat="43.780434760122" lon="12.302663780713344"><ele>956.0</ele><time>2026-04-03T14:36:11.999Z</time></trkpt><trkpt lat="43.7804256998264" lon="12.302840712018645"><ele>956.0</ele><time>2026-04-03T14:36:12.999Z</time></trkpt><trkpt lat="43.78044348828416" lon="12.303017828128347"><ele>954.75</ele><time>2026-04-03T14:36:13.999Z</time></trkpt><trkpt lat="43.78048317927126" lon="12.303185831117178"><ele>953.5</ele><time>2026-04-03T14:36:14.999Z</time></trkpt><trkpt lat="43.7805257085595" lon="12.30335623444369"><ele>952.25</ele><time>2026-04-03T14:36:15.999Z</time></trkpt><trkpt lat="43.78056850034805" lon="12.303534026990981"><ele>951.0</ele><time>2026-04-03T14:36:16.999Z</time></trkpt><trkpt lat="43.78061568466768" lon="12.303713580641734"><ele>951.0</ele><time>2026-04-03T14:36:17.999Z</time></trkpt><trkpt lat="43.78066208479928" lon="12.303897288491937"><ele>951.0</ele><time>2026-04-03T14:36:18.999Z</time></trkpt><trkpt lat="43.7807173709194" lon="12.304084733247047"><ele>951.0</ele><time>2026-04-03T14:36:19.999Z</time></trkpt><trkpt lat="43.780769185824894" lon="12.304267321807766"><ele>951.0</ele><time>2026-04-03T14:36:20.999Z</time></trkpt><trkpt lat="43.78079999737393" lon="12.304445835990558"><ele>949.25</ele><time>2026-04-03T14:36:21.999Z</time></trkpt><trkpt lat="43.78080143580168" lon="12.304631933270375"><ele>947.5</ele><time>2026-04-03T14:36:22.999Z</time></trkpt><trkpt lat="43.7807813717897" lon="12.304829529492663"><ele>945.75</ele><time>2026-04-03T14:36:23.999Z</time></trkpt><trkpt lat="43.78073105576623" lon="12.305030951120635"><ele>944.0</ele><time>2026-04-03T14:36:24.999Z</time></trkpt><trkpt lat="43.78069367135218" lon="12.305239953918303"><ele>943.0</ele><time>2026-04-03T14:36:25.999Z</time></trkpt><trkpt lat="43.78065759060067" lon="12.305438398155625"><ele>942.0</ele><time>2026-04-03T14:36:26.999Z</time></trkpt><trkpt lat="43.78062034690391" lon="12.305643238590214"><ele>941.0</ele><time>2026-04-03T14:36:27.999Z</time></trkpt><trkpt lat="43.78058217970607" lon="12.305855844275563"><ele>939.3333333333334</ele><time>2026-04-03T14:36:28.999Z</time></trkpt><trkpt lat="43.78055720424557" lon="12.306082145847395"><ele>937.6666666666667</ele><time>2026-04-03T14:36:29.999Z</time></trkpt><trkpt lat="43.78051358920127" lon="12.306309565451745"><ele>936.0</ele><time>2026-04-03T14:36:30.999Z</time></trkpt><trkpt lat="43.78047019556836" lon="12.306542856496366"><ele>935.0</ele><time>2026-04-03T14:36:31.999Z</time></trkpt><trkpt lat="43.780427806092426" lon="12.306778321527144"><ele>934.0</ele><time>2026-04-03T14:36:32.999Z</time></trkpt><trkpt lat="43.780384702340626" lon="12.307017470475053"><ele>933.0</ele><time>2026-04-03T14:36:33.999Z</time></trkpt><trkpt lat="43.780343869501415" lon="12.307252750888164"><ele>931.0</ele><time>2026-04-03T14:36:34.999Z</time></trkpt><trkpt lat="43.78030568755072" lon="12.30747648019921"><ele>929.0</ele><time>2026-04-03T14:36:35.999Z</time></trkpt><trkpt lat="43.780267905656665" lon="12.307695223510118"><ele>927.0</ele><time>2026-04-03T14:36:36.999Z</time></trkpt><trkpt lat="43.78023196392141" lon="12.307909641750467"><ele>926.5</ele><time>2026-04-03T14:36:37.999Z</time></trkpt><trkpt lat="43.78019688873322" lon="12.30811754801231"><ele>926.0</ele><time>2026-04-03T14:36:38.999Z</time></trkpt><trkpt lat="43.7801420471654" lon="12.308295711620792"><ele>925.5</ele><time>2026-04-03T14:36:39.999Z</time></trkpt><trkpt lat="43.78011411877094" lon="12.308449902914024"><ele>925.0</ele><time>2026-04-03T14:36:40.999Z</time></trkpt><trkpt lat="43.78003751629409" lon="12.308574557685724"><ele>922.75</ele><time>2026-04-03T14:36:41.999Z</time></trkpt><trkpt lat="43.779966460480416" lon="12.308683850885068"><ele>920.5</ele><time>2026-04-03T14:36:42.999Z</time></trkpt><trkpt lat="43.77987259362289" lon="12.30876917526023"><ele>918.25</ele><time>2026-04-03T14:36:43.999Z</time></trkpt><trkpt lat="43.77975954760404" lon="12.30885477808815"><ele>916.0</ele><time>2026-04-03T14:36:44.999Z</time></trkpt><trkpt lat="43.77963402864366" lon="12.308935397651098"><ele>915.0</ele><time>2026-04-03T14:36:45.999Z</time></trkpt><trkpt lat="43.779501092387605" lon="12.30902199365139"><ele>914.0</ele><time>2026-04-03T14:36:46.999Z</time></trkpt><trkpt lat="43.77936053951261" lon="12.309113551117841"><ele>913.0</ele><time>2026-04-03T14:36:47.999Z</time></trkpt><trkpt lat="43.77922043909821" lon="12.30922589212792"><ele>911.5</ele><time>2026-04-03T14:36:48.999Z</time></trkpt><trkpt lat="43.77908246933213" lon="12.309290452249119"><ele>910.0</ele><time>2026-04-03T14:36:49.999Z</time></trkpt><trkpt lat="43.778968044153274" lon="12.309397646334236"><ele>908.5</ele><time>2026-04-03T14:36:50.999Z</time></trkpt><trkpt lat="43.77885123568454" lon="12.309488735003887"><ele>907.0</ele><time>2026-04-03T14:36:51.999Z</time></trkpt><trkpt lat="43.778753279519336" lon="12.3096118336206"><ele>906.25</ele><time>2026-04-03T14:36:52.999Z</time></trkpt><trkpt lat="43.7786681424664" lon="12.309767777837047"><ele>905.5</ele><time>2026-04-03T14:36:53.999Z</time></trkpt><trkpt lat="43.77858480817285" lon="12.309941675815264"><ele>904.75</ele><time>2026-04-03T14:36:54.999Z</time></trkpt><trkpt lat="43.77850115274042" lon="12.310125857515045"><ele>904.0</ele><time>2026-04-03T14:36:55.999Z</time></trkpt><trkpt lat="43.778417246535625" lon="12.310307563583935"><ele>902.3333333333333</ele><time>2026-04-03T14:36:56.999Z</time></trkpt><trkpt lat="43.778333623886674" lon="12.310481864594337"><ele>900.6666666666667</ele><time>2026-04-03T14:36:57.999Z</time></trkpt><trkpt lat="43.77825882664583" lon="12.310661195346555"><ele>899.0</ele><time>2026-04-03T14:36:58.999Z</time></trkpt><trkpt lat="43.77819894631188" lon="12.310857542988277"><ele>897.3333333333334</ele><time>2026-04-03T14:36:59.999Z</time></trkpt><trkpt lat="43.77815334182634" lon="12.31106705868016"><ele>895.6666666666667</ele><time>2026-04-03T14:37:00.999Z</time></trkpt><trkpt lat="43.778107111186195" lon="12.311286370764915"><ele>894.0</ele><time>2026-04-03T14:37:01.999Z</time></trkpt><trkpt lat="43.778057154238944" lon="12.311512295258893"><ele>891.6666666666667</ele><time>2026-04-03T14:37:02.999Z</time></trkpt><trkpt lat="43.77800935844893" lon="12.31173460215043"><ele>889.3333333333334</ele><time>2026-04-03T14:37:03.999Z</time></trkpt><trkpt lat="43.777972271877836" lon="12.311947306735984"><ele>887.0</ele><time>2026-04-03T14:37:04.999Z</time></trkpt><trkpt lat="43.7779528607178" lon="12.312160092743508"><ele>885.25</ele><time>2026-04-03T14:37:05.999Z</time></trkpt><trkpt lat="43.7779409472589" lon="12.312358668481492"><ele>883.5</ele><time>2026-04-03T14:37:06.999Z</time></trkpt><trkpt lat="43.77793783192866" lon="12.31253911571705"><ele>881.75</ele><time>2026-04-03T14:37:07.999Z</time></trkpt><trkpt lat="43.77794818604013" lon="12.312715066418656"><ele>880.0</ele><time>2026-04-03T14:37:08.999Z</time></trkpt><trkpt lat="43.77799120756778" lon="12.312872678054804"><ele>880.0</ele><time>2026-04-03T14:37:09.999Z</time></trkpt><trkpt lat="43.778062256473525" lon="12.313009551354577"><ele>880.0</ele><time>2026-04-03T14:37:11Z</time></trkpt><trkpt lat="43.77815549591782" lon="12.31312730759529"><ele>880.0</ele><time>2026-04-03T14:37:12Z</time></trkpt><trkpt lat="43.778274625906555" lon="12.313205774307399"><ele>880.0</ele><time>2026-04-03T14:37:13Z</time></trkpt><trkpt lat="43.77841177843198" lon="12.31325949400079"><ele>878.25</ele><time>2026-04-03T14:37:14Z</time></trkpt><trkpt lat="43.7785587379554" lon="12.313300237613673"><ele>876.5</ele><time>2026-04-03T14:37:15Z</time></trkpt><trkpt lat="43.77870236239209" lon="12.313335536160155"><ele>874.75</ele><time>2026-04-03T14:37:16Z</time></trkpt><trkpt lat="43.77883907773832" lon="12.313380749953462"><ele>873.0</ele><time>2026-04-03T14:37:17Z</time></trkpt><trkpt lat="43.778982045797974" lon="12.31343844884967"><ele>873.0</ele><time>2026-04-03T14:37:18Z</time></trkpt><trkpt lat="43.77912086611515" lon="12.313521711949733"><ele>873.0</ele><time>2026-04-03T14:37:19Z</time></trkpt><trkpt lat="43.77925792631729" lon="12.313629702735891"><ele>873.0</ele><time>2026-04-03T14:37:20Z</time></trkpt><trkpt lat="43.779390497341026" lon="12.31374306006205"><ele>873.0</ele><time>2026-04-03T14:37:21Z</time></trkpt><trkpt lat="43.779506166739026" lon="12.313842606600508"><ele>873.0</ele><time>2026-04-03T14:37:22Z</time></trkpt><trkpt lat="43.779610970910696" lon="12.313943426959902"><ele>873.0</ele><time>2026-04-03T14:37:23Z</time></trkpt><trkpt lat="43.77968988264716" lon="12.314052565949446"><ele>873.0</ele><time>2026-04-03T14:37:24Z</time></trkpt><trkpt lat="43.77975053719556" lon="12.314172400322727"><ele>873.0</ele><time>2026-04-03T14:37:25Z</time></trkpt><trkpt lat="43.77977827632499" lon="12.314322887130922"><ele>873.0</ele><time>2026-04-03T14:37:26Z</time></trkpt><trkpt lat="43.77977614279137" lon="12.314495902882404"><ele>873.0</ele><time>2026-04-03T14:37:27Z</time></trkpt><trkpt lat="43.77976188421041" lon="12.314678490695464"><ele>873.0</ele><time>2026-04-03T14:37:28Z</time></trkpt><trkpt lat="43.77973272439776" lon="12.314874023357953"><ele>871.75</ele><time>2026-04-03T14:37:29Z</time></trkpt><trkpt lat="43.779688826076104" lon="12.315059915532203"><ele>870.5</ele><time>2026-04-03T14:37:30Z</time></trkpt><trkpt lat="43.77960833968709" lon="12.31522359774292"><ele>869.25</ele><time>2026-04-03T14:37:31Z</time></trkpt><trkpt lat="43.779523262384316" lon="12.315390281480648"><ele>868.0</ele><time>2026-04-03T14:37:32Z</time></trkpt><trkpt lat="43.77945535755884" lon="12.315559900728983"><ele>867.5</ele><time>2026-04-03T14:37:33Z</time></trkpt><trkpt lat="43.77937835396697" lon="12.31570073866757"><ele>867.0</ele><time>2026-04-03T14:37:34Z</time></trkpt><trkpt lat="43.77935354303462" lon="12.315875670763942"><ele>866.5</ele><time>2026-04-03T14:37:35Z</time></trkpt><trkpt lat="43.77934237979971" lon="12.31606004082695"><ele>866.0</ele><time>2026-04-03T14:37:36Z</time></trkpt><trkpt lat="43.77934713500261" lon="12.316246167948515"><ele>864.0</ele><time>2026-04-03T14:37:37Z</time></trkpt><trkpt lat="43.77938340645061" lon="12.316439300561562"><ele>862.0</ele><time>2026-04-03T14:37:38Z</time></trkpt><trkpt lat="43.779452076502636" lon="12.316626840890951"><ele>860.0</ele><time>2026-04-03T14:37:39Z</time></trkpt><trkpt lat="43.77954832005113" lon="12.316801795081942"><ele>860.0</ele><time>2026-04-03T14:37:40Z</time></trkpt><trkpt lat="43.77965202133074" lon="12.316973186565713"><ele>860.0</ele><time>2026-04-03T14:37:41Z</time></trkpt><trkpt lat="43.77974655798663" lon="12.317138084305773"><ele>860.0</ele><time>2026-04-03T14:37:42Z</time></trkpt><trkpt lat="43.779833683741906" lon="12.317307942380557"><ele>857.3333333333334</ele><time>2026-04-03T14:37:43Z</time></trkpt><trkpt lat="43.77989715259358" lon="12.317491101267818"><ele>854.6666666666667</ele><time>2026-04-03T14:37:44Z</time></trkpt><trkpt lat="43.779931095525015" lon="12.31768992963614"><ele>852.0</ele><time>2026-04-03T14:37:45Z</time></trkpt><trkpt lat="43.77993812732548" lon="12.317905686455344"><ele>850.0</ele><time>2026-04-03T14:37:46Z</time></trkpt><trkpt lat="43.779908981475124" lon="12.31812942964304"><ele>848.0</ele><time>2026-04-03T14:37:47Z</time></trkpt><trkpt lat="43.779908267756525" lon="12.318363848020713"><ele>846.0</ele><time>2026-04-03T14:37:48Z</time></trkpt><trkpt lat="43.779891529146155" lon="12.318600439762381"><ele>846.0</ele><time>2026-04-03T14:37:49Z</time></trkpt><trkpt lat="43.779878592146105" lon="12.318846743800876"><ele>846.0</ele><time>2026-04-03T14:37:50Z</time></trkpt><trkpt lat="43.77986891040123" lon="12.319085773982895"><ele>846.0</ele><time>2026-04-03T14:37:51Z</time></trkpt><trkpt lat="43.77985911897656" lon="12.319319785984103"><ele>844.3333333333333</ele><time>2026-04-03T14:37:52Z</time></trkpt><trkpt lat="43.77985316829043" lon="12.319551494535817"><ele>842.6666666666666</ele><time>2026-04-03T14:37:53Z</time></trkpt><trkpt lat="43.779849085667664" lon="12.319773557422788"><ele>841.0</ele><time>2026-04-03T14:37:54Z</time></trkpt><trkpt lat="43.779853218494864" lon="12.319976379727072"><ele>840.5</ele><time>2026-04-03T14:37:55Z</time></trkpt><trkpt lat="43.77987843387806" lon="12.320164828025812"><ele>840.0</ele><time>2026-04-03T14:37:56Z</time></trkpt><trkpt lat="43.77992355848774" lon="12.320366336924177"><ele>839.5</ele><time>2026-04-03T14:37:57Z</time></trkpt><trkpt lat="43.779983693073014" lon="12.32056269951549"><ele>839.0</ele><time>2026-04-03T14:37:58Z</time></trkpt><trkpt lat="43.78003931160316" lon="12.320746626926018"><ele>838.0</ele><time>2026-04-03T14:37:59Z</time></trkpt><trkpt lat="43.78009213806221" lon="12.320923490207502"><ele>837.0</ele><time>2026-04-03T14:38:00Z</time></trkpt><trkpt lat="43.78013636229809" lon="12.321098626451569"><ele>836.0</ele><time>2026-04-03T14:38:01Z</time></trkpt><trkpt lat="43.780166691336596" lon="12.321272180769917"><ele>835.0</ele><time>2026-04-03T14:38:01.999Z</time></trkpt><trkpt lat="43.780181473786875" lon="12.321434202044156"><ele>832.5</ele><time>2026-04-03T14:38:02.999Z</time></trkpt><trkpt lat="43.78017019068077" lon="12.32158459288607"><ele>830.0</ele><time>2026-04-03T14:38:03.999Z</time></trkpt><trkpt lat="43.78012634226626" lon="12.321718005171647"><ele>827.5</ele><time>2026-04-03T14:38:04.999Z</time></trkpt><trkpt lat="43.780056498595954" lon="12.321841921084815"><ele>825.0</ele><time>2026-04-03T14:38:05.999Z</time></trkpt><trkpt lat="43.77994055316576" lon="12.32191736741928"><ele>825.0</ele><time>2026-04-03T14:38:06.999Z</time></trkpt><trkpt lat="43.779823628921854" lon="12.322001078960739"><ele>825.0</ele><time>2026-04-03T14:38:07.999Z</time></trkpt><trkpt lat="43.77968686016332" lon="12.322081911545906"><ele>825.0</ele><time>2026-04-03T14:38:08.999Z</time></trkpt><trkpt lat="43.779539611350046" lon="12.322145866260152"><ele>825.0</ele><time>2026-04-03T14:38:09.999Z</time></trkpt><trkpt lat="43.779383064226245" lon="12.322220776313634"><ele>821.3333333333333</ele><time>2026-04-03T14:38:10.999Z</time></trkpt><trkpt lat="43.779226263777396" lon="12.322301850801967"><ele>817.6666666666666</ele><time>2026-04-03T14:38:11.999Z</time></trkpt><trkpt lat="43.77907064788254" lon="12.322382445364758"><ele>814.0</ele><time>2026-04-03T14:38:12.999Z</time></trkpt><trkpt lat="43.77891827830167" lon="12.322464818826885"><ele>814.0</ele><time>2026-04-03T14:38:13.999Z</time></trkpt><trkpt lat="43.778763133064885" lon="12.32254499429129"><ele>814.0</ele><time>2026-04-03T14:38:14.999Z</time></trkpt><trkpt lat="43.778607284074134" lon="12.322625533451303"><ele>814.0</ele><time>2026-04-03T14:38:15.999Z</time></trkpt><trkpt lat="43.7784486675455" lon="12.322708138482804"><ele>813.0</ele><time>2026-04-03T14:38:16.999Z</time></trkpt><trkpt lat="43.7782879304832" lon="12.322793167289355"><ele>812.0</ele><time>2026-04-03T14:38:17.999Z</time></trkpt><trkpt lat="43.77812147206119" lon="12.322881222665046"><ele>811.0</ele><time>2026-04-03T14:38:18.999Z</time></trkpt><trkpt lat="43.77795153544439" lon="12.322972114069225"><ele>808.6666666666666</ele><time>2026-04-03T14:38:19.999Z</time></trkpt><trkpt lat="43.77777836815695" lon="12.323065744069723"><ele>806.3333333333333</ele><time>2026-04-03T14:38:20.999Z</time></trkpt><trkpt lat="43.77761652745719" lon="12.323153249904745"><ele>804.0</ele><time>2026-04-03T14:38:21.999Z</time></trkpt><trkpt lat="43.77747604201334" lon="12.323229208346437"><ele>803.0</ele><time>2026-04-03T14:38:22.999Z</time></trkpt><trkpt lat="43.77734627790858" lon="12.323319215429223"><ele>802.0</ele><time>2026-04-03T14:38:23.999Z</time></trkpt><trkpt lat="43.777234062138696" lon="12.323450158165238"><ele>801.0</ele><time>2026-04-03T14:38:24.999Z</time></trkpt><trkpt lat="43.77715408795908" lon="12.323614001699385"><ele>800.0</ele><time>2026-04-03T14:38:25.999Z</time></trkpt><trkpt lat="43.77707187889678" lon="12.32378901205167"><ele>797.6666666666667</ele><time>2026-04-03T14:38:26.999Z</time></trkpt><trkpt lat="43.776993860298745" lon="12.323979841859945"><ele>795.3333333333333</ele><time>2026-04-03T14:38:27.999Z</time></trkpt><trkpt lat="43.776916282933115" lon="12.324178233075774"><ele>793.0</ele><time>2026-04-03T14:38:28.999Z</time></trkpt><trkpt lat="43.776834604269304" lon="12.324386431420574"><ele>792.3333333333333</ele><time>2026-04-03T14:38:29.999Z</time></trkpt><trkpt lat="43.77674685185887" lon="12.324601590989896"><ele>791.6666666666667</ele><time>2026-04-03T14:38:30.999Z</time></trkpt><trkpt lat="43.77666807365174" lon="12.324814698048044"><ele>791.0</ele><time>2026-04-03T14:38:31.999Z</time></trkpt><trkpt lat="43.776598395240775" lon="12.325021881800449"><ele>789.5</ele><time>2026-04-03T14:38:32.999Z</time></trkpt><trkpt lat="43.77653764251894" lon="12.325226091290507"><ele>788.0</ele><time>2026-04-03T14:38:33.999Z</time></trkpt><trkpt lat="43.776482672512245" lon="12.325414181157427"><ele>786.5</ele><time>2026-04-03T14:38:34.999Z</time></trkpt><trkpt lat="43.7764377368823" lon="12.32558832584736"><ele>785.0</ele><time>2026-04-03T14:38:35.999Z</time></trkpt><trkpt lat="43.77642257137825" lon="12.325750808470927"><ele>783.5</ele><time>2026-04-03T14:38:36.999Z</time></trkpt><trkpt lat="43.776446075069515" lon="12.325919959157845"><ele>782.0</ele><time>2026-04-03T14:38:37.999Z</time></trkpt><trkpt lat="43.7764999328116" lon="12.326082369728141"><ele>780.5</ele><time>2026-04-03T14:38:38.999Z</time></trkpt><trkpt lat="43.776590406190486" lon="12.326233964726002"><ele>779.0</ele><time>2026-04-03T14:38:39.999Z</time></trkpt><trkpt lat="43.77669403090566" lon="12.326380217687932"><ele>777.6666666666667</ele><time>2026-04-03T14:38:40.999Z</time></trkpt><trkpt lat="43.77681114841239" lon="12.326522909307611"><ele>776.3333333333333</ele><time>2026-04-03T14:38:41.999Z</time></trkpt><trkpt lat="43.77692893682102" lon="12.326667479254303"><ele>775.0</ele><time>2026-04-03T14:38:42.999Z</time></trkpt><trkpt lat="43.77704111776034" lon="12.32681263638172"><ele>774.25</ele><time>2026-04-03T14:38:43.999Z</time></trkpt><trkpt lat="43.777145460644874" lon="12.326950470513076"><ele>773.5</ele><time>2026-04-03T14:38:44.999Z</time></trkpt><trkpt lat="43.77722850162847" lon="12.327078515657817"><ele>772.75</ele><time>2026-04-03T14:38:45.999Z</time></trkpt><trkpt lat="43.777283469059334" lon="12.327227204686471"><ele>772.0</ele><time>2026-04-03T14:38:46.999Z</time></trkpt><trkpt lat="43.777295127056455" lon="12.327403359254514"><ele>771.0</ele><time>2026-04-03T14:38:47.999Z</time></trkpt><trkpt lat="43.777293036613564" lon="12.327590653923107"><ele>770.0</ele><time>2026-04-03T14:38:48.999Z</time></trkpt><trkpt lat="43.77729434486941" lon="12.327779363079104"><ele>769.0</ele><time>2026-04-03T14:38:49.999Z</time></trkpt><trkpt lat="43.77730335031846" lon="12.32795690371942"><ele>768.0</ele><time>2026-04-03T14:38:50.999Z</time></trkpt><trkpt lat="43.77734411122215" lon="12.32811872065372"><ele>767.0</ele><time>2026-04-03T14:38:51.999Z</time></trkpt><trkpt lat="43.77742075352076" lon="12.328241869290023"><ele>766.0</ele><time>2026-04-03T14:38:52.999Z</time></trkpt><trkpt lat="43.77752038682086" lon="12.328339558814054"><ele>765.0</ele><time>2026-04-03T14:38:53.999Z</time></trkpt><trkpt lat="43.77763748842684" lon="12.328423047579683"><ele>764.0</ele><time>2026-04-03T14:38:54.999Z</time></trkpt><trkpt lat="43.777756754324415" lon="12.328508252566584"><ele>764.0</ele><time>2026-04-03T14:38:55.999Z</time></trkpt><trkpt lat="43.77787436955769" lon="12.328587972086126"><ele>764.0</ele><time>2026-04-03T14:38:56.999Z</time></trkpt><trkpt lat="43.77798929244438" lon="12.328671045806725"><ele>764.0</ele><time>2026-04-03T14:38:57.999Z</time></trkpt><trkpt lat="43.778106738614895" lon="12.32876370583512"><ele>764.0</ele><time>2026-04-03T14:38:58.999Z</time></trkpt><trkpt lat="43.77821738384768" lon="12.328877690531836"><ele>764.5</ele><time>2026-04-03T14:38:59.999Z</time></trkpt><trkpt lat="43.778320452476805" lon="12.329007451095507"><ele>765.0</ele><time>2026-04-03T14:39:00.999Z</time></trkpt><trkpt lat="43.778419632398624" lon="12.329148433457624"><ele>765.5</ele><time>2026-04-03T14:39:01.999Z</time></trkpt><trkpt lat="43.77851610717663" lon="12.329292340126145"><ele>766.0</ele><time>2026-04-03T14:39:02.999Z</time></trkpt><trkpt lat="43.77861217800117" lon="12.329439122850411"><ele>766.0</ele><time>2026-04-03T14:39:03.999Z</time></trkpt><trkpt lat="43.77871023505779" lon="12.329588010401421"><ele>766.0</ele><time>2026-04-03T14:39:04.999Z</time></trkpt><trkpt lat="43.778805391638684" lon="12.329736677616616"><ele>766.0</ele><time>2026-04-03T14:39:05.999Z</time></trkpt><trkpt lat="43.77889589859789" lon="12.329881412173677"><ele>766.0</ele><time>2026-04-03T14:39:06.999Z</time></trkpt><trkpt lat="43.77896822741078" lon="12.330012591411641"><ele>764.4</ele><time>2026-04-03T14:39:07.999Z</time></trkpt><trkpt lat="43.77902544059894" lon="12.330138950284327"><ele>762.8</ele><time>2026-04-03T14:39:08.999Z</time></trkpt><trkpt lat="43.77905865588874" lon="12.330271433606367"><ele>761.1999999999999</ele><time>2026-04-03T14:39:09.999Z</time></trkpt><trkpt lat="43.77906171137821" lon="12.33040352153629"><ele>759.5999999999999</ele><time>2026-04-03T14:39:10.999Z</time></trkpt><trkpt lat="43.779039360342466" lon="12.330523855786414"><ele>758.0</ele><time>2026-04-03T14:39:11.999Z</time></trkpt><trkpt lat="43.77899526017268" lon="12.33061982794524"><ele>757.0</ele><time>2026-04-03T14:39:12.999Z</time></trkpt><trkpt lat="43.77894568796941" lon="12.330694719152325"><ele>756.0</ele><time>2026-04-03T14:39:13.999Z</time></trkpt><trkpt lat="43.77888124245503" lon="12.330739414023322"><ele>755.0</ele><time>2026-04-03T14:39:14.999Z</time></trkpt><trkpt lat="43.778809014631" lon="12.330782296072996"><ele>754.0</ele><time>2026-04-03T14:39:15.999Z</time></trkpt><trkpt lat="43.77875919208305" lon="12.330870909599344"><ele>753.0</ele><time>2026-04-03T14:39:17Z</time></trkpt><trkpt lat="43.77873106010238" lon="12.33099186218767"><ele>752.0</ele><time>2026-04-03T14:39:18Z</time></trkpt><trkpt lat="43.77870361320124" lon="12.331134464352527"><ele>752.0</ele><time>2026-04-03T14:39:19Z</time></trkpt><trkpt lat="43.778642423691814" lon="12.331282935403612"><ele>752.0</ele><time>2026-04-03T14:39:20Z</time></trkpt><trkpt lat="43.778567681028626" lon="12.331416688741903"><ele>752.0</ele><time>2026-04-03T14:39:21Z</time></trkpt><trkpt lat="43.77847092684" lon="12.331555032756487"><ele>752.0</ele><time>2026-04-03T14:39:22Z</time></trkpt><trkpt lat="43.778387970711265" lon="12.33172106071344"><ele>749.3333333333333</ele><time>2026-04-03T14:39:23Z</time></trkpt><trkpt lat="43.778326119921054" lon="12.331910667016514"><ele>746.6666666666666</ele><time>2026-04-03T14:39:24Z</time></trkpt><trkpt lat="43.778252388848024" lon="12.332091575681673"><ele>744.0</ele><time>2026-04-03T14:39:25Z</time></trkpt><trkpt lat="43.77818563257947" lon="12.332283059362858"><ele>742.6666666666666</ele><time>2026-04-03T14:39:26Z</time></trkpt><trkpt lat="43.778131948099144" lon="12.332490648921835"><ele>741.3333333333333</ele><time>2026-04-03T14:39:27Z</time></trkpt><trkpt lat="43.77809740005329" lon="12.332714025443739"><ele>740.0</ele><time>2026-04-03T14:39:28Z</time></trkpt><trkpt lat="43.77807676243777" lon="12.332950871181607"><ele>739.6666666666666</ele><time>2026-04-03T14:39:29Z</time></trkpt><trkpt lat="43.778067423043694" lon="12.333195691829696"><ele>739.3333333333334</ele><time>2026-04-03T14:39:30Z</time></trkpt><trkpt lat="43.77807052126802" lon="12.333434162048624"><ele>739.0</ele><time>2026-04-03T14:39:31Z</time></trkpt><trkpt lat="43.778075117599734" lon="12.333676333256506"><ele>737.3333333333334</ele><time>2026-04-03T14:39:32Z</time></trkpt><trkpt lat="43.77807585956854" lon="12.333922767671735"><ele>735.6666666666666</ele><time>2026-04-03T14:39:33Z</time></trkpt><trkpt lat="43.778077199512474" lon="12.334171654278821"><ele>734.0</ele><time>2026-04-03T14:39:34Z</time></trkpt><trkpt lat="43.77807823442074" lon="12.334425299654715"><ele>734.0</ele><time>2026-04-03T14:39:35Z</time></trkpt><trkpt lat="43.77807831149122" lon="12.33468062795495"><ele>734.0</ele><time>2026-04-03T14:39:36Z</time></trkpt><trkpt lat="43.77807736058107" lon="12.334937451924601"><ele>734.0</ele><time>2026-04-03T14:39:37Z</time></trkpt><trkpt lat="43.77807849033581" lon="12.33519720180492"><ele>732.3333333333333</ele><time>2026-04-03T14:39:38Z</time></trkpt><trkpt lat="43.77808026261525" lon="12.335456101317414"><ele>730.6666666666666</ele><time>2026-04-03T14:39:39Z</time></trkpt><trkpt lat="43.778082470529284" lon="12.33570259478684"><ele>729.0</ele><time>2026-04-03T14:39:40Z</time></trkpt><trkpt lat="43.778081640962526" lon="12.335924017820561"><ele>728.5</ele><time>2026-04-03T14:39:41Z</time></trkpt><trkpt lat="43.77808452015617" lon="12.336130091090368"><ele>728.0</ele><time>2026-04-03T14:39:42Z</time></trkpt><trkpt lat="43.77811161882504" lon="12.336319035756203"><ele>727.5</ele><time>2026-04-03T14:39:43Z</time></trkpt><trkpt lat="43.778179350680915" lon="12.336481158196317"><ele>727.0</ele><time>2026-04-03T14:39:44Z</time></trkpt><trkpt lat="43.77826776775054" lon="12.336625758365448"><ele>726.25</ele><time>2026-04-03T14:39:45Z</time></trkpt><trkpt lat="43.778381638215244" lon="12.336745277490907"><ele>725.5</ele><time>2026-04-03T14:39:46Z</time></trkpt><trkpt lat="43.778509601736154" lon="12.336837712521033"><ele>724.75</ele><time>2026-04-03T14:39:47Z</time></trkpt><trkpt lat="43.77864488365162" lon="12.336927073552962"><ele>724.0</ele><time>2026-04-03T14:39:48Z</time></trkpt><trkpt lat="43.778779660793134" lon="12.337028864077482"><ele>724.0</ele><time>2026-04-03T14:39:49Z</time></trkpt><trkpt lat="43.77891539630395" lon="12.337134117665636"><ele>724.0</ele><time>2026-04-03T14:39:50Z</time></trkpt><trkpt lat="43.77905256213585" lon="12.337234092170833"><ele>724.0</ele><time>2026-04-03T14:39:51Z</time></trkpt><trkpt lat="43.77919101148453" lon="12.337328802036104"><ele>724.3333333333334</ele><time>2026-04-03T14:39:52Z</time></trkpt><trkpt lat="43.779327000009495" lon="12.337428350216028"><ele>724.6666666666666</ele><time>2026-04-03T14:39:53Z</time></trkpt><trkpt lat="43.779459290186495" lon="12.337529001020433"><ele>725.0</ele><time>2026-04-03T14:39:54Z</time></trkpt><trkpt lat="43.77959188758136" lon="12.33762854913461"><ele>725.0</ele><time>2026-04-03T14:39:55Z</time></trkpt><trkpt lat="43.77972061443537" lon="12.337732418665361"><ele>725.0</ele><time>2026-04-03T14:39:56Z</time></trkpt><trkpt lat="43.77983797017925" lon="12.337858251417385"><ele>725.0</ele><time>2026-04-03T14:39:57Z</time></trkpt><trkpt lat="43.779938018348275" lon="12.338017976167285"><ele>725.25</ele><time>2026-04-03T14:39:58Z</time></trkpt><trkpt lat="43.780021527608476" lon="12.338196096032314"><ele>725.5</ele><time>2026-04-03T14:39:59Z</time></trkpt><trkpt lat="43.780083289217785" lon="12.338375772730455"><ele>725.75</ele><time>2026-04-03T14:40:00Z</time></trkpt><trkpt lat="43.78014368860958" lon="12.33856414819844"><ele>726.0</ele><time>2026-04-03T14:40:01Z</time></trkpt><trkpt lat="43.7802036658943" lon="12.338758636327592"><ele>724.6666666666666</ele><time>2026-04-03T14:40:02Z</time></trkpt><trkpt lat="43.78026718467417" lon="12.338952507256185"><ele>723.3333333333333</ele><time>2026-04-03T14:40:03Z</time></trkpt><trkpt lat="43.78033171447985" lon="12.339150708680089"><ele>722.0</ele><time>2026-04-03T14:40:04Z</time></trkpt><trkpt lat="43.7803986846438" lon="12.33935501327142"><ele>722.0</ele><time>2026-04-03T14:40:05Z</time></trkpt><trkpt lat="43.78046291659829" lon="12.339562969389002"><ele>722.0</ele><time>2026-04-03T14:40:06Z</time></trkpt><trkpt lat="43.780528045285486" lon="12.339772393131177"><ele>722.0</ele><time>2026-04-03T14:40:07Z</time></trkpt><trkpt lat="43.78059095873467" lon="12.339985364522951"><ele>720.6666666666666</ele><time>2026-04-03T14:40:08Z</time></trkpt><trkpt lat="43.780655293316926" lon="12.340194518730728"><ele>719.3333333333334</ele><time>2026-04-03T14:40:08.999Z</time></trkpt><trkpt lat="43.78072205147823" lon="12.3404006284388"><ele>718.0</ele><time>2026-04-03T14:40:09.999Z</time></trkpt><trkpt lat="43.7807875788736" lon="12.340604780729585"><ele>716.6666666666667</ele><time>2026-04-03T14:40:10.999Z</time></trkpt><trkpt lat="43.780847624029015" lon="12.340810116631381"><ele>715.3333333333334</ele><time>2026-04-03T14:40:11.999Z</time></trkpt><trkpt lat="43.780906798504496" lon="12.34100622487849"><ele>714.0</ele><time>2026-04-03T14:40:12.999Z</time></trkpt><trkpt lat="43.7809618792683" lon="12.341188740788075"><ele>713.75</ele><time>2026-04-03T14:40:13.999Z</time></trkpt><trkpt lat="43.78101615220936" lon="12.341369016496639"><ele>713.5</ele><time>2026-04-03T14:40:14.999Z</time></trkpt><trkpt lat="43.78106938105532" lon="12.34155696460143"><ele>713.25</ele><time>2026-04-03T14:40:15.999Z</time></trkpt><trkpt lat="43.781130022310585" lon="12.341743650012676"><ele>713.0</ele><time>2026-04-03T14:40:16.999Z</time></trkpt><trkpt lat="43.78119795140406" lon="12.341934704523105"><ele>713.0</ele><time>2026-04-03T14:40:17.999Z</time></trkpt><trkpt lat="43.78126091363122" lon="12.3421377771125"><ele>713.0</ele><time>2026-04-03T14:40:18.999Z</time></trkpt><trkpt lat="43.7813252105131" lon="12.342348828488515"><ele>713.0</ele><time>2026-04-03T14:40:19.999Z</time></trkpt><trkpt lat="43.781393694162574" lon="12.342567040583406"><ele>712.0</ele><time>2026-04-03T14:40:20.999Z</time></trkpt><trkpt lat="43.78146471101034" lon="12.342788433132371"><ele>711.0</ele><time>2026-04-03T14:40:21.999Z</time></trkpt><trkpt lat="43.78153471153988" lon="12.343013950217314"><ele>710.0</ele><time>2026-04-03T14:40:22.999Z</time></trkpt><trkpt lat="43.78160534405228" lon="12.343247913181633"><ele>706.0</ele><time>2026-04-03T14:40:23.999Z</time></trkpt><trkpt lat="43.781675741488705" lon="12.343478601267275"><ele>702.0</ele><time>2026-04-03T14:40:24.999Z</time></trkpt><trkpt lat="43.78174479479393" lon="12.343709006810078"><ele>698.0</ele><time>2026-04-03T14:40:25.999Z</time></trkpt><trkpt lat="43.78180990602384" lon="12.343940324822205"><ele>699.3333333333333</ele><time>2026-04-03T14:40:26.999Z</time></trkpt><trkpt lat="43.78186636416433" lon="12.344171412244703"><ele>700.6666666666666</ele><time>2026-04-03T14:40:27.999Z</time></trkpt><trkpt lat="43.78190290022178" lon="12.344405335636052"><ele>702.0</ele><time>2026-04-03T14:40:28.999Z</time></trkpt><trkpt lat="43.78193101477933" lon="12.34463619081351"><ele>701.5</ele><time>2026-04-03T14:40:29.999Z</time></trkpt><trkpt lat="43.78196284959999" lon="12.344846916661103"><ele>701.0</ele><time>2026-04-03T14:40:30.999Z</time></trkpt><trkpt lat="43.78199803415024" lon="12.345035377541986"><ele>700.5</ele><time>2026-04-03T14:40:31.999Z</time></trkpt><trkpt lat="43.78205559336687" lon="12.34523153478937"><ele>700.0</ele><time>2026-04-03T14:40:32.999Z</time></trkpt><trkpt lat="43.78213880700901" lon="12.345418318575804"><ele>696.6666666666667</ele><time>2026-04-03T14:40:33.999Z</time></trkpt><trkpt lat="43.78225031869362" lon="12.345583546001237"><ele>693.3333333333334</ele><time>2026-04-03T14:40:34.999Z</time></trkpt><trkpt lat="43.78237814311767" lon="12.345733216905566"><ele>690.0</ele><time>2026-04-03T14:40:35.999Z</time></trkpt><trkpt lat="43.782521247318286" lon="12.345870353315659"><ele>690.0</ele><time>2026-04-03T14:40:36.999Z</time></trkpt><trkpt lat="43.782671120003435" lon="12.346005958845943"><ele>690.0</ele><time>2026-04-03T14:40:37.999Z</time></trkpt><trkpt lat="43.78281746548121" lon="12.346143224686879"><ele>690.0</ele><time>2026-04-03T14:40:38.999Z</time></trkpt><trkpt lat="43.78296565092571" lon="12.346286302020955"><ele>689.0</ele><time>2026-04-03T14:40:39.999Z</time></trkpt><trkpt lat="43.783117062017965" lon="12.346430669141805"><ele>688.0</ele><time>2026-04-03T14:40:40.999Z</time></trkpt><trkpt lat="43.783270543647376" lon="12.34657522217159"><ele>687.0</ele><time>2026-04-03T14:40:41.999Z</time></trkpt><trkpt lat="43.78342261111739" lon="12.346721195833"><ele>689.3333333333334</ele><time>2026-04-03T14:40:42.999Z</time></trkpt><trkpt lat="43.78357471958353" lon="12.346863015537782"><ele>691.6666666666667</ele><time>2026-04-03T14:40:43.999Z</time></trkpt><trkpt lat="43.78372562337131" lon="12.347004136812615"><ele>694.0</ele><time>2026-04-03T14:40:44.999Z</time></trkpt><trkpt lat="43.78387607381599" lon="12.347145512419376"><ele>692.3333333333334</ele><time>2026-04-03T14:40:45.999Z</time></trkpt><trkpt lat="43.78402651668825" lon="12.347285073236591"><ele>690.6666666666666</ele><time>2026-04-03T14:40:46.999Z</time></trkpt><trkpt lat="43.78417641676299" lon="12.347424804036256"><ele>689.0</ele><time>2026-04-03T14:40:47.999Z</time></trkpt><trkpt lat="43.784326011364364" lon="12.347564542672641"><ele>691.0</ele><time>2026-04-03T14:40:48.999Z</time></trkpt><trkpt lat="43.784476575476404" lon="12.347704151855382"><ele>693.0</ele><time>2026-04-03T14:40:49.999Z</time></trkpt><trkpt lat="43.78462705094317" lon="12.347842476874986"><ele>695.0</ele><time>2026-04-03T14:40:50.999Z</time></trkpt><trkpt lat="43.784776809834256" lon="12.347985268902217"><ele>695.6666666666666</ele><time>2026-04-03T14:40:51.999Z</time></trkpt><trkpt lat="43.78492710784265" lon="12.348123559862604"><ele>696.3333333333334</ele><time>2026-04-03T14:40:52.999Z</time></trkpt><trkpt lat="43.785077224545056" lon="12.34826213803523"><ele>697.0</ele><time>2026-04-03T14:40:53.999Z</time></trkpt><trkpt lat="43.785226742528366" lon="12.348401219547345"><ele>697.0</ele><time>2026-04-03T14:40:54.999Z</time></trkpt><trkpt lat="43.78537750016145" lon="12.34853758834151"><ele>697.0</ele><time>2026-04-03T14:40:55.999Z</time></trkpt><trkpt lat="43.785521225257696" lon="12.348683331375367"><ele>697.0</ele><time>2026-04-03T14:40:56.999Z</time></trkpt><trkpt lat="43.78565060582064" lon="12.34885060429072"><ele>695.6666666666667</ele><time>2026-04-03T14:40:57.999Z</time></trkpt><trkpt lat="43.78575247617957" lon="12.349040388231924"><ele>694.3333333333334</ele><time>2026-04-03T14:40:58.999Z</time></trkpt><trkpt lat="43.78582842182848" lon="12.349249474146196"><ele>693.0</ele><time>2026-04-03T14:40:59.999Z</time></trkpt><trkpt lat="43.78588334471619" lon="12.349472060829434"><ele>693.0</ele><time>2026-04-03T14:41:00.999Z</time></trkpt><trkpt lat="43.785931616228446" lon="12.349701496848459"><ele>693.0</ele><time>2026-04-03T14:41:01.999Z</time></trkpt><trkpt lat="43.78598440880845" lon="12.349927714270114"><ele>693.0</ele><time>2026-04-03T14:41:02.999Z</time></trkpt><trkpt lat="43.78603777862935" lon="12.350135182528556"><ele>694.25</ele><time>2026-04-03T14:41:03.999Z</time></trkpt><trkpt lat="43.78608501179501" lon="12.350324715362008"><ele>695.5</ele><time>2026-04-03T14:41:04.999Z</time></trkpt><trkpt lat="43.78612891665625" lon="12.350501593823953"><ele>696.75</ele><time>2026-04-03T14:41:05.999Z</time></trkpt><trkpt lat="43.78617232127031" lon="12.350669737590342"><ele>698.0</ele><time>2026-04-03T14:41:06.999Z</time></trkpt><trkpt lat="43.786213843677544" lon="12.350834801167371"><ele>698.0</ele><time>2026-04-03T14:41:07.999Z</time></trkpt><trkpt lat="43.78625377556461" lon="12.350986035351072"><ele>698.0</ele><time>2026-04-03T14:41:08.999Z</time></trkpt><trkpt lat="43.78628566761767" lon="12.351119971586824"><ele>698.0</ele><time>2026-04-03T14:41:09.999Z</time></trkpt><trkpt lat="43.78631539846644" lon="12.3512403487018"><ele>698.0</ele><time>2026-04-03T14:41:10.999Z</time></trkpt><trkpt lat="43.78634769517126" lon="12.351362650408097"><ele>698.0</ele><time>2026-04-03T14:41:11.999Z</time></trkpt><trkpt lat="43.7863915878104" lon="12.351498374167937"><ele>698.0</ele><time>2026-04-03T14:41:12.999Z</time></trkpt><trkpt lat="43.786437885998225" lon="12.35164575238535"><ele>698.0</ele><time>2026-04-03T14:41:13.999Z</time></trkpt><trkpt lat="43.786490106192815" lon="12.351803962415541"><ele>698.0</ele><time>2026-04-03T14:41:14.999Z</time></trkpt><trkpt lat="43.78655097793858" lon="12.351971750178162"><ele>698.0</ele><time>2026-04-03T14:41:15.999Z</time></trkpt><trkpt lat="43.786613938226715" lon="12.352148906469388"><ele>698.0</ele><time>2026-04-03T14:41:16.999Z</time></trkpt><trkpt lat="43.786680468213454" lon="12.35233331577054"><ele>698.0</ele><time>2026-04-03T14:41:17.999Z</time></trkpt><trkpt lat="43.78674068284009" lon="12.352507881166188"><ele>698.0</ele><time>2026-04-03T14:41:18.999Z</time></trkpt><trkpt lat="43.78680105952541" lon="12.35267592530072"><ele>698.0</ele><time>2026-04-03T14:41:19.999Z</time></trkpt><trkpt lat="43.78686355637233" lon="12.352845106625075"><ele>702.5</ele><time>2026-04-03T14:41:20.999Z</time></trkpt><trkpt lat="43.786924763682414" lon="12.353018903637013"><ele>707.0</ele><time>2026-04-03T14:41:21.999Z</time></trkpt><trkpt lat="43.786987857669374" lon="12.353194899531493"><ele>711.5</ele><time>2026-04-03T14:41:23Z</time></trkpt><trkpt lat="43.787050566790136" lon="12.353371704194354"><ele>716.0</ele><time>2026-04-03T14:41:24Z</time></trkpt><trkpt lat="43.78711411342492" lon="12.353553570053574"><ele>716.0</ele><time>2026-04-03T14:41:25Z</time></trkpt><trkpt lat="43.787177778889316" lon="12.353739121543976"><ele>716.0</ele><time>2026-04-03T14:41:26Z</time></trkpt><trkpt lat="43.78724260172773" lon="12.353926487243356"><ele>716.0</ele><time>2026-04-03T14:41:27Z</time></trkpt><trkpt lat="43.78731050566925" lon="12.354116102124518"><ele>713.6666666666666</ele><time>2026-04-03T14:41:28Z</time></trkpt><trkpt lat="43.78737318686066" lon="12.35430829605515"><ele>711.3333333333334</ele><time>2026-04-03T14:41:29Z</time></trkpt><trkpt lat="43.78741357271601" lon="12.354513128966111"><ele>709.0</ele><time>2026-04-03T14:41:30Z</time></trkpt><trkpt lat="43.78741108531941" lon="12.354730590138097"><ele>708.0</ele><time>2026-04-03T14:41:31Z</time></trkpt><trkpt lat="43.78741613160076" lon="12.354946044238238"><ele>707.0</ele><time>2026-04-03T14:41:32Z</time></trkpt><trkpt lat="43.78741966326542" lon="12.355162831008208"><ele>706.0</ele><time>2026-04-03T14:41:33Z</time></trkpt><trkpt lat="43.78742212034861" lon="12.355385921700789"><ele>705.6666666666667</ele><time>2026-04-03T14:41:34Z</time></trkpt><trkpt lat="43.78742676040156" lon="12.35561485113798"><ele>705.3333333333334</ele><time>2026-04-03T14:41:35Z</time></trkpt><trkpt lat="43.78744817846576" lon="12.35584683951571"><ele>705.0</ele><time>2026-04-03T14:41:36Z</time></trkpt><trkpt lat="43.787467041276905" lon="12.356080704596929"><ele>705.0</ele><time>2026-04-03T14:41:37Z</time></trkpt><trkpt lat="43.78751055791578" lon="12.356310779013647"><ele>705.0</ele><time>2026-04-03T14:41:38Z</time></trkpt><trkpt lat="43.78756943599975" lon="12.356539911560505"><ele>705.0</ele><time>2026-04-03T14:41:39Z</time></trkpt><trkpt lat="43.78763528795391" lon="12.356770147925472"><ele>707.25</ele><time>2026-04-03T14:41:40Z</time></trkpt><trkpt lat="43.78769963915066" lon="12.35698523053908"><ele>709.5</ele><time>2026-04-03T14:41:41Z</time></trkpt><trkpt lat="43.7877566944827" lon="12.35717434081811"><ele>711.75</ele><time>2026-04-03T14:41:42Z</time></trkpt><trkpt lat="43.787815238951964" lon="12.357338603014025"><ele>714.0</ele><time>2026-04-03T14:41:43Z</time></trkpt><trkpt lat="43.78788767929463" lon="12.357493074783102"><ele>714.0</ele><time>2026-04-03T14:41:44Z</time></trkpt><trkpt lat="43.78797959894273" lon="12.357637328719202"><ele>714.0</ele><time>2026-04-03T14:41:45Z</time></trkpt><trkpt lat="43.788093636112016" lon="12.35776426078979"><ele>714.0</ele><time>2026-04-03T14:41:46Z</time></trkpt><trkpt lat="43.78822971416564" lon="12.357861538277444"><ele>714.0</ele><time>2026-04-03T14:41:47Z</time></trkpt><trkpt lat="43.78838652189341" lon="12.357920552222229"><ele>714.3333333333334</ele><time>2026-04-03T14:41:48Z</time></trkpt><trkpt lat="43.78854745691163" lon="12.35796826070922"><ele>714.6666666666667</ele><time>2026-04-03T14:41:49Z</time></trkpt><trkpt lat="43.78871327943887" lon="12.358023733504286"><ele>715.0</ele><time>2026-04-03T14:41:50Z</time></trkpt><trkpt lat="43.788879157771504" lon="12.358091875597701"><ele>715.0</ele><time>2026-04-03T14:41:51Z</time></trkpt><trkpt lat="43.78903569036307" lon="12.358195007695123"><ele>715.0</ele><time>2026-04-03T14:41:52Z</time></trkpt><trkpt lat="43.78917441815055" lon="12.358337733778987"><ele>715.0</ele><time>2026-04-03T14:41:53Z</time></trkpt><trkpt lat="43.789306679827796" lon="12.358492271065877"><ele>718.3333333333334</ele><time>2026-04-03T14:41:54Z</time></trkpt><trkpt lat="43.78942885717492" lon="12.358658996615988"><ele>721.6666666666666</ele><time>2026-04-03T14:41:55Z</time></trkpt><trkpt lat="43.78954006598312" lon="12.358839651225361"><ele>725.0</ele><time>2026-04-03T14:41:56Z</time></trkpt><trkpt lat="43.789642133134905" lon="12.359012719693876"><ele>725.0</ele><time>2026-04-03T14:41:57Z</time></trkpt><trkpt lat="43.789720373347905" lon="12.359183277134123"><ele>725.0</ele><time>2026-04-03T14:41:58Z</time></trkpt><trkpt lat="43.789771934684694" lon="12.359376621092"><ele>725.0</ele><time>2026-04-03T14:41:59Z</time></trkpt><trkpt lat="43.78978765581881" lon="12.359583297723717"><ele>725.0</ele><time>2026-04-03T14:42:00Z</time></trkpt><trkpt lat="43.789767701097176" lon="12.359793329994476"><ele>724.75</ele><time>2026-04-03T14:42:01Z</time></trkpt><trkpt lat="43.78970644698503" lon="12.359985686813435"><ele>724.5</ele><time>2026-04-03T14:42:02Z</time></trkpt><trkpt lat="43.78964578677218" lon="12.360153026114206"><ele>724.25</ele><time>2026-04-03T14:42:03Z</time></trkpt><trkpt lat="43.78958957309526" lon="12.36030031023185"><ele>724.0</ele><time>2026-04-03T14:42:04Z</time></trkpt><trkpt lat="43.78953423606296" lon="12.360441853201571"><ele>725.5</ele><time>2026-04-03T14:42:05Z</time></trkpt><trkpt lat="43.78946944661579" lon="12.360607573726039"><ele>727.0</ele><time>2026-04-03T14:42:06Z</time></trkpt><trkpt lat="43.789403206321836" lon="12.360777005554802"><ele>728.5</ele><time>2026-04-03T14:42:07Z</time></trkpt><trkpt lat="43.78934199013628" lon="12.360938047273304"><ele>730.0</ele><time>2026-04-03T14:42:08Z</time></trkpt><trkpt lat="43.78930005617562" lon="12.361083912554134"><ele>728.6</ele><time>2026-04-03T14:42:09Z</time></trkpt><trkpt lat="43.789262106298445" lon="12.361213285235761"><ele>727.2</ele><time>2026-04-03T14:42:10Z</time></trkpt><trkpt lat="43.78926258693055" lon="12.361339827144327"><ele>725.8</ele><time>2026-04-03T14:42:11Z</time></trkpt><trkpt lat="43.789292670026114" lon="12.36144800171323"><ele>724.4</ele><time>2026-04-03T14:42:12Z</time></trkpt><trkpt lat="43.789356752954376" lon="12.361538191899037"><ele>723.0</ele><time>2026-04-03T14:42:13Z</time></trkpt><trkpt lat="43.78944482703725" lon="12.36159365442456"><ele>723.0</ele><time>2026-04-03T14:42:13.999Z</time></trkpt><trkpt lat="43.789555536553294" lon="12.361602733084995"><ele>723.0</ele><time>2026-04-03T14:42:14.999Z</time></trkpt><trkpt lat="43.789681106577916" lon="12.361594844593732"><ele>723.0</ele><time>2026-04-03T14:42:15.999Z</time></trkpt><trkpt lat="43.78981199354303" lon="12.361592694473492"><ele>723.0</ele><time>2026-04-03T14:42:16.999Z</time></trkpt><trkpt lat="43.789949368821055" lon="12.361601019588882"><ele>723.0</ele><time>2026-04-03T14:42:17.999Z</time></trkpt><trkpt lat="43.79009111092591" lon="12.361606474877542"><ele>723.0</ele><time>2026-04-03T14:42:18.999Z</time></trkpt><trkpt lat="43.79022321358143" lon="12.361617545905176"><ele>723.0</ele><time>2026-04-03T14:42:19.999Z</time></trkpt><trkpt lat="43.79035144065842" lon="12.361632464293637"><ele>723.0</ele><time>2026-04-03T14:42:20.999Z</time></trkpt><trkpt lat="43.79048087193268" lon="12.361668693411554"><ele>726.0</ele><time>2026-04-03T14:42:21.999Z</time></trkpt><trkpt lat="43.79060592574024" lon="12.361732698077486"><ele>729.0</ele><time>2026-04-03T14:42:22.999Z</time></trkpt><trkpt lat="43.79072122141353" lon="12.361829244924047"><ele>732.0</ele><time>2026-04-03T14:42:23.999Z</time></trkpt><trkpt lat="43.79082322722764" lon="12.361955811439984"><ele>735.0</ele><time>2026-04-03T14:42:24.999Z</time></trkpt><trkpt lat="43.79091813879946" lon="12.362100158028259"><ele>738.6666666666666</ele><time>2026-04-03T14:42:25.999Z</time></trkpt><trkpt lat="43.79101474466883" lon="12.362251922762553"><ele>742.3333333333333</ele><time>2026-04-03T14:42:26.999Z</time></trkpt><trkpt lat="43.791116839382" lon="12.362404489171265"><ele>746.0</ele><time>2026-04-03T14:42:27.999Z</time></trkpt><trkpt lat="43.79122453476411" lon="12.362563175236115"><ele>746.0</ele><time>2026-04-03T14:42:28.999Z</time></trkpt><trkpt lat="43.79133446465766" lon="12.362726627370717"><ele>746.0</ele><time>2026-04-03T14:42:29.999Z</time></trkpt><trkpt lat="43.79144429492418" lon="12.362895525022935"><ele>746.0</ele><time>2026-04-03T14:42:30.999Z</time></trkpt><trkpt lat="43.79154612368084" lon="12.36304647658855"><ele>747.0</ele><time>2026-04-03T14:42:31.999Z</time></trkpt><trkpt lat="43.791640279630975" lon="12.363184816073911"><ele>748.0</ele><time>2026-04-03T14:42:32.999Z</time></trkpt><trkpt lat="43.791724417973846" lon="12.363306594883055"><ele>749.0</ele><time>2026-04-03T14:42:33.999Z</time></trkpt><trkpt lat="43.79180208006608" lon="12.363422120794798"><ele>750.0</ele><time>2026-04-03T14:42:34.999Z</time></trkpt><trkpt lat="43.791874325791994" lon="12.36354048128898"><ele>750.0</ele><time>2026-04-03T14:42:35.999Z</time></trkpt><trkpt lat="43.79193944812247" lon="12.36367321082437"><ele>750.0</ele><time>2026-04-03T14:42:36.999Z</time></trkpt><trkpt lat="43.791995532050606" lon="12.363819772127007"><ele>750.0</ele><time>2026-04-03T14:42:37.999Z</time></trkpt><trkpt lat="43.79203652053924" lon="12.363981415242359"><ele>750.0</ele><time>2026-04-03T14:42:38.999Z</time></trkpt><trkpt lat="43.79203711692897" lon="12.364156090513774"><ele>750.25</ele><time>2026-04-03T14:42:39.999Z</time></trkpt><trkpt lat="43.79202617153703" lon="12.36433228123396"><ele>750.5</ele><time>2026-04-03T14:42:40.999Z</time></trkpt><trkpt lat="43.79201145361578" lon="12.364519508781221"><ele>750.75</ele><time>2026-04-03T14:42:41.999Z</time></trkpt><trkpt lat="43.792004419228014" lon="12.364713936530176"><ele>751.0</ele><time>2026-04-03T14:42:42.999Z</time></trkpt><trkpt lat="43.79198544898265" lon="12.364915428725359"><ele>751.0</ele><time>2026-04-03T14:42:43.999Z</time></trkpt><trkpt lat="43.79196737312785" lon="12.365113714669477"><ele>751.0</ele><time>2026-04-03T14:42:44.999Z</time></trkpt><trkpt lat="43.791948733069056" lon="12.365308443032339"><ele>751.0</ele><time>2026-04-03T14:42:45.999Z</time></trkpt><trkpt lat="43.791930146061986" lon="12.365499136073467"><ele>751.0</ele><time>2026-04-03T14:42:46.999Z</time></trkpt><trkpt lat="43.791912768881105" lon="12.365683213965568"><ele>750.0</ele><time>2026-04-03T14:42:47.999Z</time></trkpt><trkpt lat="43.791893956050316" lon="12.365858008047876"><ele>749.0</ele><time>2026-04-03T14:42:48.999Z</time></trkpt><trkpt lat="43.791874853389174" lon="12.366015560826476"><ele>748.0</ele><time>2026-04-03T14:42:49.999Z</time></trkpt><trkpt lat="43.791857709820874" lon="12.366161605440073"><ele>747.0</ele><time>2026-04-03T14:42:50.999Z</time></trkpt><trkpt lat="43.79185423320293" lon="12.36628669866216"><ele>746.0</ele><time>2026-04-03T14:42:51.999Z</time></trkpt><trkpt lat="43.791873611639915" lon="12.366388696146414"><ele>744.4</ele><time>2026-04-03T14:42:52.999Z</time></trkpt><trkpt lat="43.79191885795497" lon="12.366473940295627"><ele>742.8</ele><time>2026-04-03T14:42:53.999Z</time></trkpt><trkpt lat="43.791973320440405" lon="12.366530256931247"><ele>741.1999999999999</ele><time>2026-04-03T14:42:54.999Z</time></trkpt><trkpt lat="43.79210638038108" lon="12.366570616911488"><ele>739.5999999999999</ele><time>2026-04-03T14:42:56.999Z</time></trkpt><trkpt lat="43.792191014167244" lon="12.36655057258086"><ele>738.0</ele><time>2026-04-03T14:42:57.999Z</time></trkpt><trkpt lat="43.79228178109952" lon="12.36647872651638"><ele>738.0</ele><time>2026-04-03T14:42:58.999Z</time></trkpt><trkpt lat="43.79236753410196" lon="12.366369585335706"><ele>738.0</ele><time>2026-04-03T14:42:59.999Z</time></trkpt><trkpt lat="43.79244890570795" lon="12.366235266977911"><ele>738.0</ele><time>2026-04-03T14:43:00.999Z</time></trkpt><trkpt lat="43.79252730071842" lon="12.366087661391179"><ele>738.0</ele><time>2026-04-03T14:43:01.999Z</time></trkpt><trkpt lat="43.79260435421957" lon="12.365938457845324"><ele>737.75</ele><time>2026-04-03T14:43:02.999Z</time></trkpt><trkpt lat="43.792681492809116" lon="12.365793251137246"><ele>737.5</ele><time>2026-04-03T14:43:03.999Z</time></trkpt><trkpt lat="43.79275980396366" lon="12.365661004720748"><ele>737.25</ele><time>2026-04-03T14:43:04.999Z</time></trkpt><trkpt lat="43.792839984677265" lon="12.365539776723152"><ele>737.0</ele><time>2026-04-03T14:43:05.999Z</time></trkpt><trkpt lat="43.79291801991399" lon="12.365429949435828"><ele>737.0</ele><time>2026-04-03T14:43:06.999Z</time></trkpt><trkpt lat="43.79301139837619" lon="12.365345351466406"><ele>737.0</ele><time>2026-04-03T14:43:07.999Z</time></trkpt><trkpt lat="43.79311046734686" lon="12.365286346356605"><ele>737.0</ele><time>2026-04-03T14:43:08.999Z</time></trkpt><trkpt lat="43.79322049086487" lon="12.365247690357146"><ele>737.0</ele><time>2026-04-03T14:43:09.999Z</time></trkpt><trkpt lat="43.793333407345656" lon="12.365204760805224"><ele>737.0</ele><time>2026-04-03T14:43:10.999Z</time></trkpt><trkpt lat="43.79345282627264" lon="12.365152826564342"><ele>737.0</ele><time>2026-04-03T14:43:11.999Z</time></trkpt><trkpt lat="43.79357418679559" lon="12.36510054526566"><ele>737.0</ele><time>2026-04-03T14:43:12.999Z</time></trkpt><trkpt lat="43.793685573872935" lon="12.365046936781136"><ele>737.0</ele><time>2026-04-03T14:43:13.999Z</time></trkpt><trkpt lat="43.793797004026224" lon="12.364998898699845"><ele>735.0</ele><time>2026-04-03T14:43:14.999Z</time></trkpt><trkpt lat="43.79391194169335" lon="12.364957118511883"><ele>733.0</ele><time>2026-04-03T14:43:15.999Z</time></trkpt><trkpt lat="43.79402791577549" lon="12.364909839648"><ele>731.0</ele><time>2026-04-03T14:43:16.999Z</time></trkpt><trkpt lat="43.794156724256254" lon="12.364890367969064"><ele>729.0</ele><time>2026-04-03T14:43:17.999Z</time></trkpt><trkpt lat="43.794293309499025" lon="12.364887569821905"><ele>729.5</ele><time>2026-04-03T14:43:18.999Z</time></trkpt><trkpt lat="43.79442722251938" lon="12.364897484608"><ele>730.0</ele><time>2026-04-03T14:43:19.999Z</time></trkpt><trkpt lat="43.79456362764238" lon="12.364925336757079"><ele>730.5</ele><time>2026-04-03T14:43:20.999Z</time></trkpt><trkpt lat="43.79470134299317" lon="12.364969568976202"><ele>731.0</ele><time>2026-04-03T14:43:21.999Z</time></trkpt><trkpt lat="43.794833123219355" lon="12.36502822153257"><ele>731.0</ele><time>2026-04-03T14:43:22.999Z</time></trkpt><trkpt lat="43.79495824593192" lon="12.365095567929181"><ele>731.0</ele><time>2026-04-03T14:43:23.999Z</time></trkpt><trkpt lat="43.79508044242105" lon="12.365165473475152"><ele>731.0</ele><time>2026-04-03T14:43:24.999Z</time></trkpt><trkpt lat="43.795199556323" lon="12.365230100107015"><ele>731.0</ele><time>2026-04-03T14:43:25.999Z</time></trkpt><trkpt lat="43.79531435120528" lon="12.365289310178154"><ele>732.25</ele><time>2026-04-03T14:43:26.999Z</time></trkpt><trkpt lat="43.795423940452935" lon="12.365350173747204"><ele>733.5</ele><time>2026-04-03T14:43:27.999Z</time></trkpt><trkpt lat="43.795534543047424" lon="12.365403318605244"><ele>734.75</ele><time>2026-04-03T14:43:29Z</time></trkpt><trkpt lat="43.79564813843243" lon="12.365455232683678"><ele>736.0</ele><time>2026-04-03T14:43:30Z</time></trkpt><trkpt lat="43.79576146239434" lon="12.36552349709952"><ele>734.0</ele><time>2026-04-03T14:43:31Z</time></trkpt><trkpt lat="43.79587111376629" lon="12.365619630936045"><ele>732.0</ele><time>2026-04-03T14:43:32Z</time></trkpt><trkpt lat="43.79597628108115" lon="12.365741536729018"><ele>730.0</ele><time>2026-04-03T14:43:33Z</time></trkpt><trkpt lat="43.79607764458553" lon="12.365875041321688"><ele>728.0</ele><time>2026-04-03T14:43:34Z</time></trkpt><trkpt lat="43.79617740553849" lon="12.366020900278647"><ele>727.75</ele><time>2026-04-03T14:43:35Z</time></trkpt><trkpt lat="43.79627869772673" lon="12.366170827103682"><ele>727.5</ele><time>2026-04-03T14:43:36Z</time></trkpt><trkpt lat="43.796370062989155" lon="12.366305161172123"><ele>727.25</ele><time>2026-04-03T14:43:37Z</time></trkpt><trkpt lat="43.796448385406414" lon="12.366394222810477"><ele>727.0</ele><time>2026-04-03T14:43:38Z</time></trkpt><trkpt lat="43.79653249044157" lon="12.366459219823577"><ele>727.0</ele><time>2026-04-03T14:43:39Z</time></trkpt><trkpt lat="43.79661975364124" lon="12.366474391379844"><ele>727.0</ele><time>2026-04-03T14:43:40Z</time></trkpt><trkpt lat="43.796698562534445" lon="12.366446040363986"><ele>727.0</ele><time>2026-04-03T14:43:41Z</time></trkpt><trkpt lat="43.79676442153493" lon="12.366368937650204"><ele>727.0</ele><time>2026-04-03T14:43:42Z</time></trkpt><trkpt lat="43.796821086354186" lon="12.366248525285767"><ele>727.0</ele><time>2026-04-03T14:43:43Z</time></trkpt><trkpt lat="43.796873782395444" lon="12.366103084569822"><ele>724.0</ele><time>2026-04-03T14:43:44Z</time></trkpt><trkpt lat="43.79692628274698" lon="12.365939082558448"><ele>721.0</ele><time>2026-04-03T14:43:45Z</time></trkpt><trkpt lat="43.79697757251058" lon="12.365767430316742"><ele>718.0</ele><time>2026-04-03T14:43:46Z</time></trkpt><trkpt lat="43.797021112411876" lon="12.365618978697425"><ele>715.0</ele><time>2026-04-03T14:43:47Z</time></trkpt><trkpt lat="43.797064475802365" lon="12.36547615370803"><ele>715.0</ele><time>2026-04-03T14:43:48Z</time></trkpt><trkpt lat="43.79710732664787" lon="12.365325084409946"><ele>715.0</ele><time>2026-04-03T14:43:49Z</time></trkpt><trkpt lat="43.79715144810101" lon="12.365166846002294"><ele>715.0</ele><time>2026-04-03T14:43:50Z</time></trkpt><trkpt lat="43.797190054327196" lon="12.36501211072854"><ele>715.0</ele><time>2026-04-03T14:43:51Z</time></trkpt><trkpt lat="43.79720593979511" lon="12.364870349587644"><ele>715.0</ele><time>2026-04-03T14:43:52Z</time></trkpt><trkpt lat="43.797193486797646" lon="12.364727143256427"><ele>715.0</ele><time>2026-04-03T14:43:53Z</time></trkpt><trkpt lat="43.797182072862014" lon="12.364577256407353"><ele>715.0</ele><time>2026-04-03T14:43:54Z</time></trkpt><trkpt lat="43.79716097747776" lon="12.364428738855986"><ele>715.0</ele><time>2026-04-03T14:43:55Z</time></trkpt><trkpt lat="43.7971366900907" lon="12.364274071552822"><ele>715.0</ele><time>2026-04-03T14:43:56Z</time></trkpt><trkpt lat="43.797163092125466" lon="12.364112761197827"><ele>714.75</ele><time>2026-04-03T14:43:57Z</time></trkpt><trkpt lat="43.797214380372864" lon="12.363960401356186"><ele>714.5</ele><time>2026-04-03T14:43:58Z</time></trkpt><trkpt lat="43.797273574497346" lon="12.363819987111658"><ele>714.25</ele><time>2026-04-03T14:43:59Z</time></trkpt><trkpt lat="43.79734580925754" lon="12.36371099016716"><ele>714.0</ele><time>2026-04-03T14:44:00Z</time></trkpt><trkpt lat="43.797436618107305" lon="12.36363266675474"><ele>713.5</ele><time>2026-04-03T14:44:01Z</time></trkpt><trkpt lat="43.79754163775883" lon="12.36357480250951"><ele>713.0</ele><time>2026-04-03T14:44:02Z</time></trkpt><trkpt lat="43.79765576654493" lon="12.363509701951156"><ele>712.5</ele><time>2026-04-03T14:44:03Z</time></trkpt><trkpt lat="43.7977725315555" lon="12.363446027472655"><ele>712.0</ele><time>2026-04-03T14:44:04Z</time></trkpt><trkpt lat="43.79789438290405" lon="12.363387443784314"><ele>712.0</ele><time>2026-04-03T14:44:05Z</time></trkpt><trkpt lat="43.79801631108339" lon="12.363329679112542"><ele>712.0</ele><time>2026-04-03T14:44:06Z</time></trkpt><trkpt lat="43.79814405548013" lon="12.363281146318112"><ele>712.0</ele><time>2026-04-03T14:44:07Z</time></trkpt><trkpt lat="43.79826967645573" lon="12.363261053113503"><ele>712.0</ele><time>2026-04-03T14:44:08Z</time></trkpt><trkpt lat="43.798388275230195" lon="12.363257954585006"><ele>708.25</ele><time>2026-04-03T14:44:09Z</time></trkpt><trkpt lat="43.798505171473835" lon="12.363249721449828"><ele>704.5</ele><time>2026-04-03T14:44:10Z</time></trkpt><trkpt lat="43.79862309525004" lon="12.3632067382192"><ele>700.75</ele><time>2026-04-03T14:44:11Z</time></trkpt><trkpt lat="43.79873331044607" lon="12.363122115947245"><ele>697.0</ele><time>2026-04-03T14:44:12Z</time></trkpt><trkpt lat="43.798841218401186" lon="12.363032535769854"><ele>698.5</ele><time>2026-04-03T14:44:13Z</time></trkpt><trkpt lat="43.798941939478496" lon="12.362943777902933"><ele>700.0</ele><time>2026-04-03T14:44:14Z</time></trkpt><trkpt lat="43.79903058423529" lon="12.362844299535944"><ele>701.5</ele><time>2026-04-03T14:44:15Z</time></trkpt><trkpt lat="43.79910309472459" lon="12.362728469792675"><ele>703.0</ele><time>2026-04-03T14:44:16Z</time></trkpt><trkpt lat="43.79916509655084" lon="12.362596357460331"><ele>703.0</ele><time>2026-04-03T14:44:17Z</time></trkpt><trkpt lat="43.79922796367411" lon="12.362465468220282"><ele>703.0</ele><time>2026-04-03T14:44:17.999Z</time></trkpt><trkpt lat="43.79929835328075" lon="12.362337558397552"><ele>703.0</ele><time>2026-04-03T14:44:18.999Z</time></trkpt><trkpt lat="43.799376872346485" lon="12.362250791596912"><ele>703.0</ele><time>2026-04-03T14:44:19.999Z</time></trkpt><trkpt lat="43.79946733484432" lon="12.362204653046717"><ele>703.0</ele><time>2026-04-03T14:44:20.999Z</time></trkpt><trkpt lat="43.799565944166204" lon="12.362201269370757"><ele>700.75</ele><time>2026-04-03T14:44:21.999Z</time></trkpt><trkpt lat="43.79967415865531" lon="12.362237992644095"><ele>698.5</ele><time>2026-04-03T14:44:22.999Z</time></trkpt><trkpt lat="43.79978664049574" lon="12.362293215471858"><ele>696.25</ele><time>2026-04-03T14:44:23.999Z</time></trkpt><trkpt lat="43.799895509397714" lon="12.362359782098533"><ele>694.0</ele><time>2026-04-03T14:44:24.999Z</time></trkpt><trkpt lat="43.80001057870676" lon="12.362426978505683"><ele>694.0</ele><time>2026-04-03T14:44:25.999Z</time></trkpt><trkpt lat="43.800123307278355" lon="12.36249517744124"><ele>694.0</ele><time>2026-04-03T14:44:26.999Z</time></trkpt><trkpt lat="43.8002370329786" lon="12.362561897213377"><ele>694.0</ele><time>2026-04-03T14:44:27.999Z</time></trkpt><trkpt lat="43.80034867240826" lon="12.362627617988341"><ele>694.0</ele><time>2026-04-03T14:44:28.999Z</time></trkpt><trkpt lat="43.800456706777894" lon="12.362693202759367"><ele>693.25</ele><time>2026-04-03T14:44:29.999Z</time></trkpt><trkpt lat="43.80056356586395" lon="12.362752353467831"><ele>692.5</ele><time>2026-04-03T14:44:30.999Z</time></trkpt><trkpt lat="43.80066963407713" lon="12.362813186304063"><ele>691.75</ele><time>2026-04-03T14:44:31.999Z</time></trkpt><trkpt lat="43.80077437380024" lon="12.362871115640873"><ele>691.0</ele><time>2026-04-03T14:44:32.999Z</time></trkpt><trkpt lat="43.800877227130975" lon="12.362932886157894"><ele>691.0</ele><time>2026-04-03T14:44:33.999Z</time></trkpt><trkpt lat="43.800978144833245" lon="12.36299083944039"><ele>691.0</ele><time>2026-04-03T14:44:34.999Z</time></trkpt><trkpt lat="43.80107968304937" lon="12.363050050138582"><ele>691.0</ele><time>2026-04-03T14:44:35.999Z</time></trkpt><trkpt lat="43.80118049617129" lon="12.363107348061114"><ele>691.0</ele><time>2026-04-03T14:44:36.999Z</time></trkpt><trkpt lat="43.80127735836802" lon="12.363163632194448"><ele>691.0</ele><time>2026-04-03T14:44:37.999Z</time></trkpt><trkpt lat="43.80136829083803" lon="12.363211590849884"><ele>690.0</ele><time>2026-04-03T14:44:38.999Z</time></trkpt><trkpt lat="43.80145836377232" lon="12.363268353560473"><ele>689.0</ele><time>2026-04-03T14:44:39.999Z</time></trkpt><trkpt lat="43.80154332177761" lon="12.363330670957119"><ele>688.0</ele><time>2026-04-03T14:44:40.999Z</time></trkpt><trkpt lat="43.8016093246062" lon="12.363389203455219"><ele>687.0</ele><time>2026-04-03T14:44:41.999Z</time></trkpt><trkpt lat="43.80167755190445" lon="12.363465927049717"><ele>686.0</ele><time>2026-04-03T14:44:42.999Z</time></trkpt><trkpt lat="43.80174568812319" lon="12.36356839155653"><ele>686.0</ele><time>2026-04-03T14:44:43.999Z</time></trkpt><trkpt lat="43.801801025686615" lon="12.363690361265665"><ele>686.0</ele><time>2026-04-03T14:44:44.999Z</time></trkpt><trkpt lat="43.80185623329239" lon="12.363833556719058"><ele>686.0</ele><time>2026-04-03T14:44:45.999Z</time></trkpt><trkpt lat="43.80192041949184" lon="12.363980393269525"><ele>686.0</ele><time>2026-04-03T14:44:46.999Z</time></trkpt><trkpt lat="43.80198821195897" lon="12.364142766466024"><ele>684.5</ele><time>2026-04-03T14:44:47.999Z</time></trkpt><trkpt lat="43.80206576016388" lon="12.364298169272969"><ele>683.0</ele><time>2026-04-03T14:44:48.999Z</time></trkpt><trkpt lat="43.802152636259486" lon="12.364446906620419"><ele>681.5</ele><time>2026-04-03T14:44:49.999Z</time></trkpt><trkpt lat="43.80224799615284" lon="12.364592213251347"><ele>680.0</ele><time>2026-04-03T14:44:50.999Z</time></trkpt><trkpt lat="43.80234860794205" lon="12.364722802384811"><ele>678.0</ele><time>2026-04-03T14:44:51.999Z</time></trkpt><trkpt lat="43.802449949016484" lon="12.364839459785562"><ele>676.0</ele><time>2026-04-03T14:44:52.999Z</time></trkpt><trkpt lat="43.80254802724586" lon="12.364959928539221"><ele>674.0</ele><time>2026-04-03T14:44:53.999Z</time></trkpt><trkpt lat="43.802646298590986" lon="12.365082706450135"><ele>672.0</ele><time>2026-04-03T14:44:54.999Z</time></trkpt><trkpt lat="43.802738082772" lon="12.365204286555265"><ele>672.0</ele><time>2026-04-03T14:44:55.999Z</time></trkpt><trkpt lat="43.80282162582558" lon="12.36533379924775"><ele>672.0</ele><time>2026-04-03T14:44:56.999Z</time></trkpt><trkpt lat="43.802899336239015" lon="12.365455841038644"><ele>672.0</ele><time>2026-04-03T14:44:57.999Z</time></trkpt><trkpt lat="43.80297086949268" lon="12.365575395752732"><ele>672.0</ele><time>2026-04-03T14:44:58.999Z</time></trkpt><trkpt lat="43.80303332295547" lon="12.365686085804237"><ele>671.0</ele><time>2026-04-03T14:44:59.999Z</time></trkpt><trkpt lat="43.803088912867295" lon="12.365783317130486"><ele>670.0</ele><time>2026-04-03T14:45:00.999Z</time></trkpt><trkpt lat="43.80313688084897" lon="12.365863502179387"><ele>669.0</ele><time>2026-04-03T14:45:01.999Z</time></trkpt><trkpt lat="43.803186271126116" lon="12.365973098145439"><ele>668.0</ele><time>2026-04-03T14:45:03.999Z</time></trkpt><trkpt lat="43.803184687936565" lon="12.36606409906028"><ele>667.0</ele><time>2026-04-03T14:45:05.999Z</time></trkpt><trkpt lat="43.80320639108589" lon="12.3661863684877"><ele>666.0</ele><time>2026-04-03T14:45:08.999Z</time></trkpt><trkpt lat="43.80327124966109" lon="12.366279815400308"><ele>664.8</ele><time>2026-04-03T14:48:26Z</time></trkpt><trkpt lat="43.80335402792271" lon="12.366384318177793"><ele>663.5999999999999</ele><time>2026-04-03T14:48:28Z</time></trkpt><trkpt lat="43.80344502997509" lon="12.366407191793973"><ele>662.4</ele><time>2026-04-03T14:48:31Z</time></trkpt><trkpt lat="43.80349816432433" lon="12.366464068709774"><ele>661.2</ele><time>2026-04-03T14:48:32Z</time></trkpt><trkpt lat="43.80355771770632" lon="12.366560868913842"><ele>660.0</ele><time>2026-04-03T14:48:33Z</time></trkpt><trkpt lat="43.80362159281611" lon="12.36666103306203"><ele>659.25</ele><time>2026-04-03T14:48:33.999Z</time></trkpt><trkpt lat="43.803698852383576" lon="12.366780850283169"><ele>658.5</ele><time>2026-04-03T14:48:34.999Z</time></trkpt><trkpt lat="43.80379105172911" lon="12.366900016383148"><ele>657.75</ele><time>2026-04-03T14:48:35.999Z</time></trkpt><trkpt lat="43.803879587303285" lon="12.36700935244557"><ele>657.0</ele><time>2026-04-03T14:48:36.999Z</time></trkpt><trkpt lat="43.80396518568937" lon="12.367115090350257"><ele>655.25</ele><time>2026-04-03T14:48:37.999Z</time></trkpt><trkpt lat="43.80404616517993" lon="12.367217501521345"><ele>653.5</ele><time>2026-04-03T14:48:38.999Z</time></trkpt><trkpt lat="43.80413976063361" lon="12.367330666357034"><ele>651.75</ele><time>2026-04-03T14:48:39.999Z</time></trkpt><trkpt lat="43.80424037598375" lon="12.367457129344064"><ele>650.0</ele><time>2026-04-03T14:48:40.999Z</time></trkpt><trkpt lat="43.8043497662097" lon="12.367590536307176"><ele>649.6666666666666</ele><time>2026-04-03T14:48:41.999Z</time></trkpt><trkpt lat="43.804466574226396" lon="12.367736188017242"><ele>649.3333333333334</ele><time>2026-04-03T14:48:42.999Z</time></trkpt><trkpt lat="43.80458753653159" lon="12.36788990763314"><ele>649.0</ele><time>2026-04-03T14:48:43.999Z</time></trkpt><trkpt lat="43.804710616771565" lon="12.368043779946294"><ele>647.3333333333334</ele><time>2026-04-03T14:48:44.999Z</time></trkpt><trkpt lat="43.80483495828263" lon="12.368203677976883"><ele>645.6666666666666</ele><time>2026-04-03T14:48:45.999Z</time></trkpt><trkpt lat="43.80496836103212" lon="12.36836199085704"><ele>644.0</ele><time>2026-04-03T14:48:46.999Z</time></trkpt><trkpt lat="43.805102671970644" lon="12.368524273867544"><ele>642.0</ele><time>2026-04-03T14:48:47.999Z</time></trkpt><trkpt lat="43.805237464544966" lon="12.368695188608724"><ele>640.0</ele><time>2026-04-03T14:48:48.999Z</time></trkpt><trkpt lat="43.80537552690083" lon="12.368865032285935"><ele>638.0</ele><time>2026-04-03T14:48:49.999Z</time></trkpt><trkpt lat="43.80551314183584" lon="12.369033785588934"><ele>637.6666666666666</ele><time>2026-04-03T14:48:50.999Z</time></trkpt><trkpt lat="43.805642228723514" lon="12.369189567664122"><ele>637.3333333333334</ele><time>2026-04-03T14:48:51.999Z</time></trkpt><trkpt lat="43.80576438332258" lon="12.369340195953177"><ele>637.0</ele><time>2026-04-03T14:48:52.999Z</time></trkpt><trkpt lat="43.805882376231764" lon="12.369484841443876"><ele>637.0</ele><time>2026-04-03T14:48:53.999Z</time></trkpt><trkpt lat="43.805995183425" lon="12.369615485709065"><ele>637.0</ele><time>2026-04-03T14:48:54.999Z</time></trkpt><trkpt lat="43.80609155469033" lon="12.36974352987425"><ele>637.0</ele><time>2026-04-03T14:48:55.999Z</time></trkpt><trkpt lat="43.806178689465746" lon="12.369872451664396"><ele>637.0</ele><time>2026-04-03T14:48:56.999Z</time></trkpt><trkpt lat="43.80625607941374" lon="12.370011204594006"><ele>636.0</ele><time>2026-04-03T14:48:57.999Z</time></trkpt><trkpt lat="43.806311135500714" lon="12.370162743878476"><ele>635.0</ele><time>2026-04-03T14:48:58.999Z</time></trkpt><trkpt lat="43.806345537294874" lon="12.370334542468422"><ele>634.0</ele><time>2026-04-03T14:48:59.999Z</time></trkpt><trkpt lat="43.806364839687525" lon="12.370518872760723"><ele>633.0</ele><time>2026-04-03T14:49:00.999Z</time></trkpt><trkpt lat="43.80635719346959" lon="12.370715710126989"><ele>631.0</ele><time>2026-04-03T14:49:01.999Z</time></trkpt><trkpt lat="43.8063225317349" lon="12.370922400760453"><ele>629.0</ele><time>2026-04-03T14:49:02.999Z</time></trkpt><trkpt lat="43.8062805417484" lon="12.371137471394388"><ele>627.0</ele><time>2026-04-03T14:49:03.999Z</time></trkpt><trkpt lat="43.8062411548832" lon="12.371352874308544"><ele>624.0</ele><time>2026-04-03T14:49:04.999Z</time></trkpt><trkpt lat="43.80619803228055" lon="12.37156112556246"><ele>621.0</ele><time>2026-04-03T14:49:05.999Z</time></trkpt><trkpt lat="43.80615970221997" lon="12.37177557513664"><ele>618.0</ele><time>2026-04-03T14:49:06.999Z</time></trkpt><trkpt lat="43.806118762539946" lon="12.371999374036468"><ele>615.6666666666666</ele><time>2026-04-03T14:49:07.999Z</time></trkpt><trkpt lat="43.806078329310715" lon="12.372220803708215"><ele>613.3333333333333</ele><time>2026-04-03T14:49:08.999Z</time></trkpt><trkpt lat="43.806036946756095" lon="12.372434862179984"><ele>611.0</ele><time>2026-04-03T14:49:09.999Z</time></trkpt><trkpt lat="43.80599641208827" lon="12.372657531851273"><ele>610.3333333333333</ele><time>2026-04-03T14:49:10.999Z</time></trkpt><trkpt lat="43.805947718563715" lon="12.372879637783187"><ele>609.6666666666666</ele><time>2026-04-03T14:49:11.999Z</time></trkpt><trkpt lat="43.80588194995991" lon="12.37310092711748"><ele>609.0</ele><time>2026-04-03T14:49:12.999Z</time></trkpt><trkpt lat="43.80580597290865" lon="12.373327127325787"><ele>609.0</ele><time>2026-04-03T14:49:13.999Z</time></trkpt><trkpt lat="43.80572619039321" lon="12.373556844360017"><ele>609.0</ele><time>2026-04-03T14:49:14.999Z</time></trkpt><trkpt lat="43.80564231664414" lon="12.37379057712647"><ele>609.0</ele><time>2026-04-03T14:49:15.999Z</time></trkpt><trkpt lat="43.805558180113486" lon="12.37402769938641"><ele>604.6666666666666</ele><time>2026-04-03T14:49:16.999Z</time></trkpt><trkpt lat="43.80547505337524" lon="12.374251015379642"><ele>600.3333333333333</ele><time>2026-04-03T14:49:17.999Z</time></trkpt><trkpt lat="43.80539380297782" lon="12.374465158499492"><ele>596.0</ele><time>2026-04-03T14:49:18.999Z</time></trkpt><trkpt lat="43.80531742552433" lon="12.374667733773375"><ele>596.6666666666666</ele><time>2026-04-03T14:49:19.999Z</time></trkpt><trkpt lat="43.805247610467674" lon="12.37486047053892"><ele>597.3333333333334</ele><time>2026-04-03T14:49:20.999Z</time></trkpt><trkpt lat="43.80517715384178" lon="12.375046450215915"><ele>598.0</ele><time>2026-04-03T14:49:21.999Z</time></trkpt><trkpt lat="43.805094011359806" lon="12.375217023586544"><ele>598.0</ele><time>2026-04-03T14:49:22.999Z</time></trkpt><trkpt lat="43.80498996418984" lon="12.375370055177358"><ele>598.0</ele><time>2026-04-03T14:49:23.999Z</time></trkpt><trkpt lat="43.80486797775149" lon="12.375509078148163"><ele>598.0</ele><time>2026-04-03T14:49:24.999Z</time></trkpt><trkpt lat="43.804739680382305" lon="12.375637586056333"><ele>597.0</ele><time>2026-04-03T14:49:25.999Z</time></trkpt><trkpt lat="43.8046174178971" lon="12.375757725021204"><ele>596.0</ele><time>2026-04-03T14:49:26.999Z</time></trkpt><trkpt lat="43.80450126629796" lon="12.375883138407586"><ele>595.0</ele><time>2026-04-03T14:49:27.999Z</time></trkpt><trkpt lat="43.804397741891385" lon="12.376002546790383"><ele>594.0</ele><time>2026-04-03T14:49:28.999Z</time></trkpt><trkpt lat="43.80431054143552" lon="12.376115108259846"><ele>594.0</ele><time>2026-04-03T14:49:29.999Z</time></trkpt><trkpt lat="43.80423813636466" lon="12.376229703807095"><ele>594.0</ele><time>2026-04-03T14:49:30.999Z</time></trkpt><trkpt lat="43.80417712057931" lon="12.37633698762183"><ele>594.0</ele><time>2026-04-03T14:49:31.999Z</time></trkpt><trkpt lat="43.804112333645506" lon="12.37642721606126"><ele>594.0</ele><time>2026-04-03T14:49:32.999Z</time></trkpt><trkpt lat="43.80407484314637" lon="12.376566982004405"><ele>594.0</ele><time>2026-04-03T14:49:34.999Z</time></trkpt><trkpt lat="43.8041047544664" lon="12.376645084135362"><ele>593.0</ele><time>2026-04-03T14:49:35.999Z</time></trkpt><trkpt lat="43.80416130862003" lon="12.376724764690394"><ele>592.0</ele><time>2026-04-03T14:49:36.999Z</time></trkpt><trkpt lat="43.804207662659394" lon="12.376826400602289"><ele>591.0</ele><time>2026-04-03T14:49:37.999Z</time></trkpt><trkpt lat="43.80424570364088" lon="12.376935838587828"><ele>590.0</ele><time>2026-04-03T14:49:38.999Z</time></trkpt><trkpt lat="43.80428867000647" lon="12.377041249870729"><ele>589.0</ele><time>2026-04-03T14:49:39.999Z</time></trkpt><trkpt lat="43.80433768878898" lon="12.377146388801386"><ele>588.0</ele><time>2026-04-03T14:49:40.999Z</time></trkpt><trkpt lat="43.804398276627104" lon="12.377245147672436"><ele>586.1999999999999</ele><time>2026-04-03T14:49:41.999Z</time></trkpt><trkpt lat="43.8044757311543" lon="12.377338469647801"><ele>584.4</ele><time>2026-04-03T14:49:42.999Z</time></trkpt><trkpt lat="43.80457201057713" lon="12.377424181112069"><ele>582.5999999999999</ele><time>2026-04-03T14:49:43.999Z</time></trkpt><trkpt lat="43.80466901798136" lon="12.37750538247904"><ele>580.8</ele><time>2026-04-03T14:49:44.999Z</time></trkpt><trkpt lat="43.804766391675905" lon="12.377587634945204"><ele>579.0</ele><time>2026-04-03T14:49:45.999Z</time></trkpt><trkpt lat="43.80486470047291" lon="12.377679719396564"><ele>579.0</ele><time>2026-04-03T14:49:47Z</time></trkpt><trkpt lat="43.804957102960834" lon="12.377765366723944"><ele>579.0</ele><time>2026-04-03T14:49:48Z</time></trkpt><trkpt lat="43.805042243789536" lon="12.377844549554787"><ele>579.0</ele><time>2026-04-03T14:49:49Z</time></trkpt><trkpt lat="43.805121092335966" lon="12.377919269925577"><ele>579.0</ele><time>2026-04-03T14:49:50Z</time></trkpt><trkpt lat="43.80519665080385" lon="12.37799013604707"><ele>579.0</ele><time>2026-04-03T14:49:51Z</time></trkpt><trkpt lat="43.805274199001374" lon="12.378055715087037"><ele>577.6666666666666</ele><time>2026-04-03T14:49:52Z</time></trkpt><trkpt lat="43.805344984006524" lon="12.378121803192668"><ele>576.3333333333334</ele><time>2026-04-03T14:49:53Z</time></trkpt><trkpt lat="43.805403910130174" lon="12.378188041827707"><ele>575.0</ele><time>2026-04-03T14:49:54Z</time></trkpt><trkpt lat="43.80545591606811" lon="12.378265317584324"><ele>573.6666666666667</ele><time>2026-04-03T14:49:55Z</time></trkpt><trkpt lat="43.80549538920687" lon="12.378355477648373"><ele>572.3333333333334</ele><time>2026-04-03T14:49:56Z</time></trkpt><trkpt lat="43.80551882164818" lon="12.37845718651145"><ele>571.0</ele><time>2026-04-03T14:49:57Z</time></trkpt><trkpt lat="43.80552027021457" lon="12.378567757213732"><ele>571.0</ele><time>2026-04-03T14:49:58Z</time></trkpt><trkpt lat="43.80550155026111" lon="12.378680753284478"><ele>571.0</ele><time>2026-04-03T14:49:59Z</time></trkpt><trkpt lat="43.8054612082554" lon="12.378782225562611"><ele>571.0</ele><time>2026-04-03T14:50:00Z</time></trkpt><trkpt lat="43.80542048583355" lon="12.378885590598342"><ele>571.0</ele><time>2026-04-03T14:50:01Z</time></trkpt><trkpt lat="43.80537269302318" lon="12.378987205334427"><ele>571.0</ele><time>2026-04-03T14:50:02Z</time></trkpt><trkpt lat="43.80532650126598" lon="12.379088857816914"><ele>571.0</ele><time>2026-04-03T14:50:03Z</time></trkpt><trkpt lat="43.80527998586989" lon="12.379194950911963"><ele>570.0</ele><time>2026-04-03T14:50:04Z</time></trkpt><trkpt lat="43.80523254527594" lon="12.379301038710425"><ele>569.0</ele><time>2026-04-03T14:50:05Z</time></trkpt><trkpt lat="43.80518361891426" lon="12.37941015081679"><ele>568.0</ele><time>2026-04-03T14:50:06Z</time></trkpt><trkpt lat="43.805136058251655" lon="12.379522833817996"><ele>567.0</ele><time>2026-04-03T14:50:07Z</time></trkpt><trkpt lat="43.80508544848191" lon="12.379636376925463"><ele>566.0</ele><time>2026-04-03T14:50:08Z</time></trkpt><trkpt lat="43.80503492482497" lon="12.379764805129359"><ele>564.75</ele><time>2026-04-03T14:50:09Z</time></trkpt><trkpt lat="43.804967983253356" lon="12.37988459330401"><ele>563.5</ele><time>2026-04-03T14:50:10Z</time></trkpt><trkpt lat="43.80490836303164" lon="12.380023635507634"><ele>562.25</ele><time>2026-04-03T14:50:11Z</time></trkpt><trkpt lat="43.804845956011505" lon="12.380169176902859"><ele>561.0</ele><time>2026-04-03T14:50:12Z</time></trkpt><trkpt lat="43.804780007587766" lon="12.380322977217968"><ele>561.0</ele><time>2026-04-03T14:50:13Z</time></trkpt><trkpt lat="43.804712991350286" lon="12.380479267989347"><ele>561.0</ele><time>2026-04-03T14:50:14Z</time></trkpt><trkpt lat="43.80465873561356" lon="12.380647660700644"><ele>561.0</ele><time>2026-04-03T14:50:15Z</time></trkpt><trkpt lat="43.80457677717828" lon="12.380794497030093"><ele>561.0</ele><time>2026-04-03T14:50:16Z</time></trkpt><trkpt lat="43.80452011208205" lon="12.380966681362677"><ele>559.0</ele><time>2026-04-03T14:50:17Z</time></trkpt><trkpt lat="43.80443669916192" lon="12.381128262120198"><ele>557.0</ele><time>2026-04-03T14:50:18Z</time></trkpt><trkpt lat="43.804364657019235" lon="12.381296365104912"><ele>555.0</ele><time>2026-04-03T14:50:19Z</time></trkpt><trkpt lat="43.80429324582449" lon="12.381464541616685"><ele>553.0</ele><time>2026-04-03T14:50:20Z</time></trkpt><trkpt lat="43.804222202551856" lon="12.38163040953864"><ele>551.5</ele><time>2026-04-03T14:50:21Z</time></trkpt><trkpt lat="43.804148812517695" lon="12.381797983669784"><ele>550.0</ele><time>2026-04-03T14:50:22Z</time></trkpt><trkpt lat="43.80407939624159" lon="12.381965537783763"><ele>548.5</ele><time>2026-04-03T14:50:23Z</time></trkpt><trkpt lat="43.80400978773312" lon="12.38212513011398"><ele>547.0</ele><time>2026-04-03T14:50:24Z</time></trkpt><trkpt lat="43.8039378911846" lon="12.38228522024349"><ele>546.0</ele><time>2026-04-03T14:50:25Z</time></trkpt><trkpt lat="43.80386383934308" lon="12.382447685443399"><ele>545.0</ele><time>2026-04-03T14:50:26Z</time></trkpt><trkpt lat="43.803788114913004" lon="12.38260940920176"><ele>544.0</ele><time>2026-04-03T14:50:27Z</time></trkpt><trkpt lat="43.80372080153101" lon="12.382756867947366"><ele>543.0</ele><time>2026-04-03T14:50:28Z</time></trkpt><trkpt lat="43.80366521462591" lon="12.38288289798031"><ele>543.0</ele><time>2026-04-03T14:50:29Z</time></trkpt><trkpt lat="43.80360680481218" lon="12.383002122122656"><ele>543.0</ele><time>2026-04-03T14:50:30Z</time></trkpt><trkpt lat="43.80354312734911" lon="12.383107996409423"><ele>543.0</ele><time>2026-04-03T14:50:31Z</time></trkpt><trkpt lat="43.80349076556513" lon="12.383201938924442"><ele>543.0</ele><time>2026-04-03T14:50:32Z</time></trkpt><trkpt lat="43.80343271978227" lon="12.383275758962885"><ele>543.0</ele><time>2026-04-03T14:50:33Z</time></trkpt><trkpt lat="43.80337546551561" lon="12.383328424791744"><ele>543.0</ele><time>2026-04-03T14:50:34Z</time></trkpt><trkpt lat="43.80327131779631" lon="12.383433348735414"><ele>542.25</ele><time>2026-04-03T14:50:36Z</time></trkpt><trkpt lat="43.80326708514075" lon="12.383614109885693"><ele>541.5</ele><time>2026-04-03T14:50:37Z</time></trkpt><trkpt lat="43.80326091007186" lon="12.383783800841224"><ele>540.75</ele><time>2026-04-03T14:50:38Z</time></trkpt><trkpt lat="43.80320792120018" lon="12.383957628285803"><ele>540.0</ele><time>2026-04-03T14:50:39Z</time></trkpt><trkpt lat="43.80313345459524" lon="12.384118466455126"><ele>538.3333333333334</ele><time>2026-04-03T14:50:40Z</time></trkpt><trkpt lat="43.803040183622734" lon="12.384286427142257"><ele>536.6666666666667</ele><time>2026-04-03T14:50:41Z</time></trkpt><trkpt lat="43.80295388516048" lon="12.384471929356165"><ele>535.0</ele><time>2026-04-03T14:50:42Z</time></trkpt><trkpt lat="43.802870190689994" lon="12.384653407174554"><ele>534.3333333333334</ele><time>2026-04-03T14:50:42.999Z</time></trkpt><trkpt lat="43.80277958408299" lon="12.384842297295066"><ele>533.6666666666666</ele><time>2026-04-03T14:50:43.999Z</time></trkpt><trkpt lat="43.80268431525084" lon="12.385039556314753"><ele>533.0</ele><time>2026-04-03T14:50:44.999Z</time></trkpt><trkpt lat="43.80258353429822" lon="12.385246036680028"><ele>530.6666666666666</ele><time>2026-04-03T14:50:45.999Z</time></trkpt><trkpt lat="43.80248028169631" lon="12.385460407660426"><ele>528.3333333333334</ele><time>2026-04-03T14:50:46.999Z</time></trkpt><trkpt lat="43.80237662153997" lon="12.385679459290326"><ele>526.0</ele><time>2026-04-03T14:50:47.999Z</time></trkpt><trkpt lat="43.802271421936155" lon="12.385893315261415"><ele>525.6666666666667</ele><time>2026-04-03T14:50:48.999Z</time></trkpt><trkpt lat="43.80216562608649" lon="12.386110209908441"><ele>525.3333333333334</ele><time>2026-04-03T14:50:49.999Z</time></trkpt><trkpt lat="43.80206214160678" lon="12.386328051851963"><ele>525.0</ele><time>2026-04-03T14:50:50.999Z</time></trkpt><trkpt lat="43.80196090268344" lon="12.386537725479325"><ele>524.3333333333334</ele><time>2026-04-03T14:50:51.999Z</time></trkpt><trkpt lat="43.801861814617745" lon="12.386740874155857"><ele>523.6666666666667</ele><time>2026-04-03T14:50:52.999Z</time></trkpt><trkpt lat="43.801773332030535" lon="12.386927350093055"><ele>523.0</ele><time>2026-04-03T14:50:53.999Z</time></trkpt><trkpt lat="43.801693592456175" lon="12.387107095475724"><ele>520.75</ele><time>2026-04-03T14:50:54.999Z</time></trkpt><trkpt lat="43.80163727965556" lon="12.387293773485226"><ele>518.5</ele><time>2026-04-03T14:50:55.999Z</time></trkpt><trkpt lat="43.80161539052359" lon="12.38749760564433"><ele>516.25</ele><time>2026-04-03T14:50:56.999Z</time></trkpt><trkpt lat="43.80162780810206" lon="12.387710748455484"><ele>514.0</ele><time>2026-04-03T14:50:57.999Z</time></trkpt><trkpt lat="43.80168007480619" lon="12.387924676224852"><ele>513.3333333333334</ele><time>2026-04-03T14:50:58.999Z</time></trkpt><trkpt lat="43.801749468452634" lon="12.388141042789155"><ele>512.6666666666666</ele><time>2026-04-03T14:50:59.999Z</time></trkpt><trkpt lat="43.80182637964444" lon="12.38836802580095"><ele>512.0</ele><time>2026-04-03T14:51:00.999Z</time></trkpt><trkpt lat="43.80189993328632" lon="12.388607465634168"><ele>511.3333333333333</ele><time>2026-04-03T14:51:01.999Z</time></trkpt><trkpt lat="43.80197150043692" lon="12.388835286822292"><ele>510.66666666666663</ele><time>2026-04-03T14:51:02.999Z</time></trkpt><trkpt lat="43.80204239664713" lon="12.38906396135942"><ele>510.0</ele><time>2026-04-03T14:51:03.999Z</time></trkpt><trkpt lat="43.80211605995752" lon="12.389300518106191"><ele>508.66666666666663</ele><time>2026-04-03T14:51:04.999Z</time></trkpt><trkpt lat="43.80219278124164" lon="12.389546096274326"><ele>507.3333333333333</ele><time>2026-04-03T14:51:05.999Z</time></trkpt><trkpt lat="43.802269115380476" lon="12.389791842651539"><ele>506.0</ele><time>2026-04-03T14:51:06.999Z</time></trkpt><trkpt lat="43.80234126642693" lon="12.39002967246863"><ele>505.0</ele><time>2026-04-03T14:51:07.999Z</time></trkpt><trkpt lat="43.80241587901925" lon="12.390263279810451"><ele>504.0</ele><time>2026-04-03T14:51:08.999Z</time></trkpt><trkpt lat="43.80249458326998" lon="12.39049334822986"><ele>503.0</ele><time>2026-04-03T14:51:09.999Z</time></trkpt><trkpt lat="43.80258183412674" lon="12.390717052967943"><ele>502.66666666666663</ele><time>2026-04-03T14:51:10.999Z</time></trkpt><trkpt lat="43.802681280006055" lon="12.390940031823154"><ele>502.33333333333337</ele><time>2026-04-03T14:51:11.999Z</time></trkpt><trkpt lat="43.8027907804646" lon="12.391158155053608"><ele>502.0</ele><time>2026-04-03T14:51:12.999Z</time></trkpt><trkpt lat="43.80290216299054" lon="12.391374733314864"><ele>500.6666666666667</ele><time>2026-04-03T14:51:13.999Z</time></trkpt><trkpt lat="43.803008636909745" lon="12.391587830365195"><ele>499.33333333333337</ele><time>2026-04-03T14:51:14.999Z</time></trkpt><trkpt lat="43.8031122908902" lon="12.391800412441919"><ele>498.0</ele><time>2026-04-03T14:51:15.999Z</time></trkpt><trkpt lat="43.80321505127868" lon="12.392007320523275"><ele>496.33333333333337</ele><time>2026-04-03T14:51:16.999Z</time></trkpt><trkpt lat="43.80331561478437" lon="12.392204186303262"><ele>494.6666666666667</ele><time>2026-04-03T14:51:17.999Z</time></trkpt><trkpt lat="43.80341514581584" lon="12.392398252104842"><ele>493.0</ele><time>2026-04-03T14:51:18.999Z</time></trkpt><trkpt lat="43.803515049436676" lon="12.392592269979932"><ele>491.33333333333337</ele><time>2026-04-03T14:51:19.999Z</time></trkpt><trkpt lat="43.80361823045938" lon="12.39278776580101"><ele>489.66666666666663</ele><time>2026-04-03T14:51:20.999Z</time></trkpt><trkpt lat="43.803721691561016" lon="12.39298694195377"><ele>488.0</ele><time>2026-04-03T14:51:21.999Z</time></trkpt><trkpt lat="43.803824676565924" lon="12.393188394841108"><ele>488.0</ele><time>2026-04-03T14:51:22.999Z</time></trkpt><trkpt lat="43.80391713829924" lon="12.393386019225575"><ele>488.0</ele><time>2026-04-03T14:51:23.999Z</time></trkpt><trkpt lat="43.80400273503187" lon="12.393571412882231"><ele>488.0</ele><time>2026-04-03T14:51:24.999Z</time></trkpt><trkpt lat="43.80407352438542" lon="12.39376007114809"><ele>485.66666666666663</ele><time>2026-04-03T14:51:25.999Z</time></trkpt><trkpt lat="43.80411122197068" lon="12.393970226760015"><ele>483.33333333333337</ele><time>2026-04-03T14:51:26.999Z</time></trkpt><trkpt lat="43.80411176167457" lon="12.394200030474858"><ele>481.0</ele><time>2026-04-03T14:51:27.999Z</time></trkpt><trkpt lat="43.80409536037888" lon="12.394440695632774"><ele>478.6666666666667</ele><time>2026-04-03T14:51:28.999Z</time></trkpt><trkpt lat="43.804082757934104" lon="12.394687761251655"><ele>476.33333333333337</ele><time>2026-04-03T14:51:29.999Z</time></trkpt><trkpt lat="43.80407225948392" lon="12.39494330283556"><ele>474.0</ele><time>2026-04-03T14:51:30.999Z</time></trkpt><trkpt lat="43.80405759083875" lon="12.395210616194946"><ele>474.0</ele><time>2026-04-03T14:51:31.999Z</time></trkpt><trkpt lat="43.80404293825366" lon="12.395487317430405"><ele>474.0</ele><time>2026-04-03T14:51:32.999Z</time></trkpt><trkpt lat="43.804026550708066" lon="12.395772056586729"><ele>474.0</ele><time>2026-04-03T14:51:33.999Z</time></trkpt><trkpt lat="43.80400752797126" lon="12.396054722443516"><ele>472.66666666666663</ele><time>2026-04-03T14:51:34.999Z</time></trkpt><trkpt lat="43.80398918721984" lon="12.396333689853794"><ele>471.3333333333333</ele><time>2026-04-03T14:51:35.999Z</time></trkpt><trkpt lat="43.80397235608361" lon="12.396605940674451"><ele>470.0</ele><time>2026-04-03T14:51:36.999Z</time></trkpt><trkpt lat="43.803956495504934" lon="12.396871083955274"><ele>468.3333333333333</ele><time>2026-04-03T14:51:37.999Z</time></trkpt><trkpt lat="43.8039402293031" lon="12.3971254014419"><ele>466.66666666666663</ele><time>2026-04-03T14:51:38.999Z</time></trkpt><trkpt lat="43.803926269302046" lon="12.39737455476956"><ele>465.0</ele><time>2026-04-03T14:51:39.999Z</time></trkpt><trkpt lat="43.80390799174227" lon="12.397616894316325"><ele>462.66666666666663</ele><time>2026-04-03T14:51:40.999Z</time></trkpt><trkpt lat="43.80388130401477" lon="12.397860014646612"><ele>460.3333333333333</ele><time>2026-04-03T14:51:41.999Z</time></trkpt><trkpt lat="43.8038388471762" lon="12.398102416103425"><ele>458.0</ele><time>2026-04-03T14:51:42.999Z</time></trkpt><trkpt lat="43.803773077495286" lon="12.398340286297723"><ele>458.3333333333333</ele><time>2026-04-03T14:51:43.999Z</time></trkpt><trkpt lat="43.80368514067953" lon="12.398564878958384"><ele>458.66666666666663</ele><time>2026-04-03T14:51:44.999Z</time></trkpt><trkpt lat="43.803589977224256" lon="12.3987915797779"><ele>459.0</ele><time>2026-04-03T14:51:45.999Z</time></trkpt><trkpt lat="43.80349259212468" lon="12.399017778237058"><ele>459.0</ele><time>2026-04-03T14:51:46.999Z</time></trkpt><trkpt lat="43.80339324182102" lon="12.399246547037064"><ele>459.0</ele><time>2026-04-03T14:51:47.999Z</time></trkpt><trkpt lat="43.80329316934391" lon="12.399478408976057"><ele>459.0</ele><time>2026-04-03T14:51:48.999Z</time></trkpt><trkpt lat="43.80319054079559" lon="12.399715171667584"><ele>458.0</ele><time>2026-04-03T14:51:49.999Z</time></trkpt><trkpt lat="43.803086430754135" lon="12.399954897424331"><ele>457.0</ele><time>2026-04-03T14:51:50.999Z</time></trkpt><trkpt lat="43.8029820527634" lon="12.400196137213461"><ele>456.0</ele><time>2026-04-03T14:51:51.999Z</time></trkpt><trkpt lat="43.80287494291419" lon="12.4004425381314"><ele>456.66666666666663</ele><time>2026-04-03T14:51:53Z</time></trkpt><trkpt lat="43.80276647362349" lon="12.400687037053656"><ele>457.3333333333333</ele><time>2026-04-03T14:51:54Z</time></trkpt><trkpt lat="43.80266044430146" lon="12.400934079098642"><ele>458.0</ele><time>2026-04-03T14:51:55Z</time></trkpt><trkpt lat="43.80255025214259" lon="12.401184678369217"><ele>456.66666666666663</ele><time>2026-04-03T14:51:56Z</time></trkpt><trkpt lat="43.80244175634824" lon="12.401437290460327"><ele>455.33333333333337</ele><time>2026-04-03T14:51:57Z</time></trkpt><trkpt lat="43.80233275012148" lon="12.401693088367896"><ele>454.0</ele><time>2026-04-03T14:51:58Z</time></trkpt><trkpt lat="43.802224469872094" lon="12.401950344345234"><ele>453.6666666666667</ele><time>2026-04-03T14:51:59Z</time></trkpt><trkpt lat="43.8021144746557" lon="12.402208086552161"><ele>453.33333333333337</ele><time>2026-04-03T14:52:00Z</time></trkpt><trkpt lat="43.802011241521676" lon="12.402452461599486"><ele>453.0</ele><time>2026-04-03T14:52:01Z</time></trkpt><trkpt lat="43.80191937310241" lon="12.402670988844367"><ele>453.0</ele><time>2026-04-03T14:52:02Z</time></trkpt><trkpt lat="43.80183206016552" lon="12.402873973521721"><ele>453.0</ele><time>2026-04-03T14:52:03Z</time></trkpt><trkpt lat="43.80174521517318" lon="12.403072266902901"><ele>453.0</ele><time>2026-04-03T14:52:04Z</time></trkpt><trkpt lat="43.80166389509116" lon="12.403261560475956"><ele>452.0</ele><time>2026-04-03T14:52:05Z</time></trkpt><trkpt lat="43.80158356090322" lon="12.403443570218181"><ele>451.0</ele><time>2026-04-03T14:52:06Z</time></trkpt><trkpt lat="43.80149803081537" lon="12.403625464856036"><ele>450.0</ele><time>2026-04-03T14:52:07Z</time></trkpt><trkpt lat="43.801416857776154" lon="12.403817261071229"><ele>450.0</ele><time>2026-04-03T14:52:08Z</time></trkpt><trkpt lat="43.80134720047534" lon="12.404033106991177"><ele>450.0</ele><time>2026-04-03T14:52:09Z</time></trkpt><trkpt lat="43.801280999834894" lon="12.404259290522933"><ele>450.0</ele><time>2026-04-03T14:52:10Z</time></trkpt><trkpt lat="43.80121912866732" lon="12.404495676106357"><ele>449.66666666666663</ele><time>2026-04-03T14:52:11Z</time></trkpt><trkpt lat="43.80116430064456" lon="12.404745961799145"><ele>449.3333333333333</ele><time>2026-04-03T14:52:12Z</time></trkpt><trkpt lat="43.80111841273165" lon="12.405004931369724"><ele>449.0</ele><time>2026-04-03T14:52:13Z</time></trkpt><trkpt lat="43.80108548376574" lon="12.405266349852681"><ele>447.3333333333333</ele><time>2026-04-03T14:52:14Z</time></trkpt><trkpt lat="43.80107082510703" lon="12.405518346127797"><ele>445.66666666666663</ele><time>2026-04-03T14:52:15Z</time></trkpt><trkpt lat="43.80107714823838" lon="12.405773870028808"><ele>444.0</ele><time>2026-04-03T14:52:16Z</time></trkpt><trkpt lat="43.801090489300314" lon="12.406032044284693"><ele>444.0</ele><time>2026-04-03T14:52:17Z</time></trkpt><trkpt lat="43.801120467557574" lon="12.40628796711962"><ele>444.0</ele><time>2026-04-03T14:52:18Z</time></trkpt><trkpt lat="43.801164953863264" lon="12.406538780381624"><ele>444.0</ele><time>2026-04-03T14:52:19Z</time></trkpt><trkpt lat="43.80122033030625" lon="12.406785890607612"><ele>441.33333333333337</ele><time>2026-04-03T14:52:20Z</time></trkpt><trkpt lat="43.80128605932763" lon="12.407028403095245"><ele>438.6666666666667</ele><time>2026-04-03T14:52:21Z</time></trkpt><trkpt lat="43.8013655766828" lon="12.407261586944513"><ele>436.0</ele><time>2026-04-03T14:52:22Z</time></trkpt><trkpt lat="43.80145785668268" lon="12.40748906806487"><ele>435.33333333333337</ele><time>2026-04-03T14:52:23Z</time></trkpt><trkpt lat="43.801560091307856" lon="12.407712807052004"><ele>434.66666666666663</ele><time>2026-04-03T14:52:24Z</time></trkpt><trkpt lat="43.80167174723247" lon="12.407926705629368"><ele>434.0</ele><time>2026-04-03T14:52:25Z</time></trkpt><trkpt lat="43.801787994154246" lon="12.408121772806487"><ele>429.3333333333333</ele><time>2026-04-03T14:52:26Z</time></trkpt><trkpt lat="43.80189920227869" lon="12.40831914533721"><ele>424.66666666666663</ele><time>2026-04-03T14:52:27Z</time></trkpt><trkpt lat="43.802002752809976" lon="12.408489556669055"><ele>420.0</ele><time>2026-04-03T14:52:28Z</time></trkpt><trkpt lat="43.802099624418055" lon="12.408640414920148"><ele>420.0</ele><time>2026-04-03T14:52:29Z</time></trkpt><trkpt lat="43.802188699327715" lon="12.408781080422434"><ele>420.0</ele><time>2026-04-03T14:52:30Z</time></trkpt><trkpt lat="43.802275561684525" lon="12.408917989134098"><ele>420.0</ele><time>2026-04-03T14:52:31Z</time></trkpt><trkpt lat="43.80235868500033" lon="12.409058435520372"><ele>420.0</ele><time>2026-04-03T14:52:32Z</time></trkpt><trkpt lat="43.80243565858901" lon="12.409212369802066"><ele>419.75</ele><time>2026-04-03T14:52:33Z</time></trkpt><trkpt lat="43.80250389316391" lon="12.409376254311042"><ele>419.5</ele><time>2026-04-03T14:52:34Z</time></trkpt><trkpt lat="43.80255029613907" lon="12.40954802012769"><ele>419.25</ele><time>2026-04-03T14:52:35Z</time></trkpt><trkpt lat="43.80255951602914" lon="12.409744977063033"><ele>419.0</ele><time>2026-04-03T14:52:36Z</time></trkpt><trkpt lat="43.80252883340259" lon="12.409951446800703"><ele>418.0</ele><time>2026-04-03T14:52:37Z</time></trkpt><trkpt lat="43.8024651546305" lon="12.410164977526467"><ele>417.0</ele><time>2026-04-03T14:52:38Z</time></trkpt><trkpt lat="43.80238279129268" lon="12.410382519748195"><ele>416.0</ele><time>2026-04-03T14:52:39Z</time></trkpt><trkpt lat="43.80228198225788" lon="12.410608637913958"><ele>413.3333333333333</ele><time>2026-04-03T14:52:40Z</time></trkpt><trkpt lat="43.80218472793425" lon="12.410838027071552"><ele>410.66666666666663</ele><time>2026-04-03T14:52:41Z</time></trkpt><trkpt lat="43.80209306220579" lon="12.4110639016344"><ele>408.0</ele><time>2026-04-03T14:52:42Z</time></trkpt><trkpt lat="43.8019984882954" lon="12.411295788214032"><ele>407.66666666666663</ele><time>2026-04-03T14:52:43Z</time></trkpt><trkpt lat="43.80189874482429" lon="12.411528561577143"><ele>407.3333333333333</ele><time>2026-04-03T14:52:44Z</time></trkpt><trkpt lat="43.8017965271961" lon="12.41176127475971"><ele>407.0</ele><time>2026-04-03T14:52:45Z</time></trkpt><trkpt lat="43.8016988331388" lon="12.411996538699103"><ele>405.0</ele><time>2026-04-03T14:52:46Z</time></trkpt><trkpt lat="43.80160494116089" lon="12.412229624059384"><ele>403.0</ele><time>2026-04-03T14:52:46.999Z</time></trkpt><trkpt lat="43.80151156189096" lon="12.412463562158301"><ele>401.0</ele><time>2026-04-03T14:52:47.999Z</time></trkpt><trkpt lat="43.8014173211563" lon="12.41269490422556"><ele>401.0</ele><time>2026-04-03T14:52:48.999Z</time></trkpt><trkpt lat="43.80132101954099" lon="12.412926238676617"><ele>401.0</ele><time>2026-04-03T14:52:49.999Z</time></trkpt><trkpt lat="43.80122565716683" lon="12.413162189001198"><ele>401.0</ele><time>2026-04-03T14:52:50.999Z</time></trkpt><trkpt lat="43.801128390737695" lon="12.413405966629982"><ele>399.0</ele><time>2026-04-03T14:52:51.999Z</time></trkpt><trkpt lat="43.80102739154823" lon="12.413646566426547"><ele>397.0</ele><time>2026-04-03T14:52:52.999Z</time></trkpt><trkpt lat="43.80092764076443" lon="12.413885557989293"><ele>395.0</ele><time>2026-04-03T14:52:53.999Z</time></trkpt><trkpt lat="43.80083185557344" lon="12.414116183739262"><ele>394.0</ele><time>2026-04-03T14:52:54.999Z</time></trkpt><trkpt lat="43.80074538792808" lon="12.414325424511414"><ele>393.0</ele><time>2026-04-03T14:52:55.999Z</time></trkpt><trkpt lat="43.800661336366" lon="12.414530882150823"><ele>392.0</ele><time>2026-04-03T14:52:56.999Z</time></trkpt><trkpt lat="43.80058199074962" lon="12.414723026795379"><ele>390.75</ele><time>2026-04-03T14:52:57.999Z</time></trkpt><trkpt lat="43.800506454949186" lon="12.414906216411962"><ele>389.5</ele><time>2026-04-03T14:52:58.999Z</time></trkpt><trkpt lat="43.80043360934663" lon="12.415078913548268"><ele>388.25</ele><time>2026-04-03T14:52:59.999Z</time></trkpt><trkpt lat="43.8003659817939" lon="12.415246355975828"><ele>387.0</ele><time>2026-04-03T14:53:00.999Z</time></trkpt><trkpt lat="43.80030754593021" lon="12.415414630925643"><ele>384.75</ele><time>2026-04-03T14:53:01.999Z</time></trkpt><trkpt lat="43.80027473009495" lon="12.415580250545485"><ele>382.5</ele><time>2026-04-03T14:53:02.999Z</time></trkpt><trkpt lat="43.80028850574145" lon="12.415737990017629"><ele>380.25</ele><time>2026-04-03T14:53:03.999Z</time></trkpt><trkpt lat="43.800341767929105" lon="12.415879236793554"><ele>378.0</ele><time>2026-04-03T14:53:04.999Z</time></trkpt><trkpt lat="43.8004299700165" lon="12.415983535932696"><ele>378.0</ele><time>2026-04-03T14:53:05.999Z</time></trkpt><trkpt lat="43.80053817469779" lon="12.416034011786374"><ele>378.0</ele><time>2026-04-03T14:53:06.999Z</time></trkpt><trkpt lat="43.80066294393682" lon="12.416030350962428"><ele>378.0</ele><time>2026-04-03T14:53:07.999Z</time></trkpt><trkpt lat="43.80078397170789" lon="12.415973677457279"><ele>378.0</ele><time>2026-04-03T14:53:08.999Z</time></trkpt><trkpt lat="43.80089730758441" lon="12.415865361926727"><ele>375.0</ele><time>2026-04-03T14:53:09.999Z</time></trkpt><trkpt lat="43.80103724385095" lon="12.415746073239188"><ele>372.0</ele><time>2026-04-03T14:53:10.999Z</time></trkpt><trkpt lat="43.80119758194957" lon="12.415656467941965"><ele>369.0</ele><time>2026-04-03T14:53:11.999Z</time></trkpt><trkpt lat="43.80136418653778" lon="12.415595097197139"><ele>369.0</ele><time>2026-04-03T14:53:12.999Z</time></trkpt><trkpt lat="43.80153936687281" lon="12.415566405095573"><ele>369.0</ele><time>2026-04-03T14:53:13.999Z</time></trkpt><trkpt lat="43.80171782601144" lon="12.415562185120981"><ele>369.0</ele><time>2026-04-03T14:53:14.999Z</time></trkpt><trkpt lat="43.80188355973705" lon="12.415559685267073"><ele>370.0</ele><time>2026-04-03T14:53:15.999Z</time></trkpt><trkpt lat="43.802029281708755" lon="12.415552255829642"><ele>371.0</ele><time>2026-04-03T14:53:16.999Z</time></trkpt><trkpt lat="43.80215725005159" lon="12.415522704535652"><ele>372.0</ele><time>2026-04-03T14:53:17.999Z</time></trkpt><trkpt lat="43.80227890152825" lon="12.415461754004985"><ele>373.0</ele><time>2026-04-03T14:53:18.999Z</time></trkpt><trkpt lat="43.80239439019168" lon="12.415352431097812"><ele>373.0</ele><time>2026-04-03T14:53:19.999Z</time></trkpt><trkpt lat="43.802504966856596" lon="12.415224376236134"><ele>373.0</ele><time>2026-04-03T14:53:20.999Z</time></trkpt><trkpt lat="43.80259133477572" lon="12.415139883194374"><ele>373.0</ele><time>2026-04-03T14:53:21.999Z</time></trkpt><trkpt lat="43.802686293525156" lon="12.415094221367463"><ele>373.0</ele><time>2026-04-03T14:53:22.999Z</time></trkpt><trkpt lat="43.80280482915059" lon="12.415102629601675"><ele>371.25</ele><time>2026-04-03T14:53:23.999Z</time></trkpt><trkpt lat="43.80291222037861" lon="12.415160571490821"><ele>369.5</ele><time>2026-04-03T14:53:24.999Z</time></trkpt><trkpt lat="43.80303280872533" lon="12.415262756479637"><ele>367.75</ele><time>2026-04-03T14:53:25.999Z</time></trkpt><trkpt lat="43.803170725106085" lon="12.415408940973679"><ele>366.0</ele><time>2026-04-03T14:53:26.999Z</time></trkpt><trkpt lat="43.80328975818779" lon="12.415536161713497"><ele>366.0</ele><time>2026-04-03T14:53:27.999Z</time></trkpt><trkpt lat="43.80337275282256" lon="12.415644060938432"><ele>366.0</ele><time>2026-04-03T14:53:28.999Z</time></trkpt><trkpt lat="43.803418806316834" lon="12.415781322897567"><ele>366.0</ele><time>2026-04-03T14:53:29.999Z</time></trkpt><trkpt lat="43.80343203400386" lon="12.415947170633226"><ele>366.0</ele><time>2026-04-03T14:53:30.999Z</time></trkpt><trkpt lat="43.80339710162053" lon="12.416109590849777"><ele>366.0</ele><time>2026-04-03T14:53:31.999Z</time></trkpt><trkpt lat="43.80330454093876" lon="12.416224856599824"><ele>366.0</ele><time>2026-04-03T14:53:32.999Z</time></trkpt><trkpt lat="43.80318348549975" lon="12.416337654952772"><ele>366.0</ele><time>2026-04-03T14:53:33.999Z</time></trkpt><trkpt lat="43.80304002989221" lon="12.416452871424262"><ele>366.0</ele><time>2026-04-03T14:53:34.999Z</time></trkpt><trkpt lat="43.80288991127288" lon="12.416574242704183"><ele>364.3333333333333</ele><time>2026-04-03T14:53:35.999Z</time></trkpt><trkpt lat="43.802738216727334" lon="12.416693888799752"><ele>362.66666666666663</ele><time>2026-04-03T14:53:36.999Z</time></trkpt><trkpt lat="43.802577913212986" lon="12.41682445196017"><ele>361.0</ele><time>2026-04-03T14:53:37.999Z</time></trkpt><trkpt lat="43.8024220833884" lon="12.41698476297008"><ele>361.0</ele><time>2026-04-03T14:53:38.999Z</time></trkpt><trkpt lat="43.80225307543918" lon="12.417123464925682"><ele>361.0</ele><time>2026-04-03T14:53:39.999Z</time></trkpt><trkpt lat="43.80208854172868" lon="12.417261998799372"><ele>361.0</ele><time>2026-04-03T14:53:40.999Z</time></trkpt><trkpt lat="43.801928937419895" lon="12.417368353163612"><ele>361.0</ele><time>2026-04-03T14:53:41.999Z</time></trkpt><trkpt lat="43.801788258632946" lon="12.41749088571814"><ele>361.0</ele><time>2026-04-03T14:53:42.999Z</time></trkpt><trkpt lat="43.801682229998" lon="12.417634484416281"><ele>361.0</ele><time>2026-04-03T14:53:43.999Z</time></trkpt><trkpt lat="43.801587581610825" lon="12.417778296113129"><ele>361.0</ele><time>2026-04-03T14:53:44.999Z</time></trkpt><trkpt lat="43.80151819083002" lon="12.417949044761023"><ele>361.0</ele><time>2026-04-03T14:53:45.999Z</time></trkpt><trkpt lat="43.80147777534319" lon="12.418145715486943"><ele>361.0</ele><time>2026-04-03T14:53:46.999Z</time></trkpt><trkpt lat="43.801454400497406" lon="12.41836209914316"><ele>361.0</ele><time>2026-04-03T14:53:47.999Z</time></trkpt><trkpt lat="43.80144692203878" lon="12.418591014247493"><ele>363.0</ele><time>2026-04-03T14:53:48.999Z</time></trkpt><trkpt lat="43.80144510443326" lon="12.418828185517102"><ele>365.0</ele><time>2026-04-03T14:53:49.999Z</time></trkpt><trkpt lat="43.8014387659837" lon="12.419059772524994"><ele>367.0</ele><time>2026-04-03T14:53:50.999Z</time></trkpt><trkpt lat="43.80143188845727" lon="12.419285759563893"><ele>367.0</ele><time>2026-04-03T14:53:51.999Z</time></trkpt><trkpt lat="43.801424130064866" lon="12.419516750819941"><ele>367.0</ele><time>2026-04-03T14:53:52.999Z</time></trkpt><trkpt lat="43.801413923012674" lon="12.419751885249916"><ele>367.0</ele><time>2026-04-03T14:53:53.999Z</time></trkpt><trkpt lat="43.80140618196818" lon="12.419989203358721"><ele>366.3333333333333</ele><time>2026-04-03T14:53:54.999Z</time></trkpt><trkpt lat="43.80139968108455" lon="12.420212650977106"><ele>365.6666666666667</ele><time>2026-04-03T14:53:55.999Z</time></trkpt><trkpt lat="43.801396822169785" lon="12.420433221674614"><ele>365.0</ele><time>2026-04-03T14:53:56.999Z</time></trkpt><trkpt lat="43.80140385171768" lon="12.42064733556224"><ele>365.0</ele><time>2026-04-03T14:53:57.999Z</time></trkpt><trkpt lat="43.8014250209049" lon="12.420865460198804"><ele>365.0</ele><time>2026-04-03T14:53:59Z</time></trkpt><trkpt lat="43.80146438615529" lon="12.42108250817729"><ele>365.0</ele><time>2026-04-03T14:54:00Z</time></trkpt><trkpt lat="43.80151197569017" lon="12.42130024832367"><ele>362.33333333333337</ele><time>2026-04-03T14:54:01Z</time></trkpt><trkpt lat="43.80155904032972" lon="12.421523540001425"><ele>359.6666666666667</ele><time>2026-04-03T14:54:02Z</time></trkpt><trkpt lat="43.80160277790951" lon="12.421751110528172"><ele>357.0</ele><time>2026-04-03T14:54:03Z</time></trkpt><trkpt lat="43.80164888242978" lon="12.421979371935628"><ele>357.0</ele><time>2026-04-03T14:54:04Z</time></trkpt><trkpt lat="43.80169717071084" lon="12.422208104159449"><ele>357.0</ele><time>2026-04-03T14:54:05Z</time></trkpt><trkpt lat="43.80174948631049" lon="12.422436974583228"><ele>357.0</ele><time>2026-04-03T14:54:06Z</time></trkpt><trkpt lat="43.801812113" lon="12.422663652806134"><ele>365.6666666666667</ele><time>2026-04-03T14:54:07Z</time></trkpt><trkpt lat="43.80188247411792" lon="12.422889593020852"><ele>374.33333333333337</ele><time>2026-04-03T14:54:08Z</time></trkpt><trkpt lat="43.8019517714191" lon="12.423116250233981"><ele>383.0</ele><time>2026-04-03T14:54:09Z</time></trkpt><trkpt lat="43.80202271651928" lon="12.42334838941924"><ele>383.0</ele><time>2026-04-03T14:54:10Z</time></trkpt><trkpt lat="43.80208043135639" lon="12.423589753322586"><ele>383.0</ele><time>2026-04-03T14:54:11Z</time></trkpt><trkpt lat="43.80211198855149" lon="12.423840506402653"><ele>383.0</ele><time>2026-04-03T14:54:12Z</time></trkpt><trkpt lat="43.802122572446685" lon="12.424085111215906"><ele>379.0</ele><time>2026-04-03T14:54:13Z</time></trkpt><trkpt lat="43.80212144488717" lon="12.424323795736457"><ele>375.0</ele><time>2026-04-03T14:54:14Z</time></trkpt><trkpt lat="43.802125074619056" lon="12.42455917472175"><ele>371.0</ele><time>2026-04-03T14:54:15Z</time></trkpt><trkpt lat="43.8021322485054" lon="12.42478663411067"><ele>366.6666666666667</ele><time>2026-04-03T14:54:16Z</time></trkpt><trkpt lat="43.80214874589694" lon="12.425004965060875"><ele>362.3333333333333</ele><time>2026-04-03T14:54:17Z</time></trkpt><trkpt lat="43.80217854243505" lon="12.425218575994485"><ele>358.0</ele><time>2026-04-03T14:54:18Z</time></trkpt><trkpt lat="43.80221708367307" lon="12.425432454894965"><ele>355.3333333333333</ele><time>2026-04-03T14:54:19Z</time></trkpt><trkpt lat="43.802258142618484" lon="12.425644206060406"><ele>352.6666666666667</ele><time>2026-04-03T14:54:20Z</time></trkpt><trkpt lat="43.80229882124231" lon="12.425858609713016"><ele>350.0</ele><time>2026-04-03T14:54:21Z</time></trkpt><trkpt lat="43.80234471542792" lon="12.426077088261215"><ele>350.0</ele><time>2026-04-03T14:54:22Z</time></trkpt><trkpt lat="43.80238878942321" lon="12.426299993893013"><ele>350.0</ele><time>2026-04-03T14:54:23Z</time></trkpt><trkpt lat="43.80243390402879" lon="12.426527118210554"><ele>350.0</ele><time>2026-04-03T14:54:24Z</time></trkpt><trkpt lat="43.80247991684899" lon="12.42675668983016"><ele>348.6666666666667</ele><time>2026-04-03T14:54:25Z</time></trkpt><trkpt lat="43.80252451769299" lon="12.42698909941406"><ele>347.3333333333333</ele><time>2026-04-03T14:54:26Z</time></trkpt><trkpt lat="43.80256587663682" lon="12.427222457265263"><ele>346.0</ele><time>2026-04-03T14:54:27Z</time></trkpt><trkpt lat="43.80260289269687" lon="12.427452764904396"><ele>344.66666666666663</ele><time>2026-04-03T14:54:28Z</time></trkpt><trkpt lat="43.80261889681526" lon="12.427686763596508"><ele>343.3333333333333</ele><time>2026-04-03T14:54:29Z</time></trkpt><trkpt lat="43.80260912902221" lon="12.427918076753452"><ele>342.0</ele><time>2026-04-03T14:54:30Z</time></trkpt><trkpt lat="43.802577248225596" lon="12.42814402054278"><ele>340.6666666666667</ele><time>2026-04-03T14:54:31Z</time></trkpt><trkpt lat="43.80252680147597" lon="12.42837078532793"><ele>339.33333333333337</ele><time>2026-04-03T14:54:32Z</time></trkpt><trkpt lat="43.802471955627254" lon="12.428571746037157"><ele>338.0</ele><time>2026-04-03T14:54:33Z</time></trkpt><trkpt lat="43.80240307972378" lon="12.42873666647028"><ele>336.33333333333337</ele><time>2026-04-03T14:54:34Z</time></trkpt><trkpt lat="43.80233833289228" lon="12.42891221490796"><ele>334.6666666666667</ele><time>2026-04-03T14:54:35Z</time></trkpt><trkpt lat="43.80229139066812" lon="12.429109164199568"><ele>333.0</ele><time>2026-04-03T14:54:36Z</time></trkpt><trkpt lat="43.80224440990924" lon="12.429318471437206"><ele>333.0</ele><time>2026-04-03T14:54:37Z</time></trkpt><trkpt lat="43.80221871572892" lon="12.429533630827086"><ele>333.0</ele><time>2026-04-03T14:54:38Z</time></trkpt><trkpt lat="43.80221052783579" lon="12.429751147572675"><ele>333.0</ele><time>2026-04-03T14:54:39Z</time></trkpt><trkpt lat="43.80221160248288" lon="12.42995537317763"><ele>332.25</ele><time>2026-04-03T14:54:40Z</time></trkpt><trkpt lat="43.8022258984049" lon="12.43015395223387"><ele>331.5</ele><time>2026-04-03T14:54:41Z</time></trkpt><trkpt lat="43.80224805102543" lon="12.430359284090164"><ele>330.75</ele><time>2026-04-03T14:54:42Z</time></trkpt><trkpt lat="43.80228139965745" lon="12.430565706388691"><ele>330.0</ele><time>2026-04-03T14:54:43Z</time></trkpt><trkpt lat="43.802329100557714" lon="12.43076955415315"><ele>330.0</ele><time>2026-04-03T14:54:44Z</time></trkpt><trkpt lat="43.802397213733066" lon="12.430968904517952"><ele>330.0</ele><time>2026-04-03T14:54:45Z</time></trkpt><trkpt lat="43.80247639673915" lon="12.431168780169363"><ele>330.0</ele><time>2026-04-03T14:54:46Z</time></trkpt><trkpt lat="43.80255886420413" lon="12.431367153011847"><ele>331.0</ele><time>2026-04-03T14:54:47Z</time></trkpt><trkpt lat="43.802633896105476" lon="12.431567640362005"><ele>332.0</ele><time>2026-04-03T14:54:48Z</time></trkpt><trkpt lat="43.80270881138059" lon="12.431775195516202"><ele>333.0</ele><time>2026-04-03T14:54:48.999Z</time></trkpt><trkpt lat="43.802780051883516" lon="12.431991427115607"><ele>335.0</ele><time>2026-04-03T14:54:49.999Z</time></trkpt><trkpt lat="43.80284661011288" lon="12.432210913668253"><ele>337.0</ele><time>2026-04-03T14:54:50.999Z</time></trkpt><trkpt lat="43.80291284555035" lon="12.432433507148428"><ele>339.0</ele><time>2026-04-03T14:54:51.999Z</time></trkpt><trkpt lat="43.80297779141477" lon="12.432656683950436"><ele>339.0</ele><time>2026-04-03T14:54:52.999Z</time></trkpt><trkpt lat="43.80304580055749" lon="12.43288243296991"><ele>339.0</ele><time>2026-04-03T14:54:53.999Z</time></trkpt><trkpt lat="43.80311394537105" lon="12.433109626222343"><ele>339.0</ele><time>2026-04-03T14:54:54.999Z</time></trkpt><trkpt lat="43.80317658908435" lon="12.433323984942877"><ele>338.6666666666667</ele><time>2026-04-03T14:54:55.999Z</time></trkpt><trkpt lat="43.80322578598777" lon="12.433538477786199"><ele>338.33333333333337</ele><time>2026-04-03T14:54:56.999Z</time></trkpt><trkpt lat="43.80322266759251" lon="12.433763260545804"><ele>338.0</ele><time>2026-04-03T14:54:57.999Z</time></trkpt><trkpt lat="43.80321733479889" lon="12.433986941818347"><ele>337.0</ele><time>2026-04-03T14:54:58.999Z</time></trkpt><trkpt lat="43.80319546047094" lon="12.434208025595698"><ele>336.0</ele><time>2026-04-03T14:54:59.999Z</time></trkpt><trkpt lat="43.80316938296754" lon="12.434428360278226"><ele>335.0</ele><time>2026-04-03T14:55:00.999Z</time></trkpt><trkpt lat="43.80314309591231" lon="12.434645790143804"><ele>334.0</ele><time>2026-04-03T14:55:01.999Z</time></trkpt><trkpt lat="43.80311331793704" lon="12.434859855603932"><ele>333.0</ele><time>2026-04-03T14:55:02.999Z</time></trkpt><trkpt lat="43.80307514903088" lon="12.43506151639966"><ele>332.0</ele><time>2026-04-03T14:55:03.999Z</time></trkpt><trkpt lat="43.80303256481232" lon="12.435258260583373"><ele>332.0</ele><time>2026-04-03T14:55:04.999Z</time></trkpt><trkpt lat="43.80298832224909" lon="12.435451662655689"><ele>332.0</ele><time>2026-04-03T14:55:05.999Z</time></trkpt><trkpt lat="43.802943651185224" lon="12.435644704183268"><ele>332.0</ele><time>2026-04-03T14:55:06.999Z</time></trkpt><trkpt lat="43.80291521196714" lon="12.435841186402826"><ele>332.0</ele><time>2026-04-03T14:55:07.999Z</time></trkpt><trkpt lat="43.80288379875986" lon="12.436025481636824"><ele>332.5</ele><time>2026-04-03T14:55:08.999Z</time></trkpt><trkpt lat="43.80287645568639" lon="12.436208374381655"><ele>333.0</ele><time>2026-04-03T14:55:09.999Z</time></trkpt><trkpt lat="43.80288668698925" lon="12.436387657796889"><ele>333.5</ele><time>2026-04-03T14:55:10.999Z</time></trkpt><trkpt lat="43.80290801868267" lon="12.436557684215474"><ele>334.0</ele><time>2026-04-03T14:55:11.999Z</time></trkpt><trkpt lat="43.802922472321285" lon="12.436720497951596"><ele>334.0</ele><time>2026-04-03T14:55:12.999Z</time></trkpt><trkpt lat="43.80293860010624" lon="12.436875180981954"><ele>334.0</ele><time>2026-04-03T14:55:13.999Z</time></trkpt><trkpt lat="43.80295260006718" lon="12.437023958718685"><ele>334.0</ele><time>2026-04-03T14:55:14.999Z</time></trkpt><trkpt lat="43.802966093009346" lon="12.437171122393103"><ele>334.0</ele><time>2026-04-03T14:55:15.999Z</time></trkpt><trkpt lat="43.802981037697094" lon="12.43731503935182"><ele>334.0</ele><time>2026-04-03T14:55:16.999Z</time></trkpt><trkpt lat="43.802994835908784" lon="12.43745930309697"><ele>333.0</ele><time>2026-04-03T14:55:17.999Z</time></trkpt><trkpt lat="43.803006640122774" lon="12.437603750790162"><ele>332.0</ele><time>2026-04-03T14:55:18.999Z</time></trkpt><trkpt lat="43.80302266637269" lon="12.437746075068317"><ele>331.0</ele><time>2026-04-03T14:55:19.999Z</time></trkpt><trkpt lat="43.80303814901441" lon="12.437889327065513"><ele>330.0</ele><time>2026-04-03T14:55:20.999Z</time></trkpt><trkpt lat="43.803051178009916" lon="12.438030117724109"><ele>329.0</ele><time>2026-04-03T14:55:21.999Z</time></trkpt><trkpt lat="43.80306840809549" lon="12.438176729849205"><ele>328.0</ele><time>2026-04-03T14:55:22.999Z</time></trkpt><trkpt lat="43.803078887902906" lon="12.438317470365293"><ele>327.0</ele><time>2026-04-03T14:55:23.999Z</time></trkpt><trkpt lat="43.80309281130239" lon="12.438460479192933"><ele>326.0</ele><time>2026-04-03T14:55:24.999Z</time></trkpt><trkpt lat="43.80310641020607" lon="12.438605155353649"><ele>325.0</ele><time>2026-04-03T14:55:25.999Z</time></trkpt><trkpt lat="43.803117369646685" lon="12.438754210855054"><ele>324.0</ele><time>2026-04-03T14:55:26.999Z</time></trkpt><trkpt lat="43.80313183097757" lon="12.438907948490236"><ele>323.75</ele><time>2026-04-03T14:55:27.999Z</time></trkpt><trkpt lat="43.803147813364895" lon="12.439069158536677"><ele>323.5</ele><time>2026-04-03T14:55:28.999Z</time></trkpt><trkpt lat="43.80316828432044" lon="12.439231891209118"><ele>323.25</ele><time>2026-04-03T14:55:29.999Z</time></trkpt><trkpt lat="43.8031862895126" lon="12.439396324949474"><ele>323.0</ele><time>2026-04-03T14:55:30.999Z</time></trkpt><trkpt lat="43.80320228100529" lon="12.439558989042904"><ele>322.59999999999997</ele><time>2026-04-03T14:55:31.999Z</time></trkpt><trkpt lat="43.80321672785249" lon="12.439716784735227"><ele>322.2</ele><time>2026-04-03T14:55:32.999Z</time></trkpt><trkpt lat="43.803233237064056" lon="12.439872834306868"><ele>321.8</ele><time>2026-04-03T14:55:33.999Z</time></trkpt><trkpt lat="43.80324698903433" lon="12.440022553995224"><ele>321.4</ele><time>2026-04-03T14:55:34.999Z</time></trkpt><trkpt lat="43.80325685059344" lon="12.44016913347395"><ele>321.0</ele><time>2026-04-03T14:55:35.999Z</time></trkpt><trkpt lat="43.80326661123479" lon="12.44029283395381"><ele>321.0</ele><time>2026-04-03T14:55:36.999Z</time></trkpt><trkpt lat="43.80327489321401" lon="12.440404315983931"><ele>321.0</ele><time>2026-04-03T14:55:37.999Z</time></trkpt><trkpt lat="43.80324042061621" lon="12.440548935268485"><ele>321.0</ele><time>2026-04-03T14:55:39.999Z</time></trkpt><trkpt lat="43.80314668410492" lon="12.440658199463968"><ele>321.0</ele><time>2026-04-03T14:55:41.999Z</time></trkpt><trkpt lat="43.803089003115375" lon="12.440710399705589"><ele>321.0</ele><time>2026-04-03T14:55:42.999Z</time></trkpt><trkpt lat="43.80302129120988" lon="12.44075715103794"><ele>321.20000000000005</ele><time>2026-04-03T14:55:43.999Z</time></trkpt><trkpt lat="43.80294542280127" lon="12.440806216504678"><ele>321.40000000000003</ele><time>2026-04-03T14:55:44.999Z</time></trkpt><trkpt lat="43.80285581315073" lon="12.440848520549842"><ele>321.6</ele><time>2026-04-03T14:55:45.999Z</time></trkpt><trkpt lat="43.802752758493476" lon="12.440890842989475"><ele>321.8</ele><time>2026-04-03T14:55:46.999Z</time></trkpt><trkpt lat="43.80264309321712" lon="12.440937751892415"><ele>322.0</ele><time>2026-04-03T14:55:47.999Z</time></trkpt><trkpt lat="43.80253817504644" lon="12.440989258366422"><ele>320.0</ele><time>2026-04-03T14:55:48.999Z</time></trkpt><trkpt lat="43.80244396932733" lon="12.44104763059331"><ele>318.0</ele><time>2026-04-03T14:55:49.999Z</time></trkpt><trkpt lat="43.802347633821704" lon="12.441115343328594"><ele>316.0</ele><time>2026-04-03T14:55:50.999Z</time></trkpt><trkpt lat="43.80230089199843" lon="12.441245566909826"><ele>314.0</ele><time>2026-04-03T14:55:51.999Z</time></trkpt><trkpt lat="43.802263920281106" lon="12.44138040847736"><ele>312.0</ele><time>2026-04-03T14:55:52.999Z</time></trkpt><trkpt lat="43.80226028148748" lon="12.441526720770108"><ele>312.0</ele><time>2026-04-03T14:55:53.999Z</time></trkpt><trkpt lat="43.80227187784548" lon="12.441680264142462"><ele>312.0</ele><time>2026-04-03T14:55:54.999Z</time></trkpt><trkpt lat="43.802294350222006" lon="12.441837323010482"><ele>312.0</ele><time>2026-04-03T14:55:55.999Z</time></trkpt><trkpt lat="43.80231180825875" lon="12.442004153165984"><ele>312.0</ele><time>2026-04-03T14:55:56.999Z</time></trkpt><trkpt lat="43.802330200786905" lon="12.442178710014264"><ele>311.75</ele><time>2026-04-03T14:55:57.999Z</time></trkpt><trkpt lat="43.80235120877069" lon="12.442353043956595"><ele>311.5</ele><time>2026-04-03T14:55:58.999Z</time></trkpt><trkpt lat="43.80237694845566" lon="12.442514573433094"><ele>311.25</ele><time>2026-04-03T14:55:59.999Z</time></trkpt><trkpt lat="43.802401275653125" lon="12.442684724013427"><ele>311.0</ele><time>2026-04-03T14:56:00.999Z</time></trkpt><trkpt lat="43.8024230778717" lon="12.44285470811534"><ele>309.75</ele><time>2026-04-03T14:56:01.999Z</time></trkpt><trkpt lat="43.80244292276954" lon="12.443024232843708"><ele>308.5</ele><time>2026-04-03T14:56:02.999Z</time></trkpt><trkpt lat="43.80244821093431" lon="12.443198451054133"><ele>307.25</ele><time>2026-04-03T14:56:03.998Z</time></trkpt><trkpt lat="43.802412779519514" lon="12.443366827035248"><ele>306.0</ele><time>2026-04-03T14:56:05Z</time></trkpt><trkpt lat="43.80238063559243" lon="12.443532405155937"><ele>306.0</ele><time>2026-04-03T14:56:06Z</time></trkpt><trkpt lat="43.802359190201976" lon="12.443703582168084"><ele>306.0</ele><time>2026-04-03T14:56:07Z</time></trkpt><trkpt lat="43.80231450792067" lon="12.44386710007201"><ele>306.0</ele><time>2026-04-03T14:56:08Z</time></trkpt><trkpt lat="43.80226605380095" lon="12.44402664692811"><ele>306.0</ele><time>2026-04-03T14:56:09Z</time></trkpt><trkpt lat="43.802215102156886" lon="12.444182050632268"><ele>306.0</ele><time>2026-04-03T14:56:10Z</time></trkpt><trkpt lat="43.80215214791118" lon="12.444318397845667"><ele>306.0</ele><time>2026-04-03T14:56:11Z</time></trkpt><trkpt lat="43.802076138496446" lon="12.444435251026455"><ele>306.0</ele><time>2026-04-03T14:56:12Z</time></trkpt><trkpt lat="43.801989201726734" lon="12.444531965717335"><ele>306.0</ele><time>2026-04-03T14:56:13Z</time></trkpt><trkpt lat="43.80189855457875" lon="12.444626542066414"><ele>304.2</ele><time>2026-04-03T14:56:14Z</time></trkpt><trkpt lat="43.80179807592388" lon="12.444699658279323"><ele>302.40000000000003</ele><time>2026-04-03T14:56:15Z</time></trkpt><trkpt lat="43.8017143247679" lon="12.444784814843807"><ele>300.6</ele><time>2026-04-03T14:56:16Z</time></trkpt><trkpt lat="43.801648266779075" lon="12.44485187285253"><ele>298.8</ele><time>2026-04-03T14:56:17Z</time></trkpt><trkpt lat="43.80156243990093" lon="12.444938998972908"><ele>297.0</ele><time>2026-04-03T14:56:19Z</time></trkpt><trkpt lat="43.801492389957886" lon="12.44501301058295"><ele>297.0</ele><time>2026-04-03T14:56:25Z</time></trkpt><trkpt lat="43.801405421884816" lon="12.445104828055692"><ele>297.0</ele><time>2026-04-03T14:56:27Z</time></trkpt><trkpt lat="43.80132067873804" lon="12.445194296561684"><ele>297.0</ele><time>2026-04-03T14:56:29Z</time></trkpt><trkpt lat="43.801238451969894" lon="12.445311300696474"><ele>297.0</ele><time>2026-04-03T14:56:31Z</time></trkpt><trkpt lat="43.80118471697226" lon="12.445373895547602"><ele>297.0</ele><time>2026-04-03T14:56:32Z</time></trkpt><trkpt lat="43.80113322180411" lon="12.445439240848456"><ele>296.8</ele><time>2026-04-03T14:56:33Z</time></trkpt><trkpt lat="43.8010614959905" lon="12.445577787665535"><ele>296.6</ele><time>2026-04-03T14:56:35Z</time></trkpt><trkpt lat="43.801036037522394" lon="12.445675090515318"><ele>296.40000000000003</ele><time>2026-04-03T14:56:36Z</time></trkpt><trkpt lat="43.80101191513589" lon="12.445782696420267"><ele>296.2</ele><time>2026-04-03T14:56:37Z</time></trkpt><trkpt lat="43.80100360392894" lon="12.445904841285703"><ele>296.0</ele><time>2026-04-03T14:56:38Z</time></trkpt><trkpt lat="43.80100530589616" lon="12.446018483754909"><ele>296.0</ele><time>2026-04-03T14:56:39Z</time></trkpt><trkpt lat="43.80101810219851" lon="12.446136759947459"><ele>296.0</ele><time>2026-04-03T14:56:40Z</time></trkpt><trkpt lat="43.80103994790393" lon="12.446261842152188"><ele>296.0</ele><time>2026-04-03T14:56:41Z</time></trkpt><trkpt lat="43.801064731967095" lon="12.446389653834368"><ele>296.0</ele><time>2026-04-03T14:56:42Z</time></trkpt><trkpt lat="43.80107872041377" lon="12.446526015685755"><ele>296.0</ele><time>2026-04-03T14:56:43Z</time></trkpt><trkpt lat="43.801069454666816" lon="12.446661528124183"><ele>295.8</ele><time>2026-04-03T14:56:44Z</time></trkpt><trkpt lat="43.80103287116017" lon="12.446778091382415"><ele>295.6</ele><time>2026-04-03T14:56:45Z</time></trkpt><trkpt lat="43.80098103802524" lon="12.446882968239581"><ele>295.4</ele><time>2026-04-03T14:56:46Z</time></trkpt><trkpt lat="43.800911032801125" lon="12.44697716919217"><ele>295.2</ele><time>2026-04-03T14:56:47Z</time></trkpt><trkpt lat="43.80081645257771" lon="12.44704775155772"><ele>295.0</ele><time>2026-04-03T14:56:48Z</time></trkpt><trkpt lat="43.80070644785809" lon="12.44706634743667"><ele>295.0</ele><time>2026-04-03T14:56:49Z</time></trkpt><trkpt lat="43.800579726403896" lon="12.44707911887971"><ele>295.0</ele><time>2026-04-03T14:56:50Z</time></trkpt><trkpt lat="43.800451648928004" lon="12.447088308799573"><ele>295.0</ele><time>2026-04-03T14:56:51Z</time></trkpt><trkpt lat="43.80032748301682" lon="12.447116675512722"><ele>295.0</ele><time>2026-04-03T14:56:52Z</time></trkpt><trkpt lat="43.800198848205596" lon="12.44711943955018"><ele>294.5</ele><time>2026-04-03T14:56:53Z</time></trkpt><trkpt lat="43.80007441661123" lon="12.447124527924407"><ele>294.0</ele><time>2026-04-03T14:56:54Z</time></trkpt><trkpt lat="43.79995265674018" lon="12.447133662520217"><ele>293.5</ele><time>2026-04-03T14:56:55Z</time></trkpt><trkpt lat="43.79984425948635" lon="12.44715263298165"><ele>293.0</ele><time>2026-04-03T14:56:56Z</time></trkpt><trkpt lat="43.799738414045066" lon="12.447173073231324"><ele>293.5</ele><time>2026-04-03T14:56:57Z</time></trkpt><trkpt lat="43.7996294279493" lon="12.447204929587675"><ele>294.0</ele><time>2026-04-03T14:56:57.999Z</time></trkpt><trkpt lat="43.79951093723397" lon="12.447241642091349"><ele>294.5</ele><time>2026-04-03T14:56:58.999Z</time></trkpt><trkpt lat="43.799374216852705" lon="12.447286261190463"><ele>295.0</ele><time>2026-04-03T14:56:59.999Z</time></trkpt><trkpt lat="43.79921526044941" lon="12.447334047197717"><ele>295.0</ele><time>2026-04-03T14:57:00.999Z</time></trkpt><trkpt lat="43.799037960844814" lon="12.447361879881923"><ele>295.0</ele><time>2026-04-03T14:57:01.999Z</time></trkpt><trkpt lat="43.79884769611059" lon="12.447357167775571"><ele>295.0</ele><time>2026-04-03T14:57:02.999Z</time></trkpt><trkpt lat="43.7986682941252" lon="12.44733680165561"><ele>295.0</ele><time>2026-04-03T14:57:03.999Z</time></trkpt><trkpt lat="43.798502304686465" lon="12.447312623862711"><ele>295.0</ele><time>2026-04-03T14:57:04.999Z</time></trkpt><trkpt lat="43.79833726288321" lon="12.447292474486717"><ele>295.0</ele><time>2026-04-03T14:57:05.999Z</time></trkpt><trkpt lat="43.79817192392944" lon="12.447293914533189"><ele>295.66666666666663</ele><time>2026-04-03T14:57:06.999Z</time></trkpt><trkpt lat="43.79800677725006" lon="12.447338102613557"><ele>296.3333333333333</ele><time>2026-04-03T14:57:07.999Z</time></trkpt><trkpt lat="43.79784517514608" lon="12.44741548723965"><ele>297.0</ele><time>2026-04-03T14:57:08.999Z</time></trkpt><trkpt lat="43.79768602714776" lon="12.447513527471015"><ele>295.6666666666667</ele><time>2026-04-03T14:57:09.999Z</time></trkpt><trkpt lat="43.79752973303673" lon="12.447623209535855"><ele>294.33333333333337</ele><time>2026-04-03T14:57:10.999Z</time></trkpt><trkpt lat="43.79737885012184" lon="12.447727751538372"><ele>293.0</ele><time>2026-04-03T14:57:11.999Z</time></trkpt><trkpt lat="43.79721771647458" lon="12.447799153158302"><ele>293.0</ele><time>2026-04-03T14:57:12.999Z</time></trkpt><trkpt lat="43.79706557938795" lon="12.44789414756365"><ele>293.0</ele><time>2026-04-03T14:57:13.999Z</time></trkpt><trkpt lat="43.79690755812351" lon="12.447976773441868"><ele>293.0</ele><time>2026-04-03T14:57:14.999Z</time></trkpt><trkpt lat="43.796745490617795" lon="12.44806590084963"><ele>294.33333333333337</ele><time>2026-04-03T14:57:15.999Z</time></trkpt><trkpt lat="43.79656933203995" lon="12.448098169954216"><ele>295.6666666666667</ele><time>2026-04-03T14:57:16.999Z</time></trkpt><trkpt lat="43.796395347721464" lon="12.44812429228099"><ele>297.0</ele><time>2026-04-03T14:57:17.999Z</time></trkpt><trkpt lat="43.79622019821025" lon="12.448148906900192"><ele>297.0</ele><time>2026-04-03T14:57:18.999Z</time></trkpt><trkpt lat="43.79604391930339" lon="12.448144557182962"><ele>297.0</ele><time>2026-04-03T14:57:19.999Z</time></trkpt><trkpt lat="43.79587248745046" lon="12.448166358449582"><ele>297.0</ele><time>2026-04-03T14:57:20.999Z</time></trkpt><trkpt lat="43.79570217752535" lon="12.448187997610606"><ele>295.6666666666667</ele><time>2026-04-03T14:57:21.999Z</time></trkpt><trkpt lat="43.79553050510594" lon="12.448211245163966"><ele>294.33333333333337</ele><time>2026-04-03T14:57:22.999Z</time></trkpt><trkpt lat="43.79536016444989" lon="12.44823431234004"><ele>293.0</ele><time>2026-04-03T14:57:23.999Z</time></trkpt><trkpt lat="43.79518678956074" lon="12.44825779041348"><ele>291.33333333333337</ele><time>2026-04-03T14:57:24.999Z</time></trkpt><trkpt lat="43.79501617247326" lon="12.44828089502313"><ele>289.6666666666667</ele><time>2026-04-03T14:57:25.999Z</time></trkpt><trkpt lat="43.794841197400096" lon="12.44830337761168"><ele>288.0</ele><time>2026-04-03T14:57:26.999Z</time></trkpt><trkpt lat="43.794664050537335" lon="12.448326300592466"><ele>288.0</ele><time>2026-04-03T14:57:27.999Z</time></trkpt><trkpt lat="43.794489073770556" lon="12.448349001967019"><ele>288.0</ele><time>2026-04-03T14:57:28.999Z</time></trkpt><trkpt lat="43.794311528477564" lon="12.448372504694758"><ele>288.0</ele><time>2026-04-03T14:57:29.999Z</time></trkpt><trkpt lat="43.79413460357915" lon="12.448399584343738"><ele>286.6666666666667</ele><time>2026-04-03T14:57:30.999Z</time></trkpt><trkpt lat="43.793955756742356" lon="12.448428722467195"><ele>285.33333333333337</ele><time>2026-04-03T14:57:31.999Z</time></trkpt><trkpt lat="43.79377750083965" lon="12.448465160731718"><ele>284.0</ele><time>2026-04-03T14:57:32.999Z</time></trkpt><trkpt lat="43.79360565291619" lon="12.448507382254444"><ele>282.0</ele><time>2026-04-03T14:57:33.999Z</time></trkpt><trkpt lat="43.793434023884636" lon="12.448555431028067"><ele>280.0</ele><time>2026-04-03T14:57:34.999Z</time></trkpt><trkpt lat="43.793264197956304" lon="12.44860411343452"><ele>278.0</ele><time>2026-04-03T14:57:35.999Z</time></trkpt><trkpt lat="43.79309578962756" lon="12.44865345044984"><ele>278.0</ele><time>2026-04-03T14:57:36.999Z</time></trkpt><trkpt lat="43.79293024730201" lon="12.448726812409335"><ele>278.0</ele><time>2026-04-03T14:57:37.999Z</time></trkpt><trkpt lat="43.79276691973373" lon="12.448788329078242"><ele>278.0</ele><time>2026-04-03T14:57:38.999Z</time></trkpt><trkpt lat="43.79260398448802" lon="12.448847092710876"><ele>280.6666666666667</ele><time>2026-04-03T14:57:39.999Z</time></trkpt><trkpt lat="43.79244683188556" lon="12.448943920072269"><ele>283.3333333333333</ele><time>2026-04-03T14:57:40.999Z</time></trkpt><trkpt lat="43.79230459745551" lon="12.449085235047535"><ele>286.0</ele><time>2026-04-03T14:57:41.999Z</time></trkpt><trkpt lat="43.792162144774196" lon="12.449213520731215"><ele>286.0</ele><time>2026-04-03T14:57:42.999Z</time></trkpt><trkpt lat="43.79203386173894" lon="12.449357359080123"><ele>286.0</ele><time>2026-04-03T14:57:43.999Z</time></trkpt><trkpt lat="43.79191573888712" lon="12.449512728627804"><ele>286.0</ele><time>2026-04-03T14:57:44.999Z</time></trkpt><trkpt lat="43.79180920253808" lon="12.449682662484957"><ele>284.0</ele><time>2026-04-03T14:57:45.999Z</time></trkpt><trkpt lat="43.79171063111303" lon="12.449874104038122"><ele>282.0</ele><time>2026-04-03T14:57:46.999Z</time></trkpt><trkpt lat="43.791619060146026" lon="12.450077562112067"><ele>280.0</ele><time>2026-04-03T14:57:47.999Z</time></trkpt><trkpt lat="43.79153543337674" lon="12.450294093760574"><ele>283.3333333333333</ele><time>2026-04-03T14:57:48.999Z</time></trkpt><trkpt lat="43.79145849903095" lon="12.450520615996536"><ele>286.6666666666667</ele><time>2026-04-03T14:57:49.999Z</time></trkpt><trkpt lat="43.79137460577001" lon="12.450747124366437"><ele>290.0</ele><time>2026-04-03T14:57:50.999Z</time></trkpt><trkpt lat="43.79127712997383" lon="12.450965779042322"><ele>290.0</ele><time>2026-04-03T14:57:51.999Z</time></trkpt><trkpt lat="43.791169649795386" lon="12.451181011707483"><ele>290.0</ele><time>2026-04-03T14:57:52.999Z</time></trkpt><trkpt lat="43.791055853889745" lon="12.451388083033654"><ele>290.0</ele><time>2026-04-03T14:57:53.999Z</time></trkpt><trkpt lat="43.79095251374482" lon="12.451584785480062"><ele>285.75</ele><time>2026-04-03T14:57:54.999Z</time></trkpt><trkpt lat="43.7908573150676" lon="12.451766792073661"><ele>281.5</ele><time>2026-04-03T14:57:55.999Z</time></trkpt><trkpt lat="43.79074676923836" lon="12.451897181397243"><ele>277.25</ele><time>2026-04-03T14:57:56.999Z</time></trkpt><trkpt lat="43.790637094116185" lon="12.452016420972093"><ele>273.0</ele><time>2026-04-03T14:57:57.999Z</time></trkpt><trkpt lat="43.7905133932158" lon="12.45208867202675"><ele>273.0</ele><time>2026-04-03T14:57:58.999Z</time></trkpt><trkpt lat="43.79037834688937" lon="12.45209515557948"><ele>273.0</ele><time>2026-04-03T14:57:59.999Z</time></trkpt><trkpt lat="43.79023433271925" lon="12.452102158140482"><ele>273.0</ele><time>2026-04-03T14:58:00.999Z</time></trkpt><trkpt lat="43.79008013563768" lon="12.452121725495196"><ele>273.0</ele><time>2026-04-03T14:58:01.999Z</time></trkpt><trkpt lat="43.78991664206992" lon="12.452114299901705"><ele>269.3333333333333</ele><time>2026-04-03T14:58:02.999Z</time></trkpt><trkpt lat="43.789747904737325" lon="12.452106354879117"><ele>265.66666666666663</ele><time>2026-04-03T14:58:03.999Z</time></trkpt><trkpt lat="43.78957571007265" lon="12.452100273767591"><ele>262.0</ele><time>2026-04-03T14:58:04.999Z</time></trkpt><trkpt lat="43.78941930639904" lon="12.452090207613265"><ele>262.0</ele><time>2026-04-03T14:58:05.999Z</time></trkpt><trkpt lat="43.78927366779998" lon="12.452094002520267"><ele>262.0</ele><time>2026-04-03T14:58:06.999Z</time></trkpt><trkpt lat="43.78912924444636" lon="12.452123045209795"><ele>262.0</ele><time>2026-04-03T14:58:07.999Z</time></trkpt><trkpt lat="43.78899708710289" lon="12.452181348839398"><ele>262.0</ele><time>2026-04-03T14:58:08.999Z</time></trkpt><trkpt lat="43.78888410326969" lon="12.452276493656695"><ele>263.25</ele><time>2026-04-03T14:58:09.999Z</time></trkpt><trkpt lat="43.78878977464254" lon="12.452425158749213"><ele>264.5</ele><time>2026-04-03T14:58:11Z</time></trkpt><trkpt lat="43.78870941267665" lon="12.452596774438954"><ele>265.75</ele><time>2026-04-03T14:58:12Z</time></trkpt><trkpt lat="43.78864123969261" lon="12.452784353057748"><ele>267.0</ele><time>2026-04-03T14:58:13Z</time></trkpt><trkpt lat="43.78860008526334" lon="12.452996090161683"><ele>268.0</ele><time>2026-04-03T14:58:14Z</time></trkpt><trkpt lat="43.78857745176647" lon="12.453218387344917"><ele>269.0</ele><time>2026-04-03T14:58:15Z</time></trkpt><trkpt lat="43.788570519780976" lon="12.45345030387626"><ele>270.0</ele><time>2026-04-03T14:58:16Z</time></trkpt><trkpt lat="43.78857763154865" lon="12.4536862205414"><ele>271.3333333333333</ele><time>2026-04-03T14:58:17Z</time></trkpt><trkpt lat="43.78859005274735" lon="12.453926101438512"><ele>272.66666666666663</ele><time>2026-04-03T14:58:18Z</time></trkpt><trkpt lat="43.788599567518226" lon="12.454170058259388"><ele>274.0</ele><time>2026-04-03T14:58:19Z</time></trkpt><trkpt lat="43.7886172764394" lon="12.454411286008359"><ele>274.3333333333333</ele><time>2026-04-03T14:58:20Z</time></trkpt><trkpt lat="43.788653221024695" lon="12.4546369912559"><ele>274.6666666666667</ele><time>2026-04-03T14:58:21Z</time></trkpt><trkpt lat="43.78869839032497" lon="12.454857997704952"><ele>275.0</ele><time>2026-04-03T14:58:22Z</time></trkpt><trkpt lat="43.788753176117694" lon="12.455078541205804"><ele>275.0</ele><time>2026-04-03T14:58:23Z</time></trkpt><trkpt lat="43.78881982399914" lon="12.455298419650855"><ele>275.0</ele><time>2026-04-03T14:58:24Z</time></trkpt><trkpt lat="43.788894637249" lon="12.455516393647612"><ele>275.0</ele><time>2026-04-03T14:58:25Z</time></trkpt><trkpt lat="43.78896731678667" lon="12.455739221997801"><ele>273.0</ele><time>2026-04-03T14:58:26Z</time></trkpt><trkpt lat="43.78903927167217" lon="12.455962009926644"><ele>271.0</ele><time>2026-04-03T14:58:27Z</time></trkpt><trkpt lat="43.789113513752795" lon="12.456189597455108"><ele>269.0</ele><time>2026-04-03T14:58:28Z</time></trkpt><trkpt lat="43.78918828545819" lon="12.456416325661104"><ele>267.33333333333337</ele><time>2026-04-03T14:58:29Z</time></trkpt><trkpt lat="43.78925721100943" lon="12.45663309041947"><ele>265.6666666666667</ele><time>2026-04-03T14:58:30Z</time></trkpt><trkpt lat="43.78931686379347" lon="12.456846009893503"><ele>264.0</ele><time>2026-04-03T14:58:31Z</time></trkpt><trkpt lat="43.789355060123164" lon="12.457068103562177"><ele>270.3333333333333</ele><time>2026-04-03T14:58:32Z</time></trkpt><trkpt lat="43.78937216583295" lon="12.457301310221064"><ele>276.66666666666663</ele><time>2026-04-03T14:58:33Z</time></trkpt><trkpt lat="43.78937023786671" lon="12.457540495750271"><ele>283.0</ele><time>2026-04-03T14:58:34Z</time></trkpt><trkpt lat="43.78934697745694" lon="12.457779861892858"><ele>275.3333333333333</ele><time>2026-04-03T14:58:35Z</time></trkpt><trkpt lat="43.78931678882775" lon="12.458018519402351"><ele>267.6666666666667</ele><time>2026-04-03T14:58:36Z</time></trkpt><trkpt lat="43.78928806928614" lon="12.458258234072517"><ele>260.0</ele><time>2026-04-03T14:58:37Z</time></trkpt><trkpt lat="43.78926239884681" lon="12.458488012704466"><ele>260.0</ele><time>2026-04-03T14:58:38Z</time></trkpt><trkpt lat="43.78923685242622" lon="12.458717890215443"><ele>260.0</ele><time>2026-04-03T14:58:39Z</time></trkpt><trkpt lat="43.78921899876987" lon="12.45894841852153"><ele>260.0</ele><time>2026-04-03T14:58:40Z</time></trkpt><trkpt lat="43.78922175359449" lon="12.459181487692184"><ele>259.6666666666667</ele><time>2026-04-03T14:58:41Z</time></trkpt><trkpt lat="43.78924102256671" lon="12.459408509465815"><ele>259.3333333333333</ele><time>2026-04-03T14:58:42Z</time></trkpt><trkpt lat="43.78928293373809" lon="12.45962336024015"><ele>259.0</ele><time>2026-04-03T14:58:43Z</time></trkpt><trkpt lat="43.78934302070712" lon="12.459838535672226"><ele>264.3333333333333</ele><time>2026-04-03T14:58:44Z</time></trkpt><trkpt lat="43.789412109035666" lon="12.460047741015114"><ele>269.6666666666667</ele><time>2026-04-03T14:58:45Z</time></trkpt><trkpt lat="43.789484947294135" lon="12.460234224718661"><ele>275.0</ele><time>2026-04-03T14:58:46Z</time></trkpt><trkpt lat="43.789560409205286" lon="12.46042258006088"><ele>271.0</ele><time>2026-04-03T14:58:47Z</time></trkpt><trkpt lat="43.78963230399831" lon="12.46061749480548"><ele>267.0</ele><time>2026-04-03T14:58:48Z</time></trkpt><trkpt lat="43.789698688309606" lon="12.460809599592105"><ele>263.0</ele><time>2026-04-03T14:58:49Z</time></trkpt><trkpt lat="43.78975751372068" lon="12.4610045986451"><ele>263.0</ele><time>2026-04-03T14:58:50Z</time></trkpt><trkpt lat="43.78980147359697" lon="12.461205533169814"><ele>263.0</ele><time>2026-04-03T14:58:51Z</time></trkpt><trkpt lat="43.78983552037441" lon="12.461417570050685"><ele>263.0</ele><time>2026-04-03T14:58:52Z</time></trkpt><trkpt lat="43.789848973535726" lon="12.461638971140843"><ele>263.33333333333337</ele><time>2026-04-03T14:58:53Z</time></trkpt><trkpt lat="43.78984870241307" lon="12.46186156871261"><ele>263.6666666666667</ele><time>2026-04-03T14:58:54Z</time></trkpt><trkpt lat="43.78981226238289" lon="12.462083645808239"><ele>264.0</ele><time>2026-04-03T14:58:55Z</time></trkpt><trkpt lat="43.789772851425816" lon="12.462296318469678"><ele>264.3333333333333</ele><time>2026-04-03T14:58:56Z</time></trkpt><trkpt lat="43.78973717234632" lon="12.46249586016721"><ele>264.66666666666663</ele><time>2026-04-03T14:58:57Z</time></trkpt><trkpt lat="43.7896577656173" lon="12.462674182649156"><ele>265.0</ele><time>2026-04-03T14:58:58Z</time></trkpt><trkpt lat="43.78958099408934" lon="12.462859020791882"><ele>265.75</ele><time>2026-04-03T14:58:58.999Z</time></trkpt><trkpt lat="43.78949730371252" lon="12.463024253207792"><ele>266.5</ele><time>2026-04-03T14:58:59.999Z</time></trkpt><trkpt lat="43.789427695032636" lon="12.46319153500898"><ele>267.25</ele><time>2026-04-03T14:59:00.999Z</time></trkpt><trkpt lat="43.78934446807378" lon="12.46334427606022"><ele>268.0</ele><time>2026-04-03T14:59:01.999Z</time></trkpt><trkpt lat="43.78924874387621" lon="12.46348157250687"><ele>264.5</ele><time>2026-04-03T14:59:02.999Z</time></trkpt><trkpt lat="43.789165965650625" lon="12.463632571658515"><ele>261.0</ele><time>2026-04-03T14:59:03.999Z</time></trkpt><trkpt lat="43.789085398865375" lon="12.46378023220984"><ele>257.5</ele><time>2026-04-03T14:59:04.999Z</time></trkpt><trkpt lat="43.789020923696064" lon="12.463932595061571"><ele>254.0</ele><time>2026-04-03T14:59:05.999Z</time></trkpt><trkpt lat="43.78894807443973" lon="12.464069803437576"><ele>254.0</ele><time>2026-04-03T14:59:06.999Z</time></trkpt><trkpt lat="43.788853157182224" lon="12.464219843164717"><ele>254.0</ele><time>2026-04-03T14:59:07.999Z</time></trkpt><trkpt lat="43.78876100639369" lon="12.464403396390129"><ele>254.0</ele><time>2026-04-03T14:59:08.999Z</time></trkpt><trkpt lat="43.78865620430723" lon="12.46459551134225"><ele>254.33333333333334</ele><time>2026-04-03T14:59:09.999Z</time></trkpt><trkpt lat="43.78854703325285" lon="12.464795650155036"><ele>254.66666666666669</ele><time>2026-04-03T14:59:10.999Z</time></trkpt><trkpt lat="43.78843344068266" lon="12.464995839018204"><ele>255.0</ele><time>2026-04-03T14:59:11.999Z</time></trkpt><trkpt lat="43.78832242369282" lon="12.465201482872764"><ele>255.0</ele><time>2026-04-03T14:59:12.999Z</time></trkpt><trkpt lat="43.78821656050586" lon="12.465399273735342"><ele>255.0</ele><time>2026-04-03T14:59:13.999Z</time></trkpt><trkpt lat="43.78811099404346" lon="12.465586428665157"><ele>255.0</ele><time>2026-04-03T14:59:14.999Z</time></trkpt><trkpt lat="43.788011853662915" lon="12.46576918435673"><ele>255.0</ele><time>2026-04-03T14:59:15.999Z</time></trkpt><trkpt lat="43.787909139862876" lon="12.46595539872714"><ele>255.0</ele><time>2026-04-03T14:59:16.999Z</time></trkpt><trkpt lat="43.787806795904515" lon="12.466148339413264"><ele>255.0</ele><time>2026-04-03T14:59:17.999Z</time></trkpt><trkpt lat="43.787705279981076" lon="12.466347837514743"><ele>253.66666666666669</ele><time>2026-04-03T14:59:18.999Z</time></trkpt><trkpt lat="43.78760720906412" lon="12.466556148795068"><ele>252.33333333333334</ele><time>2026-04-03T14:59:19.999Z</time></trkpt><trkpt lat="43.78751098840352" lon="12.466775840795597"><ele>251.0</ele><time>2026-04-03T14:59:20.999Z</time></trkpt><trkpt lat="43.787417208668735" lon="12.466996704023225"><ele>251.66666666666669</ele><time>2026-04-03T14:59:21.999Z</time></trkpt><trkpt lat="43.78732691098422" lon="12.467223805457774"><ele>252.33333333333331</ele><time>2026-04-03T14:59:22.999Z</time></trkpt><trkpt lat="43.7872374308501" lon="12.467450627156628"><ele>253.0</ele><time>2026-04-03T14:59:23.999Z</time></trkpt><trkpt lat="43.787148722754644" lon="12.46767160557339"><ele>253.0</ele><time>2026-04-03T14:59:24.999Z</time></trkpt><trkpt lat="43.78706258226104" lon="12.467891909515437"><ele>253.0</ele><time>2026-04-03T14:59:25.999Z</time></trkpt><trkpt lat="43.78698162544486" lon="12.46810350318324"><ele>253.0</ele><time>2026-04-03T14:59:26.999Z</time></trkpt><trkpt lat="43.78689880194496" lon="12.468313540242669"><ele>251.33333333333331</ele><time>2026-04-03T14:59:27.999Z</time></trkpt><trkpt lat="43.78681481104325" lon="12.46852572536849"><ele>249.66666666666669</ele><time>2026-04-03T14:59:28.999Z</time></trkpt><trkpt lat="43.78673098431614" lon="12.46874061405551"><ele>248.0</ele><time>2026-04-03T14:59:29.999Z</time></trkpt><trkpt lat="43.78664736126155" lon="12.468960140862125"><ele>248.0</ele><time>2026-04-03T14:59:30.999Z</time></trkpt><trkpt lat="43.78656207834661" lon="12.469181119663899"><ele>248.0</ele><time>2026-04-03T14:59:31.999Z</time></trkpt><trkpt lat="43.78647522437867" lon="12.469408334012387"><ele>248.0</ele><time>2026-04-03T14:59:32.999Z</time></trkpt><trkpt lat="43.786386768285084" lon="12.469635862070865"><ele>250.0</ele><time>2026-04-03T14:59:33.999Z</time></trkpt><trkpt lat="43.78630081664176" lon="12.469853964771534"><ele>252.0</ele><time>2026-04-03T14:59:34.999Z</time></trkpt><trkpt lat="43.786203328719765" lon="12.470058456533767"><ele>254.0</ele><time>2026-04-03T14:59:35.999Z</time></trkpt><trkpt lat="43.78609301232494" lon="12.47024129004347"><ele>249.66666666666669</ele><time>2026-04-03T14:59:36.999Z</time></trkpt><trkpt lat="43.78598210160246" lon="12.47040155433142"><ele>245.33333333333331</ele><time>2026-04-03T14:59:37.999Z</time></trkpt><trkpt lat="43.78586857680509" lon="12.47055940139481"><ele>241.0</ele><time>2026-04-03T14:59:38.999Z</time></trkpt><trkpt lat="43.785749902696885" lon="12.470693112439218"><ele>241.0</ele><time>2026-04-03T14:59:39.999Z</time></trkpt><trkpt lat="43.78561113411743" lon="12.47081322309313"><ele>241.0</ele><time>2026-04-03T14:59:40.999Z</time></trkpt><trkpt lat="43.78547767226039" lon="12.470972381457152"><ele>241.0</ele><time>2026-04-03T14:59:41.999Z</time></trkpt><trkpt lat="43.78532893586699" lon="12.471118368633443"><ele>241.0</ele><time>2026-04-03T14:59:42.999Z</time></trkpt><trkpt lat="43.78517917370144" lon="12.471273998622136"><ele>241.0</ele><time>2026-04-03T14:59:43.999Z</time></trkpt><trkpt lat="43.78501820451352" lon="12.471436294431982"><ele>241.0</ele><time>2026-04-03T14:59:44.999Z</time></trkpt><trkpt lat="43.78484292557705" lon="12.47158450298358"><ele>238.0</ele><time>2026-04-03T14:59:45.999Z</time></trkpt><trkpt lat="43.784671999089824" lon="12.471756128941646"><ele>235.0</ele><time>2026-04-03T14:59:46.999Z</time></trkpt><trkpt lat="43.78448557805897" lon="12.471943312895279"><ele>232.0</ele><time>2026-04-03T14:59:47.999Z</time></trkpt><trkpt lat="43.784288391871314" lon="12.472139700325654"><ele>231.5</ele><time>2026-04-03T14:59:48.999Z</time></trkpt><trkpt lat="43.78408186365263" lon="12.472345328698317"><ele>231.0</ele><time>2026-04-03T14:59:49.999Z</time></trkpt><trkpt lat="43.783864291915215" lon="12.472561952481577"><ele>231.0</ele><time>2026-04-03T14:59:50.999Z</time></trkpt><trkpt lat="43.78363902057349" lon="12.472786919995443"><ele>231.0</ele><time>2026-04-03T14:59:51.999Z</time></trkpt><trkpt lat="43.78342523540661" lon="12.473027242586204"><ele>231.5</ele><time>2026-04-03T14:59:52.999Z</time></trkpt><trkpt lat="43.78320442710462" lon="12.473248841700364"><ele>232.0</ele><time>2026-04-03T14:59:53.999Z</time></trkpt><trkpt lat="43.782984901050625" lon="12.473466750159039"><ele>232.0</ele><time>2026-04-03T14:59:54.999Z</time></trkpt><trkpt lat="43.782764079823096" lon="12.473681689430453"><ele>232.0</ele><time>2026-04-03T14:59:55.999Z</time></trkpt><trkpt lat="43.782544037362555" lon="12.47389507944191"><ele>232.0</ele><time>2026-04-03T14:59:56.999Z</time></trkpt><trkpt lat="43.78233055261602" lon="12.474112109464235"><ele>232.0</ele><time>2026-04-03T14:59:57.999Z</time></trkpt><trkpt lat="43.782121519269005" lon="12.474326615984499"><ele>232.0</ele><time>2026-04-03T14:59:58.999Z</time></trkpt><trkpt lat="43.78191800764322" lon="12.474532102573349"><ele>232.0</ele><time>2026-04-03T14:59:59.999Z</time></trkpt><trkpt lat="43.781716035232435" lon="12.474728962057439"><ele>229.5</ele><time>2026-04-03T15:00:00.999Z</time></trkpt><trkpt lat="43.78151795713448" lon="12.474919082188645"><ele>227.0</ele><time>2026-04-03T15:00:01.999Z</time></trkpt><trkpt lat="43.781318406063015" lon="12.47509335654598"><ele>227.0</ele><time>2026-04-03T15:00:02.999Z</time></trkpt><trkpt lat="43.781121559612615" lon="12.475239080859662"><ele>227.0</ele><time>2026-04-03T15:00:03.999Z</time></trkpt><trkpt lat="43.78093288575907" lon="12.475372463049917"><ele>227.0</ele><time>2026-04-03T15:00:04.999Z</time></trkpt><trkpt lat="43.78075625297417" lon="12.475459597562248"><ele>227.33333333333334</ele><time>2026-04-03T15:00:05.999Z</time></trkpt><trkpt lat="43.78059598821438" lon="12.475558495216696"><ele>227.66666666666669</ele><time>2026-04-03T15:00:06.999Z</time></trkpt><trkpt lat="43.78043808359364" lon="12.475654111654213"><ele>228.0</ele><time>2026-04-03T15:00:07.999Z</time></trkpt><trkpt lat="43.78027714337458" lon="12.475751566884881"><ele>226.33333333333331</ele><time>2026-04-03T15:00:08.999Z</time></trkpt><trkpt lat="43.78012440828485" lon="12.47586426095886"><ele>224.66666666666666</ele><time>2026-04-03T15:00:09.999Z</time></trkpt><trkpt lat="43.779974832977345" lon="12.475953288095518"><ele>223.0</ele><time>2026-04-03T15:00:10.999Z</time></trkpt><trkpt lat="43.779845690625294" lon="12.476047280615719"><ele>223.0</ele><time>2026-04-03T15:00:11.999Z</time></trkpt><trkpt lat="43.779730815024585" lon="12.476121293843152"><ele>223.0</ele><time>2026-04-03T15:00:12.999Z</time></trkpt><trkpt lat="43.77962549473213" lon="12.476166904062705"><ele>223.0</ele><time>2026-04-03T15:00:13.998Z</time></trkpt><trkpt lat="43.77952692657849" lon="12.476178116890743"><ele>223.0</ele><time>2026-04-03T15:00:14.998Z</time></trkpt><trkpt lat="43.77943257028989" lon="12.4761485711604"><ele>223.0</ele><time>2026-04-03T15:00:15.998Z</time></trkpt><trkpt lat="43.779343348061715" lon="12.476118100941285"><ele>223.2</ele><time>2026-04-03T15:00:17Z</time></trkpt><trkpt lat="43.77927384819455" lon="12.476156807102289"><ele>223.4</ele><time>2026-04-03T15:00:18Z</time></trkpt><trkpt lat="43.779229233719235" lon="12.47623987245253"><ele>223.59999999999997</ele><time>2026-04-03T15:00:19Z</time></trkpt><trkpt lat="43.77919925628379" lon="12.476373876523555"><ele>223.79999999999998</ele><time>2026-04-03T15:00:20Z</time></trkpt><trkpt lat="43.77917063518609" lon="12.476541579122413"><ele>224.0</ele><time>2026-04-03T15:00:21Z</time></trkpt><trkpt lat="43.77912128249887" lon="12.476732776167413"><ele>224.0</ele><time>2026-04-03T15:00:22Z</time></trkpt><trkpt lat="43.779030551023155" lon="12.476940534928152"><ele>224.0</ele><time>2026-04-03T15:00:23Z</time></trkpt><trkpt lat="43.778907632559175" lon="12.477156545481254"><ele>224.0</ele><time>2026-04-03T15:00:24Z</time></trkpt><trkpt lat="43.778783818763586" lon="12.477378803995805"><ele>229.0</ele><time>2026-04-03T15:00:25Z</time></trkpt><trkpt lat="43.77868682198245" lon="12.477576886749587"><ele>234.0</ele><time>2026-04-03T15:00:26Z</time></trkpt><trkpt lat="43.77860160280679" lon="12.477764750968"><ele>239.0</ele><time>2026-04-03T15:00:27Z</time></trkpt><trkpt lat="43.778528639912736" lon="12.477950285159743"><ele>236.33333333333334</ele><time>2026-04-03T15:00:28Z</time></trkpt><trkpt lat="43.77847434396401" lon="12.478157927386409"><ele>233.66666666666669</ele><time>2026-04-03T15:00:29Z</time></trkpt><trkpt lat="43.77843333301775" lon="12.478372884328296"><ele>231.0</ele><time>2026-04-03T15:00:30Z</time></trkpt><trkpt lat="43.77841466777747" lon="12.47858553924784"><ele>230.33333333333331</ele><time>2026-04-03T15:00:31Z</time></trkpt><trkpt lat="43.77841510894988" lon="12.478794189487985"><ele>229.66666666666666</ele><time>2026-04-03T15:00:32Z</time></trkpt><trkpt lat="43.77842711474575" lon="12.479001573627857"><ele>229.0</ele><time>2026-04-03T15:00:33Z</time></trkpt><trkpt lat="43.77844352899461" lon="12.479208982141524"><ele>229.0</ele><time>2026-04-03T15:00:34Z</time></trkpt><trkpt lat="43.77846148150563" lon="12.479417996638755"><ele>229.0</ele><time>2026-04-03T15:00:35Z</time></trkpt><trkpt lat="43.77849016023828" lon="12.479626741021914"><ele>229.0</ele><time>2026-04-03T15:00:36Z</time></trkpt><trkpt lat="43.77854140427193" lon="12.47982752041551"><ele>234.66666666666666</ele><time>2026-04-03T15:00:37Z</time></trkpt><trkpt lat="43.77860917921654" lon="12.480013615238903"><ele>240.33333333333331</ele><time>2026-04-03T15:00:38Z</time></trkpt><trkpt lat="43.77869594093647" lon="12.480184893300661"><ele>246.0</ele><time>2026-04-03T15:00:39Z</time></trkpt><trkpt lat="43.778786681003496" lon="12.480353067787172"><ele>245.0</ele><time>2026-04-03T15:00:40Z</time></trkpt><trkpt lat="43.778876583825095" lon="12.480519903353656"><ele>244.0</ele><time>2026-04-03T15:00:41Z</time></trkpt><trkpt lat="43.77896915905052" lon="12.480689870067545"><ele>243.0</ele><time>2026-04-03T15:00:42Z</time></trkpt><trkpt lat="43.77906101967508" lon="12.480862153804685"><ele>243.0</ele><time>2026-04-03T15:00:43Z</time></trkpt><trkpt lat="43.77915321221544" lon="12.481027906975314"><ele>243.0</ele><time>2026-04-03T15:00:44Z</time></trkpt><trkpt lat="43.77924146493583" lon="12.481185326456073"><ele>243.0</ele><time>2026-04-03T15:00:45Z</time></trkpt><trkpt lat="43.779327773183994" lon="12.481338556511915"><ele>243.0</ele><time>2026-04-03T15:00:46Z</time></trkpt><trkpt lat="43.77941418952062" lon="12.48149585189918"><ele>243.5</ele><time>2026-04-03T15:00:47Z</time></trkpt><trkpt lat="43.779501363519586" lon="12.481656078000514"><ele>244.0</ele><time>2026-04-03T15:00:48Z</time></trkpt><trkpt lat="43.779586489619476" lon="12.481812947482661"><ele>244.5</ele><time>2026-04-03T15:00:49Z</time></trkpt><trkpt lat="43.7796699749516" lon="12.481966359284849"><ele>245.0</ele><time>2026-04-03T15:00:50Z</time></trkpt><trkpt lat="43.77975319882379" lon="12.48211808744819"><ele>243.0</ele><time>2026-04-03T15:00:51Z</time></trkpt><trkpt lat="43.779836020114" lon="12.482269998941572"><ele>241.0</ele><time>2026-04-03T15:00:52Z</time></trkpt><trkpt lat="43.77991861222581" lon="12.482423054856358"><ele>239.0</ele><time>2026-04-03T15:00:53Z</time></trkpt><trkpt lat="43.77999903141521" lon="12.482576829880122"><ele>237.0</ele><time>2026-04-03T15:00:54Z</time></trkpt><trkpt lat="43.7800828461067" lon="12.482725536037627"><ele>237.0</ele><time>2026-04-03T15:00:55Z</time></trkpt><trkpt lat="43.78016852560377" lon="12.48287125195798"><ele>237.0</ele><time>2026-04-03T15:00:56Z</time></trkpt><trkpt lat="43.78026095159399" lon="12.483017505323259"><ele>237.0</ele><time>2026-04-03T15:00:57Z</time></trkpt><trkpt lat="43.780367458917354" lon="12.483149324465005"><ele>237.0</ele><time>2026-04-03T15:00:58Z</time></trkpt><trkpt lat="43.7804858379516" lon="12.483257494095122"><ele>237.25</ele><time>2026-04-03T15:00:59Z</time></trkpt><trkpt lat="43.78060562337572" lon="12.483345198463779"><ele>237.5</ele><time>2026-04-03T15:01:00Z</time></trkpt><trkpt lat="43.78072120880838" lon="12.483427547568166"><ele>237.75</ele><time>2026-04-03T15:01:01Z</time></trkpt><trkpt lat="43.7808302609784" lon="12.483506672285275"><ele>238.0</ele><time>2026-04-03T15:01:02Z</time></trkpt><trkpt lat="43.78093317230411" lon="12.483584582796585"><ele>238.25</ele><time>2026-04-03T15:01:03Z</time></trkpt><trkpt lat="43.781035075230655" lon="12.483664866827446"><ele>238.5</ele><time>2026-04-03T15:01:04Z</time></trkpt><trkpt lat="43.781138501213164" lon="12.483747800180538"><ele>238.75</ele><time>2026-04-03T15:01:05Z</time></trkpt><trkpt lat="43.78124279642857" lon="12.48382784999089"><ele>239.0</ele><time>2026-04-03T15:01:05.999Z</time></trkpt><trkpt lat="43.78134895990229" lon="12.483911466343484"><ele>239.0</ele><time>2026-04-03T15:01:06.999Z</time></trkpt><trkpt lat="43.78146083409728" lon="12.483996355347339"><ele>239.0</ele><time>2026-04-03T15:01:07.999Z</time></trkpt><trkpt lat="43.78157643799269" lon="12.48408300774584"><ele>239.0</ele><time>2026-04-03T15:01:08.999Z</time></trkpt><trkpt lat="43.78169633418429" lon="12.484174785050396"><ele>239.0</ele><time>2026-04-03T15:01:09.999Z</time></trkpt><trkpt lat="43.78181671570944" lon="12.484266602282979"><ele>239.0</ele><time>2026-04-03T15:01:10.999Z</time></trkpt><trkpt lat="43.78193567972123" lon="12.484362756953926"><ele>239.0</ele><time>2026-04-03T15:01:11.999Z</time></trkpt><trkpt lat="43.782054104872415" lon="12.484454535235374"><ele>239.0</ele><time>2026-04-03T15:01:12.999Z</time></trkpt><trkpt lat="43.782166317802435" lon="12.484545807461858"><ele>239.0</ele><time>2026-04-03T15:01:13.999Z</time></trkpt><trkpt lat="43.78226816671737" lon="12.484643378432338"><ele>238.6</ele><time>2026-04-03T15:01:14.999Z</time></trkpt><trkpt lat="43.7823534300368" lon="12.484738860379958"><ele>238.2</ele><time>2026-04-03T15:01:15.999Z</time></trkpt><trkpt lat="43.78243071097147" lon="12.484832869231461"><ele>237.79999999999998</ele><time>2026-04-03T15:01:16.999Z</time></trkpt><trkpt lat="43.782499643030675" lon="12.484921263610229"><ele>237.39999999999998</ele><time>2026-04-03T15:01:17.999Z</time></trkpt><trkpt lat="43.78257096398163" lon="12.485011671498572"><ele>237.0</ele><time>2026-04-03T15:01:18.999Z</time></trkpt><trkpt lat="43.782649575281546" lon="12.485110892545439"><ele>237.0</ele><time>2026-04-03T15:01:19.999Z</time></trkpt><trkpt lat="43.78273294390531" lon="12.48521543724981"><ele>237.0</ele><time>2026-04-03T15:01:20.999Z</time></trkpt><trkpt lat="43.78282204339951" lon="12.485324113497683"><ele>237.0</ele><time>2026-04-03T15:01:21.999Z</time></trkpt><trkpt lat="43.78291395316535" lon="12.48544169701981"><ele>237.0</ele><time>2026-04-03T15:01:22.999Z</time></trkpt><trkpt lat="43.78300873373032" lon="12.485561758251249"><ele>236.75</ele><time>2026-04-03T15:01:23.999Z</time></trkpt><trkpt lat="43.78310066210694" lon="12.48567793271939"><ele>236.5</ele><time>2026-04-03T15:01:24.999Z</time></trkpt><trkpt lat="43.78319060176627" lon="12.485789691216896"><ele>236.25</ele><time>2026-04-03T15:01:25.999Z</time></trkpt><trkpt lat="43.78328358124739" lon="12.485901771319176"><ele>236.0</ele><time>2026-04-03T15:01:26.999Z</time></trkpt><trkpt lat="43.78338138068673" lon="12.486022590671956"><ele>236.0</ele><time>2026-04-03T15:01:27.999Z</time></trkpt><trkpt lat="43.78347962009964" lon="12.4861475679925"><ele>236.0</ele><time>2026-04-03T15:01:28.999Z</time></trkpt><trkpt lat="43.78357994190677" lon="12.486275294825543"><ele>236.0</ele><time>2026-04-03T15:01:29.999Z</time></trkpt><trkpt lat="43.783684348889075" lon="12.486402253661362"><ele>236.0</ele><time>2026-04-03T15:01:30.999Z</time></trkpt><trkpt lat="43.78378964869726" lon="12.48653239985953"><ele>236.0</ele><time>2026-04-03T15:01:31.999Z</time></trkpt><trkpt lat="43.78389606586512" lon="12.486666507959098"><ele>236.0</ele><time>2026-04-03T15:01:32.999Z</time></trkpt><trkpt lat="43.78400503359442" lon="12.486799492529089"><ele>236.0</ele><time>2026-04-03T15:01:33.999Z</time></trkpt><trkpt lat="43.78411317339294" lon="12.486931920001632"><ele>236.0</ele><time>2026-04-03T15:01:34.999Z</time></trkpt><trkpt lat="43.78422208635166" lon="12.487067868924052"><ele>235.66666666666669</ele><time>2026-04-03T15:01:35.999Z</time></trkpt><trkpt lat="43.78433474017056" lon="12.487201354860957"><ele>235.33333333333331</ele><time>2026-04-03T15:01:36.999Z</time></trkpt><trkpt lat="43.784444081443155" lon="12.4873418336368"><ele>235.0</ele><time>2026-04-03T15:01:37.999Z</time></trkpt><trkpt lat="43.78455738971446" lon="12.487484933504751"><ele>234.66666666666666</ele><time>2026-04-03T15:01:38.999Z</time></trkpt><trkpt lat="43.78468334557089" lon="12.487639202489992"><ele>234.33333333333331</ele><time>2026-04-03T15:01:39.999Z</time></trkpt><trkpt lat="43.7848205128934" lon="12.487807250154756"><ele>234.0</ele><time>2026-04-03T15:01:40.999Z</time></trkpt><trkpt lat="43.784962970291836" lon="12.487975297951818"><ele>233.33333333333331</ele><time>2026-04-03T15:01:41.999Z</time></trkpt><trkpt lat="43.78510304426412" lon="12.48814342723121"><ele>232.66666666666666</ele><time>2026-04-03T15:01:42.999Z</time></trkpt><trkpt lat="43.7852392440193" lon="12.48831685294354"><ele>232.0</ele><time>2026-04-03T15:01:43.999Z</time></trkpt><trkpt lat="43.785375107010985" lon="12.488490797337299"><ele>230.66666666666666</ele><time>2026-04-03T15:01:44.999Z</time></trkpt><trkpt lat="43.785506543853586" lon="12.488656204604226"><ele>229.33333333333331</ele><time>2026-04-03T15:01:45.999Z</time></trkpt><trkpt lat="43.78563182526879" lon="12.488811346888019"><ele>228.0</ele><time>2026-04-03T15:01:46.999Z</time></trkpt><trkpt lat="43.78575291712931" lon="12.488959693001267"><ele>228.0</ele><time>2026-04-03T15:01:47.999Z</time></trkpt><trkpt lat="43.785869855818206" lon="12.489108206549844"><ele>228.0</ele><time>2026-04-03T15:01:48.999Z</time></trkpt><trkpt lat="43.78598390362448" lon="12.489252205999714"><ele>228.0</ele><time>2026-04-03T15:01:49.999Z</time></trkpt><trkpt lat="43.78609239628967" lon="12.489386491715534"><ele>227.5</ele><time>2026-04-03T15:01:50.999Z</time></trkpt><trkpt lat="43.78619612652089" lon="12.4895141589261"><ele>227.0</ele><time>2026-04-03T15:01:51.999Z</time></trkpt><trkpt lat="43.78629629237781" lon="12.489638656045212"><ele>226.5</ele><time>2026-04-03T15:01:52.999Z</time></trkpt><trkpt lat="43.7864044055834" lon="12.489758692240912"><ele>226.0</ele><time>2026-04-03T15:01:53.999Z</time></trkpt><trkpt lat="43.78652481978271" lon="12.489865994175807"><ele>226.0</ele><time>2026-04-03T15:01:54.999Z</time></trkpt><trkpt lat="43.78665737511094" lon="12.489953954637139"><ele>226.0</ele><time>2026-04-03T15:01:55.999Z</time></trkpt><trkpt lat="43.786795325478614" lon="12.49002316510517"><ele>226.0</ele><time>2026-04-03T15:01:56.999Z</time></trkpt><trkpt lat="43.78692759683113" lon="12.49009474177809"><ele>226.0</ele><time>2026-04-03T15:01:57.999Z</time></trkpt><trkpt lat="43.787041904232005" lon="12.490161525383229"><ele>226.20000000000002</ele><time>2026-04-03T15:01:58.999Z</time></trkpt><trkpt lat="43.78712869950825" lon="12.490212233393287"><ele>226.40000000000003</ele><time>2026-04-03T15:01:59.999Z</time></trkpt><trkpt lat="43.78719127847247" lon="12.490286848880544"><ele>226.6</ele><time>2026-04-03T15:02:00.999Z</time></trkpt><trkpt lat="43.7872227700927" lon="12.490375641668804"><ele>226.8</ele><time>2026-04-03T15:02:01.999Z</time></trkpt><trkpt lat="43.78717868871047" lon="12.490514667161571"><ele>227.0</ele><time>2026-04-03T15:02:03.999Z</time></trkpt><trkpt lat="43.787046912504216" lon="12.490512214892274"><ele>227.0</ele><time>2026-04-03T15:02:05.999Z</time></trkpt><trkpt lat="43.786965702095316" lon="12.490425039443586"><ele>227.0</ele><time>2026-04-03T15:02:06.999Z</time></trkpt><trkpt lat="43.78688286343204" lon="12.490314728919998"><ele>227.0</ele><time>2026-04-03T15:02:07.999Z</time></trkpt><trkpt lat="43.78679030744156" lon="12.490204453036958"><ele>227.0</ele><time>2026-04-03T15:02:08.999Z</time></trkpt><trkpt lat="43.786705589804946" lon="12.490122413213053"><ele>227.0</ele><time>2026-04-03T15:02:09.999Z</time></trkpt><trkpt lat="43.786632636400746" lon="12.49003439058713"><ele>226.8</ele><time>2026-04-03T15:02:10.999Z</time></trkpt><trkpt lat="43.786530951432404" lon="12.490005900005169"><ele>226.6</ele><time>2026-04-03T15:02:11.999Z</time></trkpt><trkpt lat="43.786427201569545" lon="12.490041722999582"><ele>226.40000000000003</ele><time>2026-04-03T15:02:12.999Z</time></trkpt><trkpt lat="43.78631900662702" lon="12.490077550760638"><ele>226.20000000000002</ele><time>2026-04-03T15:02:13.999Z</time></trkpt><trkpt lat="43.786205140294875" lon="12.490122900423117"><ele>226.0</ele><time>2026-04-03T15:02:14.999Z</time></trkpt><trkpt lat="43.786081641645545" lon="12.490156336899265"><ele>225.5</ele><time>2026-04-03T15:02:15.999Z</time></trkpt><trkpt lat="43.785955515048364" lon="12.490167666186984"><ele>225.0</ele><time>2026-04-03T15:02:16.999Z</time></trkpt><trkpt lat="43.785833364317355" lon="12.49015071922655"><ele>224.5</ele><time>2026-04-03T15:02:17.999Z</time></trkpt><trkpt lat="43.78571386979206" lon="12.490109939299952"><ele>224.0</ele><time>2026-04-03T15:02:18.999Z</time></trkpt><trkpt lat="43.78559286827147" lon="12.490069739048334"><ele>224.0</ele><time>2026-04-03T15:02:19.999Z</time></trkpt><trkpt lat="43.78547290572113" lon="12.490035362994956"><ele>224.0</ele><time>2026-04-03T15:02:20.999Z</time></trkpt><trkpt lat="43.78535531780933" lon="12.490004898753437"><ele>224.0</ele><time>2026-04-03T15:02:21.998Z</time></trkpt><trkpt lat="43.7852398468653" lon="12.48997773664718"><ele>224.0</ele><time>2026-04-03T15:02:23Z</time></trkpt><trkpt lat="43.78512460583688" lon="12.489957137415834"><ele>221.79999999999998</ele><time>2026-04-03T15:02:24Z</time></trkpt><trkpt lat="43.78501013134169" lon="12.489939352749337"><ele>219.59999999999997</ele><time>2026-04-03T15:02:25Z</time></trkpt><trkpt lat="43.78490515527576" lon="12.489923121562297"><ele>217.4</ele><time>2026-04-03T15:02:26Z</time></trkpt><trkpt lat="43.7848074317246" lon="12.489911562225485"><ele>215.2</ele><time>2026-04-03T15:02:27Z</time></trkpt><trkpt lat="43.784716049554014" lon="12.489899568369584"><ele>213.0</ele><time>2026-04-03T15:02:28Z</time></trkpt><trkpt lat="43.78462641167645" lon="12.489889806594793"><ele>213.0</ele><time>2026-04-03T15:02:29Z</time></trkpt><trkpt lat="43.78453464536533" lon="12.489892574143127"><ele>213.0</ele><time>2026-04-03T15:02:30Z</time></trkpt><trkpt lat="43.78444134206552" lon="12.489876887924922"><ele>213.0</ele><time>2026-04-03T15:02:31Z</time></trkpt><trkpt lat="43.7843410593593" lon="12.48989835071747"><ele>213.0</ele><time>2026-04-03T15:02:32Z</time></trkpt><trkpt lat="43.78424040720952" lon="12.48995723706185"><ele>213.0</ele><time>2026-04-03T15:02:33Z</time></trkpt><trkpt lat="43.78415702514768" lon="12.49007954823487"><ele>210.75</ele><time>2026-04-03T15:02:34Z</time></trkpt><trkpt lat="43.784075998174785" lon="12.490185588758955"><ele>208.5</ele><time>2026-04-03T15:02:35Z</time></trkpt><trkpt lat="43.783994212344815" lon="12.490290586477258"><ele>206.25</ele><time>2026-04-03T15:02:36Z</time></trkpt><trkpt lat="43.78391217873964" lon="12.490398431795825"><ele>204.0</ele><time>2026-04-03T15:02:37Z</time></trkpt><trkpt lat="43.78382781231554" lon="12.490505498905508"><ele>204.0</ele><time>2026-04-03T15:02:38Z</time></trkpt><trkpt lat="43.783748362316764" lon="12.490599169621657"><ele>204.0</ele><time>2026-04-03T15:02:39Z</time></trkpt><trkpt lat="43.78368109244129" lon="12.490674095893162"><ele>204.0</ele><time>2026-04-03T15:02:40Z</time></trkpt><trkpt lat="43.78361803078329" lon="12.49075176832338"><ele>204.0</ele><time>2026-04-03T15:02:41Z</time></trkpt><trkpt lat="43.78355402259596" lon="12.4908291165978"><ele>204.0</ele><time>2026-04-03T15:02:42Z</time></trkpt><trkpt lat="43.783485787722476" lon="12.490922925988492"><ele>204.0</ele><time>2026-04-03T15:02:43Z</time></trkpt><trkpt lat="43.78340708865798" lon="12.491024482232735"><ele>204.0</ele><time>2026-04-03T15:02:44Z</time></trkpt><trkpt lat="43.78332431276449" lon="12.491135093089698"><ele>204.0</ele><time>2026-04-03T15:02:45Z</time></trkpt><trkpt lat="43.78323953167544" lon="12.491248610010953"><ele>204.0</ele><time>2026-04-03T15:02:46Z</time></trkpt><trkpt lat="43.783148951730766" lon="12.491361510339155"><ele>205.0</ele><time>2026-04-03T15:02:47Z</time></trkpt><trkpt lat="43.78305808214437" lon="12.491473456166133"><ele>206.0</ele><time>2026-04-03T15:02:48Z</time></trkpt><trkpt lat="43.78297190756744" lon="12.491581947376641"><ele>207.0</ele><time>2026-04-03T15:02:49Z</time></trkpt><trkpt lat="43.78289309641052" lon="12.491681498771777"><ele>208.0</ele><time>2026-04-03T15:02:50Z</time></trkpt><trkpt lat="43.78282090888286" lon="12.491771805876175"><ele>209.0</ele><time>2026-04-03T15:02:51Z</time></trkpt><trkpt lat="43.78275567931412" lon="12.491856856798647"><ele>209.0</ele><time>2026-04-03T15:02:52Z</time></trkpt><trkpt lat="43.78268669238546" lon="12.491936197501438"><ele>209.0</ele><time>2026-04-03T15:02:53Z</time></trkpt><trkpt lat="43.78261518735033" lon="12.492012866000133"><ele>209.0</ele><time>2026-04-03T15:02:54Z</time></trkpt><trkpt lat="43.78254160109507" lon="12.492089678045689"><ele>209.0</ele><time>2026-04-03T15:02:55Z</time></trkpt><trkpt lat="43.78246090599649" lon="12.492175698151378"><ele>209.0</ele><time>2026-04-03T15:02:56Z</time></trkpt><trkpt lat="43.78237668293645" lon="12.492270109672635"><ele>213.5</ele><time>2026-04-03T15:02:57Z</time></trkpt><trkpt lat="43.78228005352173" lon="12.492368668315558"><ele>218.0</ele><time>2026-04-03T15:02:58Z</time></trkpt><trkpt lat="43.78217466074562" lon="12.492479400919633"><ele>222.5</ele><time>2026-04-03T15:02:59Z</time></trkpt><trkpt lat="43.78206571306967" lon="12.492607506137027"><ele>227.0</ele><time>2026-04-03T15:03:00Z</time></trkpt><trkpt lat="43.78194718129248" lon="12.49274344399015"><ele>224.66666666666669</ele><time>2026-04-03T15:03:01Z</time></trkpt><trkpt lat="43.78181936029346" lon="12.492874068697564"><ele>222.33333333333331</ele><time>2026-04-03T15:03:02Z</time></trkpt><trkpt lat="43.78168915319794" lon="12.492996526835004"><ele>220.0</ele><time>2026-04-03T15:03:03Z</time></trkpt><trkpt lat="43.781561065518616" lon="12.49307921464982"><ele>229.66666666666666</ele><time>2026-04-03T15:03:04Z</time></trkpt><trkpt lat="43.78142380179866" lon="12.493130805464594"><ele>239.33333333333331</ele><time>2026-04-03T15:03:05Z</time></trkpt><trkpt lat="43.78126830701757" lon="12.493112594804572"><ele>249.0</ele><time>2026-04-03T15:03:06Z</time></trkpt><trkpt lat="43.78111019494266" lon="12.493087163889811"><ele>251.66666666666669</ele><time>2026-04-03T15:03:07Z</time></trkpt><trkpt lat="43.78095619196993" lon="12.493039973275867"><ele>254.33333333333334</ele><time>2026-04-03T15:03:08Z</time></trkpt><trkpt lat="43.78079306441166" lon="12.492984870642381"><ele>257.0</ele><time>2026-04-03T15:03:09Z</time></trkpt><trkpt lat="43.78063954434342" lon="12.49290789897642"><ele>246.0</ele><time>2026-04-03T15:03:10Z</time></trkpt><trkpt lat="43.78049389914695" lon="12.4928337469446"><ele>235.0</ele><time>2026-04-03T15:03:10.999Z</time></trkpt><trkpt lat="43.78034869275979" lon="12.492794308638112"><ele>224.0</ele><time>2026-04-03T15:03:11.999Z</time></trkpt><trkpt lat="43.78018898925249" lon="12.492803231899636"><ele>227.66666666666669</ele><time>2026-04-03T15:03:12.999Z</time></trkpt><trkpt lat="43.78002523162505" lon="12.49283674837837"><ele>231.33333333333331</ele><time>2026-04-03T15:03:13.999Z</time></trkpt><trkpt lat="43.77985543406463" lon="12.492864305781838"><ele>235.0</ele><time>2026-04-03T15:03:14.999Z</time></trkpt><trkpt lat="43.77968134028541" lon="12.492886159442515"><ele>235.0</ele><time>2026-04-03T15:03:15.999Z</time></trkpt><trkpt lat="43.77950871564199" lon="12.492913078760363"><ele>235.0</ele><time>2026-04-03T15:03:16.999Z</time></trkpt><trkpt lat="43.779333276310695" lon="12.492945000345593"><ele>235.0</ele><time>2026-04-03T15:03:17.999Z</time></trkpt><trkpt lat="43.77915825372495" lon="12.492976799952581"><ele>242.66666666666666</ele><time>2026-04-03T15:03:18.999Z</time></trkpt><trkpt lat="43.77898324433993" lon="12.493006317208112"><ele>250.33333333333331</ele><time>2026-04-03T15:03:19.999Z</time></trkpt><trkpt lat="43.77881043163201" lon="12.493038330101864"><ele>258.0</ele><time>2026-04-03T15:03:20.999Z</time></trkpt><trkpt lat="43.77863303652178" lon="12.493074735142049"><ele>260.3333333333333</ele><time>2026-04-03T15:03:21.999Z</time></trkpt><trkpt lat="43.77844736608859" lon="12.49310123134754"><ele>262.66666666666663</ele><time>2026-04-03T15:03:22.999Z</time></trkpt><trkpt lat="43.778251973336495" lon="12.49315582316195"><ele>265.0</ele><time>2026-04-03T15:03:23.999Z</time></trkpt><trkpt lat="43.77805632269261" lon="12.493237600480334"><ele>265.0</ele><time>2026-04-03T15:03:24.999Z</time></trkpt><trkpt lat="43.77786765406722" lon="12.493347607990183"><ele>265.0</ele><time>2026-04-03T15:03:25.999Z</time></trkpt><trkpt lat="43.77768925813127" lon="12.493412626722574"><ele>265.0</ele><time>2026-04-03T15:03:26.999Z</time></trkpt><trkpt lat="43.777527530448744" lon="12.493406308796196"><ele>267.3333333333333</ele><time>2026-04-03T15:03:27.999Z</time></trkpt><trkpt lat="43.77736707971033" lon="12.493385590543474"><ele>269.6666666666667</ele><time>2026-04-03T15:03:28.999Z</time></trkpt><trkpt lat="43.7771964710675" lon="12.493365954751805"><ele>272.0</ele><time>2026-04-03T15:03:29.999Z</time></trkpt><trkpt lat="43.77704975511114" lon="12.493319807394535"><ele>272.0</ele><time>2026-04-03T15:03:30.999Z</time></trkpt><trkpt lat="43.776935442963676" lon="12.493293167363676"><ele>272.0</ele><time>2026-04-03T15:03:31.999Z</time></trkpt><trkpt lat="43.77684434458542" lon="12.49328984569261"><ele>272.0</ele><time>2026-04-03T15:03:32.999Z</time></trkpt><trkpt lat="43.77677180746498" lon="12.49331201889665"><ele>272.0</ele><time>2026-04-03T15:03:33.999Z</time></trkpt><trkpt lat="43.77673028122797" lon="12.493414892647317"><ele>272.0</ele><time>2026-04-03T15:03:34.999Z</time></trkpt><trkpt lat="43.776726535998144" lon="12.493509304941155"><ele>272.0</ele><time>2026-04-03T15:03:35.999Z</time></trkpt><trkpt lat="43.77681892877262" lon="12.493596022125903"><ele>272.0</ele><time>2026-04-03T15:03:36.999Z</time></trkpt><trkpt lat="43.77692501074125" lon="12.493651363956493"><ele>272.0</ele><time>2026-04-03T15:03:37.999Z</time></trkpt><trkpt lat="43.777047610552366" lon="12.493704639146443"><ele>272.0</ele><time>2026-04-03T15:03:38.999Z</time></trkpt><trkpt lat="43.777193298848346" lon="12.493763637684383"><ele>272.0</ele><time>2026-04-03T15:03:39.999Z</time></trkpt><trkpt lat="43.77731096194103" lon="12.493820367344265"><ele>277.25</ele><time>2026-04-03T15:03:40.999Z</time></trkpt><trkpt lat="43.777426371986955" lon="12.493875515581252"><ele>282.5</ele><time>2026-04-03T15:03:41.999Z</time></trkpt><trkpt lat="43.777550645822785" lon="12.493948692930456"><ele>287.75</ele><time>2026-04-03T15:03:42.999Z</time></trkpt><trkpt lat="43.7776562866083" lon="12.49400936357159"><ele>293.0</ele><time>2026-04-03T15:03:43.999Z</time></trkpt><trkpt lat="43.777752908596355" lon="12.494066712179443"><ele>293.0</ele><time>2026-04-03T15:03:44.999Z</time></trkpt><trkpt lat="43.77785153528752" lon="12.49413863513334"><ele>293.0</ele><time>2026-04-03T15:03:45.999Z</time></trkpt><trkpt lat="43.77795764437216" lon="12.494251876225624"><ele>293.0</ele><time>2026-04-03T15:03:46.999Z</time></trkpt><trkpt lat="43.778077465836404" lon="12.494370688408171"><ele>293.0</ele><time>2026-04-03T15:03:47.999Z</time></trkpt><trkpt lat="43.778214278389825" lon="12.494484073280042"><ele>293.0</ele><time>2026-04-03T15:03:48.999Z</time></trkpt><trkpt lat="43.77834638602422" lon="12.49458164521863"><ele>293.0</ele><time>2026-04-03T15:03:49.999Z</time></trkpt><trkpt lat="43.77846980707332" lon="12.494653676061727"><ele>293.0</ele><time>2026-04-03T15:03:50.999Z</time></trkpt><trkpt lat="43.77857827672061" lon="12.49469285998791"><ele>293.0</ele><time>2026-04-03T15:03:51.999Z</time></trkpt><trkpt lat="43.77867066790859" lon="12.494722343463891"><ele>297.83333333333337</ele><time>2026-04-03T15:03:52.999Z</time></trkpt><trkpt lat="43.778752169439514" lon="12.494761511454634"><ele>302.6666666666667</ele><time>2026-04-03T15:03:53.999Z</time></trkpt><trkpt lat="43.77883039190082" lon="12.494805936693378"><ele>307.5</ele><time>2026-04-03T15:03:54.999Z</time></trkpt><trkpt lat="43.778910081514745" lon="12.494836804158401"><ele>312.3333333333333</ele><time>2026-04-03T15:03:55.999Z</time></trkpt><trkpt lat="43.77899332446111" lon="12.494877404534568"><ele>317.16666666666663</ele><time>2026-04-03T15:03:56.999Z</time></trkpt><trkpt lat="43.779083113396275" lon="12.494908692320324"><ele>322.0</ele><time>2026-04-03T15:03:57.999Z</time></trkpt><trkpt lat="43.77917359812443" lon="12.494943097174863"><ele>322.0</ele><time>2026-04-03T15:03:58.999Z</time></trkpt><trkpt lat="43.77926698075728" lon="12.49497591749792"><ele>322.0</ele><time>2026-04-03T15:03:59.999Z</time></trkpt><trkpt lat="43.77935616241368" lon="12.495003249945174"><ele>322.0</ele><time>2026-04-03T15:04:00.999Z</time></trkpt><trkpt lat="43.77944904512213" lon="12.49502970948756"><ele>322.0</ele><time>2026-04-03T15:04:01.999Z</time></trkpt><trkpt lat="43.77954243669975" lon="12.49505740672758"><ele>322.0</ele><time>2026-04-03T15:04:02.999Z</time></trkpt><trkpt lat="43.77963846061471" lon="12.495045545978812"><ele>321.66666666666663</ele><time>2026-04-03T15:04:03.999Z</time></trkpt><trkpt lat="43.77973298158211" lon="12.49506719368569"><ele>321.3333333333333</ele><time>2026-04-03T15:04:04.999Z</time></trkpt><trkpt lat="43.779810262770134" lon="12.495049375412645"><ele>321.0</ele><time>2026-04-03T15:04:05.999Z</time></trkpt><trkpt lat="43.77987892681843" lon="12.495037627220066"><ele>320.6666666666667</ele><time>2026-04-03T15:04:06.999Z</time></trkpt><trkpt lat="43.77999609773669" lon="12.49501196384677"><ele>320.33333333333337</ele><time>2026-04-03T15:04:08.999Z</time></trkpt><trkpt lat="43.7800635844155" lon="12.495013996398146"><ele>320.0</ele><time>2026-04-03T15:04:09.999Z</time></trkpt><trkpt lat="43.780130044095415" lon="12.495044723097088"><ele>319.57142857142856</ele><time>2026-04-03T15:04:10.999Z</time></trkpt><trkpt lat="43.780193747677764" lon="12.49508440418556"><ele>319.14285714285717</ele><time>2026-04-03T15:04:11.999Z</time></trkpt><trkpt lat="43.7802539873367" lon="12.495136686420834"><ele>318.7142857142857</ele><time>2026-04-03T15:04:12.999Z</time></trkpt><trkpt lat="43.78031235947697" lon="12.495187965570048"><ele>318.2857142857143</ele><time>2026-04-03T15:04:13.999Z</time></trkpt><trkpt lat="43.780367224896864" lon="12.495255967861256"><ele>317.85714285714283</ele><time>2026-04-03T15:04:14.999Z</time></trkpt><trkpt lat="43.78042350016693" lon="12.495332679278622"><ele>317.42857142857144</ele><time>2026-04-03T15:04:15.999Z</time></trkpt><trkpt lat="43.78047707979212" lon="12.495409898216366"><ele>317.0</ele><time>2026-04-03T15:04:16.999Z</time></trkpt><trkpt lat="43.78054915637598" lon="12.495530245279896"><ele>319.0</ele><time>2026-04-03T15:04:18.999Z</time></trkpt><trkpt lat="43.780587187874936" lon="12.495620166062626"><ele>321.0</ele><time>2026-04-03T15:04:20.999Z</time></trkpt><trkpt lat="43.78060722404765" lon="12.495741185357426"><ele>323.0</ele><time>2026-04-03T15:04:22.999Z</time></trkpt><trkpt lat="43.78063966613865" lon="12.495863679270057"><ele>325.0</ele><time>2026-04-03T15:04:24.999Z</time></trkpt><trkpt lat="43.78063692131459" lon="12.495993700520211"><ele>327.0</ele><time>2026-04-03T15:04:27.998Z</time></trkpt><trkpt lat="43.780537521061696" lon="12.496073630665977"><ele>327.0</ele><time>2026-04-03T15:04:30Z</time></trkpt><trkpt lat="43.780473442245615" lon="12.496107461199482"><ele>327.0</ele><time>2026-04-03T15:04:31Z</time></trkpt><trkpt lat="43.78041149880726" lon="12.496142094755294"><ele>327.0</ele><time>2026-04-03T15:04:32Z</time></trkpt><trkpt lat="43.780349117466535" lon="12.496178401292942"><ele>327.0</ele><time>2026-04-03T15:04:33Z</time></trkpt><trkpt lat="43.7802909216554" lon="12.496223269640257"><ele>327.0</ele><time>2026-04-03T15:04:34Z</time></trkpt><trkpt lat="43.78023600932324" lon="12.496273811047777"><ele>327.0</ele><time>2026-04-03T15:04:35Z</time></trkpt><trkpt lat="43.780182800864615" lon="12.496326402215601"><ele>327.0</ele><time>2026-04-03T15:04:36Z</time></trkpt><trkpt lat="43.78013432795018" lon="12.496387753749987"><ele>327.5</ele><time>2026-04-03T15:04:37Z</time></trkpt><trkpt lat="43.78008665222951" lon="12.496454037528173"><ele>328.0</ele><time>2026-04-03T15:04:38Z</time></trkpt><trkpt lat="43.78003825153343" lon="12.496522534184763"><ele>328.5</ele><time>2026-04-03T15:04:39Z</time></trkpt><trkpt lat="43.77999358352441" lon="12.496593787047917"><ele>329.0</ele><time>2026-04-03T15:04:40Z</time></trkpt><trkpt lat="43.779951200557655" lon="12.496667179321888"><ele>329.5</ele><time>2026-04-03T15:04:41Z</time></trkpt><trkpt lat="43.77991613860002" lon="12.496740504006038"><ele>330.0</ele><time>2026-04-03T15:04:42Z</time></trkpt><trkpt lat="43.779905583927004" lon="12.496919306604127"><ele>330.0</ele><time>2026-04-03T15:04:44Z</time></trkpt><trkpt lat="43.77990810900825" lon="12.497007479465541"><ele>330.0</ele><time>2026-04-03T15:04:45Z</time></trkpt><trkpt lat="43.77996506830318" lon="12.49708843220298"><ele>330.0</ele><time>2026-04-03T15:04:46Z</time></trkpt><trkpt lat="43.78002920509236" lon="12.497142956135558"><ele>330.0</ele><time>2026-04-03T15:04:47Z</time></trkpt><trkpt lat="43.78008736583464" lon="12.497214811478486"><ele>330.0</ele><time>2026-04-03T15:04:48Z</time></trkpt><trkpt lat="43.78014028672364" lon="12.497296258110804"><ele>330.0</ele><time>2026-04-03T15:04:49Z</time></trkpt><trkpt lat="43.78022513809961" lon="12.497323977656258"><ele>330.0</ele><time>2026-04-03T15:04:50Z</time></trkpt><trkpt lat="43.780302334007295" lon="12.49736243485067"><ele>330.0</ele><time>2026-04-03T15:04:51Z</time></trkpt><trkpt lat="43.78038019043127" lon="12.497412651006398"><ele>330.0</ele><time>2026-04-03T15:04:52Z</time></trkpt><trkpt lat="43.78047776221159" lon="12.497439842615162"><ele>330.0</ele><time>2026-04-03T15:04:53Z</time></trkpt><trkpt lat="43.78056378124392" lon="12.497437452394227"><ele>330.0</ele><time>2026-04-03T15:04:54Z</time></trkpt><trkpt lat="43.780627090704726" lon="12.497447998753202"><ele>330.0</ele><time>2026-04-03T15:04:55Z</time></trkpt><trkpt lat="43.780705489924664" lon="12.497466421911902"><ele>330.0</ele><time>2026-04-03T15:04:57Z</time></trkpt><trkpt lat="43.78072650188856" lon="12.497314494747945"><ele>330.0</ele><time>2026-04-03T15:05:00Z</time></trkpt><trkpt lat="43.780725625571094" lon="12.49721756132156"><ele>330.0</ele><time>2026-04-03T15:05:01Z</time></trkpt><trkpt lat="43.780724286120034" lon="12.497113580992684"><ele>330.0</ele><time>2026-04-03T15:05:02Z</time></trkpt><trkpt lat="43.78073671818709" lon="12.496999480643442"><ele>330.0</ele><time>2026-04-03T15:05:03Z</time></trkpt><trkpt lat="43.780735666723764" lon="12.496896612993307"><ele>330.0</ele><time>2026-04-03T15:05:04Z</time></trkpt><trkpt lat="43.7807402076923" lon="12.496807435509487"><ele>329.4</ele><time>2026-04-03T15:05:05Z</time></trkpt><trkpt lat="43.78074127975032" lon="12.496651802862742"><ele>328.8</ele><time>2026-04-03T15:05:07Z</time></trkpt><trkpt lat="43.78074039217309" lon="12.496515473164097"><ele>328.20000000000005</ele><time>2026-04-03T15:05:09Z</time></trkpt><trkpt lat="43.780742025283665" lon="12.496369926203693"><ele>327.6</ele><time>2026-04-03T15:05:11Z</time></trkpt><trkpt lat="43.78073395086239" lon="12.496230570970448"><ele>327.0</ele><time>2026-04-03T15:05:13Z</time></trkpt><trkpt lat="43.78073579889869" lon="12.496142984715362"><ele>327.0</ele><time>2026-04-03T15:05:15Z</time></trkpt><trkpt lat="43.78088922370333" lon="12.496116901942372"><ele>327.0</ele><time>2026-04-03T15:05:18Z</time></trkpt><trkpt lat="43.78095980227523" lon="12.496048163549602"><ele>327.0</ele><time>2026-04-03T15:05:21.999Z</time></trkpt><trkpt lat="43.78085363901185" lon="12.49602927915938"><ele>327.0</ele><time>2026-04-03T15:05:23.999Z</time></trkpt><trkpt lat="43.780787567756526" lon="12.496035563224753"><ele>327.0</ele><time>2026-04-03T15:05:25.999Z</time></trkpt><trkpt lat="43.78071384463294" lon="12.495967494358815"><ele>327.0</ele><time>2026-04-03T15:05:32.999Z</time></trkpt><trkpt lat="43.78064301662172" lon="12.495943649397216"><ele>327.0</ele><time>2026-04-03T15:05:34.999Z</time></trkpt><trkpt lat="43.78066226250732" lon="12.495800191680614"><ele>327.0</ele><time>2026-04-03T15:05:35.999Z</time></trkpt><trkpt lat="43.780666821977924" lon="12.495699166922918"><ele>327.0</ele><time>2026-04-03T15:05:37.999Z</time></trkpt><trkpt lat="43.78063391815092" lon="12.495603686627344"><ele>327.0</ele><time>2026-04-03T15:05:40.999Z</time></trkpt><trkpt lat="43.78060546825376" lon="12.495525826156927"><ele>327.0</ele><time>2026-04-03T15:05:52.999Z</time></trkpt><trkpt lat="43.78053868838201" lon="12.495431169969185"><ele>325.0</ele><time>2026-04-03T15:05:55.999Z</time></trkpt><trkpt lat="43.78048776820541" lon="12.495361818067671"><ele>323.0</ele><time>2026-04-03T15:05:57.999Z</time></trkpt><trkpt lat="43.7804292769659" lon="12.495287160080883"><ele>321.0</ele><time>2026-04-03T15:05:59.999Z</time></trkpt><trkpt lat="43.780362859105786" lon="12.495202691403893"><ele>319.0</ele><time>2026-04-03T15:06:01.999Z</time></trkpt><trkpt lat="43.78027921223537" lon="12.49511563993911"><ele>317.0</ele><time>2026-04-03T15:06:03.999Z</time></trkpt><trkpt lat="43.780191846051814" lon="12.495020796503905"><ele>317.5</ele><time>2026-04-03T15:06:05.999Z</time></trkpt><trkpt lat="43.78012854193095" lon="12.49498246117436"><ele>318.0</ele><time>2026-04-03T15:06:06.999Z</time></trkpt><trkpt lat="43.780061397137366" lon="12.49495921339095"><ele>318.5</ele><time>2026-04-03T15:06:07.999Z</time></trkpt><trkpt lat="43.77998658607681" lon="12.4949516662986"><ele>319.0</ele><time>2026-04-03T15:06:08.999Z</time></trkpt><trkpt lat="43.77992010111895" lon="12.494953475437693"><ele>319.5</ele><time>2026-04-03T15:06:09.999Z</time></trkpt><trkpt lat="43.77981525029021" lon="12.494971126323895"><ele>320.0</ele><time>2026-04-03T15:06:11.999Z</time></trkpt><trkpt lat="43.779700005240365" lon="12.494977121657906"><ele>320.0</ele><time>2026-04-03T15:06:13.999Z</time></trkpt><trkpt lat="43.77962045555821" lon="12.494975551827974"><ele>320.0</ele><time>2026-04-03T15:06:14.999Z</time></trkpt><trkpt lat="43.77954076326905" lon="12.494969308008613"><ele>320.0</ele><time>2026-04-03T15:06:15.999Z</time></trkpt><trkpt lat="43.77945955997539" lon="12.494956297771648"><ele>320.0</ele><time>2026-04-03T15:06:16.999Z</time></trkpt><trkpt lat="43.779380165121815" lon="12.494934591649397"><ele>320.0</ele><time>2026-04-03T15:06:17.999Z</time></trkpt><trkpt lat="43.779305665603964" lon="12.494907328283901"><ele>320.0</ele><time>2026-04-03T15:06:18.999Z</time></trkpt><trkpt lat="43.77923157110731" lon="12.494879884852732"><ele>320.33333333333337</ele><time>2026-04-03T15:06:19.999Z</time></trkpt><trkpt lat="43.7791516417327" lon="12.494850280342673"><ele>320.6666666666667</ele><time>2026-04-03T15:06:20.999Z</time></trkpt><trkpt lat="43.77906964253977" lon="12.494833800208713"><ele>321.0</ele><time>2026-04-03T15:06:21.999Z</time></trkpt><trkpt lat="43.7789912488945" lon="12.494791777356285"><ele>321.3333333333333</ele><time>2026-04-03T15:06:22.999Z</time></trkpt><trkpt lat="43.778906653767876" lon="12.494760434578842"><ele>321.66666666666663</ele><time>2026-04-03T15:06:23.999Z</time></trkpt><trkpt lat="43.77881795300925" lon="12.494725831267804"><ele>322.0</ele><time>2026-04-03T15:06:24.999Z</time></trkpt><trkpt lat="43.77872741189465" lon="12.494695305407959"><ele>322.0</ele><time>2026-04-03T15:06:25.999Z</time></trkpt><trkpt lat="43.778632681732866" lon="12.49466346215895"><ele>322.0</ele><time>2026-04-03T15:06:26.999Z</time></trkpt><trkpt lat="43.778535345307716" lon="12.494630145685907"><ele>322.0</ele><time>2026-04-03T15:06:27.999Z</time></trkpt><trkpt lat="43.778438633407305" lon="12.494583938863618"><ele>322.0</ele><time>2026-04-03T15:06:28.999Z</time></trkpt><trkpt lat="43.778345625349786" lon="12.494517755962313"><ele>322.0</ele><time>2026-04-03T15:06:29.999Z</time></trkpt><trkpt lat="43.77825023044834" lon="12.494444679190646"><ele>316.20000000000005</ele><time>2026-04-03T15:06:30.999Z</time></trkpt><trkpt lat="43.77815354667176" lon="12.494364515807947"><ele>310.40000000000003</ele><time>2026-04-03T15:06:31.999Z</time></trkpt><trkpt lat="43.778058780166475" lon="12.49429400826123"><ele>304.6</ele><time>2026-04-03T15:06:32.999Z</time></trkpt><trkpt lat="43.77796859889566" lon="12.494218273480653"><ele>298.8</ele><time>2026-04-03T15:06:33.999Z</time></trkpt><trkpt lat="43.77787965956238" lon="12.494149883579547"><ele>293.0</ele><time>2026-04-03T15:06:35Z</time></trkpt><trkpt lat="43.77779170196496" lon="12.494081633294515"><ele>293.0</ele><time>2026-04-03T15:06:36Z</time></trkpt><trkpt lat="43.77770148909852" lon="12.49401180312751"><ele>293.0</ele><time>2026-04-03T15:06:37Z</time></trkpt><trkpt lat="43.77761274361934" lon="12.493948612476315"><ele>293.0</ele><time>2026-04-03T15:06:38Z</time></trkpt><trkpt lat="43.77752431634458" lon="12.49389108156992"><ele>293.0</ele><time>2026-04-03T15:06:39Z</time></trkpt><trkpt lat="43.77743658927354" lon="12.493841750303712"><ele>293.0</ele><time>2026-04-03T15:06:40Z</time></trkpt><trkpt lat="43.777346997571954" lon="12.493790689344143"><ele>288.8</ele><time>2026-04-03T15:06:41Z</time></trkpt><trkpt lat="43.77725902138504" lon="12.493726638805144"><ele>284.6</ele><time>2026-04-03T15:06:42Z</time></trkpt><trkpt lat="43.777169663666164" lon="12.493685164243187"><ele>280.4</ele><time>2026-04-03T15:06:43Z</time></trkpt><trkpt lat="43.77707027844306" lon="12.493642456359778"><ele>276.2</ele><time>2026-04-03T15:06:44Z</time></trkpt><trkpt lat="43.77697001742925" lon="12.493600303937093"><ele>272.0</ele><time>2026-04-03T15:06:45Z</time></trkpt><trkpt lat="43.776892569747346" lon="12.493561676180262"><ele>272.0</ele><time>2026-04-03T15:06:46Z</time></trkpt><trkpt lat="43.77683121217621" lon="12.493525947450978"><ele>272.0</ele><time>2026-04-03T15:06:47Z</time></trkpt><trkpt lat="43.776779662762195" lon="12.493463489192125"><ele>272.0</ele><time>2026-04-03T15:06:48Z</time></trkpt><trkpt lat="43.776817428763515" lon="12.493337913309867"><ele>272.0</ele><time>2026-04-03T15:06:50Z</time></trkpt><trkpt lat="43.77690355948913" lon="12.493308366873968"><ele>272.0</ele><time>2026-04-03T15:06:51Z</time></trkpt><trkpt lat="43.777002088426464" lon="12.493350451753274"><ele>272.0</ele><time>2026-04-03T15:06:52Z</time></trkpt><trkpt lat="43.77712817419232" lon="12.493393582464497"><ele>272.0</ele><time>2026-04-03T15:06:53Z</time></trkpt><trkpt lat="43.777263023562504" lon="12.493429831000443"><ele>272.0</ele><time>2026-04-03T15:06:54Z</time></trkpt><trkpt lat="43.7774089404241" lon="12.49345854919314"><ele>272.0</ele><time>2026-04-03T15:06:55Z</time></trkpt><trkpt lat="43.77756669025232" lon="12.493467529946187"><ele>272.0</ele><time>2026-04-03T15:06:56Z</time></trkpt><trkpt lat="43.77772150902711" lon="12.493432740506671"><ele>269.6666666666667</ele><time>2026-04-03T15:06:57Z</time></trkpt><trkpt lat="43.77788321195965" lon="12.493369856948068"><ele>267.3333333333333</ele><time>2026-04-03T15:06:58Z</time></trkpt><trkpt lat="43.77805117218758" lon="12.493291774006199"><ele>265.0</ele><time>2026-04-03T15:06:59Z</time></trkpt><trkpt lat="43.778220938502535" lon="12.493219090703366"><ele>265.0</ele><time>2026-04-03T15:07:00Z</time></trkpt><trkpt lat="43.77838892893818" lon="12.49316476323488"><ele>265.0</ele><time>2026-04-03T15:07:01Z</time></trkpt><trkpt lat="43.77855571351102" lon="12.493124139452332"><ele>265.0</ele><time>2026-04-03T15:07:02Z</time></trkpt><trkpt lat="43.77872723454011" lon="12.493094832093112"><ele>262.66666666666663</ele><time>2026-04-03T15:07:03Z</time></trkpt><trkpt lat="43.7789055274553" lon="12.49306683155558"><ele>260.3333333333333</ele><time>2026-04-03T15:07:04Z</time></trkpt><trkpt lat="43.779087685839215" lon="12.493030046898529"><ele>258.0</ele><time>2026-04-03T15:07:05Z</time></trkpt><trkpt lat="43.779270445364475" lon="12.492996302998447"><ele>258.6666666666667</ele><time>2026-04-03T15:07:06Z</time></trkpt><trkpt lat="43.77944787882322" lon="12.49296294703442"><ele>259.33333333333337</ele><time>2026-04-03T15:07:07Z</time></trkpt><trkpt lat="43.7796235766291" lon="12.492934983599858"><ele>260.0</ele><time>2026-04-03T15:07:08Z</time></trkpt><trkpt lat="43.779793674336545" lon="12.492905141923385"><ele>251.66666666666669</ele><time>2026-04-03T15:07:09Z</time></trkpt><trkpt lat="43.77995940077166" lon="12.492875257202208"><ele>243.33333333333331</ele><time>2026-04-03T15:07:10Z</time></trkpt><trkpt lat="43.780121004760716" lon="12.492850383947406"><ele>235.0</ele><time>2026-04-03T15:07:11Z</time></trkpt><trkpt lat="43.78027670018074" lon="12.492835330230593"><ele>231.33333333333331</ele><time>2026-04-03T15:07:12Z</time></trkpt><trkpt lat="43.78042494676771" lon="12.492844675140853"><ele>227.66666666666669</ele><time>2026-04-03T15:07:13Z</time></trkpt><trkpt lat="43.780569258742716" lon="12.492902548217868"><ele>224.0</ele><time>2026-04-03T15:07:14Z</time></trkpt><trkpt lat="43.780718118372235" lon="12.492982828012035"><ele>232.33333333333334</ele><time>2026-04-03T15:07:15Z</time></trkpt><trkpt lat="43.78087795943488" lon="12.493063315154606"><ele>240.66666666666669</ele><time>2026-04-03T15:07:16Z</time></trkpt><trkpt lat="43.78104520315976" lon="12.493123721438797"><ele>249.0</ele><time>2026-04-03T15:07:17Z</time></trkpt><trkpt lat="43.781211264579504" lon="12.49315625753845"><ele>249.0</ele><time>2026-04-03T15:07:18Z</time></trkpt><trkpt lat="43.781370620156274" lon="12.493162736082812"><ele>249.0</ele><time>2026-04-03T15:07:19Z</time></trkpt><trkpt lat="43.781526166896356" lon="12.49312751059164"><ele>249.0</ele><time>2026-04-03T15:07:20Z</time></trkpt><trkpt lat="43.78167315197231" lon="12.493036405835458"><ele>241.66666666666669</ele><time>2026-04-03T15:07:21Z</time></trkpt><trkpt lat="43.78181306910621" lon="12.492916172265968"><ele>234.33333333333334</ele><time>2026-04-03T15:07:22Z</time></trkpt><trkpt lat="43.78194583376025" lon="12.492768320122448"><ele>227.0</ele><time>2026-04-03T15:07:23Z</time></trkpt><trkpt lat="43.782080416329116" lon="12.492621057248526"><ele>227.0</ele><time>2026-04-03T15:07:24Z</time></trkpt><trkpt lat="43.78221538953613" lon="12.492479145025712"><ele>227.0</ele><time>2026-04-03T15:07:25Z</time></trkpt><trkpt lat="43.78234642610486" lon="12.49234500887692"><ele>227.0</ele><time>2026-04-03T15:07:25.999Z</time></trkpt><trkpt lat="43.78247524418584" lon="12.492219761873264"><ele>227.0</ele><time>2026-04-03T15:07:26.999Z</time></trkpt><trkpt lat="43.78260169962604" lon="12.492094199719244"><ele>227.0</ele><time>2026-04-03T15:07:27.999Z</time></trkpt><trkpt lat="43.78271699236912" lon="12.491962121327186"><ele>227.0</ele><time>2026-04-03T15:07:28.999Z</time></trkpt><trkpt lat="43.78283019447817" lon="12.491825741481529"><ele>221.0</ele><time>2026-04-03T15:07:29.999Z</time></trkpt><trkpt lat="43.78294052870145" lon="12.491692504723083"><ele>215.0</ele><time>2026-04-03T15:07:30.999Z</time></trkpt><trkpt lat="43.7830530862096" lon="12.49154864409271"><ele>209.0</ele><time>2026-04-03T15:07:31.999Z</time></trkpt><trkpt lat="43.78316591644501" lon="12.491403658214121"><ele>207.33333333333334</ele><time>2026-04-03T15:07:32.999Z</time></trkpt><trkpt lat="43.78328224496596" lon="12.491252669233623"><ele>205.66666666666669</ele><time>2026-04-03T15:07:33.999Z</time></trkpt><trkpt lat="43.78340197395104" lon="12.491094916055077"><ele>204.0</ele><time>2026-04-03T15:07:34.999Z</time></trkpt><trkpt lat="43.78352403570044" lon="12.490935155242816"><ele>201.0</ele><time>2026-04-03T15:07:35.999Z</time></trkpt><trkpt lat="43.783641580322616" lon="12.49078329842509"><ele>198.0</ele><time>2026-04-03T15:07:36.999Z</time></trkpt><trkpt lat="43.78376170140583" lon="12.490628638405608"><ele>195.0</ele><time>2026-04-03T15:07:37.999Z</time></trkpt><trkpt lat="43.783884941382425" lon="12.490476424639812"><ele>198.0</ele><time>2026-04-03T15:07:38.999Z</time></trkpt><trkpt lat="43.784007826416534" lon="12.490319666189173"><ele>201.0</ele><time>2026-04-03T15:07:39.999Z</time></trkpt><trkpt lat="43.78412320993803" lon="12.490169493382963"><ele>204.0</ele><time>2026-04-03T15:07:40.999Z</time></trkpt><trkpt lat="43.784227974876394" lon="12.490034980215986"><ele>204.0</ele><time>2026-04-03T15:07:41.999Z</time></trkpt><trkpt lat="43.78433749123831" lon="12.489951281261035"><ele>204.0</ele><time>2026-04-03T15:07:42.999Z</time></trkpt><trkpt lat="43.78445270154546" lon="12.489921703795003"><ele>204.0</ele><time>2026-04-03T15:07:43.999Z</time></trkpt><trkpt lat="43.78456799971506" lon="12.489929305209431"><ele>204.0</ele><time>2026-04-03T15:07:44.999Z</time></trkpt><trkpt lat="43.78468077882232" lon="12.48994607436625"><ele>206.25</ele><time>2026-04-03T15:07:45.999Z</time></trkpt><trkpt lat="43.78479450092113" lon="12.489964892440975"><ele>208.5</ele><time>2026-04-03T15:07:46.999Z</time></trkpt><trkpt lat="43.78490848185045" lon="12.489977365681913"><ele>210.75</ele><time>2026-04-03T15:07:47.999Z</time></trkpt><trkpt lat="43.785021843974455" lon="12.489992524552934"><ele>213.0</ele><time>2026-04-03T15:07:48.999Z</time></trkpt><trkpt lat="43.78514209573167" lon="12.490009094847997"><ele>215.75</ele><time>2026-04-03T15:07:49.999Z</time></trkpt><trkpt lat="43.785262771216026" lon="12.49002904954643"><ele>218.5</ele><time>2026-04-03T15:07:50.999Z</time></trkpt><trkpt lat="43.78538489824112" lon="12.490056486805786"><ele>221.25</ele><time>2026-04-03T15:07:51.999Z</time></trkpt><trkpt lat="43.78551259638076" lon="12.490091338614103"><ele>224.0</ele><time>2026-04-03T15:07:52.999Z</time></trkpt><trkpt lat="43.78563828647685" lon="12.490131088227077"><ele>224.0</ele><time>2026-04-03T15:07:53.999Z</time></trkpt><trkpt lat="43.785765177835216" lon="12.49017438073389"><ele>223.99999999999997</ele><time>2026-04-03T15:07:54.999Z</time></trkpt><trkpt lat="43.78587692979605" lon="12.490214974176643"><ele>223.99999999999997</ele><time>2026-04-03T15:07:55.999Z</time></trkpt><trkpt lat="43.78597468569929" lon="12.490222094436465"><ele>224.0</ele><time>2026-04-03T15:07:56.999Z</time></trkpt><trkpt lat="43.786074175273015" lon="12.490209862121487"><ele>224.0</ele><time>2026-04-03T15:07:57.999Z</time></trkpt><trkpt lat="43.786175703751276" lon="12.490175705561777"><ele>224.39999999999998</ele><time>2026-04-03T15:07:58.999Z</time></trkpt><trkpt lat="43.78628027859776" lon="12.490136504321423"><ele>224.79999999999998</ele><time>2026-04-03T15:07:59.999Z</time></trkpt><trkpt lat="43.78637952769859" lon="12.490098203501425"><ele>225.20000000000002</ele><time>2026-04-03T15:08:00.999Z</time></trkpt><trkpt lat="43.78647028760531" lon="12.490066783439179"><ele>225.60000000000002</ele><time>2026-04-03T15:08:01.999Z</time></trkpt><trkpt lat="43.78656193557199" lon="12.49006178534841"><ele>226.0</ele><time>2026-04-03T15:08:02.999Z</time></trkpt><trkpt lat="43.786654923502056" lon="12.490102616063572"><ele>226.0</ele><time>2026-04-03T15:08:03.999Z</time></trkpt><trkpt lat="43.7867364289146" lon="12.490183862665853"><ele>226.00000000000003</ele><time>2026-04-03T15:08:04.999Z</time></trkpt><trkpt lat="43.78680741954202" lon="12.490281350420702"><ele>226.00000000000003</ele><time>2026-04-03T15:08:05.999Z</time></trkpt><trkpt lat="43.78688857622938" lon="12.490387526310737"><ele>226.0</ele><time>2026-04-03T15:08:06.999Z</time></trkpt><trkpt lat="43.78697481314476" lon="12.4904965204154"><ele>226.0</ele><time>2026-04-03T15:08:07.999Z</time></trkpt><trkpt lat="43.78705525523896" lon="12.490590766152343"><ele>225.60000000000002</ele><time>2026-04-03T15:08:08.999Z</time></trkpt><trkpt lat="43.78712247424121" lon="12.490663956451053"><ele>225.20000000000002</ele><time>2026-04-03T15:08:09.999Z</time></trkpt><trkpt lat="43.78718775225076" lon="12.490738229473877"><ele>224.79999999999998</ele><time>2026-04-03T15:08:10.999Z</time></trkpt><trkpt lat="43.787266061430635" lon="12.49078847573341"><ele>224.39999999999998</ele><time>2026-04-03T15:08:11.999Z</time></trkpt><trkpt lat="43.78734385286766" lon="12.490873641820205"><ele>224.0</ele><time>2026-04-03T15:08:12.999Z</time></trkpt><trkpt lat="43.7874436427464" lon="12.4909121387041"><ele>224.0</ele><time>2026-04-03T15:08:13.999Z</time></trkpt><trkpt lat="43.78755271087921" lon="12.490916135364651"><ele>223.99999999999997</ele><time>2026-04-03T15:08:14.999Z</time></trkpt><trkpt lat="43.7876623879422" lon="12.490917869314158"><ele>223.99999999999997</ele><time>2026-04-03T15:08:15.999Z</time></trkpt><trkpt lat="43.78776229625012" lon="12.490951871177941"><ele>224.0</ele><time>2026-04-03T15:08:16.999Z</time></trkpt><trkpt lat="43.78785408309147" lon="12.491036763451696"><ele>224.0</ele><time>2026-04-03T15:08:17.999Z</time></trkpt><trkpt lat="43.78794888630127" lon="12.4911383740837"><ele>224.5</ele><time>2026-04-03T15:08:18.999Z</time></trkpt><trkpt lat="43.78805623204438" lon="12.491229149991208"><ele>225.0</ele><time>2026-04-03T15:08:19.999Z</time></trkpt><trkpt lat="43.78816493729525" lon="12.491305181951152"><ele>225.5</ele><time>2026-04-03T15:08:20.999Z</time></trkpt><trkpt lat="43.78826708143744" lon="12.491366789396116"><ele>226.0</ele><time>2026-04-03T15:08:21.999Z</time></trkpt><trkpt lat="43.788372698999225" lon="12.491423286053482"><ele>226.0</ele><time>2026-04-03T15:08:22.999Z</time></trkpt><trkpt lat="43.78847475585901" lon="12.491475328142743"><ele>226.00000000000003</ele><time>2026-04-03T15:08:23.999Z</time></trkpt><trkpt lat="43.78857025858974" lon="12.491531046616444"><ele>226.00000000000003</ele><time>2026-04-03T15:08:24.999Z</time></trkpt><trkpt lat="43.788656696596384" lon="12.491577418825184"><ele>226.0</ele><time>2026-04-03T15:08:25.999Z</time></trkpt><trkpt lat="43.78873647235326" lon="12.491619186356935"><ele>226.0</ele><time>2026-04-03T15:08:26.999Z</time></trkpt><trkpt lat="43.788815124817646" lon="12.491662295770292"><ele>226.0</ele><time>2026-04-03T15:08:27.999Z</time></trkpt><trkpt lat="43.78891744613337" lon="12.491705902232715"><ele>226.0</ele><time>2026-04-03T15:08:28.999Z</time></trkpt><trkpt lat="43.78903690333682" lon="12.491757042283421"><ele>226.0</ele><time>2026-04-03T15:08:29.999Z</time></trkpt><trkpt lat="43.78917153261768" lon="12.491805969751601"><ele>226.0</ele><time>2026-04-03T15:08:30.999Z</time></trkpt><trkpt lat="43.789319304074425" lon="12.491841064089854"><ele>225.5</ele><time>2026-04-03T15:08:31.999Z</time></trkpt><trkpt lat="43.78945678349552" lon="12.49186408266697"><ele>225.0</ele><time>2026-04-03T15:08:32.999Z</time></trkpt><trkpt lat="43.78959102813965" lon="12.491890392903645"><ele>224.5</ele><time>2026-04-03T15:08:33.999Z</time></trkpt><trkpt lat="43.7897284487059" lon="12.49191863845235"><ele>224.0</ele><time>2026-04-03T15:08:34.999Z</time></trkpt><trkpt lat="43.7898704117752" lon="12.491943769110716"><ele>224.0</ele><time>2026-04-03T15:08:35.999Z</time></trkpt><trkpt lat="43.79001204640856" lon="12.491969812346538"><ele>224.0</ele><time>2026-04-03T15:08:36.999Z</time></trkpt><trkpt lat="43.79015896090321" lon="12.491996602550929"><ele>224.0</ele><time>2026-04-03T15:08:37.999Z</time></trkpt><trkpt lat="43.79030522604221" lon="12.492027309365492"><ele>224.0</ele><time>2026-04-03T15:08:38.999Z</time></trkpt><trkpt lat="43.790458118069104" lon="12.492053957961637"><ele>223.33333333333334</ele><time>2026-04-03T15:08:39.999Z</time></trkpt><trkpt lat="43.7906143289083" lon="12.492081701860306"><ele>222.66666666666669</ele><time>2026-04-03T15:08:41Z</time></trkpt><trkpt lat="43.79077158065638" lon="12.492110272070061"><ele>222.0</ele><time>2026-04-03T15:08:42Z</time></trkpt><trkpt lat="43.79093295007362" lon="12.49214023254873"><ele>221.33333333333331</ele><time>2026-04-03T15:08:43Z</time></trkpt><trkpt lat="43.79109869415406" lon="12.492171747019828"><ele>220.66666666666666</ele><time>2026-04-03T15:08:44Z</time></trkpt><trkpt lat="43.79126567471467" lon="12.492202929458715"><ele>220.0</ele><time>2026-04-03T15:08:45Z</time></trkpt><trkpt lat="43.79143111430344" lon="12.492234623290932"><ele>220.0</ele><time>2026-04-03T15:08:46Z</time></trkpt><trkpt lat="43.79159006238654" lon="12.492264977493692"><ele>220.0</ele><time>2026-04-03T15:08:47Z</time></trkpt><trkpt lat="43.79174586046911" lon="12.492293386131605"><ele>220.0</ele><time>2026-04-03T15:08:48Z</time></trkpt><trkpt lat="43.791908818594386" lon="12.492323529534639"><ele>219.66666666666666</ele><time>2026-04-03T15:08:49Z</time></trkpt><trkpt lat="43.79207408090011" lon="12.492351244752927"><ele>219.33333333333331</ele><time>2026-04-03T15:08:50Z</time></trkpt><trkpt lat="43.79224125528925" lon="12.492375551983214"><ele>219.0</ele><time>2026-04-03T15:08:51Z</time></trkpt><trkpt lat="43.79241250434762" lon="12.492402625099714"><ele>219.0</ele><time>2026-04-03T15:08:52Z</time></trkpt><trkpt lat="43.792587407486295" lon="12.492432422436995"><ele>219.0</ele><time>2026-04-03T15:08:53Z</time></trkpt><trkpt lat="43.7927646133961" lon="12.492463032559442"><ele>219.0</ele><time>2026-04-03T15:08:54Z</time></trkpt><trkpt lat="43.79294312902459" lon="12.492493282713573"><ele>217.66666666666669</ele><time>2026-04-03T15:08:55Z</time></trkpt><trkpt lat="43.79311995402365" lon="12.492525603070119"><ele>216.33333333333334</ele><time>2026-04-03T15:08:56Z</time></trkpt><trkpt lat="43.793297114347205" lon="12.492557379755635"><ele>215.0</ele><time>2026-04-03T15:08:57Z</time></trkpt><trkpt lat="43.79347567910776" lon="12.492587131557048"><ele>213.66666666666669</ele><time>2026-04-03T15:08:58Z</time></trkpt><trkpt lat="43.79365599564845" lon="12.49262008895774"><ele>212.33333333333331</ele><time>2026-04-03T15:08:59Z</time></trkpt><trkpt lat="43.793836452993695" lon="12.492651584751469"><ele>211.0</ele><time>2026-04-03T15:09:00Z</time></trkpt><trkpt lat="43.79401923801371" lon="12.492685583549253"><ele>211.0</ele><time>2026-04-03T15:09:01Z</time></trkpt><trkpt lat="43.794202507877486" lon="12.492716196661577"><ele>211.0</ele><time>2026-04-03T15:09:02Z</time></trkpt><trkpt lat="43.79438429416006" lon="12.492745923620658"><ele>211.0</ele><time>2026-04-03T15:09:03Z</time></trkpt><trkpt lat="43.794563701048325" lon="12.4927760574761"><ele>211.0</ele><time>2026-04-03T15:09:04Z</time></trkpt><trkpt lat="43.794738395888295" lon="12.49280759003822"><ele>211.0</ele><time>2026-04-03T15:09:05Z</time></trkpt><trkpt lat="43.7949098963451" lon="12.492836108321695"><ele>211.0</ele><time>2026-04-03T15:09:06Z</time></trkpt><trkpt lat="43.79507813186566" lon="12.492863116796098"><ele>209.66666666666666</ele><time>2026-04-03T15:09:07Z</time></trkpt><trkpt lat="43.79524305637686" lon="12.492892217757692"><ele>208.33333333333331</ele><time>2026-04-03T15:09:08Z</time></trkpt><trkpt lat="43.795404666715086" lon="12.492919230858917"><ele>207.0</ele><time>2026-04-03T15:09:09Z</time></trkpt><trkpt lat="43.79556708398496" lon="12.492948657992669"><ele>207.0</ele><time>2026-04-03T15:09:10Z</time></trkpt><trkpt lat="43.79572807413456" lon="12.492992080130236"><ele>207.0</ele><time>2026-04-03T15:09:11Z</time></trkpt><trkpt lat="43.79588818766327" lon="12.493050623538673"><ele>207.0</ele><time>2026-04-03T15:09:12Z</time></trkpt><trkpt lat="43.796045455683924" lon="12.493129979496606"><ele>207.33333333333331</ele><time>2026-04-03T15:09:13Z</time></trkpt><trkpt lat="43.79620307531662" lon="12.493218901543246"><ele>207.66666666666666</ele><time>2026-04-03T15:09:14Z</time></trkpt><trkpt lat="43.79636131968187" lon="12.493308705691236"><ele>208.0</ele><time>2026-04-03T15:09:15Z</time></trkpt><trkpt lat="43.796522004621075" lon="12.493403062519231"><ele>208.0</ele><time>2026-04-03T15:09:16Z</time></trkpt><trkpt lat="43.79667335039307" lon="12.49349238432943"><ele>208.0</ele><time>2026-04-03T15:09:17Z</time></trkpt><trkpt lat="43.79682937375224" lon="12.49357278522729"><ele>208.0</ele><time>2026-04-03T15:09:18Z</time></trkpt><trkpt lat="43.79697116910861" lon="12.493624012084311"><ele>207.33333333333331</ele><time>2026-04-03T15:09:19Z</time></trkpt><trkpt lat="43.797134265956274" lon="12.493609740087201"><ele>206.66666666666669</ele><time>2026-04-03T15:09:20Z</time></trkpt><trkpt lat="43.79729865267982" lon="12.493560482515505"><ele>206.0</ele><time>2026-04-03T15:09:21Z</time></trkpt><trkpt lat="43.797467573778114" lon="12.493521816799579"><ele>206.0</ele><time>2026-04-03T15:09:22Z</time></trkpt><trkpt lat="43.79764452707258" lon="12.493534688719494"><ele>206.0</ele><time>2026-04-03T15:09:23Z</time></trkpt><trkpt lat="43.7978162809811" lon="12.493590390050704"><ele>206.0</ele><time>2026-04-03T15:09:24Z</time></trkpt><trkpt lat="43.79797213178884" lon="12.493677947603185"><ele>203.0</ele><time>2026-04-03T15:09:25Z</time></trkpt><trkpt lat="43.79811742461679" lon="12.493784837691598"><ele>200.0</ele><time>2026-04-03T15:09:26Z</time></trkpt><trkpt lat="43.79824565991225" lon="12.493927099366202"><ele>197.0</ele><time>2026-04-03T15:09:27Z</time></trkpt><trkpt lat="43.79835932508447" lon="12.494095110531962"><ele>197.0</ele><time>2026-04-03T15:09:28Z</time></trkpt><trkpt lat="43.798449787088934" lon="12.494291017738815"><ele>197.0</ele><time>2026-04-03T15:09:29Z</time></trkpt><trkpt lat="43.798520150786004" lon="12.494501611665658"><ele>197.0</ele><time>2026-04-03T15:09:30Z</time></trkpt><trkpt lat="43.79856477049987" lon="12.494706864695381"><ele>198.25</ele><time>2026-04-03T15:09:31Z</time></trkpt><trkpt lat="43.79860409486725" lon="12.494901787158932"><ele>199.5</ele><time>2026-04-03T15:09:32Z</time></trkpt><trkpt lat="43.79865626756939" lon="12.495079288218015"><ele>200.75</ele><time>2026-04-03T15:09:33Z</time></trkpt><trkpt lat="43.79873175229221" lon="12.495238293849003"><ele>202.0</ele><time>2026-04-03T15:09:34Z</time></trkpt><trkpt lat="43.7988290867097" lon="12.495384261871648"><ele>200.33333333333331</ele><time>2026-04-03T15:09:35Z</time></trkpt><trkpt lat="43.79894171772389" lon="12.495518785744196"><ele>198.66666666666669</ele><time>2026-04-03T15:09:36Z</time></trkpt><trkpt lat="43.79906534367951" lon="12.495640239562888"><ele>197.0</ele><time>2026-04-03T15:09:36.999Z</time></trkpt><trkpt lat="43.79919383558061" lon="12.495762238530231"><ele>197.0</ele><time>2026-04-03T15:09:37.999Z</time></trkpt><trkpt lat="43.799327368535806" lon="12.49588116426904"><ele>197.0</ele><time>2026-04-03T15:09:38.999Z</time></trkpt><trkpt lat="43.79946202361867" lon="12.495998545537079"><ele>197.0</ele><time>2026-04-03T15:09:39.999Z</time></trkpt><trkpt lat="43.79959782980305" lon="12.496115246482821"><ele>197.66666666666669</ele><time>2026-04-03T15:09:40.999Z</time></trkpt><trkpt lat="43.79973098690611" lon="12.496231265505614"><ele>198.33333333333331</ele><time>2026-04-03T15:09:41.999Z</time></trkpt><trkpt lat="43.79986025688385" lon="12.496341482711722"><ele>199.0</ele><time>2026-04-03T15:09:42.999Z</time></trkpt><trkpt lat="43.79998680189782" lon="12.496449499859354"><ele>199.0</ele><time>2026-04-03T15:09:43.999Z</time></trkpt><trkpt lat="43.80011098980642" lon="12.496557803415065"><ele>199.0</ele><time>2026-04-03T15:09:44.999Z</time></trkpt><trkpt lat="43.800234898150194" lon="12.49667220033374"><ele>199.0</ele><time>2026-04-03T15:09:45.999Z</time></trkpt><trkpt lat="43.800355551769144" lon="12.496777150945817"><ele>199.0</ele><time>2026-04-03T15:09:46.999Z</time></trkpt><trkpt lat="43.80047786181243" lon="12.496882561380444"><ele>199.0</ele><time>2026-04-03T15:09:47.999Z</time></trkpt><trkpt lat="43.80060938103605" lon="12.496998973487718"><ele>199.0</ele><time>2026-04-03T15:09:48.999Z</time></trkpt><trkpt lat="43.80074936918829" lon="12.497123915462698"><ele>199.0</ele><time>2026-04-03T15:09:49.999Z</time></trkpt><trkpt lat="43.80089453597451" lon="12.497251801071945"><ele>199.0</ele><time>2026-04-03T15:09:50.999Z</time></trkpt><trkpt lat="43.80104448817349" lon="12.49738224973852"><ele>199.0</ele><time>2026-04-03T15:09:51.999Z</time></trkpt><trkpt lat="43.80119900115196" lon="12.49751527445022"><ele>199.0</ele><time>2026-04-03T15:09:52.999Z</time></trkpt><trkpt lat="43.801357376269735" lon="12.497651949331432"><ele>199.0</ele><time>2026-04-03T15:09:53.999Z</time></trkpt><trkpt lat="43.801518088863936" lon="12.497794316041242"><ele>199.0</ele><time>2026-04-03T15:09:54.999Z</time></trkpt><trkpt lat="43.80168319535677" lon="12.497937621696627"><ele>199.0</ele><time>2026-04-03T15:09:55.999Z</time></trkpt><trkpt lat="43.80185253984594" lon="12.498084295082352"><ele>197.0</ele><time>2026-04-03T15:09:56.999Z</time></trkpt><trkpt lat="43.802018536531065" lon="12.498228299457004"><ele>195.0</ele><time>2026-04-03T15:09:57.999Z</time></trkpt><trkpt lat="43.802174771908746" lon="12.498365669582483"><ele>193.0</ele><time>2026-04-03T15:09:58.999Z</time></trkpt><trkpt lat="43.802323535112045" lon="12.498497281351547"><ele>193.0</ele><time>2026-04-03T15:09:59.999Z</time></trkpt><trkpt lat="43.80246647613439" lon="12.498627517165179"><ele>193.0</ele><time>2026-04-03T15:10:00.999Z</time></trkpt><trkpt lat="43.802609862807024" lon="12.498754770373601"><ele>193.0</ele><time>2026-04-03T15:10:01.999Z</time></trkpt><trkpt lat="43.802753057241" lon="12.498876303396568"><ele>193.33333333333331</ele><time>2026-04-03T15:10:02.999Z</time></trkpt><trkpt lat="43.802896534676364" lon="12.499002723584438"><ele>193.66666666666669</ele><time>2026-04-03T15:10:03.999Z</time></trkpt><trkpt lat="43.80304830951219" lon="12.499140871130928"><ele>194.0</ele><time>2026-04-03T15:10:04.999Z</time></trkpt><trkpt lat="43.80320579357806" lon="12.49928523900397"><ele>194.0</ele><time>2026-04-03T15:10:05.999Z</time></trkpt><trkpt lat="43.803368366580926" lon="12.499428739533869"><ele>194.0</ele><time>2026-04-03T15:10:06.999Z</time></trkpt><trkpt lat="43.80353263385914" lon="12.499575256821078"><ele>194.0</ele><time>2026-04-03T15:10:07.999Z</time></trkpt><trkpt lat="43.80369762512333" lon="12.499721133464186"><ele>192.33333333333334</ele><time>2026-04-03T15:10:08.999Z</time></trkpt><trkpt lat="43.80385594504677" lon="12.49986144416493"><ele>190.66666666666669</ele><time>2026-04-03T15:10:09.999Z</time></trkpt><trkpt lat="43.80400817954069" lon="12.499997505705215"><ele>189.0</ele><time>2026-04-03T15:10:10.999Z</time></trkpt><trkpt lat="43.804158219953756" lon="12.50012133127813"><ele>189.0</ele><time>2026-04-03T15:10:11.999Z</time></trkpt><trkpt lat="43.80430706368566" lon="12.500226996944969"><ele>189.0</ele><time>2026-04-03T15:10:12.999Z</time></trkpt><trkpt lat="43.8044566444184" lon="12.500322452233485"><ele>189.0</ele><time>2026-04-03T15:10:13.999Z</time></trkpt><trkpt lat="43.80461247151209" lon="12.500404528091538"><ele>186.66666666666666</ele><time>2026-04-03T15:10:14.999Z</time></trkpt><trkpt lat="43.80477060854287" lon="12.500479235798553"><ele>184.33333333333331</ele><time>2026-04-03T15:10:15.999Z</time></trkpt><trkpt lat="43.804931346751744" lon="12.500553053123472"><ele>182.0</ele><time>2026-04-03T15:10:16.999Z</time></trkpt><trkpt lat="43.805095503909655" lon="12.500626209489287"><ele>183.33333333333331</ele><time>2026-04-03T15:10:17.999Z</time></trkpt><trkpt lat="43.80526300761024" lon="12.500700899243732"><ele>184.66666666666666</ele><time>2026-04-03T15:10:18.999Z</time></trkpt><trkpt lat="43.8054324805442" lon="12.500768990667522"><ele>186.0</ele><time>2026-04-03T15:10:19.999Z</time></trkpt><trkpt lat="43.80560727901548" lon="12.500826443654333"><ele>186.0</ele><time>2026-04-03T15:10:20.999Z</time></trkpt><trkpt lat="43.80578774599778" lon="12.500867607792609"><ele>186.0</ele><time>2026-04-03T15:10:21.999Z</time></trkpt><trkpt lat="43.805969825994296" lon="12.500893470926718"><ele>186.0</ele><time>2026-04-03T15:10:22.999Z</time></trkpt><trkpt lat="43.806154329206414" lon="12.500904111573774"><ele>187.33333333333334</ele><time>2026-04-03T15:10:23.999Z</time></trkpt><trkpt lat="43.806341832491974" lon="12.500905470205163"><ele>188.66666666666669</ele><time>2026-04-03T15:10:24.999Z</time></trkpt><trkpt lat="43.8065310836133" lon="12.500908467615105"><ele>190.0</ele><time>2026-04-03T15:10:25.999Z</time></trkpt><trkpt lat="43.80671568478589" lon="12.500918235970742"><ele>192.66666666666669</ele><time>2026-04-03T15:10:26.999Z</time></trkpt><trkpt lat="43.8068910921964" lon="12.500945197003311"><ele>195.33333333333334</ele><time>2026-04-03T15:10:27.999Z</time></trkpt><trkpt lat="43.80706285804503" lon="12.500997598625101"><ele>198.0</ele><time>2026-04-03T15:10:28.999Z</time></trkpt><trkpt lat="43.80722935969035" lon="12.50107844555322"><ele>198.0</ele><time>2026-04-03T15:10:29.999Z</time></trkpt><trkpt lat="43.8073946789188" lon="12.501184458642534"><ele>198.0</ele><time>2026-04-03T15:10:30.999Z</time></trkpt><trkpt lat="43.80755638634858" lon="12.501311703620486"><ele>198.0</ele><time>2026-04-03T15:10:31.999Z</time></trkpt><trkpt lat="43.807712364316494" lon="12.501461906149373"><ele>195.66666666666666</ele><time>2026-04-03T15:10:32.999Z</time></trkpt><trkpt lat="43.80786069530639" lon="12.501633182498718"><ele>193.33333333333331</ele><time>2026-04-03T15:10:33.999Z</time></trkpt><trkpt lat="43.80800284804578" lon="12.501822853596897"><ele>191.0</ele><time>2026-04-03T15:10:34.999Z</time></trkpt><trkpt lat="43.80814183966003" lon="12.502012162644617"><ele>188.33333333333331</ele><time>2026-04-03T15:10:35.999Z</time></trkpt><trkpt lat="43.80827566495934" lon="12.502193986196483"><ele>185.66666666666666</ele><time>2026-04-03T15:10:36.999Z</time></trkpt><trkpt lat="43.8084007809871" lon="12.502367050412929"><ele>183.0</ele><time>2026-04-03T15:10:37.999Z</time></trkpt><trkpt lat="43.80851556640167" lon="12.502539027639502"><ele>188.0</ele><time>2026-04-03T15:10:38.999Z</time></trkpt><trkpt lat="43.808616981645415" lon="12.502714656619911"><ele>193.0</ele><time>2026-04-03T15:10:39.999Z</time></trkpt><trkpt lat="43.80870483028868" lon="12.502893800893556"><ele>198.0</ele><time>2026-04-03T15:10:40.999Z</time></trkpt><trkpt lat="43.80875772355134" lon="12.503104092460385"><ele>198.0</ele><time>2026-04-03T15:10:41.999Z</time></trkpt><trkpt lat="43.80878475826037" lon="12.503335499584354"><ele>198.0</ele><time>2026-04-03T15:10:42.999Z</time></trkpt><trkpt lat="43.80877168869627" lon="12.50357864489535"><ele>198.0</ele><time>2026-04-03T15:10:43.999Z</time></trkpt><trkpt lat="43.808777234005866" lon="12.503828170347038"><ele>198.0</ele><time>2026-04-03T15:10:44.999Z</time></trkpt><trkpt lat="43.80876398929996" lon="12.504077177763525"><ele>198.0</ele><time>2026-04-03T15:10:45.999Z</time></trkpt><trkpt lat="43.808755326693316" lon="12.504323049570534"><ele>198.0</ele><time>2026-04-03T15:10:47Z</time></trkpt><trkpt lat="43.80874970103287" lon="12.504572868183828"><ele>197.0</ele><time>2026-04-03T15:10:48Z</time></trkpt><trkpt lat="43.80874427632741" lon="12.504826961269805"><ele>196.0</ele><time>2026-04-03T15:10:49Z</time></trkpt><trkpt lat="43.80873619359335" lon="12.505091078645245"><ele>195.0</ele><time>2026-04-03T15:10:50Z</time></trkpt><trkpt lat="43.80872939022433" lon="12.505360119942921"><ele>193.66666666666666</ele><time>2026-04-03T15:10:51Z</time></trkpt><trkpt lat="43.80872075452578" lon="12.505632535066319"><ele>192.33333333333331</ele><time>2026-04-03T15:10:52Z</time></trkpt><trkpt lat="43.80870996990556" lon="12.50591037763533"><ele>191.0</ele><time>2026-04-03T15:10:53Z</time></trkpt><trkpt lat="43.80870128053684" lon="12.506190926803068"><ele>191.33333333333331</ele><time>2026-04-03T15:10:54Z</time></trkpt><trkpt lat="43.80869273547495" lon="12.506469255340098"><ele>191.66666666666666</ele><time>2026-04-03T15:10:55Z</time></trkpt><trkpt lat="43.808685175360566" lon="12.50673883910252"><ele>192.0</ele><time>2026-04-03T15:10:56Z</time></trkpt><trkpt lat="43.80867721204839" lon="12.507003695873935"><ele>192.33333333333331</ele><time>2026-04-03T15:10:57Z</time></trkpt><trkpt lat="43.808668257162005" lon="12.507261602859725"><ele>192.66666666666666</ele><time>2026-04-03T15:10:58Z</time></trkpt><trkpt lat="43.808656565645485" lon="12.507512114947604"><ele>193.0</ele><time>2026-04-03T15:10:59Z</time></trkpt><trkpt lat="43.808649593170614" lon="12.507743196023139"><ele>191.0</ele><time>2026-04-03T15:11:00Z</time></trkpt><trkpt lat="43.808645131343326" lon="12.507968688663036"><ele>189.0</ele><time>2026-04-03T15:11:01Z</time></trkpt><trkpt lat="43.8086577505546" lon="12.508196523174478"><ele>187.0</ele><time>2026-04-03T15:11:02Z</time></trkpt><trkpt lat="43.80870364043599" lon="12.508426344289152"><ele>187.0</ele><time>2026-04-03T15:11:03Z</time></trkpt><trkpt lat="43.808778225698106" lon="12.508643289398982"><ele>187.0</ele><time>2026-04-03T15:11:04Z</time></trkpt><trkpt lat="43.80887114033136" lon="12.508836220864458"><ele>187.0</ele><time>2026-04-03T15:11:05Z</time></trkpt><trkpt lat="43.80898598285283" lon="12.50900960175872"><ele>187.0</ele><time>2026-04-03T15:11:06Z</time></trkpt><trkpt lat="43.8091243089561" lon="12.509160197452129"><ele>187.0</ele><time>2026-04-03T15:11:07Z</time></trkpt><trkpt lat="43.809276366456025" lon="12.509301756281571"><ele>187.0</ele><time>2026-04-03T15:11:08Z</time></trkpt><trkpt lat="43.80943330074766" lon="12.509442143267886"><ele>183.33333333333334</ele><time>2026-04-03T15:11:09Z</time></trkpt><trkpt lat="43.809588167556754" lon="12.509577005220507"><ele>179.66666666666666</ele><time>2026-04-03T15:11:10Z</time></trkpt><trkpt lat="43.80974032323359" lon="12.509708422548021"><ele>176.0</ele><time>2026-04-03T15:11:11Z</time></trkpt><trkpt lat="43.80989287060661" lon="12.50984321330211"><ele>176.0</ele><time>2026-04-03T15:11:12Z</time></trkpt><trkpt lat="43.81004600436341" lon="12.509977141071097"><ele>176.0</ele><time>2026-04-03T15:11:13Z</time></trkpt><trkpt lat="43.81020087827979" lon="12.510113195139784"><ele>176.0</ele><time>2026-04-03T15:11:14Z</time></trkpt><trkpt lat="43.81035708969038" lon="12.51025001079743"><ele>175.0</ele><time>2026-04-03T15:11:15Z</time></trkpt><trkpt lat="43.810514987789134" lon="12.510390573871044"><ele>174.0</ele><time>2026-04-03T15:11:16Z</time></trkpt><trkpt lat="43.81067339493839" lon="12.510528658916437"><ele>173.0</ele><time>2026-04-03T15:11:17Z</time></trkpt><trkpt lat="43.810835793772725" lon="12.510661425059297"><ele>173.33333333333331</ele><time>2026-04-03T15:11:18Z</time></trkpt><trkpt lat="43.81100438739915" lon="12.510780656878"><ele>173.66666666666666</ele><time>2026-04-03T15:11:19Z</time></trkpt><trkpt lat="43.81117462519032" lon="12.510882799215613"><ele>174.0</ele><time>2026-04-03T15:11:20Z</time></trkpt><trkpt lat="43.81135004417523" lon="12.510968128425933"><ele>174.0</ele><time>2026-04-03T15:11:21Z</time></trkpt><trkpt lat="43.81152639824641" lon="12.511032718452908"><ele>174.0</ele><time>2026-04-03T15:11:22Z</time></trkpt><trkpt lat="43.8117032523781" lon="12.511097814436575"><ele>174.0</ele><time>2026-04-03T15:11:23Z</time></trkpt><trkpt lat="43.81188008431616" lon="12.511154594131622"><ele>173.66666666666666</ele><time>2026-04-03T15:11:24Z</time></trkpt><trkpt lat="43.81205689373913" lon="12.511215148640673"><ele>173.33333333333331</ele><time>2026-04-03T15:11:25Z</time></trkpt><trkpt lat="43.81223272107234" lon="12.511280244200615"><ele>173.0</ele><time>2026-04-03T15:11:26Z</time></trkpt><trkpt lat="43.81240613896326" lon="12.51135737771105"><ele>172.0</ele><time>2026-04-03T15:11:27Z</time></trkpt><trkpt lat="43.8125719990244" lon="12.511464683121583"><ele>171.0</ele><time>2026-04-03T15:11:28Z</time></trkpt><trkpt lat="43.812719029072085" lon="12.511604291170292"><ele>170.0</ele><time>2026-04-03T15:11:29Z</time></trkpt><trkpt lat="43.81284553530241" lon="12.511765723777193"><ele>171.66666666666666</ele><time>2026-04-03T15:11:30Z</time></trkpt><trkpt lat="43.81296544914771" lon="12.511944753953482"><ele>173.33333333333334</ele><time>2026-04-03T15:11:31Z</time></trkpt><trkpt lat="43.8130654970911" lon="12.512155490558648"><ele>175.0</ele><time>2026-04-03T15:11:32Z</time></trkpt><trkpt lat="43.813147711713874" lon="12.512396191444621"><ele>175.0</ele><time>2026-04-03T15:11:33Z</time></trkpt><trkpt lat="43.8132174029813" lon="12.512659409626096"><ele>175.0</ele><time>2026-04-03T15:11:34Z</time></trkpt><trkpt lat="43.813279430594775" lon="12.512938413399388"><ele>175.0</ele><time>2026-04-03T15:11:35Z</time></trkpt><trkpt lat="43.813336646232294" lon="12.513224393158792"><ele>173.66666666666669</ele><time>2026-04-03T15:11:36Z</time></trkpt><trkpt lat="43.81339755250946" lon="12.513501827841656"><ele>172.33333333333334</ele><time>2026-04-03T15:11:37Z</time></trkpt><trkpt lat="43.81346014839199" lon="12.513768077124526"><ele>171.0</ele><time>2026-04-03T15:11:38Z</time></trkpt><trkpt lat="43.81352068341984" lon="12.514032359495777"><ele>174.66666666666666</ele><time>2026-04-03T15:11:39Z</time></trkpt><trkpt lat="43.813582315810294" lon="12.514298555029558"><ele>178.33333333333331</ele><time>2026-04-03T15:11:39.999Z</time></trkpt><trkpt lat="43.81364628398226" lon="12.51455794911993"><ele>182.0</ele><time>2026-04-03T15:11:40.999Z</time></trkpt><trkpt lat="43.81370802605013" lon="12.514817945588245"><ele>182.0</ele><time>2026-04-03T15:11:41.999Z</time></trkpt><trkpt lat="43.81376720347319" lon="12.515075567552884"><ele>182.0</ele><time>2026-04-03T15:11:42.999Z</time></trkpt><trkpt lat="43.813824660877884" lon="12.515327334888456"><ele>182.0</ele><time>2026-04-03T15:11:43.999Z</time></trkpt><trkpt lat="43.813878621866266" lon="12.515574364159084"><ele>181.0</ele><time>2026-04-03T15:11:44.999Z</time></trkpt><trkpt lat="43.81393348760868" lon="12.515818956382994"><ele>180.0</ele><time>2026-04-03T15:11:45.999Z</time></trkpt><trkpt lat="43.81398832717123" lon="12.516058921479699"><ele>179.0</ele><time>2026-04-03T15:11:46.999Z</time></trkpt><trkpt lat="43.814044138270766" lon="12.516295295982236"><ele>178.0</ele><time>2026-04-03T15:11:47.999Z</time></trkpt><trkpt lat="43.81410007548611" lon="12.516532369804356"><ele>177.0</ele><time>2026-04-03T15:11:48.999Z</time></trkpt><trkpt lat="43.81415472522229" lon="12.5167734303277"><ele>176.0</ele><time>2026-04-03T15:11:49.999Z</time></trkpt><trkpt lat="43.814211653242474" lon="12.517012276479859"><ele>174.66666666666666</ele><time>2026-04-03T15:11:50.999Z</time></trkpt><trkpt lat="43.81426968566109" lon="12.51725222190019"><ele>173.33333333333334</ele><time>2026-04-03T15:11:51.999Z</time></trkpt><trkpt lat="43.81432727458994" lon="12.51749256447759"><ele>172.0</ele><time>2026-04-03T15:11:52.999Z</time></trkpt><trkpt lat="43.814380330188946" lon="12.517721753903196"><ele>176.66666666666669</ele><time>2026-04-03T15:11:53.999Z</time></trkpt><trkpt lat="43.81442427048003" lon="12.517941141953273"><ele>181.33333333333334</ele><time>2026-04-03T15:11:54.999Z</time></trkpt><trkpt lat="43.81445876920242" lon="12.51815123942217"><ele>186.0</ele><time>2026-04-03T15:11:55.999Z</time></trkpt><trkpt lat="43.814467883744236" lon="12.518376891876564"><ele>186.0</ele><time>2026-04-03T15:11:56.999Z</time></trkpt><trkpt lat="43.814439491597795" lon="12.518613665034863"><ele>186.0</ele><time>2026-04-03T15:11:57.999Z</time></trkpt><trkpt lat="43.814387034800376" lon="12.518858759128552"><ele>186.0</ele><time>2026-04-03T15:11:58.999Z</time></trkpt><trkpt lat="43.81432140806449" lon="12.519103608702697"><ele>181.66666666666666</ele><time>2026-04-03T15:11:59.999Z</time></trkpt><trkpt lat="43.8142592599243" lon="12.519352835111166"><ele>177.33333333333331</ele><time>2026-04-03T15:12:00.999Z</time></trkpt><trkpt lat="43.81421834962629" lon="12.519614158717772"><ele>173.0</ele><time>2026-04-03T15:12:01.999Z</time></trkpt><trkpt lat="43.81420195199776" lon="12.519884549105324"><ele>172.66666666666666</ele><time>2026-04-03T15:12:02.999Z</time></trkpt><trkpt lat="43.81419589167883" lon="12.520148447966841"><ele>172.33333333333334</ele><time>2026-04-03T15:12:03.999Z</time></trkpt><trkpt lat="43.81420126484001" lon="12.520397200235259"><ele>172.0</ele><time>2026-04-03T15:12:04.999Z</time></trkpt><trkpt lat="43.81422414070253" lon="12.5206487000681"><ele>170.66666666666669</ele><time>2026-04-03T15:12:05.999Z</time></trkpt><trkpt lat="43.81425969637604" lon="12.52090951278878"><ele>169.33333333333334</ele><time>2026-04-03T15:12:06.999Z</time></trkpt><trkpt lat="43.81430808300242" lon="12.521172707209365"><ele>168.0</ele><time>2026-04-03T15:12:07.999Z</time></trkpt><trkpt lat="43.81436188593315" lon="12.52143413090724"><ele>171.66666666666666</ele><time>2026-04-03T15:12:08.999Z</time></trkpt><trkpt lat="43.814417060789324" lon="12.52168285249986"><ele>175.33333333333331</ele><time>2026-04-03T15:12:09.999Z</time></trkpt><trkpt lat="43.814465034543375" lon="12.52192964641163"><ele>179.0</ele><time>2026-04-03T15:12:10.999Z</time></trkpt><trkpt lat="43.81449986135163" lon="12.522186493279525"><ele>179.0</ele><time>2026-04-03T15:12:11.999Z</time></trkpt><trkpt lat="43.814511425604074" lon="12.522449840987115"><ele>179.0</ele><time>2026-04-03T15:12:12.999Z</time></trkpt><trkpt lat="43.814499690180924" lon="12.522712677597287"><ele>179.0</ele><time>2026-04-03T15:12:13.999Z</time></trkpt><trkpt lat="43.81446772580278" lon="12.522973670073915"><ele>178.33333333333331</ele><time>2026-04-03T15:12:14.999Z</time></trkpt><trkpt lat="43.81441577411096" lon="12.52323127057447"><ele>177.66666666666666</ele><time>2026-04-03T15:12:15.999Z</time></trkpt><trkpt lat="43.81434488667839" lon="12.523483569406046"><ele>177.0</ele><time>2026-04-03T15:12:16.999Z</time></trkpt><trkpt lat="43.814259153472065" lon="12.523719156947715"><ele>173.66666666666666</ele><time>2026-04-03T15:12:17.999Z</time></trkpt><trkpt lat="43.814139893487315" lon="12.523913213560546"><ele>170.33333333333331</ele><time>2026-04-03T15:12:18.999Z</time></trkpt><trkpt lat="43.81402994547055" lon="12.52411189028891"><ele>167.0</ele><time>2026-04-03T15:12:19.999Z</time></trkpt><trkpt lat="43.81393077122353" lon="12.524317297931036"><ele>167.0</ele><time>2026-04-03T15:12:20.999Z</time></trkpt><trkpt lat="43.81382036327375" lon="12.524514584758265"><ele>167.0</ele><time>2026-04-03T15:12:21.999Z</time></trkpt><trkpt lat="43.81370961880994" lon="12.524710715524408"><ele>167.0</ele><time>2026-04-03T15:12:22.999Z</time></trkpt><trkpt lat="43.813598958143885" lon="12.524907818208582"><ele>167.33333333333331</ele><time>2026-04-03T15:12:23.999Z</time></trkpt><trkpt lat="43.81349047531921" lon="12.525103005428816"><ele>167.66666666666666</ele><time>2026-04-03T15:12:24.999Z</time></trkpt><trkpt lat="43.81338175499044" lon="12.525298828115513"><ele>168.0</ele><time>2026-04-03T15:12:25.999Z</time></trkpt><trkpt lat="43.81327351363015" lon="12.525494248014775"><ele>168.0</ele><time>2026-04-03T15:12:26.999Z</time></trkpt><trkpt lat="43.813166095153306" lon="12.525690089714168"><ele>168.0</ele><time>2026-04-03T15:12:27.999Z</time></trkpt><trkpt lat="43.81305875015071" lon="12.525880943159654"><ele>168.0</ele><time>2026-04-03T15:12:28.999Z</time></trkpt><trkpt lat="43.81294976435806" lon="12.52607332011227"><ele>169.0</ele><time>2026-04-03T15:12:29.999Z</time></trkpt><trkpt lat="43.81284166866982" lon="12.526265245007165"><ele>170.0</ele><time>2026-04-03T15:12:30.999Z</time></trkpt><trkpt lat="43.81273347293619" lon="12.52645538745351"><ele>171.0</ele><time>2026-04-03T15:12:31.999Z</time></trkpt><trkpt lat="43.81262582799022" lon="12.526644679898748"><ele>168.66666666666666</ele><time>2026-04-03T15:12:32.999Z</time></trkpt><trkpt lat="43.81252009973785" lon="12.526832947027838"><ele>166.33333333333331</ele><time>2026-04-03T15:12:33.999Z</time></trkpt><trkpt lat="43.812416068811004" lon="12.527023175170182"><ele>164.0</ele><time>2026-04-03T15:12:34.999Z</time></trkpt><trkpt lat="43.81230438577535" lon="12.527188017757622"><ele>164.0</ele><time>2026-04-03T15:12:35.999Z</time></trkpt><trkpt lat="43.812206760487605" lon="12.527360876454015"><ele>164.0</ele><time>2026-04-03T15:12:36.999Z</time></trkpt><trkpt lat="43.812110939299494" lon="12.527529949175092"><ele>164.0</ele><time>2026-04-03T15:12:37.999Z</time></trkpt><trkpt lat="43.812016612607856" lon="12.52769611790997"><ele>164.0</ele><time>2026-04-03T15:12:38.999Z</time></trkpt><trkpt lat="43.811935160743445" lon="12.527872832058522"><ele>164.0</ele><time>2026-04-03T15:12:39.999Z</time></trkpt><trkpt lat="43.811840768618275" lon="12.528034283803523"><ele>164.0</ele><time>2026-04-03T15:12:40.999Z</time></trkpt><trkpt lat="43.811748809562616" lon="12.528198614295585"><ele>165.0</ele><time>2026-04-03T15:12:41.999Z</time></trkpt><trkpt lat="43.811657553824574" lon="12.52836557628988"><ele>166.0</ele><time>2026-04-03T15:12:42.999Z</time></trkpt><trkpt lat="43.81156852408117" lon="12.528536862456148"><ele>167.0</ele><time>2026-04-03T15:12:43.999Z</time></trkpt><trkpt lat="43.811483218832414" lon="12.528715681454502"><ele>167.33333333333331</ele><time>2026-04-03T15:12:44.999Z</time></trkpt><trkpt lat="43.81140295227998" lon="12.528894414967022"><ele>167.66666666666666</ele><time>2026-04-03T15:12:45.999Z</time></trkpt><trkpt lat="43.81133076913935" lon="12.52907593604134"><ele>168.0</ele><time>2026-04-03T15:12:46.999Z</time></trkpt><trkpt lat="43.81126016350981" lon="12.529265207974586"><ele>168.0</ele><time>2026-04-03T15:12:47.999Z</time></trkpt><trkpt lat="43.811187704311955" lon="12.52945311984754"><ele>168.0</ele><time>2026-04-03T15:12:48.999Z</time></trkpt><trkpt lat="43.81112313792229" lon="12.529635046979935"><ele>168.0</ele><time>2026-04-03T15:12:49.999Z</time></trkpt><trkpt lat="43.81107683187393" lon="12.529828721453782"><ele>168.0</ele><time>2026-04-03T15:12:50.999Z</time></trkpt><trkpt lat="43.81106147922819" lon="12.53004123589845"><ele>168.33333333333334</ele><time>2026-04-03T15:12:51.999Z</time></trkpt><trkpt lat="43.81108505821411" lon="12.530263429114491"><ele>168.66666666666669</ele><time>2026-04-03T15:12:53Z</time></trkpt><trkpt lat="43.81114193163777" lon="12.530495445539556"><ele>169.0</ele><time>2026-04-03T15:12:54Z</time></trkpt><trkpt lat="43.81121769116695" lon="12.530747368599082"><ele>169.33333333333334</ele><time>2026-04-03T15:12:55Z</time></trkpt><trkpt lat="43.81130404496799" lon="12.531019500870762"><ele>169.66666666666666</ele><time>2026-04-03T15:12:56Z</time></trkpt><trkpt lat="43.81139240531342" lon="12.531315648206006"><ele>170.0</ele><time>2026-04-03T15:12:57Z</time></trkpt><trkpt lat="43.81148330446856" lon="12.531607358817853"><ele>168.66666666666666</ele><time>2026-04-03T15:12:58Z</time></trkpt><trkpt lat="43.811568156511285" lon="12.531883476880076"><ele>167.33333333333334</ele><time>2026-04-03T15:12:59Z</time></trkpt><trkpt lat="43.81164572760542" lon="12.532148402273656"><ele>166.0</ele><time>2026-04-03T15:13:00Z</time></trkpt><trkpt lat="43.81172460649829" lon="12.532406770347142"><ele>164.33333333333334</ele><time>2026-04-03T15:13:01Z</time></trkpt><trkpt lat="43.81180201133888" lon="12.532663867377035"><ele>162.66666666666666</ele><time>2026-04-03T15:13:02Z</time></trkpt><trkpt lat="43.81188107887322" lon="12.53291754596496"><ele>161.0</ele><time>2026-04-03T15:13:03Z</time></trkpt><trkpt lat="43.81195944018786" lon="12.533168399188616"><ele>161.0</ele><time>2026-04-03T15:13:04Z</time></trkpt><trkpt lat="43.81203603046728" lon="12.53341941531554"><ele>161.0</ele><time>2026-04-03T15:13:05Z</time></trkpt><trkpt lat="43.81210947255058" lon="12.53366609656234"><ele>161.0</ele><time>2026-04-03T15:13:06Z</time></trkpt><trkpt lat="43.81218081622118" lon="12.533910784859984"><ele>158.66666666666666</ele><time>2026-04-03T15:13:07Z</time></trkpt><trkpt lat="43.81224288330027" lon="12.534156066928558"><ele>156.33333333333334</ele><time>2026-04-03T15:13:08Z</time></trkpt><trkpt lat="43.81229151709193" lon="12.534404400070079"><ele>154.0</ele><time>2026-04-03T15:13:09Z</time></trkpt><trkpt lat="43.812336042910864" lon="12.534657075162816"><ele>153.66666666666669</ele><time>2026-04-03T15:13:10Z</time></trkpt><trkpt lat="43.812372681117296" lon="12.534913720991165"><ele>153.33333333333334</ele><time>2026-04-03T15:13:11Z</time></trkpt><trkpt lat="43.81239904115605" lon="12.535173681645224"><ele>153.0</ele><time>2026-04-03T15:13:12Z</time></trkpt><trkpt lat="43.81241676840757" lon="12.535436489373426"><ele>152.33333333333334</ele><time>2026-04-03T15:13:13Z</time></trkpt><trkpt lat="43.81242518154783" lon="12.535703685168505"><ele>151.66666666666669</ele><time>2026-04-03T15:13:14Z</time></trkpt><trkpt lat="43.812422878351235" lon="12.53597370832233"><ele>151.0</ele><time>2026-04-03T15:13:15Z</time></trkpt><trkpt lat="43.812411689494866" lon="12.536243624681369"><ele>151.0</ele><time>2026-04-03T15:13:16Z</time></trkpt><trkpt lat="43.81239696134302" lon="12.536514963834987"><ele>151.0</ele><time>2026-04-03T15:13:17Z</time></trkpt><trkpt lat="43.81238096328376" lon="12.536789751797622"><ele>151.0</ele><time>2026-04-03T15:13:18Z</time></trkpt><trkpt lat="43.81236573213153" lon="12.537066675057503"><ele>151.0</ele><time>2026-04-03T15:13:19Z</time></trkpt><trkpt lat="43.81235143808692" lon="12.537343636947455"><ele>151.0</ele><time>2026-04-03T15:13:20Z</time></trkpt><trkpt lat="43.81233687231567" lon="12.53761875805536"><ele>151.0</ele><time>2026-04-03T15:13:21Z</time></trkpt><trkpt lat="43.81232317593759" lon="12.53789130545937"><ele>151.0</ele><time>2026-04-03T15:13:22Z</time></trkpt><trkpt lat="43.81231074887584" lon="12.538164261449529"><ele>151.0</ele><time>2026-04-03T15:13:23Z</time></trkpt><trkpt lat="43.812294474032065" lon="12.53843635119252"><ele>151.0</ele><time>2026-04-03T15:13:24Z</time></trkpt><trkpt lat="43.81227887829949" lon="12.538710652677725"><ele>151.66666666666669</ele><time>2026-04-03T15:13:25Z</time></trkpt><trkpt lat="43.812265209420424" lon="12.53898103945596"><ele>152.33333333333334</ele><time>2026-04-03T15:13:26Z</time></trkpt><trkpt lat="43.812251174845514" lon="12.539241473594931"><ele>153.0</ele><time>2026-04-03T15:13:27Z</time></trkpt><trkpt lat="43.812238087235215" lon="12.539490245360538"><ele>152.33333333333334</ele><time>2026-04-03T15:13:28Z</time></trkpt><trkpt lat="43.812226037006745" lon="12.539730479220886"><ele>151.66666666666669</ele><time>2026-04-03T15:13:29Z</time></trkpt><trkpt lat="43.81220916163305" lon="12.539962943656928"><ele>151.0</ele><time>2026-04-03T15:13:30Z</time></trkpt><trkpt lat="43.81218678521544" lon="12.540193746235008"><ele>152.0</ele><time>2026-04-03T15:13:31Z</time></trkpt><trkpt lat="43.8121565844268" lon="12.540425704818235"><ele>153.0</ele><time>2026-04-03T15:13:32Z</time></trkpt><trkpt lat="43.81211416281111" lon="12.540654980327213"><ele>154.0</ele><time>2026-04-03T15:13:33Z</time></trkpt><trkpt lat="43.812063448807834" lon="12.54088443553868"><ele>154.0</ele><time>2026-04-03T15:13:34Z</time></trkpt><trkpt lat="43.812004022135994" lon="12.541113252184223"><ele>154.0</ele><time>2026-04-03T15:13:35Z</time></trkpt><trkpt lat="43.81193365933396" lon="12.541330697922811"><ele>154.0</ele><time>2026-04-03T15:13:36Z</time></trkpt><trkpt lat="43.8118510292568" lon="12.541535216956955"><ele>154.33333333333334</ele><time>2026-04-03T15:13:37Z</time></trkpt><trkpt lat="43.81175769027877" lon="12.541733846844274"><ele>154.66666666666666</ele><time>2026-04-03T15:13:38Z</time></trkpt><trkpt lat="43.81165351760736" lon="12.541922597966478"><ele>155.0</ele><time>2026-04-03T15:13:39Z</time></trkpt><trkpt lat="43.81154487994826" lon="12.542117482694053"><ele>155.0</ele><time>2026-04-03T15:13:40Z</time></trkpt><trkpt lat="43.81142873833433" lon="12.542315933721989"><ele>155.0</ele><time>2026-04-03T15:13:40.999Z</time></trkpt><trkpt lat="43.81131030564073" lon="12.54251311623773"><ele>155.0</ele><time>2026-04-03T15:13:41.999Z</time></trkpt><trkpt lat="43.811195284942016" lon="12.542708963704472"><ele>154.33333333333331</ele><time>2026-04-03T15:13:42.999Z</time></trkpt><trkpt lat="43.81107989158479" lon="12.542901854300473"><ele>153.66666666666666</ele><time>2026-04-03T15:13:43.999Z</time></trkpt><trkpt lat="43.81097353358336" lon="12.54309809107409"><ele>153.0</ele><time>2026-04-03T15:13:44.999Z</time></trkpt><trkpt lat="43.81087923575746" lon="12.543317099398307"><ele>153.0</ele><time>2026-04-03T15:13:45.999Z</time></trkpt><trkpt lat="43.810798394558255" lon="12.543565822795573"><ele>153.0</ele><time>2026-04-03T15:13:46.999Z</time></trkpt><trkpt lat="43.810723331029784" lon="12.543830105647283"><ele>153.0</ele><time>2026-04-03T15:13:47.999Z</time></trkpt><trkpt lat="43.81064388294679" lon="12.544109665193611"><ele>154.33333333333334</ele><time>2026-04-03T15:13:48.999Z</time></trkpt><trkpt lat="43.810565357014575" lon="12.544388804385362"><ele>155.66666666666669</ele><time>2026-04-03T15:13:49.999Z</time></trkpt><trkpt lat="43.810488451706114" lon="12.544664479195356"><ele>157.0</ele><time>2026-04-03T15:13:50.999Z</time></trkpt><trkpt lat="43.81041192481155" lon="12.544936054978006"><ele>159.0</ele><time>2026-04-03T15:13:51.999Z</time></trkpt><trkpt lat="43.81034015427575" lon="12.545188074572396"><ele>161.0</ele><time>2026-04-03T15:13:52.999Z</time></trkpt><trkpt lat="43.81027395943655" lon="12.545421432293933"><ele>163.0</ele><time>2026-04-03T15:13:53.999Z</time></trkpt><trkpt lat="43.81021272405698" lon="12.545640007442774"><ele>163.33333333333334</ele><time>2026-04-03T15:13:54.999Z</time></trkpt><trkpt lat="43.81016068570515" lon="12.545850091724569"><ele>163.66666666666666</ele><time>2026-04-03T15:13:55.999Z</time></trkpt><trkpt lat="43.81013118456987" lon="12.546062414863888"><ele>164.0</ele><time>2026-04-03T15:13:56.999Z</time></trkpt><trkpt lat="43.810125068312644" lon="12.54628763152403"><ele>164.0</ele><time>2026-04-03T15:13:57.999Z</time></trkpt><trkpt lat="43.81013894413445" lon="12.546524870666778"><ele>164.0</ele><time>2026-04-03T15:13:58.999Z</time></trkpt><trkpt lat="43.81017550045162" lon="12.546767312359691"><ele>164.0</ele><time>2026-04-03T15:13:59.999Z</time></trkpt><trkpt lat="43.810227182738515" lon="12.547014065518697"><ele>164.33333333333331</ele><time>2026-04-03T15:14:00.999Z</time></trkpt><trkpt lat="43.81027477826269" lon="12.547269598923119"><ele>164.66666666666666</ele><time>2026-04-03T15:14:01.999Z</time></trkpt><trkpt lat="43.81030408620945" lon="12.547536333055303"><ele>165.0</ele><time>2026-04-03T15:14:02.999Z</time></trkpt><trkpt lat="43.810323203560436" lon="12.547804471295224"><ele>165.66666666666666</ele><time>2026-04-03T15:14:03.999Z</time></trkpt><trkpt lat="43.810321637077706" lon="12.548059007756768"><ele>166.33333333333331</ele><time>2026-04-03T15:14:04.999Z</time></trkpt><trkpt lat="43.81029390269928" lon="12.548307450232949"><ele>167.0</ele><time>2026-04-03T15:14:05.999Z</time></trkpt><trkpt lat="43.81024563189272" lon="12.548551331146928"><ele>167.66666666666666</ele><time>2026-04-03T15:14:06.999Z</time></trkpt><trkpt lat="43.810203482759825" lon="12.54879568259841"><ele>168.33333333333334</ele><time>2026-04-03T15:14:07.999Z</time></trkpt><trkpt lat="43.810183259168284" lon="12.54904884108719"><ele>169.0</ele><time>2026-04-03T15:14:08.999Z</time></trkpt><trkpt lat="43.81019660044195" lon="12.549308102383044"><ele>170.0</ele><time>2026-04-03T15:14:09.999Z</time></trkpt><trkpt lat="43.810212567717436" lon="12.5495745290818"><ele>171.0</ele><time>2026-04-03T15:14:10.999Z</time></trkpt><trkpt lat="43.81022323110623" lon="12.54984512926349"><ele>172.0</ele><time>2026-04-03T15:14:11.999Z</time></trkpt><trkpt lat="43.81023236421231" lon="12.550117631701532"><ele>172.0</ele><time>2026-04-03T15:14:12.999Z</time></trkpt><trkpt lat="43.810237255101434" lon="12.550391151722597"><ele>172.0</ele><time>2026-04-03T15:14:13.999Z</time></trkpt><trkpt lat="43.8102314948743" lon="12.550659997584388"><ele>172.0</ele><time>2026-04-03T15:14:14.999Z</time></trkpt><trkpt lat="43.81021217766989" lon="12.550911413114827"><ele>172.0</ele><time>2026-04-03T15:14:15.999Z</time></trkpt><trkpt lat="43.81019064481973" lon="12.551149226223503"><ele>172.0</ele><time>2026-04-03T15:14:16.999Z</time></trkpt><trkpt lat="43.810170045669835" lon="12.551378791940838"><ele>172.0</ele><time>2026-04-03T15:14:17.999Z</time></trkpt><trkpt lat="43.81016885821341" lon="12.551589249418985"><ele>170.66666666666669</ele><time>2026-04-03T15:14:18.999Z</time></trkpt><trkpt lat="43.81020281109402" lon="12.551796774507475"><ele>169.33333333333334</ele><time>2026-04-03T15:14:19.999Z</time></trkpt><trkpt lat="43.81027435370568" lon="12.551997135928788"><ele>168.0</ele><time>2026-04-03T15:14:20.999Z</time></trkpt><trkpt lat="43.810371812876674" lon="12.552169033053627"><ele>165.0</ele><time>2026-04-03T15:14:21.999Z</time></trkpt><trkpt lat="43.81048697548859" lon="12.552319051616857"><ele>162.0</ele><time>2026-04-03T15:14:22.999Z</time></trkpt><trkpt lat="43.81061398937412" lon="12.552448715167227"><ele>159.0</ele><time>2026-04-03T15:14:23.999Z</time></trkpt><trkpt lat="43.81073988898024" lon="12.552569581530866"><ele>159.0</ele><time>2026-04-03T15:14:24.999Z</time></trkpt><trkpt lat="43.810860286993055" lon="12.552706102619773"><ele>159.0</ele><time>2026-04-03T15:14:25.999Z</time></trkpt><trkpt lat="43.810972229865435" lon="12.552864081058933"><ele>159.0</ele><time>2026-04-03T15:14:26.999Z</time></trkpt><trkpt lat="43.811074016489066" lon="12.553041763136513"><ele>157.33333333333334</ele><time>2026-04-03T15:14:27.999Z</time></trkpt><trkpt lat="43.811163081674664" lon="12.553235222790887"><ele>155.66666666666669</ele><time>2026-04-03T15:14:28.999Z</time></trkpt><trkpt lat="43.81123448873348" lon="12.553442993779875"><ele>154.0</ele><time>2026-04-03T15:14:29.999Z</time></trkpt><trkpt lat="43.81127838154037" lon="12.553665515037382"><ele>153.66666666666669</ele><time>2026-04-03T15:14:30.999Z</time></trkpt><trkpt lat="43.81131736731619" lon="12.553899816468206"><ele>153.33333333333334</ele><time>2026-04-03T15:14:31.999Z</time></trkpt><trkpt lat="43.811358163214855" lon="12.554133983698236"><ele>153.0</ele><time>2026-04-03T15:14:32.999Z</time></trkpt><trkpt lat="43.811398198898374" lon="12.554369745553215"><ele>152.0</ele><time>2026-04-03T15:14:33.999Z</time></trkpt><trkpt lat="43.81143803507838" lon="12.554606601145501"><ele>151.0</ele><time>2026-04-03T15:14:34.999Z</time></trkpt><trkpt lat="43.8114792874371" lon="12.554845315205009"><ele>150.0</ele><time>2026-04-03T15:14:35.999Z</time></trkpt><trkpt lat="43.81152164388565" lon="12.555085169787876"><ele>150.0</ele><time>2026-04-03T15:14:36.999Z</time></trkpt><trkpt lat="43.81156479219849" lon="12.555326480806027"><ele>150.0</ele><time>2026-04-03T15:14:37.999Z</time></trkpt><trkpt lat="43.811607690423756" lon="12.555567523331385"><ele>150.0</ele><time>2026-04-03T15:14:38.999Z</time></trkpt><trkpt lat="43.8116511257858" lon="12.555807915769833"><ele>148.66666666666666</ele><time>2026-04-03T15:14:39.999Z</time></trkpt><trkpt lat="43.811694119680546" lon="12.556052153111647"><ele>147.33333333333331</ele><time>2026-04-03T15:14:40.999Z</time></trkpt><trkpt lat="43.81173721350732" lon="12.556299803572015"><ele>146.0</ele><time>2026-04-03T15:14:41.999Z</time></trkpt><trkpt lat="43.81177640386923" lon="12.556541326917936"><ele>145.66666666666666</ele><time>2026-04-03T15:14:42.999Z</time></trkpt><trkpt lat="43.81181533495275" lon="12.556780382790185"><ele>145.33333333333334</ele><time>2026-04-03T15:14:43.999Z</time></trkpt><trkpt lat="43.81185448219485" lon="12.557022181055778"><ele>145.0</ele><time>2026-04-03T15:14:44.999Z</time></trkpt><trkpt lat="43.811889649371835" lon="12.557266221711753"><ele>145.33333333333334</ele><time>2026-04-03T15:14:45.999Z</time></trkpt><trkpt lat="43.81191764935016" lon="12.557512171063243"><ele>145.66666666666666</ele><time>2026-04-03T15:14:46.999Z</time></trkpt><trkpt lat="43.8119402872149" lon="12.557757457426018"><ele>146.0</ele><time>2026-04-03T15:14:47.999Z</time></trkpt><trkpt lat="43.81196078207234" lon="12.558007969917664"><ele>146.0</ele><time>2026-04-03T15:14:48.999Z</time></trkpt><trkpt lat="43.81197831855988" lon="12.558261021763313"><ele>146.0</ele><time>2026-04-03T15:14:49.999Z</time></trkpt><trkpt lat="43.81199359135143" lon="12.55851706484421"><ele>146.0</ele><time>2026-04-03T15:14:50.999Z</time></trkpt><trkpt lat="43.81200447053968" lon="12.55877424300599"><ele>145.66666666666666</ele><time>2026-04-03T15:14:51.999Z</time></trkpt><trkpt lat="43.812011992800635" lon="12.559033781338224"><ele>145.33333333333334</ele><time>2026-04-03T15:14:52.999Z</time></trkpt><trkpt lat="43.812013893370924" lon="12.55929442542233"><ele>145.0</ele><time>2026-04-03T15:14:53.999Z</time></trkpt><trkpt lat="43.812010049583996" lon="12.5595518544521"><ele>147.33333333333334</ele><time>2026-04-03T15:14:54.999Z</time></trkpt><trkpt lat="43.811984829834465" lon="12.559800235329233"><ele>149.66666666666666</ele><time>2026-04-03T15:14:55.999Z</time></trkpt><trkpt lat="43.81193042225741" lon="12.560033612660119"><ele>152.0</ele><time>2026-04-03T15:14:56.999Z</time></trkpt><trkpt lat="43.811838945018614" lon="12.560247054555738"><ele>152.0</ele><time>2026-04-03T15:14:57.999Z</time></trkpt><trkpt lat="43.81172993605257" lon="12.560446750702948"><ele>152.0</ele><time>2026-04-03T15:14:59Z</time></trkpt><trkpt lat="43.81161768295394" lon="12.560645476701858"><ele>152.0</ele><time>2026-04-03T15:15:00Z</time></trkpt><trkpt lat="43.81150431191224" lon="12.560845728144143"><ele>152.0</ele><time>2026-04-03T15:15:01Z</time></trkpt><trkpt lat="43.811389507937044" lon="12.561043155897796"><ele>152.0</ele><time>2026-04-03T15:15:02Z</time></trkpt><trkpt lat="43.81127621933015" lon="12.561236010497272"><ele>152.0</ele><time>2026-04-03T15:15:03Z</time></trkpt><trkpt lat="43.811168362236124" lon="12.56142086069738"><ele>151.25</ele><time>2026-04-03T15:15:04Z</time></trkpt><trkpt lat="43.81107631811031" lon="12.56159292378607"><ele>150.5</ele><time>2026-04-03T15:15:05Z</time></trkpt><trkpt lat="43.81101194472308" lon="12.561747640259197"><ele>149.75</ele><time>2026-04-03T15:15:06Z</time></trkpt><trkpt lat="43.81098412330302" lon="12.561904583989449"><ele>149.0</ele><time>2026-04-03T15:15:07Z</time></trkpt><trkpt lat="43.81098697161273" lon="12.562068157934348"><ele>150.5</ele><time>2026-04-03T15:15:08Z</time></trkpt><trkpt lat="43.81103601816243" lon="12.562230036095741"><ele>152.0</ele><time>2026-04-03T15:15:09Z</time></trkpt><trkpt lat="43.811111508148684" lon="12.56236732987983"><ele>153.5</ele><time>2026-04-03T15:15:10Z</time></trkpt><trkpt lat="43.8112168518772" lon="12.562468785548438"><ele>155.0</ele><time>2026-04-03T15:15:11Z</time></trkpt><trkpt lat="43.81133772161851" lon="12.562530903738374"><ele>155.0</ele><time>2026-04-03T15:15:12Z</time></trkpt><trkpt lat="43.81146758548335" lon="12.562574512816068"><ele>155.0</ele><time>2026-04-03T15:15:13Z</time></trkpt><trkpt lat="43.81157981318585" lon="12.562605713808992"><ele>155.0</ele><time>2026-04-03T15:15:14Z</time></trkpt><trkpt lat="43.811683359717065" lon="12.562633102342266"><ele>155.0</ele><time>2026-04-03T15:15:15Z</time></trkpt><trkpt lat="43.81179012662654" lon="12.562661359149644"><ele>155.75</ele><time>2026-04-03T15:15:16Z</time></trkpt><trkpt lat="43.811908677820036" lon="12.56269343569958"><ele>156.5</ele><time>2026-04-03T15:15:17Z</time></trkpt><trkpt lat="43.81203402427833" lon="12.562727911515811"><ele>157.25</ele><time>2026-04-03T15:15:18Z</time></trkpt><trkpt lat="43.81216239759808" lon="12.562768045121306"><ele>158.0</ele><time>2026-04-03T15:15:19Z</time></trkpt><trkpt lat="43.81228845744161" lon="12.562823694518617"><ele>157.0</ele><time>2026-04-03T15:15:20Z</time></trkpt><trkpt lat="43.812405358129794" lon="12.562908267607394"><ele>156.0</ele><time>2026-04-03T15:15:21Z</time></trkpt><trkpt lat="43.812502638300224" lon="12.56303518098105"><ele>155.0</ele><time>2026-04-03T15:15:22Z</time></trkpt><trkpt lat="43.81256739801554" lon="12.563188666545921"><ele>154.0</ele><time>2026-04-03T15:15:23Z</time></trkpt><trkpt lat="43.812607346366164" lon="12.563365760250237"><ele>154.0</ele><time>2026-04-03T15:15:24Z</time></trkpt><trkpt lat="43.812624783848975" lon="12.56355086419741"><ele>154.0</ele><time>2026-04-03T15:15:25Z</time></trkpt><trkpt lat="43.812617278037884" lon="12.563733262337236"><ele>154.0</ele><time>2026-04-03T15:15:26Z</time></trkpt><trkpt lat="43.81260868238337" lon="12.563922322389985"><ele>154.0</ele><time>2026-04-03T15:15:27Z</time></trkpt><trkpt lat="43.81263498314461" lon="12.56411531297732"><ele>156.66666666666669</ele><time>2026-04-03T15:15:28Z</time></trkpt><trkpt lat="43.81268942049833" lon="12.56431181335477"><ele>159.33333333333334</ele><time>2026-04-03T15:15:29Z</time></trkpt><trkpt lat="43.81276421363643" lon="12.564503187349926"><ele>162.0</ele><time>2026-04-03T15:15:30Z</time></trkpt><trkpt lat="43.81284948396812" lon="12.564691443669085"><ele>162.0</ele><time>2026-04-03T15:15:31Z</time></trkpt><trkpt lat="43.812908859897355" lon="12.564892910952604"><ele>162.0</ele><time>2026-04-03T15:15:32Z</time></trkpt><trkpt lat="43.81297349709327" lon="12.56508996087839"><ele>162.0</ele><time>2026-04-03T15:15:33Z</time></trkpt><trkpt lat="43.81303641738947" lon="12.565292983245703"><ele>161.0</ele><time>2026-04-03T15:15:34Z</time></trkpt><trkpt lat="43.81305989048839" lon="12.565521407622455"><ele>160.0</ele><time>2026-04-03T15:15:35Z</time></trkpt><trkpt lat="43.81306959345974" lon="12.565753120434215"><ele>159.0</ele><time>2026-04-03T15:15:36Z</time></trkpt><trkpt lat="43.81307079418944" lon="12.565989759406312"><ele>156.0</ele><time>2026-04-03T15:15:37Z</time></trkpt><trkpt lat="43.81306675310681" lon="12.566232329520762"><ele>153.0</ele><time>2026-04-03T15:15:38Z</time></trkpt><trkpt lat="43.81307331130219" lon="12.566478535593854"><ele>150.0</ele><time>2026-04-03T15:15:39Z</time></trkpt><trkpt lat="43.813102436525654" lon="12.566724551422583"><ele>150.0</ele><time>2026-04-03T15:15:40Z</time></trkpt><trkpt lat="43.813152177750815" lon="12.566955770871955"><ele>150.0</ele><time>2026-04-03T15:15:41Z</time></trkpt><trkpt lat="43.81320134030939" lon="12.56718426437064"><ele>150.0</ele><time>2026-04-03T15:15:42Z</time></trkpt><trkpt lat="43.81324916981173" lon="12.567420022999494"><ele>148.66666666666666</ele><time>2026-04-03T15:15:43Z</time></trkpt><trkpt lat="43.813295096150306" lon="12.567663146545199"><ele>147.33333333333331</ele><time>2026-04-03T15:15:44Z</time></trkpt><trkpt lat="43.81333923412996" lon="12.567907133369248"><ele>146.0</ele><time>2026-04-03T15:15:45Z</time></trkpt><trkpt lat="43.813381550808984" lon="12.568149438747385"><ele>145.66666666666666</ele><time>2026-04-03T15:15:46Z</time></trkpt><trkpt lat="43.813422002615" lon="12.568393518431266"><ele>145.33333333333334</ele><time>2026-04-03T15:15:47Z</time></trkpt><trkpt lat="43.81344768065482" lon="12.568632013469145"><ele>145.0</ele><time>2026-04-03T15:15:47.999Z</time></trkpt><trkpt lat="43.81345432403298" lon="12.568862711188695"><ele>144.66666666666669</ele><time>2026-04-03T15:15:48.999Z</time></trkpt><trkpt lat="43.81344323303665" lon="12.569090657106305"><ele>144.33333333333334</ele><time>2026-04-03T15:15:49.999Z</time></trkpt><trkpt lat="43.81341878760193" lon="12.569324567329053"><ele>144.0</ele><time>2026-04-03T15:15:50.999Z</time></trkpt><trkpt lat="43.813393069546734" lon="12.569562595928774"><ele>145.0</ele><time>2026-04-03T15:15:51.999Z</time></trkpt><trkpt lat="43.813367953376286" lon="12.569800125553034"><ele>146.0</ele><time>2026-04-03T15:15:52.999Z</time></trkpt><trkpt lat="43.81334334445845" lon="12.570024848751078"><ele>147.0</ele><time>2026-04-03T15:15:53.999Z</time></trkpt><trkpt lat="43.813319437060976" lon="12.570230944100604"><ele>147.25</ele><time>2026-04-03T15:15:54.999Z</time></trkpt><trkpt lat="43.8132996307184" lon="12.570428542933541"><ele>147.5</ele><time>2026-04-03T15:15:55.999Z</time></trkpt><trkpt lat="43.81327811420619" lon="12.570618006334739"><ele>147.75</ele><time>2026-04-03T15:15:56.999Z</time></trkpt><trkpt lat="43.813257194350825" lon="12.570798561746471"><ele>148.0</ele><time>2026-04-03T15:15:57.999Z</time></trkpt><trkpt lat="43.81323739989954" lon="12.57097315509498"><ele>148.0</ele><time>2026-04-03T15:15:58.999Z</time></trkpt><trkpt lat="43.813219950652375" lon="12.571130718186517"><ele>148.0</ele><time>2026-04-03T15:15:59.999Z</time></trkpt><trkpt lat="43.81319368150665" lon="12.57127263755611"><ele>148.0</ele><time>2026-04-03T15:16:00.999Z</time></trkpt><trkpt lat="43.81314430940919" lon="12.571397715641993"><ele>148.0</ele><time>2026-04-03T15:16:01.999Z</time></trkpt><trkpt lat="43.81307727573059" lon="12.5714926760506"><ele>148.0</ele><time>2026-04-03T15:16:02.999Z</time></trkpt><trkpt lat="43.81302068012958" lon="12.571585832239093"><ele>147.8</ele><time>2026-04-03T15:16:03.999Z</time></trkpt><trkpt lat="43.812993578877844" lon="12.571697365245651"><ele>147.60000000000002</ele><time>2026-04-03T15:16:04.999Z</time></trkpt><trkpt lat="43.813000842788426" lon="12.571813345522424"><ele>147.39999999999998</ele><time>2026-04-03T15:16:05.999Z</time></trkpt><trkpt lat="43.8130403693677" lon="12.57192705662976"><ele>147.2</ele><time>2026-04-03T15:16:06.999Z</time></trkpt><trkpt lat="43.813111307073854" lon="12.572025605035993"><ele>147.0</ele><time>2026-04-03T15:16:07.999Z</time></trkpt><trkpt lat="43.813188005321734" lon="12.57212403210163"><ele>146.0</ele><time>2026-04-03T15:16:08.999Z</time></trkpt><trkpt lat="43.81325738059991" lon="12.572266760010427"><ele>145.0</ele><time>2026-04-03T15:16:09.999Z</time></trkpt><trkpt lat="43.81331368610905" lon="12.572463756909947"><ele>144.0</ele><time>2026-04-03T15:16:10.999Z</time></trkpt><trkpt lat="43.813365416523695" lon="12.572697122966591"><ele>143.0</ele><time>2026-04-03T15:16:11.999Z</time></trkpt><trkpt lat="43.81342646240126" lon="12.572958266399654"><ele>142.0</ele><time>2026-04-03T15:16:12.999Z</time></trkpt><trkpt lat="43.81345822957951" lon="12.573244938225084"><ele>141.0</ele><time>2026-04-03T15:16:13.999Z</time></trkpt><trkpt lat="43.813520650655406" lon="12.573541612288041"><ele>148.0</ele><time>2026-04-03T15:16:14.999Z</time></trkpt><trkpt lat="43.813587746688555" lon="12.57385686897882"><ele>155.0</ele><time>2026-04-03T15:16:15.999Z</time></trkpt><trkpt lat="43.81365396343419" lon="12.574167994219584"><ele>155.0</ele><time>2026-04-03T15:16:16.999Z</time></trkpt><trkpt lat="43.81373577894781" lon="12.574485774350512"><ele>155.0</ele><time>2026-04-03T15:16:17.999Z</time></trkpt><trkpt lat="43.81380311896901" lon="12.57481425275433"><ele>155.0</ele><time>2026-04-03T15:16:18.999Z</time></trkpt><trkpt lat="43.81387069974478" lon="12.575121509379576"><ele>155.0</ele><time>2026-04-03T15:16:19.999Z</time></trkpt><trkpt lat="43.81393519901438" lon="12.57543255571342"><ele>155.0</ele><time>2026-04-03T15:16:20.999Z</time></trkpt><trkpt lat="43.81399947026083" lon="12.575744918396015"><ele>155.0</ele><time>2026-04-03T15:16:21.999Z</time></trkpt><trkpt lat="43.8140673767706" lon="12.57605989504509"><ele>154.0</ele><time>2026-04-03T15:16:22.999Z</time></trkpt><trkpt lat="43.814136750651336" lon="12.576376400385287"><ele>153.0</ele><time>2026-04-03T15:16:23.999Z</time></trkpt><trkpt lat="43.81420111791174" lon="12.57668064550791"><ele>153.0</ele><time>2026-04-03T15:16:24.999Z</time></trkpt><trkpt lat="43.81426480448008" lon="12.576973094367998"><ele>153.0</ele><time>2026-04-03T15:16:25.999Z</time></trkpt><trkpt lat="43.81431297508413" lon="12.57727499620031"><ele>153.0</ele><time>2026-04-03T15:16:26.999Z</time></trkpt><trkpt lat="43.814375990646596" lon="12.577570985726462"><ele>157.33333333333334</ele><time>2026-04-03T15:16:27.999Z</time></trkpt><trkpt lat="43.814454562813616" lon="12.577859271775539"><ele>161.66666666666669</ele><time>2026-04-03T15:16:28.999Z</time></trkpt><trkpt lat="43.81451302578534" lon="12.57814829453622"><ele>166.0</ele><time>2026-04-03T15:16:29.999Z</time></trkpt><trkpt lat="43.81457198357701" lon="12.578424262079704"><ele>165.66666666666669</ele><time>2026-04-03T15:16:30.999Z</time></trkpt><trkpt lat="43.81463119702639" lon="12.578688329118979"><ele>165.33333333333334</ele><time>2026-04-03T15:16:31.999Z</time></trkpt><trkpt lat="43.81466706118783" lon="12.578948272503938"><ele>165.0</ele><time>2026-04-03T15:16:32.999Z</time></trkpt><trkpt lat="43.814706856864" lon="12.579192772470492"><ele>165.0</ele><time>2026-04-03T15:16:33.999Z</time></trkpt><trkpt lat="43.81471535002563" lon="12.579423819328301"><ele>165.0</ele><time>2026-04-03T15:16:34.999Z</time></trkpt><trkpt lat="43.81469374920521" lon="12.579633597496315"><ele>165.0</ele><time>2026-04-03T15:16:35.999Z</time></trkpt><trkpt lat="43.814663502590435" lon="12.579831102734326"><ele>165.0</ele><time>2026-04-03T15:16:36.999Z</time></trkpt><trkpt lat="43.814655690400166" lon="12.580025657092902"><ele>165.0</ele><time>2026-04-03T15:16:37.999Z</time></trkpt><trkpt lat="43.81464828959744" lon="12.58020844811121"><ele>165.0</ele><time>2026-04-03T15:16:38.999Z</time></trkpt><trkpt lat="43.81466200913517" lon="12.580390977552478"><ele>165.0</ele><time>2026-04-03T15:16:39.999Z</time></trkpt><trkpt lat="43.81468059588164" lon="12.580579436686408"><ele>165.0</ele><time>2026-04-03T15:16:40.999Z</time></trkpt><trkpt lat="43.814700392906076" lon="12.58077340147988"><ele>165.0</ele><time>2026-04-03T15:16:41.999Z</time></trkpt><trkpt lat="43.81472041455207" lon="12.580971537613225"><ele>165.0</ele><time>2026-04-03T15:16:42.999Z</time></trkpt><trkpt lat="43.81474513871266" lon="12.581172447575982"><ele>165.0</ele><time>2026-04-03T15:16:43.999Z</time></trkpt><trkpt lat="43.81477712354363" lon="12.581374898025349"><ele>164.25</ele><time>2026-04-03T15:16:44.999Z</time></trkpt><trkpt lat="43.814820248209934" lon="12.581569286155116"><ele>163.5</ele><time>2026-04-03T15:16:45.999Z</time></trkpt><trkpt lat="43.81487257444994" lon="12.581760252470293"><ele>162.75</ele><time>2026-04-03T15:16:46.999Z</time></trkpt><trkpt lat="43.814929265146745" lon="12.581954190569608"><ele>162.0</ele><time>2026-04-03T15:16:47.999Z</time></trkpt><trkpt lat="43.814987330609696" lon="12.582153180782699"><ele>162.0</ele><time>2026-04-03T15:16:48.999Z</time></trkpt><trkpt lat="43.81504751156091" lon="12.582354352235543"><ele>162.0</ele><time>2026-04-03T15:16:49.999Z</time></trkpt><trkpt lat="43.81510813785261" lon="12.582557842625057"><ele>162.0</ele><time>2026-04-03T15:16:50.999Z</time></trkpt><trkpt lat="43.81516854367148" lon="12.58276363822449"><ele>163.66666666666666</ele><time>2026-04-03T15:16:51.999Z</time></trkpt><trkpt lat="43.81522790680903" lon="12.58297367111854"><ele>165.33333333333331</ele><time>2026-04-03T15:16:52.999Z</time></trkpt><trkpt lat="43.815288959271946" lon="12.583183156431616"><ele>167.0</ele><time>2026-04-03T15:16:53.999Z</time></trkpt><trkpt lat="43.81535079440298" lon="12.583393086259523"><ele>167.0</ele><time>2026-04-03T15:16:54.999Z</time></trkpt><trkpt lat="43.81541081790836" lon="12.583604935154364"><ele>167.0</ele><time>2026-04-03T15:16:55.999Z</time></trkpt><trkpt lat="43.81547333738316" lon="12.583817212183591"><ele>167.0</ele><time>2026-04-03T15:16:56.999Z</time></trkpt><trkpt lat="43.815542258527834" lon="12.58402256879743"><ele>165.66666666666666</ele><time>2026-04-03T15:16:57.999Z</time></trkpt><trkpt lat="43.815617735203645" lon="12.5842199442807"><ele>164.33333333333334</ele><time>2026-04-03T15:16:58.999Z</time></trkpt><trkpt lat="43.815695017438905" lon="12.584398172708104"><ele>163.0</ele><time>2026-04-03T15:16:59.999Z</time></trkpt><trkpt lat="43.81577930920329" lon="12.584575474154168"><ele>162.25</ele><time>2026-04-03T15:17:00.999Z</time></trkpt><trkpt lat="43.815847419137945" lon="12.584767078730438"><ele>161.5</ele><time>2026-04-03T15:17:01.999Z</time></trkpt><trkpt lat="43.81593003234298" lon="12.584941214411115"><ele>160.75</ele><time>2026-04-03T15:17:02.999Z</time></trkpt><trkpt lat="43.815978128348554" lon="12.585129895935962"><ele>160.0</ele><time>2026-04-03T15:17:03.999Z</time></trkpt><trkpt lat="43.81601181028365" lon="12.585326215042786"><ele>163.5</ele><time>2026-04-03T15:17:05Z</time></trkpt><trkpt lat="43.81603280880812" lon="12.585523487499984"><ele>167.0</ele><time>2026-04-03T15:17:06Z</time></trkpt><trkpt lat="43.81603629519292" lon="12.585709453766134"><ele>170.5</ele><time>2026-04-03T15:17:07Z</time></trkpt><trkpt lat="43.816039587871686" lon="12.58588219229439"><ele>174.0</ele><time>2026-04-03T15:17:08Z</time></trkpt><trkpt lat="43.81604170202236" lon="12.586057776700464"><ele>172.5</ele><time>2026-04-03T15:17:09Z</time></trkpt><trkpt lat="43.816045069179594" lon="12.586235389674243"><ele>171.0</ele><time>2026-04-03T15:17:10Z</time></trkpt><trkpt lat="43.81605376983267" lon="12.58640376580551"><ele>169.5</ele><time>2026-04-03T15:17:11Z</time></trkpt><trkpt lat="43.81606436605697" lon="12.586570561279133"><ele>168.0</ele><time>2026-04-03T15:17:12Z</time></trkpt><trkpt lat="43.81608010753041" lon="12.586748807033933"><ele>168.0</ele><time>2026-04-03T15:17:13Z</time></trkpt><trkpt lat="43.81609207230371" lon="12.58693442602244"><ele>168.0</ele><time>2026-04-03T15:17:14Z</time></trkpt><trkpt lat="43.81609642805212" lon="12.5871248302317"><ele>168.0</ele><time>2026-04-03T15:17:15Z</time></trkpt><trkpt lat="43.81608654325587" lon="12.587312861207481"><ele>168.0</ele><time>2026-04-03T15:17:16Z</time></trkpt><trkpt lat="43.8160616650361" lon="12.587496301574069"><ele>167.25</ele><time>2026-04-03T15:17:17Z</time></trkpt><trkpt lat="43.81602591880107" lon="12.587675076352363"><ele>166.5</ele><time>2026-04-03T15:17:18Z</time></trkpt><trkpt lat="43.81596326015518" lon="12.587838037267307"><ele>165.75</ele><time>2026-04-03T15:17:19Z</time></trkpt><trkpt lat="43.815933263625446" lon="12.588004550767655"><ele>165.0</ele><time>2026-04-03T15:17:20Z</time></trkpt><trkpt lat="43.81589184289031" lon="12.588151221291595"><ele>163.8</ele><time>2026-04-03T15:17:21Z</time></trkpt><trkpt lat="43.815866595444014" lon="12.588294606351834"><ele>162.6</ele><time>2026-04-03T15:17:22Z</time></trkpt><trkpt lat="43.815850650030065" lon="12.58843810072081"><ele>161.4</ele><time>2026-04-03T15:17:23Z</time></trkpt><trkpt lat="43.81587961504221" lon="12.58859293669998"><ele>160.2</ele><time>2026-04-03T15:17:24Z</time></trkpt><trkpt lat="43.81594552531705" lon="12.58873341085074"><ele>159.0</ele><time>2026-04-03T15:17:25Z</time></trkpt><trkpt lat="43.816008064492785" lon="12.588874454372325"><ele>159.0</ele><time>2026-04-03T15:17:26Z</time></trkpt><trkpt lat="43.81605772507666" lon="12.589024279312493"><ele>159.0</ele><time>2026-04-03T15:17:27Z</time></trkpt><trkpt lat="43.81611921451257" lon="12.589165360532732"><ele>159.0</ele><time>2026-04-03T15:17:28Z</time></trkpt><trkpt lat="43.81617610847107" lon="12.589300694212211"><ele>159.0</ele><time>2026-04-03T15:17:29Z</time></trkpt><trkpt lat="43.81622230086195" lon="12.58941871026768"><ele>159.0</ele><time>2026-04-03T15:17:30Z</time></trkpt><trkpt lat="43.81625731562021" lon="12.589526648641886"><ele>157.75</ele><time>2026-04-03T15:17:31Z</time></trkpt><trkpt lat="43.81629024272482" lon="12.589669211673927"><ele>156.5</ele><time>2026-04-03T15:17:33Z</time></trkpt><trkpt lat="43.81647399908539" lon="12.589654552450144"><ele>155.25</ele><time>2026-04-03T15:17:35Z</time></trkpt><trkpt lat="43.816582379427686" lon="12.58968716443799"><ele>154.0</ele><time>2026-04-03T15:17:36Z</time></trkpt><trkpt lat="43.816716173070766" lon="12.589687702924131"><ele>154.25</ele><time>2026-04-03T15:17:37Z</time></trkpt><trkpt lat="43.81685732247331" lon="12.589693460470112"><ele>154.5</ele><time>2026-04-03T15:17:38Z</time></trkpt><trkpt lat="43.81699924083495" lon="12.589683175218084"><ele>154.75</ele><time>2026-04-03T15:17:39Z</time></trkpt><trkpt lat="43.817134389613535" lon="12.589665270337674"><ele>155.0</ele><time>2026-04-03T15:17:40Z</time></trkpt><trkpt lat="43.817257006937815" lon="12.589640110345563"><ele>155.0</ele><time>2026-04-03T15:17:41Z</time></trkpt><trkpt lat="43.817381712732484" lon="12.589605369058253"><ele>155.0</ele><time>2026-04-03T15:17:42Z</time></trkpt><trkpt lat="43.81751361240517" lon="12.589570533580593"><ele>155.0</ele><time>2026-04-03T15:17:43Z</time></trkpt><trkpt lat="43.81764688048215" lon="12.589537778906736"><ele>155.0</ele><time>2026-04-03T15:17:44Z</time></trkpt><trkpt lat="43.817780117200165" lon="12.589493358317819"><ele>156.5</ele><time>2026-04-03T15:17:45Z</time></trkpt><trkpt lat="43.81791494231614" lon="12.589442661585922"><ele>158.0</ele><time>2026-04-03T15:17:46Z</time></trkpt><trkpt lat="43.818049914293574" lon="12.589379726887737"><ele>159.5</ele><time>2026-04-03T15:17:47Z</time></trkpt><trkpt lat="43.818186122827484" lon="12.589315288793934"><ele>161.0</ele><time>2026-04-03T15:17:48Z</time></trkpt><trkpt lat="43.818330883210564" lon="12.589272524608324"><ele>161.0</ele><time>2026-04-03T15:17:49Z</time></trkpt><trkpt lat="43.81847872921485" lon="12.589256905692853"><ele>161.0</ele><time>2026-04-03T15:17:50Z</time></trkpt><trkpt lat="43.818618751970206" lon="12.58928182411011"><ele>161.0</ele><time>2026-04-03T15:17:51Z</time></trkpt><trkpt lat="43.818746375048505" lon="12.589326939822216"><ele>161.0</ele><time>2026-04-03T15:17:52Z</time></trkpt><trkpt lat="43.8188525069552" lon="12.589356095226174"><ele>162.25</ele><time>2026-04-03T15:17:53Z</time></trkpt><trkpt lat="43.818961331325674" lon="12.589389058634456"><ele>163.5</ele><time>2026-04-03T15:17:54Z</time></trkpt><trkpt lat="43.81908462039636" lon="12.589438073038727"><ele>164.75</ele><time>2026-04-03T15:17:55Z</time></trkpt><trkpt lat="43.81922142773375" lon="12.589486643917015"><ele>166.0</ele><time>2026-04-03T15:17:56Z</time></trkpt><trkpt lat="43.8193663944235" lon="12.589530826891744"><ele>163.0</ele><time>2026-04-03T15:17:57Z</time></trkpt><trkpt lat="43.81951919439096" lon="12.589567088482276"><ele>160.0</ele><time>2026-04-03T15:17:58Z</time></trkpt><trkpt lat="43.81965978899707" lon="12.589591909959951"><ele>157.0</ele><time>2026-04-03T15:17:58.999Z</time></trkpt><trkpt lat="43.819792561819774" lon="12.589616141988627"><ele>154.0</ele><time>2026-04-03T15:17:59.999Z</time></trkpt><trkpt lat="43.81992464840234" lon="12.589646120390219"><ele>154.0</ele><time>2026-04-03T15:18:00.999Z</time></trkpt><trkpt lat="43.820058159794655" lon="12.589672895784066"><ele>154.0</ele><time>2026-04-03T15:18:01.999Z</time></trkpt><trkpt lat="43.820187889175926" lon="12.5897033696229"><ele>154.0</ele><time>2026-04-03T15:18:02.999Z</time></trkpt><trkpt lat="43.82032654916726" lon="12.589740060444372"><ele>154.0</ele><time>2026-04-03T15:18:03.999Z</time></trkpt><trkpt lat="43.82047213843137" lon="12.589767889392775"><ele>154.33333333333334</ele><time>2026-04-03T15:18:04.999Z</time></trkpt><trkpt lat="43.82062769179292" lon="12.589809567193294"><ele>154.66666666666666</ele><time>2026-04-03T15:18:05.999Z</time></trkpt><trkpt lat="43.82078131220762" lon="12.589833098825945"><ele>155.0</ele><time>2026-04-03T15:18:06.999Z</time></trkpt><trkpt lat="43.820919754103215" lon="12.589856314396942"><ele>155.25</ele><time>2026-04-03T15:18:07.999Z</time></trkpt><trkpt lat="43.821052816416945" lon="12.589862145008016"><ele>155.5</ele><time>2026-04-03T15:18:08.999Z</time></trkpt><trkpt lat="43.82118012157784" lon="12.589835979759432"><ele>155.75</ele><time>2026-04-03T15:18:09.999Z</time></trkpt><trkpt lat="43.821313676603054" lon="12.589789614428609"><ele>156.0</ele><time>2026-04-03T15:18:10.999Z</time></trkpt><trkpt lat="43.82145751728673" lon="12.58975970883161"><ele>156.0</ele><time>2026-04-03T15:18:11.999Z</time></trkpt><trkpt lat="43.821601050031354" lon="12.589766343525291"><ele>156.0</ele><time>2026-04-03T15:18:12.999Z</time></trkpt><trkpt lat="43.821740789609464" lon="12.589784433285024"><ele>156.0</ele><time>2026-04-03T15:18:13.999Z</time></trkpt><trkpt lat="43.82186703841594" lon="12.58982046689076"><ele>156.0</ele><time>2026-04-03T15:18:14.999Z</time></trkpt><trkpt lat="43.82197780885349" lon="12.589891039040365"><ele>156.75</ele><time>2026-04-03T15:18:15.999Z</time></trkpt><trkpt lat="43.8220731073721" lon="12.589978567765328"><ele>157.5</ele><time>2026-04-03T15:18:16.999Z</time></trkpt><trkpt lat="43.82214375055323" lon="12.59011093308719"><ele>158.25</ele><time>2026-04-03T15:18:17.999Z</time></trkpt><trkpt lat="43.82220306126614" lon="12.59025268135815"><ele>159.0</ele><time>2026-04-03T15:18:18.999Z</time></trkpt><trkpt lat="43.82226843713707" lon="12.590401622687045"><ele>159.0</ele><time>2026-04-03T15:18:19.999Z</time></trkpt><trkpt lat="43.82231750887265" lon="12.590570162668685"><ele>159.0</ele><time>2026-04-03T15:18:20.999Z</time></trkpt><trkpt lat="43.822372200249454" lon="12.590740494392945"><ele>159.0</ele><time>2026-04-03T15:18:21.999Z</time></trkpt><trkpt lat="43.82243362614611" lon="12.590892158568128"><ele>159.0</ele><time>2026-04-03T15:18:22.999Z</time></trkpt><trkpt lat="43.82250938675358" lon="12.591003636508397"><ele>159.0</ele><time>2026-04-03T15:18:23.999Z</time></trkpt><trkpt lat="43.82260234279721" lon="12.591076749370739"><ele>159.0</ele><time>2026-04-03T15:18:24.999Z</time></trkpt><trkpt lat="43.82272412764562" lon="12.591109564599813"><ele>159.0</ele><time>2026-04-03T15:18:25.999Z</time></trkpt><trkpt lat="43.822861524914536" lon="12.591128988966021"><ele>159.0</ele><time>2026-04-03T15:18:26.999Z</time></trkpt><trkpt lat="43.8230057937903" lon="12.591153740957482"><ele>161.0</ele><time>2026-04-03T15:18:27.999Z</time></trkpt><trkpt lat="43.823155847295226" lon="12.591186461133109"><ele>163.0</ele><time>2026-04-03T15:18:28.999Z</time></trkpt><trkpt lat="43.82332193417694" lon="12.591214968320314"><ele>165.0</ele><time>2026-04-03T15:18:29.999Z</time></trkpt><trkpt lat="43.823467581780534" lon="12.591250463155296"><ele>165.75</ele><time>2026-04-03T15:18:30.999Z</time></trkpt><trkpt lat="43.82358487441103" lon="12.591310577784537"><ele>166.5</ele><time>2026-04-03T15:18:31.999Z</time></trkpt><trkpt lat="43.82369000119132" lon="12.591404548127816"><ele>167.25</ele><time>2026-04-03T15:18:32.999Z</time></trkpt><trkpt lat="43.82377791215797" lon="12.591545689478489"><ele>168.0</ele><time>2026-04-03T15:18:33.999Z</time></trkpt><trkpt lat="43.82386208648749" lon="12.591706690304234"><ele>168.0</ele><time>2026-04-03T15:18:34.999Z</time></trkpt><trkpt lat="43.82394247722759" lon="12.5918656566556"><ele>168.0</ele><time>2026-04-03T15:18:35.999Z</time></trkpt><trkpt lat="43.8240484261497" lon="12.591994289491588"><ele>168.0</ele><time>2026-04-03T15:18:36.999Z</time></trkpt><trkpt lat="43.82418021964766" lon="12.592092252147266"><ele>168.0</ele><time>2026-04-03T15:18:37.999Z</time></trkpt><trkpt lat="43.82432527835375" lon="12.592175446958402"><ele>169.0</ele><time>2026-04-03T15:18:38.999Z</time></trkpt><trkpt lat="43.82448104581177" lon="12.59223777737852"><ele>170.0</ele><time>2026-04-03T15:18:39.999Z</time></trkpt><trkpt lat="43.82464318006425" lon="12.592293885188102"><ele>171.0</ele><time>2026-04-03T15:18:40.999Z</time></trkpt><trkpt lat="43.82480345152292" lon="12.592342532177927"><ele>171.0</ele><time>2026-04-03T15:18:41.999Z</time></trkpt><trkpt lat="43.82495645880084" lon="12.592397356248584"><ele>171.0</ele><time>2026-04-03T15:18:42.999Z</time></trkpt><trkpt lat="43.825110107851465" lon="12.592407790872652"><ele>171.0</ele><time>2026-04-03T15:18:43.999Z</time></trkpt><trkpt lat="43.82523466755273" lon="12.592450790244065"><ele>171.0</ele><time>2026-04-03T15:18:44.999Z</time></trkpt><trkpt lat="43.82534433278021" lon="12.592435565892371"><ele>171.0</ele><time>2026-04-03T15:18:45.999Z</time></trkpt><trkpt lat="43.82543697269249" lon="12.592411250995887"><ele>171.0</ele><time>2026-04-03T15:18:46.999Z</time></trkpt><trkpt lat="43.82551432906591" lon="12.592349505917959"><ele>171.0</ele><time>2026-04-03T15:18:47.999Z</time></trkpt><trkpt lat="43.8255968732656" lon="12.592250822733135"><ele>171.0</ele><time>2026-04-03T15:18:48.999Z</time></trkpt><trkpt lat="43.8256849817001" lon="12.592111582689807"><ele>171.0</ele><time>2026-04-03T15:18:49.999Z</time></trkpt><trkpt lat="43.82578092860424" lon="12.591957631209603"><ele>171.0</ele><time>2026-04-03T15:18:50.999Z</time></trkpt><trkpt lat="43.82588578163204" lon="12.591790625045226"><ele>171.0</ele><time>2026-04-03T15:18:51.999Z</time></trkpt><trkpt lat="43.82599473863965" lon="12.591625843503559"><ele>171.0</ele><time>2026-04-03T15:18:52.999Z</time></trkpt><trkpt lat="43.826109487641624" lon="12.591478203180321"><ele>172.66666666666666</ele><time>2026-04-03T15:18:53.999Z</time></trkpt><trkpt lat="43.82624113171018" lon="12.591339370055497"><ele>174.33333333333331</ele><time>2026-04-03T15:18:54.999Z</time></trkpt><trkpt lat="43.82637654019338" lon="12.591200882839656"><ele>176.0</ele><time>2026-04-03T15:18:55.999Z</time></trkpt><trkpt lat="43.826512779293765" lon="12.591060722625986"><ele>176.0</ele><time>2026-04-03T15:18:56.999Z</time></trkpt><trkpt lat="43.82664931894037" lon="12.590918380135877"><ele>176.0</ele><time>2026-04-03T15:18:57.999Z</time></trkpt><trkpt lat="43.82678330244662" lon="12.590774741136869"><ele>176.0</ele><time>2026-04-03T15:18:58.999Z</time></trkpt><trkpt lat="43.82690377249482" lon="12.590617100807217"><ele>179.0</ele><time>2026-04-03T15:18:59.999Z</time></trkpt><trkpt lat="43.8270142616604" lon="12.590445689338843"><ele>182.0</ele><time>2026-04-03T15:19:00.999Z</time></trkpt><trkpt lat="43.827114449429814" lon="12.590256753416034"><ele>185.0</ele><time>2026-04-03T15:19:01.999Z</time></trkpt><trkpt lat="43.82720441255481" lon="12.59005069039763"><ele>185.0</ele><time>2026-04-03T15:19:02.999Z</time></trkpt><trkpt lat="43.827291224443606" lon="12.589834139118274"><ele>185.0</ele><time>2026-04-03T15:19:03.999Z</time></trkpt><trkpt lat="43.82738179172823" lon="12.58961018666531"><ele>185.0</ele><time>2026-04-03T15:19:04.999Z</time></trkpt><trkpt lat="43.827471036376515" lon="12.58938005804249"><ele>185.33333333333331</ele><time>2026-04-03T15:19:05.999Z</time></trkpt><trkpt lat="43.82756114440308" lon="12.58915845479469"><ele>185.66666666666666</ele><time>2026-04-03T15:19:06.999Z</time></trkpt><trkpt lat="43.82766362661935" lon="12.588940973554777"><ele>186.0</ele><time>2026-04-03T15:19:07.999Z</time></trkpt><trkpt lat="43.827779804854806" lon="12.58871518997575"><ele>187.33333333333334</ele><time>2026-04-03T15:19:08.999Z</time></trkpt><trkpt lat="43.827896994193075" lon="12.588486766314311"><ele>188.66666666666669</ele><time>2026-04-03T15:19:09.999Z</time></trkpt><trkpt lat="43.827999874151395" lon="12.588253485504854"><ele>190.0</ele><time>2026-04-03T15:19:11Z</time></trkpt><trkpt lat="43.828077002781306" lon="12.588028891816679"><ele>189.66666666666669</ele><time>2026-04-03T15:19:12Z</time></trkpt><trkpt lat="43.82813707205754" lon="12.587796604546552"><ele>189.33333333333334</ele><time>2026-04-03T15:19:13Z</time></trkpt><trkpt lat="43.82819295385695" lon="12.58755428806749"><ele>189.0</ele><time>2026-04-03T15:19:14Z</time></trkpt><trkpt lat="43.82824334009409" lon="12.587315098857184"><ele>189.0</ele><time>2026-04-03T15:19:15Z</time></trkpt><trkpt lat="43.82827591357625" lon="12.58711042303432"><ele>189.0</ele><time>2026-04-03T15:19:16Z</time></trkpt><trkpt lat="43.82829728090447" lon="12.586937159793324"><ele>189.0</ele><time>2026-04-03T15:19:17Z</time></trkpt><trkpt lat="43.82832461940557" lon="12.586797195638304"><ele>189.0</ele><time>2026-04-03T15:19:18Z</time></trkpt><trkpt lat="43.82837340695465" lon="12.586676557521653"><ele>189.25</ele><time>2026-04-03T15:19:19Z</time></trkpt><trkpt lat="43.82843818170813" lon="12.586556925975543"><ele>189.5</ele><time>2026-04-03T15:19:20Z</time></trkpt><trkpt lat="43.82846763406261" lon="12.586389354501339"><ele>189.75</ele><time>2026-04-03T15:19:21Z</time></trkpt><trkpt lat="43.82845521291789" lon="12.586186225595215"><ele>190.0</ele><time>2026-04-03T15:19:22Z</time></trkpt><trkpt lat="43.82843345040323" lon="12.585968459929314"><ele>191.0</ele><time>2026-04-03T15:19:23Z</time></trkpt><trkpt lat="43.82841190031254" lon="12.585776603103925"><ele>192.0</ele><time>2026-04-03T15:19:24Z</time></trkpt><trkpt lat="43.82841100968844" lon="12.585604557536511"><ele>193.0</ele><time>2026-04-03T15:19:25Z</time></trkpt><trkpt lat="43.82844443547511" lon="12.585456189276025"><ele>194.0</ele><time>2026-04-03T15:19:26Z</time></trkpt><trkpt lat="43.82851104470342" lon="12.585357332811395"><ele>194.5</ele><time>2026-04-03T15:19:27Z</time></trkpt><trkpt lat="43.8286175895227" lon="12.58529868278029"><ele>195.0</ele><time>2026-04-03T15:19:28Z</time></trkpt><trkpt lat="43.82874347614447" lon="12.585252338205096"><ele>195.5</ele><time>2026-04-03T15:19:29Z</time></trkpt><trkpt lat="43.828880781106264" lon="12.585188336832633"><ele>196.0</ele><time>2026-04-03T15:19:30Z</time></trkpt><trkpt lat="43.82902770684956" lon="12.5851283436313"><ele>196.0</ele><time>2026-04-03T15:19:31Z</time></trkpt><trkpt lat="43.829161914114174" lon="12.585072549606018"><ele>196.0</ele><time>2026-04-03T15:19:32Z</time></trkpt><trkpt lat="43.82929388099905" lon="12.585009552085111"><ele>196.0</ele><time>2026-04-03T15:19:33Z</time></trkpt><trkpt lat="43.8294277518436" lon="12.584943405028024"><ele>196.0</ele><time>2026-04-03T15:19:34Z</time></trkpt><trkpt lat="43.829543242045794" lon="12.584889027212483"><ele>196.60000000000002</ele><time>2026-04-03T15:19:35Z</time></trkpt><trkpt lat="43.82963838726552" lon="12.584868960843275"><ele>197.2</ele><time>2026-04-03T15:19:36Z</time></trkpt><trkpt lat="43.82972147311003" lon="12.584884991289837"><ele>197.8</ele><time>2026-04-03T15:19:38Z</time></trkpt><trkpt lat="43.829642267766786" lon="12.585036324219837"><ele>198.39999999999998</ele><time>2026-04-03T15:19:41Z</time></trkpt><trkpt lat="43.829565285400484" lon="12.585111571643479"><ele>199.0</ele><time>2026-04-03T15:19:42Z</time></trkpt><trkpt lat="43.829496463142014" lon="12.585225303307535"><ele>199.0</ele><time>2026-04-03T15:19:43Z</time></trkpt><trkpt lat="43.82943341363634" lon="12.58533668282879"><ele>199.0</ele><time>2026-04-03T15:19:44Z</time></trkpt><trkpt lat="43.82941419533782" lon="12.585494690136288"><ele>199.0</ele><time>2026-04-03T15:19:45Z</time></trkpt><trkpt lat="43.82942137243084" lon="12.585672318857554"><ele>199.0</ele><time>2026-04-03T15:19:46Z</time></trkpt><trkpt lat="43.829454364819526" lon="12.585860113750932"><ele>200.25</ele><time>2026-04-03T15:19:47Z</time></trkpt><trkpt lat="43.82949867328575" lon="12.586038836530925"><ele>201.5</ele><time>2026-04-03T15:19:48Z</time></trkpt><trkpt lat="43.829538418491786" lon="12.586210846230879"><ele>202.75</ele><time>2026-04-03T15:19:49Z</time></trkpt><trkpt lat="43.8295765845791" lon="12.586389940441343"><ele>204.0</ele><time>2026-04-03T15:19:50Z</time></trkpt><trkpt lat="43.829604948705004" lon="12.586574188868289"><ele>206.25</ele><time>2026-04-03T15:19:51Z</time></trkpt><trkpt lat="43.82959812749491" lon="12.586743587567396"><ele>208.5</ele><time>2026-04-03T15:19:52Z</time></trkpt><trkpt lat="43.829559155190324" lon="12.586914790699838"><ele>210.75</ele><time>2026-04-03T15:19:53Z</time></trkpt><trkpt lat="43.82953778585962" lon="12.587097452388571"><ele>213.0</ele><time>2026-04-03T15:19:54Z</time></trkpt><trkpt lat="43.829522572343514" lon="12.587263345944201"><ele>214.5</ele><time>2026-04-03T15:19:55Z</time></trkpt><trkpt lat="43.82951392076094" lon="12.587416665561445"><ele>216.0</ele><time>2026-04-03T15:19:56Z</time></trkpt><trkpt lat="43.829526954414916" lon="12.587614245703165"><ele>217.5</ele><time>2026-04-03T15:19:57Z</time></trkpt><trkpt lat="43.82953495024737" lon="12.587812268702958"><ele>219.0</ele><time>2026-04-03T15:19:58Z</time></trkpt><trkpt lat="43.829545363840616" lon="12.587978196735136"><ele>221.0</ele><time>2026-04-03T15:19:59Z</time></trkpt><trkpt lat="43.82953670578477" lon="12.588168013586005"><ele>223.0</ele><time>2026-04-03T15:20:00Z</time></trkpt><trkpt lat="43.8295304949982" lon="12.588368651526027"><ele>225.0</ele><time>2026-04-03T15:20:01Z</time></trkpt><trkpt lat="43.82952971661774" lon="12.588580858876714"><ele>227.0</ele><time>2026-04-03T15:20:02Z</time></trkpt><trkpt lat="43.82954321738117" lon="12.58879869376524"><ele>227.75</ele><time>2026-04-03T15:20:03Z</time></trkpt><trkpt lat="43.82953286087777" lon="12.589020984977378"><ele>228.5</ele><time>2026-04-03T15:20:04Z</time></trkpt><trkpt lat="43.829509241058254" lon="12.589217745837965"><ele>229.25</ele><time>2026-04-03T15:20:05Z</time></trkpt><trkpt lat="43.82950083685831" lon="12.589379940258963"><ele>230.0</ele><time>2026-04-03T15:20:06Z</time></trkpt><trkpt lat="43.82952188614899" lon="12.58953716039"><ele>231.75</ele><time>2026-04-03T15:20:07Z</time></trkpt><trkpt lat="43.82956941617717" lon="12.589702722221771"><ele>233.5</ele><time>2026-04-03T15:20:07.999Z</time></trkpt><trkpt lat="43.82961034373133" lon="12.589897694798092"><ele>235.25</ele><time>2026-04-03T15:20:08.999Z</time></trkpt><trkpt lat="43.82967478337093" lon="12.590112176476392"><ele>237.0</ele><time>2026-04-03T15:20:09.999Z</time></trkpt><trkpt lat="43.82976039056817" lon="12.590330816599394"><ele>239.33333333333331</ele><time>2026-04-03T15:20:10.999Z</time></trkpt><trkpt lat="43.829810410581594" lon="12.590562404744768"><ele>241.66666666666666</ele><time>2026-04-03T15:20:11.999Z</time></trkpt><trkpt lat="43.829873885194736" lon="12.590781523616444"><ele>244.0</ele><time>2026-04-03T15:20:12.999Z</time></trkpt><trkpt lat="43.82994000439392" lon="12.590993368995276"><ele>245.75</ele><time>2026-04-03T15:20:13.999Z</time></trkpt><trkpt lat="43.83000188363318" lon="12.591179653046423"><ele>247.5</ele><time>2026-04-03T15:20:14.999Z</time></trkpt><trkpt lat="43.830061864119095" lon="12.591361519495523"><ele>249.25</ele><time>2026-04-03T15:20:15.999Z</time></trkpt><trkpt lat="43.83012058781703" lon="12.591544126283038"><ele>251.0</ele><time>2026-04-03T15:20:16.999Z</time></trkpt><trkpt lat="43.830182077991346" lon="12.591720782405018"><ele>251.5</ele><time>2026-04-03T15:20:17.999Z</time></trkpt><trkpt lat="43.830253874305164" lon="12.5918757555892"><ele>252.0</ele><time>2026-04-03T15:20:18.999Z</time></trkpt><trkpt lat="43.8303419962807" lon="12.592010987720057"><ele>252.5</ele><time>2026-04-03T15:20:19.999Z</time></trkpt><trkpt lat="43.830443226066016" lon="12.592143069656087"><ele>253.0</ele><time>2026-04-03T15:20:20.999Z</time></trkpt><trkpt lat="43.83055316622719" lon="12.592277782883984"><ele>254.0</ele><time>2026-04-03T15:20:21.999Z</time></trkpt><trkpt lat="43.8306795049118" lon="12.59240182158757"><ele>255.0</ele><time>2026-04-03T15:20:22.999Z</time></trkpt><trkpt lat="43.830800266071485" lon="12.592548773342944"><ele>256.0</ele><time>2026-04-03T15:20:23.999Z</time></trkpt><trkpt lat="43.83092889887591" lon="12.59268002728972"><ele>255.25</ele><time>2026-04-03T15:20:24.999Z</time></trkpt><trkpt lat="43.83105617568375" lon="12.592778307235884"><ele>254.5</ele><time>2026-04-03T15:20:25.999Z</time></trkpt><trkpt lat="43.83117307146016" lon="12.592846280329768"><ele>253.75</ele><time>2026-04-03T15:20:26.999Z</time></trkpt><trkpt lat="43.831283528879105" lon="12.592879239655844"><ele>253.0</ele><time>2026-04-03T15:20:27.999Z</time></trkpt><trkpt lat="43.83140414461211" lon="12.592883694631425"><ele>253.0</ele><time>2026-04-03T15:20:28.999Z</time></trkpt><trkpt lat="43.831535344860164" lon="12.592844683558523"><ele>253.0</ele><time>2026-04-03T15:20:29.999Z</time></trkpt><trkpt lat="43.831682075858325" lon="12.592813570495132"><ele>253.0</ele><time>2026-04-03T15:20:30.999Z</time></trkpt><trkpt lat="43.83183970903072" lon="12.592780360734327"><ele>253.0</ele><time>2026-04-03T15:20:31.999Z</time></trkpt><trkpt lat="43.831995007609315" lon="12.59273768304667"><ele>257.25</ele><time>2026-04-03T15:20:32.999Z</time></trkpt><trkpt lat="43.83214196301445" lon="12.592697377945507"><ele>261.5</ele><time>2026-04-03T15:20:33.999Z</time></trkpt><trkpt lat="43.83227987202625" lon="12.592625176663518"><ele>265.75</ele><time>2026-04-03T15:20:34.999Z</time></trkpt><trkpt lat="43.832418751282745" lon="12.592564933082304"><ele>270.0</ele><time>2026-04-03T15:20:35.999Z</time></trkpt><trkpt lat="43.83254794057735" lon="12.592478676855006"><ele>272.25</ele><time>2026-04-03T15:20:36.999Z</time></trkpt><trkpt lat="43.832671195329574" lon="12.59237660367567"><ele>274.5</ele><time>2026-04-03T15:20:37.999Z</time></trkpt><trkpt lat="43.832785496927656" lon="12.592319148746098"><ele>276.75</ele><time>2026-04-03T15:20:38.999Z</time></trkpt><trkpt lat="43.83289271595261" lon="12.592328559976377"><ele>279.0</ele><time>2026-04-03T15:20:39.999Z</time></trkpt><trkpt lat="43.833002053737154" lon="12.592336098998627"><ele>279.0</ele><time>2026-04-03T15:20:40.999Z</time></trkpt><trkpt lat="43.8331173536093" lon="12.592292994419859"><ele>279.0</ele><time>2026-04-03T15:20:41.999Z</time></trkpt><trkpt lat="43.83322709970279" lon="12.592214193928783"><ele>279.0</ele><time>2026-04-03T15:20:42.999Z</time></trkpt><trkpt lat="43.83331056503209" lon="12.592146175651765"><ele>279.0</ele><time>2026-04-03T15:20:43.999Z</time></trkpt><trkpt lat="43.833380399383664" lon="12.592080664615144"><ele>279.0</ele><time>2026-04-03T15:20:44.999Z</time></trkpt><trkpt lat="43.83346019829006" lon="12.592011851818087"><ele>280.5</ele><time>2026-04-03T15:20:45.999Z</time></trkpt><trkpt lat="43.83357157997018" lon="12.591960438720818"><ele>282.0</ele><time>2026-04-03T15:20:46.999Z</time></trkpt><trkpt lat="43.83368793330929" lon="12.591904304753001"><ele>283.5</ele><time>2026-04-03T15:20:47.999Z</time></trkpt><trkpt lat="43.83381303990817" lon="12.591864820572837"><ele>285.0</ele><time>2026-04-03T15:20:48.999Z</time></trkpt><trkpt lat="43.83391783569345" lon="12.591837702886112"><ele>285.0</ele><time>2026-04-03T15:20:49.999Z</time></trkpt><trkpt lat="43.83402645031791" lon="12.591896699955441"><ele>285.0</ele><time>2026-04-03T15:20:50.999Z</time></trkpt><trkpt lat="43.834135478565884" lon="12.59197022883801"><ele>285.0</ele><time>2026-04-03T15:20:51.999Z</time></trkpt><trkpt lat="43.834248705081905" lon="12.592072315356416"><ele>285.0</ele><time>2026-04-03T15:20:52.999Z</time></trkpt><trkpt lat="43.834364334757154" lon="12.592172787783364"><ele>288.5</ele><time>2026-04-03T15:20:53.999Z</time></trkpt><trkpt lat="43.83446862028799" lon="12.592233417570839"><ele>292.0</ele><time>2026-04-03T15:20:54.999Z</time></trkpt><trkpt lat="43.83458772371475" lon="12.592250386160565"><ele>295.5</ele><time>2026-04-03T15:20:55.999Z</time></trkpt><trkpt lat="43.834705957511794" lon="12.592297021906614"><ele>299.0</ele><time>2026-04-03T15:20:56.999Z</time></trkpt><trkpt lat="43.8348334125108" lon="12.592328329240305"><ele>299.0</ele><time>2026-04-03T15:20:57.999Z</time></trkpt><trkpt lat="43.83496685000688" lon="12.59236238674922"><ele>299.0</ele><time>2026-04-03T15:20:58.999Z</time></trkpt><trkpt lat="43.83511366261861" lon="12.592376919195067"><ele>299.0</ele><time>2026-04-03T15:20:59.999Z</time></trkpt><trkpt lat="43.83525941129916" lon="12.59242283062437"><ele>299.0</ele><time>2026-04-03T15:21:00.999Z</time></trkpt><trkpt lat="43.8354075020985" lon="12.592469264791983"><ele>302.25</ele><time>2026-04-03T15:21:01.999Z</time></trkpt><trkpt lat="43.835551566428" lon="12.5925295878479"><ele>305.5</ele><time>2026-04-03T15:21:02.999Z</time></trkpt><trkpt lat="43.83569605835889" lon="12.592591862431837"><ele>308.75</ele><time>2026-04-03T15:21:03.999Z</time></trkpt><trkpt lat="43.83582199427698" lon="12.59266587947894"><ele>312.0</ele><time>2026-04-03T15:21:04.999Z</time></trkpt><trkpt lat="43.8359543969522" lon="12.592686981925434"><ele>316.0</ele><time>2026-04-03T15:21:05.999Z</time></trkpt><trkpt lat="43.83608292141616" lon="12.592641683425336"><ele>320.0</ele><time>2026-04-03T15:21:06.999Z</time></trkpt><trkpt lat="43.83621257666232" lon="12.592586108869817"><ele>324.0</ele><time>2026-04-03T15:21:07.999Z</time></trkpt><trkpt lat="43.836352370853355" lon="12.592561775332163"><ele>328.0</ele><time>2026-04-03T15:21:08.999Z</time></trkpt><trkpt lat="43.83649211291715" lon="12.592499662931456"><ele>328.0</ele><time>2026-04-03T15:21:09.999Z</time></trkpt><trkpt lat="43.836625634843635" lon="12.592461910212887"><ele>328.0</ele><time>2026-04-03T15:21:10.999Z</time></trkpt><trkpt lat="43.83675573910128" lon="12.59245060030548"><ele>328.0</ele><time>2026-04-03T15:21:11.999Z</time></trkpt><trkpt lat="43.83685607034986" lon="12.592438375043889"><ele>328.0</ele><time>2026-04-03T15:21:12.999Z</time></trkpt><trkpt lat="43.83694101243324" lon="12.59242980456612"><ele>330.2</ele><time>2026-04-03T15:21:13.999Z</time></trkpt><trkpt lat="43.83700911710246" lon="12.592473122253368"><ele>332.4</ele><time>2026-04-03T15:21:14.999Z</time></trkpt><trkpt lat="43.8370674081909" lon="12.5925739774367"><ele>334.59999999999997</ele><time>2026-04-03T15:21:15.999Z</time></trkpt><trkpt lat="43.83714091533385" lon="12.592684334286844"><ele>336.79999999999995</ele><time>2026-04-03T15:21:17Z</time></trkpt><trkpt lat="43.8372362076498" lon="12.592791448586928"><ele>339.0</ele><time>2026-04-03T15:21:18Z</time></trkpt><trkpt lat="43.837328934507354" lon="12.592926661357165"><ele>339.75</ele><time>2026-04-03T15:21:19Z</time></trkpt><trkpt lat="43.8374523754274" lon="12.593023405385404"><ele>340.5</ele><time>2026-04-03T15:21:20Z</time></trkpt><trkpt lat="43.83757864205214" lon="12.593087056942672"><ele>341.25</ele><time>2026-04-03T15:21:21Z</time></trkpt><trkpt lat="43.837703244118025" lon="12.593151678843896"><ele>342.0</ele><time>2026-04-03T15:21:22Z</time></trkpt><trkpt lat="43.837812291445516" lon="12.593223368086448"><ele>342.75</ele><time>2026-04-03T15:21:23Z</time></trkpt><trkpt lat="43.83790756856705" lon="12.59332192848573"><ele>343.5</ele><time>2026-04-03T15:21:24Z</time></trkpt><trkpt lat="43.83798319318955" lon="12.593462696425076"><ele>344.25</ele><time>2026-04-03T15:21:25Z</time></trkpt><trkpt lat="43.83807120186916" lon="12.593575813960063"><ele>345.0</ele><time>2026-04-03T15:21:26Z</time></trkpt><trkpt lat="43.8381547940603" lon="12.593673386066092"><ele>345.0</ele><time>2026-04-03T15:21:27Z</time></trkpt><trkpt lat="43.83825971408737" lon="12.593761534676412"><ele>345.0</ele><time>2026-04-03T15:21:28Z</time></trkpt><trkpt lat="43.83839909977503" lon="12.593774821149367"><ele>345.0</ele><time>2026-04-03T15:21:29Z</time></trkpt><trkpt lat="43.83854156470021" lon="12.59382781567968"><ele>345.0</ele><time>2026-04-03T15:21:30Z</time></trkpt><trkpt lat="43.838693190579164" lon="12.593879149224177"><ele>352.3333333333333</ele><time>2026-04-03T15:21:31Z</time></trkpt><trkpt lat="43.83884877788203" lon="12.593958829142403"><ele>359.66666666666663</ele><time>2026-04-03T15:21:32Z</time></trkpt><trkpt lat="43.83899453500593" lon="12.594029636293952"><ele>367.0</ele><time>2026-04-03T15:21:33Z</time></trkpt><trkpt lat="43.83914698039638" lon="12.594061938011013"><ele>367.0</ele><time>2026-04-03T15:21:34Z</time></trkpt><trkpt lat="43.83927076524457" lon="12.594084147034337"><ele>367.0</ele><time>2026-04-03T15:21:35Z</time></trkpt><trkpt lat="43.8393750097961" lon="12.594132044050479"><ele>367.0</ele><time>2026-04-03T15:21:36Z</time></trkpt><trkpt lat="43.839480828928316" lon="12.594197750265046"><ele>367.0</ele><time>2026-04-03T15:21:37Z</time></trkpt><trkpt lat="43.8395719918417" lon="12.594284278839545"><ele>369.0</ele><time>2026-04-03T15:21:38Z</time></trkpt><trkpt lat="43.839689204693315" lon="12.594359189670696"><ele>371.0</ele><time>2026-04-03T15:21:39Z</time></trkpt><trkpt lat="43.839841506160255" lon="12.594375101372469"><ele>373.0</ele><time>2026-04-03T15:21:40Z</time></trkpt><trkpt lat="43.839996593008756" lon="12.594353534729729"><ele>375.0</ele><time>2026-04-03T15:21:41Z</time></trkpt><trkpt lat="43.84015002490222" lon="12.594399837598905"><ele>376.5</ele><time>2026-04-03T15:21:42Z</time></trkpt><trkpt lat="43.840289569448146" lon="12.594454043264534"><ele>378.0</ele><time>2026-04-03T15:21:43Z</time></trkpt><trkpt lat="43.84041901318033" lon="12.594513573535467"><ele>379.5</ele><time>2026-04-03T15:21:44Z</time></trkpt><trkpt lat="43.84055071952873" lon="12.59457211879554"><ele>381.0</ele><time>2026-04-03T15:21:45Z</time></trkpt><trkpt lat="43.8406839899338" lon="12.594616457022765"><ele>381.75</ele><time>2026-04-03T15:21:46Z</time></trkpt><trkpt lat="43.84081591980225" lon="12.594624674261633"><ele>382.5</ele><time>2026-04-03T15:21:47Z</time></trkpt><trkpt lat="43.84094188219925" lon="12.59466162296631"><ele>383.25</ele><time>2026-04-03T15:21:48Z</time></trkpt><trkpt lat="43.84104852946066" lon="12.594666580443194"><ele>384.0</ele><time>2026-04-03T15:21:49Z</time></trkpt><trkpt lat="43.841149948746704" lon="12.594655342642191"><ele>386.5</ele><time>2026-04-03T15:21:50Z</time></trkpt><trkpt lat="43.841244203847765" lon="12.594648699039682"><ele>389.0</ele><time>2026-04-03T15:21:51Z</time></trkpt><trkpt lat="43.84131988528535" lon="12.594668023870808"><ele>391.5</ele><time>2026-04-03T15:21:52Z</time></trkpt><trkpt lat="43.84136276851905" lon="12.594743737549763"><ele>394.0</ele><time>2026-04-03T15:21:53Z</time></trkpt><trkpt lat="43.841384467228984" lon="12.594838255239448"><ele>396.5</ele><time>2026-04-03T15:21:54Z</time></trkpt><trkpt lat="43.84142597861661" lon="12.594969780899207"><ele>399.0</ele><time>2026-04-03T15:21:55Z</time></trkpt><trkpt lat="43.84145496730714" lon="12.59513727644464"><ele>399.0</ele><time>2026-04-03T15:21:56Z</time></trkpt><trkpt lat="43.84152158477378" lon="12.595280408642257"><ele>399.0</ele><time>2026-04-03T15:21:57Z</time></trkpt><trkpt lat="43.84156881990053" lon="12.595425848450823"><ele>399.0</ele><time>2026-04-03T15:21:58Z</time></trkpt><trkpt lat="43.84165237217883" lon="12.595539157135562"><ele>399.0</ele><time>2026-04-03T15:21:59Z</time></trkpt><trkpt lat="43.84173346944877" lon="12.595650364136528"><ele>401.4</ele><time>2026-04-03T15:22:00Z</time></trkpt><trkpt lat="43.841802537088626" lon="12.595770963541462"><ele>403.79999999999995</ele><time>2026-04-03T15:22:01Z</time></trkpt><trkpt lat="43.8418866480408" lon="12.595872488245359"><ele>406.20000000000005</ele><time>2026-04-03T15:22:02Z</time></trkpt><trkpt lat="43.84197076469215" lon="12.59596945719795"><ele>408.6</ele><time>2026-04-03T15:22:03Z</time></trkpt><trkpt lat="43.84205535811593" lon="12.596064712905488"><ele>411.0</ele><time>2026-04-03T15:22:04Z</time></trkpt><trkpt lat="43.84214099670674" lon="12.596159520622201"><ele>410.0</ele><time>2026-04-03T15:22:05Z</time></trkpt><trkpt lat="43.842222100261736" lon="12.596248938290932"><ele>409.0</ele><time>2026-04-03T15:22:06Z</time></trkpt><trkpt lat="43.84229142167028" lon="12.596322603195532"><ele>408.0</ele><time>2026-04-03T15:22:07Z</time></trkpt><trkpt lat="43.84234560078596" lon="12.59637861778861"><ele>407.0</ele><time>2026-04-03T15:22:08Z</time></trkpt><trkpt lat="43.8424097169685" lon="12.596444059664417"><ele>406.0</ele><time>2026-04-03T15:22:16.999Z</time></trkpt><trkpt lat="43.84253035890394" lon="12.596245089477778"><ele>405.6</ele><time>2026-04-03T15:22:18.999Z</time></trkpt><trkpt lat="43.84258153347777" lon="12.596131434227473"><ele>405.20000000000005</ele><time>2026-04-03T15:22:19.999Z</time></trkpt><trkpt lat="43.84263559394321" lon="12.596020151179884"><ele>404.79999999999995</ele><time>2026-04-03T15:22:20.999Z</time></trkpt><trkpt lat="43.842694477174334" lon="12.595899569041451"><ele>404.4</ele><time>2026-04-03T15:22:21.999Z</time></trkpt><trkpt lat="43.842755020808816" lon="12.595772206148919"><ele>404.0</ele><time>2026-04-03T15:22:22.999Z</time></trkpt><trkpt lat="43.842818544140094" lon="12.59563656622954"><ele>404.0</ele><time>2026-04-03T15:22:23.999Z</time></trkpt><trkpt lat="43.84288160609087" lon="12.595496200823845"><ele>404.0</ele><time>2026-04-03T15:22:24.999Z</time></trkpt><trkpt lat="43.84294187530758" lon="12.595369572612322"><ele>404.0</ele><time>2026-04-03T15:22:25.999Z</time></trkpt><trkpt lat="43.84299998439522" lon="12.595258108444387"><ele>404.0</ele><time>2026-04-03T15:22:26.999Z</time></trkpt><trkpt lat="43.8430664312569" lon="12.595149210487417"><ele>404.0</ele><time>2026-04-03T15:22:27.999Z</time></trkpt><trkpt lat="43.843138128962856" lon="12.595050099268459"><ele>403.6</ele><time>2026-04-03T15:22:28.999Z</time></trkpt><trkpt lat="43.84320918057388" lon="12.594953670543884"><ele>403.2</ele><time>2026-04-03T15:22:29.999Z</time></trkpt><trkpt lat="43.843277798355714" lon="12.59485992400861"><ele>402.8</ele><time>2026-04-03T15:22:30.999Z</time></trkpt><trkpt lat="43.84335424943795" lon="12.59477161929917"><ele>402.40000000000003</ele><time>2026-04-03T15:22:31.999Z</time></trkpt><trkpt lat="43.84342939954093" lon="12.594675752227968"><ele>402.0</ele><time>2026-04-03T15:22:32.999Z</time></trkpt><trkpt lat="43.843499861812056" lon="12.594567760488244"><ele>405.0</ele><time>2026-04-03T15:22:33.999Z</time></trkpt><trkpt lat="43.843573340122475" lon="12.594459398278055"><ele>408.0</ele><time>2026-04-03T15:22:34.999Z</time></trkpt><trkpt lat="43.84364247440402" lon="12.59435525755059"><ele>411.0</ele><time>2026-04-03T15:22:35.999Z</time></trkpt><trkpt lat="43.843703093251214" lon="12.594254643976004"><ele>414.0</ele><time>2026-04-03T15:22:36.999Z</time></trkpt><trkpt lat="43.84375905206543" lon="12.594151809969986"><ele>417.0</ele><time>2026-04-03T15:22:37.999Z</time></trkpt><trkpt lat="43.843820954303816" lon="12.59405409591269"><ele>417.0</ele><time>2026-04-03T15:22:38.999Z</time></trkpt><trkpt lat="43.84389139070924" lon="12.593961667179649"><ele>417.0</ele><time>2026-04-03T15:22:39.999Z</time></trkpt><trkpt lat="43.84395951481142" lon="12.593873307718871"><ele>417.0</ele><time>2026-04-03T15:22:40.999Z</time></trkpt><trkpt lat="43.84403816760022" lon="12.593803330908264"><ele>417.0</ele><time>2026-04-03T15:22:41.999Z</time></trkpt><trkpt lat="43.844128189692974" lon="12.593743634491723"><ele>417.0</ele><time>2026-04-03T15:22:42.999Z</time></trkpt><trkpt lat="43.844224830901" lon="12.593683236847877"><ele>416.5</ele><time>2026-04-03T15:22:43.999Z</time></trkpt><trkpt lat="43.844325940036285" lon="12.593638483439511"><ele>416.0</ele><time>2026-04-03T15:22:44.999Z</time></trkpt><trkpt lat="43.84442732461338" lon="12.59356685535425"><ele>415.5</ele><time>2026-04-03T15:22:45.999Z</time></trkpt><trkpt lat="43.844532310588406" lon="12.593495001282138"><ele>415.0</ele><time>2026-04-03T15:22:46.999Z</time></trkpt><trkpt lat="43.84464275618808" lon="12.593420303012262"><ele>415.0</ele><time>2026-04-03T15:22:47.999Z</time></trkpt><trkpt lat="43.84475452147251" lon="12.5933455907413"><ele>415.0</ele><time>2026-04-03T15:22:48.999Z</time></trkpt><trkpt lat="43.84486778582319" lon="12.593269876416628"><ele>415.0</ele><time>2026-04-03T15:22:49.999Z</time></trkpt><trkpt lat="43.84498471918623" lon="12.593190397800013"><ele>415.0</ele><time>2026-04-03T15:22:50.999Z</time></trkpt><trkpt lat="43.84509748469723" lon="12.593113581146685"><ele>414.8</ele><time>2026-04-03T15:22:51.999Z</time></trkpt><trkpt lat="43.84519701699302" lon="12.593045779177165"><ele>414.6</ele><time>2026-04-03T15:22:52.999Z</time></trkpt><trkpt lat="43.84529358901581" lon="12.592979677939361"><ele>414.4</ele><time>2026-04-03T15:22:53.999Z</time></trkpt><trkpt lat="43.84538607345972" lon="12.592916298176656"><ele>414.2</ele><time>2026-04-03T15:22:54.999Z</time></trkpt><trkpt lat="43.84546489174046" lon="12.592840330389272"><ele>414.0</ele><time>2026-04-03T15:22:55.999Z</time></trkpt><trkpt lat="43.845554074412114" lon="12.592796242952215"><ele>414.0</ele><time>2026-04-03T15:22:56.999Z</time></trkpt><trkpt lat="43.84564290361356" lon="12.59274309127839"><ele>414.0</ele><time>2026-04-03T15:22:57.999Z</time></trkpt><trkpt lat="43.84572434809306" lon="12.59269111005507"><ele>414.0</ele><time>2026-04-03T15:22:58.999Z</time></trkpt><trkpt lat="43.84579422666476" lon="12.592653055261119"><ele>414.0</ele><time>2026-04-03T15:22:59.999Z</time></trkpt><trkpt lat="43.84589322394913" lon="12.592586043354862"><ele>414.0</ele><time>2026-04-03T15:23:01.999Z</time></trkpt><trkpt lat="43.845977868525466" lon="12.59265907164242"><ele>414.0</ele><time>2026-04-03T15:23:02.999Z</time></trkpt><trkpt lat="43.84606751054523" lon="12.59269308631938"><ele>414.0</ele><time>2026-04-03T15:23:04.999Z</time></trkpt><trkpt lat="43.84612657727205" lon="12.592605612549946"><ele>414.0</ele><time>2026-04-03T15:23:06.999Z</time></trkpt><trkpt lat="43.846093152461165" lon="12.59249520122319"><ele>414.0</ele><time>2026-04-03T15:23:08.999Z</time></trkpt><trkpt lat="43.84600492636487" lon="12.59240064450665"><ele>414.0</ele><time>2026-04-03T15:23:11.999Z</time></trkpt><trkpt lat="43.8459313354605" lon="12.592346380225122"><ele>414.0</ele><time>2026-04-03T15:29:29.999Z</time></trkpt><trkpt lat="43.84585917800195" lon="12.592231779676826"><ele>414.0</ele><time>2026-04-03T15:29:31.999Z</time></trkpt><trkpt lat="43.84581407602767" lon="12.592154567617301"><ele>414.0</ele><time>2026-04-03T15:29:32.999Z</time></trkpt><trkpt lat="43.84575789651107" lon="12.592093462252997"><ele>414.0</ele><time>2026-04-03T15:29:33.999Z</time></trkpt><trkpt lat="43.845681405886594" lon="12.59204591814141"><ele>414.0</ele><time>2026-04-03T15:29:34.999Z</time></trkpt><trkpt lat="43.84559575983574" lon="12.591996178306438"><ele>414.0</ele><time>2026-04-03T15:29:35.999Z</time></trkpt><trkpt lat="43.84549199282502" lon="12.59192463487091"><ele>414.0</ele><time>2026-04-03T15:29:36.999Z</time></trkpt><trkpt lat="43.8453820692815" lon="12.591851398297674"><ele>414.0</ele><time>2026-04-03T15:29:37.999Z</time></trkpt><trkpt lat="43.84528329906574" lon="12.59178779396237"><ele>414.0</ele><time>2026-04-03T15:29:38.999Z</time></trkpt><trkpt lat="43.84519546209587" lon="12.59172969910052"><ele>414.0</ele><time>2026-04-03T15:29:39.999Z</time></trkpt><trkpt lat="43.84511681126774" lon="12.591668084628672"><ele>414.0</ele><time>2026-04-03T15:29:41Z</time></trkpt><trkpt lat="43.84504893235266" lon="12.591600171896216"><ele>414.0</ele><time>2026-04-03T15:29:42Z</time></trkpt><trkpt lat="43.84500719339882" lon="12.591507226128732"><ele>414.0</ele><time>2026-04-03T15:29:43Z</time></trkpt><trkpt lat="43.844994881220366" lon="12.591401760498876"><ele>414.0</ele><time>2026-04-03T15:29:44Z</time></trkpt><trkpt lat="43.845020503567305" lon="12.591299289673676"><ele>414.0</ele><time>2026-04-03T15:29:45Z</time></trkpt><trkpt lat="43.84507483327494" lon="12.59121806827814"><ele>414.0</ele><time>2026-04-03T15:29:46Z</time></trkpt><trkpt lat="43.84516028027673" lon="12.591138146840544"><ele>414.0</ele><time>2026-04-03T15:29:47Z</time></trkpt><trkpt lat="43.8452677777774" lon="12.591063810064123"><ele>411.5</ele><time>2026-04-03T15:29:48Z</time></trkpt><trkpt lat="43.84538182431631" lon="12.590975867698686"><ele>409.0</ele><time>2026-04-03T15:29:49Z</time></trkpt><trkpt lat="43.84548769131049" lon="12.59089433318991"><ele>406.5</ele><time>2026-04-03T15:29:50Z</time></trkpt><trkpt lat="43.845602585077195" lon="12.59080919698469"><ele>404.0</ele><time>2026-04-03T15:29:51Z</time></trkpt><trkpt lat="43.845720068009435" lon="12.590716008781646"><ele>404.0</ele><time>2026-04-03T15:29:52Z</time></trkpt><trkpt lat="43.845846582718025" lon="12.590619927777425"><ele>404.0</ele><time>2026-04-03T15:29:53Z</time></trkpt><trkpt lat="43.845978695616246" lon="12.590521649429036"><ele>404.0</ele><time>2026-04-03T15:29:54Z</time></trkpt><trkpt lat="43.846111221761525" lon="12.590436974785616"><ele>404.0</ele><time>2026-04-03T15:29:55Z</time></trkpt><trkpt lat="43.8462443304101" lon="12.59036765481499"><ele>403.25</ele><time>2026-04-03T15:29:56Z</time></trkpt><trkpt lat="43.84637989606296" lon="12.59034625202952"><ele>402.5</ele><time>2026-04-03T15:29:57Z</time></trkpt><trkpt lat="43.84651933649865" lon="12.590293380768145"><ele>401.75</ele><time>2026-04-03T15:29:58Z</time></trkpt><trkpt lat="43.84666569713073" lon="12.590281893835522"><ele>401.0</ele><time>2026-04-03T15:29:59Z</time></trkpt><trkpt lat="43.84679526673123" lon="12.590264640007941"><ele>397.5</ele><time>2026-04-03T15:30:00Z</time></trkpt><trkpt lat="43.8469178453644" lon="12.590223605415856"><ele>394.0</ele><time>2026-04-03T15:30:01Z</time></trkpt><trkpt lat="43.84703314550438" lon="12.59015574065324"><ele>390.5</ele><time>2026-04-03T15:30:02Z</time></trkpt><trkpt lat="43.847134128340905" lon="12.59004004465018"><ele>387.0</ele><time>2026-04-03T15:30:03Z</time></trkpt><trkpt lat="43.847218744949544" lon="12.589900065542537"><ele>387.0</ele><time>2026-04-03T15:30:04Z</time></trkpt><trkpt lat="43.847295739524675" lon="12.589741351407886"><ele>387.0</ele><time>2026-04-03T15:30:05Z</time></trkpt><trkpt lat="43.847372275912754" lon="12.589596893118893"><ele>387.0</ele><time>2026-04-03T15:30:06Z</time></trkpt><trkpt lat="43.8474520047551" lon="12.589484980537744"><ele>387.0</ele><time>2026-04-03T15:30:07Z</time></trkpt><trkpt lat="43.847540274997236" lon="12.589416714611197"><ele>384.20000000000005</ele><time>2026-04-03T15:30:08Z</time></trkpt><trkpt lat="43.8476337171836" lon="12.589402975626191"><ele>381.4</ele><time>2026-04-03T15:30:09Z</time></trkpt><trkpt lat="43.84769959501426" lon="12.589483961452498"><ele>378.6</ele><time>2026-04-03T15:30:10Z</time></trkpt><trkpt lat="43.84776028774515" lon="12.589559753793253"><ele>375.79999999999995</ele><time>2026-04-03T15:30:11Z</time></trkpt><trkpt lat="43.84774840736108" lon="12.589701712870928"><ele>373.0</ele><time>2026-04-03T15:30:12Z</time></trkpt><trkpt lat="43.84773708194138" lon="12.589850966303345"><ele>371.5</ele><time>2026-04-03T15:30:13Z</time></trkpt><trkpt lat="43.847730506450596" lon="12.59002429316198"><ele>370.0</ele><time>2026-04-03T15:30:14Z</time></trkpt><trkpt lat="43.8477266352272" lon="12.590212506758432"><ele>368.5</ele><time>2026-04-03T15:30:15Z</time></trkpt><trkpt lat="43.84775708516418" lon="12.590412526881945"><ele>367.0</ele><time>2026-04-03T15:30:16Z</time></trkpt><trkpt lat="43.8477625486708" lon="12.59061950182724"><ele>366.75</ele><time>2026-04-03T15:30:17Z</time></trkpt><trkpt lat="43.84777146994828" lon="12.590811533857291"><ele>366.5</ele><time>2026-04-03T15:30:18Z</time></trkpt><trkpt lat="43.847757631792106" lon="12.590991588338657"><ele>366.25</ele><time>2026-04-03T15:30:19Z</time></trkpt><trkpt lat="43.84772416885291" lon="12.591170199970017"><ele>366.0</ele><time>2026-04-03T15:30:20Z</time></trkpt><trkpt lat="43.84769323385901" lon="12.591340258009609"><ele>366.6</ele><time>2026-04-03T15:30:21Z</time></trkpt><trkpt lat="43.84766779341648" lon="12.59150260618348"><ele>367.20000000000005</ele><time>2026-04-03T15:30:22Z</time></trkpt><trkpt lat="43.84765815982172" lon="12.591652429986958"><ele>367.79999999999995</ele><time>2026-04-03T15:30:23Z</time></trkpt><trkpt lat="43.847682650188816" lon="12.591787270977843"><ele>368.4</ele><time>2026-04-03T15:30:24Z</time></trkpt><trkpt lat="43.847747879857835" lon="12.591902273184786"><ele>369.0</ele><time>2026-04-03T15:30:25Z</time></trkpt><trkpt lat="43.84786122212217" lon="12.591962601525271"><ele>369.0</ele><time>2026-04-03T15:30:26Z</time></trkpt><trkpt lat="43.84798075682905" lon="12.592005685665182"><ele>369.0</ele><time>2026-04-03T15:30:27Z</time></trkpt><trkpt lat="43.848110757130456" lon="12.592037746691481"><ele>369.0</ele><time>2026-04-03T15:30:28Z</time></trkpt><trkpt lat="43.84824646691361" lon="12.592100183457825"><ele>369.0</ele><time>2026-04-03T15:30:29Z</time></trkpt><trkpt lat="43.84838648971811" lon="12.59211944614255"><ele>365.6</ele><time>2026-04-03T15:30:30Z</time></trkpt><trkpt lat="43.84849994451351" lon="12.59219268536931"><ele>362.2</ele><time>2026-04-03T15:30:30.999Z</time></trkpt><trkpt lat="43.84859822122824" lon="12.592241456988262"><ele>358.8</ele><time>2026-04-03T15:30:31.999Z</time></trkpt><trkpt lat="43.848639166922524" lon="12.592384642996283"><ele>355.40000000000003</ele><time>2026-04-03T15:30:32.999Z</time></trkpt><trkpt lat="43.84866563991067" lon="12.592530584482448"><ele>352.0</ele><time>2026-04-03T15:30:33.999Z</time></trkpt><trkpt lat="43.84865182446052" lon="12.592690374916511"><ele>352.0</ele><time>2026-04-03T15:30:34.999Z</time></trkpt><trkpt lat="43.84864062614819" lon="12.592871828993895"><ele>352.0</ele><time>2026-04-03T15:30:35.999Z</time></trkpt><trkpt lat="43.848654392959034" lon="12.593041694967125"><ele>352.0</ele><time>2026-04-03T15:30:36.999Z</time></trkpt><trkpt lat="43.84867223285707" lon="12.593221568678912"><ele>352.0</ele><time>2026-04-03T15:30:37.999Z</time></trkpt><trkpt lat="43.848739565830485" lon="12.593407585953411"><ele>352.0</ele><time>2026-04-03T15:30:38.999Z</time></trkpt><trkpt lat="43.848838265594985" lon="12.593578890521968"><ele>352.0</ele><time>2026-04-03T15:30:39.999Z</time></trkpt><trkpt lat="43.8489502843766" lon="12.593740358033271"><ele>352.0</ele><time>2026-04-03T15:30:40.999Z</time></trkpt><trkpt lat="43.84905051086267" lon="12.593911034323753"><ele>352.75</ele><time>2026-04-03T15:30:41.999Z</time></trkpt><trkpt lat="43.84910775974245" lon="12.594083275422856"><ele>353.5</ele><time>2026-04-03T15:30:42.999Z</time></trkpt><trkpt lat="43.84911830269846" lon="12.594272695568804"><ele>354.25</ele><time>2026-04-03T15:30:43.999Z</time></trkpt><trkpt lat="43.84912483661254" lon="12.59448594596412"><ele>355.0</ele><time>2026-04-03T15:30:44.999Z</time></trkpt><trkpt lat="43.84913714822837" lon="12.594681288789369"><ele>356.5</ele><time>2026-04-03T15:30:45.999Z</time></trkpt><trkpt lat="43.849186854137685" lon="12.594864628865736"><ele>358.0</ele><time>2026-04-03T15:30:46.999Z</time></trkpt><trkpt lat="43.84927061555691" lon="12.595036450114748"><ele>359.5</ele><time>2026-04-03T15:30:47.999Z</time></trkpt><trkpt lat="43.84937346045079" lon="12.595203323222082"><ele>361.0</ele><time>2026-04-03T15:30:48.999Z</time></trkpt><trkpt lat="43.84947199204227" lon="12.595379769536692"><ele>355.0</ele><time>2026-04-03T15:30:49.999Z</time></trkpt><trkpt lat="43.849556174432706" lon="12.595580758045674"><ele>349.0</ele><time>2026-04-03T15:30:50.999Z</time></trkpt><trkpt lat="43.84963570472846" lon="12.59577384815204"><ele>343.0</ele><time>2026-04-03T15:30:51.999Z</time></trkpt><trkpt lat="43.8497267750338" lon="12.595957449594268"><ele>343.0</ele><time>2026-04-03T15:30:52.999Z</time></trkpt><trkpt lat="43.84983822768011" lon="12.596135555475508"><ele>343.0</ele><time>2026-04-03T15:30:53.999Z</time></trkpt><trkpt lat="43.84995950789575" lon="12.596305828152483"><ele>343.0</ele><time>2026-04-03T15:30:54.999Z</time></trkpt><trkpt lat="43.8500798446774" lon="12.596471566197096"><ele>343.3333333333333</ele><time>2026-04-03T15:30:55.999Z</time></trkpt><trkpt lat="43.85019965238221" lon="12.596637450338935"><ele>343.6666666666667</ele><time>2026-04-03T15:30:56.999Z</time></trkpt><trkpt lat="43.85031060279214" lon="12.596804373217177"><ele>344.0</ele><time>2026-04-03T15:30:57.999Z</time></trkpt><trkpt lat="43.850413407630576" lon="12.596975052523687"><ele>343.33333333333337</ele><time>2026-04-03T15:30:58.999Z</time></trkpt><trkpt lat="43.85051157035624" lon="12.597156671630385"><ele>342.6666666666667</ele><time>2026-04-03T15:30:59.999Z</time></trkpt><trkpt lat="43.850604716934534" lon="12.59734329290989"><ele>342.0</ele><time>2026-04-03T15:31:00.999Z</time></trkpt><trkpt lat="43.85070026505526" lon="12.59753668777844"><ele>342.0</ele><time>2026-04-03T15:31:01.999Z</time></trkpt><trkpt lat="43.85079310398295" lon="12.597728733919249"><ele>342.0</ele><time>2026-04-03T15:31:02.999Z</time></trkpt><trkpt lat="43.85087522856208" lon="12.597898716769759"><ele>342.0</ele><time>2026-04-03T15:31:03.999Z</time></trkpt><trkpt lat="43.850958545694816" lon="12.598049938163625"><ele>338.75</ele><time>2026-04-03T15:31:04.999Z</time></trkpt><trkpt lat="43.85105893666047" lon="12.598167612901852"><ele>335.5</ele><time>2026-04-03T15:31:05.999Z</time></trkpt><trkpt lat="43.851159196382916" lon="12.598268166891408"><ele>332.25</ele><time>2026-04-03T15:31:06.999Z</time></trkpt><trkpt lat="43.851279555642414" lon="12.598332858229016"><ele>329.0</ele><time>2026-04-03T15:31:07.999Z</time></trkpt><trkpt lat="43.85141943322568" lon="12.598355205783507"><ele>329.0</ele><time>2026-04-03T15:31:08.999Z</time></trkpt><trkpt lat="43.8515601423439" lon="12.598344073240602"><ele>329.0</ele><time>2026-04-03T15:31:09.999Z</time></trkpt><trkpt lat="43.851697857293985" lon="12.598317772534777"><ele>329.0</ele><time>2026-04-03T15:31:10.999Z</time></trkpt><trkpt lat="43.85183340849104" lon="12.598284769150109"><ele>329.0</ele><time>2026-04-03T15:31:11.999Z</time></trkpt><trkpt lat="43.85196363732452" lon="12.598260204540988"><ele>326.75</ele><time>2026-04-03T15:31:12.999Z</time></trkpt><trkpt lat="43.85208940356024" lon="12.598240427560054"><ele>324.5</ele><time>2026-04-03T15:31:13.999Z</time></trkpt><trkpt lat="43.8522109533655" lon="12.598218831863903"><ele>322.25</ele><time>2026-04-03T15:31:14.999Z</time></trkpt><trkpt lat="43.85232702940565" lon="12.598197669888497"><ele>320.0</ele><time>2026-04-03T15:31:15.999Z</time></trkpt><trkpt lat="43.85243988341015" lon="12.598181552176987"><ele>320.0</ele><time>2026-04-03T15:31:16.999Z</time></trkpt><trkpt lat="43.852554914691765" lon="12.598159277907902"><ele>320.0</ele><time>2026-04-03T15:31:17.999Z</time></trkpt><trkpt lat="43.85267668168443" lon="12.598138354043357"><ele>320.0</ele><time>2026-04-03T15:31:18.999Z</time></trkpt><trkpt lat="43.85280047977623" lon="12.598117836541025"><ele>320.0</ele><time>2026-04-03T15:31:19.999Z</time></trkpt><trkpt lat="43.852927978241866" lon="12.598097539062126"><ele>320.25</ele><time>2026-04-03T15:31:20.999Z</time></trkpt><trkpt lat="43.853059222109515" lon="12.598079970487065"><ele>320.5</ele><time>2026-04-03T15:31:21.999Z</time></trkpt><trkpt lat="43.85319233613806" lon="12.5980683563732"><ele>320.75</ele><time>2026-04-03T15:31:22.999Z</time></trkpt><trkpt lat="43.85332603603893" lon="12.598074288944805"><ele>321.0</ele><time>2026-04-03T15:31:23.999Z</time></trkpt><trkpt lat="43.85345462320965" lon="12.598094107185506"><ele>321.25</ele><time>2026-04-03T15:31:24.999Z</time></trkpt><trkpt lat="43.85357739981332" lon="12.598120182100295"><ele>321.5</ele><time>2026-04-03T15:31:25.999Z</time></trkpt><trkpt lat="43.85370222602225" lon="12.598150596690383"><ele>321.75</ele><time>2026-04-03T15:31:26.999Z</time></trkpt><trkpt lat="43.85382941092252" lon="12.598182601777134"><ele>322.0</ele><time>2026-04-03T15:31:27.999Z</time></trkpt><trkpt lat="43.85395854821505" lon="12.598217422041118"><ele>322.0</ele><time>2026-04-03T15:31:28.999Z</time></trkpt><trkpt lat="43.854090679880194" lon="12.59825300798191"><ele>322.0</ele><time>2026-04-03T15:31:29.999Z</time></trkpt><trkpt lat="43.85422561595554" lon="12.598291092537158"><ele>322.0</ele><time>2026-04-03T15:31:30.999Z</time></trkpt><trkpt lat="43.854361952603114" lon="12.598329882853019"><ele>322.0</ele><time>2026-04-03T15:31:31.999Z</time></trkpt><trkpt lat="43.854499336050615" lon="12.598366734226586"><ele>323.25</ele><time>2026-04-03T15:31:32.999Z</time></trkpt><trkpt lat="43.854635794885844" lon="12.598418988910277"><ele>324.5</ele><time>2026-04-03T15:31:33.999Z</time></trkpt><trkpt lat="43.854773753229075" lon="12.598444907482763"><ele>325.75</ele><time>2026-04-03T15:31:34.999Z</time></trkpt><trkpt lat="43.85490799384299" lon="12.598487427485065"><ele>327.0</ele><time>2026-04-03T15:31:35.999Z</time></trkpt><trkpt lat="43.855043120988" lon="12.598522773344738"><ele>327.5</ele><time>2026-04-03T15:31:36.999Z</time></trkpt><trkpt lat="43.85517720714458" lon="12.598550235367435"><ele>328.0</ele><time>2026-04-03T15:31:37.999Z</time></trkpt><trkpt lat="43.855312025376215" lon="12.598557195555104"><ele>328.5</ele><time>2026-04-03T15:31:38.999Z</time></trkpt><trkpt lat="43.85543515391867" lon="12.59853657504136"><ele>329.0</ele><time>2026-04-03T15:31:39.999Z</time></trkpt><trkpt lat="43.85555831419701" lon="12.598506023735638"><ele>329.0</ele><time>2026-04-03T15:31:40.999Z</time></trkpt><trkpt lat="43.85568850329423" lon="12.59846145398703"><ele>329.0</ele><time>2026-04-03T15:31:41.999Z</time></trkpt><trkpt lat="43.85582401000079" lon="12.598413538209842"><ele>329.0</ele><time>2026-04-03T15:31:42.999Z</time></trkpt><trkpt lat="43.855960801309394" lon="12.598358699146829"><ele>329.0</ele><time>2026-04-03T15:31:43.999Z</time></trkpt><trkpt lat="43.85610898513801" lon="12.598296624093699"><ele>332.0</ele><time>2026-04-03T15:31:44.999Z</time></trkpt><trkpt lat="43.856268783739914" lon="12.598230169294293"><ele>335.0</ele><time>2026-04-03T15:31:45.999Z</time></trkpt><trkpt lat="43.856435883081495" lon="12.598157217000601"><ele>338.0</ele><time>2026-04-03T15:31:47Z</time></trkpt><trkpt lat="43.85660934994586" lon="12.598068121645563"><ele>338.0</ele><time>2026-04-03T15:31:48Z</time></trkpt><trkpt lat="43.85678541315452" lon="12.597968787791668"><ele>338.0</ele><time>2026-04-03T15:31:49Z</time></trkpt><trkpt lat="43.85695372049932" lon="12.597833769343708"><ele>338.0</ele><time>2026-04-03T15:31:50Z</time></trkpt><trkpt lat="43.85711036911384" lon="12.597689499790732"><ele>338.0</ele><time>2026-04-03T15:31:51Z</time></trkpt><trkpt lat="43.85726023757264" lon="12.597563346912157"><ele>338.0</ele><time>2026-04-03T15:31:52Z</time></trkpt><trkpt lat="43.85740144997866" lon="12.59745195406814"><ele>338.0</ele><time>2026-04-03T15:31:53Z</time></trkpt><trkpt lat="43.85754400221174" lon="12.597347094610356"><ele>338.6666666666667</ele><time>2026-04-03T15:31:54Z</time></trkpt><trkpt lat="43.85769714104474" lon="12.59725690912853"><ele>339.3333333333333</ele><time>2026-04-03T15:31:55Z</time></trkpt><trkpt lat="43.8578564637143" lon="12.597187827789702"><ele>340.0</ele><time>2026-04-03T15:31:56Z</time></trkpt><trkpt lat="43.85802316775025" lon="12.597126144489607"><ele>340.0</ele><time>2026-04-03T15:31:57Z</time></trkpt><trkpt lat="43.858195020249546" lon="12.59705990623012"><ele>340.0</ele><time>2026-04-03T15:31:58Z</time></trkpt><trkpt lat="43.85836607987356" lon="12.596987979816527"><ele>340.0</ele><time>2026-04-03T15:31:59Z</time></trkpt><trkpt lat="43.85852931163235" lon="12.59692202104645"><ele>338.0</ele><time>2026-04-03T15:32:00Z</time></trkpt><trkpt lat="43.85867931247494" lon="12.596859894361385"><ele>336.0</ele><time>2026-04-03T15:32:01Z</time></trkpt><trkpt lat="43.85882034795806" lon="12.596806393252319"><ele>334.0</ele><time>2026-04-03T15:32:02Z</time></trkpt><trkpt lat="43.85894978459259" lon="12.59676087158876"><ele>332.0</ele><time>2026-04-03T15:32:03Z</time></trkpt><trkpt lat="43.859061706822104" lon="12.596725464051048"><ele>332.0</ele><time>2026-04-03T15:32:04Z</time></trkpt><trkpt lat="43.85917130671056" lon="12.59671267216314"><ele>332.0</ele><time>2026-04-03T15:32:05Z</time></trkpt><trkpt lat="43.85927368229462" lon="12.596751158605235"><ele>332.0</ele><time>2026-04-03T15:32:06Z</time></trkpt><trkpt lat="43.859350839033" lon="12.596850714091016"><ele>332.0</ele><time>2026-04-03T15:32:07Z</time></trkpt><trkpt lat="43.859390512163344" lon="12.597007514061069"><ele>332.0</ele><time>2026-04-03T15:32:08Z</time></trkpt><trkpt lat="43.8594295188036" lon="12.59718426805996"><ele>328.6666666666667</ele><time>2026-04-03T15:32:09Z</time></trkpt><trkpt lat="43.85947200929629" lon="12.597376183364547"><ele>325.3333333333333</ele><time>2026-04-03T15:32:10Z</time></trkpt><trkpt lat="43.85951584399047" lon="12.597585249627741"><ele>322.0</ele><time>2026-04-03T15:32:11Z</time></trkpt><trkpt lat="43.85956539730658" lon="12.597813654247263"><ele>323.66666666666663</ele><time>2026-04-03T15:32:12Z</time></trkpt><trkpt lat="43.85961956624293" lon="12.598028915726248"><ele>325.3333333333333</ele><time>2026-04-03T15:32:13Z</time></trkpt><trkpt lat="43.859685166705944" lon="12.598227681715377"><ele>327.0</ele><time>2026-04-03T15:32:14Z</time></trkpt><trkpt lat="43.859775668917614" lon="12.598395050633497"><ele>327.0</ele><time>2026-04-03T15:32:15Z</time></trkpt><trkpt lat="43.8598962302731" lon="12.598522258408432"><ele>327.0</ele><time>2026-04-03T15:32:16Z</time></trkpt><trkpt lat="43.86002189577992" lon="12.598647562236561"><ele>327.0</ele><time>2026-04-03T15:32:17Z</time></trkpt><trkpt lat="43.86014877384435" lon="12.598784764670429"><ele>325.6666666666667</ele><time>2026-04-03T15:32:18Z</time></trkpt><trkpt lat="43.86028773319576" lon="12.598913964157994"><ele>324.33333333333337</ele><time>2026-04-03T15:32:19Z</time></trkpt><trkpt lat="43.860428422069255" lon="12.599044771566511"><ele>323.0</ele><time>2026-04-03T15:32:20Z</time></trkpt><trkpt lat="43.86057363587118" lon="12.599178218487735"><ele>323.0</ele><time>2026-04-03T15:32:21Z</time></trkpt><trkpt lat="43.860721565955515" lon="12.599313651726488"><ele>323.0</ele><time>2026-04-03T15:32:22Z</time></trkpt><trkpt lat="43.860871209101305" lon="12.59945065342846"><ele>323.0</ele><time>2026-04-03T15:32:23Z</time></trkpt><trkpt lat="43.86102162421346" lon="12.599590159801002"><ele>321.0</ele><time>2026-04-03T15:32:24Z</time></trkpt><trkpt lat="43.861170060454846" lon="12.599742998083185"><ele>319.0</ele><time>2026-04-03T15:32:25Z</time></trkpt><trkpt lat="43.86131424336347" lon="12.599908767444196"><ele>317.0</ele><time>2026-04-03T15:32:26Z</time></trkpt><trkpt lat="43.861456038090076" lon="12.600079375028809"><ele>317.0</ele><time>2026-04-03T15:32:27Z</time></trkpt><trkpt lat="43.861598183254955" lon="12.600250403704225"><ele>317.0</ele><time>2026-04-03T15:32:28Z</time></trkpt><trkpt lat="43.86173958639425" lon="12.600420539980679"><ele>317.0</ele><time>2026-04-03T15:32:29Z</time></trkpt><trkpt lat="43.86187813776587" lon="12.600586935402825"><ele>315.0</ele><time>2026-04-03T15:32:30Z</time></trkpt><trkpt lat="43.862010848053345" lon="12.600746077944704"><ele>313.0</ele><time>2026-04-03T15:32:31Z</time></trkpt><trkpt lat="43.862131897313674" lon="12.600889984758282"><ele>311.0</ele><time>2026-04-03T15:32:32Z</time></trkpt><trkpt lat="43.862252404923304" lon="12.600997854954413"><ele>311.0</ele><time>2026-04-03T15:32:33Z</time></trkpt><trkpt lat="43.86235908599372" lon="12.601113950623732"><ele>311.0</ele><time>2026-04-03T15:32:34Z</time></trkpt><trkpt lat="43.86247963187482" lon="12.601190223974301"><ele>311.0</ele><time>2026-04-03T15:32:35Z</time></trkpt><trkpt lat="43.862610921012724" lon="12.601226308747307"><ele>311.0</ele><time>2026-04-03T15:32:36Z</time></trkpt><trkpt lat="43.862757887238324" lon="12.601231433765879"><ele>306.0</ele><time>2026-04-03T15:32:37Z</time></trkpt><trkpt lat="43.862903524259764" lon="12.60122562126162"><ele>301.0</ele><time>2026-04-03T15:32:38Z</time></trkpt><trkpt lat="43.86305834054644" lon="12.601221904492366"><ele>296.0</ele><time>2026-04-03T15:32:39Z</time></trkpt><trkpt lat="43.86321581744652" lon="12.60122793389597"><ele>296.0</ele><time>2026-04-03T15:32:40Z</time></trkpt><trkpt lat="43.86337107534478" lon="12.601248656950023"><ele>296.0</ele><time>2026-04-03T15:32:41Z</time></trkpt><trkpt lat="43.863520519321696" lon="12.601290670787506"><ele>296.0</ele><time>2026-04-03T15:32:41.999Z</time></trkpt><trkpt lat="43.86366043307467" lon="12.601354462030566"><ele>296.6666666666667</ele><time>2026-04-03T15:32:42.999Z</time></trkpt><trkpt lat="43.86378306665381" lon="12.601473369473414"><ele>297.3333333333333</ele><time>2026-04-03T15:32:43.999Z</time></trkpt><trkpt lat="43.86391399352017" lon="12.60158414467001"><ele>298.0</ele><time>2026-04-03T15:32:44.999Z</time></trkpt><trkpt lat="43.86404351344733" lon="12.601695828064376"><ele>298.0</ele><time>2026-04-03T15:32:45.999Z</time></trkpt><trkpt lat="43.86417881261704" lon="12.601790582272343"><ele>298.0</ele><time>2026-04-03T15:32:46.999Z</time></trkpt><trkpt lat="43.86430914535635" lon="12.601907128764752"><ele>298.0</ele><time>2026-04-03T15:32:47.999Z</time></trkpt><trkpt lat="43.86444323058273" lon="12.602025613709285"><ele>295.3333333333333</ele><time>2026-04-03T15:32:48.999Z</time></trkpt><trkpt lat="43.864580190977804" lon="12.602149047972937"><ele>292.6666666666667</ele><time>2026-04-03T15:32:49.999Z</time></trkpt><trkpt lat="43.864720504613" lon="12.602273961440055"><ele>290.0</ele><time>2026-04-03T15:32:50.999Z</time></trkpt><trkpt lat="43.86486449331836" lon="12.602399467892065"><ele>290.0</ele><time>2026-04-03T15:32:51.999Z</time></trkpt><trkpt lat="43.86500211912528" lon="12.6025473547157"><ele>290.0</ele><time>2026-04-03T15:32:52.999Z</time></trkpt><trkpt lat="43.86515036602502" lon="12.602680283119861"><ele>290.0</ele><time>2026-04-03T15:32:53.999Z</time></trkpt><trkpt lat="43.86529624415033" lon="12.602822118012638"><ele>288.33333333333337</ele><time>2026-04-03T15:32:54.999Z</time></trkpt><trkpt lat="43.865441929500506" lon="12.602965761729015"><ele>286.6666666666667</ele><time>2026-04-03T15:32:55.999Z</time></trkpt><trkpt lat="43.86560001946585" lon="12.603089194814874"><ele>285.0</ele><time>2026-04-03T15:32:56.999Z</time></trkpt><trkpt lat="43.86575670374209" lon="12.603215595693069"><ele>285.0</ele><time>2026-04-03T15:32:57.999Z</time></trkpt><trkpt lat="43.86592837169917" lon="12.603299794012484"><ele>285.0</ele><time>2026-04-03T15:32:58.999Z</time></trkpt><trkpt lat="43.866101571186285" lon="12.603354498077325"><ele>285.0</ele><time>2026-04-03T15:32:59.999Z</time></trkpt><trkpt lat="43.866270208714276" lon="12.603394265955842"><ele>285.3333333333333</ele><time>2026-04-03T15:33:00.999Z</time></trkpt><trkpt lat="43.86644215272119" lon="12.603446688239016"><ele>285.66666666666663</ele><time>2026-04-03T15:33:01.999Z</time></trkpt><trkpt lat="43.86662004652335" lon="12.60350839360734"><ele>286.0</ele><time>2026-04-03T15:33:02.999Z</time></trkpt><trkpt lat="43.86680270295843" lon="12.603570082016635"><ele>286.0</ele><time>2026-04-03T15:33:03.999Z</time></trkpt><trkpt lat="43.86698968329473" lon="12.603637392280854"><ele>286.0</ele><time>2026-04-03T15:33:04.999Z</time></trkpt><trkpt lat="43.86716977742233" lon="12.60372605345312"><ele>286.0</ele><time>2026-04-03T15:33:05.999Z</time></trkpt><trkpt lat="43.867332971564025" lon="12.603861103569493"><ele>286.0</ele><time>2026-04-03T15:33:06.999Z</time></trkpt><trkpt lat="43.86749503871871" lon="12.603992415956867"><ele>286.0</ele><time>2026-04-03T15:33:07.999Z</time></trkpt><trkpt lat="43.86765985079551" lon="12.604107167446536"><ele>286.0</ele><time>2026-04-03T15:33:08.999Z</time></trkpt><trkpt lat="43.867803363567894" lon="12.604223619609325"><ele>287.0</ele><time>2026-04-03T15:33:09.999Z</time></trkpt><trkpt lat="43.86795161494658" lon="12.604300652800866"><ele>288.0</ele><time>2026-04-03T15:33:10.999Z</time></trkpt><trkpt lat="43.868103625916575" lon="12.604347335399037"><ele>289.0</ele><time>2026-04-03T15:33:11.999Z</time></trkpt><trkpt lat="43.86825608209727" lon="12.604386556682805"><ele>289.0</ele><time>2026-04-03T15:33:12.999Z</time></trkpt><trkpt lat="43.86840892602562" lon="12.604440892385758"><ele>289.0</ele><time>2026-04-03T15:33:13.999Z</time></trkpt><trkpt lat="43.86856264533776" lon="12.604506981279672"><ele>289.0</ele><time>2026-04-03T15:33:14.999Z</time></trkpt><trkpt lat="43.86871719599992" lon="12.604581555191082"><ele>287.66666666666663</ele><time>2026-04-03T15:33:15.999Z</time></trkpt><trkpt lat="43.86887602282064" lon="12.60465987412671"><ele>286.3333333333333</ele><time>2026-04-03T15:33:16.999Z</time></trkpt><trkpt lat="43.8690368647421" lon="12.604741630163758"><ele>285.0</ele><time>2026-04-03T15:33:17.999Z</time></trkpt><trkpt lat="43.869198324474056" lon="12.604825752978764"><ele>285.6666666666667</ele><time>2026-04-03T15:33:18.999Z</time></trkpt><trkpt lat="43.86935759178275" lon="12.604915832084236"><ele>286.33333333333337</ele><time>2026-04-03T15:33:19.999Z</time></trkpt><trkpt lat="43.86951206375733" lon="12.604995530909543"><ele>287.0</ele><time>2026-04-03T15:33:20.999Z</time></trkpt><trkpt lat="43.86967319616015" lon="12.605049504101226"><ele>287.0</ele><time>2026-04-03T15:33:21.999Z</time></trkpt><trkpt lat="43.86984345624554" lon="12.605065257523053"><ele>287.0</ele><time>2026-04-03T15:33:22.999Z</time></trkpt><trkpt lat="43.870019762672094" lon="12.605080454767588"><ele>287.0</ele><time>2026-04-03T15:33:23.999Z</time></trkpt><trkpt lat="43.87019611467817" lon="12.60510489681001"><ele>288.6666666666667</ele><time>2026-04-03T15:33:24.999Z</time></trkpt><trkpt lat="43.87037228618381" lon="12.605132866300334"><ele>290.3333333333333</ele><time>2026-04-03T15:33:25.999Z</time></trkpt><trkpt lat="43.870548962430945" lon="12.605170426867609"><ele>292.0</ele><time>2026-04-03T15:33:26.999Z</time></trkpt><trkpt lat="43.870722001258606" lon="12.605205805032517"><ele>292.0</ele><time>2026-04-03T15:33:27.999Z</time></trkpt><trkpt lat="43.87089269188488" lon="12.60521621609577"><ele>292.0</ele><time>2026-04-03T15:33:28.999Z</time></trkpt><trkpt lat="43.87106009143211" lon="12.605185715792375"><ele>292.0</ele><time>2026-04-03T15:33:29.999Z</time></trkpt><trkpt lat="43.87122439225412" lon="12.605117595152938"><ele>292.3333333333333</ele><time>2026-04-03T15:33:30.999Z</time></trkpt><trkpt lat="43.87138941971922" lon="12.605039964372121"><ele>292.6666666666667</ele><time>2026-04-03T15:33:31.999Z</time></trkpt><trkpt lat="43.87155955536746" lon="12.604963338646407"><ele>293.0</ele><time>2026-04-03T15:33:32.999Z</time></trkpt><trkpt lat="43.87173606703994" lon="12.60491033955957"><ele>293.0</ele><time>2026-04-03T15:33:33.999Z</time></trkpt><trkpt lat="43.87191447718467" lon="12.604889671950865"><ele>293.0</ele><time>2026-04-03T15:33:34.999Z</time></trkpt><trkpt lat="43.87209400746769" lon="12.60488773749632"><ele>293.0</ele><time>2026-04-03T15:33:35.999Z</time></trkpt><trkpt lat="43.87227076985782" lon="12.604906277428338"><ele>293.0</ele><time>2026-04-03T15:33:36.999Z</time></trkpt><trkpt lat="43.87243811139596" lon="12.604932852354791"><ele>293.0</ele><time>2026-04-03T15:33:37.999Z</time></trkpt><trkpt lat="43.872591690585175" lon="12.604983885738342"><ele>293.0</ele><time>2026-04-03T15:33:38.999Z</time></trkpt><trkpt lat="43.8727375418924" lon="12.605070999417283"><ele>293.6666666666667</ele><time>2026-04-03T15:33:39.999Z</time></trkpt><trkpt lat="43.87287808385436" lon="12.605175736142384"><ele>294.3333333333333</ele><time>2026-04-03T15:33:40.999Z</time></trkpt><trkpt lat="43.873013759478404" lon="12.605294064667177"><ele>295.0</ele><time>2026-04-03T15:33:41.999Z</time></trkpt><trkpt lat="43.87314886030971" lon="12.605422705733293"><ele>295.0</ele><time>2026-04-03T15:33:42.999Z</time></trkpt><trkpt lat="43.87327995525283" lon="12.605562334495938"><ele>295.0</ele><time>2026-04-03T15:33:43.999Z</time></trkpt><trkpt lat="43.87341466074335" lon="12.60569464881253"><ele>295.0</ele><time>2026-04-03T15:33:44.999Z</time></trkpt><trkpt lat="43.873560453052406" lon="12.605792570068772"><ele>295.0</ele><time>2026-04-03T15:33:45.999Z</time></trkpt><trkpt lat="43.87370461946486" lon="12.605879174627432"><ele>295.0</ele><time>2026-04-03T15:33:46.999Z</time></trkpt><trkpt lat="43.87384789085989" lon="12.60596655228349"><ele>295.0</ele><time>2026-04-03T15:33:47.999Z</time></trkpt><trkpt lat="43.87398813179013" lon="12.606066086273009"><ele>297.0</ele><time>2026-04-03T15:33:48.999Z</time></trkpt><trkpt lat="43.87412264467189" lon="12.606176743657674"><ele>299.0</ele><time>2026-04-03T15:33:49.999Z</time></trkpt><trkpt lat="43.87425910989415" lon="12.606284733022115"><ele>301.0</ele><time>2026-04-03T15:33:50.999Z</time></trkpt><trkpt lat="43.87439532995788" lon="12.606392143349703"><ele>301.0</ele><time>2026-04-03T15:33:51.999Z</time></trkpt><trkpt lat="43.874531878370995" lon="12.60649890095788"><ele>301.0</ele><time>2026-04-03T15:33:53Z</time></trkpt><trkpt lat="43.874666581687734" lon="12.606608449716408"><ele>301.0</ele><time>2026-04-03T15:33:54Z</time></trkpt><trkpt lat="43.87479814164548" lon="12.606720049410383"><ele>301.0</ele><time>2026-04-03T15:33:55Z</time></trkpt><trkpt lat="43.87492555687279" lon="12.606806580758729"><ele>301.0</ele><time>2026-04-03T15:33:56Z</time></trkpt><trkpt lat="43.875055395587836" lon="12.60687026352744"><ele>301.0</ele><time>2026-04-03T15:33:57Z</time></trkpt><trkpt lat="43.87518941703659" lon="12.606923148888486"><ele>301.0</ele><time>2026-04-03T15:33:58Z</time></trkpt><trkpt lat="43.875329375712525" lon="12.606972532791987"><ele>306.0</ele><time>2026-04-03T15:33:59Z</time></trkpt><trkpt lat="43.87547530476364" lon="12.607024352303355"><ele>311.0</ele><time>2026-04-03T15:34:00Z</time></trkpt><trkpt lat="43.87562341810249" lon="12.607083395558963"><ele>316.0</ele><time>2026-04-03T15:34:01Z</time></trkpt><trkpt lat="43.8757734649179" lon="12.607140853899978"><ele>316.0</ele><time>2026-04-03T15:34:02Z</time></trkpt><trkpt lat="43.87592178196123" lon="12.607199752930397"><ele>316.0</ele><time>2026-04-03T15:34:03Z</time></trkpt><trkpt lat="43.87606094993816" lon="12.607293320720382"><ele>316.0</ele><time>2026-04-03T15:34:04Z</time></trkpt><trkpt lat="43.87619888146375" lon="12.607385664655187"><ele>313.0</ele><time>2026-04-03T15:34:05Z</time></trkpt><trkpt lat="43.87632966584503" lon="12.607500420118154"><ele>310.0</ele><time>2026-04-03T15:34:06Z</time></trkpt><trkpt lat="43.87645802052369" lon="12.60762232955652"><ele>307.0</ele><time>2026-04-03T15:34:07Z</time></trkpt><trkpt lat="43.87658509108671" lon="12.607755567636184"><ele>307.75</ele><time>2026-04-03T15:34:08Z</time></trkpt><trkpt lat="43.876709570733276" lon="12.60788335462001"><ele>308.5</ele><time>2026-04-03T15:34:09Z</time></trkpt><trkpt lat="43.876839719911594" lon="12.607968019410995"><ele>309.25</ele><time>2026-04-03T15:34:10Z</time></trkpt><trkpt lat="43.87696853703828" lon="12.608050597198234"><ele>310.0</ele><time>2026-04-03T15:34:11Z</time></trkpt><trkpt lat="43.87710961215283" lon="12.608105733423503"><ele>310.0</ele><time>2026-04-03T15:34:12Z</time></trkpt><trkpt lat="43.87725860630497" lon="12.608133087344461"><ele>310.0</ele><time>2026-04-03T15:34:13Z</time></trkpt><trkpt lat="43.8774116234788" lon="12.608135995680794"><ele>310.0</ele><time>2026-04-03T15:34:14Z</time></trkpt><trkpt lat="43.87756544568037" lon="12.608130931026523"><ele>312.0</ele><time>2026-04-03T15:34:15Z</time></trkpt><trkpt lat="43.87771949471361" lon="12.608123823365933"><ele>314.0</ele><time>2026-04-03T15:34:16Z</time></trkpt><trkpt lat="43.8778693631953" lon="12.608150999042879"><ele>316.0</ele><time>2026-04-03T15:34:17Z</time></trkpt><trkpt lat="43.878015036136944" lon="12.60818219946185"><ele>316.0</ele><time>2026-04-03T15:34:18Z</time></trkpt><trkpt lat="43.878163494513515" lon="12.608196835607817"><ele>316.0</ele><time>2026-04-03T15:34:19Z</time></trkpt><trkpt lat="43.87830509466319" lon="12.608257911854995"><ele>316.0</ele><time>2026-04-03T15:34:20Z</time></trkpt><trkpt lat="43.87844943452901" lon="12.608291837458724"><ele>316.0</ele><time>2026-04-03T15:34:21Z</time></trkpt><trkpt lat="43.8785777619504" lon="12.608299264302293"><ele>316.40000000000003</ele><time>2026-04-03T15:34:22Z</time></trkpt><trkpt lat="43.87867837850341" lon="12.608330449980045"><ele>316.8</ele><time>2026-04-03T15:34:23Z</time></trkpt><trkpt lat="43.87876279437046" lon="12.608357039366643"><ele>317.20000000000005</ele><time>2026-04-03T15:34:24Z</time></trkpt><trkpt lat="43.8788434040712" lon="12.608377924609586"><ele>317.6</ele><time>2026-04-03T15:34:25Z</time></trkpt><trkpt lat="43.8789317183528" lon="12.608399109086438"><ele>318.0</ele><time>2026-04-03T15:34:26Z</time></trkpt><trkpt lat="43.87903892618768" lon="12.608412732745187"><ele>318.0</ele><time>2026-04-03T15:34:27Z</time></trkpt><trkpt lat="43.87915782043519" lon="12.608432945658254"><ele>318.0</ele><time>2026-04-03T15:34:28Z</time></trkpt><trkpt lat="43.87929141136593" lon="12.608459784586767"><ele>318.0</ele><time>2026-04-03T15:34:29Z</time></trkpt><trkpt lat="43.87943395438058" lon="12.608498942462989"><ele>318.0</ele><time>2026-04-03T15:34:30Z</time></trkpt><trkpt lat="43.87957816506524" lon="12.608552913954496"><ele>319.0</ele><time>2026-04-03T15:34:31Z</time></trkpt><trkpt lat="43.87970508932489" lon="12.608638943229874"><ele>320.0</ele><time>2026-04-03T15:34:32Z</time></trkpt><trkpt lat="43.87981895490298" lon="12.60876241617238"><ele>321.0</ele><time>2026-04-03T15:34:33Z</time></trkpt><trkpt lat="43.879910074090546" lon="12.608913893175266"><ele>322.0</ele><time>2026-04-03T15:34:34Z</time></trkpt><trkpt lat="43.87996083760718" lon="12.609098759030989"><ele>322.5</ele><time>2026-04-03T15:34:35Z</time></trkpt><trkpt lat="43.88001348521805" lon="12.609277718159062"><ele>323.0</ele><time>2026-04-03T15:34:36Z</time></trkpt><trkpt lat="43.88007893086083" lon="12.609453568979031"><ele>323.5</ele><time>2026-04-03T15:34:37Z</time></trkpt><trkpt lat="43.88013000176953" lon="12.60964127059984"><ele>324.0</ele><time>2026-04-03T15:34:38Z</time></trkpt><trkpt lat="43.88016601344055" lon="12.609839375485283"><ele>328.75</ele><time>2026-04-03T15:34:39Z</time></trkpt><trkpt lat="43.880217256763935" lon="12.610031277723916"><ele>333.5</ele><time>2026-04-03T15:34:40Z</time></trkpt><trkpt lat="43.88026833685537" lon="12.610222729779514"><ele>338.25</ele><time>2026-04-03T15:34:41Z</time></trkpt><trkpt lat="43.88031860826813" lon="12.610417697242251"><ele>343.0</ele><time>2026-04-03T15:34:42Z</time></trkpt><trkpt lat="43.88038742382027" lon="12.610603400408404"><ele>343.0</ele><time>2026-04-03T15:34:43Z</time></trkpt><trkpt lat="43.880449061711765" lon="12.610800777379954"><ele>343.0</ele><time>2026-04-03T15:34:44Z</time></trkpt><trkpt lat="43.88054114193391" lon="12.610976740467112"><ele>343.0</ele><time>2026-04-03T15:34:45Z</time></trkpt><trkpt lat="43.88065427196978" lon="12.6111245172268"><ele>344.0</ele><time>2026-04-03T15:34:46Z</time></trkpt><trkpt lat="43.880775000774605" lon="12.611258142483553"><ele>345.0</ele><time>2026-04-03T15:34:47Z</time></trkpt><trkpt lat="43.880877275641275" lon="12.611386859222765"><ele>346.0</ele><time>2026-04-03T15:34:47.999Z</time></trkpt><trkpt lat="43.8809514036161" lon="12.611543079352135"><ele>347.0</ele><time>2026-04-03T15:34:48.999Z</time></trkpt><trkpt lat="43.88099988646525" lon="12.611731417198428"><ele>347.0</ele><time>2026-04-03T15:34:49.999Z</time></trkpt><trkpt lat="43.881015695301116" lon="12.611936210463163"><ele>347.0</ele><time>2026-04-03T15:34:50.999Z</time></trkpt><trkpt lat="43.88101262967226" lon="12.612143143556924"><ele>347.0</ele><time>2026-04-03T15:34:51.999Z</time></trkpt><trkpt lat="43.881020699620635" lon="12.612351358728512"><ele>347.0</ele><time>2026-04-03T15:34:52.999Z</time></trkpt><trkpt lat="43.88105892027446" lon="12.612549094093358"><ele>346.0</ele><time>2026-04-03T15:34:53.999Z</time></trkpt><trkpt lat="43.8811351863434" lon="12.612737774362632"><ele>345.0</ele><time>2026-04-03T15:34:54.999Z</time></trkpt><trkpt lat="43.88123395000495" lon="12.61290493568247"><ele>344.0</ele><time>2026-04-03T15:34:55.999Z</time></trkpt><trkpt lat="43.88135198853756" lon="12.613057716346077"><ele>341.33333333333337</ele><time>2026-04-03T15:34:56.999Z</time></trkpt><trkpt lat="43.88146194619276" lon="12.613210098093711"><ele>338.6666666666667</ele><time>2026-04-03T15:34:57.999Z</time></trkpt><trkpt lat="43.8815391978569" lon="12.613392089059342"><ele>336.0</ele><time>2026-04-03T15:34:58.999Z</time></trkpt><trkpt lat="43.88160389481842" lon="12.61358632226609"><ele>336.0</ele><time>2026-04-03T15:34:59.999Z</time></trkpt><trkpt lat="43.881634999550776" lon="12.613798553002887"><ele>336.0</ele><time>2026-04-03T15:35:00.999Z</time></trkpt><trkpt lat="43.881640046059246" lon="12.614036568048654"><ele>336.0</ele><time>2026-04-03T15:35:01.999Z</time></trkpt><trkpt lat="43.88162575511285" lon="12.614283406941349"><ele>337.6666666666667</ele><time>2026-04-03T15:35:02.999Z</time></trkpt><trkpt lat="43.88159136458903" lon="12.61453449665725"><ele>339.33333333333337</ele><time>2026-04-03T15:35:03.999Z</time></trkpt><trkpt lat="43.8815672137083" lon="12.614782412702716"><ele>341.0</ele><time>2026-04-03T15:35:04.999Z</time></trkpt><trkpt lat="43.88152667161585" lon="12.615008378552478"><ele>341.0</ele><time>2026-04-03T15:35:05.999Z</time></trkpt><trkpt lat="43.88148730319084" lon="12.615237897385377"><ele>341.0</ele><time>2026-04-03T15:35:06.999Z</time></trkpt><trkpt lat="43.88145112479176" lon="12.615465774574407"><ele>341.0</ele><time>2026-04-03T15:35:07.999Z</time></trkpt><trkpt lat="43.881404174747196" lon="12.615680247276991"><ele>341.33333333333337</ele><time>2026-04-03T15:35:08.999Z</time></trkpt><trkpt lat="43.881400279987425" lon="12.615911416171395"><ele>341.6666666666667</ele><time>2026-04-03T15:35:09.999Z</time></trkpt><trkpt lat="43.88140164868802" lon="12.616143706894698"><ele>342.0</ele><time>2026-04-03T15:35:10.999Z</time></trkpt><trkpt lat="43.881421688430585" lon="12.616381289689912"><ele>342.0</ele><time>2026-04-03T15:35:11.999Z</time></trkpt><trkpt lat="43.881445767976366" lon="12.616621693853931"><ele>342.0</ele><time>2026-04-03T15:35:12.999Z</time></trkpt><trkpt lat="43.881476684121246" lon="12.616864277403147"><ele>342.0</ele><time>2026-04-03T15:35:13.999Z</time></trkpt><trkpt lat="43.881522176469225" lon="12.617094513002948"><ele>343.6666666666667</ele><time>2026-04-03T15:35:14.999Z</time></trkpt><trkpt lat="43.88159366244561" lon="12.61730663122289"><ele>345.33333333333337</ele><time>2026-04-03T15:35:15.999Z</time></trkpt><trkpt lat="43.88168312324544" lon="12.617500809097848"><ele>347.0</ele><time>2026-04-03T15:35:16.999Z</time></trkpt><trkpt lat="43.88179336241753" lon="12.617680127686768"><ele>345.6666666666667</ele><time>2026-04-03T15:35:17.999Z</time></trkpt><trkpt lat="43.88191498371199" lon="12.61784336261172"><ele>344.3333333333333</ele><time>2026-04-03T15:35:18.999Z</time></trkpt><trkpt lat="43.882016548592524" lon="12.61803309535064"><ele>343.0</ele><time>2026-04-03T15:35:19.999Z</time></trkpt><trkpt lat="43.882114527588264" lon="12.618192646700265"><ele>343.0</ele><time>2026-04-03T15:35:20.999Z</time></trkpt><trkpt lat="43.88219049716886" lon="12.618333316485272"><ele>343.0</ele><time>2026-04-03T15:35:21.999Z</time></trkpt><trkpt lat="43.88224497562163" lon="12.618486320680853"><ele>343.0</ele><time>2026-04-03T15:35:22.999Z</time></trkpt><trkpt lat="43.88226236018991" lon="12.618661244958917"><ele>343.0</ele><time>2026-04-03T15:35:23.999Z</time></trkpt><trkpt lat="43.88224478109508" lon="12.618847220841563"><ele>343.75</ele><time>2026-04-03T15:35:24.999Z</time></trkpt><trkpt lat="43.88219756004531" lon="12.619027937486322"><ele>344.5</ele><time>2026-04-03T15:35:25.999Z</time></trkpt><trkpt lat="43.88214533254323" lon="12.619214928029475"><ele>345.25</ele><time>2026-04-03T15:35:26.999Z</time></trkpt><trkpt lat="43.882097209626586" lon="12.61941334138294"><ele>346.0</ele><time>2026-04-03T15:35:27.999Z</time></trkpt><trkpt lat="43.88206679955823" lon="12.61963231611289"><ele>346.66666666666663</ele><time>2026-04-03T15:35:28.999Z</time></trkpt><trkpt lat="43.88204992011651" lon="12.6198555588719"><ele>347.3333333333333</ele><time>2026-04-03T15:35:29.999Z</time></trkpt><trkpt lat="43.88205231699424" lon="12.620087531539923"><ele>348.0</ele><time>2026-04-03T15:35:30.999Z</time></trkpt><trkpt lat="43.88204663770717" lon="12.620326761604774"><ele>349.0</ele><time>2026-04-03T15:35:31.999Z</time></trkpt><trkpt lat="43.882049959124565" lon="12.620570279082989"><ele>350.0</ele><time>2026-04-03T15:35:32.999Z</time></trkpt><trkpt lat="43.88203184119742" lon="12.620814677588896"><ele>351.0</ele><time>2026-04-03T15:35:33.999Z</time></trkpt><trkpt lat="43.882028101775234" lon="12.621044995399883"><ele>351.25</ele><time>2026-04-03T15:35:34.999Z</time></trkpt><trkpt lat="43.88201594215067" lon="12.621252903640393"><ele>351.5</ele><time>2026-04-03T15:35:35.999Z</time></trkpt><trkpt lat="43.88198823503369" lon="12.6214529868493"><ele>351.75</ele><time>2026-04-03T15:35:36.999Z</time></trkpt><trkpt lat="43.88193622686892" lon="12.621648339999398"><ele>352.0</ele><time>2026-04-03T15:35:37.999Z</time></trkpt><trkpt lat="43.88186152072002" lon="12.621831319080652"><ele>351.0</ele><time>2026-04-03T15:35:38.999Z</time></trkpt><trkpt lat="43.881784124912905" lon="12.62199117441737"><ele>350.0</ele><time>2026-04-03T15:35:39.999Z</time></trkpt><trkpt lat="43.881711179572214" lon="12.622133792793772"><ele>349.0</ele><time>2026-04-03T15:35:40.999Z</time></trkpt><trkpt lat="43.881646491316886" lon="12.62225891084338"><ele>348.0</ele><time>2026-04-03T15:35:41.999Z</time></trkpt><trkpt lat="43.881589152710816" lon="12.62236802976438"><ele>346.6666666666667</ele><time>2026-04-03T15:35:42.999Z</time></trkpt><trkpt lat="43.88155042026314" lon="12.622467863685479"><ele>345.3333333333333</ele><time>2026-04-03T15:35:43.999Z</time></trkpt><trkpt lat="43.88150452860464" lon="12.622542982737722"><ele>344.0</ele><time>2026-04-03T15:35:44.999Z</time></trkpt><trkpt lat="43.88144497418464" lon="12.622619222480651"><ele>342.66666666666663</ele><time>2026-04-03T15:35:45.999Z</time></trkpt><trkpt lat="43.881393558085946" lon="12.622688308823832"><ele>341.3333333333333</ele><time>2026-04-03T15:35:46.999Z</time></trkpt><trkpt lat="43.88142606558019" lon="12.622878757425111"><ele>340.0</ele><time>2026-04-03T15:35:47.999Z</time></trkpt><trkpt lat="43.88144601093111" lon="12.623003154400262"><ele>339.0</ele><time>2026-04-03T15:35:48.999Z</time></trkpt><trkpt lat="43.88148224291405" lon="12.623124106851948"><ele>338.0</ele><time>2026-04-03T15:35:49.999Z</time></trkpt><trkpt lat="43.881537454717105" lon="12.623246096178331"><ele>337.0</ele><time>2026-04-03T15:35:50.999Z</time></trkpt><trkpt lat="43.881618158052724" lon="12.62335404506694"><ele>336.0</ele><time>2026-04-03T15:35:51.999Z</time></trkpt><trkpt lat="43.88172022175404" lon="12.623433746125144"><ele>335.0</ele><time>2026-04-03T15:35:52.999Z</time></trkpt><trkpt lat="43.88182915367167" lon="12.623473315236104"><ele>335.0</ele><time>2026-04-03T15:35:53.999Z</time></trkpt><trkpt lat="43.881951988817995" lon="12.623481527596898"><ele>335.0</ele><time>2026-04-03T15:35:54.999Z</time></trkpt><trkpt lat="43.88208222111578" lon="12.623485460041989"><ele>335.0</ele><time>2026-04-03T15:35:55.999Z</time></trkpt><trkpt lat="43.88222674118276" lon="12.623483643075451"><ele>335.0</ele><time>2026-04-03T15:35:56.999Z</time></trkpt><trkpt lat="43.88237255320711" lon="12.623488648319556"><ele>335.0</ele><time>2026-04-03T15:35:57.999Z</time></trkpt><trkpt lat="43.88252078874007" lon="12.623498390889223"><ele>335.0</ele><time>2026-04-03T15:35:59Z</time></trkpt><trkpt lat="43.88265429868325" lon="12.62350817919296"><ele>335.0</ele><time>2026-04-03T15:36:00Z</time></trkpt><trkpt lat="43.882778419689664" lon="12.623545877410775"><ele>335.0</ele><time>2026-04-03T15:36:01Z</time></trkpt><trkpt lat="43.88288826245559" lon="12.623620952043185"><ele>336.25</ele><time>2026-04-03T15:36:02Z</time></trkpt><trkpt lat="43.88297817056132" lon="12.623722923177851"><ele>337.5</ele><time>2026-04-03T15:36:03Z</time></trkpt><trkpt lat="43.88304390387949" lon="12.623848670264675"><ele>338.75</ele><time>2026-04-03T15:36:04Z</time></trkpt><trkpt lat="43.88309208987789" lon="12.624003295952171"><ele>340.0</ele><time>2026-04-03T15:36:05Z</time></trkpt><trkpt lat="43.88312629267928" lon="12.624178174089922"><ele>340.0</ele><time>2026-04-03T15:36:06Z</time></trkpt><trkpt lat="43.883139337431004" lon="12.624367709535264"><ele>340.0</ele><time>2026-04-03T15:36:07Z</time></trkpt><trkpt lat="43.88315151408472" lon="12.62455598233954"><ele>340.0</ele><time>2026-04-03T15:36:08Z</time></trkpt><trkpt lat="43.88317997614244" lon="12.624733858032817"><ele>340.0</ele><time>2026-04-03T15:36:09Z</time></trkpt><trkpt lat="43.88323319071457" lon="12.624906469906577"><ele>340.0</ele><time>2026-04-03T15:36:10Z</time></trkpt><trkpt lat="43.88329595811462" lon="12.62508566217772"><ele>340.0</ele><time>2026-04-03T15:36:11Z</time></trkpt><trkpt lat="43.88336148048914" lon="12.625264985852265"><ele>340.0</ele><time>2026-04-03T15:36:12Z</time></trkpt><trkpt lat="43.883417732608706" lon="12.625450163415413"><ele>340.0</ele><time>2026-04-03T15:36:13Z</time></trkpt><trkpt lat="43.88344589478995" lon="12.62564205704894"><ele>340.0</ele><time>2026-04-03T15:36:14Z</time></trkpt><trkpt lat="43.8834402548509" lon="12.62584296967472"><ele>340.0</ele><time>2026-04-03T15:36:15Z</time></trkpt><trkpt lat="43.883411630243664" lon="12.626049234179813"><ele>340.0</ele><time>2026-04-03T15:36:16Z</time></trkpt><trkpt lat="43.88338196960617" lon="12.62625294261004"><ele>340.0</ele><time>2026-04-03T15:36:17Z</time></trkpt><trkpt lat="43.88335641475226" lon="12.626435036853001"><ele>334.8</ele><time>2026-04-03T15:36:18Z</time></trkpt><trkpt lat="43.88334470335161" lon="12.626604928587671"><ele>329.6</ele><time>2026-04-03T15:36:19Z</time></trkpt><trkpt lat="43.88335749786465" lon="12.626748659451957"><ele>324.4</ele><time>2026-04-03T15:36:20Z</time></trkpt><trkpt lat="43.883401906438706" lon="12.626870484387943"><ele>319.2</ele><time>2026-04-03T15:36:21Z</time></trkpt><trkpt lat="43.883475378722395" lon="12.626962479662284"><ele>314.0</ele><time>2026-04-03T15:36:22Z</time></trkpt><trkpt lat="43.88357220671174" lon="12.627012206040687"><ele>314.0</ele><time>2026-04-03T15:36:23Z</time></trkpt><trkpt lat="43.883684783440096" lon="12.627017596496021"><ele>314.0</ele><time>2026-04-03T15:36:24Z</time></trkpt><trkpt lat="43.88380414421763" lon="12.626974921448042"><ele>314.0</ele><time>2026-04-03T15:36:25Z</time></trkpt><trkpt lat="43.88390744064381" lon="12.626883841151354"><ele>314.0</ele><time>2026-04-03T15:36:26Z</time></trkpt><trkpt lat="43.88400027347882" lon="12.626762480636113"><ele>314.0</ele><time>2026-04-03T15:36:27Z</time></trkpt><trkpt lat="43.88410550971242" lon="12.626648192437644"><ele>314.0</ele><time>2026-04-03T15:36:28Z</time></trkpt><trkpt lat="43.8842385665646" lon="12.626579417620366"><ele>314.0</ele><time>2026-04-03T15:36:29Z</time></trkpt><trkpt lat="43.884388021903305" lon="12.626584987669029"><ele>314.0</ele><time>2026-04-03T15:36:30Z</time></trkpt><trkpt lat="43.884528519748336" lon="12.626638015200681"><ele>313.25</ele><time>2026-04-03T15:36:31Z</time></trkpt><trkpt lat="43.884656846399515" lon="12.626705046811793"><ele>312.5</ele><time>2026-04-03T15:36:32Z</time></trkpt><trkpt lat="43.884789158942816" lon="12.626770275053747"><ele>311.75</ele><time>2026-04-03T15:36:33Z</time></trkpt><trkpt lat="43.88492642088912" lon="12.626839997221474"><ele>311.0</ele><time>2026-04-03T15:36:34Z</time></trkpt><trkpt lat="43.88506845518628" lon="12.626900328025767"><ele>314.0</ele><time>2026-04-03T15:36:35Z</time></trkpt><trkpt lat="43.88521871384617" lon="12.626949302977525"><ele>317.0</ele><time>2026-04-03T15:36:36Z</time></trkpt><trkpt lat="43.885372048878686" lon="12.626975545801997"><ele>320.0</ele><time>2026-04-03T15:36:37Z</time></trkpt><trkpt lat="43.88552959896166" lon="12.627006044026361"><ele>316.6666666666667</ele><time>2026-04-03T15:36:38Z</time></trkpt><trkpt lat="43.88568365857425" lon="12.627080178420862"><ele>313.3333333333333</ele><time>2026-04-03T15:36:39Z</time></trkpt><trkpt lat="43.88582322451456" lon="12.627191292232132"><ele>310.0</ele><time>2026-04-03T15:36:40Z</time></trkpt><trkpt lat="43.885948595869195" lon="12.627327589018169"><ele>310.0</ele><time>2026-04-03T15:36:41Z</time></trkpt><trkpt lat="43.88605531080374" lon="12.627490552489231"><ele>310.0</ele><time>2026-04-03T15:36:42Z</time></trkpt><trkpt lat="43.88614868897589" lon="12.627661939985126"><ele>310.0</ele><time>2026-04-03T15:36:43Z</time></trkpt><trkpt lat="43.8862333058921" lon="12.627817769772518"><ele>303.25</ele><time>2026-04-03T15:36:44Z</time></trkpt><trkpt lat="43.886327759843475" lon="12.627932888882253"><ele>296.5</ele><time>2026-04-03T15:36:45Z</time></trkpt><trkpt lat="43.886441187499216" lon="12.628010349198165"><ele>289.75</ele><time>2026-04-03T15:36:46Z</time></trkpt><trkpt lat="43.88657228010181" lon="12.628037520034702"><ele>283.0</ele><time>2026-04-03T15:36:47Z</time></trkpt><trkpt lat="43.886713018649765" lon="12.628013749349803"><ele>282.5</ele><time>2026-04-03T15:36:48Z</time></trkpt><trkpt lat="43.88684204591842" lon="12.627945370322019"><ele>282.0</ele><time>2026-04-03T15:36:49Z</time></trkpt><trkpt lat="43.88697993738105" lon="12.627858615435734"><ele>281.5</ele><time>2026-04-03T15:36:50Z</time></trkpt><trkpt lat="43.887129097394364" lon="12.62781494809521"><ele>281.0</ele><time>2026-04-03T15:36:51Z</time></trkpt><trkpt lat="43.88727825424553" lon="12.627820901435687"><ele>281.0</ele><time>2026-04-03T15:36:52Z</time></trkpt><trkpt lat="43.88742872016214" lon="12.627850250471631"><ele>281.0</ele><time>2026-04-03T15:36:53Z</time></trkpt><trkpt lat="43.88758338641427" lon="12.627898718904675"><ele>281.0</ele><time>2026-04-03T15:36:54Z</time></trkpt><trkpt lat="43.88773717035685" lon="12.627973735494022"><ele>282.6666666666667</ele><time>2026-04-03T15:36:55Z</time></trkpt><trkpt lat="43.88789200179673" lon="12.628061283423039"><ele>284.3333333333333</ele><time>2026-04-03T15:36:56Z</time></trkpt><trkpt lat="43.8880517049219" lon="12.628138676417228"><ele>286.0</ele><time>2026-04-03T15:36:56.999Z</time></trkpt><trkpt lat="43.88821225283889" lon="12.628216913835576"><ele>286.0</ele><time>2026-04-03T15:36:57.999Z</time></trkpt><trkpt lat="43.888372176857345" lon="12.628296382894627"><ele>286.0</ele><time>2026-04-03T15:36:58.999Z</time></trkpt><trkpt lat="43.88853113664291" lon="12.628383546241274"><ele>286.0</ele><time>2026-04-03T15:36:59.999Z</time></trkpt><trkpt lat="43.88868828130469" lon="12.628483945072459"><ele>289.3333333333333</ele><time>2026-04-03T15:37:00.999Z</time></trkpt><trkpt lat="43.88883181488993" lon="12.62858990827162"><ele>292.6666666666667</ele><time>2026-04-03T15:37:01.999Z</time></trkpt><trkpt lat="43.8889721605616" lon="12.628697795703504"><ele>296.0</ele><time>2026-04-03T15:37:02.999Z</time></trkpt><trkpt lat="43.88911390801809" lon="12.628809056156602"><ele>289.33333333333337</ele><time>2026-04-03T15:37:03.999Z</time></trkpt><trkpt lat="43.8892601903642" lon="12.62891395331288"><ele>282.6666666666667</ele><time>2026-04-03T15:37:04.999Z</time></trkpt><trkpt lat="43.88940003324028" lon="12.628991310472438"><ele>276.0</ele><time>2026-04-03T15:37:05.999Z</time></trkpt><trkpt lat="43.88954535640536" lon="12.629038989753212"><ele>276.0</ele><time>2026-04-03T15:37:06.999Z</time></trkpt><trkpt lat="43.88969515850471" lon="12.62903510929279"><ele>276.0</ele><time>2026-04-03T15:37:07.999Z</time></trkpt><trkpt lat="43.889855177011896" lon="12.629005498342474"><ele>276.0</ele><time>2026-04-03T15:37:08.999Z</time></trkpt><trkpt lat="43.8900159036245" lon="12.62895388548636"><ele>277.0</ele><time>2026-04-03T15:37:09.999Z</time></trkpt><trkpt lat="43.890173643920285" lon="12.628896623841493"><ele>278.0</ele><time>2026-04-03T15:37:10.999Z</time></trkpt><trkpt lat="43.89031584569226" lon="12.628854745826489"><ele>279.0</ele><time>2026-04-03T15:37:11.999Z</time></trkpt><trkpt lat="43.89044729614184" lon="12.62882665196928"><ele>280.0</ele><time>2026-04-03T15:37:12.999Z</time></trkpt><trkpt lat="43.89056809081981" lon="12.628820960936185"><ele>280.0</ele><time>2026-04-03T15:37:13.999Z</time></trkpt><trkpt lat="43.890681635755996" lon="12.628860718072552"><ele>280.0</ele><time>2026-04-03T15:37:14.999Z</time></trkpt><trkpt lat="43.890768371877996" lon="12.628960846696584"><ele>280.0</ele><time>2026-04-03T15:37:15.999Z</time></trkpt><trkpt lat="43.89082747008028" lon="12.629102543984747"><ele>280.0</ele><time>2026-04-03T15:37:16.999Z</time></trkpt><trkpt lat="43.890878178771445" lon="12.629262896706837"><ele>280.5</ele><time>2026-04-03T15:37:17.999Z</time></trkpt><trkpt lat="43.890926752884155" lon="12.629440393484987"><ele>281.0</ele><time>2026-04-03T15:37:18.999Z</time></trkpt><trkpt lat="43.89097953689982" lon="12.629632555113009"><ele>281.5</ele><time>2026-04-03T15:37:19.999Z</time></trkpt><trkpt lat="43.891032248028104" lon="12.629836415815802"><ele>282.0</ele><time>2026-04-03T15:37:20.999Z</time></trkpt><trkpt lat="43.89107952642751" lon="12.63002836294944"><ele>282.0</ele><time>2026-04-03T15:37:21.999Z</time></trkpt><trkpt lat="43.89112997532712" lon="12.630203832724789"><ele>282.0</ele><time>2026-04-03T15:37:22.999Z</time></trkpt><trkpt lat="43.89119456709734" lon="12.63035803248378"><ele>282.0</ele><time>2026-04-03T15:37:23.999Z</time></trkpt><trkpt lat="43.89128201193656" lon="12.630479260514342"><ele>282.0</ele><time>2026-04-03T15:37:24.999Z</time></trkpt><trkpt lat="43.89139589872377" lon="12.630571436383066"><ele>278.5</ele><time>2026-04-03T15:37:25.999Z</time></trkpt><trkpt lat="43.89151919045955" lon="12.630666994091404"><ele>275.0</ele><time>2026-04-03T15:37:26.999Z</time></trkpt><trkpt lat="43.89162156277066" lon="12.630807889419708"><ele>271.5</ele><time>2026-04-03T15:37:27.999Z</time></trkpt><trkpt lat="43.89168995233473" lon="12.630987636840908"><ele>268.0</ele><time>2026-04-03T15:37:28.999Z</time></trkpt><trkpt lat="43.89173945049191" lon="12.631180760221513"><ele>270.5</ele><time>2026-04-03T15:37:29.999Z</time></trkpt><trkpt lat="43.89176033712827" lon="12.631383335547001"><ele>273.0</ele><time>2026-04-03T15:37:30.999Z</time></trkpt><trkpt lat="43.89178515137544" lon="12.63157496816972"><ele>275.5</ele><time>2026-04-03T15:37:31.999Z</time></trkpt><trkpt lat="43.89176414165648" lon="12.631766622673101"><ele>278.0</ele><time>2026-04-03T15:37:32.999Z</time></trkpt><trkpt lat="43.89177732677996" lon="12.631942674680955"><ele>272.75</ele><time>2026-04-03T15:37:33.999Z</time></trkpt><trkpt lat="43.891797380146706" lon="12.632106794816906"><ele>267.5</ele><time>2026-04-03T15:37:34.999Z</time></trkpt><trkpt lat="43.891851062254325" lon="12.632262398677824"><ele>262.25</ele><time>2026-04-03T15:37:35.999Z</time></trkpt><trkpt lat="43.89192892156164" lon="12.632404069145409"><ele>257.0</ele><time>2026-04-03T15:37:36.999Z</time></trkpt><trkpt lat="43.89202895210739" lon="12.632524799956903"><ele>257.0</ele><time>2026-04-03T15:37:37.999Z</time></trkpt><trkpt lat="43.892145780082984" lon="12.632604660538698"><ele>257.0</ele><time>2026-04-03T15:37:38.999Z</time></trkpt><trkpt lat="43.89228857119058" lon="12.63264291930205"><ele>257.0</ele><time>2026-04-03T15:37:39.999Z</time></trkpt><trkpt lat="43.892436375537066" lon="12.632637364515976"><ele>257.0</ele><time>2026-04-03T15:37:40.999Z</time></trkpt><trkpt lat="43.89259301844389" lon="12.632611348988306"><ele>256.5</ele><time>2026-04-03T15:37:41.999Z</time></trkpt><trkpt lat="43.89274096081466" lon="12.63261769586061"><ele>256.0</ele><time>2026-04-03T15:37:42.999Z</time></trkpt><trkpt lat="43.89288993065174" lon="12.632636866177888"><ele>255.5</ele><time>2026-04-03T15:37:43.999Z</time></trkpt><trkpt lat="43.893035889528775" lon="12.632673368712542"><ele>255.0</ele><time>2026-04-03T15:37:44.999Z</time></trkpt><trkpt lat="43.89318070456547" lon="12.632713307346274"><ele>255.0</ele><time>2026-04-03T15:37:45.999Z</time></trkpt><trkpt lat="43.89332460086354" lon="12.632755877147208"><ele>255.0</ele><time>2026-04-03T15:37:46.999Z</time></trkpt><trkpt lat="43.89346846210693" lon="12.632799032753061"><ele>255.0</ele><time>2026-04-03T15:37:47.999Z</time></trkpt><trkpt lat="43.89361129053162" lon="12.632848511442095"><ele>255.0</ele><time>2026-04-03T15:37:48.999Z</time></trkpt><trkpt lat="43.89375444139847" lon="12.632892616654585"><ele>250.25</ele><time>2026-04-03T15:37:49.999Z</time></trkpt><trkpt lat="43.893896535282835" lon="12.63293381676144"><ele>245.5</ele><time>2026-04-03T15:37:50.999Z</time></trkpt><trkpt lat="43.89404039678068" lon="12.632974756392322"><ele>240.75</ele><time>2026-04-03T15:37:51.999Z</time></trkpt><trkpt lat="43.89418447588941" lon="12.63302086202647"><ele>236.0</ele><time>2026-04-03T15:37:52.999Z</time></trkpt><trkpt lat="43.89433022528859" lon="12.63306063170428"><ele>236.0</ele><time>2026-04-03T15:37:53.999Z</time></trkpt><trkpt lat="43.8944755764629" lon="12.633065616337287"><ele>236.0</ele><time>2026-04-03T15:37:54.999Z</time></trkpt><trkpt lat="43.89462129144875" lon="12.633015856627622"><ele>236.0</ele><time>2026-04-03T15:37:55.999Z</time></trkpt><trkpt lat="43.89476581833545" lon="12.632948384871453"><ele>236.0</ele><time>2026-04-03T15:37:56.999Z</time></trkpt><trkpt lat="43.89490967626931" lon="12.632895896499464"><ele>236.0</ele><time>2026-04-03T15:37:57.999Z</time></trkpt><trkpt lat="43.895050087257154" lon="12.632882554144901"><ele>236.0</ele><time>2026-04-03T15:37:58.999Z</time></trkpt><trkpt lat="43.895177395310064" lon="12.6329250808233"><ele>236.0</ele><time>2026-04-03T15:37:59.999Z</time></trkpt><trkpt lat="43.895288759984744" lon="12.633009154722528"><ele>236.0</ele><time>2026-04-03T15:38:00.999Z</time></trkpt><trkpt lat="43.89538026819513" lon="12.633123514016585"><ele>236.75</ele><time>2026-04-03T15:38:01.999Z</time></trkpt><trkpt lat="43.89544300207241" lon="12.633259836363353"><ele>237.5</ele><time>2026-04-03T15:38:02.999Z</time></trkpt><trkpt lat="43.89547949822285" lon="12.633413368307528"><ele>238.25</ele><time>2026-04-03T15:38:03.999Z</time></trkpt><trkpt lat="43.89549156112335" lon="12.63357642085754"><ele>239.0</ele><time>2026-04-03T15:38:05Z</time></trkpt><trkpt lat="43.895480968170986" lon="12.633735370875462"><ele>239.0</ele><time>2026-04-03T15:38:06Z</time></trkpt><trkpt lat="43.89544196267059" lon="12.633879788860558"><ele>238.99999999999997</ele><time>2026-04-03T15:38:07Z</time></trkpt><trkpt lat="43.895379965747544" lon="12.634007588894514"><ele>238.99999999999997</ele><time>2026-04-03T15:38:08Z</time></trkpt><trkpt lat="43.89530939131011" lon="12.634125069806608"><ele>239.0</ele><time>2026-04-03T15:38:09Z</time></trkpt><trkpt lat="43.895232948535515" lon="12.634236028331927"><ele>239.0</ele><time>2026-04-03T15:38:10Z</time></trkpt><trkpt lat="43.89514648812075" lon="12.634343760582048"><ele>236.5</ele><time>2026-04-03T15:38:11Z</time></trkpt><trkpt lat="43.89504739892452" lon="12.634449283186006"><ele>234.0</ele><time>2026-04-03T15:38:12Z</time></trkpt><trkpt lat="43.894946785017936" lon="12.634560940928159"><ele>231.5</ele><time>2026-04-03T15:38:13Z</time></trkpt><trkpt lat="43.894854912219344" lon="12.634677203688247"><ele>229.0</ele><time>2026-04-03T15:38:14Z</time></trkpt><trkpt lat="43.89478243717542" lon="12.634809912986418"><ele>229.0</ele><time>2026-04-03T15:38:15Z</time></trkpt><trkpt lat="43.894729543354345" lon="12.634966240380432"><ele>229.0</ele><time>2026-04-03T15:38:16Z</time></trkpt><trkpt lat="43.894698583358874" lon="12.635145864367823"><ele>229.0</ele><time>2026-04-03T15:38:17Z</time></trkpt><trkpt lat="43.894677336545925" lon="12.635335223907457"><ele>229.0</ele><time>2026-04-03T15:38:18Z</time></trkpt><trkpt lat="43.89466300039063" lon="12.635526839811973"><ele>228.5</ele><time>2026-04-03T15:38:19Z</time></trkpt><trkpt lat="43.89466716515138" lon="12.635707412064427"><ele>228.0</ele><time>2026-04-03T15:38:20Z</time></trkpt><trkpt lat="43.89468585665512" lon="12.635854908309021"><ele>227.5</ele><time>2026-04-03T15:38:21Z</time></trkpt><trkpt lat="43.89470652956667" lon="12.635996456249407"><ele>227.0</ele><time>2026-04-03T15:38:22Z</time></trkpt><trkpt lat="43.89478946061312" lon="12.636097757230154"><ele>224.75</ele><time>2026-04-03T15:38:23Z</time></trkpt><trkpt lat="43.894882481116824" lon="12.63614883123825"><ele>222.5</ele><time>2026-04-03T15:38:24Z</time></trkpt><trkpt lat="43.894995019076156" lon="12.636146116324994"><ele>220.25</ele><time>2026-04-03T15:38:25Z</time></trkpt><trkpt lat="43.89510898925261" lon="12.636174433620662"><ele>218.0</ele><time>2026-04-03T15:38:26Z</time></trkpt><trkpt lat="43.8952199283969" lon="12.636247162502986"><ele>214.75</ele><time>2026-04-03T15:38:27Z</time></trkpt><trkpt lat="43.89532971456876" lon="12.636335523531951"><ele>211.5</ele><time>2026-04-03T15:38:28Z</time></trkpt><trkpt lat="43.895439111793024" lon="12.636398254141778"><ele>208.25</ele><time>2026-04-03T15:38:29Z</time></trkpt><trkpt lat="43.895552496540006" lon="12.636432423786854"><ele>205.0</ele><time>2026-04-03T15:38:30Z</time></trkpt><trkpt lat="43.89566485141688" lon="12.63641404379352"><ele>205.0</ele><time>2026-04-03T15:38:31Z</time></trkpt><trkpt lat="43.895775424404974" lon="12.636335438439302"><ele>205.0</ele><time>2026-04-03T15:38:32Z</time></trkpt><trkpt lat="43.89587270765362" lon="12.636203644773826"><ele>205.0</ele><time>2026-04-03T15:38:33Z</time></trkpt><trkpt lat="43.895960479630894" lon="12.63603614510284"><ele>205.0</ele><time>2026-04-03T15:38:34Z</time></trkpt><trkpt lat="43.89606323140322" lon="12.63588191480083"><ele>205.0</ele><time>2026-04-03T15:38:35Z</time></trkpt><trkpt lat="43.896179794209345" lon="12.635755936192728"><ele>205.0</ele><time>2026-04-03T15:38:36Z</time></trkpt><trkpt lat="43.89631016369491" lon="12.635663998571763"><ele>205.0</ele><time>2026-04-03T15:38:37Z</time></trkpt><trkpt lat="43.896442643841894" lon="12.635610567176844"><ele>205.0</ele><time>2026-04-03T15:38:38Z</time></trkpt><trkpt lat="43.896582962588276" lon="12.635583821488032"><ele>205.0</ele><time>2026-04-03T15:38:39Z</time></trkpt><trkpt lat="43.89672909570135" lon="12.635597327171713"><ele>205.0</ele><time>2026-04-03T15:38:40Z</time></trkpt><trkpt lat="43.896876788349104" lon="12.635652460694239"><ele>205.0</ele><time>2026-04-03T15:38:41Z</time></trkpt><trkpt lat="43.89702812300679" lon="12.6357282615529"><ele>204.0</ele><time>2026-04-03T15:38:42Z</time></trkpt><trkpt lat="43.89718508971358" lon="12.635798848751348"><ele>203.0</ele><time>2026-04-03T15:38:43Z</time></trkpt><trkpt lat="43.897351729792646" lon="12.635827649643456"><ele>202.0</ele><time>2026-04-03T15:38:44Z</time></trkpt><trkpt lat="43.897505545894624" lon="12.635826570853045"><ele>201.25</ele><time>2026-04-03T15:38:45Z</time></trkpt><trkpt lat="43.89765194995084" lon="12.635835614369123"><ele>200.5</ele><time>2026-04-03T15:38:46Z</time></trkpt><trkpt lat="43.897787437330514" lon="12.635885201764454"><ele>199.75</ele><time>2026-04-03T15:38:47Z</time></trkpt><trkpt lat="43.89790503923518" lon="12.63598265822393"><ele>199.0</ele><time>2026-04-03T15:38:48Z</time></trkpt><trkpt lat="43.89798708360412" lon="12.6361382997777"><ele>197.5</ele><time>2026-04-03T15:38:49Z</time></trkpt><trkpt lat="43.89808073686834" lon="12.636293514347026"><ele>196.0</ele><time>2026-04-03T15:38:50Z</time></trkpt><trkpt lat="43.89820101435219" lon="12.636419600711651"><ele>194.5</ele><time>2026-04-03T15:38:51Z</time></trkpt><trkpt lat="43.89831283707477" lon="12.636544856993456"><ele>193.0</ele><time>2026-04-03T15:38:52Z</time></trkpt><trkpt lat="43.89841451658212" lon="12.636672463462377"><ele>192.5</ele><time>2026-04-03T15:38:53Z</time></trkpt><trkpt lat="43.89848205915644" lon="12.636837398338628"><ele>192.0</ele><time>2026-04-03T15:38:54Z</time></trkpt><trkpt lat="43.89853311471189" lon="12.637020273363417"><ele>191.5</ele><time>2026-04-03T15:38:55Z</time></trkpt><trkpt lat="43.89855707562211" lon="12.637173196488943"><ele>191.0</ele><time>2026-04-03T15:38:56Z</time></trkpt><trkpt lat="43.8986236924213" lon="12.637287527778259"><ele>189.5</ele><time>2026-04-03T15:38:56.999Z</time></trkpt><trkpt lat="43.89874171111542" lon="12.6373448320402"><ele>188.0</ele><time>2026-04-03T15:38:57.999Z</time></trkpt><trkpt lat="43.89886597531369" lon="12.637376545809365"><ele>186.5</ele><time>2026-04-03T15:38:58.999Z</time></trkpt><trkpt lat="43.899001827357715" lon="12.63738407914655"><ele>185.0</ele><time>2026-04-03T15:38:59.999Z</time></trkpt><trkpt lat="43.89913702999582" lon="12.637367079025674"><ele>183.25</ele><time>2026-04-03T15:39:00.999Z</time></trkpt><trkpt lat="43.899268276909794" lon="12.637326055429263"><ele>181.5</ele><time>2026-04-03T15:39:01.999Z</time></trkpt><trkpt lat="43.899376976983405" lon="12.637249242617608"><ele>179.75</ele><time>2026-04-03T15:39:02.999Z</time></trkpt><trkpt lat="43.899471214425134" lon="12.63716677380818"><ele>178.0</ele><time>2026-04-03T15:39:03.999Z</time></trkpt><trkpt lat="43.89956769416401" lon="12.637139928186865"><ele>178.0</ele><time>2026-04-03T15:39:04.999Z</time></trkpt><trkpt lat="43.8996636713326" lon="12.637179796707192"><ele>178.0</ele><time>2026-04-03T15:39:05.999Z</time></trkpt><trkpt lat="43.8997552196043" lon="12.637259009217809"><ele>178.0</ele><time>2026-04-03T15:39:06.999Z</time></trkpt><trkpt lat="43.899807324857974" lon="12.637416117627374"><ele>178.0</ele><time>2026-04-03T15:39:07.999Z</time></trkpt><trkpt lat="43.89990001326899" lon="12.637547681453153"><ele>178.0</ele><time>2026-04-03T15:39:08.999Z</time></trkpt><trkpt lat="43.89998512289287" lon="12.637694384868805"><ele>178.0</ele><time>2026-04-03T15:39:09.999Z</time></trkpt><trkpt lat="43.90007407201589" lon="12.637856164326092"><ele>178.0</ele><time>2026-04-03T15:39:10.999Z</time></trkpt><trkpt lat="43.900158967494384" lon="12.638029751779984"><ele>178.0</ele><time>2026-04-03T15:39:11.999Z</time></trkpt><trkpt lat="43.90020807897968" lon="12.63823091766548"><ele>175.25</ele><time>2026-04-03T15:39:12.999Z</time></trkpt><trkpt lat="43.90024603250384" lon="12.638426554801999"><ele>172.5</ele><time>2026-04-03T15:39:13.999Z</time></trkpt><trkpt lat="43.90026145931174" lon="12.638630239814706"><ele>169.75</ele><time>2026-04-03T15:39:14.999Z</time></trkpt><trkpt lat="43.90028740656234" lon="12.638836524582883"><ele>167.0</ele><time>2026-04-03T15:39:15.999Z</time></trkpt><trkpt lat="43.90027947317119" lon="12.639049155098748"><ele>167.0</ele><time>2026-04-03T15:39:16.999Z</time></trkpt><trkpt lat="43.90029874845927" lon="12.639260104869052"><ele>167.0</ele><time>2026-04-03T15:39:17.999Z</time></trkpt><trkpt lat="43.900325630543165" lon="12.63946963981837"><ele>167.0</ele><time>2026-04-03T15:39:18.999Z</time></trkpt><trkpt lat="43.9003573874788" lon="12.63967434672993"><ele>167.25</ele><time>2026-04-03T15:39:19.999Z</time></trkpt><trkpt lat="43.90039403770667" lon="12.639875890458699"><ele>167.5</ele><time>2026-04-03T15:39:20.999Z</time></trkpt><trkpt lat="43.90042977664567" lon="12.64007510351739"><ele>167.75</ele><time>2026-04-03T15:39:21.999Z</time></trkpt><trkpt lat="43.900464833647256" lon="12.640270343088943"><ele>168.0</ele><time>2026-04-03T15:39:22.999Z</time></trkpt><trkpt lat="43.90051228203008" lon="12.640454331066488"><ele>168.0</ele><time>2026-04-03T15:39:23.999Z</time></trkpt><trkpt lat="43.90054313113414" lon="12.64062794281577"><ele>168.0</ele><time>2026-04-03T15:39:24.999Z</time></trkpt><trkpt lat="43.90058130780497" lon="12.640784348981422"><ele>168.0</ele><time>2026-04-03T15:39:25.999Z</time></trkpt><trkpt lat="43.90062459905876" lon="12.64089073701056"><ele>168.0</ele><time>2026-04-03T15:39:26.999Z</time></trkpt><trkpt lat="43.900676281804685" lon="12.640991603483945"><ele>168.0</ele><time>2026-04-03T15:39:27.999Z</time></trkpt><trkpt lat="43.900732464803944" lon="12.641092174272252"><ele>167.16666666666666</ele><time>2026-04-03T15:39:28.999Z</time></trkpt><trkpt lat="43.900797664885644" lon="12.641180170447631"><ele>166.33333333333334</ele><time>2026-04-03T15:39:29.999Z</time></trkpt><trkpt lat="43.90086300662069" lon="12.641252959946398"><ele>165.5</ele><time>2026-04-03T15:39:30.999Z</time></trkpt><trkpt lat="43.900923562512276" lon="12.641327121727526"><ele>164.66666666666669</ele><time>2026-04-03T15:39:31.999Z</time></trkpt><trkpt lat="43.900972018834665" lon="12.641404309878892"><ele>163.83333333333334</ele><time>2026-04-03T15:39:32.999Z</time></trkpt><trkpt lat="43.901009449865256" lon="12.641484767401444"><ele>163.0</ele><time>2026-04-03T15:39:33.999Z</time></trkpt><trkpt lat="43.90104839956847" lon="12.641575886190642"><ele>161.20000000000002</ele><time>2026-04-03T15:39:34.999Z</time></trkpt><trkpt lat="43.90109265168222" lon="12.641692048409979"><ele>159.4</ele><time>2026-04-03T15:39:35.999Z</time></trkpt><trkpt lat="43.90113556382942" lon="12.641821633582316"><ele>157.60000000000002</ele><time>2026-04-03T15:39:36.999Z</time></trkpt><trkpt lat="43.90117588288887" lon="12.641959270845453"><ele>155.8</ele><time>2026-04-03T15:39:37.999Z</time></trkpt><trkpt lat="43.9012128733974" lon="12.642089990174105"><ele>154.0</ele><time>2026-04-03T15:39:38.999Z</time></trkpt><trkpt lat="43.90124999885598" lon="12.64221362786327"><ele>153.8</ele><time>2026-04-03T15:39:39.999Z</time></trkpt><trkpt lat="43.90129229405408" lon="12.642337477986025"><ele>153.60000000000002</ele><time>2026-04-03T15:39:40.999Z</time></trkpt><trkpt lat="43.90133500544718" lon="12.64246819337307"><ele>153.4</ele><time>2026-04-03T15:39:41.999Z</time></trkpt><trkpt lat="43.90137924408642" lon="12.642604964941379"><ele>153.20000000000002</ele><time>2026-04-03T15:39:42.999Z</time></trkpt><trkpt lat="43.90145701379908" lon="12.642726931342365"><ele>153.0</ele><time>2026-04-03T15:39:43.999Z</time></trkpt><trkpt lat="43.901536490094706" lon="12.642847394986061"><ele>153.4</ele><time>2026-04-03T15:39:44.999Z</time></trkpt><trkpt lat="43.90161774729609" lon="12.64297229791186"><ele>153.8</ele><time>2026-04-03T15:39:45.999Z</time></trkpt><trkpt lat="43.90168815727708" lon="12.643093804962875"><ele>154.2</ele><time>2026-04-03T15:39:46.999Z</time></trkpt><trkpt lat="43.90174754410027" lon="12.64321213981049"><ele>154.6</ele><time>2026-04-03T15:39:47.999Z</time></trkpt><trkpt lat="43.90179107640176" lon="12.643338689874982"><ele>155.0</ele><time>2026-04-03T15:39:48.999Z</time></trkpt><trkpt lat="43.90182342782062" lon="12.643466575875037"><ele>152.0</ele><time>2026-04-03T15:39:49.999Z</time></trkpt><trkpt lat="43.90184132464734" lon="12.643606057519438"><ele>149.0</ele><time>2026-04-03T15:39:50.999Z</time></trkpt><trkpt lat="43.901841880070236" lon="12.643745065611762"><ele>146.0</ele><time>2026-04-03T15:39:51.999Z</time></trkpt><trkpt lat="43.9018364698187" lon="12.643889020628793"><ele>143.0</ele><time>2026-04-03T15:39:52.999Z</time></trkpt><trkpt lat="43.90182668294953" lon="12.644028604022"><ele>140.0</ele><time>2026-04-03T15:39:53.999Z</time></trkpt><trkpt lat="43.90181651456536" lon="12.644150440530836"><ele>139.8</ele><time>2026-04-03T15:39:54.999Z</time></trkpt><trkpt lat="43.9018073589487" lon="12.644245576778628"><ele>139.6</ele><time>2026-04-03T15:39:55.999Z</time></trkpt><trkpt lat="43.90179034518326" lon="12.64437026972628"><ele>139.4</ele><time>2026-04-03T15:39:57.999Z</time></trkpt><trkpt lat="43.901775997161984" lon="12.644533235006207"><ele>139.2</ele><time>2026-04-03T15:39:59.999Z</time></trkpt><trkpt lat="43.901763525730175" lon="12.644640596026823"><ele>139.0</ele><time>2026-04-03T15:40:00.999Z</time></trkpt><trkpt lat="43.90174948773703" lon="12.644767956590815"><ele>140.0</ele><time>2026-04-03T15:40:01.999Z</time></trkpt><trkpt lat="43.90173627318459" lon="12.64491665161979"><ele>141.0</ele><time>2026-04-03T15:40:02.999Z</time></trkpt><trkpt lat="43.9017224485365" lon="12.64506384419454"><ele>142.0</ele><time>2026-04-03T15:40:03.999Z</time></trkpt><trkpt lat="43.90170562919404" lon="12.645213575441543"><ele>143.0</ele><time>2026-04-03T15:40:04.999Z</time></trkpt><trkpt lat="43.90168969373535" lon="12.645365154881967"><ele>144.0</ele><time>2026-04-03T15:40:05.999Z</time></trkpt><trkpt lat="43.901684215980325" lon="12.645505403061717"><ele>144.0</ele><time>2026-04-03T15:40:06.999Z</time></trkpt><trkpt lat="43.90169752476412" lon="12.64563687170519"><ele>144.0</ele><time>2026-04-03T15:40:07.999Z</time></trkpt><trkpt lat="43.90175188883442" lon="12.645739197315587"><ele>144.0</ele><time>2026-04-03T15:40:08.999Z</time></trkpt><trkpt lat="43.901827078018876" lon="12.64580171069615"><ele>144.0</ele><time>2026-04-03T15:40:09.999Z</time></trkpt><trkpt lat="43.90191756484275" lon="12.645820933434981"><ele>144.0</ele><time>2026-04-03T15:40:11Z</time></trkpt><trkpt lat="43.90201334399389" lon="12.645780375242126"><ele>142.25</ele><time>2026-04-03T15:40:12Z</time></trkpt><trkpt lat="43.902106722209034" lon="12.645687815819272"><ele>140.5</ele><time>2026-04-03T15:40:13Z</time></trkpt><trkpt lat="43.90218519817478" lon="12.645558061389302"><ele>138.75</ele><time>2026-04-03T15:40:14Z</time></trkpt><trkpt lat="43.90225167221645" lon="12.645406939450035"><ele>137.0</ele><time>2026-04-03T15:40:15Z</time></trkpt><trkpt lat="43.90231201652695" lon="12.645259915678075"><ele>137.0</ele><time>2026-04-03T15:40:16Z</time></trkpt><trkpt lat="43.90237011071566" lon="12.645115827252285"><ele>137.0</ele><time>2026-04-03T15:40:17Z</time></trkpt><trkpt lat="43.902425114477666" lon="12.64499055762718"><ele>137.0</ele><time>2026-04-03T15:40:18Z</time></trkpt><trkpt lat="43.90247760090038" lon="12.644872212533356"><ele>137.0</ele><time>2026-04-03T15:40:19Z</time></trkpt><trkpt lat="43.90252786536828" lon="12.644760109652191"><ele>137.0</ele><time>2026-04-03T15:40:20Z</time></trkpt><trkpt lat="43.90257611200382" lon="12.644653433483521"><ele>135.5</ele><time>2026-04-03T15:40:21Z</time></trkpt><trkpt lat="43.90261746053666" lon="12.64455176291484"><ele>134.0</ele><time>2026-04-03T15:40:22Z</time></trkpt><trkpt lat="43.90266766604345" lon="12.644448831263189"><ele>132.5</ele><time>2026-04-03T15:40:23Z</time></trkpt><trkpt lat="43.9027185166898" lon="12.644348686899948"><ele>131.0</ele><time>2026-04-03T15:40:24Z</time></trkpt><trkpt lat="43.902768771519725" lon="12.64424606515332"><ele>129.5</ele><time>2026-04-03T15:40:25Z</time></trkpt><trkpt lat="43.90281645253393" lon="12.64414016387852"><ele>128.0</ele><time>2026-04-03T15:40:26Z</time></trkpt><trkpt lat="43.90286578825427" lon="12.644031486669004"><ele>127.80000000000001</ele><time>2026-04-03T15:40:27Z</time></trkpt><trkpt lat="43.90291835546179" lon="12.643922404869885"><ele>127.60000000000001</ele><time>2026-04-03T15:40:28Z</time></trkpt><trkpt lat="43.90296899362526" lon="12.643804287119497"><ele>127.39999999999999</ele><time>2026-04-03T15:40:29Z</time></trkpt><trkpt lat="43.903022013579765" lon="12.643679446305768"><ele>127.19999999999999</ele><time>2026-04-03T15:40:30Z</time></trkpt><trkpt lat="43.90307921175467" lon="12.643554158942049"><ele>127.0</ele><time>2026-04-03T15:40:31Z</time></trkpt><trkpt lat="43.90313769329121" lon="12.643423141282687"><ele>127.5</ele><time>2026-04-03T15:40:32Z</time></trkpt><trkpt lat="43.90320087855564" lon="12.643292952035393"><ele>128.0</ele><time>2026-04-03T15:40:33Z</time></trkpt><trkpt lat="43.903260399586635" lon="12.643158636694167"><ele>128.5</ele><time>2026-04-03T15:40:34Z</time></trkpt><trkpt lat="43.90330787805386" lon="12.643010720775377"><ele>129.0</ele><time>2026-04-03T15:40:35Z</time></trkpt><trkpt lat="43.903339404352465" lon="12.642860488278277"><ele>128.0</ele><time>2026-04-03T15:40:36Z</time></trkpt><trkpt lat="43.903360149541136" lon="12.64271712166544"><ele>127.0</ele><time>2026-04-03T15:40:37Z</time></trkpt><trkpt lat="43.90337287252468" lon="12.642580911198573"><ele>126.0</ele><time>2026-04-03T15:40:38Z</time></trkpt><trkpt lat="43.903382616837504" lon="12.642452723674067"><ele>125.0</ele><time>2026-04-03T15:40:39Z</time></trkpt><trkpt lat="43.90339229892948" lon="12.642330289912358"><ele>124.0</ele><time>2026-04-03T15:40:40Z</time></trkpt><trkpt lat="43.90340490970247" lon="12.642233811011906"><ele>123.0</ele><time>2026-04-03T15:40:41Z</time></trkpt><trkpt lat="43.90342553303915" lon="12.642143535241516"><ele>122.00000000000001</ele><time>2026-04-03T15:40:42Z</time></trkpt><trkpt lat="43.9034674923131" lon="12.64206010640026"><ele>121.0</ele><time>2026-04-03T15:40:43Z</time></trkpt><trkpt lat="43.903529167225734" lon="12.6420028519073"><ele>120.0</ele><time>2026-04-03T15:40:44Z</time></trkpt><trkpt lat="43.90360223028349" lon="12.641995683230183"><ele>119.00000000000001</ele><time>2026-04-03T15:40:45Z</time></trkpt><trkpt lat="43.903662456140566" lon="12.642066123862246"><ele>118.0</ele><time>2026-04-03T15:40:46Z</time></trkpt><trkpt lat="43.90370622664762" lon="12.642134442350441"><ele>117.0</ele><time>2026-04-03T15:40:47Z</time></trkpt><trkpt lat="43.90373688920027" lon="12.642221759117565"><ele>117.0</ele><time>2026-04-03T15:40:48Z</time></trkpt><trkpt lat="43.90377103540657" lon="12.642323595671627"><ele>116.99999999999999</ele><time>2026-04-03T15:40:49Z</time></trkpt><trkpt lat="43.9038101865602" lon="12.642436379080838"><ele>116.99999999999999</ele><time>2026-04-03T15:40:50Z</time></trkpt><trkpt lat="43.903852543398145" lon="12.642553937992872"><ele>117.0</ele><time>2026-04-03T15:40:51Z</time></trkpt><trkpt lat="43.90389691862805" lon="12.64267709891386"><ele>117.0</ele><time>2026-04-03T15:40:52Z</time></trkpt><trkpt lat="43.90394065675471" lon="12.642798491978859"><ele>117.33333333333333</ele><time>2026-04-03T15:40:53Z</time></trkpt><trkpt lat="43.90397700327902" lon="12.642904100051721"><ele>117.66666666666666</ele><time>2026-04-03T15:40:54Z</time></trkpt><trkpt lat="43.904010665997866" lon="12.643000453760811"><ele>118.0</ele><time>2026-04-03T15:40:55Z</time></trkpt><trkpt lat="43.904041888267116" lon="12.643091624301743"><ele>118.33333333333333</ele><time>2026-04-03T15:40:56Z</time></trkpt><trkpt lat="43.90408578925241" lon="12.64317000946145"><ele>118.66666666666666</ele><time>2026-04-03T15:40:57Z</time></trkpt><trkpt lat="43.90411583427062" lon="12.643264161894509"><ele>119.0</ele><time>2026-04-03T15:40:58Z</time></trkpt><trkpt lat="43.9041505818608" lon="12.64336653579194"><ele>118.99999999999999</ele><time>2026-04-03T15:40:59Z</time></trkpt><trkpt lat="43.90418629531685" lon="12.643476297292883"><ele>119.0</ele><time>2026-04-03T15:41:00Z</time></trkpt><trkpt lat="43.90421892206167" lon="12.643582689400404"><ele>119.0</ele><time>2026-04-03T15:41:01Z</time></trkpt><trkpt lat="43.9042526366861" lon="12.643683867940661"><ele>119.0</ele><time>2026-04-03T15:41:02Z</time></trkpt><trkpt lat="43.904289736137315" lon="12.64378525129257"><ele>118.99999999999999</ele><time>2026-04-03T15:41:02.999Z</time></trkpt><trkpt lat="43.90432909639918" lon="12.643886807152509"><ele>119.0</ele><time>2026-04-03T15:41:03.999Z</time></trkpt><trkpt lat="43.904372215230794" lon="12.64397834552898"><ele>117.99999999999999</ele><time>2026-04-03T15:41:04.999Z</time></trkpt><trkpt lat="43.90445256726083" lon="12.644076100022449"><ele>117.0</ele><time>2026-04-03T15:41:06.999Z</time></trkpt><trkpt lat="43.90452424015587" lon="12.644129209165564"><ele>116.0</ele><time>2026-04-03T15:41:08.999Z</time></trkpt><trkpt lat="43.904603189303806" lon="12.6441799890265"><ele>115.0</ele><time>2026-04-03T15:41:15.999Z</time></trkpt><trkpt lat="43.9046675905373" lon="12.644194372355665"><ele>113.99999999999999</ele><time>2026-04-03T15:41:23.999Z</time></trkpt><trkpt lat="43.90474701134146" lon="12.644205888667626"><ele>113.0</ele><time>2026-04-03T15:41:26.999Z</time></trkpt><trkpt lat="43.9048389986539" lon="12.644176150716307"><ele>113.0</ele><time>2026-04-03T15:41:29.999Z</time></trkpt><trkpt lat="43.9048523832189" lon="12.643962418300262"><ele>113.0</ele><time>2026-04-03T15:41:30.999Z</time></trkpt><trkpt lat="43.90487514337582" lon="12.643835593495647"><ele>113.0</ele><time>2026-04-03T15:41:31.999Z</time></trkpt><trkpt lat="43.904906735687334" lon="12.64369393816388"><ele>113.0</ele><time>2026-04-03T15:41:32.999Z</time></trkpt><trkpt lat="43.90495201448101" lon="12.643559405553928"><ele>112.60000000000001</ele><time>2026-04-03T15:41:33.999Z</time></trkpt><trkpt lat="43.90502695692448" lon="12.643453844964494"><ele>112.20000000000002</ele><time>2026-04-03T15:41:34.999Z</time></trkpt><trkpt lat="43.905119101425385" lon="12.643398904913635"><ele>111.8</ele><time>2026-04-03T15:41:35.999Z</time></trkpt><trkpt lat="43.9052286370247" lon="12.643386300257232"><ele>111.4</ele><time>2026-04-03T15:41:36.999Z</time></trkpt><trkpt lat="43.905348112700516" lon="12.643416607769842"><ele>111.0</ele><time>2026-04-03T15:41:37.999Z</time></trkpt><trkpt lat="43.90547600180661" lon="12.643464272784017"><ele>109.0</ele><time>2026-04-03T15:41:38.999Z</time></trkpt><trkpt lat="43.905614039341586" lon="12.643511803291148"><ele>107.0</ele><time>2026-04-03T15:41:39.999Z</time></trkpt><trkpt lat="43.905761007440944" lon="12.64355724139616"><ele>105.0</ele><time>2026-04-03T15:41:40.999Z</time></trkpt><trkpt lat="43.90590034984872" lon="12.643595264809843"><ele>103.0</ele><time>2026-04-03T15:41:41.999Z</time></trkpt><trkpt lat="43.90603442037402" lon="12.643639390633876"><ele>103.0</ele><time>2026-04-03T15:41:42.999Z</time></trkpt><trkpt lat="43.90616659662934" lon="12.643686608372231"><ele>103.0</ele><time>2026-04-03T15:41:43.999Z</time></trkpt><trkpt lat="43.906299276163374" lon="12.643727640468356"><ele>103.0</ele><time>2026-04-03T15:41:44.999Z</time></trkpt><trkpt lat="43.906430134110856" lon="12.643769554191055"><ele>103.0</ele><time>2026-04-03T15:41:45.999Z</time></trkpt><trkpt lat="43.90655373056789" lon="12.643806283001144"><ele>103.0</ele><time>2026-04-03T15:41:46.999Z</time></trkpt><trkpt lat="43.90667271062464" lon="12.64384007306402"><ele>103.0</ele><time>2026-04-03T15:41:47.999Z</time></trkpt><trkpt lat="43.906783628098715" lon="12.643867467374857"><ele>103.0</ele><time>2026-04-03T15:41:48.999Z</time></trkpt><trkpt lat="43.90688461290027" lon="12.643886674234453"><ele>103.0</ele><time>2026-04-03T15:41:49.999Z</time></trkpt><trkpt lat="43.90697798679998" lon="12.643906047675724"><ele>103.0</ele><time>2026-04-03T15:41:50.999Z</time></trkpt><trkpt lat="43.90706325006611" lon="12.64392549524201"><ele>101.83333333333334</ele><time>2026-04-03T15:41:51.999Z</time></trkpt><trkpt lat="43.90713713538682" lon="12.64394150822668"><ele>100.66666666666667</ele><time>2026-04-03T15:41:52.999Z</time></trkpt><trkpt lat="43.90720178552296" lon="12.643970573602832"><ele>99.5</ele><time>2026-04-03T15:41:53.999Z</time></trkpt><trkpt lat="43.90729323701817" lon="12.644035502132976"><ele>98.33333333333334</ele><time>2026-04-03T15:41:55.999Z</time></trkpt><trkpt lat="43.907378635684466" lon="12.64392625011278"><ele>97.16666666666667</ele><time>2026-04-03T15:41:57.999Z</time></trkpt><trkpt lat="43.90742873511466" lon="12.643842926919113"><ele>96.0</ele><time>2026-04-03T15:41:58.999Z</time></trkpt><trkpt lat="43.90750061866209" lon="12.643811260988373"><ele>96.0</ele><time>2026-04-03T15:41:59.999Z</time></trkpt><trkpt lat="43.90756762127072" lon="12.643791379393127"><ele>96.0</ele><time>2026-04-03T15:42:00.999Z</time></trkpt><trkpt lat="43.90763685874588" lon="12.64377120262901"><ele>96.0</ele><time>2026-04-03T15:42:01.999Z</time></trkpt><trkpt lat="43.90770815587526" lon="12.643742602268178"><ele>96.0</ele><time>2026-04-03T15:42:02.999Z</time></trkpt><trkpt lat="43.9077773218308" lon="12.643719861260765"><ele>96.0</ele><time>2026-04-03T15:42:03.999Z</time></trkpt><trkpt lat="43.90784378345065" lon="12.643703462648569"><ele>96.0</ele><time>2026-04-03T15:42:04.999Z</time></trkpt><trkpt lat="43.90794812494637" lon="12.643675479562749"><ele>95.33333333333333</ele><time>2026-04-03T15:42:06.999Z</time></trkpt><trkpt lat="43.908033873895114" lon="12.643652922980733"><ele>94.66666666666667</ele><time>2026-04-03T15:42:08.999Z</time></trkpt><trkpt lat="43.908106689447195" lon="12.643640253973595"><ele>94.0</ele><time>2026-04-03T15:42:10.999Z</time></trkpt><trkpt lat="43.90820413911734" lon="12.643643490341654"><ele>93.33333333333334</ele><time>2026-04-03T15:42:12.999Z</time></trkpt><trkpt lat="43.90826887012786" lon="12.643651327176581"><ele>92.66666666666667</ele><time>2026-04-03T15:42:13.999Z</time></trkpt><trkpt lat="43.90835705891118" lon="12.643539024785209"><ele>92.0</ele><time>2026-04-03T15:42:15.999Z</time></trkpt><trkpt lat="43.90838981614195" lon="12.6434557184867"><ele>91.39999999999999</ele><time>2026-04-03T15:42:17Z</time></trkpt><trkpt lat="43.90849782957078" lon="12.643357733708223"><ele>90.8</ele><time>2026-04-03T15:42:19Z</time></trkpt><trkpt lat="43.908565828331916" lon="12.643297089225682"><ele>90.2</ele><time>2026-04-03T15:42:20Z</time></trkpt><trkpt lat="43.90862930482085" lon="12.643259115108899"><ele>89.6</ele><time>2026-04-03T15:42:21Z</time></trkpt><trkpt lat="43.90872933357211" lon="12.643239401690963"><ele>89.0</ele><time>2026-04-03T15:42:23Z</time></trkpt><trkpt lat="43.908819990738216" lon="12.643274270160877"><ele>89.0</ele><time>2026-04-03T15:42:25Z</time></trkpt><trkpt lat="43.908901267936564" lon="12.643235619636974"><ele>89.0</ele><time>2026-04-03T15:42:27Z</time></trkpt><trkpt lat="43.90893351422357" lon="12.643152366562035"><ele>89.0</ele><time>2026-04-03T15:42:28Z</time></trkpt><trkpt lat="43.90897951861798" lon="12.6430913986203"><ele>89.0</ele><time>2026-04-03T15:42:29Z</time></trkpt><trkpt lat="43.909045775307234" lon="12.643061962906968"><ele>89.0</ele><time>2026-04-03T15:42:30Z</time></trkpt><trkpt lat="43.90912677058853" lon="12.64303853482148"><ele>89.0</ele><time>2026-04-03T15:42:31Z</time></trkpt><trkpt lat="43.90921699592357" lon="12.64302252339449"><ele>88.83333333333334</ele><time>2026-04-03T15:42:32Z</time></trkpt><trkpt lat="43.90931430235334" lon="12.643002926733368"><ele>88.66666666666667</ele><time>2026-04-03T15:42:33Z</time></trkpt><trkpt lat="43.909401289242396" lon="12.642991666000068"><ele>88.5</ele><time>2026-04-03T15:42:34Z</time></trkpt><trkpt lat="43.90948390590694" lon="12.642985013680903"><ele>88.33333333333333</ele><time>2026-04-03T15:42:35Z</time></trkpt><trkpt lat="43.90956394829761" lon="12.642979236283661"><ele>88.16666666666666</ele><time>2026-04-03T15:42:36Z</time></trkpt><trkpt lat="43.90963886390542" lon="12.642975426939111"><ele>88.0</ele><time>2026-04-03T15:42:37Z</time></trkpt><trkpt lat="43.90970638273274" lon="12.642971264443263"><ele>88.0</ele><time>2026-04-03T15:42:38Z</time></trkpt><trkpt lat="43.909822896870786" lon="12.642957818693198"><ele>88.0</ele><time>2026-04-03T15:42:40Z</time></trkpt><trkpt lat="43.90993024549747" lon="12.642949245386253"><ele>88.0</ele><time>2026-04-03T15:42:42Z</time></trkpt><trkpt lat="43.91005168113062" lon="12.642950495595583"><ele>88.0</ele><time>2026-04-03T15:42:44Z</time></trkpt><trkpt lat="43.91011490957211" lon="12.642949229783193"><ele>88.0</ele><time>2026-04-03T15:42:45Z</time></trkpt><trkpt lat="43.910182088947195" lon="12.642946418766282"><ele>87.85714285714286</ele><time>2026-04-03T15:42:46Z</time></trkpt><trkpt lat="43.91025109821411" lon="12.642948340777707"><ele>87.71428571428571</ele><time>2026-04-03T15:42:47Z</time></trkpt><trkpt lat="43.9103222676655" lon="12.642955099726327"><ele>87.57142857142857</ele><time>2026-04-03T15:42:48Z</time></trkpt><trkpt lat="43.91040475692369" lon="12.642967448694641"><ele>87.42857142857143</ele><time>2026-04-03T15:42:49Z</time></trkpt><trkpt lat="43.91047917922384" lon="12.643002165878887"><ele>87.28571428571429</ele><time>2026-04-03T15:42:50Z</time></trkpt><trkpt lat="43.9105400091531" lon="12.643062505381902"><ele>87.14285714285714</ele><time>2026-04-03T15:42:51Z</time></trkpt><trkpt lat="43.910575373519684" lon="12.643138155543681"><ele>87.0</ele><time>2026-04-03T15:42:52Z</time></trkpt><trkpt lat="43.910663763049655" lon="12.643213114778602"><ele>87.0</ele><time>2026-04-03T15:42:54Z</time></trkpt><trkpt lat="43.910760211389196" lon="12.643128303507027"><ele>87.0</ele><time>2026-04-03T15:42:56Z</time></trkpt><trkpt lat="43.9108724212507" lon="12.643067139231073"><ele>87.0</ele><time>2026-04-03T15:42:58Z</time></trkpt><trkpt lat="43.910948319068964" lon="12.643100444508951"><ele>87.0</ele><time>2026-04-03T15:42:59Z</time></trkpt><trkpt lat="43.91102404165515" lon="12.643130373033392"><ele>87.0</ele><time>2026-04-03T15:43:00Z</time></trkpt><trkpt lat="43.911099422360365" lon="12.643152722935017"><ele>86.33333333333333</ele><time>2026-04-03T15:43:01Z</time></trkpt><trkpt lat="43.911170416133594" lon="12.643176995965714"><ele>85.66666666666667</ele><time>2026-04-03T15:43:02Z</time></trkpt><trkpt lat="43.9112435874139" lon="12.643201537357562"><ele>85.0</ele><time>2026-04-03T15:43:03Z</time></trkpt><trkpt lat="43.91131958826368" lon="12.643226054407153"><ele>84.33333333333334</ele><time>2026-04-03T15:43:04Z</time></trkpt><trkpt lat="43.91140119328319" lon="12.64325713387939"><ele>83.66666666666667</ele><time>2026-04-03T15:43:05Z</time></trkpt><trkpt lat="43.911484651671806" lon="12.64329111160743"><ele>83.0</ele><time>2026-04-03T15:43:06Z</time></trkpt><trkpt lat="43.91157396179049" lon="12.643325642243342"><ele>83.0</ele><time>2026-04-03T15:43:07Z</time></trkpt><trkpt lat="43.91166736876508" lon="12.643361196630552"><ele>83.0</ele><time>2026-04-03T15:43:07.999Z</time></trkpt><trkpt lat="43.91176395727375" lon="12.643395005742297"><ele>83.0</ele><time>2026-04-03T15:43:08.999Z</time></trkpt><trkpt lat="43.911861108159904" lon="12.64343234172504"><ele>83.0</ele><time>2026-04-03T15:43:09.999Z</time></trkpt><trkpt lat="43.91196235179637" lon="12.643470536476368"><ele>83.0</ele><time>2026-04-03T15:43:10.999Z</time></trkpt><trkpt lat="43.91205822559866" lon="12.643501812917433"><ele>82.66666666666667</ele><time>2026-04-03T15:43:11.999Z</time></trkpt><trkpt lat="43.9121438446398" lon="12.643534722861745"><ele>82.33333333333334</ele><time>2026-04-03T15:43:12.999Z</time></trkpt><trkpt lat="43.9122240729848" lon="12.64357151911285"><ele>82.0</ele><time>2026-04-03T15:43:13.999Z</time></trkpt><trkpt lat="43.912301675664914" lon="12.64361783915185"><ele>81.66666666666667</ele><time>2026-04-03T15:43:14.999Z</time></trkpt><trkpt lat="43.91238021271459" lon="12.643676369716363"><ele>81.33333333333333</ele><time>2026-04-03T15:43:15.999Z</time></trkpt><trkpt lat="43.912461078142655" lon="12.643744882832687"><ele>81.0</ele><time>2026-04-03T15:43:16.999Z</time></trkpt><trkpt lat="43.912540465982175" lon="12.643818849954089"><ele>81.5</ele><time>2026-04-03T15:43:17.999Z</time></trkpt><trkpt lat="43.91261917203809" lon="12.643896748231032"><ele>82.0</ele><time>2026-04-03T15:43:18.999Z</time></trkpt><trkpt lat="43.91269362142971" lon="12.643972949490161"><ele>82.5</ele><time>2026-04-03T15:43:19.999Z</time></trkpt><trkpt lat="43.91276276590214" lon="12.644038673620694"><ele>83.0</ele><time>2026-04-03T15:43:20.999Z</time></trkpt><trkpt lat="43.91282372770538" lon="12.644098073849891"><ele>83.5</ele><time>2026-04-03T15:43:21.999Z</time></trkpt><trkpt lat="43.9128745298968" lon="12.644153058268815"><ele>84.0</ele><time>2026-04-03T15:43:22.999Z</time></trkpt><trkpt lat="43.91295789475126" lon="12.644252512721092"><ele>84.0</ele><time>2026-04-03T15:43:24.999Z</time></trkpt><trkpt lat="43.91302388970541" lon="12.644335379075509"><ele>84.0</ele><time>2026-04-03T15:43:26.999Z</time></trkpt><trkpt lat="43.91309305693887" lon="12.644402068836381"><ele>84.0</ele><time>2026-04-03T15:43:28.999Z</time></trkpt><trkpt lat="43.91317712227972" lon="12.644464643286089"><ele>84.0</ele><time>2026-04-03T15:43:30.999Z</time></trkpt><trkpt lat="43.91326892021871" lon="12.64454952600229"><ele>84.0</ele><time>2026-04-03T15:43:32.999Z</time></trkpt><trkpt lat="43.9133653306931" lon="12.644648255233792"><ele>83.66666666666667</ele><time>2026-04-03T15:43:34.999Z</time></trkpt><trkpt lat="43.91346376521408" lon="12.64475411255675"><ele>83.33333333333333</ele><time>2026-04-03T15:43:36.999Z</time></trkpt><trkpt lat="43.91351587905986" lon="12.644806784416554"><ele>83.0</ele><time>2026-04-03T15:43:37.999Z</time></trkpt><trkpt lat="43.91356835472219" lon="12.644858555404562"><ele>82.66666666666666</ele><time>2026-04-03T15:43:38.999Z</time></trkpt><trkpt lat="43.91363118297402" lon="12.644929069309471"><ele>82.33333333333333</ele><time>2026-04-03T15:43:40.999Z</time></trkpt><trkpt lat="43.913698120581245" lon="12.644997563055382"><ele>82.0</ele><time>2026-04-03T15:43:44.999Z</time></trkpt><trkpt lat="43.91375379244262" lon="12.645064782311538"><ele>82.0</ele><time>2026-04-03T15:43:46.999Z</time></trkpt><trkpt lat="43.91379893995207" lon="12.645131682243433"><ele>82.0</ele><time>2026-04-03T15:43:49.999Z</time></trkpt><trkpt lat="43.91382620742949" lon="12.64524227568675"><ele>82.0</ele><time>2026-04-03T15:43:52.999Z</time></trkpt><trkpt lat="43.91381285351359" lon="12.645342269829166"><ele>82.0</ele><time>2026-04-03T15:43:55.999Z</time></trkpt><trkpt lat="43.91387174638356" lon="12.645456346881046"><ele>82.0</ele><time>2026-04-03T15:43:58.999Z</time></trkpt><trkpt lat="43.91393861778603" lon="12.645542572353525"><ele>82.0</ele><time>2026-04-03T15:44:00.999Z</time></trkpt><trkpt lat="43.914017625019945" lon="12.645610319401113"><ele>81.83333333333333</ele><time>2026-04-03T15:44:02.999Z</time></trkpt><trkpt lat="43.91409239804901" lon="12.645598390741613"><ele>81.66666666666666</ele><time>2026-04-03T15:44:04.999Z</time></trkpt><trkpt lat="43.91415695871327" lon="12.645595468321236"><ele>81.5</ele><time>2026-04-03T15:44:06.999Z</time></trkpt><trkpt lat="43.91422627461405" lon="12.645593146863915"><ele>81.33333333333333</ele><time>2026-04-03T15:44:45Z</time></trkpt><trkpt lat="43.914301845203184" lon="12.645601881609176"><ele>81.16666666666667</ele><time>2026-04-03T15:44:47Z</time></trkpt><trkpt lat="43.91441965152543" lon="12.645589231508874"><ele>81.0</ele><time>2026-04-03T15:44:49Z</time></trkpt><trkpt lat="43.91453086936131" lon="12.645537531838023"><ele>79.0</ele><time>2026-04-03T15:44:51Z</time></trkpt><trkpt lat="43.914575672329796" lon="12.645364422114433"><ele>77.0</ele><time>2026-04-03T15:44:53Z</time></trkpt><trkpt lat="43.914568866864535" lon="12.64524530005175"><ele>75.0</ele><time>2026-04-03T15:44:54Z</time></trkpt><trkpt lat="43.914566221908956" lon="12.645118412690742"><ele>73.0</ele><time>2026-04-03T15:44:55Z</time></trkpt><trkpt lat="43.91456283631818" lon="12.644993022138316"><ele>71.0</ele><time>2026-04-03T15:44:56Z</time></trkpt><trkpt lat="43.91455969823298" lon="12.644853375467529"><ele>71.0</ele><time>2026-04-03T15:44:57Z</time></trkpt><trkpt lat="43.914553983904476" lon="12.644705434091088"><ele>71.0</ele><time>2026-04-03T15:44:58Z</time></trkpt><trkpt lat="43.9145495074595" lon="12.644555749318197"><ele>71.0</ele><time>2026-04-03T15:44:59Z</time></trkpt><trkpt lat="43.9145442373032" lon="12.644408797686241"><ele>71.0</ele><time>2026-04-03T15:45:00Z</time></trkpt><trkpt lat="43.91453466891428" lon="12.644267791055592"><ele>71.0</ele><time>2026-04-03T15:45:01Z</time></trkpt><trkpt lat="43.91451637664447" lon="12.644127912681084"><ele>71.0</ele><time>2026-04-03T15:45:02Z</time></trkpt><trkpt lat="43.91449116822433" lon="12.643990941965784"><ele>71.0</ele><time>2026-04-03T15:45:03Z</time></trkpt><trkpt lat="43.91446196971274" lon="12.643853769124062"><ele>71.0</ele><time>2026-04-03T15:45:04Z</time></trkpt><trkpt lat="43.914433370839795" lon="12.64371217621488"><ele>71.0</ele><time>2026-04-03T15:45:05Z</time></trkpt><trkpt lat="43.914401085108324" lon="12.643569427952109"><ele>71.0</ele><time>2026-04-03T15:45:06Z</time></trkpt><trkpt lat="43.91437032907077" lon="12.643422202181348"><ele>70.8</ele><time>2026-04-03T15:45:07Z</time></trkpt><trkpt lat="43.91434061973036" lon="12.64327258398024"><ele>70.6</ele><time>2026-04-03T15:45:08Z</time></trkpt><trkpt lat="43.91431575092169" lon="12.643128816998221"><ele>70.4</ele><time>2026-04-03T15:45:09Z</time></trkpt><trkpt lat="43.91429845126098" lon="12.642985114193387"><ele>70.2</ele><time>2026-04-03T15:45:10Z</time></trkpt><trkpt lat="43.91429115546504" lon="12.642839732750799"><ele>70.0</ele><time>2026-04-03T15:45:10.999Z</time></trkpt><trkpt lat="43.91429395097228" lon="12.642699312708036"><ele>69.2</ele><time>2026-04-03T15:45:11.999Z</time></trkpt><trkpt lat="43.91430952120569" lon="12.64255739050055"><ele>68.4</ele><time>2026-04-03T15:45:12.999Z</time></trkpt><trkpt lat="43.91433643707084" lon="12.642414462632399"><ele>67.6</ele><time>2026-04-03T15:45:13.999Z</time></trkpt><trkpt lat="43.91436191464565" lon="12.64226904382776"><ele>66.8</ele><time>2026-04-03T15:45:14.999Z</time></trkpt><trkpt lat="43.91438769020932" lon="12.642120822384317"><ele>66.0</ele><time>2026-04-03T15:45:15.999Z</time></trkpt><trkpt lat="43.91441383618429" lon="12.641968438909608"><ele>65.6</ele><time>2026-04-03T15:45:16.999Z</time></trkpt><trkpt lat="43.914441610611966" lon="12.641814719107385"><ele>65.19999999999999</ele><time>2026-04-03T15:45:17.999Z</time></trkpt><trkpt lat="43.914466629528" lon="12.641668665117608"><ele>64.80000000000001</ele><time>2026-04-03T15:45:18.999Z</time></trkpt><trkpt lat="43.9144909196467" lon="12.641532499474398"><ele>64.4</ele><time>2026-04-03T15:45:19.999Z</time></trkpt><trkpt lat="43.9145159584115" lon="12.641403788121686"><ele>64.0</ele><time>2026-04-03T15:45:20.999Z</time></trkpt><trkpt lat="43.91453733422159" lon="12.641281749668643"><ele>64.0</ele><time>2026-04-03T15:45:21.999Z</time></trkpt><trkpt lat="43.91456043181304" lon="12.641161758005673"><ele>64.0</ele><time>2026-04-03T15:45:22.999Z</time></trkpt><trkpt lat="43.91458492989508" lon="12.641038749412887"><ele>64.0</ele><time>2026-04-03T15:45:23.999Z</time></trkpt><trkpt lat="43.914607411582494" lon="12.640917398056605"><ele>64.0</ele><time>2026-04-03T15:45:24.999Z</time></trkpt><trkpt lat="43.91463357123161" lon="12.640815481682386"><ele>64.0</ele><time>2026-04-03T15:45:25.999Z</time></trkpt><trkpt lat="43.914666062888614" lon="12.640663759119262"><ele>64.33333333333333</ele><time>2026-04-03T15:45:27.999Z</time></trkpt><trkpt lat="43.914688878491845" lon="12.640580978546001"><ele>64.66666666666666</ele><time>2026-04-03T15:45:30.999Z</time></trkpt><trkpt lat="43.91469874921127" lon="12.64046657252671"><ele>65.0</ele><time>2026-04-03T15:45:34.999Z</time></trkpt><trkpt lat="43.91471150349343" lon="12.640325819463438"><ele>65.33333333333333</ele><time>2026-04-03T15:45:36.999Z</time></trkpt><trkpt lat="43.91471988874317" lon="12.640221682421043"><ele>65.66666666666667</ele><time>2026-04-03T15:45:37.999Z</time></trkpt><trkpt lat="43.914735640358" lon="12.640124200198287"><ele>66.0</ele><time>2026-04-03T15:45:38.999Z</time></trkpt><trkpt lat="43.91474887466747" lon="12.640036940992935"><ele>67.0</ele><time>2026-04-03T15:45:39.999Z</time></trkpt><trkpt lat="43.91476281402728" lon="12.639938193379292"><ele>68.0</ele><time>2026-04-03T15:45:40.999Z</time></trkpt><trkpt lat="43.91478083251206" lon="12.639832955902156"><ele>69.0</ele><time>2026-04-03T15:45:41.999Z</time></trkpt><trkpt lat="43.91480043441029" lon="12.6397423344949"><ele>70.0</ele><time>2026-04-03T15:45:42.999Z</time></trkpt><trkpt lat="43.91482363402074" lon="12.639657036683758"><ele>71.0</ele><time>2026-04-03T15:45:43.999Z</time></trkpt><trkpt lat="43.91485362465352" lon="12.639554248709931"><ele>72.0</ele><time>2026-04-03T15:45:44.999Z</time></trkpt><trkpt lat="43.91494518410816" lon="12.639487993538653"><ele>72.2</ele><time>2026-04-03T15:45:45.999Z</time></trkpt><trkpt lat="43.91503803690229" lon="12.6394352442853"><ele>72.4</ele><time>2026-04-03T15:45:46.999Z</time></trkpt><trkpt lat="43.915155261267046" lon="12.6394176239321"><ele>72.6</ele><time>2026-04-03T15:45:47.999Z</time></trkpt><trkpt lat="43.91526298064842" lon="12.63939897846791"><ele>72.8</ele><time>2026-04-03T15:45:48.999Z</time></trkpt><trkpt lat="43.91538084027551" lon="12.639438553917481"><ele>73.0</ele><time>2026-04-03T15:45:49.999Z</time></trkpt><trkpt lat="43.91550108295937" lon="12.639455173531738"><ele>72.0</ele><time>2026-04-03T15:45:50.999Z</time></trkpt><trkpt lat="43.91562679410847" lon="12.639475767440445"><ele>71.0</ele><time>2026-04-03T15:45:51.999Z</time></trkpt><trkpt lat="43.915760187009596" lon="12.639499407531037"><ele>70.0</ele><time>2026-04-03T15:45:52.999Z</time></trkpt><trkpt lat="43.91589749814295" lon="12.639523989072057"><ele>69.0</ele><time>2026-04-03T15:45:53.999Z</time></trkpt><trkpt lat="43.916029110222034" lon="12.639549548902968"><ele>68.75</ele><time>2026-04-03T15:45:54.999Z</time></trkpt><trkpt lat="43.91615762866758" lon="12.639573207229041"><ele>68.5</ele><time>2026-04-03T15:45:55.999Z</time></trkpt><trkpt lat="43.91627688036269" lon="12.63959579727449"><ele>68.25</ele><time>2026-04-03T15:45:56.999Z</time></trkpt><trkpt lat="43.91639023381762" lon="12.639611917680051"><ele>68.0</ele><time>2026-04-03T15:45:57.999Z</time></trkpt><trkpt lat="43.916508529584654" lon="12.639623561327603"><ele>68.0</ele><time>2026-04-03T15:45:58.999Z</time></trkpt><trkpt lat="43.91662145073088" lon="12.639639218845092"><ele>68.0</ele><time>2026-04-03T15:45:59.999Z</time></trkpt><trkpt lat="43.91672328474953" lon="12.639664589406275"><ele>68.0</ele><time>2026-04-03T15:46:00.999Z</time></trkpt><trkpt lat="43.91682563885256" lon="12.639691861030403"><ele>68.0</ele><time>2026-04-03T15:46:01.999Z</time></trkpt><trkpt lat="43.91692902493483" lon="12.639716305747905"><ele>68.0</ele><time>2026-04-03T15:46:02.999Z</time></trkpt><trkpt lat="43.91703320758064" lon="12.639738817650473"><ele>68.2</ele><time>2026-04-03T15:46:03.999Z</time></trkpt><trkpt lat="43.91713944755419" lon="12.63976011729407"><ele>68.4</ele><time>2026-04-03T15:46:04.999Z</time></trkpt><trkpt lat="43.9172449231507" lon="12.639779411723891"><ele>68.60000000000001</ele><time>2026-04-03T15:46:05.999Z</time></trkpt><trkpt lat="43.91735016118934" lon="12.639800417115682"><ele>68.8</ele><time>2026-04-03T15:46:06.999Z</time></trkpt><trkpt lat="43.91744774392416" lon="12.63982127033625"><ele>69.0</ele><time>2026-04-03T15:46:07.999Z</time></trkpt><trkpt lat="43.9175429282966" lon="12.639841999897255"><ele>68.85714285714286</ele><time>2026-04-03T15:46:08.999Z</time></trkpt><trkpt lat="43.917627069136635" lon="12.639862209222668"><ele>68.71428571428572</ele><time>2026-04-03T15:46:09.999Z</time></trkpt><trkpt lat="43.91770675960385" lon="12.639879051109025"><ele>68.57142857142857</ele><time>2026-04-03T15:46:10.999Z</time></trkpt><trkpt lat="43.91778017698864" lon="12.639889598034042"><ele>68.42857142857143</ele><time>2026-04-03T15:46:11.999Z</time></trkpt><trkpt lat="43.91784586030085" lon="12.639893326809796"><ele>68.28571428571428</ele><time>2026-04-03T15:46:12.999Z</time></trkpt><trkpt lat="43.91791064919084" lon="12.639898646430483"><ele>68.14285714285714</ele><time>2026-04-03T15:46:13.999Z</time></trkpt><trkpt lat="43.917982315728494" lon="12.639915746617206"><ele>68.0</ele><time>2026-04-03T15:46:14.999Z</time></trkpt><trkpt lat="43.91807056436653" lon="12.639937729962158"><ele>68.0</ele><time>2026-04-03T15:46:15.999Z</time></trkpt><trkpt lat="43.91817226957484" lon="12.639962424212957"><ele>68.0</ele><time>2026-04-03T15:46:16.999Z</time></trkpt><trkpt lat="43.91828820458909" lon="12.639986569666672"><ele>68.0</ele><time>2026-04-03T15:46:17.999Z</time></trkpt><trkpt lat="43.918397152401994" lon="12.640009591201867"><ele>68.0</ele><time>2026-04-03T15:46:18.999Z</time></trkpt><trkpt lat="43.91851064726707" lon="12.640031766514616"><ele>68.0</ele><time>2026-04-03T15:46:19.999Z</time></trkpt><trkpt lat="43.91862599999456" lon="12.640053343522112"><ele>68.5</ele><time>2026-04-03T15:46:20.999Z</time></trkpt><trkpt lat="43.918743361773785" lon="12.640077624140693"><ele>69.0</ele><time>2026-04-03T15:46:21.999Z</time></trkpt><trkpt lat="43.918863377048915" lon="12.640100848714535"><ele>69.5</ele><time>2026-04-03T15:46:22.999Z</time></trkpt><trkpt lat="43.918986074353356" lon="12.640123723936288"><ele>70.0</ele><time>2026-04-03T15:46:23.999Z</time></trkpt><trkpt lat="43.91911670723843" lon="12.640145304937091"><ele>70.75</ele><time>2026-04-03T15:46:24.999Z</time></trkpt><trkpt lat="43.91925205827515" lon="12.640168772298622"><ele>71.5</ele><time>2026-04-03T15:46:25.999Z</time></trkpt><trkpt lat="43.91939376827924" lon="12.640194528292565"><ele>72.25</ele><time>2026-04-03T15:46:26.999Z</time></trkpt><trkpt lat="43.919541197490645" lon="12.640225366255118"><ele>73.0</ele><time>2026-04-03T15:46:27.999Z</time></trkpt><trkpt lat="43.91969068933441" lon="12.640252738301552"><ele>73.0</ele><time>2026-04-03T15:46:29Z</time></trkpt><trkpt lat="43.91984992299293" lon="12.64028174021402"><ele>73.0</ele><time>2026-04-03T15:46:30Z</time></trkpt><trkpt lat="43.92001341137642" lon="12.640311216625877"><ele>73.0</ele><time>2026-04-03T15:46:31Z</time></trkpt><trkpt lat="43.92016782394888" lon="12.640341452766124"><ele>72.66666666666666</ele><time>2026-04-03T15:46:32Z</time></trkpt><trkpt lat="43.92032286481279" lon="12.640372412848551"><ele>72.33333333333333</ele><time>2026-04-03T15:46:33Z</time></trkpt><trkpt lat="43.92047778721172" lon="12.640402442091865"><ele>72.0</ele><time>2026-04-03T15:46:34Z</time></trkpt><trkpt lat="43.92063285071566" lon="12.640432190191138"><ele>72.0</ele><time>2026-04-03T15:46:35Z</time></trkpt><trkpt lat="43.920791586794806" lon="12.64046135777654"><ele>72.0</ele><time>2026-04-03T15:46:36Z</time></trkpt><trkpt lat="43.92095285631006" lon="12.640492572198877"><ele>72.0</ele><time>2026-04-03T15:46:37Z</time></trkpt><trkpt lat="43.921120865497834" lon="12.640526013207815"><ele>73.0</ele><time>2026-04-03T15:46:38Z</time></trkpt><trkpt lat="43.92129735263545" lon="12.640557631629578"><ele>74.0</ele><time>2026-04-03T15:46:39Z</time></trkpt><trkpt lat="43.92147055288139" lon="12.64059086039654"><ele>75.0</ele><time>2026-04-03T15:46:40Z</time></trkpt><trkpt lat="43.921627832248916" lon="12.6406187444575"><ele>77.66666666666667</ele><time>2026-04-03T15:46:41Z</time></trkpt><trkpt lat="43.92177897260446" lon="12.640643749100711"><ele>80.33333333333334</ele><time>2026-04-03T15:46:42Z</time></trkpt><trkpt lat="43.92192690685063" lon="12.640673455813983"><ele>83.0</ele><time>2026-04-03T15:46:43Z</time></trkpt><trkpt lat="43.92207313304866" lon="12.640703813939087"><ele>83.0</ele><time>2026-04-03T15:46:44Z</time></trkpt><trkpt lat="43.9222053363952" lon="12.640745372094841"><ele>83.0</ele><time>2026-04-03T15:46:45Z</time></trkpt><trkpt lat="43.92232388098563" lon="12.640796541295696"><ele>83.0</ele><time>2026-04-03T15:46:46Z</time></trkpt><trkpt lat="43.922421886007676" lon="12.640889040420594"><ele>83.0</ele><time>2026-04-03T15:46:47Z</time></trkpt><trkpt lat="43.922506199901484" lon="12.641009882375673"><ele>82.75</ele><time>2026-04-03T15:46:48Z</time></trkpt><trkpt lat="43.92256070122547" lon="12.641138466750066"><ele>82.5</ele><time>2026-04-03T15:46:49Z</time></trkpt><trkpt lat="43.92258842565702" lon="12.641287812690582"><ele>82.25</ele><time>2026-04-03T15:46:50Z</time></trkpt><trkpt lat="43.92258920038922" lon="12.641471593306894"><ele>82.0</ele><time>2026-04-03T15:46:51Z</time></trkpt><trkpt lat="43.9225722391766" lon="12.641678550560098"><ele>82.0</ele><time>2026-04-03T15:46:52Z</time></trkpt><trkpt lat="43.922550722817434" lon="12.641911381067134"><ele>82.0</ele><time>2026-04-03T15:46:53Z</time></trkpt><trkpt lat="43.9225254824679" lon="12.64216199904475"><ele>82.0</ele><time>2026-04-03T15:46:54Z</time></trkpt><trkpt lat="43.922507872072984" lon="12.642409586517687"><ele>82.33333333333333</ele><time>2026-04-03T15:46:55Z</time></trkpt><trkpt lat="43.92249073337528" lon="12.6426651584833"><ele>82.66666666666667</ele><time>2026-04-03T15:46:56Z</time></trkpt><trkpt lat="43.92247015901587" lon="12.642927754605136"><ele>83.0</ele><time>2026-04-03T15:46:57Z</time></trkpt><trkpt lat="43.92245065470349" lon="12.643194266876934"><ele>83.33333333333334</ele><time>2026-04-03T15:46:58Z</time></trkpt><trkpt lat="43.922430868135216" lon="12.643466036958221"><ele>83.66666666666667</ele><time>2026-04-03T15:46:59Z</time></trkpt><trkpt lat="43.9224094082451" lon="12.643735837325755"><ele>84.0</ele><time>2026-04-03T15:47:00Z</time></trkpt><trkpt lat="43.92239396622526" lon="12.64398012551509"><ele>84.0</ele><time>2026-04-03T15:47:01Z</time></trkpt><trkpt lat="43.92239773394213" lon="12.644205356120953"><ele>84.0</ele><time>2026-04-03T15:47:02Z</time></trkpt><trkpt lat="43.922431778258954" lon="12.644432936139044"><ele>84.0</ele><time>2026-04-03T15:47:03Z</time></trkpt><trkpt lat="43.92250027348568" lon="12.644656433773388"><ele>86.33333333333333</ele><time>2026-04-03T15:47:04Z</time></trkpt><trkpt lat="43.92259790717543" lon="12.644858623498804"><ele>88.66666666666666</ele><time>2026-04-03T15:47:05Z</time></trkpt><trkpt lat="43.92272054872416" lon="12.645035425900506"><ele>91.0</ele><time>2026-04-03T15:47:06Z</time></trkpt><trkpt lat="43.92286055466114" lon="12.645186962019654"><ele>90.0</ele><time>2026-04-03T15:47:07Z</time></trkpt><trkpt lat="43.923009871456514" lon="12.645329810341911"><ele>89.0</ele><time>2026-04-03T15:47:08Z</time></trkpt><trkpt lat="43.923156478777024" lon="12.64547220476936"><ele>88.0</ele><time>2026-04-03T15:47:09Z</time></trkpt><trkpt lat="43.92329284956516" lon="12.64560509062044"><ele>88.0</ele><time>2026-04-03T15:47:10Z</time></trkpt><trkpt lat="43.92339969000362" lon="12.645707907218847"><ele>88.0</ele><time>2026-04-03T15:47:11Z</time></trkpt><trkpt lat="43.9234864066" lon="12.645799085030239"><ele>88.0</ele><time>2026-04-03T15:47:12Z</time></trkpt><trkpt lat="43.92355392712627" lon="12.645893282808144"><ele>88.0</ele><time>2026-04-03T15:47:13Z</time></trkpt><trkpt lat="43.923595364668195" lon="12.646003688795922"><ele>88.0</ele><time>2026-04-03T15:47:14Z</time></trkpt><trkpt lat="43.923615366579845" lon="12.64613389684936"><ele>88.0</ele><time>2026-04-03T15:47:15Z</time></trkpt><trkpt lat="43.92365242655329" lon="12.646240686487998"><ele>88.0</ele><time>2026-04-03T15:47:16Z</time></trkpt><trkpt lat="43.923716209223926" lon="12.64632503830374"><ele>88.0</ele><time>2026-04-03T15:47:17Z</time></trkpt><trkpt lat="43.923816928652116" lon="12.646325764957526"><ele>88.0</ele><time>2026-04-03T15:47:18Z</time></trkpt><trkpt lat="43.92391965003471" lon="12.646322474604995"><ele>88.0</ele><time>2026-04-03T15:47:19Z</time></trkpt><trkpt lat="43.92403048678855" lon="12.646354055850178"><ele>88.0</ele><time>2026-04-03T15:47:20Z</time></trkpt><trkpt lat="43.92412599663249" lon="12.646433194426832"><ele>88.0</ele><time>2026-04-03T15:47:20.999Z</time></trkpt><trkpt lat="43.924208338140396" lon="12.646522992239559"><ele>88.0</ele><time>2026-04-03T15:47:21.999Z</time></trkpt><trkpt lat="43.92429258915409" lon="12.646607944528913"><ele>88.0</ele><time>2026-04-03T15:47:22.999Z</time></trkpt><trkpt lat="43.924380975810315" lon="12.646697310239176"><ele>88.0</ele><time>2026-04-03T15:47:23.999Z</time></trkpt><trkpt lat="43.92447818477235" lon="12.646794963434488"><ele>88.33333333333333</ele><time>2026-04-03T15:47:24.999Z</time></trkpt><trkpt lat="43.92458185559025" lon="12.646906119476256"><ele>88.66666666666667</ele><time>2026-04-03T15:47:25.999Z</time></trkpt><trkpt lat="43.92469467802805" lon="12.647042608717626"><ele>89.0</ele><time>2026-04-03T15:47:26.999Z</time></trkpt><trkpt lat="43.92484481745894" lon="12.647196321293686"><ele>88.0</ele><time>2026-04-03T15:47:27.999Z</time></trkpt><trkpt lat="43.92501639297356" lon="12.647371980104612"><ele>87.0</ele><time>2026-04-03T15:47:28.999Z</time></trkpt><trkpt lat="43.92518858194112" lon="12.647528145326257"><ele>86.0</ele><time>2026-04-03T15:47:29.999Z</time></trkpt><trkpt lat="43.92535086778001" lon="12.647695051396232"><ele>84.66666666666667</ele><time>2026-04-03T15:47:30.999Z</time></trkpt><trkpt lat="43.925508078648576" lon="12.64784835070108"><ele>83.33333333333333</ele><time>2026-04-03T15:47:31.999Z</time></trkpt><trkpt lat="43.9256589454788" lon="12.648000632970428"><ele>82.0</ele><time>2026-04-03T15:47:32.999Z</time></trkpt><trkpt lat="43.92580928726381" lon="12.648154186764408"><ele>83.66666666666666</ele><time>2026-04-03T15:47:33.999Z</time></trkpt><trkpt lat="43.92595928436945" lon="12.648306691951255"><ele>85.33333333333333</ele><time>2026-04-03T15:47:34.999Z</time></trkpt><trkpt lat="43.926107628479045" lon="12.648460429091964"><ele>87.0</ele><time>2026-04-03T15:47:35.999Z</time></trkpt><trkpt lat="43.92625719235542" lon="12.648612209220367"><ele>86.33333333333333</ele><time>2026-04-03T15:47:36.999Z</time></trkpt><trkpt lat="43.92640865543962" lon="12.648763357744585"><ele>85.66666666666666</ele><time>2026-04-03T15:47:37.999Z</time></trkpt><trkpt lat="43.92655493820647" lon="12.64891378109028"><ele>85.0</ele><time>2026-04-03T15:47:38.999Z</time></trkpt><trkpt lat="43.92669090662779" lon="12.649052588561336"><ele>85.0</ele><time>2026-04-03T15:47:39.999Z</time></trkpt><trkpt lat="43.92682096762031" lon="12.649182589117913"><ele>85.0</ele><time>2026-04-03T15:47:40.999Z</time></trkpt><trkpt lat="43.926944769205534" lon="12.649306050571743"><ele>85.0</ele><time>2026-04-03T15:47:41.999Z</time></trkpt><trkpt lat="43.92705193233689" lon="12.649410375291513"><ele>85.0</ele><time>2026-04-03T15:47:42.999Z</time></trkpt><trkpt lat="43.92713830644124" lon="12.649499437083394"><ele>85.0</ele><time>2026-04-03T15:47:43.999Z</time></trkpt><trkpt lat="43.927204922958424" lon="12.649584782216918"><ele>85.0</ele><time>2026-04-03T15:47:44.999Z</time></trkpt><trkpt lat="43.92725070535916" lon="12.649676009709703"><ele>85.0</ele><time>2026-04-03T15:47:45.999Z</time></trkpt><trkpt lat="43.927289829949615" lon="12.649764594419693"><ele>85.0</ele><time>2026-04-03T15:47:46.999Z</time></trkpt><trkpt lat="43.927352787036206" lon="12.649832074602493"><ele>85.0</ele><time>2026-04-03T15:47:47.999Z</time></trkpt><trkpt lat="43.92744211624518" lon="12.649865944018606"><ele>85.0</ele><time>2026-04-03T15:47:48.999Z</time></trkpt><trkpt lat="43.927534667065366" lon="12.649913963804266"><ele>84.75</ele><time>2026-04-03T15:47:49.999Z</time></trkpt><trkpt lat="43.92762334817175" lon="12.650006758862355"><ele>84.5</ele><time>2026-04-03T15:47:50.999Z</time></trkpt><trkpt lat="43.927720003048776" lon="12.650104749080215"><ele>84.25</ele><time>2026-04-03T15:47:51.999Z</time></trkpt><trkpt lat="43.92781936928408" lon="12.650201615581803"><ele>84.0</ele><time>2026-04-03T15:47:52.999Z</time></trkpt><trkpt lat="43.927916507615" lon="12.650297155007358"><ele>84.0</ele><time>2026-04-03T15:47:53.999Z</time></trkpt><trkpt lat="43.92801621753716" lon="12.650392780341434"><ele>84.0</ele><time>2026-04-03T15:47:54.999Z</time></trkpt><trkpt lat="43.92811979195007" lon="12.650499699329298"><ele>84.0</ele><time>2026-04-03T15:47:55.999Z</time></trkpt><trkpt lat="43.92822551278674" lon="12.65061247040141"><ele>84.0</ele><time>2026-04-03T15:47:56.999Z</time></trkpt><trkpt lat="43.928336078043415" lon="12.650720634130641"><ele>84.0</ele><time>2026-04-03T15:47:57.999Z</time></trkpt><trkpt lat="43.928443960894576" lon="12.650834971503963"><ele>84.0</ele><time>2026-04-03T15:47:58.999Z</time></trkpt><trkpt lat="43.928553251144635" lon="12.650942465075136"><ele>84.0</ele><time>2026-04-03T15:47:59.999Z</time></trkpt><trkpt lat="43.92866219369635" lon="12.651052006782521"><ele>84.0</ele><time>2026-04-03T15:48:00.999Z</time></trkpt><trkpt lat="43.92877532564738" lon="12.651162536291718"><ele>83.0</ele><time>2026-04-03T15:48:01.999Z</time></trkpt><trkpt lat="43.928890659685166" lon="12.651278538061447"><ele>82.0</ele><time>2026-04-03T15:48:02.999Z</time></trkpt><trkpt lat="43.92900366533699" lon="12.651388110623925"><ele>81.0</ele><time>2026-04-03T15:48:03.999Z</time></trkpt><trkpt lat="43.92909652470364" lon="12.651507157667814"><ele>80.0</ele><time>2026-04-03T15:48:04.999Z</time></trkpt><trkpt lat="43.929185693134706" lon="12.651594797496514"><ele>80.2</ele><time>2026-04-03T15:48:05.999Z</time></trkpt><trkpt lat="43.929282212129834" lon="12.651666123091227"><ele>80.4</ele><time>2026-04-03T15:48:06.999Z</time></trkpt><trkpt lat="43.92936804086549" lon="12.651747765121096"><ele>80.6</ele><time>2026-04-03T15:48:07.999Z</time></trkpt><trkpt lat="43.92943518585616" lon="12.651812530030176"><ele>80.8</ele><time>2026-04-03T15:48:08.999Z</time></trkpt><trkpt lat="43.929500782241526" lon="12.651878224004975"><ele>81.0</ele><time>2026-04-03T15:48:09.999Z</time></trkpt><trkpt lat="43.92958688977475" lon="12.651990756583025"><ele>80.5</ele><time>2026-04-03T15:48:10.999Z</time></trkpt><trkpt lat="43.92971654549707" lon="12.652123024885935"><ele>80.0</ele><time>2026-04-03T15:48:11.999Z</time></trkpt><trkpt lat="43.92983538855561" lon="12.65224426264971"><ele>79.5</ele><time>2026-04-03T15:48:12.999Z</time></trkpt><trkpt lat="43.92994635391569" lon="12.652337866294534"><ele>79.0</ele><time>2026-04-03T15:48:13.999Z</time></trkpt><trkpt lat="43.93004044104878" lon="12.652436993961238"><ele>78.4</ele><time>2026-04-03T15:48:14.999Z</time></trkpt><trkpt lat="43.93013144004058" lon="12.652526955142156"><ele>77.80000000000001</ele><time>2026-04-03T15:48:15.999Z</time></trkpt><trkpt lat="43.93021131384949" lon="12.652616564191872"><ele>77.19999999999999</ele><time>2026-04-03T15:48:16.999Z</time></trkpt><trkpt lat="43.93028965088413" lon="12.652696556989135"><ele>76.6</ele><time>2026-04-03T15:48:17.999Z</time></trkpt><trkpt lat="43.93036714009023" lon="12.652774808840663"><ele>76.0</ele><time>2026-04-03T15:48:18.999Z</time></trkpt><trkpt lat="43.93045387610375" lon="12.652857846616344"><ele>75.5</ele><time>2026-04-03T15:48:19.999Z</time></trkpt><trkpt lat="43.93054982165228" lon="12.652951462238093"><ele>75.0</ele><time>2026-04-03T15:48:20.999Z</time></trkpt><trkpt lat="43.93065036013861" lon="12.653051185543326"><ele>74.5</ele><time>2026-04-03T15:48:21.999Z</time></trkpt><trkpt lat="43.930749486400885" lon="12.6531530156305"><ele>74.0</ele><time>2026-04-03T15:48:22.999Z</time></trkpt><trkpt lat="43.93084594533725" lon="12.653252203705614"><ele>74.0</ele><time>2026-04-03T15:48:23.999Z</time></trkpt><trkpt lat="43.93093411230788" lon="12.65334234527357"><ele>74.0</ele><time>2026-04-03T15:48:24.999Z</time></trkpt><trkpt lat="43.93101586812454" lon="12.65342478988507"><ele>74.0</ele><time>2026-04-03T15:48:25.999Z</time></trkpt><trkpt lat="43.93108986043446" lon="12.653500245634616"><ele>74.0</ele><time>2026-04-03T15:48:26.999Z</time></trkpt><trkpt lat="43.93115945995489" lon="12.653573251310533"><ele>74.0</ele><time>2026-04-03T15:48:27.999Z</time></trkpt><trkpt lat="43.93122445727329" lon="12.653643831563185"><ele>74.33333333333334</ele><time>2026-04-03T15:48:28.999Z</time></trkpt><trkpt lat="43.93128620205779" lon="12.653708243901296"><ele>74.66666666666667</ele><time>2026-04-03T15:48:29.999Z</time></trkpt><trkpt lat="43.931346877659585" lon="12.653771029003295"><ele>75.0</ele><time>2026-04-03T15:48:30.999Z</time></trkpt><trkpt lat="43.93140512929433" lon="12.653833125713609"><ele>75.33333333333333</ele><time>2026-04-03T15:48:31.999Z</time></trkpt><trkpt lat="43.93146052784927" lon="12.653890873371001"><ele>75.66666666666666</ele><time>2026-04-03T15:48:32.999Z</time></trkpt><trkpt lat="43.93151316464469" lon="12.653942486908395"><ele>76.0</ele><time>2026-04-03T15:48:33.999Z</time></trkpt><trkpt lat="43.931601533591234" lon="12.654040377512231"><ele>76.0</ele><time>2026-04-03T15:48:36Z</time></trkpt><trkpt lat="43.93164689308846" lon="12.654161900875911"><ele>76.0</ele><time>2026-04-03T15:48:38Z</time></trkpt><trkpt lat="43.93164846274596" lon="12.65425320559965"><ele>76.0</ele><time>2026-04-03T15:48:39Z</time></trkpt><trkpt lat="43.93165838875718" lon="12.65434299222726"><ele>76.0</ele><time>2026-04-03T15:48:40Z</time></trkpt><trkpt lat="43.93174336234503" lon="12.65445433188757"><ele>76.0</ele><time>2026-04-03T15:48:42Z</time></trkpt><trkpt lat="43.93181362711046" lon="12.654453720128242"><ele>76.0</ele><time>2026-04-03T15:48:43Z</time></trkpt><trkpt lat="43.931889040336664" lon="12.654421924807432"><ele>76.6</ele><time>2026-04-03T15:48:44Z</time></trkpt><trkpt lat="43.931971979738414" lon="12.654429804588762"><ele>77.19999999999999</ele><time>2026-04-03T15:48:45Z</time></trkpt><trkpt lat="43.932054287982226" lon="12.654483047030585"><ele>77.80000000000001</ele><time>2026-04-03T15:48:46Z</time></trkpt><trkpt lat="43.932138351664" lon="12.654563463545204"><ele>78.4</ele><time>2026-04-03T15:48:47Z</time></trkpt><trkpt lat="43.9322198398845" lon="12.65464403838172"><ele>79.0</ele><time>2026-04-03T15:48:48Z</time></trkpt><trkpt lat="43.9322923588384" lon="12.654720318607797"><ele>79.0</ele><time>2026-04-03T15:48:49Z</time></trkpt><trkpt lat="43.93236587180528" lon="12.654806099230719"><ele>79.0</ele><time>2026-04-03T15:48:50Z</time></trkpt><trkpt lat="43.932446653081755" lon="12.654894916500407"><ele>79.0</ele><time>2026-04-03T15:48:51Z</time></trkpt><trkpt lat="43.93253563135454" lon="12.654985566686557"><ele>79.0</ele><time>2026-04-03T15:48:52Z</time></trkpt><trkpt lat="43.93262840601003" lon="12.65508044910675"><ele>79.0</ele><time>2026-04-03T15:48:53Z</time></trkpt><trkpt lat="43.932724992599155" lon="12.655178198033914"><ele>78.75</ele><time>2026-04-03T15:48:54Z</time></trkpt><trkpt lat="43.932820041119456" lon="12.655275408638717"><ele>78.5</ele><time>2026-04-03T15:48:55Z</time></trkpt><trkpt lat="43.93290912285486" lon="12.655367422829036"><ele>78.25</ele><time>2026-04-03T15:48:56Z</time></trkpt><trkpt lat="43.932999322597055" lon="12.65545678378943"><ele>78.0</ele><time>2026-04-03T15:48:57Z</time></trkpt><trkpt lat="43.93309078697523" lon="12.65554508789776"><ele>77.75</ele><time>2026-04-03T15:48:58Z</time></trkpt><trkpt lat="43.93318807726179" lon="12.655639341349776"><ele>77.5</ele><time>2026-04-03T15:48:59Z</time></trkpt><trkpt lat="43.93329062819649" lon="12.655738853293284"><ele>77.25</ele><time>2026-04-03T15:49:00Z</time></trkpt><trkpt lat="43.93339599800323" lon="12.655845734414033"><ele>77.0</ele><time>2026-04-03T15:49:01Z</time></trkpt><trkpt lat="43.93350450902297" lon="12.655954935198949"><ele>77.0</ele><time>2026-04-03T15:49:02Z</time></trkpt><trkpt lat="43.93361499203575" lon="12.656070953021763"><ele>77.0</ele><time>2026-04-03T15:49:03Z</time></trkpt><trkpt lat="43.93372921781541" lon="12.656188588261617"><ele>77.0</ele><time>2026-04-03T15:49:04Z</time></trkpt><trkpt lat="43.933848030435534" lon="12.65630848339216"><ele>77.0</ele><time>2026-04-03T15:49:05Z</time></trkpt><trkpt lat="43.93397017857439" lon="12.656427631106695"><ele>76.66666666666667</ele><time>2026-04-03T15:49:06Z</time></trkpt><trkpt lat="43.934093914736835" lon="12.65655253478099"><ele>76.33333333333333</ele><time>2026-04-03T15:49:07Z</time></trkpt><trkpt lat="43.93421964910054" lon="12.656680443807911"><ele>76.0</ele><time>2026-04-03T15:49:08Z</time></trkpt><trkpt lat="43.93434971891202" lon="12.656810896088707"><ele>75.33333333333333</ele><time>2026-04-03T15:49:09Z</time></trkpt><trkpt lat="43.93447966541112" lon="12.656942406512933"><ele>74.66666666666667</ele><time>2026-04-03T15:49:10Z</time></trkpt><trkpt lat="43.93460075325995" lon="12.657064336564888"><ele>74.0</ele><time>2026-04-03T15:49:11Z</time></trkpt><trkpt lat="43.93471234396497" lon="12.657181685248124"><ele>73.5</ele><time>2026-04-03T15:49:12Z</time></trkpt><trkpt lat="43.93481543334408" lon="12.657295013084736"><ele>73.0</ele><time>2026-04-03T15:49:13Z</time></trkpt><trkpt lat="43.934918063873695" lon="12.657410525066101"><ele>72.5</ele><time>2026-04-03T15:49:14Z</time></trkpt><trkpt lat="43.93502396045809" lon="12.65753046593442"><ele>72.0</ele><time>2026-04-03T15:49:15Z</time></trkpt><trkpt lat="43.9351333335564" lon="12.657652929678356"><ele>71.75</ele><time>2026-04-03T15:49:16Z</time></trkpt><trkpt lat="43.93523759861318" lon="12.657771865427259"><ele>71.5</ele><time>2026-04-03T15:49:17Z</time></trkpt><trkpt lat="43.935337260804474" lon="12.657889598304946"><ele>71.25</ele><time>2026-04-03T15:49:18Z</time></trkpt><trkpt lat="43.93543098612514" lon="12.657999323700592"><ele>71.0</ele><time>2026-04-03T15:49:19Z</time></trkpt><trkpt lat="43.93550614683992" lon="12.658114905640794"><ele>71.0</ele><time>2026-04-03T15:49:20Z</time></trkpt><trkpt lat="43.9355827304755" lon="12.658199986279516"><ele>71.0</ele><time>2026-04-03T15:49:21Z</time></trkpt><trkpt lat="43.935654578596825" lon="12.65826824497975"><ele>71.0</ele><time>2026-04-03T15:49:22Z</time></trkpt><trkpt lat="43.93572932202965" lon="12.658314242114205"><ele>71.0</ele><time>2026-04-03T15:49:23Z</time></trkpt><trkpt lat="43.935797840353516" lon="12.658395098638572"><ele>71.0</ele><time>2026-04-03T15:49:24Z</time></trkpt><trkpt lat="43.93587181585377" lon="12.658494327564684"><ele>70.75</ele><time>2026-04-03T15:49:25Z</time></trkpt><trkpt lat="43.935950605883036" lon="12.658607124592885"><ele>70.5</ele><time>2026-04-03T15:49:26Z</time></trkpt><trkpt lat="43.93604104826928" lon="12.658720713413691"><ele>70.25</ele><time>2026-04-03T15:49:27Z</time></trkpt><trkpt lat="43.93614005543136" lon="12.658838035737643"><ele>70.0</ele><time>2026-04-03T15:49:27.999Z</time></trkpt><trkpt lat="43.93623732311414" lon="12.65894680459369"><ele>69.75</ele><time>2026-04-03T15:49:28.999Z</time></trkpt><trkpt lat="43.936333499793875" lon="12.659052666285152"><ele>69.5</ele><time>2026-04-03T15:49:29.999Z</time></trkpt><trkpt lat="43.936428652379476" lon="12.659164131614062"><ele>69.25</ele><time>2026-04-03T15:49:30.999Z</time></trkpt><trkpt lat="43.93652220993977" lon="12.659282361776073"><ele>69.0</ele><time>2026-04-03T15:49:31.999Z</time></trkpt><trkpt lat="43.936612625466104" lon="12.65939604211666"><ele>68.2</ele><time>2026-04-03T15:49:32.999Z</time></trkpt><trkpt lat="43.93669362344237" lon="12.659490374516034"><ele>67.4</ele><time>2026-04-03T15:49:33.999Z</time></trkpt><trkpt lat="43.936757177005525" lon="12.659564023302389"><ele>66.6</ele><time>2026-04-03T15:49:34.999Z</time></trkpt><trkpt lat="43.93681787659779" lon="12.659634884967339"><ele>65.8</ele><time>2026-04-03T15:49:35.999Z</time></trkpt><trkpt lat="43.93689500110877" lon="12.65971919704431"><ele>65.0</ele><time>2026-04-03T15:49:36.999Z</time></trkpt><trkpt lat="43.93698146375976" lon="12.659821145981745"><ele>65.0</ele><time>2026-04-03T15:49:37.999Z</time></trkpt><trkpt lat="43.93707651395859" lon="12.65993679514013"><ele>65.0</ele><time>2026-04-03T15:49:38.999Z</time></trkpt><trkpt lat="43.937175437070195" lon="12.660054858949"><ele>65.0</ele><time>2026-04-03T15:49:39.999Z</time></trkpt><trkpt lat="43.9372708505451" lon="12.660167162791048"><ele>65.0</ele><time>2026-04-03T15:49:40.999Z</time></trkpt><trkpt lat="43.9373661569828" lon="12.660274962819637"><ele>64.5</ele><time>2026-04-03T15:49:41.999Z</time></trkpt><trkpt lat="43.937456703263386" lon="12.660379398535387"><ele>64.0</ele><time>2026-04-03T15:49:42.999Z</time></trkpt><trkpt lat="43.93755002743392" lon="12.660487630773748"><ele>63.5</ele><time>2026-04-03T15:49:43.999Z</time></trkpt><trkpt lat="43.93763783020079" lon="12.660591894036296"><ele>63.0</ele><time>2026-04-03T15:49:44.999Z</time></trkpt><trkpt lat="43.93772739199144" lon="12.660697021459614"><ele>63.0</ele><time>2026-04-03T15:49:45.999Z</time></trkpt><trkpt lat="43.93781848659042" lon="12.660800380618392"><ele>63.0</ele><time>2026-04-03T15:49:46.999Z</time></trkpt><trkpt lat="43.93790733539343" lon="12.660902741650261"><ele>63.0</ele><time>2026-04-03T15:49:47.999Z</time></trkpt><trkpt lat="43.93799711417822" lon="12.661004421526808"><ele>63.0</ele><time>2026-04-03T15:49:48.999Z</time></trkpt><trkpt lat="43.93808406187774" lon="12.661109591200443"><ele>62.75</ele><time>2026-04-03T15:49:49.999Z</time></trkpt><trkpt lat="43.938173557677466" lon="12.661214313308662"><ele>62.5</ele><time>2026-04-03T15:49:50.999Z</time></trkpt><trkpt lat="43.93825989902939" lon="12.66132179130851"><ele>62.25</ele><time>2026-04-03T15:49:51.999Z</time></trkpt><trkpt lat="43.938348072101824" lon="12.661424933619747"><ele>62.0</ele><time>2026-04-03T15:49:52.999Z</time></trkpt><trkpt lat="43.93843441474733" lon="12.661528437342344"><ele>62.0</ele><time>2026-04-03T15:49:53.999Z</time></trkpt><trkpt lat="43.93851498256027" lon="12.661625049237506"><ele>62.0</ele><time>2026-04-03T15:49:54.999Z</time></trkpt><trkpt lat="43.93859123314967" lon="12.66171269753122"><ele>62.0</ele><time>2026-04-03T15:49:55.999Z</time></trkpt><trkpt lat="43.93866135918939" lon="12.66179435418958"><ele>62.0</ele><time>2026-04-03T15:49:56.999Z</time></trkpt><trkpt lat="43.93871812444538" lon="12.661873430966821"><ele>62.0</ele><time>2026-04-03T15:49:57.999Z</time></trkpt><trkpt lat="43.938753076998886" lon="12.66196467426312"><ele>61.66666666666667</ele><time>2026-04-03T15:49:58.999Z</time></trkpt><trkpt lat="43.938765063620956" lon="12.662061028183508"><ele>61.333333333333336</ele><time>2026-04-03T15:49:59.999Z</time></trkpt><trkpt lat="43.93876680869411" lon="12.66216515419253"><ele>61.0</ele><time>2026-04-03T15:50:00.999Z</time></trkpt><trkpt lat="43.93876871402785" lon="12.66226785976458"><ele>60.66666666666667</ele><time>2026-04-03T15:50:01.999Z</time></trkpt><trkpt lat="43.93881888796512" lon="12.662365371101716"><ele>60.333333333333336</ele><time>2026-04-03T15:50:02.999Z</time></trkpt><trkpt lat="43.93890366551158" lon="12.662372330933488"><ele>60.0</ele><time>2026-04-03T15:50:03.999Z</time></trkpt><trkpt lat="43.938994023051755" lon="12.662379927103398"><ele>60.0</ele><time>2026-04-03T15:50:04.999Z</time></trkpt><trkpt lat="43.939087344253146" lon="12.662400738623601"><ele>60.0</ele><time>2026-04-03T15:50:05.999Z</time></trkpt><trkpt lat="43.93918578738398" lon="12.662450021205855"><ele>60.0</ele><time>2026-04-03T15:50:06.999Z</time></trkpt><trkpt lat="43.93928614612642" lon="12.662534391349382"><ele>60.0</ele><time>2026-04-03T15:50:07.999Z</time></trkpt><trkpt lat="43.939370587791295" lon="12.66265845878779"><ele>60.0</ele><time>2026-04-03T15:50:08.999Z</time></trkpt><trkpt lat="43.93946438829646" lon="12.662747194194663"><ele>59.25</ele><time>2026-04-03T15:50:09.999Z</time></trkpt><trkpt lat="43.939548896080034" lon="12.662849030196966"><ele>58.5</ele><time>2026-04-03T15:50:10.999Z</time></trkpt><trkpt lat="43.939638195182454" lon="12.662954691792802"><ele>57.75</ele><time>2026-04-03T15:50:11.999Z</time></trkpt><trkpt lat="43.93973064255046" lon="12.66305958191667"><ele>57.0</ele><time>2026-04-03T15:50:12.999Z</time></trkpt><trkpt lat="43.93982817055631" lon="12.663170882118576"><ele>57.0</ele><time>2026-04-03T15:50:13.999Z</time></trkpt><trkpt lat="43.93992431338209" lon="12.663282831466997"><ele>57.0</ele><time>2026-04-03T15:50:14.999Z</time></trkpt><trkpt lat="43.94001827393584" lon="12.663391626231423"><ele>57.0</ele><time>2026-04-03T15:50:15.999Z</time></trkpt><trkpt lat="43.940114816312416" lon="12.663502522627343"><ele>57.0</ele><time>2026-04-03T15:50:16.999Z</time></trkpt><trkpt lat="43.94021288131685" lon="12.663615784447671"><ele>57.0</ele><time>2026-04-03T15:50:17.999Z</time></trkpt><trkpt lat="43.94031364570196" lon="12.66373606327303"><ele>57.0</ele><time>2026-04-03T15:50:18.999Z</time></trkpt><trkpt lat="43.94041934620484" lon="12.663859140154115"><ele>57.0</ele><time>2026-04-03T15:50:19.999Z</time></trkpt><trkpt lat="43.940528066298846" lon="12.663986504903537"><ele>57.0</ele><time>2026-04-03T15:50:20.999Z</time></trkpt><trkpt lat="43.940639100725285" lon="12.664118906379436"><ele>57.0</ele><time>2026-04-03T15:50:21.999Z</time></trkpt><trkpt lat="43.94075469352227" lon="12.66425308898524"><ele>57.0</ele><time>2026-04-03T15:50:22.999Z</time></trkpt><trkpt lat="43.94087281632432" lon="12.664388354370086"><ele>57.0</ele><time>2026-04-03T15:50:23.999Z</time></trkpt><trkpt lat="43.94098844119691" lon="12.66452589678338"><ele>56.5</ele><time>2026-04-03T15:50:24.999Z</time></trkpt><trkpt lat="43.94109806022687" lon="12.66465146209603"><ele>56.0</ele><time>2026-04-03T15:50:25.999Z</time></trkpt><trkpt lat="43.941207224624236" lon="12.664779680243992"><ele>55.5</ele><time>2026-04-03T15:50:26.999Z</time></trkpt><trkpt lat="43.9413181426089" lon="12.664907307606958"><ele>55.0</ele><time>2026-04-03T15:50:27.999Z</time></trkpt><trkpt lat="43.9414293884383" lon="12.66503563866815"><ele>55.0</ele><time>2026-04-03T15:50:28.999Z</time></trkpt><trkpt lat="43.94153467783391" lon="12.66515840188733"><ele>55.0</ele><time>2026-04-03T15:50:29.999Z</time></trkpt><trkpt lat="43.94163444156742" lon="12.665275007863308"><ele>55.0</ele><time>2026-04-03T15:50:30.999Z</time></trkpt><trkpt lat="43.94172975551174" lon="12.665393960246494"><ele>55.0</ele><time>2026-04-03T15:50:31.999Z</time></trkpt><trkpt lat="43.94182968882494" lon="12.665515033775698"><ele>54.75</ele><time>2026-04-03T15:50:32.999Z</time></trkpt><trkpt lat="43.941931725904674" lon="12.665635982097614"><ele>54.5</ele><time>2026-04-03T15:50:33.999Z</time></trkpt><trkpt lat="43.94203001286813" lon="12.665745960407962"><ele>54.25</ele><time>2026-04-03T15:50:34.999Z</time></trkpt><trkpt lat="43.94212691615411" lon="12.66585703095613"><ele>54.0</ele><time>2026-04-03T15:50:35.999Z</time></trkpt><trkpt lat="43.94222110659442" lon="12.665971559478818"><ele>54.0</ele><time>2026-04-03T15:50:36.999Z</time></trkpt><trkpt lat="43.94231798808934" lon="12.666085777736598"><ele>54.0</ele><time>2026-04-03T15:50:37.999Z</time></trkpt><trkpt lat="43.94241550403502" lon="12.666198225822507"><ele>54.0</ele><time>2026-04-03T15:50:38.999Z</time></trkpt><trkpt lat="43.942516179352786" lon="12.66631604423528"><ele>54.0</ele><time>2026-04-03T15:50:39.999Z</time></trkpt><trkpt lat="43.94262073390631" lon="12.666441761650812"><ele>54.0</ele><time>2026-04-03T15:50:41Z</time></trkpt><trkpt lat="43.94272989307429" lon="12.666568402903799"><ele>54.0</ele><time>2026-04-03T15:50:42Z</time></trkpt><trkpt lat="43.942843149851775" lon="12.666698895695243"><ele>54.0</ele><time>2026-04-03T15:50:43Z</time></trkpt><trkpt lat="43.94295926260615" lon="12.666834621353843"><ele>54.0</ele><time>2026-04-03T15:50:44Z</time></trkpt><trkpt lat="43.94307626783298" lon="12.66697437056598"><ele>54.0</ele><time>2026-04-03T15:50:45Z</time></trkpt><trkpt lat="43.943191667404136" lon="12.667111059065325"><ele>54.0</ele><time>2026-04-03T15:50:46Z</time></trkpt><trkpt lat="43.94330429367872" lon="12.667243098228962"><ele>54.0</ele><time>2026-04-03T15:50:47Z</time></trkpt><trkpt lat="43.94341770019203" lon="12.667374996296367"><ele>54.0</ele><time>2026-04-03T15:50:48Z</time></trkpt><trkpt lat="43.94353047799829" lon="12.667508264055773"><ele>53.66666666666667</ele><time>2026-04-03T15:50:49Z</time></trkpt><trkpt lat="43.94364677310257" lon="12.667641923588132"><ele>53.333333333333336</ele><time>2026-04-03T15:50:50Z</time></trkpt><trkpt lat="43.94376447282385" lon="12.667778382137081"><ele>53.0</ele><time>2026-04-03T15:50:51Z</time></trkpt><trkpt lat="43.943880717790705" lon="12.66791710512458"><ele>52.66666666666667</ele><time>2026-04-03T15:50:52Z</time></trkpt><trkpt lat="43.943997331018295" lon="12.668057530435378"><ele>52.33333333333333</ele><time>2026-04-03T15:50:53Z</time></trkpt><trkpt lat="43.944118053945175" lon="12.66819917366529"><ele>52.0</ele><time>2026-04-03T15:50:54Z</time></trkpt><trkpt lat="43.944236621047146" lon="12.668335275359565"><ele>52.0</ele><time>2026-04-03T15:50:55Z</time></trkpt><trkpt lat="43.94435098525715" lon="12.668463802122524"><ele>52.0</ele><time>2026-04-03T15:50:56Z</time></trkpt><trkpt lat="43.944466388904274" lon="12.66859178472368"><ele>52.0</ele><time>2026-04-03T15:50:57Z</time></trkpt><trkpt lat="43.944579969769975" lon="12.668721119319846"><ele>52.0</ele><time>2026-04-03T15:50:58Z</time></trkpt><trkpt lat="43.9446862282813" lon="12.668842091877554"><ele>52.0</ele><time>2026-04-03T15:50:59Z</time></trkpt><trkpt lat="43.944786361307784" lon="12.668958713347553"><ele>52.0</ele><time>2026-04-03T15:51:00Z</time></trkpt><trkpt lat="43.94488574817375" lon="12.669074035045298"><ele>52.0</ele><time>2026-04-03T15:51:01Z</time></trkpt><trkpt lat="43.944986428411006" lon="12.669191279809489"><ele>52.0</ele><time>2026-04-03T15:51:02Z</time></trkpt><trkpt lat="43.9450943466735" lon="12.669311673386533"><ele>51.75</ele><time>2026-04-03T15:51:03Z</time></trkpt><trkpt lat="43.94520818613223" lon="12.669432802114414"><ele>51.5</ele><time>2026-04-03T15:51:04Z</time></trkpt><trkpt lat="43.94532844520168" lon="12.669552503860166"><ele>51.25</ele><time>2026-04-03T15:51:05Z</time></trkpt><trkpt lat="43.9454586321448" lon="12.669663461849737"><ele>51.0</ele><time>2026-04-03T15:51:06Z</time></trkpt><trkpt lat="43.945597820025974" lon="12.669764202772768"><ele>50.75</ele><time>2026-04-03T15:51:07Z</time></trkpt><trkpt lat="43.94573736010114" lon="12.669858810245234"><ele>50.5</ele><time>2026-04-03T15:51:08Z</time></trkpt><trkpt lat="43.94587018243494" lon="12.669945149297568"><ele>50.25</ele><time>2026-04-03T15:51:09Z</time></trkpt><trkpt lat="43.94599347433308" lon="12.670024561873802"><ele>50.0</ele><time>2026-04-03T15:51:10Z</time></trkpt><trkpt lat="43.94610925335014" lon="12.670097911717937"><ele>49.8</ele><time>2026-04-03T15:51:11Z</time></trkpt><trkpt lat="43.94621965578923" lon="12.670167179577563"><ele>49.6</ele><time>2026-04-03T15:51:12Z</time></trkpt><trkpt lat="43.946325237779064" lon="12.670231875607175"><ele>49.400000000000006</ele><time>2026-04-03T15:51:13Z</time></trkpt><trkpt lat="43.94642596905176" lon="12.670289693858793"><ele>49.2</ele><time>2026-04-03T15:51:14Z</time></trkpt><trkpt lat="43.94652060306458" lon="12.670344337368299"><ele>49.0</ele><time>2026-04-03T15:51:15Z</time></trkpt><trkpt lat="43.94660208445122" lon="12.670390571249962"><ele>48.83333333333333</ele><time>2026-04-03T15:51:16Z</time></trkpt><trkpt lat="43.946678079163846" lon="12.670424216820548"><ele>48.666666666666664</ele><time>2026-04-03T15:51:17Z</time></trkpt><trkpt lat="43.94674673168655" lon="12.670453466560632"><ele>48.5</ele><time>2026-04-03T15:51:18Z</time></trkpt><trkpt lat="43.946809573171784" lon="12.670489932663184"><ele>48.33333333333333</ele><time>2026-04-03T15:51:19Z</time></trkpt><trkpt lat="43.9468720833188" lon="12.67053577069268"><ele>48.166666666666664</ele><time>2026-04-03T15:51:20Z</time></trkpt><trkpt lat="43.94694193846126" lon="12.670595130668806"><ele>48.0</ele><time>2026-04-03T15:51:21Z</time></trkpt><trkpt lat="43.94702380965363" lon="12.670655302907182"><ele>47.75</ele><time>2026-04-03T15:51:22Z</time></trkpt><trkpt lat="43.94711770151835" lon="12.670714115313205"><ele>47.5</ele><time>2026-04-03T15:51:23Z</time></trkpt><trkpt lat="43.9472195801209" lon="12.670777537570673"><ele>47.25</ele><time>2026-04-03T15:51:24Z</time></trkpt><trkpt lat="43.94732940922139" lon="12.670841512637132"><ele>47.0</ele><time>2026-04-03T15:51:25Z</time></trkpt><trkpt lat="43.947441220858025" lon="12.670911953485332"><ele>46.6</ele><time>2026-04-03T15:51:26Z</time></trkpt><trkpt lat="43.947544769287326" lon="12.670976827274561"><ele>46.2</ele><time>2026-04-03T15:51:27Z</time></trkpt><trkpt lat="43.947646000299464" lon="12.671038215037672"><ele>45.8</ele><time>2026-04-03T15:51:28Z</time></trkpt><trkpt lat="43.94774563579051" lon="12.67109950943834"><ele>45.4</ele><time>2026-04-03T15:51:29Z</time></trkpt><trkpt lat="43.94784210998303" lon="12.671160350032524"><ele>45.0</ele><time>2026-04-03T15:51:30Z</time></trkpt><trkpt lat="43.947937233412844" lon="12.671221338252195"><ele>44.8</ele><time>2026-04-03T15:51:31Z</time></trkpt><trkpt lat="43.94803207276225" lon="12.671281247610848"><ele>44.6</ele><time>2026-04-03T15:51:32Z</time></trkpt><trkpt lat="43.94812818378616" lon="12.671341083245018"><ele>44.400000000000006</ele><time>2026-04-03T15:51:33Z</time></trkpt><trkpt lat="43.9482226848428" lon="12.671400257905704"><ele>44.2</ele><time>2026-04-03T15:51:34Z</time></trkpt><trkpt lat="43.94831685304643" lon="12.671459455944444"><ele>44.0</ele><time>2026-04-03T15:51:35Z</time></trkpt><trkpt lat="43.94841144124564" lon="12.671514420038074"><ele>43.800000000000004</ele><time>2026-04-03T15:51:36Z</time></trkpt><trkpt lat="43.94850683275176" lon="12.671572488775785"><ele>43.6</ele><time>2026-04-03T15:51:36.999Z</time></trkpt><trkpt lat="43.948603637017385" lon="12.671635900259751"><ele>43.4</ele><time>2026-04-03T15:51:37.999Z</time></trkpt><trkpt lat="43.948699471197365" lon="12.671700330973406"><ele>43.2</ele><time>2026-04-03T15:51:38.999Z</time></trkpt><trkpt lat="43.94879190317107" lon="12.671759354703143"><ele>43.0</ele><time>2026-04-03T15:51:39.999Z</time></trkpt><trkpt lat="43.948883844541996" lon="12.67181366323296"><ele>43.0</ele><time>2026-04-03T15:51:40.999Z</time></trkpt><trkpt lat="43.9489724921176" lon="12.671868695587097"><ele>43.0</ele><time>2026-04-03T15:51:41.999Z</time></trkpt><trkpt lat="43.949065481292585" lon="12.671927844019633"><ele>43.0</ele><time>2026-04-03T15:51:42.999Z</time></trkpt><trkpt lat="43.94916256837312" lon="12.67198498028435"><ele>43.0</ele><time>2026-04-03T15:51:43.999Z</time></trkpt><trkpt lat="43.94926427948993" lon="12.672045829036342"><ele>43.0</ele><time>2026-04-03T15:51:44.999Z</time></trkpt><trkpt lat="43.94936913004599" lon="12.67211080329233"><ele>42.75</ele><time>2026-04-03T15:51:45.999Z</time></trkpt><trkpt lat="43.94947748528342" lon="12.672179746593725"><ele>42.5</ele><time>2026-04-03T15:51:46.999Z</time></trkpt><trkpt lat="43.949588894541115" lon="12.672248787859338"><ele>42.25</ele><time>2026-04-03T15:51:47.999Z</time></trkpt><trkpt lat="43.94970168577519" lon="12.672317714988656"><ele>42.0</ele><time>2026-04-03T15:51:48.999Z</time></trkpt><trkpt lat="43.94981414732089" lon="12.672388191058296"><ele>42.0</ele><time>2026-04-03T15:51:49.999Z</time></trkpt><trkpt lat="43.949925738866035" lon="12.672458814052563"><ele>42.0</ele><time>2026-04-03T15:51:50.999Z</time></trkpt><trkpt lat="43.950036916168955" lon="12.67252862454937"><ele>42.0</ele><time>2026-04-03T15:51:51.999Z</time></trkpt><trkpt lat="43.950147274508694" lon="12.67259843992354"><ele>42.0</ele><time>2026-04-03T15:51:52.999Z</time></trkpt><trkpt lat="43.95025713157382" lon="12.672670665439435"><ele>41.4</ele><time>2026-04-03T15:51:53.999Z</time></trkpt><trkpt lat="43.95036180524642" lon="12.67273535484598"><ele>40.800000000000004</ele><time>2026-04-03T15:51:54.999Z</time></trkpt><trkpt lat="43.95046340311862" lon="12.672796393585928"><ele>40.2</ele><time>2026-04-03T15:51:55.999Z</time></trkpt><trkpt lat="43.950564706364005" lon="12.672856726612343"><ele>39.6</ele><time>2026-04-03T15:51:56.999Z</time></trkpt><trkpt lat="43.95066645893067" lon="12.672920749076235"><ele>39.0</ele><time>2026-04-03T15:51:57.999Z</time></trkpt><trkpt lat="43.9507671259094" lon="12.672983216436512"><ele>38.8</ele><time>2026-04-03T15:51:58.999Z</time></trkpt><trkpt lat="43.95086687751619" lon="12.673042973696717"><ele>38.599999999999994</ele><time>2026-04-03T15:51:59.999Z</time></trkpt><trkpt lat="43.950962954010535" lon="12.673102288494782"><ele>38.4</ele><time>2026-04-03T15:52:00.999Z</time></trkpt><trkpt lat="43.95105580246914" lon="12.673158243568121"><ele>38.199999999999996</ele><time>2026-04-03T15:52:01.999Z</time></trkpt><trkpt lat="43.95114592297565" lon="12.673215526123313"><ele>38.0</ele><time>2026-04-03T15:52:02.999Z</time></trkpt><trkpt lat="43.951234445983296" lon="12.67326931578053"><ele>37.6</ele><time>2026-04-03T15:52:03.999Z</time></trkpt><trkpt lat="43.951321638818115" lon="12.67331882076165"><ele>37.199999999999996</ele><time>2026-04-03T15:52:04.999Z</time></trkpt><trkpt lat="43.9514043945895" lon="12.673367491943747"><ele>36.8</ele><time>2026-04-03T15:52:05.999Z</time></trkpt><trkpt lat="43.95148518910176" lon="12.673409657727433"><ele>36.4</ele><time>2026-04-03T15:52:06.999Z</time></trkpt><trkpt lat="43.951552793398726" lon="12.673445466878068"><ele>36.0</ele><time>2026-04-03T15:52:07.999Z</time></trkpt><trkpt lat="43.951655766357135" lon="12.673515582716128"><ele>35.5</ele><time>2026-04-03T15:52:09.999Z</time></trkpt><trkpt lat="43.951786452059864" lon="12.673599526964589"><ele>35.0</ele><time>2026-04-03T15:52:11.999Z</time></trkpt><trkpt lat="43.951882281507245" lon="12.673622265027888"><ele>34.5</ele><time>2026-04-03T15:52:12.999Z</time></trkpt><trkpt lat="43.951991106065705" lon="12.673646393536728"><ele>34.0</ele><time>2026-04-03T15:52:13.999Z</time></trkpt><trkpt lat="43.95210993447304" lon="12.673684980514256"><ele>33.75</ele><time>2026-04-03T15:52:14.999Z</time></trkpt><trkpt lat="43.95223418255373" lon="12.673723545411635"><ele>33.5</ele><time>2026-04-03T15:52:15.999Z</time></trkpt><trkpt lat="43.9523621112335" lon="12.67376068114388"><ele>33.25</ele><time>2026-04-03T15:52:16.999Z</time></trkpt><trkpt lat="43.95249621947224" lon="12.673792780157099"><ele>33.0</ele><time>2026-04-03T15:52:17.999Z</time></trkpt><trkpt lat="43.952635419089646" lon="12.673819843538144"><ele>32.75</ele><time>2026-04-03T15:52:18.999Z</time></trkpt><trkpt lat="43.95277867876128" lon="12.673847672131657"><ele>32.5</ele><time>2026-04-03T15:52:19.999Z</time></trkpt><trkpt lat="43.95292403865403" lon="12.673875068304215"><ele>32.25</ele><time>2026-04-03T15:52:20.999Z</time></trkpt><trkpt lat="43.953062474144794" lon="12.673897714456066"><ele>32.0</ele><time>2026-04-03T15:52:21.999Z</time></trkpt><trkpt lat="43.95320129536408" lon="12.673917631301432"><ele>32.0</ele><time>2026-04-03T15:52:22.999Z</time></trkpt><trkpt lat="43.95334309900927" lon="12.673931823161425"><ele>32.0</ele><time>2026-04-03T15:52:23.999Z</time></trkpt><trkpt lat="43.95348785382644" lon="12.673939101722745"><ele>32.0</ele><time>2026-04-03T15:52:24.999Z</time></trkpt><trkpt lat="43.95363432111827" lon="12.673942153789993"><ele>32.0</ele><time>2026-04-03T15:52:25.999Z</time></trkpt><trkpt lat="43.95378263249544" lon="12.673939852771777"><ele>32.25</ele><time>2026-04-03T15:52:26.999Z</time></trkpt><trkpt lat="43.95393028819648" lon="12.673928822145106"><ele>32.5</ele><time>2026-04-03T15:52:27.999Z</time></trkpt><trkpt lat="43.95407002585933" lon="12.67391305063184"><ele>32.75</ele><time>2026-04-03T15:52:28.999Z</time></trkpt><trkpt lat="43.954201452328824" lon="12.673896058064365"><ele>33.0</ele><time>2026-04-03T15:52:29.999Z</time></trkpt><trkpt lat="43.95432629840841" lon="12.673876711408012"><ele>33.0</ele><time>2026-04-03T15:52:30.999Z</time></trkpt><trkpt lat="43.954451872022084" lon="12.67385683132088"><ele>33.0</ele><time>2026-04-03T15:52:31.999Z</time></trkpt><trkpt lat="43.954580165177525" lon="12.67383602954831"><ele>33.0</ele><time>2026-04-03T15:52:32.999Z</time></trkpt><trkpt lat="43.95470892481564" lon="12.67381528245504"><ele>33.0</ele><time>2026-04-03T15:52:33.999Z</time></trkpt><trkpt lat="43.95484088647248" lon="12.673792925742788"><ele>33.0</ele><time>2026-04-03T15:52:34.999Z</time></trkpt><trkpt lat="43.95497288282141" lon="12.673771209070155"><ele>33.0</ele><time>2026-04-03T15:52:35.999Z</time></trkpt><trkpt lat="43.9551066961914" lon="12.673747988040219"><ele>33.0</ele><time>2026-04-03T15:52:36.999Z</time></trkpt><trkpt lat="43.955235835173056" lon="12.673723968283683"><ele>33.0</ele><time>2026-04-03T15:52:37.999Z</time></trkpt><trkpt lat="43.95535934852014" lon="12.673701957906024"><ele>32.25</ele><time>2026-04-03T15:52:38.999Z</time></trkpt><trkpt lat="43.95548260003903" lon="12.673678745744695"><ele>31.5</ele><time>2026-04-03T15:52:39.999Z</time></trkpt><trkpt lat="43.95560678536509" lon="12.673656332639023"><ele>30.75</ele><time>2026-04-03T15:52:40.999Z</time></trkpt><trkpt lat="43.955730791654155" lon="12.673635256525095"><ele>30.0</ele><time>2026-04-03T15:52:41.999Z</time></trkpt><trkpt lat="43.95585467139949" lon="12.673613092106528"><ele>30.0</ele><time>2026-04-03T15:52:42.999Z</time></trkpt><trkpt lat="43.95598040668501" lon="12.673591811132336"><ele>30.0</ele><time>2026-04-03T15:52:43.999Z</time></trkpt><trkpt lat="43.95610730437223" lon="12.673570221309893"><ele>30.0</ele><time>2026-04-03T15:52:44.999Z</time></trkpt><trkpt lat="43.956235063540895" lon="12.67354691832958"><ele>30.0</ele><time>2026-04-03T15:52:45.999Z</time></trkpt><trkpt lat="43.95636532598045" lon="12.673526017079556"><ele>30.0</ele><time>2026-04-03T15:52:47Z</time></trkpt><trkpt lat="43.95649527779671" lon="12.673503443877566"><ele>30.0</ele><time>2026-04-03T15:52:48Z</time></trkpt><trkpt lat="43.95662728586633" lon="12.673480946630223"><ele>30.0</ele><time>2026-04-03T15:52:49Z</time></trkpt><trkpt lat="43.95675961060217" lon="12.67345935725305"><ele>30.0</ele><time>2026-04-03T15:52:50Z</time></trkpt><trkpt lat="43.95689129581278" lon="12.673435398459505"><ele>30.0</ele><time>2026-04-03T15:52:51Z</time></trkpt><trkpt lat="43.957021833536686" lon="12.673412327718593"><ele>30.0</ele><time>2026-04-03T15:52:52Z</time></trkpt><trkpt lat="43.95714763447645" lon="12.673393195789222"><ele>30.0</ele><time>2026-04-03T15:52:53Z</time></trkpt><trkpt lat="43.957265298099344" lon="12.673374593327397"><ele>30.0</ele><time>2026-04-03T15:52:54Z</time></trkpt><trkpt lat="43.957378064542034" lon="12.673357313472888"><ele>30.0</ele><time>2026-04-03T15:52:55Z</time></trkpt><trkpt lat="43.9574852989069" lon="12.673342082701625"><ele>30.0</ele><time>2026-04-03T15:52:56Z</time></trkpt><trkpt lat="43.957589723564276" lon="12.673327120158604"><ele>30.0</ele><time>2026-04-03T15:52:57Z</time></trkpt><trkpt lat="43.957691490160265" lon="12.673307974088717"><ele>30.0</ele><time>2026-04-03T15:52:58Z</time></trkpt><trkpt lat="43.95779379040344" lon="12.673288284980439"><ele>30.0</ele><time>2026-04-03T15:52:59Z</time></trkpt><trkpt lat="43.957899804096414" lon="12.673269937281939"><ele>30.0</ele><time>2026-04-03T15:53:00Z</time></trkpt><trkpt lat="43.95800925648506" lon="12.673249669924234"><ele>30.0</ele><time>2026-04-03T15:53:01Z</time></trkpt><trkpt lat="43.95811992374063" lon="12.673227449838615"><ele>30.0</ele><time>2026-04-03T15:53:02Z</time></trkpt><trkpt lat="43.958236572406186" lon="12.673207773194571"><ele>30.0</ele><time>2026-04-03T15:53:03Z</time></trkpt><trkpt lat="43.9583537550131" lon="12.67318540599775"><ele>30.25</ele><time>2026-04-03T15:53:04Z</time></trkpt><trkpt lat="43.95847197898261" lon="12.673162255358926"><ele>30.5</ele><time>2026-04-03T15:53:05Z</time></trkpt><trkpt lat="43.95859346220041" lon="12.673138397070446"><ele>30.75</ele><time>2026-04-03T15:53:06Z</time></trkpt><trkpt lat="43.95871402224909" lon="12.673118580580795"><ele>31.0</ele><time>2026-04-03T15:53:07Z</time></trkpt><trkpt lat="43.95883509972297" lon="12.673098548522479"><ele>31.0</ele><time>2026-04-03T15:53:08Z</time></trkpt><trkpt lat="43.95895629477183" lon="12.673076347976965"><ele>31.0</ele><time>2026-04-03T15:53:09Z</time></trkpt><trkpt lat="43.95907782671838" lon="12.673054643062262"><ele>31.0</ele><time>2026-04-03T15:53:10Z</time></trkpt><trkpt lat="43.95920147118411" lon="12.673033307392297"><ele>31.0</ele><time>2026-04-03T15:53:11Z</time></trkpt><trkpt lat="43.95932660965692" lon="12.67301061613151"><ele>30.25</ele><time>2026-04-03T15:53:12Z</time></trkpt><trkpt lat="43.959452629674765" lon="12.672987809125313"><ele>29.5</ele><time>2026-04-03T15:53:13Z</time></trkpt><trkpt lat="43.95957989542445" lon="12.672967463444426"><ele>28.75</ele><time>2026-04-03T15:53:14Z</time></trkpt><trkpt lat="43.959708610295166" lon="12.672946431923936"><ele>28.0</ele><time>2026-04-03T15:53:15Z</time></trkpt><trkpt lat="43.959837546274564" lon="12.672923285454498"><ele>28.0</ele><time>2026-04-03T15:53:16Z</time></trkpt><trkpt lat="43.95996813433298" lon="12.67290022767344"><ele>28.0</ele><time>2026-04-03T15:53:17Z</time></trkpt><trkpt lat="43.96009884923927" lon="12.672878334287963"><ele>28.0</ele><time>2026-04-03T15:53:18Z</time></trkpt><trkpt lat="43.96022818353476" lon="12.67285330885327"><ele>28.0</ele><time>2026-04-03T15:53:19Z</time></trkpt><trkpt lat="43.96036156140265" lon="12.672829287186865"><ele>28.0</ele><time>2026-04-03T15:53:20Z</time></trkpt><trkpt lat="43.96049512226042" lon="12.672810485211453"><ele>28.0</ele><time>2026-04-03T15:53:21Z</time></trkpt><trkpt lat="43.96062848656169" lon="12.672793783835731"><ele>28.0</ele><time>2026-04-03T15:53:22Z</time></trkpt><trkpt lat="43.960762289435166" lon="12.672778415101872"><ele>28.0</ele><time>2026-04-03T15:53:23Z</time></trkpt><trkpt lat="43.9609015015728" lon="12.672767158028943"><ele>27.75</ele><time>2026-04-03T15:53:24Z</time></trkpt><trkpt lat="43.96104445600412" lon="12.672755948931357"><ele>27.5</ele><time>2026-04-03T15:53:25Z</time></trkpt><trkpt lat="43.9611912085133" lon="12.672748103026167"><ele>27.25</ele><time>2026-04-03T15:53:26Z</time></trkpt><trkpt lat="43.96134023201591" lon="12.672744504767328"><ele>27.0</ele><time>2026-04-03T15:53:27Z</time></trkpt><trkpt lat="43.96149071645967" lon="12.672744077104827"><ele>27.0</ele><time>2026-04-03T15:53:28Z</time></trkpt><trkpt lat="43.96164390718199" lon="12.672745919954092"><ele>27.0</ele><time>2026-04-03T15:53:29Z</time></trkpt><trkpt lat="43.961796391489436" lon="12.672747623780818"><ele>27.0</ele><time>2026-04-03T15:53:30Z</time></trkpt><trkpt lat="43.96194288267988" lon="12.672754261422945"><ele>27.0</ele><time>2026-04-03T15:53:31Z</time></trkpt><trkpt lat="43.96208449926083" lon="12.672763267783862"><ele>27.0</ele><time>2026-04-03T15:53:32Z</time></trkpt><trkpt lat="43.96222374264153" lon="12.672770893769476"><ele>27.0</ele><time>2026-04-03T15:53:33Z</time></trkpt><trkpt lat="43.96236297872693" lon="12.672782195351235"><ele>27.0</ele><time>2026-04-03T15:53:34Z</time></trkpt><trkpt lat="43.96250537184903" lon="12.672795321534515"><ele>26.75</ele><time>2026-04-03T15:53:35Z</time></trkpt><trkpt lat="43.962651140243494" lon="12.672807198964293"><ele>26.5</ele><time>2026-04-03T15:53:36Z</time></trkpt><trkpt lat="43.96279710477479" lon="12.672821246827151"><ele>26.25</ele><time>2026-04-03T15:53:36.999Z</time></trkpt><trkpt lat="43.962944327498285" lon="12.672834527545605"><ele>26.0</ele><time>2026-04-03T15:53:37.999Z</time></trkpt><trkpt lat="43.96309862867203" lon="12.67284148937051"><ele>26.0</ele><time>2026-04-03T15:53:38.999Z</time></trkpt><trkpt lat="43.96325568377136" lon="12.672851398923953"><ele>26.0</ele><time>2026-04-03T15:53:39.999Z</time></trkpt><trkpt lat="43.96341305235854" lon="12.67286126163413"><ele>26.0</ele><time>2026-04-03T15:53:40.999Z</time></trkpt><trkpt lat="43.96356987495497" lon="12.672874076866727"><ele>26.25</ele><time>2026-04-03T15:53:41.999Z</time></trkpt><trkpt lat="43.96372237759069" lon="12.672886579291172"><ele>26.5</ele><time>2026-04-03T15:53:42.999Z</time></trkpt><trkpt lat="43.96386785525319" lon="12.672901392811768"><ele>26.75</ele><time>2026-04-03T15:53:43.999Z</time></trkpt><trkpt lat="43.96400689354383" lon="12.672909426796497"><ele>27.0</ele><time>2026-04-03T15:53:44.999Z</time></trkpt><trkpt lat="43.96414076037694" lon="12.672922116216386"><ele>26.5</ele><time>2026-04-03T15:53:45.999Z</time></trkpt><trkpt lat="43.964268751547316" lon="12.672932012842857"><ele>26.0</ele><time>2026-04-03T15:53:46.999Z</time></trkpt><trkpt lat="43.964398266368704" lon="12.672941073100407"><ele>25.5</ele><time>2026-04-03T15:53:47.999Z</time></trkpt><trkpt lat="43.96452755844926" lon="12.672951158911948"><ele>25.0</ele><time>2026-04-03T15:53:48.999Z</time></trkpt><trkpt lat="43.96465801323149" lon="12.672961092087288"><ele>25.0</ele><time>2026-04-03T15:53:49.999Z</time></trkpt><trkpt lat="43.964785997724555" lon="12.672972723004365"><ele>25.0</ele><time>2026-04-03T15:53:50.999Z</time></trkpt><trkpt lat="43.96491490964614" lon="12.672982181480213"><ele>25.0</ele><time>2026-04-03T15:53:51.999Z</time></trkpt><trkpt lat="43.965047228408714" lon="12.672991693206725"><ele>25.0</ele><time>2026-04-03T15:53:52.999Z</time></trkpt><trkpt lat="43.965177092306206" lon="12.673004133620564"><ele>24.5</ele><time>2026-04-03T15:53:53.999Z</time></trkpt><trkpt lat="43.96530908427268" lon="12.673015825647923"><ele>24.0</ele><time>2026-04-03T15:53:54.999Z</time></trkpt><trkpt lat="43.965445765632445" lon="12.673025637338652"><ele>23.5</ele><time>2026-04-03T15:53:55.999Z</time></trkpt><trkpt lat="43.96557773680495" lon="12.673036721056064"><ele>23.0</ele><time>2026-04-03T15:53:56.999Z</time></trkpt><trkpt lat="43.96571054190861" lon="12.673044392830318"><ele>23.0</ele><time>2026-04-03T15:53:57.999Z</time></trkpt><trkpt lat="43.96584111896435" lon="12.67305306546937"><ele>23.0</ele><time>2026-04-03T15:53:58.999Z</time></trkpt><trkpt lat="43.96596268705965" lon="12.673060729129025"><ele>23.0</ele><time>2026-04-03T15:53:59.999Z</time></trkpt><trkpt lat="43.9660795063993" lon="12.67307629503348"><ele>23.0</ele><time>2026-04-03T15:54:00.999Z</time></trkpt><trkpt lat="43.96618209859625" lon="12.673079128228121"><ele>22.666666666666668</ele><time>2026-04-03T15:54:01.999Z</time></trkpt><trkpt lat="43.96626403826487" lon="12.673086061878807"><ele>22.333333333333336</ele><time>2026-04-03T15:54:02.999Z</time></trkpt><trkpt lat="43.966362372494835" lon="12.673107424588125"><ele>22.0</ele><time>2026-04-03T15:54:04.999Z</time></trkpt><trkpt lat="43.96645338704746" lon="12.673188918582822"><ele>21.666666666666668</ele><time>2026-04-03T15:54:06.999Z</time></trkpt><trkpt lat="43.96651522631809" lon="12.67325653495168"><ele>21.333333333333332</ele><time>2026-04-03T15:54:07.999Z</time></trkpt><trkpt lat="43.96656857216826" lon="12.673304421264316"><ele>21.0</ele><time>2026-04-03T15:54:08.999Z</time></trkpt><trkpt lat="43.96664385924217" lon="12.673313516913852"><ele>21.166666666666668</ele><time>2026-04-03T15:54:09.999Z</time></trkpt><trkpt lat="43.96671528579009" lon="12.673282392169197"><ele>21.333333333333332</ele><time>2026-04-03T15:54:10.999Z</time></trkpt><trkpt lat="43.966781813973306" lon="12.673221755893815"><ele>21.5</ele><time>2026-04-03T15:54:11.999Z</time></trkpt><trkpt lat="43.966823181534224" lon="12.673128202055393"><ele>21.666666666666664</ele><time>2026-04-03T15:54:12.999Z</time></trkpt><trkpt lat="43.96684614111556" lon="12.673009668528566"><ele>21.833333333333332</ele><time>2026-04-03T15:54:13.999Z</time></trkpt><trkpt lat="43.96687535759556" lon="12.672887490210217"><ele>22.0</ele><time>2026-04-03T15:54:14.999Z</time></trkpt><trkpt lat="43.96691860627142" lon="12.67276604197821"><ele>22.0</ele><time>2026-04-03T15:54:15.999Z</time></trkpt><trkpt lat="43.96701600170955" lon="12.67267528736108"><ele>22.0</ele><time>2026-04-03T15:54:16.999Z</time></trkpt><trkpt lat="43.9671053552505" lon="12.672583699611563"><ele>22.0</ele><time>2026-04-03T15:54:17.999Z</time></trkpt><trkpt lat="43.96719132503358" lon="12.672497133937684"><ele>22.0</ele><time>2026-04-03T15:54:18.999Z</time></trkpt><trkpt lat="43.9672730520319" lon="12.672412494246585"><ele>22.0</ele><time>2026-04-03T15:54:19.999Z</time></trkpt><trkpt lat="43.96735686235606" lon="12.672322885774486"><ele>22.0</ele><time>2026-04-03T15:54:20.999Z</time></trkpt><trkpt lat="43.96744802798184" lon="12.672223986083106"><ele>22.0</ele><time>2026-04-03T15:54:21.999Z</time></trkpt><trkpt lat="43.96754439989421" lon="12.67212311705331"><ele>22.0</ele><time>2026-04-03T15:54:22.999Z</time></trkpt><trkpt lat="43.967646036042886" lon="12.672023559578005"><ele>22.0</ele><time>2026-04-03T15:54:23.999Z</time></trkpt><trkpt lat="43.967749553591155" lon="12.67191712056377"><ele>21.5</ele><time>2026-04-03T15:54:24.999Z</time></trkpt><trkpt lat="43.96785398889929" lon="12.671804661686553"><ele>21.0</ele><time>2026-04-03T15:54:25.999Z</time></trkpt><trkpt lat="43.96796103901381" lon="12.671695541423418"><ele>20.5</ele><time>2026-04-03T15:54:26.999Z</time></trkpt><trkpt lat="43.96807741651964" lon="12.671595599867059"><ele>20.0</ele><time>2026-04-03T15:54:27.999Z</time></trkpt><trkpt lat="43.9681999256799" lon="12.671503309035197"><ele>20.0</ele><time>2026-04-03T15:54:28.999Z</time></trkpt><trkpt lat="43.96832428072623" lon="12.671430771577889"><ele>20.0</ele><time>2026-04-03T15:54:29.999Z</time></trkpt><trkpt lat="43.96844391921731" lon="12.671392062452584"><ele>20.0</ele><time>2026-04-03T15:54:30.999Z</time></trkpt><trkpt lat="43.96855900895955" lon="12.671380192045374"><ele>20.0</ele><time>2026-04-03T15:54:31.999Z</time></trkpt><trkpt lat="43.96867031401359" lon="12.671382622830148"><ele>20.25</ele><time>2026-04-03T15:54:32.999Z</time></trkpt><trkpt lat="43.9687814420773" lon="12.671397073647851"><ele>20.5</ele><time>2026-04-03T15:54:33.999Z</time></trkpt><trkpt lat="43.96889280644318" lon="12.671419041522938"><ele>20.75</ele><time>2026-04-03T15:54:34.999Z</time></trkpt><trkpt lat="43.96901144957614" lon="12.671440404454989"><ele>21.0</ele><time>2026-04-03T15:54:35.999Z</time></trkpt><trkpt lat="43.96913506101549" lon="12.671465948653404"><ele>20.75</ele><time>2026-04-03T15:54:36.999Z</time></trkpt><trkpt lat="43.96927267689491" lon="12.671496573828371"><ele>20.5</ele><time>2026-04-03T15:54:37.999Z</time></trkpt><trkpt lat="43.9694090133347" lon="12.671525313349717"><ele>20.25</ele><time>2026-04-03T15:54:38.999Z</time></trkpt><trkpt lat="43.96952895828249" lon="12.671551621488632"><ele>20.0</ele><time>2026-04-03T15:54:39.999Z</time></trkpt><trkpt lat="43.96964263662822" lon="12.671576838503755"><ele>20.0</ele><time>2026-04-03T15:54:40.999Z</time></trkpt><trkpt lat="43.96975883028312" lon="12.671601839268657"><ele>20.0</ele><time>2026-04-03T15:54:41.999Z</time></trkpt><trkpt lat="43.96987778646082" lon="12.671627582300824"><ele>20.0</ele><time>2026-04-03T15:54:42.999Z</time></trkpt><trkpt lat="43.96999682044091" lon="12.671654440929093"><ele>20.0</ele><time>2026-04-03T15:54:43.999Z</time></trkpt><trkpt lat="43.97011321268217" lon="12.671678164821927"><ele>20.0</ele><time>2026-04-03T15:54:44.999Z</time></trkpt><trkpt lat="43.97022874314023" lon="12.671699108770303"><ele>20.0</ele><time>2026-04-03T15:54:45.999Z</time></trkpt><trkpt lat="43.970331084143695" lon="12.671719651079911"><ele>20.0</ele><time>2026-04-03T15:54:46.999Z</time></trkpt><trkpt lat="43.97042583881228" lon="12.67174077398205"><ele>20.0</ele><time>2026-04-03T15:54:47.999Z</time></trkpt><trkpt lat="43.970518974917645" lon="12.671756656328087"><ele>20.0</ele><time>2026-04-03T15:54:48.999Z</time></trkpt><trkpt lat="43.970606264957134" lon="12.671774793647497"><ele>20.0</ele><time>2026-04-03T15:54:49.999Z</time></trkpt><trkpt lat="43.970678152268626" lon="12.67179342255656"><ele>20.0</ele><time>2026-04-03T15:54:50.999Z</time></trkpt><trkpt lat="43.970764021294215" lon="12.671822233706692"><ele>20.0</ele><time>2026-04-03T15:54:53Z</time></trkpt><trkpt lat="43.97084794315579" lon="12.671896825317779"><ele>20.0</ele><time>2026-04-03T15:54:55Z</time></trkpt><trkpt lat="43.97091855747005" lon="12.672003988827003"><ele>20.0</ele><time>2026-04-03T15:54:57Z</time></trkpt><trkpt lat="43.97097279190773" lon="12.67206492725567"><ele>20.0</ele><time>2026-04-03T15:54:58Z</time></trkpt><trkpt lat="43.97103441065368" lon="12.672099706839301"><ele>20.0</ele><time>2026-04-03T15:54:59Z</time></trkpt><trkpt lat="43.97110790337138" lon="12.672101642130409"><ele>20.0</ele><time>2026-04-03T15:55:00Z</time></trkpt><trkpt lat="43.97119015769728" lon="12.672070458213545"><ele>20.0</ele><time>2026-04-03T15:55:01Z</time></trkpt><trkpt lat="43.9712675499335" lon="12.672003223266286"><ele>20.0</ele><time>2026-04-03T15:55:02Z</time></trkpt><trkpt lat="43.97134540769763" lon="12.671927209505867"><ele>20.0</ele><time>2026-04-03T15:55:03Z</time></trkpt><trkpt lat="43.97142422911578" lon="12.671888552143088"><ele>20.0</ele><time>2026-04-03T15:55:04Z</time></trkpt><trkpt lat="43.9715216704024" lon="12.671879849253976"><ele>20.25</ele><time>2026-04-03T15:55:05Z</time></trkpt><trkpt lat="43.97164257367442" lon="12.671879649087787"><ele>20.5</ele><time>2026-04-03T15:55:06Z</time></trkpt><trkpt lat="43.971774416244074" lon="12.67188176779762"><ele>20.75</ele><time>2026-04-03T15:55:07Z</time></trkpt><trkpt lat="43.971916900092204" lon="12.671882529276196"><ele>21.0</ele><time>2026-04-03T15:55:08Z</time></trkpt><trkpt lat="43.97207345618034" lon="12.671881024176697"><ele>21.0</ele><time>2026-04-03T15:55:09Z</time></trkpt><trkpt lat="43.97226298677589" lon="12.67190959187591"><ele>21.0</ele><time>2026-04-03T15:55:10Z</time></trkpt><trkpt lat="43.97248617559555" lon="12.67191771847155"><ele>21.0</ele><time>2026-04-03T15:55:11Z</time></trkpt><trkpt lat="43.972714939774484" lon="12.67191229231784"><ele>21.0</ele><time>2026-04-03T15:55:12Z</time></trkpt><trkpt lat="43.97294562054746" lon="12.671932180466777"><ele>21.0</ele><time>2026-04-03T15:55:13Z</time></trkpt><trkpt lat="43.97316937215973" lon="12.671934844831311"><ele>20.666666666666668</ele><time>2026-04-03T15:55:14Z</time></trkpt><trkpt lat="43.973373701228475" lon="12.67194166379368"><ele>20.333333333333336</ele><time>2026-04-03T15:55:15Z</time></trkpt><trkpt lat="43.973565084921304" lon="12.671954986042355"><ele>20.0</ele><time>2026-04-03T15:55:16Z</time></trkpt><trkpt lat="43.97374251679997" lon="12.671982845231364"><ele>20.0</ele><time>2026-04-03T15:55:17Z</time></trkpt><trkpt lat="43.973904135113706" lon="12.672043875781643"><ele>20.0</ele><time>2026-04-03T15:55:18Z</time></trkpt><trkpt lat="43.97405727921504" lon="12.67214169729629"><ele>20.0</ele><time>2026-04-03T15:55:19Z</time></trkpt><trkpt lat="43.974193184190945" lon="12.672266620339805"><ele>20.0</ele><time>2026-04-03T15:55:20Z</time></trkpt><trkpt lat="43.97432018533313" lon="12.672414104079234"><ele>20.0</ele><time>2026-04-03T15:55:21Z</time></trkpt><trkpt lat="43.97443887208022" lon="12.672584575797622"><ele>20.0</ele><time>2026-04-03T15:55:22Z</time></trkpt><trkpt lat="43.97452792362576" lon="12.672790557695969"><ele>19.5</ele><time>2026-04-03T15:55:23Z</time></trkpt><trkpt lat="43.97461804349429" lon="12.672977735836339"><ele>19.0</ele><time>2026-04-03T15:55:24Z</time></trkpt><trkpt lat="43.97469839249282" lon="12.673146063486671"><ele>18.5</ele><time>2026-04-03T15:55:25Z</time></trkpt><trkpt lat="43.974768687840275" lon="12.67329094162878"><ele>18.0</ele><time>2026-04-03T15:55:26Z</time></trkpt><trkpt lat="43.97482887210721" lon="12.673376766240976"><ele>18.0</ele><time>2026-04-03T15:55:27Z</time></trkpt><trkpt lat="43.97485057513801" lon="12.673491735256299"><ele>18.0</ele><time>2026-04-03T15:55:28Z</time></trkpt><trkpt lat="43.974839483599816" lon="12.67362152749584"><ele>18.0</ele><time>2026-04-03T15:55:29Z</time></trkpt><trkpt lat="43.97481644548603" lon="12.673742729042585"><ele>18.0</ele><time>2026-04-03T15:55:30Z</time></trkpt><trkpt lat="43.97484100739944" lon="12.673853022762993"><ele>18.0</ele><time>2026-04-03T15:55:31Z</time></trkpt><trkpt lat="43.97489811514239" lon="12.673934822749695"><ele>18.0</ele><time>2026-04-03T15:55:32Z</time></trkpt><trkpt lat="43.9749754976243" lon="12.67396937268206"><ele>18.0</ele><time>2026-04-03T15:55:33Z</time></trkpt><trkpt lat="43.97506402132674" lon="12.673973228254436"><ele>18.0</ele><time>2026-04-03T15:55:34Z</time></trkpt><trkpt lat="43.97515735097858" lon="12.673881023119826"><ele>18.0</ele><time>2026-04-03T15:55:35Z</time></trkpt><trkpt lat="43.975256213764546" lon="12.673799323945508"><ele>18.0</ele><time>2026-04-03T15:55:36Z</time></trkpt><trkpt lat="43.975379699782486" lon="12.673778842098995"><ele>18.0</ele><time>2026-04-03T15:55:37Z</time></trkpt><trkpt lat="43.97551280274361" lon="12.673798431114445"><ele>18.0</ele><time>2026-04-03T15:55:38Z</time></trkpt><trkpt lat="43.975643122258894" lon="12.673810573284495"><ele>18.0</ele><time>2026-04-03T15:55:39Z</time></trkpt><trkpt lat="43.97577471146836" lon="12.673817341869608"><ele>18.0</ele><time>2026-04-03T15:55:40Z</time></trkpt><trkpt lat="43.975909161390334" lon="12.673825797983511"><ele>18.0</ele><time>2026-04-03T15:55:41Z</time></trkpt><trkpt lat="43.976044087441004" lon="12.673835318630227"><ele>18.0</ele><time>2026-04-03T15:55:42Z</time></trkpt><trkpt lat="43.97617606952905" lon="12.673842171220551"><ele>18.0</ele><time>2026-04-03T15:55:43Z</time></trkpt><trkpt lat="43.976309292682146" lon="12.673850676037052"><ele>18.0</ele><time>2026-04-03T15:55:44Z</time></trkpt><trkpt lat="43.97644359059081" lon="12.673859440418772"><ele>18.0</ele><time>2026-04-03T15:55:45Z</time></trkpt><trkpt lat="43.97657785701142" lon="12.673870334337488"><ele>18.0</ele><time>2026-04-03T15:55:46Z</time></trkpt><trkpt lat="43.97671137998338" lon="12.673878967911781"><ele>18.0</ele><time>2026-04-03T15:55:47Z</time></trkpt><trkpt lat="43.97684246140881" lon="12.6738898253425"><ele>18.0</ele><time>2026-04-03T15:55:47.999Z</time></trkpt><trkpt lat="43.976969901118395" lon="12.6739032413653"><ele>18.0</ele><time>2026-04-03T15:55:48.999Z</time></trkpt><trkpt lat="43.977098252817086" lon="12.673907429450196"><ele>18.0</ele><time>2026-04-03T15:55:49.999Z</time></trkpt><trkpt lat="43.97722464185528" lon="12.673917680779967"><ele>18.0</ele><time>2026-04-03T15:55:50.999Z</time></trkpt><trkpt lat="43.9773515490387" lon="12.673929782012772"><ele>18.0</ele><time>2026-04-03T15:55:51.999Z</time></trkpt><trkpt lat="43.97747943870057" lon="12.673939175856685"><ele>18.0</ele><time>2026-04-03T15:55:52.999Z</time></trkpt><trkpt lat="43.97760695071788" lon="12.673949737144124"><ele>17.25</ele><time>2026-04-03T15:55:53.999Z</time></trkpt><trkpt lat="43.977733929804444" lon="12.67395954528589"><ele>16.5</ele><time>2026-04-03T15:55:54.999Z</time></trkpt><trkpt lat="43.97786004076596" lon="12.673969982045698"><ele>15.75</ele><time>2026-04-03T15:55:55.999Z</time></trkpt><trkpt lat="43.977988550801385" lon="12.67398092211783"><ele>15.0</ele><time>2026-04-03T15:55:56.999Z</time></trkpt><trkpt lat="43.97812024764287" lon="12.673985344613865"><ele>15.0</ele><time>2026-04-03T15:55:57.999Z</time></trkpt><trkpt lat="43.9782526912246" lon="12.673989795735372"><ele>15.0</ele><time>2026-04-03T15:55:58.999Z</time></trkpt><trkpt lat="43.97838657012166" lon="12.673998952873898"><ele>15.0</ele><time>2026-04-03T15:55:59.999Z</time></trkpt><trkpt lat="43.978523302290114" lon="12.67401060222061"><ele>15.0</ele><time>2026-04-03T15:56:00.999Z</time></trkpt><trkpt lat="43.978664105523414" lon="12.674020381329896"><ele>15.0</ele><time>2026-04-03T15:56:01.999Z</time></trkpt><trkpt lat="43.97880655891425" lon="12.674029958101448"><ele>15.0</ele><time>2026-04-03T15:56:02.999Z</time></trkpt><trkpt lat="43.978948489051554" lon="12.674041128716949"><ele>15.0</ele><time>2026-04-03T15:56:03.999Z</time></trkpt><trkpt lat="43.9790886516869" lon="12.674054374947904"><ele>15.0</ele><time>2026-04-03T15:56:04.999Z</time></trkpt><trkpt lat="43.9792261942539" lon="12.674068266143985"><ele>14.75</ele><time>2026-04-03T15:56:05.999Z</time></trkpt><trkpt lat="43.97936541732136" lon="12.674078750312827"><ele>14.5</ele><time>2026-04-03T15:56:06.999Z</time></trkpt><trkpt lat="43.97950435925293" lon="12.674089156708686"><ele>14.25</ele><time>2026-04-03T15:56:07.999Z</time></trkpt><trkpt lat="43.97964116684842" lon="12.674098478857776"><ele>14.0</ele><time>2026-04-03T15:56:08.999Z</time></trkpt><trkpt lat="43.979775006626205" lon="12.674111110834266"><ele>14.0</ele><time>2026-04-03T15:56:09.999Z</time></trkpt><trkpt lat="43.979907799505014" lon="12.674124033345164"><ele>14.0</ele><time>2026-04-03T15:56:10.999Z</time></trkpt><trkpt lat="43.98004172972687" lon="12.674132306564504"><ele>14.0</ele><time>2026-04-03T15:56:11.999Z</time></trkpt><trkpt lat="43.98017126240851" lon="12.674147799893769"><ele>14.0</ele><time>2026-04-03T15:56:12.999Z</time></trkpt><trkpt lat="43.98030070342267" lon="12.674155990596983"><ele>14.25</ele><time>2026-04-03T15:56:13.999Z</time></trkpt><trkpt lat="43.98043360060168" lon="12.674162708760724"><ele>14.5</ele><time>2026-04-03T15:56:14.999Z</time></trkpt><trkpt lat="43.980566699410566" lon="12.674167990773144"><ele>14.75</ele><time>2026-04-03T15:56:15.999Z</time></trkpt><trkpt lat="43.9807005529414" lon="12.67417195344138"><ele>15.0</ele><time>2026-04-03T15:56:16.999Z</time></trkpt><trkpt lat="43.98083169540724" lon="12.674179470293739"><ele>14.75</ele><time>2026-04-03T15:56:17.999Z</time></trkpt><trkpt lat="43.980962284545434" lon="12.674181275388017"><ele>14.5</ele><time>2026-04-03T15:56:18.999Z</time></trkpt><trkpt lat="43.98109027346562" lon="12.67418034389847"><ele>14.25</ele><time>2026-04-03T15:56:19.999Z</time></trkpt><trkpt lat="43.98121713338265" lon="12.674180402677539"><ele>14.0</ele><time>2026-04-03T15:56:20.999Z</time></trkpt><trkpt lat="43.98134210737449" lon="12.674177330610842"><ele>14.0</ele><time>2026-04-03T15:56:21.999Z</time></trkpt><trkpt lat="43.98146338676882" lon="12.674172843306165"><ele>14.0</ele><time>2026-04-03T15:56:22.999Z</time></trkpt><trkpt lat="43.98158171387788" lon="12.674168221739839"><ele>14.0</ele><time>2026-04-03T15:56:23.999Z</time></trkpt><trkpt lat="43.98169926113931" lon="12.674163011636178"><ele>14.0</ele><time>2026-04-03T15:56:24.999Z</time></trkpt><trkpt lat="43.981816757825605" lon="12.674155945323744"><ele>14.25</ele><time>2026-04-03T15:56:25.999Z</time></trkpt><trkpt lat="43.98193237533924" lon="12.674148223934397"><ele>14.5</ele><time>2026-04-03T15:56:26.999Z</time></trkpt><trkpt lat="43.9820479666624" lon="12.674137920283243"><ele>14.75</ele><time>2026-04-03T15:56:27.999Z</time></trkpt><trkpt lat="43.98216137783148" lon="12.674126133600152"><ele>15.0</ele><time>2026-04-03T15:56:28.999Z</time></trkpt><trkpt lat="43.98227551747778" lon="12.674113235718893"><ele>15.0</ele><time>2026-04-03T15:56:29.999Z</time></trkpt><trkpt lat="43.982389229899105" lon="12.674101035222344"><ele>15.0</ele><time>2026-04-03T15:56:30.999Z</time></trkpt><trkpt lat="43.982504739092455" lon="12.674088794177166"><ele>15.0</ele><time>2026-04-03T15:56:31.999Z</time></trkpt><trkpt lat="43.98262132799981" lon="12.674072323452139"><ele>15.0</ele><time>2026-04-03T15:56:32.999Z</time></trkpt><trkpt lat="43.982736025853576" lon="12.674054197452591"><ele>14.75</ele><time>2026-04-03T15:56:33.999Z</time></trkpt><trkpt lat="43.98285074140024" lon="12.674034727063477"><ele>14.5</ele><time>2026-04-03T15:56:34.999Z</time></trkpt><trkpt lat="43.98296615141987" lon="12.674013153782518"><ele>14.25</ele><time>2026-04-03T15:56:35.999Z</time></trkpt><trkpt lat="43.983082623873926" lon="12.673992600126464"><ele>14.0</ele><time>2026-04-03T15:56:36.999Z</time></trkpt><trkpt lat="43.98319677105984" lon="12.673968217956002"><ele>14.0</ele><time>2026-04-03T15:56:37.999Z</time></trkpt><trkpt lat="43.98331502225303" lon="12.673941793049122"><ele>14.0</ele><time>2026-04-03T15:56:38.999Z</time></trkpt><trkpt lat="43.983435115989785" lon="12.673915908803249"><ele>14.0</ele><time>2026-04-03T15:56:39.999Z</time></trkpt><trkpt lat="43.98355352191093" lon="12.673886668240629"><ele>14.0</ele><time>2026-04-03T15:56:40.999Z</time></trkpt><trkpt lat="43.98366954407133" lon="12.673851193584067"><ele>14.0</ele><time>2026-04-03T15:56:41.999Z</time></trkpt><trkpt lat="43.98378235840332" lon="12.673815653685372"><ele>13.999999999999998</ele><time>2026-04-03T15:56:42.999Z</time></trkpt><trkpt lat="43.9838852537265" lon="12.67378957510225"><ele>13.999999999999998</ele><time>2026-04-03T15:56:43.999Z</time></trkpt><trkpt lat="43.983982512156885" lon="12.673764054650933"><ele>14.0</ele><time>2026-04-03T15:56:44.999Z</time></trkpt><trkpt lat="43.98406034093908" lon="12.673741561644066"><ele>14.0</ele><time>2026-04-03T15:56:45.999Z</time></trkpt><trkpt lat="43.98415141247502" lon="12.673757846281816"><ele>13.6</ele><time>2026-04-03T15:56:47.999Z</time></trkpt><trkpt lat="43.98418812666142" lon="12.673915253922573"><ele>13.2</ele><time>2026-04-03T15:56:49.999Z</time></trkpt><trkpt lat="43.984229856529886" lon="12.674019926649729"><ele>12.799999999999999</ele><time>2026-04-03T15:56:50.999Z</time></trkpt><trkpt lat="43.98427661857082" lon="12.674137221780642"><ele>12.399999999999999</ele><time>2026-04-03T15:56:51.999Z</time></trkpt><trkpt lat="43.98432994469489" lon="12.674264341772545"><ele>12.0</ele><time>2026-04-03T15:56:52.999Z</time></trkpt><trkpt lat="43.984365999724716" lon="12.674375667730624"><ele>11.833333333333334</ele><time>2026-04-03T15:56:53.999Z</time></trkpt><trkpt lat="43.98438691361002" lon="12.674483026290966"><ele>11.666666666666666</ele><time>2026-04-03T15:56:54.999Z</time></trkpt><trkpt lat="43.98440485466947" lon="12.674586608333941"><ele>11.5</ele><time>2026-04-03T15:56:55.999Z</time></trkpt><trkpt lat="43.98441931306025" lon="12.674677053645388"><ele>11.333333333333332</ele><time>2026-04-03T15:56:56.999Z</time></trkpt><trkpt lat="43.98443789127559" lon="12.674790294692997"><ele>11.166666666666666</ele><time>2026-04-03T15:56:59Z</time></trkpt><trkpt lat="43.98445999572743" lon="12.674916617540129"><ele>11.0</ele><time>2026-04-03T15:57:01Z</time></trkpt><trkpt lat="43.98462666515335" lon="12.674926614276982"><ele>11.0</ele><time>2026-04-03T15:57:02Z</time></trkpt><trkpt lat="43.98472409789558" lon="12.674961781417691"><ele>11.0</ele><time>2026-04-03T15:57:03Z</time></trkpt><trkpt lat="43.98483109374545" lon="12.67503866252614"><ele>11.0</ele><time>2026-04-03T15:57:04Z</time></trkpt><trkpt lat="43.98494046792408" lon="12.675102626618237"><ele>11.0</ele><time>2026-04-03T15:57:05Z</time></trkpt><trkpt lat="43.98504947084692" lon="12.675170017260138"><ele>10.75</ele><time>2026-04-03T15:57:06Z</time></trkpt><trkpt lat="43.985161055068495" lon="12.675227141220233"><ele>10.5</ele><time>2026-04-03T15:57:07Z</time></trkpt><trkpt lat="43.98523675554509" lon="12.675352466511184"><ele>10.25</ele><time>2026-04-03T15:57:08Z</time></trkpt><trkpt lat="43.985307762149446" lon="12.675486342275043"><ele>10.0</ele><time>2026-04-03T15:57:09Z</time></trkpt><trkpt lat="43.98536985619952" lon="12.675617004342046"><ele>9.2</ele><time>2026-04-03T15:57:10Z</time></trkpt><trkpt lat="43.985445851593134" lon="12.675723547818388"><ele>8.4</ele><time>2026-04-03T15:57:11Z</time></trkpt><trkpt lat="43.98551899855333" lon="12.675808138893375"><ele>7.6</ele><time>2026-04-03T15:57:12Z</time></trkpt><trkpt lat="43.985585075531574" lon="12.675861020283973"><ele>6.8</ele><time>2026-04-03T15:57:13Z</time></trkpt><trkpt lat="43.98561887169835" lon="12.675939923946663"><ele>6.0</ele><time>2026-04-03T15:57:16Z</time></trkpt><trkpt lat="43.985568667047396" lon="12.676133432375018"><ele>5.5</ele><time>2026-04-03T15:57:23Z</time></trkpt><trkpt lat="43.985494178826016" lon="12.676230290903716"><ele>5.0</ele><time>2026-04-03T15:57:24Z</time></trkpt><trkpt lat="43.98542539079347" lon="12.676349452102084"><ele>4.5</ele><time>2026-04-03T15:57:25Z</time></trkpt><trkpt lat="43.98534773444401" lon="12.676493265786227"><ele>4.0</ele><time>2026-04-03T15:57:26Z</time></trkpt><trkpt lat="43.985280071023794" lon="12.676628096322384"><ele>3.9999999999999996</ele><time>2026-04-03T15:57:27Z</time></trkpt><trkpt lat="43.98520870257881" lon="12.676725527299931"><ele>4.0</ele><time>2026-04-03T15:57:28Z</time></trkpt><trkpt lat="43.98515281834381" lon="12.676822310744106"><ele>4.0</ele><time>2026-04-03T15:57:29Z</time></trkpt><trkpt lat="43.98511635117242" lon="12.676922351935266"><ele>4.0</ele><time>2026-04-03T15:57:30Z</time></trkpt><trkpt lat="43.985069325439724" lon="12.676996091611757"><ele>3.9999999999999996</ele><time>2026-04-03T15:57:31Z</time></trkpt><trkpt lat="43.98502629052584" lon="12.677062225398362"><ele>4.0</ele><time>2026-04-03T15:57:32Z</time></trkpt><trkpt lat="43.984952622238936" lon="12.677189739338427"><ele>4.2</ele><time>2026-04-03T15:57:34Z</time></trkpt><trkpt lat="43.984902740076336" lon="12.677276817308979"><ele>4.4</ele><time>2026-04-03T15:57:36Z</time></trkpt><trkpt lat="43.98484098847485" lon="12.67738702350448"><ele>4.6</ele><time>2026-04-03T15:57:53.999Z</time></trkpt><trkpt lat="43.984797570022636" lon="12.677461239267137"><ele>4.8</ele><time>2026-04-03T15:57:54.999Z</time></trkpt><trkpt lat="43.98472135193414" lon="12.677576803459813"><ele>5.0</ele><time>2026-04-03T15:57:56.999Z</time></trkpt><trkpt lat="43.9847962945407" lon="12.677724951712003"><ele>4.666666666666667</ele><time>2026-04-03T15:57:58.999Z</time></trkpt><trkpt lat="43.9848507038934" lon="12.677796346249472"><ele>4.333333333333334</ele><time>2026-04-03T15:57:59.999Z</time></trkpt><trkpt lat="43.984908373003826" lon="12.677871372995172"><ele>4.0</ele><time>2026-04-03T15:58:00.999Z</time></trkpt><trkpt lat="43.98495579508304" lon="12.677956216536355"><ele>3.666666666666667</ele><time>2026-04-03T15:58:01.999Z</time></trkpt><trkpt lat="43.98501791976851" lon="12.67800924833807"><ele>3.3333333333333335</ele><time>2026-04-03T15:58:02.999Z</time></trkpt><trkpt lat="43.9850741209049" lon="12.678053317639257"><ele>3.0</ele><time>2026-04-03T15:58:03.999Z</time></trkpt><trkpt lat="43.98515978950411" lon="12.678148519822214"><ele>3.0</ele><time>2026-04-03T15:58:05.999Z</time></trkpt><trkpt lat="43.98522288588201" lon="12.678256985114675"><ele>3.0</ele><time>2026-04-03T15:58:07.999Z</time></trkpt><trkpt lat="43.9853192562267" lon="12.678255044207578"><ele>3.0</ele><time>2026-04-03T15:58:09.999Z</time></trkpt><trkpt lat="43.98536329652313" lon="12.67818198522821"><ele>3.0</ele><time>2026-04-03T15:58:10.999Z</time></trkpt><trkpt lat="43.98540220698128" lon="12.678081765613586"><ele>3.0</ele><time>2026-04-03T15:58:11.999Z</time></trkpt><trkpt lat="43.98545433742502" lon="12.677983689819738"><ele>3.0</ele><time>2026-04-03T15:58:12.999Z</time></trkpt><trkpt lat="43.98551618119438" lon="12.677887308611014"><ele>3.0</ele><time>2026-04-03T15:58:13.999Z</time></trkpt><trkpt lat="43.985578143218795" lon="12.67778396001553"><ele>3.0</ele><time>2026-04-03T15:58:14.999Z</time></trkpt><trkpt lat="43.98563545359974" lon="12.677690119201394"><ele>3.0</ele><time>2026-04-03T15:58:15.999Z</time></trkpt><trkpt lat="43.9856938526931" lon="12.677592525974413"><ele>3.0</ele><time>2026-04-03T15:58:16.999Z</time></trkpt><trkpt lat="43.98575951262636" lon="12.677470557110976"><ele>3.0</ele><time>2026-04-03T15:58:17.999Z</time></trkpt><trkpt lat="43.98582814558267" lon="12.677356971480355"><ele>3.0</ele><time>2026-04-03T15:58:18.999Z</time></trkpt><trkpt lat="43.98589517835626" lon="12.677246983928722"><ele>3.0</ele><time>2026-04-03T15:58:19.999Z</time></trkpt><trkpt lat="43.98594647727826" lon="12.677154024194598"><ele>3.0</ele><time>2026-04-03T15:58:20.999Z</time></trkpt><trkpt lat="43.985986469394554" lon="12.677080561117924"><ele>3.0</ele><time>2026-04-03T15:58:21.999Z</time></trkpt><trkpt lat="43.98603983385694" lon="12.67701185223545"><ele>3.0</ele><time>2026-04-03T15:58:23.999Z</time></trkpt><trkpt lat="43.98592447995358" lon="12.676869029731375"><ele>3.1666666666666665</ele><time>2026-04-03T15:58:25.999Z</time></trkpt><trkpt lat="43.985860107137576" lon="12.67680887493018"><ele>3.333333333333333</ele><time>2026-04-03T15:58:26.999Z</time></trkpt><trkpt lat="43.98580196693585" lon="12.676728280848542"><ele>3.5</ele><time>2026-04-03T15:58:27.999Z</time></trkpt><trkpt lat="43.98574552243737" lon="12.676660253482325"><ele>3.6666666666666665</ele><time>2026-04-03T15:58:28.999Z</time></trkpt><trkpt lat="43.98565365080236" lon="12.676570146647457"><ele>3.833333333333333</ele><time>2026-04-03T15:58:30.999Z</time></trkpt><trkpt lat="43.985594566606125" lon="12.676503114211702"><ele>4.0</ele><time>2026-04-03T15:58:33.999Z</time></trkpt><trkpt lat="43.985504635958286" lon="12.676670092514316"><ele>4.0</ele><time>2026-04-03T16:03:33Z</time></trkpt><trkpt lat="43.98555239686719" lon="12.676558109498087"><ele>4.0</ele><time>2026-04-03T16:05:44Z</time></trkpt><trkpt lat="43.98563901520205" lon="12.676471982379935"><ele>4.0</ele><time>2026-04-03T16:06:12Z</time></trkpt><trkpt lat="43.98559627164449" lon="12.676563592558272"><ele>4.0</ele><time>2026-04-03T16:06:15.999Z</time></trkpt><trkpt lat="43.98560181330052" lon="12.676192454207301"><ele>4.0</ele><time>2026-04-03T16:09:46.471Z</time></trkpt><trkpt lat="43.9856145226579" lon="12.676090317720716"><ele>4.0</ele><time>2026-04-03T16:09:56.962Z</time></trkpt><trkpt lat="43.985476908315945" lon="12.676625050439654"><ele>4.0</ele><time>2026-04-03T16:10:04.954Z</time></trkpt><trkpt lat="43.985771694208196" lon="12.676555120233822"><ele>4.0</ele><time>2026-04-03T16:11:47.298Z</time></trkpt><trkpt lat="43.98568258110863" lon="12.676544231950905"><ele>4.0</ele><time>2026-04-03T16:12:05.996Z</time></trkpt><trkpt lat="43.98564718104309" lon="12.676457021551936"><ele>4.0</ele><time>2026-04-03T16:12:24.02Z</time></trkpt><trkpt lat="43.98567878207552" lon="12.676552963270872"><ele>4.0</ele><time>2026-04-03T16:12:38Z</time></trkpt><trkpt lat="43.98564925373671" lon="12.676639561495593"><ele>4.0</ele><time>2026-04-03T16:12:46.018Z</time></trkpt><trkpt lat="43.98548968483234" lon="12.676744371880863"><ele>4.0</ele><time>2026-04-03T16:13:51.799Z</time></trkpt><trkpt lat="43.985598814766696" lon="12.676192544012437"><ele>4.0</ele><time>2026-04-03T16:15:25.976Z</time></trkpt><trkpt lat="43.98577697327745" lon="12.676332255419174"><ele>4.0</ele><time>2026-04-03T16:15:57.264Z</time></trkpt><trkpt lat="43.98584200317946" lon="12.676482397528678"><ele>4.0</ele><time>2026-04-03T16:15:58.591Z</time></trkpt><trkpt lat="43.985729874438725" lon="12.676536288518408"><ele>4.0</ele><time>2026-04-03T16:16:07.997Z</time></trkpt><trkpt lat="43.98566912692626" lon="12.676566998372182"><ele>4.0</ele><time>2026-04-03T16:16:09.997Z</time></trkpt><trkpt lat="43.985611331726815" lon="12.676509959030554"><ele>3.9999999999999996</ele><time>2026-04-03T16:16:12.997Z</time></trkpt><trkpt lat="43.985523849622396" lon="12.676545920115352"><ele>4.0</ele><time>2026-04-03T16:16:18Z</time></trkpt><trkpt lat="43.98556879616253" lon="12.676477267101072"><ele>4.0</ele><time>2026-04-03T16:16:32Z</time></trkpt><trkpt lat="43.98563019533202" lon="12.676520492632042"><ele>3.9999999999999996</ele><time>2026-04-03T16:16:38Z</time></trkpt><trkpt lat="43.985673598979844" lon="12.67658813571947"><ele>4.0</ele><time>2026-04-03T16:16:42Z</time></trkpt><trkpt lat="43.985663366075606" lon="12.676494618292148"><ele>4.0</ele><time>2026-04-03T16:17:52.999Z</time></trkpt><trkpt lat="43.98560733064626" lon="12.676564826337165"><ele>4.0</ele><time>2026-04-03T16:17:56.999Z</time></trkpt><trkpt lat="43.985591445502024" lon="12.676467068683378"><ele>4.0</ele><time>2026-04-03T16:18:03.999Z</time></trkpt><trkpt lat="43.98551273630825" lon="12.676554233120338"><ele>4.0</ele><time>2026-04-03T16:18:09.999Z</time></trkpt><trkpt lat="43.985589895722036" lon="12.676552032883048"><ele>4.0</ele><time>2026-04-03T16:18:25Z</time></trkpt><trkpt lat="43.9855480278146" lon="12.676434155890712"><ele>4.0</ele><time>2026-04-03T16:18:26Z</time></trkpt><trkpt lat="43.98561147407939" lon="12.676512612281801"><ele>4.0</ele><time>2026-04-03T16:18:29Z</time></trkpt></trkseg></trk></gpx>